<?xml version="1.0" encoding="UTF-8" standalone="no" ?><gpx xmlns="http://www.topografix.com/GPX/1/1" xmlns:gpxx="http://www.garmin.com/xmlschemas/GpxExtensions/v3" xmlns:wptx1="http://www.garmin.com/xmlschemas/WaypointExtension/v1" xmlns:gpxtpx="http://www.garmin.com/xmlschemas/TrackPointExtension/v1" creator="GuideVTT.com" version="1.1" xmlns:xsi="http://www.w3.org/2001/XMLSchema-instance" xsi:schemaLocation="http://www.topografix.com/GPX/1/1 http://www.topografix.com/GPX/1/1/gpx.xsd http://www.garmin.com/xmlschemas/GpxExtensions/v3 http://www8.garmin.com/xmlschemas/GpxExtensionsv3.xsd http://www.garmin.com/xmlschemas/WaypointExtension/v1 http://www8.garmin.com/xmlschemas/WaypointExtensionv1.xsd http://www.garmin.com/xmlschemas/TrackPointExtension/v1 http://www.garmin.com/xmlschemas/TrackPointExtensionv1.xsd">
<metadata><link href="http://www.garmin.com"><text>Garmin International</text></link><time>2013-06-22T15:13:50Z</time></metadata>
<trk><name>bex-et_environs_20160816-1705.gpx</name><extensions><gpxx:TrackExtension><gpxx:DisplayColor>Cyan</gpxx:DisplayColor></gpxx:TrackExtension></extensions><trkseg>
<trkpt lat="46.24612" lon="7.01254"><ele></ele><time>2016-9-25T23:11:0Z</time></trkpt>
<trkpt lat="46.24609" lon="7.01256"><ele></ele><time>2016-9-25T23:11:3Z</time></trkpt>
<trkpt lat="46.24581" lon="7.01241"><ele></ele><time>2016-9-25T23:11:6Z</time></trkpt>
<trkpt lat="46.24579" lon="7.01238"><ele></ele><time>2016-9-25T23:11:9Z</time></trkpt>
<trkpt lat="46.24575" lon="7.01232"><ele></ele><time>2016-9-25T23:11:12Z</time></trkpt>
<trkpt lat="46.24572" lon="7.01225"><ele></ele><time>2016-9-25T23:11:15Z</time></trkpt>
<trkpt lat="46.24568" lon="7.01219"><ele></ele><time>2016-9-25T23:11:18Z</time></trkpt>
<trkpt lat="46.24565" lon="7.01217"><ele></ele><time>2016-9-25T23:11:21Z</time></trkpt>
<trkpt lat="46.24562" lon="7.01218"><ele></ele><time>2016-9-25T23:11:24Z</time></trkpt>
<trkpt lat="46.24556" lon="7.01221"><ele></ele><time>2016-9-25T23:11:27Z</time></trkpt>
<trkpt lat="46.24549" lon="7.01224"><ele></ele><time>2016-9-25T23:11:30Z</time></trkpt>
<trkpt lat="46.24543" lon="7.01227"><ele></ele><time>2016-9-25T23:11:33Z</time></trkpt>
<trkpt lat="46.24537" lon="7.01229"><ele></ele><time>2016-9-25T23:11:36Z</time></trkpt>
<trkpt lat="46.2453" lon="7.01232"><ele></ele><time>2016-9-25T23:11:39Z</time></trkpt>
<trkpt lat="46.24524" lon="7.01235"><ele></ele><time>2016-9-25T23:11:42Z</time></trkpt>
<trkpt lat="46.24521" lon="7.01236"><ele></ele><time>2016-9-25T23:11:45Z</time></trkpt>
<trkpt lat="46.24518" lon="7.01237"><ele></ele><time>2016-9-25T23:11:48Z</time></trkpt>
<trkpt lat="46.24511" lon="7.0124"><ele></ele><time>2016-9-25T23:11:51Z</time></trkpt>
<trkpt lat="46.24505" lon="7.01243"><ele></ele><time>2016-9-25T23:11:54Z</time></trkpt>
<trkpt lat="46.24499" lon="7.01246"><ele></ele><time>2016-9-25T23:11:57Z</time></trkpt>
<trkpt lat="46.24493" lon="7.01248"><ele></ele><time>2016-9-25T23:12:0Z</time></trkpt>
<trkpt lat="46.24487" lon="7.01251"><ele></ele><time>2016-9-25T23:12:3Z</time></trkpt>
<trkpt lat="46.24481" lon="7.01254"><ele></ele><time>2016-9-25T23:12:6Z</time></trkpt>
<trkpt lat="46.24478" lon="7.01255"><ele></ele><time>2016-9-25T23:12:9Z</time></trkpt>
<trkpt lat="46.24475" lon="7.01258"><ele></ele><time>2016-9-25T23:12:12Z</time></trkpt>
<trkpt lat="46.24469" lon="7.01262"><ele></ele><time>2016-9-25T23:12:15Z</time></trkpt>
<trkpt lat="46.24463" lon="7.01267"><ele></ele><time>2016-9-25T23:12:18Z</time></trkpt>
<trkpt lat="46.24456" lon="7.01272"><ele></ele><time>2016-9-25T23:12:21Z</time></trkpt>
<trkpt lat="46.2445" lon="7.01276"><ele></ele><time>2016-9-25T23:12:24Z</time></trkpt>
<trkpt lat="46.24444" lon="7.01281"><ele></ele><time>2016-9-25T23:12:27Z</time></trkpt>
<trkpt lat="46.24438" lon="7.01286"><ele></ele><time>2016-9-25T23:12:30Z</time></trkpt>
<trkpt lat="46.24435" lon="7.01288"><ele></ele><time>2016-9-25T23:12:33Z</time></trkpt>
<trkpt lat="46.24432" lon="7.01292"><ele></ele><time>2016-9-25T23:12:36Z</time></trkpt>
<trkpt lat="46.24425" lon="7.01298"><ele></ele><time>2016-9-25T23:12:39Z</time></trkpt>
<trkpt lat="46.24418" lon="7.01305"><ele></ele><time>2016-9-25T23:12:42Z</time></trkpt>
<trkpt lat="46.24414" lon="7.01309"><ele></ele><time>2016-9-25T23:12:45Z</time></trkpt>
<trkpt lat="46.24411" lon="7.01312"><ele></ele><time>2016-9-25T23:12:48Z</time></trkpt>
<trkpt lat="46.24404" lon="7.01319"><ele></ele><time>2016-9-25T23:12:51Z</time></trkpt>
<trkpt lat="46.24397" lon="7.01326"><ele></ele><time>2016-9-25T23:12:54Z</time></trkpt>
<trkpt lat="46.24386" lon="7.01335"><ele></ele><time>2016-9-25T23:12:57Z</time></trkpt>
<trkpt lat="46.24375" lon="7.01344"><ele></ele><time>2016-9-25T23:13:0Z</time></trkpt>
<trkpt lat="46.2437" lon="7.01346"><ele></ele><time>2016-9-25T23:13:3Z</time></trkpt>
<trkpt lat="46.24365" lon="7.01342"><ele></ele><time>2016-9-25T23:13:6Z</time></trkpt>
<trkpt lat="46.24357" lon="7.01323"><ele></ele><time>2016-9-25T23:13:9Z</time></trkpt>
<trkpt lat="46.2435" lon="7.01304"><ele></ele><time>2016-9-25T23:13:12Z</time></trkpt>
<trkpt lat="46.24342" lon="7.01285"><ele></ele><time>2016-9-25T23:13:15Z</time></trkpt>
<trkpt lat="46.24333" lon="7.01263"><ele></ele><time>2016-9-25T23:13:18Z</time></trkpt>
<trkpt lat="46.24325" lon="7.01241"><ele></ele><time>2016-9-25T23:13:21Z</time></trkpt>
<trkpt lat="46.24316" lon="7.01219"><ele></ele><time>2016-9-25T23:13:24Z</time></trkpt>
<trkpt lat="46.24308" lon="7.01198"><ele></ele><time>2016-9-25T23:13:27Z</time></trkpt>
<trkpt lat="46.24299" lon="7.01177"><ele></ele><time>2016-9-25T23:13:30Z</time></trkpt>
<trkpt lat="46.24291" lon="7.01157"><ele></ele><time>2016-9-25T23:13:33Z</time></trkpt>
<trkpt lat="46.24286" lon="7.01143"><ele></ele><time>2016-9-25T23:13:36Z</time></trkpt>
<trkpt lat="46.2428" lon="7.01129"><ele></ele><time>2016-9-25T23:13:39Z</time></trkpt>
<trkpt lat="46.24274" lon="7.01116"><ele></ele><time>2016-9-25T23:13:42Z</time></trkpt>
<trkpt lat="46.24271" lon="7.01111"><ele></ele><time>2016-9-25T23:13:45Z</time></trkpt>
<trkpt lat="46.24267" lon="7.01111"><ele></ele><time>2016-9-25T23:13:48Z</time></trkpt>
<trkpt lat="46.24263" lon="7.01113"><ele></ele><time>2016-9-25T23:13:51Z</time></trkpt>
<trkpt lat="46.24259" lon="7.01118"><ele></ele><time>2016-9-25T23:13:54Z</time></trkpt>
<trkpt lat="46.24251" lon="7.0113"><ele></ele><time>2016-9-25T23:13:57Z</time></trkpt>
<trkpt lat="46.24242" lon="7.01141"><ele></ele><time>2016-9-25T23:14:0Z</time></trkpt>
<trkpt lat="46.24238" lon="7.01146"><ele></ele><time>2016-9-25T23:14:3Z</time></trkpt>
<trkpt lat="46.24234" lon="7.01152"><ele></ele><time>2016-9-25T23:14:6Z</time></trkpt>
<trkpt lat="46.24229" lon="7.01158"><ele></ele><time>2016-9-25T23:14:9Z</time></trkpt>
<trkpt lat="46.24224" lon="7.01164"><ele></ele><time>2016-9-25T23:14:12Z</time></trkpt>
<trkpt lat="46.24214" lon="7.01176"><ele></ele><time>2016-9-25T23:14:15Z</time></trkpt>
<trkpt lat="46.24203" lon="7.01188"><ele></ele><time>2016-9-25T23:14:18Z</time></trkpt>
<trkpt lat="46.24192" lon="7.01199"><ele></ele><time>2016-9-25T23:14:21Z</time></trkpt>
<trkpt lat="46.2418" lon="7.01207"><ele></ele><time>2016-9-25T23:14:24Z</time></trkpt>
<trkpt lat="46.24168" lon="7.01213"><ele></ele><time>2016-9-25T23:14:27Z</time></trkpt>
<trkpt lat="46.24156" lon="7.01213"><ele></ele><time>2016-9-25T23:14:30Z</time></trkpt>
<trkpt lat="46.24145" lon="7.01212"><ele></ele><time>2016-9-25T23:14:33Z</time></trkpt>
<trkpt lat="46.24133" lon="7.01212"><ele></ele><time>2016-9-25T23:14:36Z</time></trkpt>
<trkpt lat="46.24122" lon="7.01212"><ele></ele><time>2016-9-25T23:14:39Z</time></trkpt>
<trkpt lat="46.24117" lon="7.01214"><ele></ele><time>2016-9-25T23:14:42Z</time></trkpt>
<trkpt lat="46.24113" lon="7.01216"><ele></ele><time>2016-9-25T23:14:45Z</time></trkpt>
<trkpt lat="46.24108" lon="7.01218"><ele></ele><time>2016-9-25T23:14:48Z</time></trkpt>
<trkpt lat="46.24103" lon="7.0122"><ele></ele><time>2016-9-25T23:14:51Z</time></trkpt>
<trkpt lat="46.24099" lon="7.01222"><ele></ele><time>2016-9-25T23:14:54Z</time></trkpt>
<trkpt lat="46.24094" lon="7.01224"><ele></ele><time>2016-9-25T23:14:57Z</time></trkpt>
<trkpt lat="46.2409" lon="7.01226"><ele></ele><time>2016-9-25T23:15:0Z</time></trkpt>
<trkpt lat="46.24085" lon="7.01228"><ele></ele><time>2016-9-25T23:15:3Z</time></trkpt>
<trkpt lat="46.24081" lon="7.0123"><ele></ele><time>2016-9-25T23:15:6Z</time></trkpt>
<trkpt lat="46.24078" lon="7.0123"><ele></ele><time>2016-9-25T23:15:9Z</time></trkpt>
<trkpt lat="46.24077" lon="7.01231"><ele></ele><time>2016-9-25T23:15:12Z</time></trkpt>
<trkpt lat="46.24073" lon="7.01232"><ele></ele><time>2016-9-25T23:15:15Z</time></trkpt>
<trkpt lat="46.2407" lon="7.01234"><ele></ele><time>2016-9-25T23:15:18Z</time></trkpt>
<trkpt lat="46.24067" lon="7.01235"><ele></ele><time>2016-9-25T23:15:21Z</time></trkpt>
<trkpt lat="46.24063" lon="7.01236"><ele></ele><time>2016-9-25T23:15:24Z</time></trkpt>
<trkpt lat="46.2406" lon="7.01237"><ele></ele><time>2016-9-25T23:15:27Z</time></trkpt>
<trkpt lat="46.24057" lon="7.01239"><ele></ele><time>2016-9-25T23:15:30Z</time></trkpt>
<trkpt lat="46.24053" lon="7.0124"><ele></ele><time>2016-9-25T23:15:33Z</time></trkpt>
<trkpt lat="46.2405" lon="7.01241"><ele></ele><time>2016-9-25T23:15:36Z</time></trkpt>
<trkpt lat="46.24046" lon="7.01242"><ele></ele><time>2016-9-25T23:15:39Z</time></trkpt>
<trkpt lat="46.24043" lon="7.01244"><ele></ele><time>2016-9-25T23:15:42Z</time></trkpt>
<trkpt lat="46.2404" lon="7.01245"><ele></ele><time>2016-9-25T23:15:45Z</time></trkpt>
<trkpt lat="46.24036" lon="7.01246"><ele></ele><time>2016-9-25T23:15:48Z</time></trkpt>
<trkpt lat="46.24035" lon="7.01247"><ele></ele><time>2016-9-25T23:15:51Z</time></trkpt>
<trkpt lat="46.24033" lon="7.01248"><ele></ele><time>2016-9-25T23:15:54Z</time></trkpt>
<trkpt lat="46.2403" lon="7.0125"><ele></ele><time>2016-9-25T23:15:57Z</time></trkpt>
<trkpt lat="46.24027" lon="7.01252"><ele></ele><time>2016-9-25T23:16:0Z</time></trkpt>
<trkpt lat="46.24023" lon="7.01254"><ele></ele><time>2016-9-25T23:16:3Z</time></trkpt>
<trkpt lat="46.2402" lon="7.01257"><ele></ele><time>2016-9-25T23:16:6Z</time></trkpt>
<trkpt lat="46.24017" lon="7.01259"><ele></ele><time>2016-9-25T23:16:9Z</time></trkpt>
<trkpt lat="46.24014" lon="7.01261"><ele></ele><time>2016-9-25T23:16:12Z</time></trkpt>
<trkpt lat="46.24011" lon="7.01263"><ele></ele><time>2016-9-25T23:16:15Z</time></trkpt>
<trkpt lat="46.24007" lon="7.01265"><ele></ele><time>2016-9-25T23:16:18Z</time></trkpt>
<trkpt lat="46.24004" lon="7.01267"><ele></ele><time>2016-9-25T23:16:21Z</time></trkpt>
<trkpt lat="46.24001" lon="7.01269"><ele></ele><time>2016-9-25T23:16:24Z</time></trkpt>
<trkpt lat="46.23998" lon="7.01272"><ele></ele><time>2016-9-25T23:16:27Z</time></trkpt>
<trkpt lat="46.23994" lon="7.01274"><ele></ele><time>2016-9-25T23:16:30Z</time></trkpt>
<trkpt lat="46.23993" lon="7.01275"><ele></ele><time>2016-9-25T23:16:33Z</time></trkpt>
<trkpt lat="46.23992" lon="7.01277"><ele></ele><time>2016-9-25T23:16:36Z</time></trkpt>
<trkpt lat="46.23989" lon="7.0128"><ele></ele><time>2016-9-25T23:16:39Z</time></trkpt>
<trkpt lat="46.23987" lon="7.01283"><ele></ele><time>2016-9-25T23:16:42Z</time></trkpt>
<trkpt lat="46.23984" lon="7.01286"><ele></ele><time>2016-9-25T23:16:45Z</time></trkpt>
<trkpt lat="46.23983" lon="7.01288"><ele></ele><time>2016-9-25T23:16:48Z</time></trkpt>
<trkpt lat="46.23982" lon="7.0129"><ele></ele><time>2016-9-25T23:16:51Z</time></trkpt>
<trkpt lat="46.23979" lon="7.01293"><ele></ele><time>2016-9-25T23:16:54Z</time></trkpt>
<trkpt lat="46.23976" lon="7.01296"><ele></ele><time>2016-9-25T23:16:57Z</time></trkpt>
<trkpt lat="46.23974" lon="7.013"><ele></ele><time>2016-9-25T23:17:0Z</time></trkpt>
<trkpt lat="46.23971" lon="7.01303"><ele></ele><time>2016-9-25T23:17:3Z</time></trkpt>
<trkpt lat="46.23969" lon="7.01306"><ele></ele><time>2016-9-25T23:17:6Z</time></trkpt>
<trkpt lat="46.23966" lon="7.0131"><ele></ele><time>2016-9-25T23:17:9Z</time></trkpt>
<trkpt lat="46.23964" lon="7.01313"><ele></ele><time>2016-9-25T23:17:12Z</time></trkpt>
<trkpt lat="46.23961" lon="7.01315"><ele></ele><time>2016-9-25T23:17:15Z</time></trkpt>
<trkpt lat="46.23961" lon="7.01313"><ele></ele><time>2016-9-25T23:17:18Z</time></trkpt>
<trkpt lat="46.2396" lon="7.0131"><ele></ele><time>2016-9-25T23:17:21Z</time></trkpt>
<trkpt lat="46.23959" lon="7.01305"><ele></ele><time>2016-9-25T23:17:24Z</time></trkpt>
<trkpt lat="46.23957" lon="7.01301"><ele></ele><time>2016-9-25T23:17:27Z</time></trkpt>
<trkpt lat="46.23956" lon="7.01296"><ele></ele><time>2016-9-25T23:17:30Z</time></trkpt>
<trkpt lat="46.23954" lon="7.01291"><ele></ele><time>2016-9-25T23:17:33Z</time></trkpt>
<trkpt lat="46.23953" lon="7.01286"><ele></ele><time>2016-9-25T23:17:36Z</time></trkpt>
<trkpt lat="46.23952" lon="7.01281"><ele></ele><time>2016-9-25T23:17:39Z</time></trkpt>
<trkpt lat="46.2395" lon="7.01276"><ele></ele><time>2016-9-25T23:17:42Z</time></trkpt>
<trkpt lat="46.23949" lon="7.01271"><ele></ele><time>2016-9-25T23:17:45Z</time></trkpt>
<trkpt lat="46.23947" lon="7.01266"><ele></ele><time>2016-9-25T23:17:48Z</time></trkpt>
<trkpt lat="46.23946" lon="7.01261"><ele></ele><time>2016-9-25T23:17:51Z</time></trkpt>
<trkpt lat="46.23945" lon="7.01259"><ele></ele><time>2016-9-25T23:17:54Z</time></trkpt>
<trkpt lat="46.23945" lon="7.01257"><ele></ele><time>2016-9-25T23:17:57Z</time></trkpt>
<trkpt lat="46.23944" lon="7.01254"><ele></ele><time>2016-9-25T23:18:0Z</time></trkpt>
<trkpt lat="46.23943" lon="7.01253"><ele></ele><time>2016-9-25T23:18:3Z</time></trkpt>
<trkpt lat="46.23941" lon="7.01249"><ele></ele><time>2016-9-25T23:18:6Z</time></trkpt>
<trkpt lat="46.2394" lon="7.01245"><ele></ele><time>2016-9-25T23:18:9Z</time></trkpt>
<trkpt lat="46.23938" lon="7.01242"><ele></ele><time>2016-9-25T23:18:12Z</time></trkpt>
<trkpt lat="46.23936" lon="7.01238"><ele></ele><time>2016-9-25T23:18:15Z</time></trkpt>
<trkpt lat="46.23934" lon="7.01235"><ele></ele><time>2016-9-25T23:18:18Z</time></trkpt>
<trkpt lat="46.23933" lon="7.01231"><ele></ele><time>2016-9-25T23:18:21Z</time></trkpt>
<trkpt lat="46.23931" lon="7.01227"><ele></ele><time>2016-9-25T23:18:24Z</time></trkpt>
<trkpt lat="46.23929" lon="7.01224"><ele></ele><time>2016-9-25T23:18:27Z</time></trkpt>
<trkpt lat="46.23927" lon="7.0122"><ele></ele><time>2016-9-25T23:18:30Z</time></trkpt>
<trkpt lat="46.23926" lon="7.01217"><ele></ele><time>2016-9-25T23:18:33Z</time></trkpt>
<trkpt lat="46.23924" lon="7.01213"><ele></ele><time>2016-9-25T23:18:36Z</time></trkpt>
<trkpt lat="46.23922" lon="7.01209"><ele></ele><time>2016-9-25T23:18:39Z</time></trkpt>
<trkpt lat="46.23921" lon="7.01208"><ele></ele><time>2016-9-25T23:18:42Z</time></trkpt>
<trkpt lat="46.23921" lon="7.01206"><ele></ele><time>2016-9-25T23:18:45Z</time></trkpt>
<trkpt lat="46.23919" lon="7.01202"><ele></ele><time>2016-9-25T23:18:48Z</time></trkpt>
<trkpt lat="46.23918" lon="7.012"><ele></ele><time>2016-9-25T23:18:51Z</time></trkpt>
<trkpt lat="46.23917" lon="7.01199"><ele></ele><time>2016-9-25T23:18:54Z</time></trkpt>
<trkpt lat="46.23914" lon="7.01195"><ele></ele><time>2016-9-25T23:18:57Z</time></trkpt>
<trkpt lat="46.23911" lon="7.01192"><ele></ele><time>2016-9-25T23:19:0Z</time></trkpt>
<trkpt lat="46.23909" lon="7.01188"><ele></ele><time>2016-9-25T23:19:3Z</time></trkpt>
<trkpt lat="46.23906" lon="7.01185"><ele></ele><time>2016-9-25T23:19:6Z</time></trkpt>
<trkpt lat="46.23903" lon="7.01181"><ele></ele><time>2016-9-25T23:19:9Z</time></trkpt>
<trkpt lat="46.23902" lon="7.01179"><ele></ele><time>2016-9-25T23:19:12Z</time></trkpt>
<trkpt lat="46.23901" lon="7.01178"><ele></ele><time>2016-9-25T23:19:15Z</time></trkpt>
<trkpt lat="46.23898" lon="7.01174"><ele></ele><time>2016-9-25T23:19:18Z</time></trkpt>
<trkpt lat="46.23895" lon="7.01171"><ele></ele><time>2016-9-25T23:19:21Z</time></trkpt>
<trkpt lat="46.23893" lon="7.01167"><ele></ele><time>2016-9-25T23:19:24Z</time></trkpt>
<trkpt lat="46.2389" lon="7.01164"><ele></ele><time>2016-9-25T23:19:27Z</time></trkpt>
<trkpt lat="46.23888" lon="7.0116"><ele></ele><time>2016-9-25T23:19:30Z</time></trkpt>
<trkpt lat="46.23885" lon="7.01157"><ele></ele><time>2016-9-25T23:19:33Z</time></trkpt>
<trkpt lat="46.23883" lon="7.01154"><ele></ele><time>2016-9-25T23:19:36Z</time></trkpt>
<trkpt lat="46.2388" lon="7.01151"><ele></ele><time>2016-9-25T23:19:39Z</time></trkpt>
<trkpt lat="46.23878" lon="7.01147"><ele></ele><time>2016-9-25T23:19:42Z</time></trkpt>
<trkpt lat="46.23875" lon="7.01143"><ele></ele><time>2016-9-25T23:19:45Z</time></trkpt>
<trkpt lat="46.23869" lon="7.01136"><ele></ele><time>2016-9-25T23:19:48Z</time></trkpt>
<trkpt lat="46.23864" lon="7.01129"><ele></ele><time>2016-9-25T23:19:51Z</time></trkpt>
<trkpt lat="46.23858" lon="7.01121"><ele></ele><time>2016-9-25T23:19:54Z</time></trkpt>
<trkpt lat="46.23853" lon="7.01114"><ele></ele><time>2016-9-25T23:19:57Z</time></trkpt>
<trkpt lat="46.2385" lon="7.01111"><ele></ele><time>2016-9-25T23:20:0Z</time></trkpt>
<trkpt lat="46.23849" lon="7.01109"><ele></ele><time>2016-9-25T23:20:3Z</time></trkpt>
<trkpt lat="46.23845" lon="7.01106"><ele></ele><time>2016-9-25T23:20:6Z</time></trkpt>
<trkpt lat="46.23841" lon="7.01103"><ele></ele><time>2016-9-25T23:20:9Z</time></trkpt>
<trkpt lat="46.23838" lon="7.011"><ele></ele><time>2016-9-25T23:20:12Z</time></trkpt>
<trkpt lat="46.23834" lon="7.01097"><ele></ele><time>2016-9-25T23:20:15Z</time></trkpt>
<trkpt lat="46.23831" lon="7.01093"><ele></ele><time>2016-9-25T23:20:18Z</time></trkpt>
<trkpt lat="46.23827" lon="7.0109"><ele></ele><time>2016-9-25T23:20:21Z</time></trkpt>
<trkpt lat="46.23824" lon="7.01087"><ele></ele><time>2016-9-25T23:20:24Z</time></trkpt>
<trkpt lat="46.2382" lon="7.01084"><ele></ele><time>2016-9-25T23:20:27Z</time></trkpt>
<trkpt lat="46.23817" lon="7.01081"><ele></ele><time>2016-9-25T23:20:30Z</time></trkpt>
<trkpt lat="46.23813" lon="7.01077"><ele></ele><time>2016-9-25T23:20:33Z</time></trkpt>
<trkpt lat="46.23812" lon="7.01076"><ele></ele><time>2016-9-25T23:20:36Z</time></trkpt>
<trkpt lat="46.2381" lon="7.01075"><ele></ele><time>2016-9-25T23:20:39Z</time></trkpt>
<trkpt lat="46.23807" lon="7.01073"><ele></ele><time>2016-9-25T23:20:42Z</time></trkpt>
<trkpt lat="46.23805" lon="7.01071"><ele></ele><time>2016-9-25T23:20:45Z</time></trkpt>
<trkpt lat="46.23802" lon="7.01068"><ele></ele><time>2016-9-25T23:20:48Z</time></trkpt>
<trkpt lat="46.23799" lon="7.01066"><ele></ele><time>2016-9-25T23:20:51Z</time></trkpt>
<trkpt lat="46.23797" lon="7.01064"><ele></ele><time>2016-9-25T23:20:54Z</time></trkpt>
<trkpt lat="46.23794" lon="7.01062"><ele></ele><time>2016-9-25T23:20:57Z</time></trkpt>
<trkpt lat="46.23791" lon="7.0106"><ele></ele><time>2016-9-25T23:21:0Z</time></trkpt>
<trkpt lat="46.23788" lon="7.01058"><ele></ele><time>2016-9-25T23:21:3Z</time></trkpt>
<trkpt lat="46.23786" lon="7.01055"><ele></ele><time>2016-9-25T23:21:6Z</time></trkpt>
<trkpt lat="46.23784" lon="7.01054"><ele></ele><time>2016-9-25T23:21:9Z</time></trkpt>
<trkpt lat="46.23783" lon="7.01053"><ele></ele><time>2016-9-25T23:21:12Z</time></trkpt>
<trkpt lat="46.2378" lon="7.01051"><ele></ele><time>2016-9-25T23:21:15Z</time></trkpt>
<trkpt lat="46.23778" lon="7.01049"><ele></ele><time>2016-9-25T23:21:18Z</time></trkpt>
<trkpt lat="46.23775" lon="7.01047"><ele></ele><time>2016-9-25T23:21:21Z</time></trkpt>
<trkpt lat="46.23772" lon="7.01044"><ele></ele><time>2016-9-25T23:21:24Z</time></trkpt>
<trkpt lat="46.2377" lon="7.01041"><ele></ele><time>2016-9-25T23:21:27Z</time></trkpt>
<trkpt lat="46.23768" lon="7.01038"><ele></ele><time>2016-9-25T23:21:30Z</time></trkpt>
<trkpt lat="46.23766" lon="7.01035"><ele></ele><time>2016-9-25T23:21:33Z</time></trkpt>
<trkpt lat="46.23764" lon="7.01032"><ele></ele><time>2016-9-25T23:21:36Z</time></trkpt>
<trkpt lat="46.23762" lon="7.01029"><ele></ele><time>2016-9-25T23:21:39Z</time></trkpt>
<trkpt lat="46.2376" lon="7.01026"><ele></ele><time>2016-9-25T23:21:42Z</time></trkpt>
<trkpt lat="46.23757" lon="7.01022"><ele></ele><time>2016-9-25T23:21:45Z</time></trkpt>
<trkpt lat="46.23755" lon="7.01019"><ele></ele><time>2016-9-25T23:21:48Z</time></trkpt>
<trkpt lat="46.23753" lon="7.01016"><ele></ele><time>2016-9-25T23:21:51Z</time></trkpt>
<trkpt lat="46.23751" lon="7.01013"><ele></ele><time>2016-9-25T23:21:54Z</time></trkpt>
<trkpt lat="46.23749" lon="7.0101"><ele></ele><time>2016-9-25T23:21:57Z</time></trkpt>
<trkpt lat="46.23747" lon="7.01007"><ele></ele><time>2016-9-25T23:22:0Z</time></trkpt>
<trkpt lat="46.23745" lon="7.01003"><ele></ele><time>2016-9-25T23:22:3Z</time></trkpt>
<trkpt lat="46.23743" lon="7.01"><ele></ele><time>2016-9-25T23:22:6Z</time></trkpt>
<trkpt lat="46.23741" lon="7.00997"><ele></ele><time>2016-9-25T23:22:9Z</time></trkpt>
<trkpt lat="46.23738" lon="7.00995"><ele></ele><time>2016-9-25T23:22:12Z</time></trkpt>
<trkpt lat="46.23736" lon="7.00992"><ele></ele><time>2016-9-25T23:22:15Z</time></trkpt>
<trkpt lat="46.23735" lon="7.00991"><ele></ele><time>2016-9-25T23:22:18Z</time></trkpt>
<trkpt lat="46.23734" lon="7.00989"><ele></ele><time>2016-9-25T23:22:21Z</time></trkpt>
<trkpt lat="46.23731" lon="7.00986"><ele></ele><time>2016-9-25T23:22:24Z</time></trkpt>
<trkpt lat="46.23729" lon="7.00984"><ele></ele><time>2016-9-25T23:22:27Z</time></trkpt>
<trkpt lat="46.23727" lon="7.00981"><ele></ele><time>2016-9-25T23:22:30Z</time></trkpt>
<trkpt lat="46.23724" lon="7.00978"><ele></ele><time>2016-9-25T23:22:33Z</time></trkpt>
<trkpt lat="46.23722" lon="7.00976"><ele></ele><time>2016-9-25T23:22:36Z</time></trkpt>
<trkpt lat="46.2372" lon="7.00973"><ele></ele><time>2016-9-25T23:22:39Z</time></trkpt>
<trkpt lat="46.23717" lon="7.0097"><ele></ele><time>2016-9-25T23:22:42Z</time></trkpt>
<trkpt lat="46.23715" lon="7.00968"><ele></ele><time>2016-9-25T23:22:45Z</time></trkpt>
<trkpt lat="46.23713" lon="7.00965"><ele></ele><time>2016-9-25T23:22:48Z</time></trkpt>
<trkpt lat="46.2371" lon="7.00962"><ele></ele><time>2016-9-25T23:22:51Z</time></trkpt>
<trkpt lat="46.23708" lon="7.0096"><ele></ele><time>2016-9-25T23:22:54Z</time></trkpt>
<trkpt lat="46.23706" lon="7.00957"><ele></ele><time>2016-9-25T23:22:57Z</time></trkpt>
<trkpt lat="46.23705" lon="7.00956"><ele></ele><time>2016-9-25T23:23:0Z</time></trkpt>
<trkpt lat="46.23703" lon="7.00956"><ele></ele><time>2016-9-25T23:23:3Z</time></trkpt>
<trkpt lat="46.23701" lon="7.00957"><ele></ele><time>2016-9-25T23:23:6Z</time></trkpt>
<trkpt lat="46.23698" lon="7.00957"><ele></ele><time>2016-9-25T23:23:9Z</time></trkpt>
<trkpt lat="46.23695" lon="7.00958"><ele></ele><time>2016-9-25T23:23:12Z</time></trkpt>
<trkpt lat="46.23693" lon="7.00959"><ele></ele><time>2016-9-25T23:23:15Z</time></trkpt>
<trkpt lat="46.2369" lon="7.00959"><ele></ele><time>2016-9-25T23:23:18Z</time></trkpt>
<trkpt lat="46.23688" lon="7.0096"><ele></ele><time>2016-9-25T23:23:21Z</time></trkpt>
<trkpt lat="46.23685" lon="7.0096"><ele></ele><time>2016-9-25T23:23:24Z</time></trkpt>
<trkpt lat="46.23683" lon="7.00961"><ele></ele><time>2016-9-25T23:23:27Z</time></trkpt>
<trkpt lat="46.2368" lon="7.00964"><ele></ele><time>2016-9-25T23:23:30Z</time></trkpt>
<trkpt lat="46.23678" lon="7.00968"><ele></ele><time>2016-9-25T23:23:33Z</time></trkpt>
<trkpt lat="46.23676" lon="7.00971"><ele></ele><time>2016-9-25T23:23:36Z</time></trkpt>
<trkpt lat="46.23675" lon="7.00973"><ele></ele><time>2016-9-25T23:23:39Z</time></trkpt>
<trkpt lat="46.23674" lon="7.00974"><ele></ele><time>2016-9-25T23:23:42Z</time></trkpt>
<trkpt lat="46.23672" lon="7.00977"><ele></ele><time>2016-9-25T23:23:45Z</time></trkpt>
<trkpt lat="46.2367" lon="7.00981"><ele></ele><time>2016-9-25T23:23:48Z</time></trkpt>
<trkpt lat="46.23667" lon="7.00984"><ele></ele><time>2016-9-25T23:23:51Z</time></trkpt>
<trkpt lat="46.23665" lon="7.00987"><ele></ele><time>2016-9-25T23:23:54Z</time></trkpt>
<trkpt lat="46.23663" lon="7.0099"><ele></ele><time>2016-9-25T23:23:57Z</time></trkpt>
<trkpt lat="46.23661" lon="7.00993"><ele></ele><time>2016-9-25T23:24:0Z</time></trkpt>
<trkpt lat="46.23659" lon="7.00997"><ele></ele><time>2016-9-25T23:24:3Z</time></trkpt>
<trkpt lat="46.23657" lon="7.01"><ele></ele><time>2016-9-25T23:24:6Z</time></trkpt>
<trkpt lat="46.23654" lon="7.01003"><ele></ele><time>2016-9-25T23:24:9Z</time></trkpt>
<trkpt lat="46.23652" lon="7.01006"><ele></ele><time>2016-9-25T23:24:12Z</time></trkpt>
<trkpt lat="46.23651" lon="7.01008"><ele></ele><time>2016-9-25T23:24:15Z</time></trkpt>
<trkpt lat="46.2365" lon="7.0101"><ele></ele><time>2016-9-25T23:24:18Z</time></trkpt>
<trkpt lat="46.23647" lon="7.01013"><ele></ele><time>2016-9-25T23:24:21Z</time></trkpt>
<trkpt lat="46.23644" lon="7.01017"><ele></ele><time>2016-9-25T23:24:24Z</time></trkpt>
<trkpt lat="46.23641" lon="7.0102"><ele></ele><time>2016-9-25T23:24:27Z</time></trkpt>
<trkpt lat="46.23638" lon="7.01024"><ele></ele><time>2016-9-25T23:24:30Z</time></trkpt>
<trkpt lat="46.23635" lon="7.01028"><ele></ele><time>2016-9-25T23:24:33Z</time></trkpt>
<trkpt lat="46.23633" lon="7.01029"><ele></ele><time>2016-9-25T23:24:36Z</time></trkpt>
<trkpt lat="46.23632" lon="7.01031"><ele></ele><time>2016-9-25T23:24:39Z</time></trkpt>
<trkpt lat="46.23629" lon="7.01035"><ele></ele><time>2016-9-25T23:24:42Z</time></trkpt>
<trkpt lat="46.23626" lon="7.01038"><ele></ele><time>2016-9-25T23:24:45Z</time></trkpt>
<trkpt lat="46.23623" lon="7.01042"><ele></ele><time>2016-9-25T23:24:48Z</time></trkpt>
<trkpt lat="46.2362" lon="7.01046"><ele></ele><time>2016-9-25T23:24:51Z</time></trkpt>
<trkpt lat="46.23617" lon="7.01049"><ele></ele><time>2016-9-25T23:24:54Z</time></trkpt>
<trkpt lat="46.23615" lon="7.01051"><ele></ele><time>2016-9-25T23:24:57Z</time></trkpt>
<trkpt lat="46.23614" lon="7.01052"><ele></ele><time>2016-9-25T23:25:0Z</time></trkpt>
<trkpt lat="46.23611" lon="7.01055"><ele></ele><time>2016-9-25T23:25:3Z</time></trkpt>
<trkpt lat="46.23607" lon="7.01057"><ele></ele><time>2016-9-25T23:25:6Z</time></trkpt>
<trkpt lat="46.23604" lon="7.0106"><ele></ele><time>2016-9-25T23:25:9Z</time></trkpt>
<trkpt lat="46.23601" lon="7.01062"><ele></ele><time>2016-9-25T23:25:12Z</time></trkpt>
<trkpt lat="46.23598" lon="7.01065"><ele></ele><time>2016-9-25T23:25:15Z</time></trkpt>
<trkpt lat="46.23594" lon="7.01067"><ele></ele><time>2016-9-25T23:25:18Z</time></trkpt>
<trkpt lat="46.23591" lon="7.0107"><ele></ele><time>2016-9-25T23:25:21Z</time></trkpt>
<trkpt lat="46.23588" lon="7.01072"><ele></ele><time>2016-9-25T23:25:24Z</time></trkpt>
<trkpt lat="46.23585" lon="7.01075"><ele></ele><time>2016-9-25T23:25:27Z</time></trkpt>
<trkpt lat="46.23581" lon="7.01077"><ele></ele><time>2016-9-25T23:25:30Z</time></trkpt>
<trkpt lat="46.23578" lon="7.0108"><ele></ele><time>2016-9-25T23:25:33Z</time></trkpt>
<trkpt lat="46.23575" lon="7.01082"><ele></ele><time>2016-9-25T23:25:36Z</time></trkpt>
<trkpt lat="46.23573" lon="7.01082"><ele></ele><time>2016-9-25T23:25:39Z</time></trkpt>
<trkpt lat="46.23571" lon="7.01082"><ele></ele><time>2016-9-25T23:25:42Z</time></trkpt>
<trkpt lat="46.23568" lon="7.01082"><ele></ele><time>2016-9-25T23:25:45Z</time></trkpt>
<trkpt lat="46.23564" lon="7.01082"><ele></ele><time>2016-9-25T23:25:48Z</time></trkpt>
<trkpt lat="46.2356" lon="7.01082"><ele></ele><time>2016-9-25T23:25:51Z</time></trkpt>
<trkpt lat="46.23557" lon="7.01082"><ele></ele><time>2016-9-25T23:25:54Z</time></trkpt>
<trkpt lat="46.23553" lon="7.01082"><ele></ele><time>2016-9-25T23:25:57Z</time></trkpt>
<trkpt lat="46.23549" lon="7.01082"><ele></ele><time>2016-9-25T23:26:0Z</time></trkpt>
<trkpt lat="46.23546" lon="7.01082"><ele></ele><time>2016-9-25T23:26:3Z</time></trkpt>
<trkpt lat="46.23542" lon="7.01082"><ele></ele><time>2016-9-25T23:26:6Z</time></trkpt>
<trkpt lat="46.23538" lon="7.01083"><ele></ele><time>2016-9-25T23:26:9Z</time></trkpt>
<trkpt lat="46.23534" lon="7.01083"><ele></ele><time>2016-9-25T23:26:12Z</time></trkpt>
<trkpt lat="46.23533" lon="7.01083"><ele></ele><time>2016-9-25T23:26:15Z</time></trkpt>
<trkpt lat="46.23531" lon="7.01083"><ele></ele><time>2016-9-25T23:26:18Z</time></trkpt>
<trkpt lat="46.23529" lon="7.01082"><ele></ele><time>2016-9-25T23:26:21Z</time></trkpt>
<trkpt lat="46.23527" lon="7.01081"><ele></ele><time>2016-9-25T23:26:24Z</time></trkpt>
<trkpt lat="46.23524" lon="7.01079"><ele></ele><time>2016-9-25T23:26:27Z</time></trkpt>
<trkpt lat="46.2352" lon="7.01077"><ele></ele><time>2016-9-25T23:26:30Z</time></trkpt>
<trkpt lat="46.23516" lon="7.01075"><ele></ele><time>2016-9-25T23:26:33Z</time></trkpt>
<trkpt lat="46.23513" lon="7.01073"><ele></ele><time>2016-9-25T23:26:36Z</time></trkpt>
<trkpt lat="46.23509" lon="7.01071"><ele></ele><time>2016-9-25T23:26:39Z</time></trkpt>
<trkpt lat="46.23506" lon="7.01069"><ele></ele><time>2016-9-25T23:26:42Z</time></trkpt>
<trkpt lat="46.23502" lon="7.01067"><ele></ele><time>2016-9-25T23:26:45Z</time></trkpt>
<trkpt lat="46.23501" lon="7.01067"><ele></ele><time>2016-9-25T23:26:48Z</time></trkpt>
<trkpt lat="46.23501" lon="7.0107"><ele></ele><time>2016-9-25T23:26:51Z</time></trkpt>
<trkpt lat="46.235" lon="7.01075"><ele></ele><time>2016-9-25T23:26:54Z</time></trkpt>
<trkpt lat="46.235" lon="7.01078"><ele></ele><time>2016-9-25T23:26:57Z</time></trkpt>
<trkpt lat="46.23499" lon="7.0108"><ele></ele><time>2016-9-25T23:27:0Z</time></trkpt>
<trkpt lat="46.23499" lon="7.01085"><ele></ele><time>2016-9-25T23:27:3Z</time></trkpt>
<trkpt lat="46.23498" lon="7.01091"><ele></ele><time>2016-9-25T23:27:6Z</time></trkpt>
<trkpt lat="46.23498" lon="7.01096"><ele></ele><time>2016-9-25T23:27:9Z</time></trkpt>
<trkpt lat="46.23497" lon="7.01101"><ele></ele><time>2016-9-25T23:27:12Z</time></trkpt>
<trkpt lat="46.23497" lon="7.01106"><ele></ele><time>2016-9-25T23:27:15Z</time></trkpt>
<trkpt lat="46.23496" lon="7.01111"><ele></ele><time>2016-9-25T23:27:18Z</time></trkpt>
<trkpt lat="46.23496" lon="7.01116"><ele></ele><time>2016-9-25T23:27:21Z</time></trkpt>
<trkpt lat="46.23495" lon="7.01121"><ele></ele><time>2016-9-25T23:27:24Z</time></trkpt>
<trkpt lat="46.23495" lon="7.01127"><ele></ele><time>2016-9-25T23:27:27Z</time></trkpt>
<trkpt lat="46.23494" lon="7.01132"><ele></ele><time>2016-9-25T23:27:30Z</time></trkpt>
<trkpt lat="46.23494" lon="7.01134"><ele></ele><time>2016-9-25T23:27:33Z</time></trkpt>
<trkpt lat="46.23493" lon="7.01137"><ele></ele><time>2016-9-25T23:27:36Z</time></trkpt>
<trkpt lat="46.23491" lon="7.01142"><ele></ele><time>2016-9-25T23:27:39Z</time></trkpt>
<trkpt lat="46.23489" lon="7.01144"><ele></ele><time>2016-9-25T23:27:42Z</time></trkpt>
<trkpt lat="46.23487" lon="7.01144"><ele></ele><time>2016-9-25T23:27:45Z</time></trkpt>
<trkpt lat="46.23482" lon="7.01145"><ele></ele><time>2016-9-25T23:27:48Z</time></trkpt>
<trkpt lat="46.23477" lon="7.01145"><ele></ele><time>2016-9-25T23:27:51Z</time></trkpt>
<trkpt lat="46.23472" lon="7.01146"><ele></ele><time>2016-9-25T23:27:54Z</time></trkpt>
<trkpt lat="46.23467" lon="7.01147"><ele></ele><time>2016-9-25T23:27:57Z</time></trkpt>
<trkpt lat="46.23462" lon="7.01148"><ele></ele><time>2016-9-25T23:28:0Z</time></trkpt>
<trkpt lat="46.23457" lon="7.01148"><ele></ele><time>2016-9-25T23:28:3Z</time></trkpt>
<trkpt lat="46.23452" lon="7.01149"><ele></ele><time>2016-9-25T23:28:6Z</time></trkpt>
<trkpt lat="46.23448" lon="7.0115"><ele></ele><time>2016-9-25T23:28:9Z</time></trkpt>
<trkpt lat="46.23443" lon="7.01151"><ele></ele><time>2016-9-25T23:28:12Z</time></trkpt>
<trkpt lat="46.23437" lon="7.01152"><ele></ele><time>2016-9-25T23:28:15Z</time></trkpt>
<trkpt lat="46.23432" lon="7.01152"><ele></ele><time>2016-9-25T23:28:18Z</time></trkpt>
<trkpt lat="46.23429" lon="7.01153"><ele></ele><time>2016-9-25T23:28:21Z</time></trkpt>
<trkpt lat="46.23427" lon="7.01153"><ele></ele><time>2016-9-25T23:28:24Z</time></trkpt>
<trkpt lat="46.23421" lon="7.01154"><ele></ele><time>2016-9-25T23:28:27Z</time></trkpt>
<trkpt lat="46.23416" lon="7.01155"><ele></ele><time>2016-9-25T23:28:30Z</time></trkpt>
<trkpt lat="46.23411" lon="7.01156"><ele></ele><time>2016-9-25T23:28:33Z</time></trkpt>
<trkpt lat="46.23406" lon="7.01157"><ele></ele><time>2016-9-25T23:28:36Z</time></trkpt>
<trkpt lat="46.234" lon="7.01158"><ele></ele><time>2016-9-25T23:28:39Z</time></trkpt>
<trkpt lat="46.23398" lon="7.01158"><ele></ele><time>2016-9-25T23:28:42Z</time></trkpt>
<trkpt lat="46.23395" lon="7.01157"><ele></ele><time>2016-9-25T23:28:45Z</time></trkpt>
<trkpt lat="46.23391" lon="7.01155"><ele></ele><time>2016-9-25T23:28:48Z</time></trkpt>
<trkpt lat="46.23386" lon="7.01153"><ele></ele><time>2016-9-25T23:28:51Z</time></trkpt>
<trkpt lat="46.23382" lon="7.01151"><ele></ele><time>2016-9-25T23:28:54Z</time></trkpt>
<trkpt lat="46.23377" lon="7.01149"><ele></ele><time>2016-9-25T23:28:57Z</time></trkpt>
<trkpt lat="46.23373" lon="7.01147"><ele></ele><time>2016-9-25T23:29:0Z</time></trkpt>
<trkpt lat="46.23369" lon="7.01145"><ele></ele><time>2016-9-25T23:29:3Z</time></trkpt>
<trkpt lat="46.23364" lon="7.01143"><ele></ele><time>2016-9-25T23:29:6Z</time></trkpt>
<trkpt lat="46.2336" lon="7.01141"><ele></ele><time>2016-9-25T23:29:9Z</time></trkpt>
<trkpt lat="46.23355" lon="7.01139"><ele></ele><time>2016-9-25T23:29:12Z</time></trkpt>
<trkpt lat="46.23353" lon="7.01137"><ele></ele><time>2016-9-25T23:29:15Z</time></trkpt>
<trkpt lat="46.2335" lon="7.01135"><ele></ele><time>2016-9-25T23:29:18Z</time></trkpt>
<trkpt lat="46.23346" lon="7.0113"><ele></ele><time>2016-9-25T23:29:21Z</time></trkpt>
<trkpt lat="46.23341" lon="7.01125"><ele></ele><time>2016-9-25T23:29:24Z</time></trkpt>
<trkpt lat="46.23336" lon="7.01121"><ele></ele><time>2016-9-25T23:29:27Z</time></trkpt>
<trkpt lat="46.23331" lon="7.01116"><ele></ele><time>2016-9-25T23:29:30Z</time></trkpt>
<trkpt lat="46.23326" lon="7.01111"><ele></ele><time>2016-9-25T23:29:33Z</time></trkpt>
<trkpt lat="46.23321" lon="7.01106"><ele></ele><time>2016-9-25T23:29:36Z</time></trkpt>
<trkpt lat="46.23317" lon="7.01102"><ele></ele><time>2016-9-25T23:29:39Z</time></trkpt>
<trkpt lat="46.23314" lon="7.01099"><ele></ele><time>2016-9-25T23:29:42Z</time></trkpt>
<trkpt lat="46.23312" lon="7.01095"><ele></ele><time>2016-9-25T23:29:45Z</time></trkpt>
<trkpt lat="46.2331" lon="7.01091"><ele></ele><time>2016-9-25T23:29:48Z</time></trkpt>
<trkpt lat="46.23308" lon="7.01086"><ele></ele><time>2016-9-25T23:29:51Z</time></trkpt>
<trkpt lat="46.23304" lon="7.01078"><ele></ele><time>2016-9-25T23:29:54Z</time></trkpt>
<trkpt lat="46.233" lon="7.01069"><ele></ele><time>2016-9-25T23:29:57Z</time></trkpt>
<trkpt lat="46.23298" lon="7.01059"><ele></ele><time>2016-9-25T23:30:0Z</time></trkpt>
<trkpt lat="46.23296" lon="7.01048"><ele></ele><time>2016-9-25T23:30:3Z</time></trkpt>
<trkpt lat="46.23294" lon="7.01037"><ele></ele><time>2016-9-25T23:30:6Z</time></trkpt>
<trkpt lat="46.23291" lon="7.01027"><ele></ele><time>2016-9-25T23:30:9Z</time></trkpt>
<trkpt lat="46.23289" lon="7.01016"><ele></ele><time>2016-9-25T23:30:12Z</time></trkpt>
<trkpt lat="46.23287" lon="7.01006"><ele></ele><time>2016-9-25T23:30:15Z</time></trkpt>
<trkpt lat="46.23285" lon="7.00997"><ele></ele><time>2016-9-25T23:30:18Z</time></trkpt>
<trkpt lat="46.23283" lon="7.00989"><ele></ele><time>2016-9-25T23:30:21Z</time></trkpt>
<trkpt lat="46.23281" lon="7.00981"><ele></ele><time>2016-9-25T23:30:24Z</time></trkpt>
<trkpt lat="46.23279" lon="7.00973"><ele></ele><time>2016-9-25T23:30:27Z</time></trkpt>
<trkpt lat="46.23276" lon="7.00965"><ele></ele><time>2016-9-25T23:30:30Z</time></trkpt>
<trkpt lat="46.23274" lon="7.00957"><ele></ele><time>2016-9-25T23:30:33Z</time></trkpt>
<trkpt lat="46.23272" lon="7.00949"><ele></ele><time>2016-9-25T23:30:36Z</time></trkpt>
<trkpt lat="46.23271" lon="7.00945"><ele></ele><time>2016-9-25T23:30:39Z</time></trkpt>
<trkpt lat="46.23268" lon="7.00942"><ele></ele><time>2016-9-25T23:30:42Z</time></trkpt>
<trkpt lat="46.23262" lon="7.00937"><ele></ele><time>2016-9-25T23:30:45Z</time></trkpt>
<trkpt lat="46.23257" lon="7.00931"><ele></ele><time>2016-9-25T23:30:48Z</time></trkpt>
<trkpt lat="46.23251" lon="7.00926"><ele></ele><time>2016-9-25T23:30:51Z</time></trkpt>
<trkpt lat="46.23246" lon="7.00921"><ele></ele><time>2016-9-25T23:30:54Z</time></trkpt>
<trkpt lat="46.2324" lon="7.00915"><ele></ele><time>2016-9-25T23:30:57Z</time></trkpt>
<trkpt lat="46.23238" lon="7.00911"><ele></ele><time>2016-9-25T23:31:0Z</time></trkpt>
<trkpt lat="46.23237" lon="7.00903"><ele></ele><time>2016-9-25T23:31:3Z</time></trkpt>
<trkpt lat="46.23235" lon="7.00887"><ele></ele><time>2016-9-25T23:31:6Z</time></trkpt>
<trkpt lat="46.23234" lon="7.00871"><ele></ele><time>2016-9-25T23:31:9Z</time></trkpt>
<trkpt lat="46.23232" lon="7.00855"><ele></ele><time>2016-9-25T23:31:12Z</time></trkpt>
<trkpt lat="46.23231" lon="7.00848"><ele></ele><time>2016-9-25T23:31:15Z</time></trkpt>
<trkpt lat="46.23229" lon="7.00846"><ele></ele><time>2016-9-25T23:31:18Z</time></trkpt>
<trkpt lat="46.23224" lon="7.00849"><ele></ele><time>2016-9-25T23:31:21Z</time></trkpt>
<trkpt lat="46.23219" lon="7.00852"><ele></ele><time>2016-9-25T23:31:24Z</time></trkpt>
<trkpt lat="46.23214" lon="7.00855"><ele></ele><time>2016-9-25T23:31:27Z</time></trkpt>
<trkpt lat="46.23209" lon="7.00857"><ele></ele><time>2016-9-25T23:31:30Z</time></trkpt>
<trkpt lat="46.23204" lon="7.0086"><ele></ele><time>2016-9-25T23:31:33Z</time></trkpt>
<trkpt lat="46.23199" lon="7.00863"><ele></ele><time>2016-9-25T23:31:36Z</time></trkpt>
<trkpt lat="46.23194" lon="7.00866"><ele></ele><time>2016-9-25T23:31:39Z</time></trkpt>
<trkpt lat="46.23189" lon="7.00869"><ele></ele><time>2016-9-25T23:31:42Z</time></trkpt>
<trkpt lat="46.23186" lon="7.0087"><ele></ele><time>2016-9-25T23:31:45Z</time></trkpt>
<trkpt lat="46.23184" lon="7.0087"><ele></ele><time>2016-9-25T23:31:48Z</time></trkpt>
<trkpt lat="46.23178" lon="7.00871"><ele></ele><time>2016-9-25T23:31:51Z</time></trkpt>
<trkpt lat="46.23172" lon="7.00871"><ele></ele><time>2016-9-25T23:31:54Z</time></trkpt>
<trkpt lat="46.23166" lon="7.00871"><ele></ele><time>2016-9-25T23:31:57Z</time></trkpt>
<trkpt lat="46.23161" lon="7.00872"><ele></ele><time>2016-9-25T23:32:0Z</time></trkpt>
<trkpt lat="46.23158" lon="7.0088"><ele></ele><time>2016-9-25T23:32:3Z</time></trkpt>
<trkpt lat="46.23154" lon="7.00887"><ele></ele><time>2016-9-25T23:32:6Z</time></trkpt>
<trkpt lat="46.23151" lon="7.00895"><ele></ele><time>2016-9-25T23:32:9Z</time></trkpt>
<trkpt lat="46.23148" lon="7.00902"><ele></ele><time>2016-9-25T23:32:12Z</time></trkpt>
<trkpt lat="46.23144" lon="7.0091"><ele></ele><time>2016-9-25T23:32:15Z</time></trkpt>
<trkpt lat="46.23141" lon="7.00917"><ele></ele><time>2016-9-25T23:32:18Z</time></trkpt>
<trkpt lat="46.23138" lon="7.00925"><ele></ele><time>2016-9-25T23:32:21Z</time></trkpt>
<trkpt lat="46.23136" lon="7.00928"><ele></ele><time>2016-9-25T23:32:24Z</time></trkpt>
<trkpt lat="46.23132" lon="7.00931"><ele></ele><time>2016-9-25T23:32:27Z</time></trkpt>
<trkpt lat="46.23124" lon="7.00935"><ele></ele><time>2016-9-25T23:32:30Z</time></trkpt>
<trkpt lat="46.23117" lon="7.0094"><ele></ele><time>2016-9-25T23:32:33Z</time></trkpt>
<trkpt lat="46.2311" lon="7.00945"><ele></ele><time>2016-9-25T23:32:36Z</time></trkpt>
<trkpt lat="46.23102" lon="7.0095"><ele></ele><time>2016-9-25T23:32:39Z</time></trkpt>
<trkpt lat="46.23099" lon="7.00953"><ele></ele><time>2016-9-25T23:32:42Z</time></trkpt>
<trkpt lat="46.23095" lon="7.00955"><ele></ele><time>2016-9-25T23:32:45Z</time></trkpt>
<trkpt lat="46.23091" lon="7.00958"><ele></ele><time>2016-9-25T23:32:48Z</time></trkpt>
<trkpt lat="46.23086" lon="7.00961"><ele></ele><time>2016-9-25T23:32:51Z</time></trkpt>
<trkpt lat="46.23076" lon="7.00967"><ele></ele><time>2016-9-25T23:32:54Z</time></trkpt>
<trkpt lat="46.23066" lon="7.00973"><ele></ele><time>2016-9-25T23:32:57Z</time></trkpt>
<trkpt lat="46.23056" lon="7.00979"><ele></ele><time>2016-9-25T23:33:0Z</time></trkpt>
<trkpt lat="46.23046" lon="7.00987"><ele></ele><time>2016-9-25T23:33:3Z</time></trkpt>
<trkpt lat="46.23035" lon="7.01003"><ele></ele><time>2016-9-25T23:33:6Z</time></trkpt>
<trkpt lat="46.23025" lon="7.0102"><ele></ele><time>2016-9-25T23:33:9Z</time></trkpt>
<trkpt lat="46.23014" lon="7.01037"><ele></ele><time>2016-9-25T23:33:12Z</time></trkpt>
<trkpt lat="46.23008" lon="7.01047"><ele></ele><time>2016-9-25T23:33:15Z</time></trkpt>
<trkpt lat="46.22998" lon="7.01053"><ele></ele><time>2016-9-25T23:33:18Z</time></trkpt>
<trkpt lat="46.22979" lon="7.01067"><ele></ele><time>2016-9-25T23:33:21Z</time></trkpt>
<trkpt lat="46.22969" lon="7.01073"><ele></ele><time>2016-9-25T23:33:24Z</time></trkpt>
<trkpt lat="46.22959" lon="7.01075"><ele></ele><time>2016-9-25T23:33:27Z</time></trkpt>
<trkpt lat="46.2294" lon="7.01079"><ele></ele><time>2016-9-25T23:33:30Z</time></trkpt>
<trkpt lat="46.22921" lon="7.01084"><ele></ele><time>2016-9-25T23:33:33Z</time></trkpt>
<trkpt lat="46.22904" lon="7.01092"><ele></ele><time>2016-9-25T23:33:36Z</time></trkpt>
<trkpt lat="46.22895" lon="7.01097"><ele></ele><time>2016-9-25T23:33:39Z</time></trkpt>
<trkpt lat="46.22888" lon="7.01102"><ele></ele><time>2016-9-25T23:33:42Z</time></trkpt>
<trkpt lat="46.22874" lon="7.01113"><ele></ele><time>2016-9-25T23:33:45Z</time></trkpt>
<trkpt lat="46.22867" lon="7.01118"><ele></ele><time>2016-9-25T23:33:48Z</time></trkpt>
<trkpt lat="46.2286" lon="7.01123"><ele></ele><time>2016-9-25T23:33:51Z</time></trkpt>
<trkpt lat="46.2285" lon="7.01126"><ele></ele><time>2016-9-25T23:33:54Z</time></trkpt>
<trkpt lat="46.22846" lon="7.01128"><ele></ele><time>2016-9-25T23:33:57Z</time></trkpt>
<trkpt lat="46.22845" lon="7.01133"><ele></ele><time>2016-9-25T23:34:0Z</time></trkpt>
<trkpt lat="46.22844" lon="7.01138"><ele></ele><time>2016-9-25T23:34:3Z</time></trkpt>
<trkpt lat="46.22843" lon="7.01142"><ele></ele><time>2016-9-25T23:34:6Z</time></trkpt>
<trkpt lat="46.22844" lon="7.01147"><ele></ele><time>2016-9-25T23:34:9Z</time></trkpt>
<trkpt lat="46.22845" lon="7.01153"><ele></ele><time>2016-9-25T23:34:12Z</time></trkpt>
<trkpt lat="46.22846" lon="7.01158"><ele></ele><time>2016-9-25T23:34:15Z</time></trkpt>
<trkpt lat="46.22847" lon="7.01164"><ele></ele><time>2016-9-25T23:34:18Z</time></trkpt>
<trkpt lat="46.22848" lon="7.01166"><ele></ele><time>2016-9-25T23:34:21Z</time></trkpt>
<trkpt lat="46.22848" lon="7.01169"><ele></ele><time>2016-9-25T23:34:24Z</time></trkpt>
<trkpt lat="46.22849" lon="7.01175"><ele></ele><time>2016-9-25T23:34:27Z</time></trkpt>
<trkpt lat="46.2285" lon="7.0118"><ele></ele><time>2016-9-25T23:34:30Z</time></trkpt>
<trkpt lat="46.22851" lon="7.01183"><ele></ele><time>2016-9-25T23:34:33Z</time></trkpt>
<trkpt lat="46.22851" lon="7.01185"><ele></ele><time>2016-9-25T23:34:36Z</time></trkpt>
<trkpt lat="46.22852" lon="7.01191"><ele></ele><time>2016-9-25T23:34:39Z</time></trkpt>
<trkpt lat="46.22854" lon="7.01196"><ele></ele><time>2016-9-25T23:34:42Z</time></trkpt>
<trkpt lat="46.22855" lon="7.01202"><ele></ele><time>2016-9-25T23:34:45Z</time></trkpt>
<trkpt lat="46.22856" lon="7.01207"><ele></ele><time>2016-9-25T23:34:48Z</time></trkpt>
<trkpt lat="46.2286" lon="7.01211"><ele></ele><time>2016-9-25T23:34:51Z</time></trkpt>
<trkpt lat="46.22864" lon="7.01215"><ele></ele><time>2016-9-25T23:34:54Z</time></trkpt>
<trkpt lat="46.22868" lon="7.01218"><ele></ele><time>2016-9-25T23:34:57Z</time></trkpt>
<trkpt lat="46.22872" lon="7.01222"><ele></ele><time>2016-9-25T23:35:0Z</time></trkpt>
<trkpt lat="46.22877" lon="7.01226"><ele></ele><time>2016-9-25T23:35:3Z</time></trkpt>
<trkpt lat="46.22881" lon="7.0123"><ele></ele><time>2016-9-25T23:35:6Z</time></trkpt>
<trkpt lat="46.22883" lon="7.01231"><ele></ele><time>2016-9-25T23:35:9Z</time></trkpt>
<trkpt lat="46.22885" lon="7.01233"><ele></ele><time>2016-9-25T23:35:12Z</time></trkpt>
<trkpt lat="46.22889" lon="7.01237"><ele></ele><time>2016-9-25T23:35:15Z</time></trkpt>
<trkpt lat="46.22893" lon="7.01241"><ele></ele><time>2016-9-25T23:35:18Z</time></trkpt>
<trkpt lat="46.22895" lon="7.01243"><ele></ele><time>2016-9-25T23:35:21Z</time></trkpt>
<trkpt lat="46.22897" lon="7.01245"><ele></ele><time>2016-9-25T23:35:24Z</time></trkpt>
<trkpt lat="46.22901" lon="7.01249"><ele></ele><time>2016-9-25T23:35:27Z</time></trkpt>
<trkpt lat="46.22905" lon="7.01253"><ele></ele><time>2016-9-25T23:35:30Z</time></trkpt>
<trkpt lat="46.22909" lon="7.01257"><ele></ele><time>2016-9-25T23:35:33Z</time></trkpt>
<trkpt lat="46.22914" lon="7.01261"><ele></ele><time>2016-9-25T23:35:36Z</time></trkpt>
<trkpt lat="46.22918" lon="7.01265"><ele></ele><time>2016-9-25T23:35:39Z</time></trkpt>
<trkpt lat="46.2292" lon="7.01267"><ele></ele><time>2016-9-25T23:35:42Z</time></trkpt>
<trkpt lat="46.22922" lon="7.01269"><ele></ele><time>2016-9-25T23:35:45Z</time></trkpt>
<trkpt lat="46.22926" lon="7.01273"><ele></ele><time>2016-9-25T23:35:48Z</time></trkpt>
<trkpt lat="46.2293" lon="7.01277"><ele></ele><time>2016-9-25T23:35:51Z</time></trkpt>
<trkpt lat="46.22934" lon="7.01281"><ele></ele><time>2016-9-25T23:35:54Z</time></trkpt>
<trkpt lat="46.22938" lon="7.01286"><ele></ele><time>2016-9-25T23:35:57Z</time></trkpt>
<trkpt lat="46.22941" lon="7.01292"><ele></ele><time>2016-9-25T23:36:0Z</time></trkpt>
<trkpt lat="46.22945" lon="7.01297"><ele></ele><time>2016-9-25T23:36:3Z</time></trkpt>
<trkpt lat="46.22948" lon="7.01303"><ele></ele><time>2016-9-25T23:36:6Z</time></trkpt>
<trkpt lat="46.22952" lon="7.01308"><ele></ele><time>2016-9-25T23:36:9Z</time></trkpt>
<trkpt lat="46.22954" lon="7.01311"><ele></ele><time>2016-9-25T23:36:12Z</time></trkpt>
<trkpt lat="46.22955" lon="7.01314"><ele></ele><time>2016-9-25T23:36:15Z</time></trkpt>
<trkpt lat="46.22959" lon="7.01319"><ele></ele><time>2016-9-25T23:36:18Z</time></trkpt>
<trkpt lat="46.22962" lon="7.01324"><ele></ele><time>2016-9-25T23:36:21Z</time></trkpt>
<trkpt lat="46.22966" lon="7.0133"><ele></ele><time>2016-9-25T23:36:24Z</time></trkpt>
<trkpt lat="46.22969" lon="7.01335"><ele></ele><time>2016-9-25T23:36:27Z</time></trkpt>
<trkpt lat="46.22971" lon="7.0134"><ele></ele><time>2016-9-25T23:36:30Z</time></trkpt>
<trkpt lat="46.22974" lon="7.01346"><ele></ele><time>2016-9-25T23:36:33Z</time></trkpt>
<trkpt lat="46.22977" lon="7.01351"><ele></ele><time>2016-9-25T23:36:36Z</time></trkpt>
<trkpt lat="46.22979" lon="7.01356"><ele></ele><time>2016-9-25T23:36:39Z</time></trkpt>
<trkpt lat="46.22982" lon="7.01362"><ele></ele><time>2016-9-25T23:36:42Z</time></trkpt>
<trkpt lat="46.22984" lon="7.01364"><ele></ele><time>2016-9-25T23:36:45Z</time></trkpt>
<trkpt lat="46.22985" lon="7.01367"><ele></ele><time>2016-9-25T23:36:48Z</time></trkpt>
<trkpt lat="46.22986" lon="7.0137"><ele></ele><time>2016-9-25T23:36:51Z</time></trkpt>
<trkpt lat="46.22988" lon="7.01372"><ele></ele><time>2016-9-25T23:36:54Z</time></trkpt>
<trkpt lat="46.2299" lon="7.01377"><ele></ele><time>2016-9-25T23:36:57Z</time></trkpt>
<trkpt lat="46.22993" lon="7.01383"><ele></ele><time>2016-9-25T23:37:0Z</time></trkpt>
<trkpt lat="46.22996" lon="7.01388"><ele></ele><time>2016-9-25T23:37:3Z</time></trkpt>
<trkpt lat="46.22999" lon="7.01392"><ele></ele><time>2016-9-25T23:37:6Z</time></trkpt>
<trkpt lat="46.23002" lon="7.01397"><ele></ele><time>2016-9-25T23:37:9Z</time></trkpt>
<trkpt lat="46.23005" lon="7.01402"><ele></ele><time>2016-9-25T23:37:12Z</time></trkpt>
<trkpt lat="46.23008" lon="7.01407"><ele></ele><time>2016-9-25T23:37:15Z</time></trkpt>
<trkpt lat="46.2301" lon="7.01412"><ele></ele><time>2016-9-25T23:37:18Z</time></trkpt>
<trkpt lat="46.23013" lon="7.01417"><ele></ele><time>2016-9-25T23:37:21Z</time></trkpt>
<trkpt lat="46.23016" lon="7.01422"><ele></ele><time>2016-9-25T23:37:24Z</time></trkpt>
<trkpt lat="46.23019" lon="7.01427"><ele></ele><time>2016-9-25T23:37:27Z</time></trkpt>
<trkpt lat="46.23022" lon="7.01432"><ele></ele><time>2016-9-25T23:37:30Z</time></trkpt>
<trkpt lat="46.23024" lon="7.01434"><ele></ele><time>2016-9-25T23:37:33Z</time></trkpt>
<trkpt lat="46.23027" lon="7.01438"><ele></ele><time>2016-9-25T23:37:36Z</time></trkpt>
<trkpt lat="46.23032" lon="7.01446"><ele></ele><time>2016-9-25T23:37:39Z</time></trkpt>
<trkpt lat="46.23038" lon="7.01454"><ele></ele><time>2016-9-25T23:37:42Z</time></trkpt>
<trkpt lat="46.23044" lon="7.01461"><ele></ele><time>2016-9-25T23:37:45Z</time></trkpt>
<trkpt lat="46.23049" lon="7.01469"><ele></ele><time>2016-9-25T23:37:48Z</time></trkpt>
<trkpt lat="46.23055" lon="7.01476"><ele></ele><time>2016-9-25T23:37:51Z</time></trkpt>
<trkpt lat="46.23058" lon="7.0148"><ele></ele><time>2016-9-25T23:37:54Z</time></trkpt>
<trkpt lat="46.23061" lon="7.01485"><ele></ele><time>2016-9-25T23:37:57Z</time></trkpt>
<trkpt lat="46.23068" lon="7.01497"><ele></ele><time>2016-9-25T23:38:0Z</time></trkpt>
<trkpt lat="46.23075" lon="7.01509"><ele></ele><time>2016-9-25T23:38:3Z</time></trkpt>
<trkpt lat="46.23078" lon="7.01515"><ele></ele><time>2016-9-25T23:38:6Z</time></trkpt>
<trkpt lat="46.23082" lon="7.01521"><ele></ele><time>2016-9-25T23:38:9Z</time></trkpt>
<trkpt lat="46.23089" lon="7.01533"><ele></ele><time>2016-9-25T23:38:12Z</time></trkpt>
<trkpt lat="46.23092" lon="7.01539"><ele></ele><time>2016-9-25T23:38:15Z</time></trkpt>
<trkpt lat="46.23093" lon="7.01544"><ele></ele><time>2016-9-25T23:38:18Z</time></trkpt>
<trkpt lat="46.23096" lon="7.01552"><ele></ele><time>2016-9-25T23:38:21Z</time></trkpt>
<trkpt lat="46.23097" lon="7.01556"><ele></ele><time>2016-9-25T23:38:24Z</time></trkpt>
<trkpt lat="46.23095" lon="7.01558"><ele></ele><time>2016-9-25T23:38:27Z</time></trkpt>
<trkpt lat="46.23092" lon="7.01562"><ele></ele><time>2016-9-25T23:38:30Z</time></trkpt>
<trkpt lat="46.2309" lon="7.01565"><ele></ele><time>2016-9-25T23:38:33Z</time></trkpt>
<trkpt lat="46.23087" lon="7.01569"><ele></ele><time>2016-9-25T23:38:36Z</time></trkpt>
<trkpt lat="46.23085" lon="7.01571"><ele></ele><time>2016-9-25T23:38:39Z</time></trkpt>
<trkpt lat="46.23084" lon="7.01572"><ele></ele><time>2016-9-25T23:38:42Z</time></trkpt>
<trkpt lat="46.23081" lon="7.01576"><ele></ele><time>2016-9-25T23:38:45Z</time></trkpt>
<trkpt lat="46.23078" lon="7.0158"><ele></ele><time>2016-9-25T23:38:48Z</time></trkpt>
<trkpt lat="46.23076" lon="7.01583"><ele></ele><time>2016-9-25T23:38:51Z</time></trkpt>
<trkpt lat="46.23073" lon="7.01587"><ele></ele><time>2016-9-25T23:38:54Z</time></trkpt>
<trkpt lat="46.2307" lon="7.01591"><ele></ele><time>2016-9-25T23:38:57Z</time></trkpt>
<trkpt lat="46.23067" lon="7.01594"><ele></ele><time>2016-9-25T23:39:0Z</time></trkpt>
<trkpt lat="46.23065" lon="7.01598"><ele></ele><time>2016-9-25T23:39:3Z</time></trkpt>
<trkpt lat="46.23062" lon="7.01601"><ele></ele><time>2016-9-25T23:39:6Z</time></trkpt>
<trkpt lat="46.23059" lon="7.01603"><ele></ele><time>2016-9-25T23:39:9Z</time></trkpt>
<trkpt lat="46.23057" lon="7.01604"><ele></ele><time>2016-9-25T23:39:12Z</time></trkpt>
<trkpt lat="46.23053" lon="7.01607"><ele></ele><time>2016-9-25T23:39:15Z</time></trkpt>
<trkpt lat="46.23048" lon="7.0161"><ele></ele><time>2016-9-25T23:39:18Z</time></trkpt>
<trkpt lat="46.23044" lon="7.01613"><ele></ele><time>2016-9-25T23:39:21Z</time></trkpt>
<trkpt lat="46.23039" lon="7.01616"><ele></ele><time>2016-9-25T23:39:24Z</time></trkpt>
<trkpt lat="46.23035" lon="7.01619"><ele></ele><time>2016-9-25T23:39:27Z</time></trkpt>
<trkpt lat="46.2303" lon="7.01622"><ele></ele><time>2016-9-25T23:39:30Z</time></trkpt>
<trkpt lat="46.23026" lon="7.01625"><ele></ele><time>2016-9-25T23:39:33Z</time></trkpt>
<trkpt lat="46.23021" lon="7.01627"><ele></ele><time>2016-9-25T23:39:36Z</time></trkpt>
<trkpt lat="46.23016" lon="7.01624"><ele></ele><time>2016-9-25T23:39:39Z</time></trkpt>
<trkpt lat="46.23011" lon="7.01622"><ele></ele><time>2016-9-25T23:39:42Z</time></trkpt>
<trkpt lat="46.23006" lon="7.01619"><ele></ele><time>2016-9-25T23:39:45Z</time></trkpt>
<trkpt lat="46.23001" lon="7.01617"><ele></ele><time>2016-9-25T23:39:48Z</time></trkpt>
<trkpt lat="46.22996" lon="7.01614"><ele></ele><time>2016-9-25T23:39:51Z</time></trkpt>
<trkpt lat="46.22993" lon="7.01613"><ele></ele><time>2016-9-25T23:39:54Z</time></trkpt>
<trkpt lat="46.22991" lon="7.01612"><ele></ele><time>2016-9-25T23:39:57Z</time></trkpt>
<trkpt lat="46.22986" lon="7.01609"><ele></ele><time>2016-9-25T23:40:0Z</time></trkpt>
<trkpt lat="46.22981" lon="7.01606"><ele></ele><time>2016-9-25T23:40:3Z</time></trkpt>
<trkpt lat="46.22978" lon="7.01606"><ele></ele><time>2016-9-25T23:40:6Z</time></trkpt>
<trkpt lat="46.22975" lon="7.01608"><ele></ele><time>2016-9-25T23:40:9Z</time></trkpt>
<trkpt lat="46.2297" lon="7.01612"><ele></ele><time>2016-9-25T23:40:12Z</time></trkpt>
<trkpt lat="46.22964" lon="7.01616"><ele></ele><time>2016-9-25T23:40:15Z</time></trkpt>
<trkpt lat="46.22958" lon="7.01621"><ele></ele><time>2016-9-25T23:40:18Z</time></trkpt>
<trkpt lat="46.22956" lon="7.01623"><ele></ele><time>2016-9-25T23:40:21Z</time></trkpt>
<trkpt lat="46.22954" lon="7.01627"><ele></ele><time>2016-9-25T23:40:24Z</time></trkpt>
<trkpt lat="46.2295" lon="7.01635"><ele></ele><time>2016-9-25T23:40:27Z</time></trkpt>
<trkpt lat="46.22946" lon="7.01642"><ele></ele><time>2016-9-25T23:40:30Z</time></trkpt>
<trkpt lat="46.22942" lon="7.0165"><ele></ele><time>2016-9-25T23:40:33Z</time></trkpt>
<trkpt lat="46.22939" lon="7.01657"><ele></ele><time>2016-9-25T23:40:36Z</time></trkpt>
<trkpt lat="46.22935" lon="7.01665"><ele></ele><time>2016-9-25T23:40:39Z</time></trkpt>
<trkpt lat="46.22931" lon="7.01673"><ele></ele><time>2016-9-25T23:40:42Z</time></trkpt>
<trkpt lat="46.22929" lon="7.01676"><ele></ele><time>2016-9-25T23:40:45Z</time></trkpt>
<trkpt lat="46.22928" lon="7.01679"><ele></ele><time>2016-9-25T23:40:48Z</time></trkpt>
<trkpt lat="46.22926" lon="7.01685"><ele></ele><time>2016-9-25T23:40:51Z</time></trkpt>
<trkpt lat="46.22924" lon="7.01691"><ele></ele><time>2016-9-25T23:40:54Z</time></trkpt>
<trkpt lat="46.22922" lon="7.01697"><ele></ele><time>2016-9-25T23:40:57Z</time></trkpt>
<trkpt lat="46.22921" lon="7.01703"><ele></ele><time>2016-9-25T23:41:0Z</time></trkpt>
<trkpt lat="46.22919" lon="7.01709"><ele></ele><time>2016-9-25T23:41:3Z</time></trkpt>
<trkpt lat="46.22917" lon="7.01715"><ele></ele><time>2016-9-25T23:41:6Z</time></trkpt>
<trkpt lat="46.22915" lon="7.01721"><ele></ele><time>2016-9-25T23:41:9Z</time></trkpt>
<trkpt lat="46.22913" lon="7.01727"><ele></ele><time>2016-9-25T23:41:12Z</time></trkpt>
<trkpt lat="46.22911" lon="7.01733"><ele></ele><time>2016-9-25T23:41:15Z</time></trkpt>
<trkpt lat="46.2291" lon="7.01736"><ele></ele><time>2016-9-25T23:41:18Z</time></trkpt>
<trkpt lat="46.2291" lon="7.01739"><ele></ele><time>2016-9-25T23:41:21Z</time></trkpt>
<trkpt lat="46.22908" lon="7.01745"><ele></ele><time>2016-9-25T23:41:24Z</time></trkpt>
<trkpt lat="46.22907" lon="7.0175"><ele></ele><time>2016-9-25T23:41:27Z</time></trkpt>
<trkpt lat="46.22906" lon="7.01756"><ele></ele><time>2016-9-25T23:41:30Z</time></trkpt>
<trkpt lat="46.22905" lon="7.01761"><ele></ele><time>2016-9-25T23:41:33Z</time></trkpt>
<trkpt lat="46.22904" lon="7.01767"><ele></ele><time>2016-9-25T23:41:36Z</time></trkpt>
<trkpt lat="46.22903" lon="7.01772"><ele></ele><time>2016-9-25T23:41:39Z</time></trkpt>
<trkpt lat="46.22902" lon="7.01778"><ele></ele><time>2016-9-25T23:41:42Z</time></trkpt>
<trkpt lat="46.22904" lon="7.01783"><ele></ele><time>2016-9-25T23:41:45Z</time></trkpt>
<trkpt lat="46.22905" lon="7.01789"><ele></ele><time>2016-9-25T23:41:48Z</time></trkpt>
<trkpt lat="46.22906" lon="7.01792"><ele></ele><time>2016-9-25T23:41:51Z</time></trkpt>
<trkpt lat="46.22907" lon="7.01795"><ele></ele><time>2016-9-25T23:41:54Z</time></trkpt>
<trkpt lat="46.22909" lon="7.018"><ele></ele><time>2016-9-25T23:41:57Z</time></trkpt>
<trkpt lat="46.2291" lon="7.01806"><ele></ele><time>2016-9-25T23:42:0Z</time></trkpt>
<trkpt lat="46.22912" lon="7.01812"><ele></ele><time>2016-9-25T23:42:3Z</time></trkpt>
<trkpt lat="46.22913" lon="7.01817"><ele></ele><time>2016-9-25T23:42:6Z</time></trkpt>
<trkpt lat="46.22915" lon="7.01823"><ele></ele><time>2016-9-25T23:42:9Z</time></trkpt>
<trkpt lat="46.22916" lon="7.01828"><ele></ele><time>2016-9-25T23:42:12Z</time></trkpt>
<trkpt lat="46.22918" lon="7.01834"><ele></ele><time>2016-9-25T23:42:15Z</time></trkpt>
<trkpt lat="46.2292" lon="7.0184"><ele></ele><time>2016-9-25T23:42:18Z</time></trkpt>
<trkpt lat="46.22922" lon="7.01847"><ele></ele><time>2016-9-25T23:42:21Z</time></trkpt>
<trkpt lat="46.22925" lon="7.01855"><ele></ele><time>2016-9-25T23:42:24Z</time></trkpt>
<trkpt lat="46.22928" lon="7.01862"><ele></ele><time>2016-9-25T23:42:27Z</time></trkpt>
<trkpt lat="46.2293" lon="7.01869"><ele></ele><time>2016-9-25T23:42:30Z</time></trkpt>
<trkpt lat="46.22933" lon="7.01877"><ele></ele><time>2016-9-25T23:42:33Z</time></trkpt>
<trkpt lat="46.22936" lon="7.01884"><ele></ele><time>2016-9-25T23:42:36Z</time></trkpt>
<trkpt lat="46.22938" lon="7.01891"><ele></ele><time>2016-9-25T23:42:39Z</time></trkpt>
<trkpt lat="46.22941" lon="7.01899"><ele></ele><time>2016-9-25T23:42:42Z</time></trkpt>
<trkpt lat="46.22942" lon="7.01903"><ele></ele><time>2016-9-25T23:42:45Z</time></trkpt>
<trkpt lat="46.22944" lon="7.01907"><ele></ele><time>2016-9-25T23:42:48Z</time></trkpt>
<trkpt lat="46.22946" lon="7.01917"><ele></ele><time>2016-9-25T23:42:51Z</time></trkpt>
<trkpt lat="46.22949" lon="7.01927"><ele></ele><time>2016-9-25T23:42:54Z</time></trkpt>
<trkpt lat="46.22952" lon="7.01936"><ele></ele><time>2016-9-25T23:42:57Z</time></trkpt>
<trkpt lat="46.22955" lon="7.01946"><ele></ele><time>2016-9-25T23:43:0Z</time></trkpt>
<trkpt lat="46.22958" lon="7.01955"><ele></ele><time>2016-9-25T23:43:3Z</time></trkpt>
<trkpt lat="46.2296" lon="7.01965"><ele></ele><time>2016-9-25T23:43:6Z</time></trkpt>
<trkpt lat="46.22961" lon="7.01973"><ele></ele><time>2016-9-25T23:43:9Z</time></trkpt>
<trkpt lat="46.22962" lon="7.01981"><ele></ele><time>2016-9-25T23:43:12Z</time></trkpt>
<trkpt lat="46.22963" lon="7.0199"><ele></ele><time>2016-9-25T23:43:15Z</time></trkpt>
<trkpt lat="46.22964" lon="7.01998"><ele></ele><time>2016-9-25T23:43:18Z</time></trkpt>
<trkpt lat="46.22964" lon="7.02002"><ele></ele><time>2016-9-25T23:43:21Z</time></trkpt>
<trkpt lat="46.22964" lon="7.02007"><ele></ele><time>2016-9-25T23:43:24Z</time></trkpt>
<trkpt lat="46.22965" lon="7.02015"><ele></ele><time>2016-9-25T23:43:27Z</time></trkpt>
<trkpt lat="46.22966" lon="7.02023"><ele></ele><time>2016-9-25T23:43:30Z</time></trkpt>
<trkpt lat="46.22967" lon="7.02032"><ele></ele><time>2016-9-25T23:43:33Z</time></trkpt>
<trkpt lat="46.22966" lon="7.02042"><ele></ele><time>2016-9-25T23:43:36Z</time></trkpt>
<trkpt lat="46.22966" lon="7.02052"><ele></ele><time>2016-9-25T23:43:39Z</time></trkpt>
<trkpt lat="46.22965" lon="7.02061"><ele></ele><time>2016-9-25T23:43:42Z</time></trkpt>
<trkpt lat="46.22965" lon="7.02071"><ele></ele><time>2016-9-25T23:43:45Z</time></trkpt>
<trkpt lat="46.22964" lon="7.02081"><ele></ele><time>2016-9-25T23:43:48Z</time></trkpt>
<trkpt lat="46.22964" lon="7.02091"><ele></ele><time>2016-9-25T23:43:51Z</time></trkpt>
<trkpt lat="46.22964" lon="7.02096"><ele></ele><time>2016-9-25T23:43:54Z</time></trkpt>
<trkpt lat="46.22965" lon="7.02104"><ele></ele><time>2016-9-25T23:43:57Z</time></trkpt>
<trkpt lat="46.22968" lon="7.02119"><ele></ele><time>2016-9-25T23:44:0Z</time></trkpt>
<trkpt lat="46.22971" lon="7.02135"><ele></ele><time>2016-9-25T23:44:3Z</time></trkpt>
<trkpt lat="46.22974" lon="7.0215"><ele></ele><time>2016-9-25T23:44:6Z</time></trkpt>
<trkpt lat="46.22977" lon="7.02165"><ele></ele><time>2016-9-25T23:44:9Z</time></trkpt>
<trkpt lat="46.22981" lon="7.0218"><ele></ele><time>2016-9-25T23:44:12Z</time></trkpt>
<trkpt lat="46.22985" lon="7.02196"><ele></ele><time>2016-9-25T23:44:15Z</time></trkpt>
<trkpt lat="46.22987" lon="7.02216"><ele></ele><time>2016-9-25T23:44:18Z</time></trkpt>
<trkpt lat="46.22988" lon="7.02227"><ele></ele><time>2016-9-25T23:44:21Z</time></trkpt>
<trkpt lat="46.22991" lon="7.02241"><ele></ele><time>2016-9-25T23:44:24Z</time></trkpt>
<trkpt lat="46.22995" lon="7.02268"><ele></ele><time>2016-9-25T23:44:27Z</time></trkpt>
<trkpt lat="46.22994" lon="7.02298"><ele></ele><time>2016-9-25T23:44:30Z</time></trkpt>
<trkpt lat="46.22994" lon="7.02328"><ele></ele><time>2016-9-25T23:44:33Z</time></trkpt>
<trkpt lat="46.22992" lon="7.02356"><ele></ele><time>2016-9-25T23:44:36Z</time></trkpt>
<trkpt lat="46.22997" lon="7.02382"><ele></ele><time>2016-9-25T23:44:39Z</time></trkpt>
<trkpt lat="46.23" lon="7.02396"><ele></ele><time>2016-9-25T23:44:42Z</time></trkpt>
<trkpt lat="46.23005" lon="7.0241"><ele></ele><time>2016-9-25T23:44:45Z</time></trkpt>
<trkpt lat="46.23015" lon="7.02439"><ele></ele><time>2016-9-25T23:44:48Z</time></trkpt>
<trkpt lat="46.23025" lon="7.02468"><ele></ele><time>2016-9-25T23:44:51Z</time></trkpt>
<trkpt lat="46.23034" lon="7.025"><ele></ele><time>2016-9-25T23:44:54Z</time></trkpt>
<trkpt lat="46.23033" lon="7.02528"><ele></ele><time>2016-9-25T23:44:57Z</time></trkpt>
<trkpt lat="46.23033" lon="7.02556"><ele></ele><time>2016-9-25T23:45:0Z</time></trkpt>
<trkpt lat="46.23032" lon="7.02569"><ele></ele><time>2016-9-25T23:45:3Z</time></trkpt>
<trkpt lat="46.23032" lon="7.02576"><ele></ele><time>2016-9-25T23:45:6Z</time></trkpt>
<trkpt lat="46.2303" lon="7.02591"><ele></ele><time>2016-9-25T23:45:9Z</time></trkpt>
<trkpt lat="46.23029" lon="7.02599"><ele></ele><time>2016-9-25T23:45:12Z</time></trkpt>
<trkpt lat="46.23025" lon="7.02605"><ele></ele><time>2016-9-25T23:45:15Z</time></trkpt>
<trkpt lat="46.23016" lon="7.02617"><ele></ele><time>2016-9-25T23:45:18Z</time></trkpt>
<trkpt lat="46.23012" lon="7.02623"><ele></ele><time>2016-9-25T23:45:21Z</time></trkpt>
<trkpt lat="46.23008" lon="7.02626"><ele></ele><time>2016-9-25T23:45:24Z</time></trkpt>
<trkpt lat="46.23" lon="7.02634"><ele></ele><time>2016-9-25T23:45:27Z</time></trkpt>
<trkpt lat="46.22996" lon="7.02638"><ele></ele><time>2016-9-25T23:45:30Z</time></trkpt>
<trkpt lat="46.22995" lon="7.02644"><ele></ele><time>2016-9-25T23:45:33Z</time></trkpt>
<trkpt lat="46.22994" lon="7.0265"><ele></ele><time>2016-9-25T23:45:36Z</time></trkpt>
<trkpt lat="46.22996" lon="7.02656"><ele></ele><time>2016-9-25T23:45:39Z</time></trkpt>
<trkpt lat="46.22997" lon="7.02661"><ele></ele><time>2016-9-25T23:45:42Z</time></trkpt>
<trkpt lat="46.23" lon="7.02667"><ele></ele><time>2016-9-25T23:45:45Z</time></trkpt>
<trkpt lat="46.23007" lon="7.02673"><ele></ele><time>2016-9-25T23:45:48Z</time></trkpt>
<trkpt lat="46.23014" lon="7.0268"><ele></ele><time>2016-9-25T23:45:51Z</time></trkpt>
<trkpt lat="46.23018" lon="7.02683"><ele></ele><time>2016-9-25T23:45:54Z</time></trkpt>
<trkpt lat="46.23021" lon="7.02687"><ele></ele><time>2016-9-25T23:45:57Z</time></trkpt>
<trkpt lat="46.23028" lon="7.02694"><ele></ele><time>2016-9-25T23:46:0Z</time></trkpt>
<trkpt lat="46.23036" lon="7.027"><ele></ele><time>2016-9-25T23:46:3Z</time></trkpt>
<trkpt lat="46.23039" lon="7.02704"><ele></ele><time>2016-9-25T23:46:6Z</time></trkpt>
<trkpt lat="46.23043" lon="7.02708"><ele></ele><time>2016-9-25T23:46:9Z</time></trkpt>
<trkpt lat="46.2305" lon="7.02717"><ele></ele><time>2016-9-25T23:46:12Z</time></trkpt>
<trkpt lat="46.23057" lon="7.02725"><ele></ele><time>2016-9-25T23:46:15Z</time></trkpt>
<trkpt lat="46.2306" lon="7.0273"><ele></ele><time>2016-9-25T23:46:18Z</time></trkpt>
<trkpt lat="46.23063" lon="7.02734"><ele></ele><time>2016-9-25T23:46:21Z</time></trkpt>
<trkpt lat="46.23067" lon="7.02744"><ele></ele><time>2016-9-25T23:46:24Z</time></trkpt>
<trkpt lat="46.23072" lon="7.02754"><ele></ele><time>2016-9-25T23:46:27Z</time></trkpt>
<trkpt lat="46.23076" lon="7.02764"><ele></ele><time>2016-9-25T23:46:30Z</time></trkpt>
<trkpt lat="46.23081" lon="7.02774"><ele></ele><time>2016-9-25T23:46:33Z</time></trkpt>
<trkpt lat="46.23085" lon="7.02784"><ele></ele><time>2016-9-25T23:46:36Z</time></trkpt>
<trkpt lat="46.23087" lon="7.02788"><ele></ele><time>2016-9-25T23:46:39Z</time></trkpt>
<trkpt lat="46.2309" lon="7.02792"><ele></ele><time>2016-9-25T23:46:42Z</time></trkpt>
<trkpt lat="46.23096" lon="7.028"><ele></ele><time>2016-9-25T23:46:45Z</time></trkpt>
<trkpt lat="46.23101" lon="7.02808"><ele></ele><time>2016-9-25T23:46:48Z</time></trkpt>
<trkpt lat="46.23108" lon="7.02816"><ele></ele><time>2016-9-25T23:46:51Z</time></trkpt>
<trkpt lat="46.23123" lon="7.02817"><ele></ele><time>2016-9-25T23:46:54Z</time></trkpt>
<trkpt lat="46.23138" lon="7.02818"><ele></ele><time>2016-9-25T23:46:57Z</time></trkpt>
<trkpt lat="46.23153" lon="7.02819"><ele></ele><time>2016-9-25T23:47:0Z</time></trkpt>
<trkpt lat="46.23161" lon="7.02819"><ele></ele><time>2016-9-25T23:47:3Z</time></trkpt>
<trkpt lat="46.2317" lon="7.02818"><ele></ele><time>2016-9-25T23:47:6Z</time></trkpt>
<trkpt lat="46.23189" lon="7.02815"><ele></ele><time>2016-9-25T23:47:9Z</time></trkpt>
<trkpt lat="46.2321" lon="7.02802"><ele></ele><time>2016-9-25T23:47:12Z</time></trkpt>
<trkpt lat="46.2322" lon="7.02797"><ele></ele><time>2016-9-25T23:47:15Z</time></trkpt>
<trkpt lat="46.23228" lon="7.02795"><ele></ele><time>2016-9-25T23:47:18Z</time></trkpt>
<trkpt lat="46.23235" lon="7.02792"><ele></ele><time>2016-9-25T23:47:21Z</time></trkpt>
<trkpt lat="46.23239" lon="7.02786"><ele></ele><time>2016-9-25T23:47:24Z</time></trkpt>
<trkpt lat="46.23243" lon="7.02778"><ele></ele><time>2016-9-25T23:47:27Z</time></trkpt>
<trkpt lat="46.23246" lon="7.02766"><ele></ele><time>2016-9-25T23:47:30Z</time></trkpt>
<trkpt lat="46.23248" lon="7.02753"><ele></ele><time>2016-9-25T23:47:33Z</time></trkpt>
<trkpt lat="46.23251" lon="7.0274"><ele></ele><time>2016-9-25T23:47:36Z</time></trkpt>
<trkpt lat="46.23256" lon="7.02715"><ele></ele><time>2016-9-25T23:47:39Z</time></trkpt>
<trkpt lat="46.23264" lon="7.02687"><ele></ele><time>2016-9-25T23:47:42Z</time></trkpt>
<trkpt lat="46.23271" lon="7.02676"><ele></ele><time>2016-9-25T23:47:45Z</time></trkpt>
<trkpt lat="46.23281" lon="7.02667"><ele></ele><time>2016-9-25T23:47:48Z</time></trkpt>
<trkpt lat="46.23291" lon="7.02659"><ele></ele><time>2016-9-25T23:47:51Z</time></trkpt>
<trkpt lat="46.23302" lon="7.02655"><ele></ele><time>2016-9-25T23:47:54Z</time></trkpt>
<trkpt lat="46.23324" lon="7.02647"><ele></ele><time>2016-9-25T23:47:57Z</time></trkpt>
<trkpt lat="46.23335" lon="7.02643"><ele></ele><time>2016-9-25T23:48:0Z</time></trkpt>
<trkpt lat="46.23344" lon="7.0264"><ele></ele><time>2016-9-25T23:48:3Z</time></trkpt>
<trkpt lat="46.23362" lon="7.02634"><ele></ele><time>2016-9-25T23:48:6Z</time></trkpt>
<trkpt lat="46.2338" lon="7.02627"><ele></ele><time>2016-9-25T23:48:9Z</time></trkpt>
<trkpt lat="46.23393" lon="7.02614"><ele></ele><time>2016-9-25T23:48:12Z</time></trkpt>
<trkpt lat="46.23407" lon="7.02601"><ele></ele><time>2016-9-25T23:48:15Z</time></trkpt>
<trkpt lat="46.23421" lon="7.02588"><ele></ele><time>2016-9-25T23:48:18Z</time></trkpt>
<trkpt lat="46.23433" lon="7.02573"><ele></ele><time>2016-9-25T23:48:21Z</time></trkpt>
<trkpt lat="46.23445" lon="7.02557"><ele></ele><time>2016-9-25T23:48:24Z</time></trkpt>
<trkpt lat="46.23456" lon="7.02541"><ele></ele><time>2016-9-25T23:48:27Z</time></trkpt>
<trkpt lat="46.23467" lon="7.02524"><ele></ele><time>2016-9-25T23:48:30Z</time></trkpt>
<trkpt lat="46.23478" lon="7.02507"><ele></ele><time>2016-9-25T23:48:33Z</time></trkpt>
<trkpt lat="46.23488" lon="7.02489"><ele></ele><time>2016-9-25T23:48:36Z</time></trkpt>
<trkpt lat="46.23496" lon="7.02467"><ele></ele><time>2016-9-25T23:48:39Z</time></trkpt>
<trkpt lat="46.23499" lon="7.02456"><ele></ele><time>2016-9-25T23:48:42Z</time></trkpt>
<trkpt lat="46.23499" lon="7.02446"><ele></ele><time>2016-9-25T23:48:45Z</time></trkpt>
<trkpt lat="46.235" lon="7.02436"><ele></ele><time>2016-9-25T23:48:48Z</time></trkpt>
<trkpt lat="46.235" lon="7.02426"><ele></ele><time>2016-9-25T23:48:51Z</time></trkpt>
<trkpt lat="46.23501" lon="7.02418"><ele></ele><time>2016-9-25T23:48:54Z</time></trkpt>
<trkpt lat="46.23504" lon="7.02416"><ele></ele><time>2016-9-25T23:48:57Z</time></trkpt>
<trkpt lat="46.2351" lon="7.02423"><ele></ele><time>2016-9-25T23:49:0Z</time></trkpt>
<trkpt lat="46.23513" lon="7.0243"><ele></ele><time>2016-9-25T23:49:3Z</time></trkpt>
<trkpt lat="46.23516" lon="7.02436"><ele></ele><time>2016-9-25T23:49:6Z</time></trkpt>
<trkpt lat="46.2352" lon="7.02441"><ele></ele><time>2016-9-25T23:49:9Z</time></trkpt>
<trkpt lat="46.23526" lon="7.02441"><ele></ele><time>2016-9-25T23:49:12Z</time></trkpt>
<trkpt lat="46.23538" lon="7.02441"><ele></ele><time>2016-9-25T23:49:15Z</time></trkpt>
<trkpt lat="46.23545" lon="7.0244"><ele></ele><time>2016-9-25T23:49:18Z</time></trkpt>
<trkpt lat="46.23552" lon="7.02437"><ele></ele><time>2016-9-25T23:49:21Z</time></trkpt>
<trkpt lat="46.23568" lon="7.0243"><ele></ele><time>2016-9-25T23:49:24Z</time></trkpt>
<trkpt lat="46.23574" lon="7.02428"><ele></ele><time>2016-9-25T23:49:27Z</time></trkpt>
<trkpt lat="46.23577" lon="7.02431"><ele></ele><time>2016-9-25T23:49:30Z</time></trkpt>
<trkpt lat="46.23575" lon="7.02443"><ele></ele><time>2016-9-25T23:49:33Z</time></trkpt>
<trkpt lat="46.23566" lon="7.02455"><ele></ele><time>2016-9-25T23:49:36Z</time></trkpt>
<trkpt lat="46.23557" lon="7.02467"><ele></ele><time>2016-9-25T23:49:39Z</time></trkpt>
<trkpt lat="46.23547" lon="7.02479"><ele></ele><time>2016-9-25T23:49:42Z</time></trkpt>
<trkpt lat="46.23538" lon="7.02492"><ele></ele><time>2016-9-25T23:49:45Z</time></trkpt>
<trkpt lat="46.23533" lon="7.02499"><ele></ele><time>2016-9-25T23:49:48Z</time></trkpt>
<trkpt lat="46.23529" lon="7.02506"><ele></ele><time>2016-9-25T23:49:51Z</time></trkpt>
<trkpt lat="46.2352" lon="7.02521"><ele></ele><time>2016-9-25T23:49:54Z</time></trkpt>
<trkpt lat="46.23517" lon="7.02529"><ele></ele><time>2016-9-25T23:49:57Z</time></trkpt>
<trkpt lat="46.23516" lon="7.0254"><ele></ele><time>2016-9-25T23:50:0Z</time></trkpt>
<trkpt lat="46.23515" lon="7.02563"><ele></ele><time>2016-9-25T23:50:3Z</time></trkpt>
<trkpt lat="46.23518" lon="7.02584"><ele></ele><time>2016-9-25T23:50:6Z</time></trkpt>
<trkpt lat="46.2352" lon="7.02592"><ele></ele><time>2016-9-25T23:50:9Z</time></trkpt>
<trkpt lat="46.23524" lon="7.02593"><ele></ele><time>2016-9-25T23:50:12Z</time></trkpt>
<trkpt lat="46.23529" lon="7.02593"><ele></ele><time>2016-9-25T23:50:15Z</time></trkpt>
<trkpt lat="46.23534" lon="7.02589"><ele></ele><time>2016-9-25T23:50:18Z</time></trkpt>
<trkpt lat="46.23546" lon="7.02581"><ele></ele><time>2016-9-25T23:50:21Z</time></trkpt>
<trkpt lat="46.23557" lon="7.02572"><ele></ele><time>2016-9-25T23:50:24Z</time></trkpt>
<trkpt lat="46.23568" lon="7.02565"><ele></ele><time>2016-9-25T23:50:27Z</time></trkpt>
<trkpt lat="46.23576" lon="7.02565"><ele></ele><time>2016-9-25T23:50:30Z</time></trkpt>
<trkpt lat="46.23581" lon="7.02569"><ele></ele><time>2016-9-25T23:50:33Z</time></trkpt>
<trkpt lat="46.23585" lon="7.02575"><ele></ele><time>2016-9-25T23:50:36Z</time></trkpt>
<trkpt lat="46.23588" lon="7.02584"><ele></ele><time>2016-9-25T23:50:39Z</time></trkpt>
<trkpt lat="46.23592" lon="7.02603"><ele></ele><time>2016-9-25T23:50:42Z</time></trkpt>
<trkpt lat="46.23597" lon="7.02622"><ele></ele><time>2016-9-25T23:50:45Z</time></trkpt>
<trkpt lat="46.23599" lon="7.02631"><ele></ele><time>2016-9-25T23:50:48Z</time></trkpt>
<trkpt lat="46.23602" lon="7.02641"><ele></ele><time>2016-9-25T23:50:51Z</time></trkpt>
<trkpt lat="46.23607" lon="7.02661"><ele></ele><time>2016-9-25T23:50:54Z</time></trkpt>
<trkpt lat="46.23612" lon="7.02681"><ele></ele><time>2016-9-25T23:50:57Z</time></trkpt>
<trkpt lat="46.23616" lon="7.02701"><ele></ele><time>2016-9-25T23:51:0Z</time></trkpt>
<trkpt lat="46.23619" lon="7.02711"><ele></ele><time>2016-9-25T23:51:3Z</time></trkpt>
<trkpt lat="46.2362" lon="7.0272"><ele></ele><time>2016-9-25T23:51:6Z</time></trkpt>
<trkpt lat="46.23624" lon="7.02738"><ele></ele><time>2016-9-25T23:51:9Z</time></trkpt>
<trkpt lat="46.23628" lon="7.02756"><ele></ele><time>2016-9-25T23:51:12Z</time></trkpt>
<trkpt lat="46.2363" lon="7.02765"><ele></ele><time>2016-9-25T23:51:15Z</time></trkpt>
<trkpt lat="46.23632" lon="7.02772"><ele></ele><time>2016-9-25T23:51:18Z</time></trkpt>
<trkpt lat="46.23637" lon="7.02788"><ele></ele><time>2016-9-25T23:51:21Z</time></trkpt>
<trkpt lat="46.23641" lon="7.02803"><ele></ele><time>2016-9-25T23:51:24Z</time></trkpt>
<trkpt lat="46.23646" lon="7.02818"><ele></ele><time>2016-9-25T23:51:27Z</time></trkpt>
<trkpt lat="46.23648" lon="7.02825"><ele></ele><time>2016-9-25T23:51:30Z</time></trkpt>
<trkpt lat="46.23649" lon="7.02831"><ele></ele><time>2016-9-25T23:51:33Z</time></trkpt>
<trkpt lat="46.23651" lon="7.02842"><ele></ele><time>2016-9-25T23:51:36Z</time></trkpt>
<trkpt lat="46.23653" lon="7.02853"><ele></ele><time>2016-9-25T23:51:39Z</time></trkpt>
<trkpt lat="46.23655" lon="7.02864"><ele></ele><time>2016-9-25T23:51:42Z</time></trkpt>
<trkpt lat="46.23658" lon="7.02875"><ele></ele><time>2016-9-25T23:51:45Z</time></trkpt>
<trkpt lat="46.2366" lon="7.02886"><ele></ele><time>2016-9-25T23:51:48Z</time></trkpt>
<trkpt lat="46.23661" lon="7.02891"><ele></ele><time>2016-9-25T23:51:51Z</time></trkpt>
<trkpt lat="46.23664" lon="7.02893"><ele></ele><time>2016-9-25T23:51:54Z</time></trkpt>
<trkpt lat="46.23669" lon="7.02898"><ele></ele><time>2016-9-25T23:51:57Z</time></trkpt>
<trkpt lat="46.23677" lon="7.02895"><ele></ele><time>2016-9-25T23:52:0Z</time></trkpt>
<trkpt lat="46.23685" lon="7.02892"><ele></ele><time>2016-9-25T23:52:3Z</time></trkpt>
<trkpt lat="46.23695" lon="7.02886"><ele></ele><time>2016-9-25T23:52:6Z</time></trkpt>
<trkpt lat="46.23704" lon="7.0288"><ele></ele><time>2016-9-25T23:52:9Z</time></trkpt>
<trkpt lat="46.23714" lon="7.02874"><ele></ele><time>2016-9-25T23:52:12Z</time></trkpt>
<trkpt lat="46.23724" lon="7.02868"><ele></ele><time>2016-9-25T23:52:15Z</time></trkpt>
<trkpt lat="46.23729" lon="7.02865"><ele></ele><time>2016-9-25T23:52:18Z</time></trkpt>
<trkpt lat="46.23735" lon="7.02861"><ele></ele><time>2016-9-25T23:52:21Z</time></trkpt>
<trkpt lat="46.23747" lon="7.02855"><ele></ele><time>2016-9-25T23:52:24Z</time></trkpt>
<trkpt lat="46.23758" lon="7.02848"><ele></ele><time>2016-9-25T23:52:27Z</time></trkpt>
<trkpt lat="46.2377" lon="7.02842"><ele></ele><time>2016-9-25T23:52:30Z</time></trkpt>
<trkpt lat="46.23775" lon="7.02838"><ele></ele><time>2016-9-25T23:52:33Z</time></trkpt>
<trkpt lat="46.23782" lon="7.02835"><ele></ele><time>2016-9-25T23:52:36Z</time></trkpt>
<trkpt lat="46.23794" lon="7.02827"><ele></ele><time>2016-9-25T23:52:39Z</time></trkpt>
<trkpt lat="46.23806" lon="7.02819"><ele></ele><time>2016-9-25T23:52:42Z</time></trkpt>
<trkpt lat="46.23819" lon="7.02811"><ele></ele><time>2016-9-25T23:52:45Z</time></trkpt>
<trkpt lat="46.23834" lon="7.028"><ele></ele><time>2016-9-25T23:52:48Z</time></trkpt>
<trkpt lat="46.23849" lon="7.02789"><ele></ele><time>2016-9-25T23:52:51Z</time></trkpt>
<trkpt lat="46.23864" lon="7.02778"><ele></ele><time>2016-9-25T23:52:54Z</time></trkpt>
<trkpt lat="46.23873" lon="7.02772"><ele></ele><time>2016-9-25T23:52:57Z</time></trkpt>
<trkpt lat="46.23881" lon="7.02766"><ele></ele><time>2016-9-25T23:53:0Z</time></trkpt>
<trkpt lat="46.23897" lon="7.02755"><ele></ele><time>2016-9-25T23:53:3Z</time></trkpt>
<trkpt lat="46.23905" lon="7.02748"><ele></ele><time>2016-9-25T23:53:6Z</time></trkpt>
<trkpt lat="46.2391" lon="7.02739"><ele></ele><time>2016-9-25T23:53:9Z</time></trkpt>
<trkpt lat="46.23914" lon="7.02728"><ele></ele><time>2016-9-25T23:53:12Z</time></trkpt>
<trkpt lat="46.23916" lon="7.02715"><ele></ele><time>2016-9-25T23:53:15Z</time></trkpt>
<trkpt lat="46.23921" lon="7.02688"><ele></ele><time>2016-9-25T23:53:18Z</time></trkpt>
<trkpt lat="46.23925" lon="7.02661"><ele></ele><time>2016-9-25T23:53:21Z</time></trkpt>
<trkpt lat="46.2393" lon="7.02648"><ele></ele><time>2016-9-25T23:53:24Z</time></trkpt>
<trkpt lat="46.23938" lon="7.02639"><ele></ele><time>2016-9-25T23:53:27Z</time></trkpt>
<trkpt lat="46.23952" lon="7.02621"><ele></ele><time>2016-9-25T23:53:30Z</time></trkpt>
<trkpt lat="46.23967" lon="7.02603"><ele></ele><time>2016-9-25T23:53:33Z</time></trkpt>
<trkpt lat="46.23981" lon="7.02587"><ele></ele><time>2016-9-25T23:53:36Z</time></trkpt>
<trkpt lat="46.23987" lon="7.02579"><ele></ele><time>2016-9-25T23:53:39Z</time></trkpt>
<trkpt lat="46.23989" lon="7.02571"><ele></ele><time>2016-9-25T23:53:42Z</time></trkpt>
<trkpt lat="46.23994" lon="7.02554"><ele></ele><time>2016-9-25T23:53:45Z</time></trkpt>
<trkpt lat="46.23995" lon="7.02545"><ele></ele><time>2016-9-25T23:53:48Z</time></trkpt>
<trkpt lat="46.24001" lon="7.0255"><ele></ele><time>2016-9-25T23:53:51Z</time></trkpt>
<trkpt lat="46.24007" lon="7.02563"><ele></ele><time>2016-9-25T23:53:54Z</time></trkpt>
<trkpt lat="46.24014" lon="7.02576"><ele></ele><time>2016-9-25T23:53:57Z</time></trkpt>
<trkpt lat="46.2402" lon="7.02589"><ele></ele><time>2016-9-25T23:54:0Z</time></trkpt>
<trkpt lat="46.24026" lon="7.02602"><ele></ele><time>2016-9-25T23:54:3Z</time></trkpt>
<trkpt lat="46.24032" lon="7.02613"><ele></ele><time>2016-9-25T23:54:6Z</time></trkpt>
<trkpt lat="46.24038" lon="7.02624"><ele></ele><time>2016-9-25T23:54:9Z</time></trkpt>
<trkpt lat="46.24044" lon="7.02636"><ele></ele><time>2016-9-25T23:54:12Z</time></trkpt>
<trkpt lat="46.2405" lon="7.02647"><ele></ele><time>2016-9-25T23:54:15Z</time></trkpt>
<trkpt lat="46.24054" lon="7.02652"><ele></ele><time>2016-9-25T23:54:18Z</time></trkpt>
<trkpt lat="46.24059" lon="7.02654"><ele></ele><time>2016-9-25T23:54:21Z</time></trkpt>
<trkpt lat="46.24069" lon="7.02659"><ele></ele><time>2016-9-25T23:54:24Z</time></trkpt>
<trkpt lat="46.2408" lon="7.02664"><ele></ele><time>2016-9-25T23:54:27Z</time></trkpt>
<trkpt lat="46.2409" lon="7.02669"><ele></ele><time>2016-9-25T23:54:30Z</time></trkpt>
<trkpt lat="46.241" lon="7.02674"><ele></ele><time>2016-9-25T23:54:33Z</time></trkpt>
<trkpt lat="46.24109" lon="7.02677"><ele></ele><time>2016-9-25T23:54:36Z</time></trkpt>
<trkpt lat="46.24117" lon="7.02681"><ele></ele><time>2016-9-25T23:54:39Z</time></trkpt>
<trkpt lat="46.24126" lon="7.02685"><ele></ele><time>2016-9-25T23:54:42Z</time></trkpt>
<trkpt lat="46.24134" lon="7.02689"><ele></ele><time>2016-9-25T23:54:45Z</time></trkpt>
<trkpt lat="46.24143" lon="7.02692"><ele></ele><time>2016-9-25T23:54:48Z</time></trkpt>
<trkpt lat="46.24147" lon="7.02695"><ele></ele><time>2016-9-25T23:54:51Z</time></trkpt>
<trkpt lat="46.24152" lon="7.02699"><ele></ele><time>2016-9-25T23:54:54Z</time></trkpt>
<trkpt lat="46.24162" lon="7.02706"><ele></ele><time>2016-9-25T23:54:57Z</time></trkpt>
<trkpt lat="46.24173" lon="7.02714"><ele></ele><time>2016-9-25T23:55:0Z</time></trkpt>
<trkpt lat="46.24183" lon="7.02722"><ele></ele><time>2016-9-25T23:55:3Z</time></trkpt>
<trkpt lat="46.24188" lon="7.02726"><ele></ele><time>2016-9-25T23:55:6Z</time></trkpt>
<trkpt lat="46.24194" lon="7.0273"><ele></ele><time>2016-9-25T23:55:9Z</time></trkpt>
<trkpt lat="46.24205" lon="7.02739"><ele></ele><time>2016-9-25T23:55:12Z</time></trkpt>
<trkpt lat="46.24217" lon="7.02747"><ele></ele><time>2016-9-25T23:55:15Z</time></trkpt>
<trkpt lat="46.24222" lon="7.02751"><ele></ele><time>2016-9-25T23:55:18Z</time></trkpt>
<trkpt lat="46.24228" lon="7.02755"><ele></ele><time>2016-9-25T23:55:21Z</time></trkpt>
<trkpt lat="46.24234" lon="7.0276"><ele></ele><time>2016-9-25T23:55:24Z</time></trkpt>
<trkpt lat="46.2424" lon="7.02765"><ele></ele><time>2016-9-25T23:55:27Z</time></trkpt>
<trkpt lat="46.24253" lon="7.02776"><ele></ele><time>2016-9-25T23:55:30Z</time></trkpt>
<trkpt lat="46.24259" lon="7.02782"><ele></ele><time>2016-9-25T23:55:33Z</time></trkpt>
<trkpt lat="46.24264" lon="7.02788"><ele></ele><time>2016-9-25T23:55:36Z</time></trkpt>
<trkpt lat="46.24273" lon="7.02806"><ele></ele><time>2016-9-25T23:55:39Z</time></trkpt>
<trkpt lat="46.24281" lon="7.02823"><ele></ele><time>2016-9-25T23:55:42Z</time></trkpt>
<trkpt lat="46.24289" lon="7.02841"><ele></ele><time>2016-9-25T23:55:45Z</time></trkpt>
<trkpt lat="46.24297" lon="7.02859"><ele></ele><time>2016-9-25T23:55:48Z</time></trkpt>
<trkpt lat="46.24305" lon="7.02878"><ele></ele><time>2016-9-25T23:55:51Z</time></trkpt>
<trkpt lat="46.24312" lon="7.02896"><ele></ele><time>2016-9-25T23:55:54Z</time></trkpt>
<trkpt lat="46.24316" lon="7.02905"><ele></ele><time>2016-9-25T23:55:57Z</time></trkpt>
<trkpt lat="46.24321" lon="7.02915"><ele></ele><time>2016-9-25T23:56:0Z</time></trkpt>
<trkpt lat="46.24331" lon="7.02933"><ele></ele><time>2016-9-25T23:56:3Z</time></trkpt>
<trkpt lat="46.24341" lon="7.02952"><ele></ele><time>2016-9-25T23:56:6Z</time></trkpt>
<trkpt lat="46.24345" lon="7.02962"><ele></ele><time>2016-9-25T23:56:9Z</time></trkpt>
<trkpt lat="46.2435" lon="7.02972"><ele></ele><time>2016-9-25T23:56:12Z</time></trkpt>
<trkpt lat="46.24359" lon="7.02992"><ele></ele><time>2016-9-25T23:56:15Z</time></trkpt>
<trkpt lat="46.24368" lon="7.03012"><ele></ele><time>2016-9-25T23:56:18Z</time></trkpt>
<trkpt lat="46.24373" lon="7.03022"><ele></ele><time>2016-9-25T23:56:21Z</time></trkpt>
<trkpt lat="46.24377" lon="7.03031"><ele></ele><time>2016-9-25T23:56:24Z</time></trkpt>
<trkpt lat="46.24386" lon="7.03048"><ele></ele><time>2016-9-25T23:56:27Z</time></trkpt>
<trkpt lat="46.24395" lon="7.03065"><ele></ele><time>2016-9-25T23:56:30Z</time></trkpt>
<trkpt lat="46.24403" lon="7.03081"><ele></ele><time>2016-9-25T23:56:33Z</time></trkpt>
<trkpt lat="46.2441" lon="7.03098"><ele></ele><time>2016-9-25T23:56:36Z</time></trkpt>
<trkpt lat="46.24417" lon="7.03115"><ele></ele><time>2016-9-25T23:56:39Z</time></trkpt>
<trkpt lat="46.24424" lon="7.03131"><ele></ele><time>2016-9-25T23:56:42Z</time></trkpt>
<trkpt lat="46.24428" lon="7.0314"><ele></ele><time>2016-9-25T23:56:45Z</time></trkpt>
<trkpt lat="46.24435" lon="7.03146"><ele></ele><time>2016-9-25T23:56:48Z</time></trkpt>
<trkpt lat="46.24451" lon="7.03144"><ele></ele><time>2016-9-25T23:56:51Z</time></trkpt>
<trkpt lat="46.24468" lon="7.03142"><ele></ele><time>2016-9-25T23:56:54Z</time></trkpt>
<trkpt lat="46.2449" lon="7.03136"><ele></ele><time>2016-9-25T23:56:57Z</time></trkpt>
<trkpt lat="46.24511" lon="7.03129"><ele></ele><time>2016-9-25T23:57:0Z</time></trkpt>
<trkpt lat="46.24523" lon="7.03126"><ele></ele><time>2016-9-25T23:57:3Z</time></trkpt>
<trkpt lat="46.24536" lon="7.03124"><ele></ele><time>2016-9-25T23:57:6Z</time></trkpt>
<trkpt lat="46.24562" lon="7.0312"><ele></ele><time>2016-9-25T23:57:9Z</time></trkpt>
<trkpt lat="46.24575" lon="7.03119"><ele></ele><time>2016-9-25T23:57:12Z</time></trkpt>
<trkpt lat="46.24589" lon="7.03118"><ele></ele><time>2016-9-25T23:57:15Z</time></trkpt>
<trkpt lat="46.24617" lon="7.03118"><ele></ele><time>2016-9-25T23:57:18Z</time></trkpt>
<trkpt lat="46.2463" lon="7.03117"><ele></ele><time>2016-9-25T23:57:21Z</time></trkpt>
<trkpt lat="46.24641" lon="7.03117"><ele></ele><time>2016-9-25T23:57:24Z</time></trkpt>
<trkpt lat="46.24662" lon="7.03115"><ele></ele><time>2016-9-25T23:57:27Z</time></trkpt>
<trkpt lat="46.24671" lon="7.03109"><ele></ele><time>2016-9-25T23:57:30Z</time></trkpt>
<trkpt lat="46.24677" lon="7.031"><ele></ele><time>2016-9-25T23:57:33Z</time></trkpt>
<trkpt lat="46.24689" lon="7.03081"><ele></ele><time>2016-9-25T23:57:36Z</time></trkpt>
<trkpt lat="46.24701" lon="7.03062"><ele></ele><time>2016-9-25T23:57:39Z</time></trkpt>
<trkpt lat="46.24715" lon="7.03046"><ele></ele><time>2016-9-25T23:57:42Z</time></trkpt>
<trkpt lat="46.24722" lon="7.0304"><ele></ele><time>2016-9-25T23:57:45Z</time></trkpt>
<trkpt lat="46.24731" lon="7.03038"><ele></ele><time>2016-9-25T23:57:48Z</time></trkpt>
<trkpt lat="46.24741" lon="7.03038"><ele></ele><time>2016-9-25T23:57:51Z</time></trkpt>
<trkpt lat="46.2475" lon="7.0304"><ele></ele><time>2016-9-25T23:57:54Z</time></trkpt>
<trkpt lat="46.24769" lon="7.03043"><ele></ele><time>2016-9-25T23:57:57Z</time></trkpt>
<trkpt lat="46.24788" lon="7.03046"><ele></ele><time>2016-9-25T23:58:0Z</time></trkpt>
<trkpt lat="46.24798" lon="7.03047"><ele></ele><time>2016-9-25T23:58:3Z</time></trkpt>
<trkpt lat="46.24808" lon="7.03048"><ele></ele><time>2016-9-25T23:58:6Z</time></trkpt>
<trkpt lat="46.24827" lon="7.03048"><ele></ele><time>2016-9-25T23:58:9Z</time></trkpt>
<trkpt lat="46.24845" lon="7.03043"><ele></ele><time>2016-9-25T23:58:12Z</time></trkpt>
<trkpt lat="46.24864" lon="7.03037"><ele></ele><time>2016-9-25T23:58:15Z</time></trkpt>
<trkpt lat="46.24871" lon="7.03033"><ele></ele><time>2016-9-25T23:58:18Z</time></trkpt>
<trkpt lat="46.24874" lon="7.03024"><ele></ele><time>2016-9-25T23:58:21Z</time></trkpt>
<trkpt lat="46.24875" lon="7.03015"><ele></ele><time>2016-9-25T23:58:24Z</time></trkpt>
<trkpt lat="46.24872" lon="7.03005"><ele></ele><time>2016-9-25T23:58:27Z</time></trkpt>
<trkpt lat="46.24867" lon="7.02984"><ele></ele><time>2016-9-25T23:58:30Z</time></trkpt>
<trkpt lat="46.24862" lon="7.02964"><ele></ele><time>2016-9-25T23:58:33Z</time></trkpt>
<trkpt lat="46.24857" lon="7.02944"><ele></ele><time>2016-9-25T23:58:36Z</time></trkpt>
<trkpt lat="46.24851" lon="7.02923"><ele></ele><time>2016-9-25T23:58:39Z</time></trkpt>
<trkpt lat="46.24845" lon="7.02903"><ele></ele><time>2016-9-25T23:58:42Z</time></trkpt>
<trkpt lat="46.24843" lon="7.02892"><ele></ele><time>2016-9-25T23:58:45Z</time></trkpt>
<trkpt lat="46.2484" lon="7.02883"><ele></ele><time>2016-9-25T23:58:48Z</time></trkpt>
<trkpt lat="46.24836" lon="7.02867"><ele></ele><time>2016-9-25T23:58:51Z</time></trkpt>
<trkpt lat="46.24835" lon="7.02859"><ele></ele><time>2016-9-25T23:58:54Z</time></trkpt>
<trkpt lat="46.24836" lon="7.02852"><ele></ele><time>2016-9-25T23:58:57Z</time></trkpt>
<trkpt lat="46.24838" lon="7.02846"><ele></ele><time>2016-9-25T23:59:0Z</time></trkpt>
<trkpt lat="46.24843" lon="7.02844"><ele></ele><time>2016-9-25T23:59:3Z</time></trkpt>
<trkpt lat="46.24853" lon="7.02838"><ele></ele><time>2016-9-25T23:59:6Z</time></trkpt>
<trkpt lat="46.24862" lon="7.02833"><ele></ele><time>2016-9-25T23:59:9Z</time></trkpt>
<trkpt lat="46.24866" lon="7.0283"><ele></ele><time>2016-9-25T23:59:12Z</time></trkpt>
<trkpt lat="46.24868" lon="7.02823"><ele></ele><time>2016-9-25T23:59:15Z</time></trkpt>
<trkpt lat="46.2487" lon="7.02816"><ele></ele><time>2016-9-25T23:59:18Z</time></trkpt>
<trkpt lat="46.24869" lon="7.0281"><ele></ele><time>2016-9-25T23:59:21Z</time></trkpt>
<trkpt lat="46.24867" lon="7.02796"><ele></ele><time>2016-9-25T23:59:24Z</time></trkpt>
<trkpt lat="46.24866" lon="7.02783"><ele></ele><time>2016-9-25T23:59:27Z</time></trkpt>
<trkpt lat="46.24864" lon="7.0277"><ele></ele><time>2016-9-25T23:59:30Z</time></trkpt>
<trkpt lat="46.24862" lon="7.02757"><ele></ele><time>2016-9-25T23:59:33Z</time></trkpt>
<trkpt lat="46.24862" lon="7.02749"><ele></ele><time>2016-9-25T23:59:36Z</time></trkpt>
<trkpt lat="46.2486" lon="7.0274"><ele></ele><time>2016-9-25T23:59:39Z</time></trkpt>
<trkpt lat="46.24859" lon="7.0273"><ele></ele><time>2016-9-25T23:59:42Z</time></trkpt>
<trkpt lat="46.24858" lon="7.02721"><ele></ele><time>2016-9-25T23:59:45Z</time></trkpt>
<trkpt lat="46.24856" lon="7.02702"><ele></ele><time>2016-9-25T23:59:48Z</time></trkpt>
<trkpt lat="46.24854" lon="7.02683"><ele></ele><time>2016-9-25T23:59:51Z</time></trkpt>
<trkpt lat="46.24856" lon="7.02662"><ele></ele><time>2016-9-25T23:59:54Z</time></trkpt>
<trkpt lat="46.24858" lon="7.02642"><ele></ele><time>2016-9-25T23:59:57Z</time></trkpt>
<trkpt lat="46.24867" lon="7.02631"><ele></ele><time>2016-9-26T0:0:0Z</time></trkpt>
<trkpt lat="46.24876" lon="7.02619"><ele></ele><time>2016-9-26T0:0:3Z</time></trkpt>
<trkpt lat="46.24885" lon="7.02608"><ele></ele><time>2016-9-26T0:0:6Z</time></trkpt>
<trkpt lat="46.2489" lon="7.02603"><ele></ele><time>2016-9-26T0:0:9Z</time></trkpt>
<trkpt lat="46.24895" lon="7.02602"><ele></ele><time>2016-9-26T0:0:12Z</time></trkpt>
<trkpt lat="46.24906" lon="7.02599"><ele></ele><time>2016-9-26T0:0:15Z</time></trkpt>
<trkpt lat="46.24916" lon="7.02597"><ele></ele><time>2016-9-26T0:0:18Z</time></trkpt>
<trkpt lat="46.24927" lon="7.02594"><ele></ele><time>2016-9-26T0:0:21Z</time></trkpt>
<trkpt lat="46.24938" lon="7.02592"><ele></ele><time>2016-9-26T0:0:24Z</time></trkpt>
<trkpt lat="46.24951" lon="7.0259"><ele></ele><time>2016-9-26T0:0:27Z</time></trkpt>
<trkpt lat="46.24964" lon="7.02588"><ele></ele><time>2016-9-26T0:0:30Z</time></trkpt>
<trkpt lat="46.24977" lon="7.02586"><ele></ele><time>2016-9-26T0:0:33Z</time></trkpt>
<trkpt lat="46.24983" lon="7.02585"><ele></ele><time>2016-9-26T0:0:36Z</time></trkpt>
<trkpt lat="46.2499" lon="7.02584"><ele></ele><time>2016-9-26T0:0:39Z</time></trkpt>
<trkpt lat="46.25003" lon="7.0258"><ele></ele><time>2016-9-26T0:0:42Z</time></trkpt>
<trkpt lat="46.25016" lon="7.02577"><ele></ele><time>2016-9-26T0:0:45Z</time></trkpt>
<trkpt lat="46.2503" lon="7.02573"><ele></ele><time>2016-9-26T0:0:48Z</time></trkpt>
<trkpt lat="46.25045" lon="7.02565"><ele></ele><time>2016-9-26T0:0:51Z</time></trkpt>
<trkpt lat="46.25061" lon="7.02557"><ele></ele><time>2016-9-26T0:0:54Z</time></trkpt>
<trkpt lat="46.25077" lon="7.02548"><ele></ele><time>2016-9-26T0:0:57Z</time></trkpt>
<trkpt lat="46.25092" lon="7.02539"><ele></ele><time>2016-9-26T0:1:0Z</time></trkpt>
<trkpt lat="46.25107" lon="7.02529"><ele></ele><time>2016-9-26T0:1:3Z</time></trkpt>
<trkpt lat="46.25121" lon="7.0252"><ele></ele><time>2016-9-26T0:1:6Z</time></trkpt>
<trkpt lat="46.25126" lon="7.02519"><ele></ele><time>2016-9-26T0:1:9Z</time></trkpt>
<trkpt lat="46.2513" lon="7.02522"><ele></ele><time>2016-9-26T0:1:12Z</time></trkpt>
<trkpt lat="46.25133" lon="7.02526"><ele></ele><time>2016-9-26T0:1:15Z</time></trkpt>
<trkpt lat="46.25135" lon="7.02533"><ele></ele><time>2016-9-26T0:1:18Z</time></trkpt>
<trkpt lat="46.25137" lon="7.02547"><ele></ele><time>2016-9-26T0:1:21Z</time></trkpt>
<trkpt lat="46.2514" lon="7.02562"><ele></ele><time>2016-9-26T0:1:24Z</time></trkpt>
<trkpt lat="46.2514" lon="7.02577"><ele></ele><time>2016-9-26T0:1:27Z</time></trkpt>
<trkpt lat="46.25141" lon="7.02593"><ele></ele><time>2016-9-26T0:1:30Z</time></trkpt>
<trkpt lat="46.25141" lon="7.02609"><ele></ele><time>2016-9-26T0:1:33Z</time></trkpt>
<trkpt lat="46.25142" lon="7.02624"><ele></ele><time>2016-9-26T0:1:36Z</time></trkpt>
<trkpt lat="46.25144" lon="7.02631"><ele></ele><time>2016-9-26T0:1:39Z</time></trkpt>
<trkpt lat="46.25146" lon="7.02637"><ele></ele><time>2016-9-26T0:1:42Z</time></trkpt>
<trkpt lat="46.2515" lon="7.0265"><ele></ele><time>2016-9-26T0:1:45Z</time></trkpt>
<trkpt lat="46.25154" lon="7.02663"><ele></ele><time>2016-9-26T0:1:48Z</time></trkpt>
<trkpt lat="46.25156" lon="7.02669"><ele></ele><time>2016-9-26T0:1:51Z</time></trkpt>
<trkpt lat="46.25157" lon="7.02676"><ele></ele><time>2016-9-26T0:1:54Z</time></trkpt>
<trkpt lat="46.25153" lon="7.02689"><ele></ele><time>2016-9-26T0:1:57Z</time></trkpt>
<trkpt lat="46.25148" lon="7.02701"><ele></ele><time>2016-9-26T0:2:0Z</time></trkpt>
<trkpt lat="46.25141" lon="7.0271"><ele></ele><time>2016-9-26T0:2:3Z</time></trkpt>
<trkpt lat="46.25134" lon="7.02719"><ele></ele><time>2016-9-26T0:2:6Z</time></trkpt>
<trkpt lat="46.25127" lon="7.02729"><ele></ele><time>2016-9-26T0:2:9Z</time></trkpt>
<trkpt lat="46.25123" lon="7.02733"><ele></ele><time>2016-9-26T0:2:12Z</time></trkpt>
<trkpt lat="46.2512" lon="7.02738"><ele></ele><time>2016-9-26T0:2:15Z</time></trkpt>
<trkpt lat="46.25114" lon="7.02746"><ele></ele><time>2016-9-26T0:2:18Z</time></trkpt>
<trkpt lat="46.25112" lon="7.02754"><ele></ele><time>2016-9-26T0:2:21Z</time></trkpt>
<trkpt lat="46.2511" lon="7.02761"><ele></ele><time>2016-9-26T0:2:24Z</time></trkpt>
<trkpt lat="46.25109" lon="7.02769"><ele></ele><time>2016-9-26T0:2:27Z</time></trkpt>
<trkpt lat="46.25111" lon="7.02778"><ele></ele><time>2016-9-26T0:2:30Z</time></trkpt>
<trkpt lat="46.25112" lon="7.02782"><ele></ele><time>2016-9-26T0:2:33Z</time></trkpt>
<trkpt lat="46.25113" lon="7.02786"><ele></ele><time>2016-9-26T0:2:36Z</time></trkpt>
<trkpt lat="46.25116" lon="7.02795"><ele></ele><time>2016-9-26T0:2:39Z</time></trkpt>
<trkpt lat="46.25118" lon="7.02804"><ele></ele><time>2016-9-26T0:2:42Z</time></trkpt>
<trkpt lat="46.2512" lon="7.02812"><ele></ele><time>2016-9-26T0:2:45Z</time></trkpt>
<trkpt lat="46.25122" lon="7.02821"><ele></ele><time>2016-9-26T0:2:48Z</time></trkpt>
<trkpt lat="46.25124" lon="7.0283"><ele></ele><time>2016-9-26T0:2:51Z</time></trkpt>
<trkpt lat="46.25126" lon="7.02834"><ele></ele><time>2016-9-26T0:2:54Z</time></trkpt>
<trkpt lat="46.25128" lon="7.0284"><ele></ele><time>2016-9-26T0:2:57Z</time></trkpt>
<trkpt lat="46.25131" lon="7.02851"><ele></ele><time>2016-9-26T0:3:0Z</time></trkpt>
<trkpt lat="46.25133" lon="7.02857"><ele></ele><time>2016-9-26T0:3:3Z</time></trkpt>
<trkpt lat="46.25135" lon="7.02862"><ele></ele><time>2016-9-26T0:3:6Z</time></trkpt>
<trkpt lat="46.25138" lon="7.02874"><ele></ele><time>2016-9-26T0:3:9Z</time></trkpt>
<trkpt lat="46.25142" lon="7.02885"><ele></ele><time>2016-9-26T0:3:12Z</time></trkpt>
<trkpt lat="46.25144" lon="7.02891"><ele></ele><time>2016-9-26T0:3:15Z</time></trkpt>
<trkpt lat="46.25149" lon="7.02897"><ele></ele><time>2016-9-26T0:3:18Z</time></trkpt>
<trkpt lat="46.25152" lon="7.02905"><ele></ele><time>2016-9-26T0:3:21Z</time></trkpt>
<trkpt lat="46.25155" lon="7.02915"><ele></ele><time>2016-9-26T0:3:24Z</time></trkpt>
<trkpt lat="46.25159" lon="7.02936"><ele></ele><time>2016-9-26T0:3:27Z</time></trkpt>
<trkpt lat="46.25161" lon="7.02947"><ele></ele><time>2016-9-26T0:3:30Z</time></trkpt>
<trkpt lat="46.25161" lon="7.0296"><ele></ele><time>2016-9-26T0:3:33Z</time></trkpt>
<trkpt lat="46.25161" lon="7.02985"><ele></ele><time>2016-9-26T0:3:36Z</time></trkpt>
<trkpt lat="46.2516" lon="7.03009"><ele></ele><time>2016-9-26T0:3:39Z</time></trkpt>
<trkpt lat="46.25156" lon="7.03023"><ele></ele><time>2016-9-26T0:3:42Z</time></trkpt>
<trkpt lat="46.25152" lon="7.03038"><ele></ele><time>2016-9-26T0:3:45Z</time></trkpt>
<trkpt lat="46.25151" lon="7.03044"><ele></ele><time>2016-9-26T0:3:48Z</time></trkpt>
<trkpt lat="46.25152" lon="7.03049"><ele></ele><time>2016-9-26T0:3:51Z</time></trkpt>
<trkpt lat="46.25152" lon="7.03057"><ele></ele><time>2016-9-26T0:3:54Z</time></trkpt>
<trkpt lat="46.25152" lon="7.03066"><ele></ele><time>2016-9-26T0:3:57Z</time></trkpt>
<trkpt lat="46.25153" lon="7.03069"><ele></ele><time>2016-9-26T0:4:0Z</time></trkpt>
<trkpt lat="46.25156" lon="7.03071"><ele></ele><time>2016-9-26T0:4:3Z</time></trkpt>
<trkpt lat="46.25164" lon="7.03074"><ele></ele><time>2016-9-26T0:4:6Z</time></trkpt>
<trkpt lat="46.25172" lon="7.03075"><ele></ele><time>2016-9-26T0:4:9Z</time></trkpt>
<trkpt lat="46.2518" lon="7.03075"><ele></ele><time>2016-9-26T0:4:12Z</time></trkpt>
<trkpt lat="46.25188" lon="7.03076"><ele></ele><time>2016-9-26T0:4:15Z</time></trkpt>
<trkpt lat="46.25196" lon="7.03077"><ele></ele><time>2016-9-26T0:4:18Z</time></trkpt>
<trkpt lat="46.25204" lon="7.03078"><ele></ele><time>2016-9-26T0:4:21Z</time></trkpt>
<trkpt lat="46.25212" lon="7.03078"><ele></ele><time>2016-9-26T0:4:24Z</time></trkpt>
<trkpt lat="46.25222" lon="7.0308"><ele></ele><time>2016-9-26T0:4:27Z</time></trkpt>
<trkpt lat="46.25232" lon="7.03081"><ele></ele><time>2016-9-26T0:4:30Z</time></trkpt>
<trkpt lat="46.25242" lon="7.03082"><ele></ele><time>2016-9-26T0:4:33Z</time></trkpt>
<trkpt lat="46.25252" lon="7.03083"><ele></ele><time>2016-9-26T0:4:36Z</time></trkpt>
<trkpt lat="46.25257" lon="7.03082"><ele></ele><time>2016-9-26T0:4:39Z</time></trkpt>
<trkpt lat="46.25261" lon="7.03078"><ele></ele><time>2016-9-26T0:4:42Z</time></trkpt>
<trkpt lat="46.25269" lon="7.03068"><ele></ele><time>2016-9-26T0:4:45Z</time></trkpt>
<trkpt lat="46.25277" lon="7.03058"><ele></ele><time>2016-9-26T0:4:48Z</time></trkpt>
<trkpt lat="46.25284" lon="7.03045"><ele></ele><time>2016-9-26T0:4:51Z</time></trkpt>
<trkpt lat="46.2529" lon="7.03031"><ele></ele><time>2016-9-26T0:4:54Z</time></trkpt>
<trkpt lat="46.25296" lon="7.03017"><ele></ele><time>2016-9-26T0:4:57Z</time></trkpt>
<trkpt lat="46.25299" lon="7.03002"><ele></ele><time>2016-9-26T0:5:0Z</time></trkpt>
<trkpt lat="46.253" lon="7.02995"><ele></ele><time>2016-9-26T0:5:3Z</time></trkpt>
<trkpt lat="46.25303" lon="7.02991"><ele></ele><time>2016-9-26T0:5:6Z</time></trkpt>
<trkpt lat="46.2531" lon="7.02981"><ele></ele><time>2016-9-26T0:5:9Z</time></trkpt>
<trkpt lat="46.25317" lon="7.02973"><ele></ele><time>2016-9-26T0:5:12Z</time></trkpt>
<trkpt lat="46.25327" lon="7.02973"><ele></ele><time>2016-9-26T0:5:15Z</time></trkpt>
<trkpt lat="46.25332" lon="7.02974"><ele></ele><time>2016-9-26T0:5:18Z</time></trkpt>
<trkpt lat="46.25339" lon="7.02977"><ele></ele><time>2016-9-26T0:5:21Z</time></trkpt>
<trkpt lat="46.25349" lon="7.02968"><ele></ele><time>2016-9-26T0:5:24Z</time></trkpt>
<trkpt lat="46.25358" lon="7.02959"><ele></ele><time>2016-9-26T0:5:27Z</time></trkpt>
<trkpt lat="46.25367" lon="7.02949"><ele></ele><time>2016-9-26T0:5:30Z</time></trkpt>
<trkpt lat="46.25378" lon="7.02943"><ele></ele><time>2016-9-26T0:5:33Z</time></trkpt>
<trkpt lat="46.25384" lon="7.02933"><ele></ele><time>2016-9-26T0:5:36Z</time></trkpt>
<trkpt lat="46.25399" lon="7.02924"><ele></ele><time>2016-9-26T0:5:39Z</time></trkpt>
<trkpt lat="46.25413" lon="7.02916"><ele></ele><time>2016-9-26T0:5:42Z</time></trkpt>
<trkpt lat="46.25427" lon="7.02908"><ele></ele><time>2016-9-26T0:5:45Z</time></trkpt>
<trkpt lat="46.25435" lon="7.02898"><ele></ele><time>2016-9-26T0:5:48Z</time></trkpt>
<trkpt lat="46.25444" lon="7.02889"><ele></ele><time>2016-9-26T0:5:51Z</time></trkpt>
<trkpt lat="46.25452" lon="7.0288"><ele></ele><time>2016-9-26T0:5:54Z</time></trkpt>
<trkpt lat="46.2546" lon="7.02871"><ele></ele><time>2016-9-26T0:5:57Z</time></trkpt>
<trkpt lat="46.25464" lon="7.0286"><ele></ele><time>2016-9-26T0:6:0Z</time></trkpt>
<trkpt lat="46.25469" lon="7.0285"><ele></ele><time>2016-9-26T0:6:3Z</time></trkpt>
<trkpt lat="46.25471" lon="7.02844"><ele></ele><time>2016-9-26T0:6:6Z</time></trkpt>
<trkpt lat="46.25473" lon="7.02839"><ele></ele><time>2016-9-26T0:6:9Z</time></trkpt>
<trkpt lat="46.25476" lon="7.02832"><ele></ele><time>2016-9-26T0:6:12Z</time></trkpt>
<trkpt lat="46.2548" lon="7.02825"><ele></ele><time>2016-9-26T0:6:15Z</time></trkpt>
<trkpt lat="46.25483" lon="7.02818"><ele></ele><time>2016-9-26T0:6:18Z</time></trkpt>
<trkpt lat="46.25486" lon="7.02811"><ele></ele><time>2016-9-26T0:6:21Z</time></trkpt>
<trkpt lat="46.25489" lon="7.02803"><ele></ele><time>2016-9-26T0:6:24Z</time></trkpt>
<trkpt lat="46.25493" lon="7.02796"><ele></ele><time>2016-9-26T0:6:27Z</time></trkpt>
<trkpt lat="46.25493" lon="7.02793"><ele></ele><time>2016-9-26T0:6:30Z</time></trkpt>
<trkpt lat="46.25492" lon="7.02793"><ele></ele><time>2016-9-26T0:6:33Z</time></trkpt>
<trkpt lat="46.2549" lon="7.02791"><ele></ele><time>2016-9-26T0:6:36Z</time></trkpt>
<trkpt lat="46.25489" lon="7.02791"><ele></ele><time>2016-9-26T0:6:39Z</time></trkpt>
<trkpt lat="46.25488" lon="7.02792"><ele></ele><time>2016-9-26T0:6:42Z</time></trkpt>
<trkpt lat="46.25486" lon="7.02795"><ele></ele><time>2016-9-26T0:6:45Z</time></trkpt>
<trkpt lat="46.25484" lon="7.02798"><ele></ele><time>2016-9-26T0:6:48Z</time></trkpt>
<trkpt lat="46.25483" lon="7.02801"><ele></ele><time>2016-9-26T0:6:51Z</time></trkpt>
<trkpt lat="46.25481" lon="7.02804"><ele></ele><time>2016-9-26T0:6:54Z</time></trkpt>
<trkpt lat="46.25479" lon="7.02807"><ele></ele><time>2016-9-26T0:6:57Z</time></trkpt>
<trkpt lat="46.25478" lon="7.02809"><ele></ele><time>2016-9-26T0:7:0Z</time></trkpt>
<trkpt lat="46.25479" lon="7.02807"><ele></ele><time>2016-9-26T0:7:3Z</time></trkpt>
<trkpt lat="46.25481" lon="7.02805"><ele></ele><time>2016-9-26T0:7:6Z</time></trkpt>
<trkpt lat="46.25483" lon="7.02802"><ele></ele><time>2016-9-26T0:7:9Z</time></trkpt>
<trkpt lat="46.25485" lon="7.028"><ele></ele><time>2016-9-26T0:7:12Z</time></trkpt>
<trkpt lat="46.25487" lon="7.02798"><ele></ele><time>2016-9-26T0:7:15Z</time></trkpt>
<trkpt lat="46.25488" lon="7.02796"><ele></ele><time>2016-9-26T0:7:18Z</time></trkpt>
<trkpt lat="46.2549" lon="7.02793"><ele></ele><time>2016-9-26T0:7:21Z</time></trkpt>
<trkpt lat="46.25492" lon="7.02791"><ele></ele><time>2016-9-26T0:7:24Z</time></trkpt>
<trkpt lat="46.25494" lon="7.02789"><ele></ele><time>2016-9-26T0:7:27Z</time></trkpt>
<trkpt lat="46.25495" lon="7.02787"><ele></ele><time>2016-9-26T0:7:30Z</time></trkpt>
<trkpt lat="46.25495" lon="7.02783"><ele></ele><time>2016-9-26T0:7:33Z</time></trkpt>
<trkpt lat="46.25496" lon="7.02776"><ele></ele><time>2016-9-26T0:7:36Z</time></trkpt>
<trkpt lat="46.25497" lon="7.02769"><ele></ele><time>2016-9-26T0:7:39Z</time></trkpt>
<trkpt lat="46.25498" lon="7.02762"><ele></ele><time>2016-9-26T0:7:42Z</time></trkpt>
<trkpt lat="46.25499" lon="7.02754"><ele></ele><time>2016-9-26T0:7:45Z</time></trkpt>
<trkpt lat="46.255" lon="7.02747"><ele></ele><time>2016-9-26T0:7:48Z</time></trkpt>
<trkpt lat="46.25501" lon="7.0274"><ele></ele><time>2016-9-26T0:7:51Z</time></trkpt>
<trkpt lat="46.25502" lon="7.02733"><ele></ele><time>2016-9-26T0:7:54Z</time></trkpt>
<trkpt lat="46.25503" lon="7.02726"><ele></ele><time>2016-9-26T0:7:57Z</time></trkpt>
<trkpt lat="46.25503" lon="7.02722"><ele></ele><time>2016-9-26T0:8:0Z</time></trkpt>
<trkpt lat="46.25503" lon="7.02719"><ele></ele><time>2016-9-26T0:8:3Z</time></trkpt>
<trkpt lat="46.25504" lon="7.02713"><ele></ele><time>2016-9-26T0:8:6Z</time></trkpt>
<trkpt lat="46.25504" lon="7.02707"><ele></ele><time>2016-9-26T0:8:9Z</time></trkpt>
<trkpt lat="46.25504" lon="7.02701"><ele></ele><time>2016-9-26T0:8:12Z</time></trkpt>
<trkpt lat="46.25505" lon="7.02695"><ele></ele><time>2016-9-26T0:8:15Z</time></trkpt>
<trkpt lat="46.25504" lon="7.02692"><ele></ele><time>2016-9-26T0:8:18Z</time></trkpt>
<trkpt lat="46.25502" lon="7.02687"><ele></ele><time>2016-9-26T0:8:21Z</time></trkpt>
<trkpt lat="46.25497" lon="7.02678"><ele></ele><time>2016-9-26T0:8:24Z</time></trkpt>
<trkpt lat="46.25491" lon="7.0267"><ele></ele><time>2016-9-26T0:8:27Z</time></trkpt>
<trkpt lat="46.25487" lon="7.02666"><ele></ele><time>2016-9-26T0:8:30Z</time></trkpt>
<trkpt lat="46.25482" lon="7.02663"><ele></ele><time>2016-9-26T0:8:33Z</time></trkpt>
<trkpt lat="46.25472" lon="7.02656"><ele></ele><time>2016-9-26T0:8:36Z</time></trkpt>
<trkpt lat="46.25468" lon="7.02652"><ele></ele><time>2016-9-26T0:8:39Z</time></trkpt>
<trkpt lat="46.25465" lon="7.02644"><ele></ele><time>2016-9-26T0:8:42Z</time></trkpt>
<trkpt lat="46.2546" lon="7.0263"><ele></ele><time>2016-9-26T0:8:45Z</time></trkpt>
<trkpt lat="46.25454" lon="7.02615"><ele></ele><time>2016-9-26T0:8:48Z</time></trkpt>
<trkpt lat="46.25449" lon="7.02601"><ele></ele><time>2016-9-26T0:8:51Z</time></trkpt>
<trkpt lat="46.25446" lon="7.02594"><ele></ele><time>2016-9-26T0:8:54Z</time></trkpt>
<trkpt lat="46.25443" lon="7.02587"><ele></ele><time>2016-9-26T0:8:57Z</time></trkpt>
<trkpt lat="46.25436" lon="7.02574"><ele></ele><time>2016-9-26T0:9:0Z</time></trkpt>
<trkpt lat="46.2543" lon="7.02561"><ele></ele><time>2016-9-26T0:9:3Z</time></trkpt>
<trkpt lat="46.25424" lon="7.02548"><ele></ele><time>2016-9-26T0:9:6Z</time></trkpt>
<trkpt lat="46.25417" lon="7.02536"><ele></ele><time>2016-9-26T0:9:9Z</time></trkpt>
<trkpt lat="46.25405" lon="7.02531"><ele></ele><time>2016-9-26T0:9:12Z</time></trkpt>
<trkpt lat="46.25399" lon="7.02528"><ele></ele><time>2016-9-26T0:9:15Z</time></trkpt>
<trkpt lat="46.25392" lon="7.0252"><ele></ele><time>2016-9-26T0:9:18Z</time></trkpt>
<trkpt lat="46.25378" lon="7.02506"><ele></ele><time>2016-9-26T0:9:21Z</time></trkpt>
<trkpt lat="46.25372" lon="7.02499"><ele></ele><time>2016-9-26T0:9:24Z</time></trkpt>
<trkpt lat="46.25365" lon="7.0249"><ele></ele><time>2016-9-26T0:9:27Z</time></trkpt>
<trkpt lat="46.25354" lon="7.02467"><ele></ele><time>2016-9-26T0:9:30Z</time></trkpt>
<trkpt lat="46.25342" lon="7.02443"><ele></ele><time>2016-9-26T0:9:33Z</time></trkpt>
<trkpt lat="46.25336" lon="7.02432"><ele></ele><time>2016-9-26T0:9:36Z</time></trkpt>
<trkpt lat="46.25331" lon="7.02421"><ele></ele><time>2016-9-26T0:9:39Z</time></trkpt>
<trkpt lat="46.2532" lon="7.024"><ele></ele><time>2016-9-26T0:9:42Z</time></trkpt>
<trkpt lat="46.25315" lon="7.02389"><ele></ele><time>2016-9-26T0:9:45Z</time></trkpt>
<trkpt lat="46.25315" lon="7.02377"><ele></ele><time>2016-9-26T0:9:48Z</time></trkpt>
<trkpt lat="46.25315" lon="7.02352"><ele></ele><time>2016-9-26T0:9:51Z</time></trkpt>
<trkpt lat="46.25315" lon="7.02328"><ele></ele><time>2016-9-26T0:9:54Z</time></trkpt>
<trkpt lat="46.25314" lon="7.02315"><ele></ele><time>2016-9-26T0:9:57Z</time></trkpt>
<trkpt lat="46.25312" lon="7.02302"><ele></ele><time>2016-9-26T0:10:0Z</time></trkpt>
<trkpt lat="46.25309" lon="7.02289"><ele></ele><time>2016-9-26T0:10:3Z</time></trkpt>
<trkpt lat="46.25305" lon="7.02279"><ele></ele><time>2016-9-26T0:10:6Z</time></trkpt>
<trkpt lat="46.25295" lon="7.02258"><ele></ele><time>2016-9-26T0:10:9Z</time></trkpt>
<trkpt lat="46.25281" lon="7.02241"><ele></ele><time>2016-9-26T0:10:12Z</time></trkpt>
<trkpt lat="46.25267" lon="7.02224"><ele></ele><time>2016-9-26T0:10:15Z</time></trkpt>
<trkpt lat="46.2526" lon="7.02216"><ele></ele><time>2016-9-26T0:10:18Z</time></trkpt>
<trkpt lat="46.25253" lon="7.02211"><ele></ele><time>2016-9-26T0:10:21Z</time></trkpt>
<trkpt lat="46.25247" lon="7.02205"><ele></ele><time>2016-9-26T0:10:24Z</time></trkpt>
<trkpt lat="46.25242" lon="7.02202"><ele></ele><time>2016-9-26T0:10:27Z</time></trkpt>
<trkpt lat="46.25237" lon="7.02207"><ele></ele><time>2016-9-26T0:10:30Z</time></trkpt>
<trkpt lat="46.25232" lon="7.02211"><ele></ele><time>2016-9-26T0:10:33Z</time></trkpt>
<trkpt lat="46.25228" lon="7.02216"><ele></ele><time>2016-9-26T0:10:36Z</time></trkpt>
<trkpt lat="46.25224" lon="7.02217"><ele></ele><time>2016-9-26T0:10:39Z</time></trkpt>
<trkpt lat="46.25218" lon="7.02213"><ele></ele><time>2016-9-26T0:10:42Z</time></trkpt>
<trkpt lat="46.25206" lon="7.02207"><ele></ele><time>2016-9-26T0:10:45Z</time></trkpt>
<trkpt lat="46.25199" lon="7.02204"><ele></ele><time>2016-9-26T0:10:48Z</time></trkpt>
<trkpt lat="46.25193" lon="7.02201"><ele></ele><time>2016-9-26T0:10:51Z</time></trkpt>
<trkpt lat="46.2518" lon="7.02195"><ele></ele><time>2016-9-26T0:10:54Z</time></trkpt>
<trkpt lat="46.25162" lon="7.02189"><ele></ele><time>2016-9-26T0:10:57Z</time></trkpt>
<trkpt lat="46.25145" lon="7.02182"><ele></ele><time>2016-9-26T0:11:0Z</time></trkpt>
<trkpt lat="46.25131" lon="7.02167"><ele></ele><time>2016-9-26T0:11:3Z</time></trkpt>
<trkpt lat="46.25118" lon="7.02152"><ele></ele><time>2016-9-26T0:11:6Z</time></trkpt>
<trkpt lat="46.25104" lon="7.02138"><ele></ele><time>2016-9-26T0:11:9Z</time></trkpt>
<trkpt lat="46.25093" lon="7.02125"><ele></ele><time>2016-9-26T0:11:12Z</time></trkpt>
<trkpt lat="46.25081" lon="7.02114"><ele></ele><time>2016-9-26T0:11:15Z</time></trkpt>
<trkpt lat="46.25072" lon="7.02113"><ele></ele><time>2016-9-26T0:11:18Z</time></trkpt>
<trkpt lat="46.25068" lon="7.0211"><ele></ele><time>2016-9-26T0:11:21Z</time></trkpt>
<trkpt lat="46.25066" lon="7.02104"><ele></ele><time>2016-9-26T0:11:24Z</time></trkpt>
<trkpt lat="46.25061" lon="7.0209"><ele></ele><time>2016-9-26T0:11:27Z</time></trkpt>
<trkpt lat="46.25057" lon="7.02077"><ele></ele><time>2016-9-26T0:11:30Z</time></trkpt>
<trkpt lat="46.25057" lon="7.0206"><ele></ele><time>2016-9-26T0:11:33Z</time></trkpt>
<trkpt lat="46.25061" lon="7.02042"><ele></ele><time>2016-9-26T0:11:36Z</time></trkpt>
<trkpt lat="46.25065" lon="7.02024"><ele></ele><time>2016-9-26T0:11:39Z</time></trkpt>
<trkpt lat="46.25067" lon="7.02017"><ele></ele><time>2016-9-26T0:11:42Z</time></trkpt>
<trkpt lat="46.25072" lon="7.02016"><ele></ele><time>2016-9-26T0:11:45Z</time></trkpt>
<trkpt lat="46.2508" lon="7.02015"><ele></ele><time>2016-9-26T0:11:48Z</time></trkpt>
<trkpt lat="46.25084" lon="7.02014"><ele></ele><time>2016-9-26T0:11:51Z</time></trkpt>
<trkpt lat="46.25086" lon="7.02015"><ele></ele><time>2016-9-26T0:11:54Z</time></trkpt>
<trkpt lat="46.2509" lon="7.02018"><ele></ele><time>2016-9-26T0:11:57Z</time></trkpt>
<trkpt lat="46.25094" lon="7.02021"><ele></ele><time>2016-9-26T0:12:0Z</time></trkpt>
<trkpt lat="46.25099" lon="7.02023"><ele></ele><time>2016-9-26T0:12:3Z</time></trkpt>
<trkpt lat="46.25103" lon="7.02026"><ele></ele><time>2016-9-26T0:12:6Z</time></trkpt>
<trkpt lat="46.25107" lon="7.02028"><ele></ele><time>2016-9-26T0:12:9Z</time></trkpt>
<trkpt lat="46.25112" lon="7.02031"><ele></ele><time>2016-9-26T0:12:12Z</time></trkpt>
<trkpt lat="46.25116" lon="7.02033"><ele></ele><time>2016-9-26T0:12:15Z</time></trkpt>
<trkpt lat="46.2512" lon="7.02036"><ele></ele><time>2016-9-26T0:12:18Z</time></trkpt>
<trkpt lat="46.25125" lon="7.02038"><ele></ele><time>2016-9-26T0:12:21Z</time></trkpt>
<trkpt lat="46.25126" lon="7.0204"><ele></ele><time>2016-9-26T0:12:24Z</time></trkpt>
<trkpt lat="46.25127" lon="7.02042"><ele></ele><time>2016-9-26T0:12:27Z</time></trkpt>
<trkpt lat="46.25129" lon="7.02046"><ele></ele><time>2016-9-26T0:12:30Z</time></trkpt>
<trkpt lat="46.25131" lon="7.02049"><ele></ele><time>2016-9-26T0:12:33Z</time></trkpt>
<trkpt lat="46.25133" lon="7.02053"><ele></ele><time>2016-9-26T0:12:36Z</time></trkpt>
<trkpt lat="46.25135" lon="7.02057"><ele></ele><time>2016-9-26T0:12:39Z</time></trkpt>
<trkpt lat="46.25137" lon="7.02061"><ele></ele><time>2016-9-26T0:12:42Z</time></trkpt>
<trkpt lat="46.25139" lon="7.02065"><ele></ele><time>2016-9-26T0:12:45Z</time></trkpt>
<trkpt lat="46.25141" lon="7.02068"><ele></ele><time>2016-9-26T0:12:48Z</time></trkpt>
<trkpt lat="46.25143" lon="7.02072"><ele></ele><time>2016-9-26T0:12:51Z</time></trkpt>
<trkpt lat="46.25145" lon="7.02076"><ele></ele><time>2016-9-26T0:12:54Z</time></trkpt>
<trkpt lat="46.25147" lon="7.0208"><ele></ele><time>2016-9-26T0:12:57Z</time></trkpt>
<trkpt lat="46.25149" lon="7.02084"><ele></ele><time>2016-9-26T0:13:0Z</time></trkpt>
<trkpt lat="46.25151" lon="7.02087"><ele></ele><time>2016-9-26T0:13:3Z</time></trkpt>
<trkpt lat="46.25153" lon="7.02091"><ele></ele><time>2016-9-26T0:13:6Z</time></trkpt>
<trkpt lat="46.25154" lon="7.02093"><ele></ele><time>2016-9-26T0:13:9Z</time></trkpt>
<trkpt lat="46.25156" lon="7.02092"><ele></ele><time>2016-9-26T0:13:12Z</time></trkpt>
<trkpt lat="46.25159" lon="7.02091"><ele></ele><time>2016-9-26T0:13:15Z</time></trkpt>
<trkpt lat="46.25162" lon="7.02091"><ele></ele><time>2016-9-26T0:13:18Z</time></trkpt>
<trkpt lat="46.25164" lon="7.0209"><ele></ele><time>2016-9-26T0:13:21Z</time></trkpt>
<trkpt lat="46.25165" lon="7.0209"><ele></ele><time>2016-9-26T0:13:24Z</time></trkpt>
<trkpt lat="46.25168" lon="7.02089"><ele></ele><time>2016-9-26T0:13:27Z</time></trkpt>
<trkpt lat="46.25172" lon="7.02088"><ele></ele><time>2016-9-26T0:13:30Z</time></trkpt>
<trkpt lat="46.25175" lon="7.02087"><ele></ele><time>2016-9-26T0:13:33Z</time></trkpt>
<trkpt lat="46.25178" lon="7.02087"><ele></ele><time>2016-9-26T0:13:36Z</time></trkpt>
<trkpt lat="46.25181" lon="7.02086"><ele></ele><time>2016-9-26T0:13:39Z</time></trkpt>
<trkpt lat="46.25184" lon="7.02085"><ele></ele><time>2016-9-26T0:13:42Z</time></trkpt>
<trkpt lat="46.25187" lon="7.02084"><ele></ele><time>2016-9-26T0:13:45Z</time></trkpt>
<trkpt lat="46.2519" lon="7.02083"><ele></ele><time>2016-9-26T0:13:48Z</time></trkpt>
<trkpt lat="46.25193" lon="7.02083"><ele></ele><time>2016-9-26T0:13:51Z</time></trkpt>
<trkpt lat="46.25197" lon="7.02082"><ele></ele><time>2016-9-26T0:13:54Z</time></trkpt>
<trkpt lat="46.25198" lon="7.02081"><ele></ele><time>2016-9-26T0:13:57Z</time></trkpt>
<trkpt lat="46.252" lon="7.02081"><ele></ele><time>2016-9-26T0:14:0Z</time></trkpt>
<trkpt lat="46.25203" lon="7.02079"><ele></ele><time>2016-9-26T0:14:3Z</time></trkpt>
<trkpt lat="46.25207" lon="7.02077"><ele></ele><time>2016-9-26T0:14:6Z</time></trkpt>
<trkpt lat="46.25211" lon="7.02075"><ele></ele><time>2016-9-26T0:14:9Z</time></trkpt>
<trkpt lat="46.25214" lon="7.02073"><ele></ele><time>2016-9-26T0:14:12Z</time></trkpt>
<trkpt lat="46.25218" lon="7.02071"><ele></ele><time>2016-9-26T0:14:15Z</time></trkpt>
<trkpt lat="46.25221" lon="7.0207"><ele></ele><time>2016-9-26T0:14:18Z</time></trkpt>
<trkpt lat="46.25225" lon="7.02068"><ele></ele><time>2016-9-26T0:14:21Z</time></trkpt>
<trkpt lat="46.25227" lon="7.02067"><ele></ele><time>2016-9-26T0:14:24Z</time></trkpt>
<trkpt lat="46.25228" lon="7.02066"><ele></ele><time>2016-9-26T0:14:27Z</time></trkpt>
<trkpt lat="46.25232" lon="7.02064"><ele></ele><time>2016-9-26T0:14:30Z</time></trkpt>
<trkpt lat="46.25236" lon="7.02062"><ele></ele><time>2016-9-26T0:14:33Z</time></trkpt>
<trkpt lat="46.25239" lon="7.0206"><ele></ele><time>2016-9-26T0:14:36Z</time></trkpt>
<trkpt lat="46.25238" lon="7.02055"><ele></ele><time>2016-9-26T0:14:39Z</time></trkpt>
<trkpt lat="46.25237" lon="7.02049"><ele></ele><time>2016-9-26T0:14:42Z</time></trkpt>
<trkpt lat="46.25236" lon="7.02044"><ele></ele><time>2016-9-26T0:14:45Z</time></trkpt>
<trkpt lat="46.25236" lon="7.02039"><ele></ele><time>2016-9-26T0:14:48Z</time></trkpt>
<trkpt lat="46.25235" lon="7.02034"><ele></ele><time>2016-9-26T0:14:51Z</time></trkpt>
<trkpt lat="46.25234" lon="7.02028"><ele></ele><time>2016-9-26T0:14:54Z</time></trkpt>
<trkpt lat="46.25233" lon="7.02023"><ele></ele><time>2016-9-26T0:14:57Z</time></trkpt>
<trkpt lat="46.25233" lon="7.02018"><ele></ele><time>2016-9-26T0:15:0Z</time></trkpt>
<trkpt lat="46.25232" lon="7.02013"><ele></ele><time>2016-9-26T0:15:3Z</time></trkpt>
<trkpt lat="46.25232" lon="7.0201"><ele></ele><time>2016-9-26T0:15:6Z</time></trkpt>
<trkpt lat="46.25233" lon="7.02008"><ele></ele><time>2016-9-26T0:15:9Z</time></trkpt>
<trkpt lat="46.25235" lon="7.02004"><ele></ele><time>2016-9-26T0:15:12Z</time></trkpt>
<trkpt lat="46.25237" lon="7.02"><ele></ele><time>2016-9-26T0:15:15Z</time></trkpt>
<trkpt lat="46.25239" lon="7.01996"><ele></ele><time>2016-9-26T0:15:18Z</time></trkpt>
<trkpt lat="46.2524" lon="7.01994"><ele></ele><time>2016-9-26T0:15:21Z</time></trkpt>
<trkpt lat="46.25241" lon="7.01992"><ele></ele><time>2016-9-26T0:15:24Z</time></trkpt>
<trkpt lat="46.25243" lon="7.01988"><ele></ele><time>2016-9-26T0:15:27Z</time></trkpt>
<trkpt lat="46.25245" lon="7.01984"><ele></ele><time>2016-9-26T0:15:30Z</time></trkpt>
<trkpt lat="46.25248" lon="7.0198"><ele></ele><time>2016-9-26T0:15:33Z</time></trkpt>
<trkpt lat="46.2525" lon="7.01976"><ele></ele><time>2016-9-26T0:15:36Z</time></trkpt>
<trkpt lat="46.25252" lon="7.01972"><ele></ele><time>2016-9-26T0:15:39Z</time></trkpt>
<trkpt lat="46.25254" lon="7.01968"><ele></ele><time>2016-9-26T0:15:42Z</time></trkpt>
<trkpt lat="46.25256" lon="7.01964"><ele></ele><time>2016-9-26T0:15:45Z</time></trkpt>
<trkpt lat="46.25258" lon="7.0196"><ele></ele><time>2016-9-26T0:15:48Z</time></trkpt>
<trkpt lat="46.25259" lon="7.01958"><ele></ele><time>2016-9-26T0:15:51Z</time></trkpt>
<trkpt lat="46.25259" lon="7.01955"><ele></ele><time>2016-9-26T0:15:54Z</time></trkpt>
<trkpt lat="46.2526" lon="7.0195"><ele></ele><time>2016-9-26T0:15:57Z</time></trkpt>
<trkpt lat="46.2526" lon="7.01944"><ele></ele><time>2016-9-26T0:16:0Z</time></trkpt>
<trkpt lat="46.25261" lon="7.01939"><ele></ele><time>2016-9-26T0:16:3Z</time></trkpt>
<trkpt lat="46.25261" lon="7.01933"><ele></ele><time>2016-9-26T0:16:6Z</time></trkpt>
<trkpt lat="46.25262" lon="7.01927"><ele></ele><time>2016-9-26T0:16:9Z</time></trkpt>
<trkpt lat="46.25263" lon="7.01922"><ele></ele><time>2016-9-26T0:16:12Z</time></trkpt>
<trkpt lat="46.25263" lon="7.01916"><ele></ele><time>2016-9-26T0:16:15Z</time></trkpt>
<trkpt lat="46.25261" lon="7.01912"><ele></ele><time>2016-9-26T0:16:18Z</time></trkpt>
<trkpt lat="46.25259" lon="7.01907"><ele></ele><time>2016-9-26T0:16:21Z</time></trkpt>
<trkpt lat="46.25257" lon="7.01902"><ele></ele><time>2016-9-26T0:16:24Z</time></trkpt>
<trkpt lat="46.25255" lon="7.01897"><ele></ele><time>2016-9-26T0:16:27Z</time></trkpt>
<trkpt lat="46.25253" lon="7.01893"><ele></ele><time>2016-9-26T0:16:30Z</time></trkpt>
<trkpt lat="46.25251" lon="7.01888"><ele></ele><time>2016-9-26T0:16:33Z</time></trkpt>
<trkpt lat="46.25249" lon="7.01883"><ele></ele><time>2016-9-26T0:16:36Z</time></trkpt>
<trkpt lat="46.25247" lon="7.01878"><ele></ele><time>2016-9-26T0:16:39Z</time></trkpt>
<trkpt lat="46.25246" lon="7.01874"><ele></ele><time>2016-9-26T0:16:42Z</time></trkpt>
<trkpt lat="46.25244" lon="7.01869"><ele></ele><time>2016-9-26T0:16:45Z</time></trkpt>
<trkpt lat="46.25242" lon="7.01864"><ele></ele><time>2016-9-26T0:16:48Z</time></trkpt>
<trkpt lat="46.2524" lon="7.0186"><ele></ele><time>2016-9-26T0:16:51Z</time></trkpt>
<trkpt lat="46.25239" lon="7.01855"><ele></ele><time>2016-9-26T0:16:54Z</time></trkpt>
<trkpt lat="46.25238" lon="7.01851"><ele></ele><time>2016-9-26T0:16:57Z</time></trkpt>
<trkpt lat="46.25238" lon="7.01847"><ele></ele><time>2016-9-26T0:17:0Z</time></trkpt>
<trkpt lat="46.25242" lon="7.01846"><ele></ele><time>2016-9-26T0:17:3Z</time></trkpt>
<trkpt lat="46.25245" lon="7.01845"><ele></ele><time>2016-9-26T0:17:6Z</time></trkpt>
<trkpt lat="46.25249" lon="7.01844"><ele></ele><time>2016-9-26T0:17:9Z</time></trkpt>
<trkpt lat="46.25252" lon="7.01843"><ele></ele><time>2016-9-26T0:17:12Z</time></trkpt>
<trkpt lat="46.25255" lon="7.01843"><ele></ele><time>2016-9-26T0:17:15Z</time></trkpt>
<trkpt lat="46.25257" lon="7.01842"><ele></ele><time>2016-9-26T0:17:18Z</time></trkpt>
<trkpt lat="46.25259" lon="7.01842"><ele></ele><time>2016-9-26T0:17:21Z</time></trkpt>
<trkpt lat="46.25262" lon="7.01841"><ele></ele><time>2016-9-26T0:17:24Z</time></trkpt>
<trkpt lat="46.25266" lon="7.0184"><ele></ele><time>2016-9-26T0:17:27Z</time></trkpt>
<trkpt lat="46.25269" lon="7.0184"><ele></ele><time>2016-9-26T0:17:30Z</time></trkpt>
<trkpt lat="46.25273" lon="7.01839"><ele></ele><time>2016-9-26T0:17:33Z</time></trkpt>
<trkpt lat="46.25276" lon="7.01838"><ele></ele><time>2016-9-26T0:17:36Z</time></trkpt>
<trkpt lat="46.2528" lon="7.01837"><ele></ele><time>2016-9-26T0:17:39Z</time></trkpt>
<trkpt lat="46.25283" lon="7.01837"><ele></ele><time>2016-9-26T0:17:42Z</time></trkpt>
<trkpt lat="46.25286" lon="7.01838"><ele></ele><time>2016-9-26T0:17:45Z</time></trkpt>
<trkpt lat="46.25288" lon="7.01839"><ele></ele><time>2016-9-26T0:17:48Z</time></trkpt>
<trkpt lat="46.25289" lon="7.0184"><ele></ele><time>2016-9-26T0:17:51Z</time></trkpt>
<trkpt lat="46.25292" lon="7.01842"><ele></ele><time>2016-9-26T0:17:54Z</time></trkpt>
<trkpt lat="46.25296" lon="7.01843"><ele></ele><time>2016-9-26T0:17:57Z</time></trkpt>
<trkpt lat="46.25299" lon="7.01845"><ele></ele><time>2016-9-26T0:18:0Z</time></trkpt>
<trkpt lat="46.25302" lon="7.01847"><ele></ele><time>2016-9-26T0:18:3Z</time></trkpt>
<trkpt lat="46.25305" lon="7.01849"><ele></ele><time>2016-9-26T0:18:6Z</time></trkpt>
<trkpt lat="46.25308" lon="7.0185"><ele></ele><time>2016-9-26T0:18:9Z</time></trkpt>
<trkpt lat="46.25311" lon="7.01852"><ele></ele><time>2016-9-26T0:18:12Z</time></trkpt>
<trkpt lat="46.25314" lon="7.01854"><ele></ele><time>2016-9-26T0:18:15Z</time></trkpt>
<trkpt lat="46.25317" lon="7.01855"><ele></ele><time>2016-9-26T0:18:18Z</time></trkpt>
<trkpt lat="46.25321" lon="7.01857"><ele></ele><time>2016-9-26T0:18:21Z</time></trkpt>
<trkpt lat="46.25324" lon="7.01859"><ele></ele><time>2016-9-26T0:18:24Z</time></trkpt>
<trkpt lat="46.25327" lon="7.0186"><ele></ele><time>2016-9-26T0:18:27Z</time></trkpt>
<trkpt lat="46.25331" lon="7.0186"><ele></ele><time>2016-9-26T0:18:30Z</time></trkpt>
<trkpt lat="46.25334" lon="7.01859"><ele></ele><time>2016-9-26T0:18:33Z</time></trkpt>
<trkpt lat="46.25338" lon="7.01859"><ele></ele><time>2016-9-26T0:18:36Z</time></trkpt>
<trkpt lat="46.25342" lon="7.01858"><ele></ele><time>2016-9-26T0:18:39Z</time></trkpt>
<trkpt lat="46.25346" lon="7.01858"><ele></ele><time>2016-9-26T0:18:42Z</time></trkpt>
<trkpt lat="46.25349" lon="7.01857"><ele></ele><time>2016-9-26T0:18:45Z</time></trkpt>
<trkpt lat="46.25353" lon="7.01857"><ele></ele><time>2016-9-26T0:18:48Z</time></trkpt>
<trkpt lat="46.25357" lon="7.01856"><ele></ele><time>2016-9-26T0:18:51Z</time></trkpt>
<trkpt lat="46.2536" lon="7.01856"><ele></ele><time>2016-9-26T0:18:54Z</time></trkpt>
<trkpt lat="46.25364" lon="7.01855"><ele></ele><time>2016-9-26T0:18:57Z</time></trkpt>
<trkpt lat="46.25368" lon="7.01855"><ele></ele><time>2016-9-26T0:19:0Z</time></trkpt>
<trkpt lat="46.25372" lon="7.01855"><ele></ele><time>2016-9-26T0:19:3Z</time></trkpt>
<trkpt lat="46.25375" lon="7.01857"><ele></ele><time>2016-9-26T0:19:6Z</time></trkpt>
<trkpt lat="46.25378" lon="7.0186"><ele></ele><time>2016-9-26T0:19:9Z</time></trkpt>
<trkpt lat="46.25381" lon="7.01862"><ele></ele><time>2016-9-26T0:19:12Z</time></trkpt>
<trkpt lat="46.25383" lon="7.01863"><ele></ele><time>2016-9-26T0:19:15Z</time></trkpt>
<trkpt lat="46.25385" lon="7.01865"><ele></ele><time>2016-9-26T0:19:18Z</time></trkpt>
<trkpt lat="46.25388" lon="7.01867"><ele></ele><time>2016-9-26T0:19:21Z</time></trkpt>
<trkpt lat="46.25391" lon="7.0187"><ele></ele><time>2016-9-26T0:19:24Z</time></trkpt>
<trkpt lat="46.25394" lon="7.01872"><ele></ele><time>2016-9-26T0:19:27Z</time></trkpt>
<trkpt lat="46.25397" lon="7.01874"><ele></ele><time>2016-9-26T0:19:30Z</time></trkpt>
<trkpt lat="46.25401" lon="7.01877"><ele></ele><time>2016-9-26T0:19:33Z</time></trkpt>
<trkpt lat="46.25404" lon="7.01879"><ele></ele><time>2016-9-26T0:19:36Z</time></trkpt>
<trkpt lat="46.25407" lon="7.01882"><ele></ele><time>2016-9-26T0:19:39Z</time></trkpt>
<trkpt lat="46.2541" lon="7.01884"><ele></ele><time>2016-9-26T0:19:42Z</time></trkpt>
<trkpt lat="46.25412" lon="7.01886"><ele></ele><time>2016-9-26T0:19:45Z</time></trkpt>
<trkpt lat="46.25413" lon="7.01887"><ele></ele><time>2016-9-26T0:19:48Z</time></trkpt>
<trkpt lat="46.25414" lon="7.01891"><ele></ele><time>2016-9-26T0:19:51Z</time></trkpt>
<trkpt lat="46.25416" lon="7.01895"><ele></ele><time>2016-9-26T0:19:54Z</time></trkpt>
<trkpt lat="46.25418" lon="7.01899"><ele></ele><time>2016-9-26T0:19:57Z</time></trkpt>
<trkpt lat="46.25419" lon="7.01903"><ele></ele><time>2016-9-26T0:20:0Z</time></trkpt>
<trkpt lat="46.25421" lon="7.01907"><ele></ele><time>2016-9-26T0:20:3Z</time></trkpt>
<trkpt lat="46.25422" lon="7.0191"><ele></ele><time>2016-9-26T0:20:6Z</time></trkpt>
<trkpt lat="46.25424" lon="7.01914"><ele></ele><time>2016-9-26T0:20:9Z</time></trkpt>
<trkpt lat="46.25426" lon="7.01917"><ele></ele><time>2016-9-26T0:20:12Z</time></trkpt>
<trkpt lat="46.25429" lon="7.01916"><ele></ele><time>2016-9-26T0:20:15Z</time></trkpt>
<trkpt lat="46.25431" lon="7.01915"><ele></ele><time>2016-9-26T0:20:18Z</time></trkpt>
<trkpt lat="46.25433" lon="7.01914"><ele></ele><time>2016-9-26T0:20:21Z</time></trkpt>
<trkpt lat="46.25436" lon="7.01913"><ele></ele><time>2016-9-26T0:20:24Z</time></trkpt>
<trkpt lat="46.2544" lon="7.01911"><ele></ele><time>2016-9-26T0:20:27Z</time></trkpt>
<trkpt lat="46.25443" lon="7.0191"><ele></ele><time>2016-9-26T0:20:30Z</time></trkpt>
<trkpt lat="46.25447" lon="7.01908"><ele></ele><time>2016-9-26T0:20:33Z</time></trkpt>
<trkpt lat="46.2545" lon="7.01907"><ele></ele><time>2016-9-26T0:20:36Z</time></trkpt>
<trkpt lat="46.25453" lon="7.01905"><ele></ele><time>2016-9-26T0:20:39Z</time></trkpt>
<trkpt lat="46.25457" lon="7.01904"><ele></ele><time>2016-9-26T0:20:42Z</time></trkpt>
<trkpt lat="46.2546" lon="7.01902"><ele></ele><time>2016-9-26T0:20:45Z</time></trkpt>
<trkpt lat="46.25464" lon="7.01901"><ele></ele><time>2016-9-26T0:20:48Z</time></trkpt>
<trkpt lat="46.25467" lon="7.01899"><ele></ele><time>2016-9-26T0:20:51Z</time></trkpt>
<trkpt lat="46.25469" lon="7.01899"><ele></ele><time>2016-9-26T0:20:54Z</time></trkpt>
<trkpt lat="46.2547" lon="7.01898"><ele></ele><time>2016-9-26T0:20:57Z</time></trkpt>
<trkpt lat="46.25473" lon="7.01894"><ele></ele><time>2016-9-26T0:21:0Z</time></trkpt>
<trkpt lat="46.25476" lon="7.01891"><ele></ele><time>2016-9-26T0:21:3Z</time></trkpt>
<trkpt lat="46.25478" lon="7.01888"><ele></ele><time>2016-9-26T0:21:6Z</time></trkpt>
<trkpt lat="46.25481" lon="7.01885"><ele></ele><time>2016-9-26T0:21:9Z</time></trkpt>
<trkpt lat="46.25484" lon="7.01881"><ele></ele><time>2016-9-26T0:21:12Z</time></trkpt>
<trkpt lat="46.25486" lon="7.01878"><ele></ele><time>2016-9-26T0:21:15Z</time></trkpt>
<trkpt lat="46.25489" lon="7.01875"><ele></ele><time>2016-9-26T0:21:18Z</time></trkpt>
<trkpt lat="46.25492" lon="7.01871"><ele></ele><time>2016-9-26T0:21:21Z</time></trkpt>
<trkpt lat="46.25494" lon="7.01868"><ele></ele><time>2016-9-26T0:21:24Z</time></trkpt>
<trkpt lat="46.25497" lon="7.01865"><ele></ele><time>2016-9-26T0:21:27Z</time></trkpt>
<trkpt lat="46.25498" lon="7.01863"><ele></ele><time>2016-9-26T0:21:30Z</time></trkpt>
<trkpt lat="46.255" lon="7.01862"><ele></ele><time>2016-9-26T0:21:33Z</time></trkpt>
<trkpt lat="46.25502" lon="7.01858"><ele></ele><time>2016-9-26T0:21:36Z</time></trkpt>
<trkpt lat="46.25505" lon="7.01855"><ele></ele><time>2016-9-26T0:21:39Z</time></trkpt>
<trkpt lat="46.25505" lon="7.01851"><ele></ele><time>2016-9-26T0:21:42Z</time></trkpt>
<trkpt lat="46.25505" lon="7.01846"><ele></ele><time>2016-9-26T0:21:45Z</time></trkpt>
<trkpt lat="46.25505" lon="7.01842"><ele></ele><time>2016-9-26T0:21:48Z</time></trkpt>
<trkpt lat="46.25505" lon="7.01838"><ele></ele><time>2016-9-26T0:21:51Z</time></trkpt>
<trkpt lat="46.25505" lon="7.01833"><ele></ele><time>2016-9-26T0:21:54Z</time></trkpt>
<trkpt lat="46.25505" lon="7.01831"><ele></ele><time>2016-9-26T0:21:57Z</time></trkpt>
<trkpt lat="46.25505" lon="7.01829"><ele></ele><time>2016-9-26T0:22:0Z</time></trkpt>
<trkpt lat="46.25505" lon="7.01825"><ele></ele><time>2016-9-26T0:22:3Z</time></trkpt>
<trkpt lat="46.25505" lon="7.0182"><ele></ele><time>2016-9-26T0:22:6Z</time></trkpt>
<trkpt lat="46.25505" lon="7.01816"><ele></ele><time>2016-9-26T0:22:9Z</time></trkpt>
<trkpt lat="46.25505" lon="7.01812"><ele></ele><time>2016-9-26T0:22:12Z</time></trkpt>
<trkpt lat="46.25505" lon="7.01808"><ele></ele><time>2016-9-26T0:22:15Z</time></trkpt>
<trkpt lat="46.25505" lon="7.01803"><ele></ele><time>2016-9-26T0:22:18Z</time></trkpt>
<trkpt lat="46.25505" lon="7.01799"><ele></ele><time>2016-9-26T0:22:21Z</time></trkpt>
<trkpt lat="46.25505" lon="7.01795"><ele></ele><time>2016-9-26T0:22:24Z</time></trkpt>
<trkpt lat="46.25505" lon="7.0179"><ele></ele><time>2016-9-26T0:22:27Z</time></trkpt>
<trkpt lat="46.25504" lon="7.01788"><ele></ele><time>2016-9-26T0:22:30Z</time></trkpt>
<trkpt lat="46.25504" lon="7.01786"><ele></ele><time>2016-9-26T0:22:33Z</time></trkpt>
<trkpt lat="46.25504" lon="7.01783"><ele></ele><time>2016-9-26T0:22:36Z</time></trkpt>
<trkpt lat="46.25504" lon="7.01781"><ele></ele><time>2016-9-26T0:22:39Z</time></trkpt>
<trkpt lat="46.25504" lon="7.01776"><ele></ele><time>2016-9-26T0:22:42Z</time></trkpt>
<trkpt lat="46.25503" lon="7.01772"><ele></ele><time>2016-9-26T0:22:45Z</time></trkpt>
<trkpt lat="46.25503" lon="7.01767"><ele></ele><time>2016-9-26T0:22:48Z</time></trkpt>
<trkpt lat="46.25502" lon="7.01763"><ele></ele><time>2016-9-26T0:22:51Z</time></trkpt>
<trkpt lat="46.25502" lon="7.01758"><ele></ele><time>2016-9-26T0:22:54Z</time></trkpt>
<trkpt lat="46.25502" lon="7.01756"><ele></ele><time>2016-9-26T0:22:57Z</time></trkpt>
<trkpt lat="46.25502" lon="7.01753"><ele></ele><time>2016-9-26T0:23:0Z</time></trkpt>
<trkpt lat="46.25501" lon="7.01749"><ele></ele><time>2016-9-26T0:23:3Z</time></trkpt>
<trkpt lat="46.25501" lon="7.01744"><ele></ele><time>2016-9-26T0:23:6Z</time></trkpt>
<trkpt lat="46.255" lon="7.01739"><ele></ele><time>2016-9-26T0:23:9Z</time></trkpt>
<trkpt lat="46.255" lon="7.01735"><ele></ele><time>2016-9-26T0:23:12Z</time></trkpt>
<trkpt lat="46.255" lon="7.0173"><ele></ele><time>2016-9-26T0:23:15Z</time></trkpt>
<trkpt lat="46.25499" lon="7.01725"><ele></ele><time>2016-9-26T0:23:18Z</time></trkpt>
<trkpt lat="46.25499" lon="7.01723"><ele></ele><time>2016-9-26T0:23:21Z</time></trkpt>
<trkpt lat="46.25498" lon="7.0172"><ele></ele><time>2016-9-26T0:23:24Z</time></trkpt>
<trkpt lat="46.25496" lon="7.01713"><ele></ele><time>2016-9-26T0:23:27Z</time></trkpt>
<trkpt lat="46.25494" lon="7.01707"><ele></ele><time>2016-9-26T0:23:30Z</time></trkpt>
<trkpt lat="46.25493" lon="7.017"><ele></ele><time>2016-9-26T0:23:33Z</time></trkpt>
<trkpt lat="46.25491" lon="7.01694"><ele></ele><time>2016-9-26T0:23:36Z</time></trkpt>
<trkpt lat="46.25489" lon="7.01687"><ele></ele><time>2016-9-26T0:23:39Z</time></trkpt>
<trkpt lat="46.25487" lon="7.01681"><ele></ele><time>2016-9-26T0:23:42Z</time></trkpt>
<trkpt lat="46.25487" lon="7.01678"><ele></ele><time>2016-9-26T0:23:45Z</time></trkpt>
<trkpt lat="46.25486" lon="7.01675"><ele></ele><time>2016-9-26T0:23:48Z</time></trkpt>
<trkpt lat="46.25484" lon="7.01668"><ele></ele><time>2016-9-26T0:23:51Z</time></trkpt>
<trkpt lat="46.25482" lon="7.01662"><ele></ele><time>2016-9-26T0:23:54Z</time></trkpt>
<trkpt lat="46.25482" lon="7.01655"><ele></ele><time>2016-9-26T0:23:57Z</time></trkpt>
<trkpt lat="46.25481" lon="7.01647"><ele></ele><time>2016-9-26T0:24:0Z</time></trkpt>
<trkpt lat="46.25481" lon="7.0164"><ele></ele><time>2016-9-26T0:24:3Z</time></trkpt>
<trkpt lat="46.25481" lon="7.01637"><ele></ele><time>2016-9-26T0:24:6Z</time></trkpt>
<trkpt lat="46.2548" lon="7.01633"><ele></ele><time>2016-9-26T0:24:9Z</time></trkpt>
<trkpt lat="46.2548" lon="7.01626"><ele></ele><time>2016-9-26T0:24:12Z</time></trkpt>
<trkpt lat="46.2548" lon="7.01619"><ele></ele><time>2016-9-26T0:24:15Z</time></trkpt>
<trkpt lat="46.25479" lon="7.01612"><ele></ele><time>2016-9-26T0:24:18Z</time></trkpt>
<trkpt lat="46.25479" lon="7.01605"><ele></ele><time>2016-9-26T0:24:21Z</time></trkpt>
<trkpt lat="46.25478" lon="7.01598"><ele></ele><time>2016-9-26T0:24:24Z</time></trkpt>
<trkpt lat="46.25478" lon="7.01594"><ele></ele><time>2016-9-26T0:24:27Z</time></trkpt>
<trkpt lat="46.25478" lon="7.01591"><ele></ele><time>2016-9-26T0:24:30Z</time></trkpt>
<trkpt lat="46.25477" lon="7.01584"><ele></ele><time>2016-9-26T0:24:33Z</time></trkpt>
<trkpt lat="46.25477" lon="7.01577"><ele></ele><time>2016-9-26T0:24:36Z</time></trkpt>
<trkpt lat="46.25476" lon="7.0157"><ele></ele><time>2016-9-26T0:24:39Z</time></trkpt>
<trkpt lat="46.25476" lon="7.01563"><ele></ele><time>2016-9-26T0:24:42Z</time></trkpt>
<trkpt lat="46.25475" lon="7.01556"><ele></ele><time>2016-9-26T0:24:45Z</time></trkpt>
<trkpt lat="46.25475" lon="7.01548"><ele></ele><time>2016-9-26T0:24:48Z</time></trkpt>
<trkpt lat="46.25474" lon="7.01541"><ele></ele><time>2016-9-26T0:24:51Z</time></trkpt>
<trkpt lat="46.25474" lon="7.01534"><ele></ele><time>2016-9-26T0:24:54Z</time></trkpt>
<trkpt lat="46.25474" lon="7.01527"><ele></ele><time>2016-9-26T0:24:57Z</time></trkpt>
<trkpt lat="46.25474" lon="7.01521"><ele></ele><time>2016-9-26T0:25:0Z</time></trkpt>
<trkpt lat="46.25474" lon="7.01515"><ele></ele><time>2016-9-26T0:25:3Z</time></trkpt>
<trkpt lat="46.25474" lon="7.01508"><ele></ele><time>2016-9-26T0:25:6Z</time></trkpt>
<trkpt lat="46.25474" lon="7.01502"><ele></ele><time>2016-9-26T0:25:9Z</time></trkpt>
<trkpt lat="46.25474" lon="7.01496"><ele></ele><time>2016-9-26T0:25:12Z</time></trkpt>
<trkpt lat="46.25475" lon="7.01489"><ele></ele><time>2016-9-26T0:25:15Z</time></trkpt>
<trkpt lat="46.25475" lon="7.01483"><ele></ele><time>2016-9-26T0:25:18Z</time></trkpt>
<trkpt lat="46.25475" lon="7.0148"><ele></ele><time>2016-9-26T0:25:21Z</time></trkpt>
<trkpt lat="46.25475" lon="7.01477"><ele></ele><time>2016-9-26T0:25:24Z</time></trkpt>
<trkpt lat="46.25475" lon="7.0147"><ele></ele><time>2016-9-26T0:25:27Z</time></trkpt>
<trkpt lat="46.25475" lon="7.01464"><ele></ele><time>2016-9-26T0:25:30Z</time></trkpt>
<trkpt lat="46.25475" lon="7.01461"><ele></ele><time>2016-9-26T0:25:33Z</time></trkpt>
<trkpt lat="46.25476" lon="7.01457"><ele></ele><time>2016-9-26T0:25:36Z</time></trkpt>
<trkpt lat="46.25476" lon="7.01451"><ele></ele><time>2016-9-26T0:25:39Z</time></trkpt>
<trkpt lat="46.25476" lon="7.01444"><ele></ele><time>2016-9-26T0:25:42Z</time></trkpt>
<trkpt lat="46.25477" lon="7.01441"><ele></ele><time>2016-9-26T0:25:45Z</time></trkpt>
<trkpt lat="46.25477" lon="7.01437"><ele></ele><time>2016-9-26T0:25:48Z</time></trkpt>
<trkpt lat="46.25477" lon="7.01431"><ele></ele><time>2016-9-26T0:25:51Z</time></trkpt>
<trkpt lat="46.25478" lon="7.01424"><ele></ele><time>2016-9-26T0:25:54Z</time></trkpt>
<trkpt lat="46.25478" lon="7.01417"><ele></ele><time>2016-9-26T0:25:57Z</time></trkpt>
<trkpt lat="46.25478" lon="7.01411"><ele></ele><time>2016-9-26T0:26:0Z</time></trkpt>
<trkpt lat="46.25479" lon="7.01404"><ele></ele><time>2016-9-26T0:26:3Z</time></trkpt>
<trkpt lat="46.25479" lon="7.01397"><ele></ele><time>2016-9-26T0:26:6Z</time></trkpt>
<trkpt lat="46.2548" lon="7.01394"><ele></ele><time>2016-9-26T0:26:9Z</time></trkpt>
<trkpt lat="46.2548" lon="7.01391"><ele></ele><time>2016-9-26T0:26:12Z</time></trkpt>
<trkpt lat="46.25482" lon="7.01384"><ele></ele><time>2016-9-26T0:26:15Z</time></trkpt>
<trkpt lat="46.25483" lon="7.01378"><ele></ele><time>2016-9-26T0:26:18Z</time></trkpt>
<trkpt lat="46.25485" lon="7.01371"><ele></ele><time>2016-9-26T0:26:21Z</time></trkpt>
<trkpt lat="46.25486" lon="7.01365"><ele></ele><time>2016-9-26T0:26:24Z</time></trkpt>
<trkpt lat="46.25488" lon="7.01358"><ele></ele><time>2016-9-26T0:26:27Z</time></trkpt>
<trkpt lat="46.25489" lon="7.01352"><ele></ele><time>2016-9-26T0:26:30Z</time></trkpt>
<trkpt lat="46.25491" lon="7.01345"><ele></ele><time>2016-9-26T0:26:33Z</time></trkpt>
<trkpt lat="46.25492" lon="7.01339"><ele></ele><time>2016-9-26T0:26:36Z</time></trkpt>
<trkpt lat="46.25494" lon="7.01332"><ele></ele><time>2016-9-26T0:26:39Z</time></trkpt>
<trkpt lat="46.25496" lon="7.01328"><ele></ele><time>2016-9-26T0:26:42Z</time></trkpt>
<trkpt lat="46.25497" lon="7.01324"><ele></ele><time>2016-9-26T0:26:45Z</time></trkpt>
<trkpt lat="46.255" lon="7.01316"><ele></ele><time>2016-9-26T0:26:48Z</time></trkpt>
<trkpt lat="46.25504" lon="7.01308"><ele></ele><time>2016-9-26T0:26:51Z</time></trkpt>
<trkpt lat="46.25507" lon="7.01301"><ele></ele><time>2016-9-26T0:26:54Z</time></trkpt>
<trkpt lat="46.2551" lon="7.01293"><ele></ele><time>2016-9-26T0:26:57Z</time></trkpt>
<trkpt lat="46.25513" lon="7.01285"><ele></ele><time>2016-9-26T0:27:0Z</time></trkpt>
<trkpt lat="46.25517" lon="7.01277"><ele></ele><time>2016-9-26T0:27:3Z</time></trkpt>
<trkpt lat="46.25519" lon="7.01272"><ele></ele><time>2016-9-26T0:27:6Z</time></trkpt>
<trkpt lat="46.25522" lon="7.01262"><ele></ele><time>2016-9-26T0:27:9Z</time></trkpt>
<trkpt lat="46.2553" lon="7.01244"><ele></ele><time>2016-9-26T0:27:12Z</time></trkpt>
<trkpt lat="46.25533" lon="7.01234"><ele></ele><time>2016-9-26T0:27:15Z</time></trkpt>
<trkpt lat="46.25535" lon="7.01221"><ele></ele><time>2016-9-26T0:27:18Z</time></trkpt>
<trkpt lat="46.25539" lon="7.01193"><ele></ele><time>2016-9-26T0:27:21Z</time></trkpt>
<trkpt lat="46.25542" lon="7.0118"><ele></ele><time>2016-9-26T0:27:24Z</time></trkpt>
<trkpt lat="46.25547" lon="7.01168"><ele></ele><time>2016-9-26T0:27:27Z</time></trkpt>
<trkpt lat="46.25556" lon="7.01145"><ele></ele><time>2016-9-26T0:27:30Z</time></trkpt>
<trkpt lat="46.25565" lon="7.01122"><ele></ele><time>2016-9-26T0:27:33Z</time></trkpt>
<trkpt lat="46.25572" lon="7.01103"><ele></ele><time>2016-9-26T0:27:36Z</time></trkpt>
<trkpt lat="46.25579" lon="7.01083"><ele></ele><time>2016-9-26T0:27:39Z</time></trkpt>
<trkpt lat="46.25583" lon="7.01074"><ele></ele><time>2016-9-26T0:27:42Z</time></trkpt>
<trkpt lat="46.25587" lon="7.01068"><ele></ele><time>2016-9-26T0:27:45Z</time></trkpt>
<trkpt lat="46.25595" lon="7.01056"><ele></ele><time>2016-9-26T0:27:48Z</time></trkpt>
<trkpt lat="46.25602" lon="7.01044"><ele></ele><time>2016-9-26T0:27:51Z</time></trkpt>
<trkpt lat="46.2561" lon="7.01031"><ele></ele><time>2016-9-26T0:27:54Z</time></trkpt>
<trkpt lat="46.25613" lon="7.01026"><ele></ele><time>2016-9-26T0:27:57Z</time></trkpt>
<trkpt lat="46.25616" lon="7.01022"><ele></ele><time>2016-9-26T0:28:0Z</time></trkpt>
<trkpt lat="46.2562" lon="7.01014"><ele></ele><time>2016-9-26T0:28:3Z</time></trkpt>
<trkpt lat="46.25622" lon="7.0101"><ele></ele><time>2016-9-26T0:28:6Z</time></trkpt>
<trkpt lat="46.25625" lon="7.01006"><ele></ele><time>2016-9-26T0:28:9Z</time></trkpt>
<trkpt lat="46.25626" lon="7.01002"><ele></ele><time>2016-9-26T0:28:12Z</time></trkpt>
<trkpt lat="46.25628" lon="7.00998"><ele></ele><time>2016-9-26T0:28:15Z</time></trkpt>
<trkpt lat="46.25634" lon="7.00991"><ele></ele><time>2016-9-26T0:28:18Z</time></trkpt>
<trkpt lat="46.25637" lon="7.00988"><ele></ele><time>2016-9-26T0:28:21Z</time></trkpt>
<trkpt lat="46.2564" lon="7.00985"><ele></ele><time>2016-9-26T0:28:24Z</time></trkpt>
<trkpt lat="46.25647" lon="7.00978"><ele></ele><time>2016-9-26T0:28:27Z</time></trkpt>
<trkpt lat="46.25653" lon="7.00972"><ele></ele><time>2016-9-26T0:28:30Z</time></trkpt>
<trkpt lat="46.2566" lon="7.00966"><ele></ele><time>2016-9-26T0:28:33Z</time></trkpt>
<trkpt lat="46.25666" lon="7.00959"><ele></ele><time>2016-9-26T0:28:36Z</time></trkpt>
<trkpt lat="46.25671" lon="7.00952"><ele></ele><time>2016-9-26T0:28:39Z</time></trkpt>
<trkpt lat="46.25677" lon="7.00945"><ele></ele><time>2016-9-26T0:28:42Z</time></trkpt>
<trkpt lat="46.25682" lon="7.00938"><ele></ele><time>2016-9-26T0:28:45Z</time></trkpt>
<trkpt lat="46.25687" lon="7.00931"><ele></ele><time>2016-9-26T0:28:48Z</time></trkpt>
<trkpt lat="46.25692" lon="7.00924"><ele></ele><time>2016-9-26T0:28:51Z</time></trkpt>
<trkpt lat="46.25698" lon="7.00917"><ele></ele><time>2016-9-26T0:28:54Z</time></trkpt>
<trkpt lat="46.25701" lon="7.00914"><ele></ele><time>2016-9-26T0:28:57Z</time></trkpt>
<trkpt lat="46.25707" lon="7.00911"><ele></ele><time>2016-9-26T0:29:0Z</time></trkpt>
<trkpt lat="46.25719" lon="7.00906"><ele></ele><time>2016-9-26T0:29:3Z</time></trkpt>
<trkpt lat="46.25732" lon="7.00901"><ele></ele><time>2016-9-26T0:29:6Z</time></trkpt>
<trkpt lat="46.25744" lon="7.00895"><ele></ele><time>2016-9-26T0:29:9Z</time></trkpt>
<trkpt lat="46.25754" lon="7.00884"><ele></ele><time>2016-9-26T0:29:12Z</time></trkpt>
<trkpt lat="46.25764" lon="7.00872"><ele></ele><time>2016-9-26T0:29:15Z</time></trkpt>
<trkpt lat="46.25769" lon="7.00868"><ele></ele><time>2016-9-26T0:29:18Z</time></trkpt>
<trkpt lat="46.25774" lon="7.00863"><ele></ele><time>2016-9-26T0:29:21Z</time></trkpt>
<trkpt lat="46.25783" lon="7.00852"><ele></ele><time>2016-9-26T0:29:24Z</time></trkpt>
<trkpt lat="46.25775" lon="7.00834"><ele></ele><time>2016-9-26T0:29:27Z</time></trkpt>
<trkpt lat="46.25767" lon="7.00817"><ele></ele><time>2016-9-26T0:29:30Z</time></trkpt>
<trkpt lat="46.25761" lon="7.008"><ele></ele><time>2016-9-26T0:29:33Z</time></trkpt>
<trkpt lat="46.25762" lon="7.00795"><ele></ele><time>2016-9-26T0:29:36Z</time></trkpt>
<trkpt lat="46.25765" lon="7.00791"><ele></ele><time>2016-9-26T0:29:39Z</time></trkpt>
<trkpt lat="46.25777" lon="7.00791"><ele></ele><time>2016-9-26T0:29:42Z</time></trkpt>
<trkpt lat="46.25788" lon="7.0079"><ele></ele><time>2016-9-26T0:29:45Z</time></trkpt>
<trkpt lat="46.258" lon="7.0079"><ele></ele><time>2016-9-26T0:29:48Z</time></trkpt>
<trkpt lat="46.25812" lon="7.00789"><ele></ele><time>2016-9-26T0:29:51Z</time></trkpt>
<trkpt lat="46.25818" lon="7.00788"><ele></ele><time>2016-9-26T0:29:54Z</time></trkpt>
<trkpt lat="46.25827" lon="7.00786"><ele></ele><time>2016-9-26T0:29:57Z</time></trkpt>
<trkpt lat="46.25844" lon="7.0078"><ele></ele><time>2016-9-26T0:30:0Z</time></trkpt>
<trkpt lat="46.25861" lon="7.00775"><ele></ele><time>2016-9-26T0:30:3Z</time></trkpt>
<trkpt lat="46.25869" lon="7.00772"><ele></ele><time>2016-9-26T0:30:6Z</time></trkpt>
<trkpt lat="46.25875" lon="7.00769"><ele></ele><time>2016-9-26T0:30:9Z</time></trkpt>
<trkpt lat="46.25888" lon="7.00764"><ele></ele><time>2016-9-26T0:30:12Z</time></trkpt>
<trkpt lat="46.25901" lon="7.00759"><ele></ele><time>2016-9-26T0:30:15Z</time></trkpt>
<trkpt lat="46.25907" lon="7.00757"><ele></ele><time>2016-9-26T0:30:18Z</time></trkpt>
<trkpt lat="46.25913" lon="7.00754"><ele></ele><time>2016-9-26T0:30:21Z</time></trkpt>
<trkpt lat="46.25919" lon="7.00753"><ele></ele><time>2016-9-26T0:30:24Z</time></trkpt>
<trkpt lat="46.25924" lon="7.00753"><ele></ele><time>2016-9-26T0:30:27Z</time></trkpt>
<trkpt lat="46.2593" lon="7.00752"><ele></ele><time>2016-9-26T0:30:30Z</time></trkpt>
<trkpt lat="46.25935" lon="7.00751"><ele></ele><time>2016-9-26T0:30:33Z</time></trkpt>
<trkpt lat="46.25941" lon="7.0075"><ele></ele><time>2016-9-26T0:30:36Z</time></trkpt>
<trkpt lat="46.25946" lon="7.00749"><ele></ele><time>2016-9-26T0:30:39Z</time></trkpt>
<trkpt lat="46.25952" lon="7.00748"><ele></ele><time>2016-9-26T0:30:42Z</time></trkpt>
<trkpt lat="46.25957" lon="7.00748"><ele></ele><time>2016-9-26T0:30:45Z</time></trkpt>
<trkpt lat="46.2596" lon="7.00747"><ele></ele><time>2016-9-26T0:30:48Z</time></trkpt>
<trkpt lat="46.25963" lon="7.00748"><ele></ele><time>2016-9-26T0:30:51Z</time></trkpt>
<trkpt lat="46.25969" lon="7.00749"><ele></ele><time>2016-9-26T0:30:54Z</time></trkpt>
<trkpt lat="46.25976" lon="7.0075"><ele></ele><time>2016-9-26T0:30:57Z</time></trkpt>
<trkpt lat="46.25982" lon="7.00752"><ele></ele><time>2016-9-26T0:31:0Z</time></trkpt>
<trkpt lat="46.25989" lon="7.00753"><ele></ele><time>2016-9-26T0:31:3Z</time></trkpt>
<trkpt lat="46.25995" lon="7.00754"><ele></ele><time>2016-9-26T0:31:6Z</time></trkpt>
<trkpt lat="46.26001" lon="7.00755"><ele></ele><time>2016-9-26T0:31:9Z</time></trkpt>
<trkpt lat="46.26008" lon="7.00756"><ele></ele><time>2016-9-26T0:31:12Z</time></trkpt>
<trkpt lat="46.2602" lon="7.00754"><ele></ele><time>2016-9-26T0:31:15Z</time></trkpt>
<trkpt lat="46.26031" lon="7.00752"><ele></ele><time>2016-9-26T0:31:18Z</time></trkpt>
<trkpt lat="46.26037" lon="7.00751"><ele></ele><time>2016-9-26T0:31:21Z</time></trkpt>
<trkpt lat="46.26043" lon="7.00751"><ele></ele><time>2016-9-26T0:31:24Z</time></trkpt>
<trkpt lat="46.26054" lon="7.00749"><ele></ele><time>2016-9-26T0:31:27Z</time></trkpt>
<trkpt lat="46.26064" lon="7.00743"><ele></ele><time>2016-9-26T0:31:30Z</time></trkpt>
<trkpt lat="46.26073" lon="7.00738"><ele></ele><time>2016-9-26T0:31:33Z</time></trkpt>
<trkpt lat="46.26083" lon="7.00732"><ele></ele><time>2016-9-26T0:31:36Z</time></trkpt>
<trkpt lat="46.26092" lon="7.00727"><ele></ele><time>2016-9-26T0:31:39Z</time></trkpt>
<trkpt lat="46.26097" lon="7.00724"><ele></ele><time>2016-9-26T0:31:42Z</time></trkpt>
<trkpt lat="46.261" lon="7.00722"><ele></ele><time>2016-9-26T0:31:45Z</time></trkpt>
<trkpt lat="46.26108" lon="7.00718"><ele></ele><time>2016-9-26T0:31:48Z</time></trkpt>
<trkpt lat="46.26115" lon="7.00713"><ele></ele><time>2016-9-26T0:31:51Z</time></trkpt>
<trkpt lat="46.26119" lon="7.00711"><ele></ele><time>2016-9-26T0:31:54Z</time></trkpt>
<trkpt lat="46.26123" lon="7.00709"><ele></ele><time>2016-9-26T0:31:57Z</time></trkpt>
<trkpt lat="46.2613" lon="7.00705"><ele></ele><time>2016-9-26T0:32:0Z</time></trkpt>
<trkpt lat="46.26138" lon="7.007"><ele></ele><time>2016-9-26T0:32:3Z</time></trkpt>
<trkpt lat="46.26146" lon="7.00696"><ele></ele><time>2016-9-26T0:32:6Z</time></trkpt>
<trkpt lat="46.2616" lon="7.00688"><ele></ele><time>2016-9-26T0:32:9Z</time></trkpt>
<trkpt lat="46.26175" lon="7.0068"><ele></ele><time>2016-9-26T0:32:12Z</time></trkpt>
<trkpt lat="46.26189" lon="7.00672"><ele></ele><time>2016-9-26T0:32:15Z</time></trkpt>
<trkpt lat="46.26204" lon="7.00663"><ele></ele><time>2016-9-26T0:32:18Z</time></trkpt>
<trkpt lat="46.26211" lon="7.0066"><ele></ele><time>2016-9-26T0:32:21Z</time></trkpt>
<trkpt lat="46.26218" lon="7.00661"><ele></ele><time>2016-9-26T0:32:24Z</time></trkpt>
<trkpt lat="46.26231" lon="7.00664"><ele></ele><time>2016-9-26T0:32:27Z</time></trkpt>
<trkpt lat="46.26244" lon="7.00666"><ele></ele><time>2016-9-26T0:32:30Z</time></trkpt>
<trkpt lat="46.26251" lon="7.00667"><ele></ele><time>2016-9-26T0:32:33Z</time></trkpt>
<trkpt lat="46.26258" lon="7.00668"><ele></ele><time>2016-9-26T0:32:36Z</time></trkpt>
<trkpt lat="46.26276" lon="7.00663"><ele></ele><time>2016-9-26T0:32:39Z</time></trkpt>
<trkpt lat="46.26293" lon="7.00658"><ele></ele><time>2016-9-26T0:32:42Z</time></trkpt>
<trkpt lat="46.26311" lon="7.00653"><ele></ele><time>2016-9-26T0:32:45Z</time></trkpt>
<trkpt lat="46.26335" lon="7.00646"><ele></ele><time>2016-9-26T0:32:48Z</time></trkpt>
<trkpt lat="46.2636" lon="7.00644"><ele></ele><time>2016-9-26T0:32:51Z</time></trkpt>
<trkpt lat="46.26386" lon="7.00642"><ele></ele><time>2016-9-26T0:32:54Z</time></trkpt>
<trkpt lat="46.26413" lon="7.0064"><ele></ele><time>2016-9-26T0:32:57Z</time></trkpt>
<trkpt lat="46.26439" lon="7.00639"><ele></ele><time>2016-9-26T0:33:0Z</time></trkpt>
<trkpt lat="46.26462" lon="7.00643"><ele></ele><time>2016-9-26T0:33:3Z</time></trkpt>
<trkpt lat="46.26484" lon="7.00647"><ele></ele><time>2016-9-26T0:33:6Z</time></trkpt>
<trkpt lat="46.26495" lon="7.0065"><ele></ele><time>2016-9-26T0:33:9Z</time></trkpt>
<trkpt lat="46.26505" lon="7.00657"><ele></ele><time>2016-9-26T0:33:12Z</time></trkpt>
<trkpt lat="46.26526" lon="7.0068"><ele></ele><time>2016-9-26T0:33:15Z</time></trkpt>
<trkpt lat="46.26536" lon="7.0069"><ele></ele><time>2016-9-26T0:33:18Z</time></trkpt>
<trkpt lat="46.26547" lon="7.00695"><ele></ele><time>2016-9-26T0:33:21Z</time></trkpt>
<trkpt lat="46.26569" lon="7.00708"><ele></ele><time>2016-9-26T0:33:24Z</time></trkpt>
<trkpt lat="46.26579" lon="7.00718"><ele></ele><time>2016-9-26T0:33:27Z</time></trkpt>
<trkpt lat="46.26589" lon="7.00724"><ele></ele><time>2016-9-26T0:33:30Z</time></trkpt>
<trkpt lat="46.26609" lon="7.00738"><ele></ele><time>2016-9-26T0:33:33Z</time></trkpt>
<trkpt lat="46.26618" lon="7.00744"><ele></ele><time>2016-9-26T0:33:36Z</time></trkpt>
<trkpt lat="46.26623" lon="7.00752"><ele></ele><time>2016-9-26T0:33:39Z</time></trkpt>
<trkpt lat="46.26629" lon="7.00762"><ele></ele><time>2016-9-26T0:33:42Z</time></trkpt>
<trkpt lat="46.26635" lon="7.00777"><ele></ele><time>2016-9-26T0:33:45Z</time></trkpt>
<trkpt lat="46.26641" lon="7.00791"><ele></ele><time>2016-9-26T0:33:48Z</time></trkpt>
<trkpt lat="46.26647" lon="7.00806"><ele></ele><time>2016-9-26T0:33:51Z</time></trkpt>
<trkpt lat="46.26653" lon="7.00822"><ele></ele><time>2016-9-26T0:33:54Z</time></trkpt>
<trkpt lat="46.26659" lon="7.00839"><ele></ele><time>2016-9-26T0:33:57Z</time></trkpt>
<trkpt lat="46.26663" lon="7.00855"><ele></ele><time>2016-9-26T0:34:0Z</time></trkpt>
<trkpt lat="46.26669" lon="7.00868"><ele></ele><time>2016-9-26T0:34:3Z</time></trkpt>
<trkpt lat="46.26679" lon="7.00893"><ele></ele><time>2016-9-26T0:34:6Z</time></trkpt>
<trkpt lat="46.26694" lon="7.00915"><ele></ele><time>2016-9-26T0:34:9Z</time></trkpt>
<trkpt lat="46.26701" lon="7.00925"><ele></ele><time>2016-9-26T0:34:12Z</time></trkpt>
<trkpt lat="46.26708" lon="7.00936"><ele></ele><time>2016-9-26T0:34:15Z</time></trkpt>
<trkpt lat="46.26716" lon="7.00947"><ele></ele><time>2016-9-26T0:34:18Z</time></trkpt>
<trkpt lat="46.26725" lon="7.00957"><ele></ele><time>2016-9-26T0:34:21Z</time></trkpt>
<trkpt lat="46.26744" lon="7.00977"><ele></ele><time>2016-9-26T0:34:24Z</time></trkpt>
<trkpt lat="46.26754" lon="7.00986"><ele></ele><time>2016-9-26T0:34:27Z</time></trkpt>
<trkpt lat="46.26762" lon="7.00994"><ele></ele><time>2016-9-26T0:34:30Z</time></trkpt>
<trkpt lat="46.26779" lon="7.01009"><ele></ele><time>2016-9-26T0:34:33Z</time></trkpt>
<trkpt lat="46.26784" lon="7.01017"><ele></ele><time>2016-9-26T0:34:36Z</time></trkpt>
<trkpt lat="46.2679" lon="7.01023"><ele></ele><time>2016-9-26T0:34:39Z</time></trkpt>
<trkpt lat="46.26802" lon="7.01035"><ele></ele><time>2016-9-26T0:34:42Z</time></trkpt>
<trkpt lat="46.26806" lon="7.01041"><ele></ele><time>2016-9-26T0:34:45Z</time></trkpt>
<trkpt lat="46.26807" lon="7.01048"><ele></ele><time>2016-9-26T0:34:48Z</time></trkpt>
<trkpt lat="46.26806" lon="7.01054"><ele></ele><time>2016-9-26T0:34:51Z</time></trkpt>
<trkpt lat="46.26803" lon="7.01059"><ele></ele><time>2016-9-26T0:34:54Z</time></trkpt>
<trkpt lat="46.26797" lon="7.01068"><ele></ele><time>2016-9-26T0:34:57Z</time></trkpt>
<trkpt lat="46.2679" lon="7.01078"><ele></ele><time>2016-9-26T0:35:0Z</time></trkpt>
<trkpt lat="46.26784" lon="7.01087"><ele></ele><time>2016-9-26T0:35:3Z</time></trkpt>
<trkpt lat="46.26778" lon="7.01097"><ele></ele><time>2016-9-26T0:35:6Z</time></trkpt>
<trkpt lat="46.26775" lon="7.01101"><ele></ele><time>2016-9-26T0:35:9Z</time></trkpt>
<trkpt lat="46.26772" lon="7.01106"><ele></ele><time>2016-9-26T0:35:12Z</time></trkpt>
<trkpt lat="46.26769" lon="7.01111"><ele></ele><time>2016-9-26T0:35:15Z</time></trkpt>
<trkpt lat="46.26766" lon="7.01115"><ele></ele><time>2016-9-26T0:35:18Z</time></trkpt>
<trkpt lat="46.2676" lon="7.01124"><ele></ele><time>2016-9-26T0:35:21Z</time></trkpt>
<trkpt lat="46.26754" lon="7.01134"><ele></ele><time>2016-9-26T0:35:24Z</time></trkpt>
<trkpt lat="46.26748" lon="7.01143"><ele></ele><time>2016-9-26T0:35:27Z</time></trkpt>
<trkpt lat="46.26743" lon="7.01152"><ele></ele><time>2016-9-26T0:35:30Z</time></trkpt>
<trkpt lat="46.26737" lon="7.01163"><ele></ele><time>2016-9-26T0:35:33Z</time></trkpt>
<trkpt lat="46.26731" lon="7.01174"><ele></ele><time>2016-9-26T0:35:36Z</time></trkpt>
<trkpt lat="46.26725" lon="7.01185"><ele></ele><time>2016-9-26T0:35:39Z</time></trkpt>
<trkpt lat="46.2672" lon="7.01196"><ele></ele><time>2016-9-26T0:35:42Z</time></trkpt>
<trkpt lat="46.26714" lon="7.01207"><ele></ele><time>2016-9-26T0:35:45Z</time></trkpt>
<trkpt lat="46.2671" lon="7.01219"><ele></ele><time>2016-9-26T0:35:48Z</time></trkpt>
<trkpt lat="46.26706" lon="7.0123"><ele></ele><time>2016-9-26T0:35:51Z</time></trkpt>
<trkpt lat="46.26702" lon="7.01242"><ele></ele><time>2016-9-26T0:35:54Z</time></trkpt>
<trkpt lat="46.26698" lon="7.01253"><ele></ele><time>2016-9-26T0:35:57Z</time></trkpt>
<trkpt lat="46.26694" lon="7.01265"><ele></ele><time>2016-9-26T0:36:0Z</time></trkpt>
<trkpt lat="46.26691" lon="7.01274"><ele></ele><time>2016-9-26T0:36:3Z</time></trkpt>
<trkpt lat="46.26687" lon="7.01283"><ele></ele><time>2016-9-26T0:36:6Z</time></trkpt>
<trkpt lat="46.26684" lon="7.01292"><ele></ele><time>2016-9-26T0:36:9Z</time></trkpt>
<trkpt lat="46.26681" lon="7.01301"><ele></ele><time>2016-9-26T0:36:12Z</time></trkpt>
<trkpt lat="46.26677" lon="7.0131"><ele></ele><time>2016-9-26T0:36:15Z</time></trkpt>
<trkpt lat="46.26674" lon="7.01318"><ele></ele><time>2016-9-26T0:36:18Z</time></trkpt>
<trkpt lat="46.2667" lon="7.0132"><ele></ele><time>2016-9-26T0:36:21Z</time></trkpt>
<trkpt lat="46.26666" lon="7.01321"><ele></ele><time>2016-9-26T0:36:24Z</time></trkpt>
<trkpt lat="46.26662" lon="7.01323"><ele></ele><time>2016-9-26T0:36:27Z</time></trkpt>
<trkpt lat="46.26658" lon="7.01324"><ele></ele><time>2016-9-26T0:36:30Z</time></trkpt>
<trkpt lat="46.26654" lon="7.01326"><ele></ele><time>2016-9-26T0:36:33Z</time></trkpt>
<trkpt lat="46.2665" lon="7.01327"><ele></ele><time>2016-9-26T0:36:36Z</time></trkpt>
<trkpt lat="46.26646" lon="7.01329"><ele></ele><time>2016-9-26T0:36:39Z</time></trkpt>
<trkpt lat="46.26642" lon="7.0133"><ele></ele><time>2016-9-26T0:36:42Z</time></trkpt>
<trkpt lat="46.26638" lon="7.01331"><ele></ele><time>2016-9-26T0:36:45Z</time></trkpt>
<trkpt lat="46.26634" lon="7.01331"><ele></ele><time>2016-9-26T0:36:48Z</time></trkpt>
<trkpt lat="46.26631" lon="7.0133"><ele></ele><time>2016-9-26T0:36:51Z</time></trkpt>
<trkpt lat="46.26629" lon="7.0133"><ele></ele><time>2016-9-26T0:36:54Z</time></trkpt>
<trkpt lat="46.26627" lon="7.01329"><ele></ele><time>2016-9-26T0:36:57Z</time></trkpt>
<trkpt lat="46.26624" lon="7.01328"><ele></ele><time>2016-9-26T0:37:0Z</time></trkpt>
<trkpt lat="46.2662" lon="7.01328"><ele></ele><time>2016-9-26T0:37:3Z</time></trkpt>
<trkpt lat="46.26617" lon="7.01327"><ele></ele><time>2016-9-26T0:37:6Z</time></trkpt>
<trkpt lat="46.26613" lon="7.01326"><ele></ele><time>2016-9-26T0:37:9Z</time></trkpt>
<trkpt lat="46.2661" lon="7.01326"><ele></ele><time>2016-9-26T0:37:12Z</time></trkpt>
<trkpt lat="46.26606" lon="7.01325"><ele></ele><time>2016-9-26T0:37:15Z</time></trkpt>
<trkpt lat="46.26602" lon="7.01324"><ele></ele><time>2016-9-26T0:37:18Z</time></trkpt>
<trkpt lat="46.26599" lon="7.01323"><ele></ele><time>2016-9-26T0:37:21Z</time></trkpt>
<trkpt lat="46.26595" lon="7.01323"><ele></ele><time>2016-9-26T0:37:24Z</time></trkpt>
<trkpt lat="46.26592" lon="7.01322"><ele></ele><time>2016-9-26T0:37:27Z</time></trkpt>
<trkpt lat="46.26593" lon="7.01322"><ele></ele><time>2016-9-26T0:37:30Z</time></trkpt>
<trkpt lat="46.26594" lon="7.01321"><ele></ele><time>2016-9-26T0:37:33Z</time></trkpt>
<trkpt lat="46.26595" lon="7.01321"><ele></ele><time>2016-9-26T0:37:36Z</time></trkpt>
<trkpt lat="46.26596" lon="7.01321"><ele></ele><time>2016-9-26T0:37:39Z</time></trkpt>
<trkpt lat="46.26597" lon="7.01321"><ele></ele><time>2016-9-26T0:37:42Z</time></trkpt>
<trkpt lat="46.26598" lon="7.0132"><ele></ele><time>2016-9-26T0:37:45Z</time></trkpt>
<trkpt lat="46.26599" lon="7.0132"><ele></ele><time>2016-9-26T0:37:48Z</time></trkpt>
<trkpt lat="46.26599" lon="7.0132"><ele></ele><time>2016-9-26T0:37:51Z</time></trkpt>
<trkpt lat="46.266" lon="7.0132"><ele></ele><time>2016-9-26T0:37:54Z</time></trkpt>
<trkpt lat="46.26601" lon="7.01319"><ele></ele><time>2016-9-26T0:37:57Z</time></trkpt>
<trkpt lat="46.26602" lon="7.01319"><ele></ele><time>2016-9-26T0:38:0Z</time></trkpt>
<trkpt lat="46.26603" lon="7.01319"><ele></ele><time>2016-9-26T0:38:3Z</time></trkpt>
<trkpt lat="46.26603" lon="7.01319"><ele></ele><time>2016-9-26T0:38:6Z</time></trkpt>
<trkpt lat="46.26604" lon="7.01318"><ele></ele><time>2016-9-26T0:38:9Z</time></trkpt>
<trkpt lat="46.26605" lon="7.01318"><ele></ele><time>2016-9-26T0:38:12Z</time></trkpt>
<trkpt lat="46.26606" lon="7.01318"><ele></ele><time>2016-9-26T0:38:15Z</time></trkpt>
<trkpt lat="46.26607" lon="7.01318"><ele></ele><time>2016-9-26T0:38:18Z</time></trkpt>
<trkpt lat="46.26607" lon="7.01317"><ele></ele><time>2016-9-26T0:38:21Z</time></trkpt>
<trkpt lat="46.26608" lon="7.01317"><ele></ele><time>2016-9-26T0:38:24Z</time></trkpt>
<trkpt lat="46.2661" lon="7.01318"><ele></ele><time>2016-9-26T0:38:27Z</time></trkpt>
<trkpt lat="46.2662" lon="7.01323"><ele></ele><time>2016-9-26T0:38:30Z</time></trkpt>
<trkpt lat="46.26624" lon="7.01325"><ele></ele><time>2016-9-26T0:38:33Z</time></trkpt>
<trkpt lat="46.26628" lon="7.01328"><ele></ele><time>2016-9-26T0:38:36Z</time></trkpt>
<trkpt lat="46.26631" lon="7.01334"><ele></ele><time>2016-9-26T0:38:39Z</time></trkpt>
<trkpt lat="46.26633" lon="7.01336"><ele></ele><time>2016-9-26T0:38:42Z</time></trkpt>
<trkpt lat="46.26635" lon="7.01334"><ele></ele><time>2016-9-26T0:38:45Z</time></trkpt>
<trkpt lat="46.2664" lon="7.01331"><ele></ele><time>2016-9-26T0:38:48Z</time></trkpt>
<trkpt lat="46.26646" lon="7.01328"><ele></ele><time>2016-9-26T0:38:51Z</time></trkpt>
<trkpt lat="46.26654" lon="7.01327"><ele></ele><time>2016-9-26T0:38:54Z</time></trkpt>
<trkpt lat="46.26658" lon="7.01327"><ele></ele><time>2016-9-26T0:38:57Z</time></trkpt>
<trkpt lat="46.26662" lon="7.01326"><ele></ele><time>2016-9-26T0:39:0Z</time></trkpt>
<trkpt lat="46.26665" lon="7.01327"><ele></ele><time>2016-9-26T0:39:3Z</time></trkpt>
<trkpt lat="46.26665" lon="7.01332"><ele></ele><time>2016-9-26T0:39:6Z</time></trkpt>
<trkpt lat="46.2666" lon="7.01339"><ele></ele><time>2016-9-26T0:39:9Z</time></trkpt>
<trkpt lat="46.26655" lon="7.01346"><ele></ele><time>2016-9-26T0:39:12Z</time></trkpt>
<trkpt lat="46.2665" lon="7.01353"><ele></ele><time>2016-9-26T0:39:15Z</time></trkpt>
<trkpt lat="46.26645" lon="7.0136"><ele></ele><time>2016-9-26T0:39:18Z</time></trkpt>
<trkpt lat="46.2664" lon="7.01367"><ele></ele><time>2016-9-26T0:39:21Z</time></trkpt>
<trkpt lat="46.26635" lon="7.01374"><ele></ele><time>2016-9-26T0:39:24Z</time></trkpt>
<trkpt lat="46.2663" lon="7.01382"><ele></ele><time>2016-9-26T0:39:27Z</time></trkpt>
<trkpt lat="46.26629" lon="7.01394"><ele></ele><time>2016-9-26T0:39:30Z</time></trkpt>
<trkpt lat="46.26628" lon="7.01406"><ele></ele><time>2016-9-26T0:39:33Z</time></trkpt>
<trkpt lat="46.26626" lon="7.01418"><ele></ele><time>2016-9-26T0:39:36Z</time></trkpt>
<trkpt lat="46.26625" lon="7.01431"><ele></ele><time>2016-9-26T0:39:39Z</time></trkpt>
<trkpt lat="46.26623" lon="7.01443"><ele></ele><time>2016-9-26T0:39:42Z</time></trkpt>
<trkpt lat="46.26623" lon="7.01449"><ele></ele><time>2016-9-26T0:39:45Z</time></trkpt>
<trkpt lat="46.26622" lon="7.01455"><ele></ele><time>2016-9-26T0:39:48Z</time></trkpt>
<trkpt lat="46.26621" lon="7.01466"><ele></ele><time>2016-9-26T0:39:51Z</time></trkpt>
<trkpt lat="46.2662" lon="7.01477"><ele></ele><time>2016-9-26T0:39:54Z</time></trkpt>
<trkpt lat="46.26618" lon="7.01489"><ele></ele><time>2016-9-26T0:39:57Z</time></trkpt>
<trkpt lat="46.26617" lon="7.015"><ele></ele><time>2016-9-26T0:40:0Z</time></trkpt>
<trkpt lat="46.26616" lon="7.01512"><ele></ele><time>2016-9-26T0:40:3Z</time></trkpt>
<trkpt lat="46.26615" lon="7.01517"><ele></ele><time>2016-9-26T0:40:6Z</time></trkpt>
<trkpt lat="46.26612" lon="7.01521"><ele></ele><time>2016-9-26T0:40:9Z</time></trkpt>
<trkpt lat="46.26606" lon="7.01529"><ele></ele><time>2016-9-26T0:40:12Z</time></trkpt>
<trkpt lat="46.26601" lon="7.01537"><ele></ele><time>2016-9-26T0:40:15Z</time></trkpt>
<trkpt lat="46.26597" lon="7.01541"><ele></ele><time>2016-9-26T0:40:18Z</time></trkpt>
<trkpt lat="46.26592" lon="7.01543"><ele></ele><time>2016-9-26T0:40:21Z</time></trkpt>
<trkpt lat="46.26586" lon="7.01546"><ele></ele><time>2016-9-26T0:40:24Z</time></trkpt>
<trkpt lat="46.26583" lon="7.0155"><ele></ele><time>2016-9-26T0:40:27Z</time></trkpt>
<trkpt lat="46.26576" lon="7.01558"><ele></ele><time>2016-9-26T0:40:30Z</time></trkpt>
<trkpt lat="46.26569" lon="7.01566"><ele></ele><time>2016-9-26T0:40:33Z</time></trkpt>
<trkpt lat="46.26566" lon="7.0157"><ele></ele><time>2016-9-26T0:40:36Z</time></trkpt>
<trkpt lat="46.26562" lon="7.01573"><ele></ele><time>2016-9-26T0:40:39Z</time></trkpt>
<trkpt lat="46.26555" lon="7.01579"><ele></ele><time>2016-9-26T0:40:42Z</time></trkpt>
<trkpt lat="46.26546" lon="7.01581"><ele></ele><time>2016-9-26T0:40:45Z</time></trkpt>
<trkpt lat="46.26538" lon="7.01583"><ele></ele><time>2016-9-26T0:40:48Z</time></trkpt>
<trkpt lat="46.2653" lon="7.01586"><ele></ele><time>2016-9-26T0:40:51Z</time></trkpt>
<trkpt lat="46.26522" lon="7.01588"><ele></ele><time>2016-9-26T0:40:54Z</time></trkpt>
<trkpt lat="46.26513" lon="7.0159"><ele></ele><time>2016-9-26T0:40:57Z</time></trkpt>
<trkpt lat="46.2651" lon="7.01591"><ele></ele><time>2016-9-26T0:41:0Z</time></trkpt>
<trkpt lat="46.26507" lon="7.01591"><ele></ele><time>2016-9-26T0:41:3Z</time></trkpt>
<trkpt lat="46.26501" lon="7.01591"><ele></ele><time>2016-9-26T0:41:6Z</time></trkpt>
<trkpt lat="46.26495" lon="7.01592"><ele></ele><time>2016-9-26T0:41:9Z</time></trkpt>
<trkpt lat="46.26489" lon="7.01592"><ele></ele><time>2016-9-26T0:41:12Z</time></trkpt>
<trkpt lat="46.26483" lon="7.01593"><ele></ele><time>2016-9-26T0:41:15Z</time></trkpt>
<trkpt lat="46.26477" lon="7.01593"><ele></ele><time>2016-9-26T0:41:18Z</time></trkpt>
<trkpt lat="46.26474" lon="7.01594"><ele></ele><time>2016-9-26T0:41:21Z</time></trkpt>
<trkpt lat="46.26472" lon="7.01599"><ele></ele><time>2016-9-26T0:41:24Z</time></trkpt>
<trkpt lat="46.26466" lon="7.01607"><ele></ele><time>2016-9-26T0:41:27Z</time></trkpt>
<trkpt lat="46.26463" lon="7.01612"><ele></ele><time>2016-9-26T0:41:30Z</time></trkpt>
<trkpt lat="46.26461" lon="7.01616"><ele></ele><time>2016-9-26T0:41:33Z</time></trkpt>
<trkpt lat="46.26455" lon="7.01625"><ele></ele><time>2016-9-26T0:41:36Z</time></trkpt>
<trkpt lat="46.2645" lon="7.01633"><ele></ele><time>2016-9-26T0:41:39Z</time></trkpt>
<trkpt lat="46.26448" lon="7.01638"><ele></ele><time>2016-9-26T0:41:42Z</time></trkpt>
<trkpt lat="46.26446" lon="7.01644"><ele></ele><time>2016-9-26T0:41:45Z</time></trkpt>
<trkpt lat="46.26444" lon="7.01654"><ele></ele><time>2016-9-26T0:41:48Z</time></trkpt>
<trkpt lat="46.26441" lon="7.01665"><ele></ele><time>2016-9-26T0:41:51Z</time></trkpt>
<trkpt lat="46.26438" lon="7.01676"><ele></ele><time>2016-9-26T0:41:54Z</time></trkpt>
<trkpt lat="46.26435" lon="7.01687"><ele></ele><time>2016-9-26T0:41:57Z</time></trkpt>
<trkpt lat="46.26434" lon="7.01693"><ele></ele><time>2016-9-26T0:42:0Z</time></trkpt>
<trkpt lat="46.26433" lon="7.01698"><ele></ele><time>2016-9-26T0:42:3Z</time></trkpt>
<trkpt lat="46.26432" lon="7.01703"><ele></ele><time>2016-9-26T0:42:6Z</time></trkpt>
<trkpt lat="46.26431" lon="7.01708"><ele></ele><time>2016-9-26T0:42:9Z</time></trkpt>
<trkpt lat="46.26431" lon="7.01717"><ele></ele><time>2016-9-26T0:42:12Z</time></trkpt>
<trkpt lat="46.2643" lon="7.01727"><ele></ele><time>2016-9-26T0:42:15Z</time></trkpt>
<trkpt lat="46.2643" lon="7.01736"><ele></ele><time>2016-9-26T0:42:18Z</time></trkpt>
<trkpt lat="46.26432" lon="7.01747"><ele></ele><time>2016-9-26T0:42:21Z</time></trkpt>
<trkpt lat="46.26434" lon="7.01757"><ele></ele><time>2016-9-26T0:42:24Z</time></trkpt>
<trkpt lat="46.26436" lon="7.01768"><ele></ele><time>2016-9-26T0:42:27Z</time></trkpt>
<trkpt lat="46.26438" lon="7.01778"><ele></ele><time>2016-9-26T0:42:30Z</time></trkpt>
<trkpt lat="46.2644" lon="7.01789"><ele></ele><time>2016-9-26T0:42:33Z</time></trkpt>
<trkpt lat="46.26442" lon="7.01799"><ele></ele><time>2016-9-26T0:42:36Z</time></trkpt>
<trkpt lat="46.26439" lon="7.01809"><ele></ele><time>2016-9-26T0:42:39Z</time></trkpt>
<trkpt lat="46.26435" lon="7.01819"><ele></ele><time>2016-9-26T0:42:42Z</time></trkpt>
<trkpt lat="46.26432" lon="7.01828"><ele></ele><time>2016-9-26T0:42:45Z</time></trkpt>
<trkpt lat="46.26429" lon="7.01838"><ele></ele><time>2016-9-26T0:42:48Z</time></trkpt>
<trkpt lat="46.26425" lon="7.01841"><ele></ele><time>2016-9-26T0:42:51Z</time></trkpt>
<trkpt lat="46.26421" lon="7.01844"><ele></ele><time>2016-9-26T0:42:54Z</time></trkpt>
<trkpt lat="46.26419" lon="7.01845"><ele></ele><time>2016-9-26T0:42:57Z</time></trkpt>
<trkpt lat="46.26417" lon="7.01847"><ele></ele><time>2016-9-26T0:43:0Z</time></trkpt>
<trkpt lat="46.26413" lon="7.01849"><ele></ele><time>2016-9-26T0:43:3Z</time></trkpt>
<trkpt lat="46.26409" lon="7.01852"><ele></ele><time>2016-9-26T0:43:6Z</time></trkpt>
<trkpt lat="46.26404" lon="7.01855"><ele></ele><time>2016-9-26T0:43:9Z</time></trkpt>
<trkpt lat="46.264" lon="7.01858"><ele></ele><time>2016-9-26T0:43:12Z</time></trkpt>
<trkpt lat="46.26396" lon="7.01861"><ele></ele><time>2016-9-26T0:43:15Z</time></trkpt>
<trkpt lat="46.26392" lon="7.01864"><ele></ele><time>2016-9-26T0:43:18Z</time></trkpt>
<trkpt lat="46.26388" lon="7.01867"><ele></ele><time>2016-9-26T0:43:21Z</time></trkpt>
<trkpt lat="46.26386" lon="7.0187"><ele></ele><time>2016-9-26T0:43:24Z</time></trkpt>
<trkpt lat="46.26384" lon="7.01872"><ele></ele><time>2016-9-26T0:43:27Z</time></trkpt>
<trkpt lat="46.2638" lon="7.01877"><ele></ele><time>2016-9-26T0:43:30Z</time></trkpt>
<trkpt lat="46.26376" lon="7.01882"><ele></ele><time>2016-9-26T0:43:33Z</time></trkpt>
<trkpt lat="46.26372" lon="7.01887"><ele></ele><time>2016-9-26T0:43:36Z</time></trkpt>
<trkpt lat="46.26367" lon="7.01892"><ele></ele><time>2016-9-26T0:43:39Z</time></trkpt>
<trkpt lat="46.26363" lon="7.01897"><ele></ele><time>2016-9-26T0:43:42Z</time></trkpt>
<trkpt lat="46.26359" lon="7.01902"><ele></ele><time>2016-9-26T0:43:45Z</time></trkpt>
<trkpt lat="46.26355" lon="7.01907"><ele></ele><time>2016-9-26T0:43:48Z</time></trkpt>
<trkpt lat="46.26353" lon="7.01909"><ele></ele><time>2016-9-26T0:43:51Z</time></trkpt>
<trkpt lat="46.26351" lon="7.01912"><ele></ele><time>2016-9-26T0:43:54Z</time></trkpt>
<trkpt lat="46.26348" lon="7.01917"><ele></ele><time>2016-9-26T0:43:57Z</time></trkpt>
<trkpt lat="46.26345" lon="7.01923"><ele></ele><time>2016-9-26T0:44:0Z</time></trkpt>
<trkpt lat="46.26342" lon="7.01928"><ele></ele><time>2016-9-26T0:44:3Z</time></trkpt>
<trkpt lat="46.26339" lon="7.01934"><ele></ele><time>2016-9-26T0:44:6Z</time></trkpt>
<trkpt lat="46.26336" lon="7.01939"><ele></ele><time>2016-9-26T0:44:9Z</time></trkpt>
<trkpt lat="46.26335" lon="7.01942"><ele></ele><time>2016-9-26T0:44:12Z</time></trkpt>
<trkpt lat="46.26333" lon="7.01945"><ele></ele><time>2016-9-26T0:44:15Z</time></trkpt>
<trkpt lat="46.2633" lon="7.0195"><ele></ele><time>2016-9-26T0:44:18Z</time></trkpt>
<trkpt lat="46.26327" lon="7.01956"><ele></ele><time>2016-9-26T0:44:21Z</time></trkpt>
<trkpt lat="46.26325" lon="7.01961"><ele></ele><time>2016-9-26T0:44:24Z</time></trkpt>
<trkpt lat="46.26322" lon="7.01966"><ele></ele><time>2016-9-26T0:44:27Z</time></trkpt>
<trkpt lat="46.2632" lon="7.01971"><ele></ele><time>2016-9-26T0:44:30Z</time></trkpt>
<trkpt lat="46.26317" lon="7.01977"><ele></ele><time>2016-9-26T0:44:33Z</time></trkpt>
<trkpt lat="46.26315" lon="7.01982"><ele></ele><time>2016-9-26T0:44:36Z</time></trkpt>
<trkpt lat="46.26312" lon="7.01987"><ele></ele><time>2016-9-26T0:44:39Z</time></trkpt>
<trkpt lat="46.2631" lon="7.01992"><ele></ele><time>2016-9-26T0:44:42Z</time></trkpt>
<trkpt lat="46.26307" lon="7.01997"><ele></ele><time>2016-9-26T0:44:45Z</time></trkpt>
<trkpt lat="46.26306" lon="7.02"><ele></ele><time>2016-9-26T0:44:48Z</time></trkpt>
<trkpt lat="46.26306" lon="7.02004"><ele></ele><time>2016-9-26T0:44:51Z</time></trkpt>
<trkpt lat="46.26307" lon="7.02012"><ele></ele><time>2016-9-26T0:44:54Z</time></trkpt>
<trkpt lat="46.26307" lon="7.0202"><ele></ele><time>2016-9-26T0:44:57Z</time></trkpt>
<trkpt lat="46.26308" lon="7.02028"><ele></ele><time>2016-9-26T0:45:0Z</time></trkpt>
<trkpt lat="46.26308" lon="7.02035"><ele></ele><time>2016-9-26T0:45:3Z</time></trkpt>
<trkpt lat="46.26309" lon="7.02043"><ele></ele><time>2016-9-26T0:45:6Z</time></trkpt>
<trkpt lat="46.26309" lon="7.02051"><ele></ele><time>2016-9-26T0:45:9Z</time></trkpt>
<trkpt lat="46.26311" lon="7.02056"><ele></ele><time>2016-9-26T0:45:12Z</time></trkpt>
<trkpt lat="46.26315" lon="7.02067"><ele></ele><time>2016-9-26T0:45:15Z</time></trkpt>
<trkpt lat="46.26319" lon="7.02077"><ele></ele><time>2016-9-26T0:45:18Z</time></trkpt>
<trkpt lat="46.26321" lon="7.02086"><ele></ele><time>2016-9-26T0:45:21Z</time></trkpt>
<trkpt lat="46.26328" lon="7.02102"><ele></ele><time>2016-9-26T0:45:24Z</time></trkpt>
<trkpt lat="46.26335" lon="7.02119"><ele></ele><time>2016-9-26T0:45:27Z</time></trkpt>
<trkpt lat="46.26338" lon="7.02127"><ele></ele><time>2016-9-26T0:45:30Z</time></trkpt>
<trkpt lat="46.26341" lon="7.02134"><ele></ele><time>2016-9-26T0:45:33Z</time></trkpt>
<trkpt lat="46.26344" lon="7.02143"><ele></ele><time>2016-9-26T0:45:36Z</time></trkpt>
<trkpt lat="46.26346" lon="7.02152"><ele></ele><time>2016-9-26T0:45:39Z</time></trkpt>
<trkpt lat="46.26347" lon="7.02157"><ele></ele><time>2016-9-26T0:45:42Z</time></trkpt>
<trkpt lat="46.26348" lon="7.02161"><ele></ele><time>2016-9-26T0:45:45Z</time></trkpt>
<trkpt lat="46.26348" lon="7.02165"><ele></ele><time>2016-9-26T0:45:48Z</time></trkpt>
<trkpt lat="46.26348" lon="7.02168"><ele></ele><time>2016-9-26T0:45:51Z</time></trkpt>
<trkpt lat="46.26349" lon="7.02173"><ele></ele><time>2016-9-26T0:45:54Z</time></trkpt>
<trkpt lat="46.2635" lon="7.02177"><ele></ele><time>2016-9-26T0:45:57Z</time></trkpt>
<trkpt lat="46.26351" lon="7.02182"><ele></ele><time>2016-9-26T0:46:0Z</time></trkpt>
<trkpt lat="46.26351" lon="7.02185"><ele></ele><time>2016-9-26T0:46:3Z</time></trkpt>
<trkpt lat="46.26352" lon="7.02187"><ele></ele><time>2016-9-26T0:46:6Z</time></trkpt>
<trkpt lat="46.26352" lon="7.02192"><ele></ele><time>2016-9-26T0:46:9Z</time></trkpt>
<trkpt lat="46.26353" lon="7.02197"><ele></ele><time>2016-9-26T0:46:12Z</time></trkpt>
<trkpt lat="46.26354" lon="7.02202"><ele></ele><time>2016-9-26T0:46:15Z</time></trkpt>
<trkpt lat="46.26355" lon="7.02207"><ele></ele><time>2016-9-26T0:46:18Z</time></trkpt>
<trkpt lat="46.26356" lon="7.02212"><ele></ele><time>2016-9-26T0:46:21Z</time></trkpt>
<trkpt lat="46.26357" lon="7.02217"><ele></ele><time>2016-9-26T0:46:24Z</time></trkpt>
<trkpt lat="46.26357" lon="7.02222"><ele></ele><time>2016-9-26T0:46:27Z</time></trkpt>
<trkpt lat="46.26358" lon="7.02227"><ele></ele><time>2016-9-26T0:46:30Z</time></trkpt>
<trkpt lat="46.26356" lon="7.02233"><ele></ele><time>2016-9-26T0:46:33Z</time></trkpt>
<trkpt lat="46.26354" lon="7.0224"><ele></ele><time>2016-9-26T0:46:36Z</time></trkpt>
<trkpt lat="46.26352" lon="7.02246"><ele></ele><time>2016-9-26T0:46:39Z</time></trkpt>
<trkpt lat="46.26351" lon="7.02253"><ele></ele><time>2016-9-26T0:46:42Z</time></trkpt>
<trkpt lat="46.26349" lon="7.02259"><ele></ele><time>2016-9-26T0:46:45Z</time></trkpt>
<trkpt lat="46.26348" lon="7.02262"><ele></ele><time>2016-9-26T0:46:48Z</time></trkpt>
<trkpt lat="46.26347" lon="7.02266"><ele></ele><time>2016-9-26T0:46:51Z</time></trkpt>
<trkpt lat="46.26345" lon="7.02272"><ele></ele><time>2016-9-26T0:46:54Z</time></trkpt>
<trkpt lat="46.26343" lon="7.02279"><ele></ele><time>2016-9-26T0:46:57Z</time></trkpt>
<trkpt lat="46.26342" lon="7.02285"><ele></ele><time>2016-9-26T0:47:0Z</time></trkpt>
<trkpt lat="46.26341" lon="7.02289"><ele></ele><time>2016-9-26T0:47:3Z</time></trkpt>
<trkpt lat="46.2634" lon="7.02292"><ele></ele><time>2016-9-26T0:47:6Z</time></trkpt>
<trkpt lat="46.26338" lon="7.02299"><ele></ele><time>2016-9-26T0:47:9Z</time></trkpt>
<trkpt lat="46.26336" lon="7.02306"><ele></ele><time>2016-9-26T0:47:12Z</time></trkpt>
<trkpt lat="46.26334" lon="7.02313"><ele></ele><time>2016-9-26T0:47:15Z</time></trkpt>
<trkpt lat="46.26332" lon="7.02321"><ele></ele><time>2016-9-26T0:47:18Z</time></trkpt>
<trkpt lat="46.2633" lon="7.02328"><ele></ele><time>2016-9-26T0:47:21Z</time></trkpt>
<trkpt lat="46.26328" lon="7.02335"><ele></ele><time>2016-9-26T0:47:24Z</time></trkpt>
<trkpt lat="46.26326" lon="7.02342"><ele></ele><time>2016-9-26T0:47:27Z</time></trkpt>
<trkpt lat="46.26324" lon="7.02349"><ele></ele><time>2016-9-26T0:47:30Z</time></trkpt>
<trkpt lat="46.26323" lon="7.02353"><ele></ele><time>2016-9-26T0:47:33Z</time></trkpt>
<trkpt lat="46.26323" lon="7.02357"><ele></ele><time>2016-9-26T0:47:36Z</time></trkpt>
<trkpt lat="46.26321" lon="7.02364"><ele></ele><time>2016-9-26T0:47:39Z</time></trkpt>
<trkpt lat="46.2632" lon="7.02372"><ele></ele><time>2016-9-26T0:47:42Z</time></trkpt>
<trkpt lat="46.26319" lon="7.02376"><ele></ele><time>2016-9-26T0:47:45Z</time></trkpt>
<trkpt lat="46.26318" lon="7.0238"><ele></ele><time>2016-9-26T0:47:48Z</time></trkpt>
<trkpt lat="46.26317" lon="7.02388"><ele></ele><time>2016-9-26T0:47:51Z</time></trkpt>
<trkpt lat="46.26315" lon="7.02396"><ele></ele><time>2016-9-26T0:47:54Z</time></trkpt>
<trkpt lat="46.26314" lon="7.02404"><ele></ele><time>2016-9-26T0:47:57Z</time></trkpt>
<trkpt lat="46.26312" lon="7.02412"><ele></ele><time>2016-9-26T0:48:0Z</time></trkpt>
<trkpt lat="46.26311" lon="7.02416"><ele></ele><time>2016-9-26T0:48:3Z</time></trkpt>
<trkpt lat="46.2631" lon="7.0242"><ele></ele><time>2016-9-26T0:48:6Z</time></trkpt>
<trkpt lat="46.26308" lon="7.02428"><ele></ele><time>2016-9-26T0:48:9Z</time></trkpt>
<trkpt lat="46.26306" lon="7.02435"><ele></ele><time>2016-9-26T0:48:12Z</time></trkpt>
<trkpt lat="46.26304" lon="7.02443"><ele></ele><time>2016-9-26T0:48:15Z</time></trkpt>
<trkpt lat="46.26302" lon="7.02451"><ele></ele><time>2016-9-26T0:48:18Z</time></trkpt>
<trkpt lat="46.263" lon="7.02459"><ele></ele><time>2016-9-26T0:48:21Z</time></trkpt>
<trkpt lat="46.26299" lon="7.02463"><ele></ele><time>2016-9-26T0:48:24Z</time></trkpt>
<trkpt lat="46.26298" lon="7.02467"><ele></ele><time>2016-9-26T0:48:27Z</time></trkpt>
<trkpt lat="46.26296" lon="7.02474"><ele></ele><time>2016-9-26T0:48:30Z</time></trkpt>
<trkpt lat="46.26295" lon="7.02478"><ele></ele><time>2016-9-26T0:48:33Z</time></trkpt>
<trkpt lat="46.26294" lon="7.02482"><ele></ele><time>2016-9-26T0:48:36Z</time></trkpt>
<trkpt lat="46.26293" lon="7.02489"><ele></ele><time>2016-9-26T0:48:39Z</time></trkpt>
<trkpt lat="46.26291" lon="7.02497"><ele></ele><time>2016-9-26T0:48:42Z</time></trkpt>
<trkpt lat="46.26289" lon="7.02504"><ele></ele><time>2016-9-26T0:48:45Z</time></trkpt>
<trkpt lat="46.26288" lon="7.02512"><ele></ele><time>2016-9-26T0:48:48Z</time></trkpt>
<trkpt lat="46.26286" lon="7.02519"><ele></ele><time>2016-9-26T0:48:51Z</time></trkpt>
<trkpt lat="46.26284" lon="7.02527"><ele></ele><time>2016-9-26T0:48:54Z</time></trkpt>
<trkpt lat="46.26283" lon="7.02534"><ele></ele><time>2016-9-26T0:48:57Z</time></trkpt>
<trkpt lat="46.26281" lon="7.02542"><ele></ele><time>2016-9-26T0:49:0Z</time></trkpt>
<trkpt lat="46.2628" lon="7.02545"><ele></ele><time>2016-9-26T0:49:3Z</time></trkpt>
<trkpt lat="46.26278" lon="7.02549"><ele></ele><time>2016-9-26T0:49:6Z</time></trkpt>
<trkpt lat="46.26276" lon="7.02556"><ele></ele><time>2016-9-26T0:49:9Z</time></trkpt>
<trkpt lat="46.26274" lon="7.02563"><ele></ele><time>2016-9-26T0:49:12Z</time></trkpt>
<trkpt lat="46.26271" lon="7.0257"><ele></ele><time>2016-9-26T0:49:15Z</time></trkpt>
<trkpt lat="46.26269" lon="7.02577"><ele></ele><time>2016-9-26T0:49:18Z</time></trkpt>
<trkpt lat="46.26267" lon="7.02584"><ele></ele><time>2016-9-26T0:49:21Z</time></trkpt>
<trkpt lat="46.26266" lon="7.02587"><ele></ele><time>2016-9-26T0:49:24Z</time></trkpt>
<trkpt lat="46.26264" lon="7.02591"><ele></ele><time>2016-9-26T0:49:27Z</time></trkpt>
<trkpt lat="46.26262" lon="7.02598"><ele></ele><time>2016-9-26T0:49:30Z</time></trkpt>
<trkpt lat="46.26262" lon="7.02601"><ele></ele><time>2016-9-26T0:49:33Z</time></trkpt>
<trkpt lat="46.26262" lon="7.02606"><ele></ele><time>2016-9-26T0:49:36Z</time></trkpt>
<trkpt lat="46.26264" lon="7.02614"><ele></ele><time>2016-9-26T0:49:39Z</time></trkpt>
<trkpt lat="46.26266" lon="7.02623"><ele></ele><time>2016-9-26T0:49:42Z</time></trkpt>
<trkpt lat="46.26268" lon="7.02632"><ele></ele><time>2016-9-26T0:49:45Z</time></trkpt>
<trkpt lat="46.26269" lon="7.02641"><ele></ele><time>2016-9-26T0:49:48Z</time></trkpt>
<trkpt lat="46.26271" lon="7.02649"><ele></ele><time>2016-9-26T0:49:51Z</time></trkpt>
<trkpt lat="46.26273" lon="7.02654"><ele></ele><time>2016-9-26T0:49:54Z</time></trkpt>
<trkpt lat="46.26276" lon="7.02658"><ele></ele><time>2016-9-26T0:49:57Z</time></trkpt>
<trkpt lat="46.26283" lon="7.02665"><ele></ele><time>2016-9-26T0:50:0Z</time></trkpt>
<trkpt lat="46.2629" lon="7.02673"><ele></ele><time>2016-9-26T0:50:3Z</time></trkpt>
<trkpt lat="46.26294" lon="7.02677"><ele></ele><time>2016-9-26T0:50:6Z</time></trkpt>
<trkpt lat="46.26301" lon="7.02679"><ele></ele><time>2016-9-26T0:50:9Z</time></trkpt>
<trkpt lat="46.26307" lon="7.0268"><ele></ele><time>2016-9-26T0:50:12Z</time></trkpt>
<trkpt lat="46.26311" lon="7.02676"><ele></ele><time>2016-9-26T0:50:15Z</time></trkpt>
<trkpt lat="46.26315" lon="7.02674"><ele></ele><time>2016-9-26T0:50:18Z</time></trkpt>
<trkpt lat="46.26319" lon="7.02674"><ele></ele><time>2016-9-26T0:50:21Z</time></trkpt>
<trkpt lat="46.26328" lon="7.02673"><ele></ele><time>2016-9-26T0:50:24Z</time></trkpt>
<trkpt lat="46.26333" lon="7.0267"><ele></ele><time>2016-9-26T0:50:27Z</time></trkpt>
<trkpt lat="46.26336" lon="7.02671"><ele></ele><time>2016-9-26T0:50:30Z</time></trkpt>
<trkpt lat="46.26342" lon="7.02672"><ele></ele><time>2016-9-26T0:50:33Z</time></trkpt>
<trkpt lat="46.26348" lon="7.02673"><ele></ele><time>2016-9-26T0:50:36Z</time></trkpt>
<trkpt lat="46.26355" lon="7.02674"><ele></ele><time>2016-9-26T0:50:39Z</time></trkpt>
<trkpt lat="46.26364" lon="7.0267"><ele></ele><time>2016-9-26T0:50:42Z</time></trkpt>
<trkpt lat="46.26374" lon="7.02667"><ele></ele><time>2016-9-26T0:50:45Z</time></trkpt>
<trkpt lat="46.26388" lon="7.02669"><ele></ele><time>2016-9-26T0:50:48Z</time></trkpt>
<trkpt lat="46.26401" lon="7.02671"><ele></ele><time>2016-9-26T0:50:51Z</time></trkpt>
<trkpt lat="46.26409" lon="7.02671"><ele></ele><time>2016-9-26T0:50:54Z</time></trkpt>
<trkpt lat="46.26421" lon="7.02667"><ele></ele><time>2016-9-26T0:50:57Z</time></trkpt>
<trkpt lat="46.26432" lon="7.02664"><ele></ele><time>2016-9-26T0:51:0Z</time></trkpt>
<trkpt lat="46.26442" lon="7.02665"><ele></ele><time>2016-9-26T0:51:3Z</time></trkpt>
<trkpt lat="46.26452" lon="7.0267"><ele></ele><time>2016-9-26T0:51:6Z</time></trkpt>
<trkpt lat="46.26459" lon="7.0267"><ele></ele><time>2016-9-26T0:51:9Z</time></trkpt>
<trkpt lat="46.26467" lon="7.0267"><ele></ele><time>2016-9-26T0:51:12Z</time></trkpt>
<trkpt lat="46.26476" lon="7.02672"><ele></ele><time>2016-9-26T0:51:15Z</time></trkpt>
<trkpt lat="46.26494" lon="7.02677"><ele></ele><time>2016-9-26T0:51:18Z</time></trkpt>
<trkpt lat="46.26511" lon="7.02682"><ele></ele><time>2016-9-26T0:51:21Z</time></trkpt>
<trkpt lat="46.26524" lon="7.02688"><ele></ele><time>2016-9-26T0:51:24Z</time></trkpt>
<trkpt lat="46.26531" lon="7.02691"><ele></ele><time>2016-9-26T0:51:27Z</time></trkpt>
<trkpt lat="46.26538" lon="7.02693"><ele></ele><time>2016-9-26T0:51:30Z</time></trkpt>
<trkpt lat="46.2655" lon="7.02688"><ele></ele><time>2016-9-26T0:51:33Z</time></trkpt>
<trkpt lat="46.26554" lon="7.02679"><ele></ele><time>2016-9-26T0:51:36Z</time></trkpt>
<trkpt lat="46.26558" lon="7.0267"><ele></ele><time>2016-9-26T0:51:39Z</time></trkpt>
<trkpt lat="46.26561" lon="7.02661"><ele></ele><time>2016-9-26T0:51:42Z</time></trkpt>
<trkpt lat="46.26565" lon="7.02652"><ele></ele><time>2016-9-26T0:51:45Z</time></trkpt>
<trkpt lat="46.26569" lon="7.02643"><ele></ele><time>2016-9-26T0:51:48Z</time></trkpt>
<trkpt lat="46.26572" lon="7.02634"><ele></ele><time>2016-9-26T0:51:51Z</time></trkpt>
<trkpt lat="46.26574" lon="7.0263"><ele></ele><time>2016-9-26T0:51:54Z</time></trkpt>
<trkpt lat="46.26575" lon="7.02626"><ele></ele><time>2016-9-26T0:51:57Z</time></trkpt>
<trkpt lat="46.26577" lon="7.02617"><ele></ele><time>2016-9-26T0:52:0Z</time></trkpt>
<trkpt lat="46.26578" lon="7.02609"><ele></ele><time>2016-9-26T0:52:3Z</time></trkpt>
<trkpt lat="46.2658" lon="7.02601"><ele></ele><time>2016-9-26T0:52:6Z</time></trkpt>
<trkpt lat="46.26582" lon="7.02592"><ele></ele><time>2016-9-26T0:52:9Z</time></trkpt>
<trkpt lat="46.26584" lon="7.02584"><ele></ele><time>2016-9-26T0:52:12Z</time></trkpt>
<trkpt lat="46.26585" lon="7.0258"><ele></ele><time>2016-9-26T0:52:15Z</time></trkpt>
<trkpt lat="46.26586" lon="7.02576"><ele></ele><time>2016-9-26T0:52:18Z</time></trkpt>
<trkpt lat="46.26587" lon="7.02568"><ele></ele><time>2016-9-26T0:52:21Z</time></trkpt>
<trkpt lat="46.26589" lon="7.02561"><ele></ele><time>2016-9-26T0:52:24Z</time></trkpt>
<trkpt lat="46.26591" lon="7.02553"><ele></ele><time>2016-9-26T0:52:27Z</time></trkpt>
<trkpt lat="46.26592" lon="7.02546"><ele></ele><time>2016-9-26T0:52:30Z</time></trkpt>
<trkpt lat="46.26594" lon="7.02539"><ele></ele><time>2016-9-26T0:52:33Z</time></trkpt>
<trkpt lat="46.26595" lon="7.02536"><ele></ele><time>2016-9-26T0:52:36Z</time></trkpt>
<trkpt lat="46.26595" lon="7.02532"><ele></ele><time>2016-9-26T0:52:39Z</time></trkpt>
<trkpt lat="46.26597" lon="7.02525"><ele></ele><time>2016-9-26T0:52:42Z</time></trkpt>
<trkpt lat="46.26599" lon="7.02518"><ele></ele><time>2016-9-26T0:52:45Z</time></trkpt>
<trkpt lat="46.266" lon="7.02511"><ele></ele><time>2016-9-26T0:52:48Z</time></trkpt>
<trkpt lat="46.26602" lon="7.02504"><ele></ele><time>2016-9-26T0:52:51Z</time></trkpt>
<trkpt lat="46.26603" lon="7.02498"><ele></ele><time>2016-9-26T0:52:54Z</time></trkpt>
<trkpt lat="46.26604" lon="7.02493"><ele></ele><time>2016-9-26T0:52:57Z</time></trkpt>
<trkpt lat="46.26605" lon="7.02487"><ele></ele><time>2016-9-26T0:53:0Z</time></trkpt>
<trkpt lat="46.26606" lon="7.02481"><ele></ele><time>2016-9-26T0:53:3Z</time></trkpt>
<trkpt lat="46.26608" lon="7.02475"><ele></ele><time>2016-9-26T0:53:6Z</time></trkpt>
<trkpt lat="46.26614" lon="7.02467"><ele></ele><time>2016-9-26T0:53:9Z</time></trkpt>
<trkpt lat="46.2662" lon="7.02458"><ele></ele><time>2016-9-26T0:53:12Z</time></trkpt>
<trkpt lat="46.26623" lon="7.02454"><ele></ele><time>2016-9-26T0:53:15Z</time></trkpt>
<trkpt lat="46.26624" lon="7.02449"><ele></ele><time>2016-9-26T0:53:18Z</time></trkpt>
<trkpt lat="46.26626" lon="7.0244"><ele></ele><time>2016-9-26T0:53:21Z</time></trkpt>
<trkpt lat="46.26628" lon="7.02435"><ele></ele><time>2016-9-26T0:53:24Z</time></trkpt>
<trkpt lat="46.2663" lon="7.02432"><ele></ele><time>2016-9-26T0:53:27Z</time></trkpt>
<trkpt lat="46.26634" lon="7.02425"><ele></ele><time>2016-9-26T0:53:30Z</time></trkpt>
<trkpt lat="46.26636" lon="7.02421"><ele></ele><time>2016-9-26T0:53:33Z</time></trkpt>
<trkpt lat="46.26639" lon="7.02415"><ele></ele><time>2016-9-26T0:53:36Z</time></trkpt>
<trkpt lat="46.26643" lon="7.02403"><ele></ele><time>2016-9-26T0:53:39Z</time></trkpt>
<trkpt lat="46.26648" lon="7.02391"><ele></ele><time>2016-9-26T0:53:42Z</time></trkpt>
<trkpt lat="46.26652" lon="7.02379"><ele></ele><time>2016-9-26T0:53:45Z</time></trkpt>
<trkpt lat="46.26654" lon="7.02366"><ele></ele><time>2016-9-26T0:53:48Z</time></trkpt>
<trkpt lat="46.26656" lon="7.02352"><ele></ele><time>2016-9-26T0:53:51Z</time></trkpt>
<trkpt lat="46.26658" lon="7.02339"><ele></ele><time>2016-9-26T0:53:54Z</time></trkpt>
<trkpt lat="46.2666" lon="7.02326"><ele></ele><time>2016-9-26T0:53:57Z</time></trkpt>
<trkpt lat="46.26663" lon="7.02313"><ele></ele><time>2016-9-26T0:54:0Z</time></trkpt>
<trkpt lat="46.26667" lon="7.02302"><ele></ele><time>2016-9-26T0:54:3Z</time></trkpt>
<trkpt lat="46.26672" lon="7.02291"><ele></ele><time>2016-9-26T0:54:6Z</time></trkpt>
<trkpt lat="46.26677" lon="7.0228"><ele></ele><time>2016-9-26T0:54:9Z</time></trkpt>
<trkpt lat="46.26689" lon="7.02276"><ele></ele><time>2016-9-26T0:54:12Z</time></trkpt>
<trkpt lat="46.26701" lon="7.02272"><ele></ele><time>2016-9-26T0:54:15Z</time></trkpt>
<trkpt lat="46.26705" lon="7.02271"><ele></ele><time>2016-9-26T0:54:18Z</time></trkpt>
<trkpt lat="46.26707" lon="7.02273"><ele></ele><time>2016-9-26T0:54:21Z</time></trkpt>
<trkpt lat="46.26708" lon="7.02275"><ele></ele><time>2016-9-26T0:54:24Z</time></trkpt>
<trkpt lat="46.26707" lon="7.02278"><ele></ele><time>2016-9-26T0:54:27Z</time></trkpt>
<trkpt lat="46.26706" lon="7.02282"><ele></ele><time>2016-9-26T0:54:30Z</time></trkpt>
<trkpt lat="46.26705" lon="7.02287"><ele></ele><time>2016-9-26T0:54:33Z</time></trkpt>
<trkpt lat="46.26704" lon="7.02289"><ele></ele><time>2016-9-26T0:54:36Z</time></trkpt>
<trkpt lat="46.26703" lon="7.02292"><ele></ele><time>2016-9-26T0:54:39Z</time></trkpt>
<trkpt lat="46.26702" lon="7.02296"><ele></ele><time>2016-9-26T0:54:42Z</time></trkpt>
<trkpt lat="46.26701" lon="7.02301"><ele></ele><time>2016-9-26T0:54:45Z</time></trkpt>
<trkpt lat="46.26699" lon="7.02306"><ele></ele><time>2016-9-26T0:54:48Z</time></trkpt>
<trkpt lat="46.26698" lon="7.0231"><ele></ele><time>2016-9-26T0:54:51Z</time></trkpt>
<trkpt lat="46.26696" lon="7.02315"><ele></ele><time>2016-9-26T0:54:54Z</time></trkpt>
<trkpt lat="46.26695" lon="7.0232"><ele></ele><time>2016-9-26T0:54:57Z</time></trkpt>
<trkpt lat="46.26694" lon="7.02324"><ele></ele><time>2016-9-26T0:55:0Z</time></trkpt>
<trkpt lat="46.26692" lon="7.02329"><ele></ele><time>2016-9-26T0:55:3Z</time></trkpt>
<trkpt lat="46.26691" lon="7.02334"><ele></ele><time>2016-9-26T0:55:6Z</time></trkpt>
<trkpt lat="46.2669" lon="7.02336"><ele></ele><time>2016-9-26T0:55:9Z</time></trkpt>
<trkpt lat="46.26691" lon="7.02338"><ele></ele><time>2016-9-26T0:55:12Z</time></trkpt>
<trkpt lat="46.26691" lon="7.02343"><ele></ele><time>2016-9-26T0:55:15Z</time></trkpt>
<trkpt lat="46.26691" lon="7.02347"><ele></ele><time>2016-9-26T0:55:18Z</time></trkpt>
<trkpt lat="46.26692" lon="7.02351"><ele></ele><time>2016-9-26T0:55:21Z</time></trkpt>
<trkpt lat="46.26692" lon="7.02356"><ele></ele><time>2016-9-26T0:55:24Z</time></trkpt>
<trkpt lat="46.26693" lon="7.0236"><ele></ele><time>2016-9-26T0:55:27Z</time></trkpt>
<trkpt lat="46.26693" lon="7.02365"><ele></ele><time>2016-9-26T0:55:30Z</time></trkpt>
<trkpt lat="46.26693" lon="7.02369"><ele></ele><time>2016-9-26T0:55:33Z</time></trkpt>
<trkpt lat="46.26694" lon="7.02374"><ele></ele><time>2016-9-26T0:55:36Z</time></trkpt>
<trkpt lat="46.26694" lon="7.02378"><ele></ele><time>2016-9-26T0:55:39Z</time></trkpt>
<trkpt lat="46.26695" lon="7.02382"><ele></ele><time>2016-9-26T0:55:42Z</time></trkpt>
<trkpt lat="46.26695" lon="7.02387"><ele></ele><time>2016-9-26T0:55:45Z</time></trkpt>
<trkpt lat="46.26695" lon="7.02391"><ele></ele><time>2016-9-26T0:55:48Z</time></trkpt>
<trkpt lat="46.26696" lon="7.02396"><ele></ele><time>2016-9-26T0:55:51Z</time></trkpt>
<trkpt lat="46.26696" lon="7.024"><ele></ele><time>2016-9-26T0:55:54Z</time></trkpt>
<trkpt lat="46.26697" lon="7.02402"><ele></ele><time>2016-9-26T0:55:57Z</time></trkpt>
<trkpt lat="46.26698" lon="7.02404"><ele></ele><time>2016-9-26T0:56:0Z</time></trkpt>
<trkpt lat="46.26699" lon="7.02405"><ele></ele><time>2016-9-26T0:56:3Z</time></trkpt>
<trkpt lat="46.267" lon="7.02407"><ele></ele><time>2016-9-26T0:56:6Z</time></trkpt>
<trkpt lat="46.26702" lon="7.0241"><ele></ele><time>2016-9-26T0:56:9Z</time></trkpt>
<trkpt lat="46.26704" lon="7.02413"><ele></ele><time>2016-9-26T0:56:12Z</time></trkpt>
<trkpt lat="46.26706" lon="7.02417"><ele></ele><time>2016-9-26T0:56:15Z</time></trkpt>
<trkpt lat="46.26708" lon="7.0242"><ele></ele><time>2016-9-26T0:56:18Z</time></trkpt>
<trkpt lat="46.2671" lon="7.02423"><ele></ele><time>2016-9-26T0:56:21Z</time></trkpt>
<trkpt lat="46.26713" lon="7.02426"><ele></ele><time>2016-9-26T0:56:24Z</time></trkpt>
<trkpt lat="46.26715" lon="7.02429"><ele></ele><time>2016-9-26T0:56:27Z</time></trkpt>
<trkpt lat="46.26717" lon="7.02433"><ele></ele><time>2016-9-26T0:56:30Z</time></trkpt>
<trkpt lat="46.26719" lon="7.02436"><ele></ele><time>2016-9-26T0:56:33Z</time></trkpt>
<trkpt lat="46.26721" lon="7.02439"><ele></ele><time>2016-9-26T0:56:36Z</time></trkpt>
<trkpt lat="46.26722" lon="7.02441"><ele></ele><time>2016-9-26T0:56:39Z</time></trkpt>
<trkpt lat="46.26723" lon="7.02442"><ele></ele><time>2016-9-26T0:56:42Z</time></trkpt>
<trkpt lat="46.26725" lon="7.02445"><ele></ele><time>2016-9-26T0:56:45Z</time></trkpt>
<trkpt lat="46.26728" lon="7.02448"><ele></ele><time>2016-9-26T0:56:48Z</time></trkpt>
<trkpt lat="46.26731" lon="7.02447"><ele></ele><time>2016-9-26T0:56:51Z</time></trkpt>
<trkpt lat="46.26735" lon="7.02446"><ele></ele><time>2016-9-26T0:56:54Z</time></trkpt>
<trkpt lat="46.26739" lon="7.02445"><ele></ele><time>2016-9-26T0:56:57Z</time></trkpt>
<trkpt lat="46.26742" lon="7.02444"><ele></ele><time>2016-9-26T0:57:0Z</time></trkpt>
<trkpt lat="46.26746" lon="7.02443"><ele></ele><time>2016-9-26T0:57:3Z</time></trkpt>
<trkpt lat="46.2675" lon="7.02442"><ele></ele><time>2016-9-26T0:57:6Z</time></trkpt>
<trkpt lat="46.26754" lon="7.02441"><ele></ele><time>2016-9-26T0:57:9Z</time></trkpt>
<trkpt lat="46.26757" lon="7.0244"><ele></ele><time>2016-9-26T0:57:12Z</time></trkpt>
<trkpt lat="46.26761" lon="7.02438"><ele></ele><time>2016-9-26T0:57:15Z</time></trkpt>
<trkpt lat="46.26765" lon="7.02437"><ele></ele><time>2016-9-26T0:57:18Z</time></trkpt>
<trkpt lat="46.26768" lon="7.02436"><ele></ele><time>2016-9-26T0:57:21Z</time></trkpt>
<trkpt lat="46.26772" lon="7.02435"><ele></ele><time>2016-9-26T0:57:24Z</time></trkpt>
<trkpt lat="46.26775" lon="7.02428"><ele></ele><time>2016-9-26T0:57:27Z</time></trkpt>
<trkpt lat="46.26778" lon="7.02422"><ele></ele><time>2016-9-26T0:57:30Z</time></trkpt>
<trkpt lat="46.26779" lon="7.02419"><ele></ele><time>2016-9-26T0:57:33Z</time></trkpt>
<trkpt lat="46.26781" lon="7.02416"><ele></ele><time>2016-9-26T0:57:36Z</time></trkpt>
<trkpt lat="46.26784" lon="7.0241"><ele></ele><time>2016-9-26T0:57:39Z</time></trkpt>
<trkpt lat="46.26787" lon="7.02404"><ele></ele><time>2016-9-26T0:57:42Z</time></trkpt>
<trkpt lat="46.26789" lon="7.02398"><ele></ele><time>2016-9-26T0:57:45Z</time></trkpt>
<trkpt lat="46.26792" lon="7.02392"><ele></ele><time>2016-9-26T0:57:48Z</time></trkpt>
<trkpt lat="46.26795" lon="7.02386"><ele></ele><time>2016-9-26T0:57:51Z</time></trkpt>
<trkpt lat="46.26798" lon="7.0238"><ele></ele><time>2016-9-26T0:57:54Z</time></trkpt>
<trkpt lat="46.268" lon="7.02374"><ele></ele><time>2016-9-26T0:57:57Z</time></trkpt>
<trkpt lat="46.26802" lon="7.02368"><ele></ele><time>2016-9-26T0:58:0Z</time></trkpt>
<trkpt lat="46.26804" lon="7.02362"><ele></ele><time>2016-9-26T0:58:3Z</time></trkpt>
<trkpt lat="46.26806" lon="7.02356"><ele></ele><time>2016-9-26T0:58:6Z</time></trkpt>
<trkpt lat="46.26808" lon="7.02351"><ele></ele><time>2016-9-26T0:58:9Z</time></trkpt>
<trkpt lat="46.2681" lon="7.02345"><ele></ele><time>2016-9-26T0:58:12Z</time></trkpt>
<trkpt lat="46.26812" lon="7.02339"><ele></ele><time>2016-9-26T0:58:15Z</time></trkpt>
<trkpt lat="46.26814" lon="7.02333"><ele></ele><time>2016-9-26T0:58:18Z</time></trkpt>
<trkpt lat="46.26816" lon="7.02327"><ele></ele><time>2016-9-26T0:58:21Z</time></trkpt>
<trkpt lat="46.26819" lon="7.02322"><ele></ele><time>2016-9-26T0:58:24Z</time></trkpt>
<trkpt lat="46.2682" lon="7.02319"><ele></ele><time>2016-9-26T0:58:27Z</time></trkpt>
<trkpt lat="46.26821" lon="7.02316"><ele></ele><time>2016-9-26T0:58:30Z</time></trkpt>
<trkpt lat="46.26823" lon="7.0231"><ele></ele><time>2016-9-26T0:58:33Z</time></trkpt>
<trkpt lat="46.26825" lon="7.02304"><ele></ele><time>2016-9-26T0:58:36Z</time></trkpt>
<trkpt lat="46.26828" lon="7.02298"><ele></ele><time>2016-9-26T0:58:39Z</time></trkpt>
<trkpt lat="46.2683" lon="7.02292"><ele></ele><time>2016-9-26T0:58:42Z</time></trkpt>
<trkpt lat="46.26832" lon="7.02286"><ele></ele><time>2016-9-26T0:58:45Z</time></trkpt>
<trkpt lat="46.26834" lon="7.0228"><ele></ele><time>2016-9-26T0:58:48Z</time></trkpt>
<trkpt lat="46.26836" lon="7.02274"><ele></ele><time>2016-9-26T0:58:51Z</time></trkpt>
<trkpt lat="46.26839" lon="7.02268"><ele></ele><time>2016-9-26T0:58:54Z</time></trkpt>
<trkpt lat="46.26841" lon="7.02262"><ele></ele><time>2016-9-26T0:58:57Z</time></trkpt>
<trkpt lat="46.26843" lon="7.02255"><ele></ele><time>2016-9-26T0:59:0Z</time></trkpt>
<trkpt lat="46.26846" lon="7.02247"><ele></ele><time>2016-9-26T0:59:3Z</time></trkpt>
<trkpt lat="46.26848" lon="7.0224"><ele></ele><time>2016-9-26T0:59:6Z</time></trkpt>
<trkpt lat="46.2685" lon="7.02232"><ele></ele><time>2016-9-26T0:59:9Z</time></trkpt>
<trkpt lat="46.26853" lon="7.02225"><ele></ele><time>2016-9-26T0:59:12Z</time></trkpt>
<trkpt lat="46.26855" lon="7.02217"><ele></ele><time>2016-9-26T0:59:15Z</time></trkpt>
<trkpt lat="46.26858" lon="7.0221"><ele></ele><time>2016-9-26T0:59:18Z</time></trkpt>
<trkpt lat="46.2686" lon="7.02202"><ele></ele><time>2016-9-26T0:59:21Z</time></trkpt>
<trkpt lat="46.26862" lon="7.02194"><ele></ele><time>2016-9-26T0:59:24Z</time></trkpt>
<trkpt lat="46.26863" lon="7.02185"><ele></ele><time>2016-9-26T0:59:27Z</time></trkpt>
<trkpt lat="46.26865" lon="7.02177"><ele></ele><time>2016-9-26T0:59:30Z</time></trkpt>
<trkpt lat="46.26867" lon="7.02168"><ele></ele><time>2016-9-26T0:59:33Z</time></trkpt>
<trkpt lat="46.26869" lon="7.0216"><ele></ele><time>2016-9-26T0:59:36Z</time></trkpt>
<trkpt lat="46.2687" lon="7.02151"><ele></ele><time>2016-9-26T0:59:39Z</time></trkpt>
<trkpt lat="46.26872" lon="7.02143"><ele></ele><time>2016-9-26T0:59:42Z</time></trkpt>
<trkpt lat="46.26873" lon="7.02138"><ele></ele><time>2016-9-26T0:59:45Z</time></trkpt>
<trkpt lat="46.26874" lon="7.02134"><ele></ele><time>2016-9-26T0:59:48Z</time></trkpt>
<trkpt lat="46.26876" lon="7.02126"><ele></ele><time>2016-9-26T0:59:51Z</time></trkpt>
<trkpt lat="46.26878" lon="7.02118"><ele></ele><time>2016-9-26T0:59:54Z</time></trkpt>
<trkpt lat="46.2688" lon="7.0211"><ele></ele><time>2016-9-26T0:59:57Z</time></trkpt>
<trkpt lat="46.26882" lon="7.02103"><ele></ele><time>2016-9-26T1:0:0Z</time></trkpt>
<trkpt lat="46.26884" lon="7.02099"><ele></ele><time>2016-9-26T1:0:3Z</time></trkpt>
<trkpt lat="46.26886" lon="7.02096"><ele></ele><time>2016-9-26T1:0:6Z</time></trkpt>
<trkpt lat="46.26889" lon="7.02093"><ele></ele><time>2016-9-26T1:0:9Z</time></trkpt>
<trkpt lat="46.26891" lon="7.0209"><ele></ele><time>2016-9-26T1:0:12Z</time></trkpt>
<trkpt lat="46.26897" lon="7.02085"><ele></ele><time>2016-9-26T1:0:15Z</time></trkpt>
<trkpt lat="46.26902" lon="7.02079"><ele></ele><time>2016-9-26T1:0:18Z</time></trkpt>
<trkpt lat="46.26907" lon="7.02073"><ele></ele><time>2016-9-26T1:0:21Z</time></trkpt>
<trkpt lat="46.26912" lon="7.02067"><ele></ele><time>2016-9-26T1:0:24Z</time></trkpt>
<trkpt lat="46.26918" lon="7.02062"><ele></ele><time>2016-9-26T1:0:27Z</time></trkpt>
<trkpt lat="46.26921" lon="7.02059"><ele></ele><time>2016-9-26T1:0:30Z</time></trkpt>
<trkpt lat="46.26926" lon="7.02058"><ele></ele><time>2016-9-26T1:0:33Z</time></trkpt>
<trkpt lat="46.26937" lon="7.02055"><ele></ele><time>2016-9-26T1:0:36Z</time></trkpt>
<trkpt lat="46.26947" lon="7.02052"><ele></ele><time>2016-9-26T1:0:39Z</time></trkpt>
<trkpt lat="46.26958" lon="7.02049"><ele></ele><time>2016-9-26T1:0:42Z</time></trkpt>
<trkpt lat="46.26968" lon="7.02045"><ele></ele><time>2016-9-26T1:0:45Z</time></trkpt>
<trkpt lat="46.26973" lon="7.0204"><ele></ele><time>2016-9-26T1:0:48Z</time></trkpt>
<trkpt lat="46.26977" lon="7.02038"><ele></ele><time>2016-9-26T1:0:51Z</time></trkpt>
<trkpt lat="46.26981" lon="7.02039"><ele></ele><time>2016-9-26T1:0:54Z</time></trkpt>
<trkpt lat="46.26991" lon="7.02041"><ele></ele><time>2016-9-26T1:0:57Z</time></trkpt>
<trkpt lat="46.26996" lon="7.02042"><ele></ele><time>2016-9-26T1:1:0Z</time></trkpt>
<trkpt lat="46.27002" lon="7.02045"><ele></ele><time>2016-9-26T1:1:3Z</time></trkpt>
<trkpt lat="46.27013" lon="7.02051"><ele></ele><time>2016-9-26T1:1:6Z</time></trkpt>
<trkpt lat="46.27025" lon="7.02057"><ele></ele><time>2016-9-26T1:1:9Z</time></trkpt>
<trkpt lat="46.27037" lon="7.02063"><ele></ele><time>2016-9-26T1:1:12Z</time></trkpt>
<trkpt lat="46.27042" lon="7.02065"><ele></ele><time>2016-9-26T1:1:15Z</time></trkpt>
<trkpt lat="46.27047" lon="7.02066"><ele></ele><time>2016-9-26T1:1:18Z</time></trkpt>
<trkpt lat="46.27056" lon="7.02068"><ele></ele><time>2016-9-26T1:1:21Z</time></trkpt>
<trkpt lat="46.2706" lon="7.0207"><ele></ele><time>2016-9-26T1:1:24Z</time></trkpt>
<trkpt lat="46.27062" lon="7.02072"><ele></ele><time>2016-9-26T1:1:27Z</time></trkpt>
<trkpt lat="46.27068" lon="7.02078"><ele></ele><time>2016-9-26T1:1:30Z</time></trkpt>
<trkpt lat="46.27073" lon="7.02083"><ele></ele><time>2016-9-26T1:1:33Z</time></trkpt>
<trkpt lat="46.27078" lon="7.02088"><ele></ele><time>2016-9-26T1:1:36Z</time></trkpt>
<trkpt lat="46.27083" lon="7.02093"><ele></ele><time>2016-9-26T1:1:39Z</time></trkpt>
<trkpt lat="46.27088" lon="7.02098"><ele></ele><time>2016-9-26T1:1:42Z</time></trkpt>
<trkpt lat="46.27091" lon="7.021"><ele></ele><time>2016-9-26T1:1:45Z</time></trkpt>
<trkpt lat="46.27095" lon="7.02099"><ele></ele><time>2016-9-26T1:1:48Z</time></trkpt>
<trkpt lat="46.27102" lon="7.02098"><ele></ele><time>2016-9-26T1:1:51Z</time></trkpt>
<trkpt lat="46.27106" lon="7.02098"><ele></ele><time>2016-9-26T1:1:54Z</time></trkpt>
<trkpt lat="46.27109" lon="7.02097"><ele></ele><time>2016-9-26T1:1:57Z</time></trkpt>
<trkpt lat="46.27117" lon="7.02096"><ele></ele><time>2016-9-26T1:2:0Z</time></trkpt>
<trkpt lat="46.2712" lon="7.02095"><ele></ele><time>2016-9-26T1:2:3Z</time></trkpt>
<trkpt lat="46.27124" lon="7.02095"><ele></ele><time>2016-9-26T1:2:6Z</time></trkpt>
<trkpt lat="46.27128" lon="7.02094"><ele></ele><time>2016-9-26T1:2:9Z</time></trkpt>
<trkpt lat="46.27131" lon="7.02093"><ele></ele><time>2016-9-26T1:2:12Z</time></trkpt>
<trkpt lat="46.27138" lon="7.02092"><ele></ele><time>2016-9-26T1:2:15Z</time></trkpt>
<trkpt lat="46.27144" lon="7.02089"><ele></ele><time>2016-9-26T1:2:18Z</time></trkpt>
<trkpt lat="46.27149" lon="7.02087"><ele></ele><time>2016-9-26T1:2:21Z</time></trkpt>
<trkpt lat="46.27155" lon="7.02084"><ele></ele><time>2016-9-26T1:2:24Z</time></trkpt>
<trkpt lat="46.2716" lon="7.02081"><ele></ele><time>2016-9-26T1:2:27Z</time></trkpt>
<trkpt lat="46.27166" lon="7.02078"><ele></ele><time>2016-9-26T1:2:30Z</time></trkpt>
<trkpt lat="46.27171" lon="7.02076"><ele></ele><time>2016-9-26T1:2:33Z</time></trkpt>
<trkpt lat="46.27174" lon="7.02074"><ele></ele><time>2016-9-26T1:2:36Z</time></trkpt>
<trkpt lat="46.27176" lon="7.02073"><ele></ele><time>2016-9-26T1:2:39Z</time></trkpt>
<trkpt lat="46.27182" lon="7.0207"><ele></ele><time>2016-9-26T1:2:42Z</time></trkpt>
<trkpt lat="46.27186" lon="7.02065"><ele></ele><time>2016-9-26T1:2:45Z</time></trkpt>
<trkpt lat="46.2719" lon="7.0206"><ele></ele><time>2016-9-26T1:2:48Z</time></trkpt>
<trkpt lat="46.27195" lon="7.02056"><ele></ele><time>2016-9-26T1:2:51Z</time></trkpt>
<trkpt lat="46.27199" lon="7.02051"><ele></ele><time>2016-9-26T1:2:54Z</time></trkpt>
<trkpt lat="46.27203" lon="7.02046"><ele></ele><time>2016-9-26T1:2:57Z</time></trkpt>
<trkpt lat="46.27208" lon="7.02041"><ele></ele><time>2016-9-26T1:3:0Z</time></trkpt>
<trkpt lat="46.27212" lon="7.02036"><ele></ele><time>2016-9-26T1:3:3Z</time></trkpt>
<trkpt lat="46.27214" lon="7.02034"><ele></ele><time>2016-9-26T1:3:6Z</time></trkpt>
<trkpt lat="46.27216" lon="7.02033"><ele></ele><time>2016-9-26T1:3:9Z</time></trkpt>
<trkpt lat="46.2722" lon="7.02037"><ele></ele><time>2016-9-26T1:3:12Z</time></trkpt>
<trkpt lat="46.27224" lon="7.02041"><ele></ele><time>2016-9-26T1:3:15Z</time></trkpt>
<trkpt lat="46.27228" lon="7.02045"><ele></ele><time>2016-9-26T1:3:18Z</time></trkpt>
<trkpt lat="46.27232" lon="7.02049"><ele></ele><time>2016-9-26T1:3:21Z</time></trkpt>
<trkpt lat="46.27236" lon="7.02053"><ele></ele><time>2016-9-26T1:3:24Z</time></trkpt>
<trkpt lat="46.2724" lon="7.02056"><ele></ele><time>2016-9-26T1:3:27Z</time></trkpt>
<trkpt lat="46.27244" lon="7.0206"><ele></ele><time>2016-9-26T1:3:30Z</time></trkpt>
<trkpt lat="46.27247" lon="7.02064"><ele></ele><time>2016-9-26T1:3:33Z</time></trkpt>
<trkpt lat="46.27251" lon="7.02068"><ele></ele><time>2016-9-26T1:3:36Z</time></trkpt>
<trkpt lat="46.27253" lon="7.0207"><ele></ele><time>2016-9-26T1:3:39Z</time></trkpt>
<trkpt lat="46.27254" lon="7.02072"><ele></ele><time>2016-9-26T1:3:42Z</time></trkpt>
<trkpt lat="46.27255" lon="7.02075"><ele></ele><time>2016-9-26T1:3:45Z</time></trkpt>
<trkpt lat="46.27256" lon="7.02078"><ele></ele><time>2016-9-26T1:3:48Z</time></trkpt>
<trkpt lat="46.27258" lon="7.02082"><ele></ele><time>2016-9-26T1:3:51Z</time></trkpt>
<trkpt lat="46.27259" lon="7.02085"><ele></ele><time>2016-9-26T1:3:54Z</time></trkpt>
<trkpt lat="46.27261" lon="7.02088"><ele></ele><time>2016-9-26T1:3:57Z</time></trkpt>
<trkpt lat="46.27262" lon="7.02092"><ele></ele><time>2016-9-26T1:4:0Z</time></trkpt>
<trkpt lat="46.27263" lon="7.02095"><ele></ele><time>2016-9-26T1:4:3Z</time></trkpt>
<trkpt lat="46.27265" lon="7.02098"><ele></ele><time>2016-9-26T1:4:6Z</time></trkpt>
<trkpt lat="46.27265" lon="7.021"><ele></ele><time>2016-9-26T1:4:9Z</time></trkpt>
<trkpt lat="46.27266" lon="7.02101"><ele></ele><time>2016-9-26T1:4:12Z</time></trkpt>
<trkpt lat="46.27267" lon="7.02105"><ele></ele><time>2016-9-26T1:4:15Z</time></trkpt>
<trkpt lat="46.27269" lon="7.02108"><ele></ele><time>2016-9-26T1:4:18Z</time></trkpt>
<trkpt lat="46.2727" lon="7.02111"><ele></ele><time>2016-9-26T1:4:21Z</time></trkpt>
<trkpt lat="46.27272" lon="7.02115"><ele></ele><time>2016-9-26T1:4:24Z</time></trkpt>
<trkpt lat="46.27273" lon="7.02118"><ele></ele><time>2016-9-26T1:4:27Z</time></trkpt>
<trkpt lat="46.27274" lon="7.02121"><ele></ele><time>2016-9-26T1:4:30Z</time></trkpt>
<trkpt lat="46.27276" lon="7.02124"><ele></ele><time>2016-9-26T1:4:33Z</time></trkpt>
<trkpt lat="46.27277" lon="7.02128"><ele></ele><time>2016-9-26T1:4:36Z</time></trkpt>
<trkpt lat="46.27282" lon="7.02132"><ele></ele><time>2016-9-26T1:4:39Z</time></trkpt>
<trkpt lat="46.27287" lon="7.02137"><ele></ele><time>2016-9-26T1:4:42Z</time></trkpt>
<trkpt lat="46.27292" lon="7.02142"><ele></ele><time>2016-9-26T1:4:45Z</time></trkpt>
<trkpt lat="46.27297" lon="7.02146"><ele></ele><time>2016-9-26T1:4:48Z</time></trkpt>
<trkpt lat="46.27302" lon="7.02151"><ele></ele><time>2016-9-26T1:4:51Z</time></trkpt>
<trkpt lat="46.27307" lon="7.02156"><ele></ele><time>2016-9-26T1:4:54Z</time></trkpt>
<trkpt lat="46.27312" lon="7.0216"><ele></ele><time>2016-9-26T1:4:57Z</time></trkpt>
<trkpt lat="46.27317" lon="7.02165"><ele></ele><time>2016-9-26T1:5:0Z</time></trkpt>
<trkpt lat="46.27321" lon="7.0217"><ele></ele><time>2016-9-26T1:5:3Z</time></trkpt>
<trkpt lat="46.27325" lon="7.02175"><ele></ele><time>2016-9-26T1:5:6Z</time></trkpt>
<trkpt lat="46.27327" lon="7.02178"><ele></ele><time>2016-9-26T1:5:9Z</time></trkpt>
<trkpt lat="46.27329" lon="7.02181"><ele></ele><time>2016-9-26T1:5:12Z</time></trkpt>
<trkpt lat="46.27333" lon="7.02186"><ele></ele><time>2016-9-26T1:5:15Z</time></trkpt>
<trkpt lat="46.27337" lon="7.02191"><ele></ele><time>2016-9-26T1:5:18Z</time></trkpt>
<trkpt lat="46.27341" lon="7.02196"><ele></ele><time>2016-9-26T1:5:21Z</time></trkpt>
<trkpt lat="46.27349" lon="7.022"><ele></ele><time>2016-9-26T1:5:24Z</time></trkpt>
<trkpt lat="46.27357" lon="7.02204"><ele></ele><time>2016-9-26T1:5:27Z</time></trkpt>
<trkpt lat="46.27364" lon="7.02208"><ele></ele><time>2016-9-26T1:5:30Z</time></trkpt>
<trkpt lat="46.27372" lon="7.02212"><ele></ele><time>2016-9-26T1:5:33Z</time></trkpt>
<trkpt lat="46.2738" lon="7.02216"><ele></ele><time>2016-9-26T1:5:36Z</time></trkpt>
<trkpt lat="46.27383" lon="7.02218"><ele></ele><time>2016-9-26T1:5:39Z</time></trkpt>
<trkpt lat="46.27384" lon="7.02219"><ele></ele><time>2016-9-26T1:5:42Z</time></trkpt>
<trkpt lat="46.27397" lon="7.02229"><ele></ele><time>2016-9-26T1:5:45Z</time></trkpt>
<trkpt lat="46.27397" lon="7.02229"><ele></ele><time>2016-9-26T1:5:48Z</time></trkpt>
<trkpt lat="46.27409" lon="7.02237"><ele></ele><time>2016-9-26T1:5:51Z</time></trkpt>
<trkpt lat="46.27411" lon="7.0224"><ele></ele><time>2016-9-26T1:5:54Z</time></trkpt>
<trkpt lat="46.27413" lon="7.02243"><ele></ele><time>2016-9-26T1:5:57Z</time></trkpt>
<trkpt lat="46.27415" lon="7.02246"><ele></ele><time>2016-9-26T1:6:0Z</time></trkpt>
<trkpt lat="46.27417" lon="7.02249"><ele></ele><time>2016-9-26T1:6:3Z</time></trkpt>
<trkpt lat="46.27418" lon="7.0225"><ele></ele><time>2016-9-26T1:6:6Z</time></trkpt>
<trkpt lat="46.2742" lon="7.02251"><ele></ele><time>2016-9-26T1:6:9Z</time></trkpt>
<trkpt lat="46.27422" lon="7.02254"><ele></ele><time>2016-9-26T1:6:12Z</time></trkpt>
<trkpt lat="46.27424" lon="7.02257"><ele></ele><time>2016-9-26T1:6:15Z</time></trkpt>
<trkpt lat="46.27426" lon="7.0226"><ele></ele><time>2016-9-26T1:6:18Z</time></trkpt>
<trkpt lat="46.27428" lon="7.02262"><ele></ele><time>2016-9-26T1:6:21Z</time></trkpt>
<trkpt lat="46.2743" lon="7.02265"><ele></ele><time>2016-9-26T1:6:24Z</time></trkpt>
<trkpt lat="46.27432" lon="7.02268"><ele></ele><time>2016-9-26T1:6:27Z</time></trkpt>
<trkpt lat="46.27434" lon="7.02271"><ele></ele><time>2016-9-26T1:6:30Z</time></trkpt>
<trkpt lat="46.27436" lon="7.02274"><ele></ele><time>2016-9-26T1:6:33Z</time></trkpt>
<trkpt lat="46.27438" lon="7.02276"><ele></ele><time>2016-9-26T1:6:36Z</time></trkpt>
<trkpt lat="46.27441" lon="7.02279"><ele></ele><time>2016-9-26T1:6:39Z</time></trkpt>
<trkpt lat="46.27442" lon="7.02281"><ele></ele><time>2016-9-26T1:6:42Z</time></trkpt>
<trkpt lat="46.27443" lon="7.02282"><ele></ele><time>2016-9-26T1:6:45Z</time></trkpt>
<trkpt lat="46.27445" lon="7.02287"><ele></ele><time>2016-9-26T1:6:48Z</time></trkpt>
<trkpt lat="46.27447" lon="7.02292"><ele></ele><time>2016-9-26T1:6:51Z</time></trkpt>
<trkpt lat="46.27448" lon="7.02294"><ele></ele><time>2016-9-26T1:6:54Z</time></trkpt>
<trkpt lat="46.27449" lon="7.02297"><ele></ele><time>2016-9-26T1:6:57Z</time></trkpt>
<trkpt lat="46.27451" lon="7.02302"><ele></ele><time>2016-9-26T1:7:0Z</time></trkpt>
<trkpt lat="46.27453" lon="7.02306"><ele></ele><time>2016-9-26T1:7:3Z</time></trkpt>
<trkpt lat="46.27455" lon="7.02311"><ele></ele><time>2016-9-26T1:7:6Z</time></trkpt>
<trkpt lat="46.27457" lon="7.02316"><ele></ele><time>2016-9-26T1:7:9Z</time></trkpt>
<trkpt lat="46.27459" lon="7.02321"><ele></ele><time>2016-9-26T1:7:12Z</time></trkpt>
<trkpt lat="46.27461" lon="7.02326"><ele></ele><time>2016-9-26T1:7:15Z</time></trkpt>
<trkpt lat="46.27463" lon="7.02331"><ele></ele><time>2016-9-26T1:7:18Z</time></trkpt>
<trkpt lat="46.27465" lon="7.02335"><ele></ele><time>2016-9-26T1:7:21Z</time></trkpt>
<trkpt lat="46.27466" lon="7.02337"><ele></ele><time>2016-9-26T1:7:24Z</time></trkpt>
<trkpt lat="46.27466" lon="7.02338"><ele></ele><time>2016-9-26T1:7:27Z</time></trkpt>
<trkpt lat="46.27467" lon="7.0234"><ele></ele><time>2016-9-26T1:7:30Z</time></trkpt>
<trkpt lat="46.27468" lon="7.02341"><ele></ele><time>2016-9-26T1:7:33Z</time></trkpt>
<trkpt lat="46.27469" lon="7.02343"><ele></ele><time>2016-9-26T1:7:36Z</time></trkpt>
<trkpt lat="46.2747" lon="7.02344"><ele></ele><time>2016-9-26T1:7:39Z</time></trkpt>
<trkpt lat="46.2747" lon="7.02345"><ele></ele><time>2016-9-26T1:7:42Z</time></trkpt>
<trkpt lat="46.27471" lon="7.02346"><ele></ele><time>2016-9-26T1:7:45Z</time></trkpt>
<trkpt lat="46.27472" lon="7.02347"><ele></ele><time>2016-9-26T1:7:48Z</time></trkpt>
<trkpt lat="46.27472" lon="7.02348"><ele></ele><time>2016-9-26T1:7:51Z</time></trkpt>
<trkpt lat="46.27473" lon="7.02351"><ele></ele><time>2016-9-26T1:7:54Z</time></trkpt>
<trkpt lat="46.27474" lon="7.02353"><ele></ele><time>2016-9-26T1:7:57Z</time></trkpt>
<trkpt lat="46.27476" lon="7.02355"><ele></ele><time>2016-9-26T1:8:0Z</time></trkpt>
<trkpt lat="46.27478" lon="7.0236"><ele></ele><time>2016-9-26T1:8:3Z</time></trkpt>
<trkpt lat="46.2748" lon="7.02364"><ele></ele><time>2016-9-26T1:8:6Z</time></trkpt>
<trkpt lat="46.27482" lon="7.02369"><ele></ele><time>2016-9-26T1:8:9Z</time></trkpt>
<trkpt lat="46.27484" lon="7.02373"><ele></ele><time>2016-9-26T1:8:12Z</time></trkpt>
<trkpt lat="46.27486" lon="7.02377"><ele></ele><time>2016-9-26T1:8:15Z</time></trkpt>
<trkpt lat="46.27488" lon="7.02382"><ele></ele><time>2016-9-26T1:8:18Z</time></trkpt>
<trkpt lat="46.2749" lon="7.02386"><ele></ele><time>2016-9-26T1:8:21Z</time></trkpt>
<trkpt lat="46.27492" lon="7.02391"><ele></ele><time>2016-9-26T1:8:24Z</time></trkpt>
<trkpt lat="46.27495" lon="7.02395"><ele></ele><time>2016-9-26T1:8:27Z</time></trkpt>
<trkpt lat="46.27497" lon="7.024"><ele></ele><time>2016-9-26T1:8:30Z</time></trkpt>
<trkpt lat="46.275" lon="7.02405"><ele></ele><time>2016-9-26T1:8:33Z</time></trkpt>
<trkpt lat="46.27508" lon="7.02416"><ele></ele><time>2016-9-26T1:8:36Z</time></trkpt>
<trkpt lat="46.27516" lon="7.02426"><ele></ele><time>2016-9-26T1:8:39Z</time></trkpt>
<trkpt lat="46.27526" lon="7.02437"><ele></ele><time>2016-9-26T1:8:42Z</time></trkpt>
<trkpt lat="46.27535" lon="7.02438"><ele></ele><time>2016-9-26T1:8:45Z</time></trkpt>
<trkpt lat="46.27542" lon="7.02435"><ele></ele><time>2016-9-26T1:8:48Z</time></trkpt>
<trkpt lat="46.27549" lon="7.02432"><ele></ele><time>2016-9-26T1:8:51Z</time></trkpt>
<trkpt lat="46.27555" lon="7.02433"><ele></ele><time>2016-9-26T1:8:54Z</time></trkpt>
<trkpt lat="46.2756" lon="7.02436"><ele></ele><time>2016-9-26T1:8:57Z</time></trkpt>
<trkpt lat="46.27562" lon="7.02441"><ele></ele><time>2016-9-26T1:9:0Z</time></trkpt>
<trkpt lat="46.27564" lon="7.02446"><ele></ele><time>2016-9-26T1:9:3Z</time></trkpt>
<trkpt lat="46.27563" lon="7.02451"><ele></ele><time>2016-9-26T1:9:6Z</time></trkpt>
<trkpt lat="46.27562" lon="7.02455"><ele></ele><time>2016-9-26T1:9:9Z</time></trkpt>
<trkpt lat="46.27565" lon="7.02461"><ele></ele><time>2016-9-26T1:9:12Z</time></trkpt>
<trkpt lat="46.27569" lon="7.02473"><ele></ele><time>2016-9-26T1:9:15Z</time></trkpt>
<trkpt lat="46.27573" lon="7.02485"><ele></ele><time>2016-9-26T1:9:18Z</time></trkpt>
<trkpt lat="46.27578" lon="7.02496"><ele></ele><time>2016-9-26T1:9:21Z</time></trkpt>
<trkpt lat="46.27582" lon="7.02508"><ele></ele><time>2016-9-26T1:9:24Z</time></trkpt>
<trkpt lat="46.27586" lon="7.02519"><ele></ele><time>2016-9-26T1:9:27Z</time></trkpt>
<trkpt lat="46.2759" lon="7.0253"><ele></ele><time>2016-9-26T1:9:30Z</time></trkpt>
<trkpt lat="46.27597" lon="7.02538"><ele></ele><time>2016-9-26T1:9:33Z</time></trkpt>
<trkpt lat="46.27602" lon="7.02548"><ele></ele><time>2016-9-26T1:9:36Z</time></trkpt>
<trkpt lat="46.27608" lon="7.0255"><ele></ele><time>2016-9-26T1:9:39Z</time></trkpt>
<trkpt lat="46.27611" lon="7.02555"><ele></ele><time>2016-9-26T1:9:42Z</time></trkpt>
<trkpt lat="46.27618" lon="7.02563"><ele></ele><time>2016-9-26T1:9:45Z</time></trkpt>
<trkpt lat="46.2762" lon="7.02568"><ele></ele><time>2016-9-26T1:9:48Z</time></trkpt>
<trkpt lat="46.27623" lon="7.02574"><ele></ele><time>2016-9-26T1:9:51Z</time></trkpt>
<trkpt lat="46.27628" lon="7.0258"><ele></ele><time>2016-9-26T1:9:54Z</time></trkpt>
<trkpt lat="46.27631" lon="7.02579"><ele></ele><time>2016-9-26T1:9:57Z</time></trkpt>
<trkpt lat="46.27637" lon="7.02578"><ele></ele><time>2016-9-26T1:10:0Z</time></trkpt>
<trkpt lat="46.27644" lon="7.02576"><ele></ele><time>2016-9-26T1:10:3Z</time></trkpt>
<trkpt lat="46.2765" lon="7.02575"><ele></ele><time>2016-9-26T1:10:6Z</time></trkpt>
<trkpt lat="46.27657" lon="7.02574"><ele></ele><time>2016-9-26T1:10:9Z</time></trkpt>
<trkpt lat="46.27666" lon="7.02577"><ele></ele><time>2016-9-26T1:10:12Z</time></trkpt>
<trkpt lat="46.27676" lon="7.0258"><ele></ele><time>2016-9-26T1:10:15Z</time></trkpt>
<trkpt lat="46.2768" lon="7.02581"><ele></ele><time>2016-9-26T1:10:18Z</time></trkpt>
<trkpt lat="46.27683" lon="7.02581"><ele></ele><time>2016-9-26T1:10:21Z</time></trkpt>
<trkpt lat="46.27689" lon="7.02579"><ele></ele><time>2016-9-26T1:10:24Z</time></trkpt>
<trkpt lat="46.27692" lon="7.02579"><ele></ele><time>2016-9-26T1:10:27Z</time></trkpt>
<trkpt lat="46.27695" lon="7.02582"><ele></ele><time>2016-9-26T1:10:30Z</time></trkpt>
<trkpt lat="46.277" lon="7.02589"><ele></ele><time>2016-9-26T1:10:33Z</time></trkpt>
<trkpt lat="46.27705" lon="7.02596"><ele></ele><time>2016-9-26T1:10:36Z</time></trkpt>
<trkpt lat="46.27711" lon="7.02602"><ele></ele><time>2016-9-26T1:10:39Z</time></trkpt>
<trkpt lat="46.27721" lon="7.02606"><ele></ele><time>2016-9-26T1:10:42Z</time></trkpt>
<trkpt lat="46.27731" lon="7.02609"><ele></ele><time>2016-9-26T1:10:45Z</time></trkpt>
<trkpt lat="46.27741" lon="7.02613"><ele></ele><time>2016-9-26T1:10:48Z</time></trkpt>
<trkpt lat="46.27746" lon="7.02615"><ele></ele><time>2016-9-26T1:10:51Z</time></trkpt>
<trkpt lat="46.27747" lon="7.02617"><ele></ele><time>2016-9-26T1:10:54Z</time></trkpt>
<trkpt lat="46.2775" lon="7.02622"><ele></ele><time>2016-9-26T1:10:57Z</time></trkpt>
<trkpt lat="46.27753" lon="7.02626"><ele></ele><time>2016-9-26T1:11:0Z</time></trkpt>
<trkpt lat="46.27756" lon="7.0263"><ele></ele><time>2016-9-26T1:11:3Z</time></trkpt>
<trkpt lat="46.27759" lon="7.02635"><ele></ele><time>2016-9-26T1:11:6Z</time></trkpt>
<trkpt lat="46.27762" lon="7.02639"><ele></ele><time>2016-9-26T1:11:9Z</time></trkpt>
<trkpt lat="46.27765" lon="7.02644"><ele></ele><time>2016-9-26T1:11:12Z</time></trkpt>
<trkpt lat="46.27768" lon="7.02648"><ele></ele><time>2016-9-26T1:11:15Z</time></trkpt>
<trkpt lat="46.27771" lon="7.02652"><ele></ele><time>2016-9-26T1:11:18Z</time></trkpt>
<trkpt lat="46.27774" lon="7.02657"><ele></ele><time>2016-9-26T1:11:21Z</time></trkpt>
<trkpt lat="46.27775" lon="7.02658"><ele></ele><time>2016-9-26T1:11:24Z</time></trkpt>
<trkpt lat="46.27774" lon="7.02656"><ele></ele><time>2016-9-26T1:11:27Z</time></trkpt>
<trkpt lat="46.27773" lon="7.02652"><ele></ele><time>2016-9-26T1:11:30Z</time></trkpt>
<trkpt lat="46.27771" lon="7.02648"><ele></ele><time>2016-9-26T1:11:33Z</time></trkpt>
<trkpt lat="46.2777" lon="7.02644"><ele></ele><time>2016-9-26T1:11:36Z</time></trkpt>
<trkpt lat="46.27769" lon="7.0264"><ele></ele><time>2016-9-26T1:11:39Z</time></trkpt>
<trkpt lat="46.27768" lon="7.02639"><ele></ele><time>2016-9-26T1:11:42Z</time></trkpt>
<trkpt lat="46.27767" lon="7.02641"><ele></ele><time>2016-9-26T1:11:45Z</time></trkpt>
<trkpt lat="46.27766" lon="7.02645"><ele></ele><time>2016-9-26T1:11:48Z</time></trkpt>
<trkpt lat="46.27765" lon="7.02649"><ele></ele><time>2016-9-26T1:11:51Z</time></trkpt>
<trkpt lat="46.27764" lon="7.02653"><ele></ele><time>2016-9-26T1:11:54Z</time></trkpt>
<trkpt lat="46.27764" lon="7.02655"><ele></ele><time>2016-9-26T1:11:57Z</time></trkpt>
<trkpt lat="46.27765" lon="7.02657"><ele></ele><time>2016-9-26T1:12:0Z</time></trkpt>
<trkpt lat="46.27767" lon="7.0266"><ele></ele><time>2016-9-26T1:12:3Z</time></trkpt>
<trkpt lat="46.2777" lon="7.02663"><ele></ele><time>2016-9-26T1:12:6Z</time></trkpt>
<trkpt lat="46.27772" lon="7.02666"><ele></ele><time>2016-9-26T1:12:9Z</time></trkpt>
<trkpt lat="46.27774" lon="7.02669"><ele></ele><time>2016-9-26T1:12:12Z</time></trkpt>
<trkpt lat="46.27776" lon="7.02672"><ele></ele><time>2016-9-26T1:12:15Z</time></trkpt>
<trkpt lat="46.27778" lon="7.02675"><ele></ele><time>2016-9-26T1:12:18Z</time></trkpt>
<trkpt lat="46.2778" lon="7.02678"><ele></ele><time>2016-9-26T1:12:21Z</time></trkpt>
<trkpt lat="46.27783" lon="7.02681"><ele></ele><time>2016-9-26T1:12:24Z</time></trkpt>
<trkpt lat="46.27785" lon="7.02684"><ele></ele><time>2016-9-26T1:12:27Z</time></trkpt>
<trkpt lat="46.27787" lon="7.02688"><ele></ele><time>2016-9-26T1:12:30Z</time></trkpt>
<trkpt lat="46.27788" lon="7.02688"><ele></ele><time>2016-9-26T1:12:33Z</time></trkpt>
<trkpt lat="46.27789" lon="7.02686"><ele></ele><time>2016-9-26T1:12:36Z</time></trkpt>
<trkpt lat="46.2779" lon="7.02682"><ele></ele><time>2016-9-26T1:12:39Z</time></trkpt>
<trkpt lat="46.27786" lon="7.02678"><ele></ele><time>2016-9-26T1:12:42Z</time></trkpt>
<trkpt lat="46.27782" lon="7.02674"><ele></ele><time>2016-9-26T1:12:45Z</time></trkpt>
<trkpt lat="46.27778" lon="7.0267"><ele></ele><time>2016-9-26T1:12:48Z</time></trkpt>
<trkpt lat="46.27774" lon="7.02667"><ele></ele><time>2016-9-26T1:12:51Z</time></trkpt>
<trkpt lat="46.2777" lon="7.02662"><ele></ele><time>2016-9-26T1:12:54Z</time></trkpt>
<trkpt lat="46.27767" lon="7.02653"><ele></ele><time>2016-9-26T1:12:57Z</time></trkpt>
<trkpt lat="46.27764" lon="7.02643"><ele></ele><time>2016-9-26T1:13:0Z</time></trkpt>
<trkpt lat="46.27761" lon="7.02633"><ele></ele><time>2016-9-26T1:13:3Z</time></trkpt>
<trkpt lat="46.27758" lon="7.02624"><ele></ele><time>2016-9-26T1:13:6Z</time></trkpt>
<trkpt lat="46.27756" lon="7.02619"><ele></ele><time>2016-9-26T1:13:9Z</time></trkpt>
<trkpt lat="46.27751" lon="7.02613"><ele></ele><time>2016-9-26T1:13:12Z</time></trkpt>
<trkpt lat="46.27743" lon="7.02602"><ele></ele><time>2016-9-26T1:13:15Z</time></trkpt>
<trkpt lat="46.27735" lon="7.02591"><ele></ele><time>2016-9-26T1:13:18Z</time></trkpt>
<trkpt lat="46.27726" lon="7.0258"><ele></ele><time>2016-9-26T1:13:21Z</time></trkpt>
<trkpt lat="46.27718" lon="7.0257"><ele></ele><time>2016-9-26T1:13:24Z</time></trkpt>
<trkpt lat="46.27712" lon="7.02563"><ele></ele><time>2016-9-26T1:13:27Z</time></trkpt>
<trkpt lat="46.27706" lon="7.02556"><ele></ele><time>2016-9-26T1:13:30Z</time></trkpt>
<trkpt lat="46.27699" lon="7.02551"><ele></ele><time>2016-9-26T1:13:33Z</time></trkpt>
<trkpt lat="46.27688" lon="7.02551"><ele></ele><time>2016-9-26T1:13:36Z</time></trkpt>
<trkpt lat="46.27676" lon="7.02552"><ele></ele><time>2016-9-26T1:13:39Z</time></trkpt>
<trkpt lat="46.27664" lon="7.02552"><ele></ele><time>2016-9-26T1:13:42Z</time></trkpt>
<trkpt lat="46.27648" lon="7.0255"><ele></ele><time>2016-9-26T1:13:45Z</time></trkpt>
<trkpt lat="46.27633" lon="7.02548"><ele></ele><time>2016-9-26T1:13:48Z</time></trkpt>
<trkpt lat="46.27617" lon="7.02545"><ele></ele><time>2016-9-26T1:13:51Z</time></trkpt>
<trkpt lat="46.27605" lon="7.02532"><ele></ele><time>2016-9-26T1:13:54Z</time></trkpt>
<trkpt lat="46.27599" lon="7.02507"><ele></ele><time>2016-9-26T1:13:57Z</time></trkpt>
<trkpt lat="46.27593" lon="7.02481"><ele></ele><time>2016-9-26T1:14:0Z</time></trkpt>
<trkpt lat="46.27589" lon="7.02452"><ele></ele><time>2016-9-26T1:14:3Z</time></trkpt>
<trkpt lat="46.27586" lon="7.02437"><ele></ele><time>2016-9-26T1:14:6Z</time></trkpt>
<trkpt lat="46.27581" lon="7.02423"><ele></ele><time>2016-9-26T1:14:9Z</time></trkpt>
<trkpt lat="46.27569" lon="7.02394"><ele></ele><time>2016-9-26T1:14:12Z</time></trkpt>
<trkpt lat="46.27557" lon="7.02372"><ele></ele><time>2016-9-26T1:14:15Z</time></trkpt>
<trkpt lat="46.27548" lon="7.02349"><ele></ele><time>2016-9-26T1:14:18Z</time></trkpt>
<trkpt lat="46.27529" lon="7.02304"><ele></ele><time>2016-9-26T1:14:21Z</time></trkpt>
<trkpt lat="46.27511" lon="7.02264"><ele></ele><time>2016-9-26T1:14:24Z</time></trkpt>
<trkpt lat="46.27496" lon="7.02239"><ele></ele><time>2016-9-26T1:14:27Z</time></trkpt>
<trkpt lat="46.27491" lon="7.02221"><ele></ele><time>2016-9-26T1:14:30Z</time></trkpt>
<trkpt lat="46.27493" lon="7.02216"><ele></ele><time>2016-9-26T1:14:33Z</time></trkpt>
<trkpt lat="46.27497" lon="7.02215"><ele></ele><time>2016-9-26T1:14:36Z</time></trkpt>
<trkpt lat="46.27501" lon="7.02214"><ele></ele><time>2016-9-26T1:14:39Z</time></trkpt>
<trkpt lat="46.27504" lon="7.02212"><ele></ele><time>2016-9-26T1:14:42Z</time></trkpt>
<trkpt lat="46.27507" lon="7.02206"><ele></ele><time>2016-9-26T1:14:45Z</time></trkpt>
<trkpt lat="46.27506" lon="7.02201"><ele></ele><time>2016-9-26T1:14:48Z</time></trkpt>
<trkpt lat="46.27501" lon="7.02194"><ele></ele><time>2016-9-26T1:14:51Z</time></trkpt>
<trkpt lat="46.27491" lon="7.02179"><ele></ele><time>2016-9-26T1:14:54Z</time></trkpt>
<trkpt lat="46.27481" lon="7.02165"><ele></ele><time>2016-9-26T1:14:57Z</time></trkpt>
<trkpt lat="46.27471" lon="7.02149"><ele></ele><time>2016-9-26T1:15:0Z</time></trkpt>
<trkpt lat="46.27465" lon="7.02138"><ele></ele><time>2016-9-26T1:15:3Z</time></trkpt>
<trkpt lat="46.27458" lon="7.02126"><ele></ele><time>2016-9-26T1:15:6Z</time></trkpt>
<trkpt lat="46.27445" lon="7.02103"><ele></ele><time>2016-9-26T1:15:9Z</time></trkpt>
<trkpt lat="46.27439" lon="7.02092"><ele></ele><time>2016-9-26T1:15:12Z</time></trkpt>
<trkpt lat="46.27432" lon="7.02079"><ele></ele><time>2016-9-26T1:15:15Z</time></trkpt>
<trkpt lat="46.27426" lon="7.02066"><ele></ele><time>2016-9-26T1:15:18Z</time></trkpt>
<trkpt lat="46.27419" lon="7.02053"><ele></ele><time>2016-9-26T1:15:21Z</time></trkpt>
<trkpt lat="46.27406" lon="7.02027"><ele></ele><time>2016-9-26T1:15:24Z</time></trkpt>
<trkpt lat="46.27391" lon="7.01999"><ele></ele><time>2016-9-26T1:15:27Z</time></trkpt>
<trkpt lat="46.27377" lon="7.01971"><ele></ele><time>2016-9-26T1:15:30Z</time></trkpt>
<trkpt lat="46.27363" lon="7.01942"><ele></ele><time>2016-9-26T1:15:33Z</time></trkpt>
<trkpt lat="46.27349" lon="7.01913"><ele></ele><time>2016-9-26T1:15:36Z</time></trkpt>
<trkpt lat="46.27333" lon="7.01885"><ele></ele><time>2016-9-26T1:15:39Z</time></trkpt>
<trkpt lat="46.27317" lon="7.01857"><ele></ele><time>2016-9-26T1:15:42Z</time></trkpt>
<trkpt lat="46.27309" lon="7.01842"><ele></ele><time>2016-9-26T1:15:45Z</time></trkpt>
<trkpt lat="46.27302" lon="7.01827"><ele></ele><time>2016-9-26T1:15:48Z</time></trkpt>
<trkpt lat="46.27286" lon="7.01798"><ele></ele><time>2016-9-26T1:15:51Z</time></trkpt>
<trkpt lat="46.27271" lon="7.0177"><ele></ele><time>2016-9-26T1:15:54Z</time></trkpt>
<trkpt lat="46.27263" lon="7.01757"><ele></ele><time>2016-9-26T1:15:57Z</time></trkpt>
<trkpt lat="46.27255" lon="7.01743"><ele></ele><time>2016-9-26T1:16:0Z</time></trkpt>
<trkpt lat="46.27239" lon="7.01714"><ele></ele><time>2016-9-26T1:16:3Z</time></trkpt>
<trkpt lat="46.27223" lon="7.01684"><ele></ele><time>2016-9-26T1:16:6Z</time></trkpt>
<trkpt lat="46.27207" lon="7.01651"><ele></ele><time>2016-9-26T1:16:9Z</time></trkpt>
<trkpt lat="46.27191" lon="7.01619"><ele></ele><time>2016-9-26T1:16:12Z</time></trkpt>
<trkpt lat="46.27177" lon="7.01586"><ele></ele><time>2016-9-26T1:16:15Z</time></trkpt>
<trkpt lat="46.27163" lon="7.01552"><ele></ele><time>2016-9-26T1:16:18Z</time></trkpt>
<trkpt lat="46.27152" lon="7.01517"><ele></ele><time>2016-9-26T1:16:21Z</time></trkpt>
<trkpt lat="46.2714" lon="7.01482"><ele></ele><time>2016-9-26T1:16:24Z</time></trkpt>
<trkpt lat="46.27133" lon="7.0145"><ele></ele><time>2016-9-26T1:16:27Z</time></trkpt>
<trkpt lat="46.2713" lon="7.01436"><ele></ele><time>2016-9-26T1:16:30Z</time></trkpt>
<trkpt lat="46.27127" lon="7.01428"><ele></ele><time>2016-9-26T1:16:33Z</time></trkpt>
<trkpt lat="46.27125" lon="7.0142"><ele></ele><time>2016-9-26T1:16:36Z</time></trkpt>
<trkpt lat="46.27126" lon="7.01413"><ele></ele><time>2016-9-26T1:16:39Z</time></trkpt>
<trkpt lat="46.2713" lon="7.01405"><ele></ele><time>2016-9-26T1:16:42Z</time></trkpt>
<trkpt lat="46.27136" lon="7.014"><ele></ele><time>2016-9-26T1:16:45Z</time></trkpt>
<trkpt lat="46.27148" lon="7.01388"><ele></ele><time>2016-9-26T1:16:48Z</time></trkpt>
<trkpt lat="46.27154" lon="7.01382"><ele></ele><time>2016-9-26T1:16:51Z</time></trkpt>
<trkpt lat="46.2716" lon="7.01376"><ele></ele><time>2016-9-26T1:16:54Z</time></trkpt>
<trkpt lat="46.27172" lon="7.01364"><ele></ele><time>2016-9-26T1:16:57Z</time></trkpt>
<trkpt lat="46.27187" lon="7.0135"><ele></ele><time>2016-9-26T1:17:0Z</time></trkpt>
<trkpt lat="46.27201" lon="7.01335"><ele></ele><time>2016-9-26T1:17:3Z</time></trkpt>
<trkpt lat="46.27216" lon="7.01321"><ele></ele><time>2016-9-26T1:17:6Z</time></trkpt>
<trkpt lat="46.2723" lon="7.01306"><ele></ele><time>2016-9-26T1:17:9Z</time></trkpt>
<trkpt lat="46.27245" lon="7.01292"><ele></ele><time>2016-9-26T1:17:12Z</time></trkpt>
<trkpt lat="46.27253" lon="7.01284"><ele></ele><time>2016-9-26T1:17:15Z</time></trkpt>
<trkpt lat="46.27261" lon="7.01276"><ele></ele><time>2016-9-26T1:17:18Z</time></trkpt>
<trkpt lat="46.27278" lon="7.01259"><ele></ele><time>2016-9-26T1:17:21Z</time></trkpt>
<trkpt lat="46.27285" lon="7.01249"><ele></ele><time>2016-9-26T1:17:24Z</time></trkpt>
<trkpt lat="46.27289" lon="7.01234"><ele></ele><time>2016-9-26T1:17:27Z</time></trkpt>
<trkpt lat="46.27299" lon="7.01204"><ele></ele><time>2016-9-26T1:17:30Z</time></trkpt>
<trkpt lat="46.27303" lon="7.01188"><ele></ele><time>2016-9-26T1:17:33Z</time></trkpt>
<trkpt lat="46.27306" lon="7.0117"><ele></ele><time>2016-9-26T1:17:36Z</time></trkpt>
<trkpt lat="46.27307" lon="7.01134"><ele></ele><time>2016-9-26T1:17:39Z</time></trkpt>
<trkpt lat="46.27304" lon="7.011"><ele></ele><time>2016-9-26T1:17:42Z</time></trkpt>
<trkpt lat="46.27301" lon="7.01066"><ele></ele><time>2016-9-26T1:17:45Z</time></trkpt>
<trkpt lat="46.27301" lon="7.01033"><ele></ele><time>2016-9-26T1:17:48Z</time></trkpt>
<trkpt lat="46.27307" lon="7.01001"><ele></ele><time>2016-9-26T1:17:51Z</time></trkpt>
<trkpt lat="46.27314" lon="7.00971"><ele></ele><time>2016-9-26T1:17:54Z</time></trkpt>
<trkpt lat="46.27329" lon="7.00946"><ele></ele><time>2016-9-26T1:17:57Z</time></trkpt>
<trkpt lat="46.27337" lon="7.00936"><ele></ele><time>2016-9-26T1:18:0Z</time></trkpt>
<trkpt lat="46.27348" lon="7.00932"><ele></ele><time>2016-9-26T1:18:3Z</time></trkpt>
<trkpt lat="46.27358" lon="7.0093"><ele></ele><time>2016-9-26T1:18:6Z</time></trkpt>
<trkpt lat="46.27369" lon="7.00931"><ele></ele><time>2016-9-26T1:18:9Z</time></trkpt>
<trkpt lat="46.2739" lon="7.00932"><ele></ele><time>2016-9-26T1:18:12Z</time></trkpt>
<trkpt lat="46.27411" lon="7.00933"><ele></ele><time>2016-9-26T1:18:15Z</time></trkpt>
<trkpt lat="46.2743" lon="7.00925"><ele></ele><time>2016-9-26T1:18:18Z</time></trkpt>
<trkpt lat="46.27444" lon="7.00907"><ele></ele><time>2016-9-26T1:18:21Z</time></trkpt>
<trkpt lat="46.27452" lon="7.00898"><ele></ele><time>2016-9-26T1:18:24Z</time></trkpt>
<trkpt lat="46.27459" lon="7.0089"><ele></ele><time>2016-9-26T1:18:27Z</time></trkpt>
<trkpt lat="46.27466" lon="7.00881"><ele></ele><time>2016-9-26T1:18:30Z</time></trkpt>
<trkpt lat="46.27473" lon="7.00872"><ele></ele><time>2016-9-26T1:18:33Z</time></trkpt>
<trkpt lat="46.27481" lon="7.00864"><ele></ele><time>2016-9-26T1:18:36Z</time></trkpt>
<trkpt lat="46.27488" lon="7.00861"><ele></ele><time>2016-9-26T1:18:39Z</time></trkpt>
<trkpt lat="46.27504" lon="7.00864"><ele></ele><time>2016-9-26T1:18:42Z</time></trkpt>
<trkpt lat="46.2752" lon="7.00866"><ele></ele><time>2016-9-26T1:18:45Z</time></trkpt>
<trkpt lat="46.27534" lon="7.00869"><ele></ele><time>2016-9-26T1:18:48Z</time></trkpt>
<trkpt lat="46.27539" lon="7.00867"><ele></ele><time>2016-9-26T1:18:51Z</time></trkpt>
<trkpt lat="46.27544" lon="7.00865"><ele></ele><time>2016-9-26T1:18:54Z</time></trkpt>
<trkpt lat="46.27549" lon="7.00863"><ele></ele><time>2016-9-26T1:18:57Z</time></trkpt>
<trkpt lat="46.27555" lon="7.00861"><ele></ele><time>2016-9-26T1:19:0Z</time></trkpt>
<trkpt lat="46.2756" lon="7.00859"><ele></ele><time>2016-9-26T1:19:3Z</time></trkpt>
<trkpt lat="46.27565" lon="7.00857"><ele></ele><time>2016-9-26T1:19:6Z</time></trkpt>
<trkpt lat="46.2757" lon="7.00855"><ele></ele><time>2016-9-26T1:19:9Z</time></trkpt>
<trkpt lat="46.27575" lon="7.00853"><ele></ele><time>2016-9-26T1:19:12Z</time></trkpt>
<trkpt lat="46.27578" lon="7.00852"><ele></ele><time>2016-9-26T1:19:15Z</time></trkpt>
<trkpt lat="46.2758" lon="7.0085"><ele></ele><time>2016-9-26T1:19:18Z</time></trkpt>
<trkpt lat="46.27583" lon="7.00848"><ele></ele><time>2016-9-26T1:19:21Z</time></trkpt>
<trkpt lat="46.27587" lon="7.00846"><ele></ele><time>2016-9-26T1:19:24Z</time></trkpt>
<trkpt lat="46.2759" lon="7.00843"><ele></ele><time>2016-9-26T1:19:27Z</time></trkpt>
<trkpt lat="46.27594" lon="7.00841"><ele></ele><time>2016-9-26T1:19:30Z</time></trkpt>
<trkpt lat="46.27596" lon="7.0084"><ele></ele><time>2016-9-26T1:19:33Z</time></trkpt>
<trkpt lat="46.27598" lon="7.00839"><ele></ele><time>2016-9-26T1:19:36Z</time></trkpt>
<trkpt lat="46.27601" lon="7.00837"><ele></ele><time>2016-9-26T1:19:39Z</time></trkpt>
<trkpt lat="46.27605" lon="7.00834"><ele></ele><time>2016-9-26T1:19:42Z</time></trkpt>
<trkpt lat="46.27608" lon="7.00832"><ele></ele><time>2016-9-26T1:19:45Z</time></trkpt>
<trkpt lat="46.27612" lon="7.0083"><ele></ele><time>2016-9-26T1:19:48Z</time></trkpt>
<trkpt lat="46.27615" lon="7.00827"><ele></ele><time>2016-9-26T1:19:51Z</time></trkpt>
<trkpt lat="46.27619" lon="7.00825"><ele></ele><time>2016-9-26T1:19:54Z</time></trkpt>
<trkpt lat="46.27622" lon="7.00821"><ele></ele><time>2016-9-26T1:19:57Z</time></trkpt>
<trkpt lat="46.27625" lon="7.00818"><ele></ele><time>2016-9-26T1:20:0Z</time></trkpt>
<trkpt lat="46.27627" lon="7.00816"><ele></ele><time>2016-9-26T1:20:3Z</time></trkpt>
<trkpt lat="46.27628" lon="7.00815"><ele></ele><time>2016-9-26T1:20:6Z</time></trkpt>
<trkpt lat="46.27631" lon="7.00811"><ele></ele><time>2016-9-26T1:20:9Z</time></trkpt>
<trkpt lat="46.27634" lon="7.00808"><ele></ele><time>2016-9-26T1:20:12Z</time></trkpt>
<trkpt lat="46.27637" lon="7.00804"><ele></ele><time>2016-9-26T1:20:15Z</time></trkpt>
<trkpt lat="46.2764" lon="7.00801"><ele></ele><time>2016-9-26T1:20:18Z</time></trkpt>
<trkpt lat="46.27643" lon="7.00798"><ele></ele><time>2016-9-26T1:20:21Z</time></trkpt>
<trkpt lat="46.27646" lon="7.00794"><ele></ele><time>2016-9-26T1:20:24Z</time></trkpt>
<trkpt lat="46.27649" lon="7.00791"><ele></ele><time>2016-9-26T1:20:27Z</time></trkpt>
<trkpt lat="46.27652" lon="7.00787"><ele></ele><time>2016-9-26T1:20:30Z</time></trkpt>
<trkpt lat="46.27656" lon="7.00784"><ele></ele><time>2016-9-26T1:20:33Z</time></trkpt>
<trkpt lat="46.27659" lon="7.00785"><ele></ele><time>2016-9-26T1:20:36Z</time></trkpt>
<trkpt lat="46.27663" lon="7.00785"><ele></ele><time>2016-9-26T1:20:39Z</time></trkpt>
<trkpt lat="46.27666" lon="7.00785"><ele></ele><time>2016-9-26T1:20:42Z</time></trkpt>
<trkpt lat="46.2767" lon="7.00785"><ele></ele><time>2016-9-26T1:20:45Z</time></trkpt>
<trkpt lat="46.27673" lon="7.00785"><ele></ele><time>2016-9-26T1:20:48Z</time></trkpt>
<trkpt lat="46.27677" lon="7.00785"><ele></ele><time>2016-9-26T1:20:51Z</time></trkpt>
<trkpt lat="46.2768" lon="7.00785"><ele></ele><time>2016-9-26T1:20:54Z</time></trkpt>
<trkpt lat="46.27682" lon="7.00785"><ele></ele><time>2016-9-26T1:20:57Z</time></trkpt>
<trkpt lat="46.27684" lon="7.00785"><ele></ele><time>2016-9-26T1:21:0Z</time></trkpt>
<trkpt lat="46.27688" lon="7.00785"><ele></ele><time>2016-9-26T1:21:3Z</time></trkpt>
<trkpt lat="46.27691" lon="7.00786"><ele></ele><time>2016-9-26T1:21:6Z</time></trkpt>
<trkpt lat="46.27695" lon="7.00786"><ele></ele><time>2016-9-26T1:21:9Z</time></trkpt>
<trkpt lat="46.27698" lon="7.00786"><ele></ele><time>2016-9-26T1:21:12Z</time></trkpt>
<trkpt lat="46.27702" lon="7.00786"><ele></ele><time>2016-9-26T1:21:15Z</time></trkpt>
<trkpt lat="46.27705" lon="7.00786"><ele></ele><time>2016-9-26T1:21:18Z</time></trkpt>
<trkpt lat="46.27709" lon="7.00787"><ele></ele><time>2016-9-26T1:21:21Z</time></trkpt>
<trkpt lat="46.27711" lon="7.00787"><ele></ele><time>2016-9-26T1:21:24Z</time></trkpt>
<trkpt lat="46.27713" lon="7.00787"><ele></ele><time>2016-9-26T1:21:27Z</time></trkpt>
<trkpt lat="46.27716" lon="7.00788"><ele></ele><time>2016-9-26T1:21:30Z</time></trkpt>
<trkpt lat="46.2772" lon="7.00788"><ele></ele><time>2016-9-26T1:21:33Z</time></trkpt>
<trkpt lat="46.27724" lon="7.00789"><ele></ele><time>2016-9-26T1:21:36Z</time></trkpt>
<trkpt lat="46.27727" lon="7.00789"><ele></ele><time>2016-9-26T1:21:39Z</time></trkpt>
<trkpt lat="46.27731" lon="7.0079"><ele></ele><time>2016-9-26T1:21:42Z</time></trkpt>
<trkpt lat="46.27735" lon="7.0079"><ele></ele><time>2016-9-26T1:21:45Z</time></trkpt>
<trkpt lat="46.27738" lon="7.00791"><ele></ele><time>2016-9-26T1:21:48Z</time></trkpt>
<trkpt lat="46.2774" lon="7.00791"><ele></ele><time>2016-9-26T1:21:51Z</time></trkpt>
<trkpt lat="46.27742" lon="7.00791"><ele></ele><time>2016-9-26T1:21:54Z</time></trkpt>
<trkpt lat="46.27746" lon="7.00792"><ele></ele><time>2016-9-26T1:21:57Z</time></trkpt>
<trkpt lat="46.27748" lon="7.00792"><ele></ele><time>2016-9-26T1:22:0Z</time></trkpt>
<trkpt lat="46.27749" lon="7.00793"><ele></ele><time>2016-9-26T1:22:3Z</time></trkpt>
<trkpt lat="46.27752" lon="7.00795"><ele></ele><time>2016-9-26T1:22:6Z</time></trkpt>
<trkpt lat="46.27756" lon="7.00798"><ele></ele><time>2016-9-26T1:22:9Z</time></trkpt>
<trkpt lat="46.27759" lon="7.008"><ele></ele><time>2016-9-26T1:22:12Z</time></trkpt>
<trkpt lat="46.27762" lon="7.00802"><ele></ele><time>2016-9-26T1:22:15Z</time></trkpt>
<trkpt lat="46.27765" lon="7.00804"><ele></ele><time>2016-9-26T1:22:18Z</time></trkpt>
<trkpt lat="46.27768" lon="7.00806"><ele></ele><time>2016-9-26T1:22:21Z</time></trkpt>
<trkpt lat="46.27772" lon="7.00808"><ele></ele><time>2016-9-26T1:22:24Z</time></trkpt>
<trkpt lat="46.27775" lon="7.0081"><ele></ele><time>2016-9-26T1:22:27Z</time></trkpt>
<trkpt lat="46.27778" lon="7.00812"><ele></ele><time>2016-9-26T1:22:30Z</time></trkpt>
<trkpt lat="46.27781" lon="7.00814"><ele></ele><time>2016-9-26T1:22:33Z</time></trkpt>
<trkpt lat="46.27784" lon="7.00817"><ele></ele><time>2016-9-26T1:22:36Z</time></trkpt>
<trkpt lat="46.27788" lon="7.00819"><ele></ele><time>2016-9-26T1:22:39Z</time></trkpt>
<trkpt lat="46.27789" lon="7.0082"><ele></ele><time>2016-9-26T1:22:42Z</time></trkpt>
<trkpt lat="46.27788" lon="7.00822"><ele></ele><time>2016-9-26T1:22:45Z</time></trkpt>
<trkpt lat="46.27787" lon="7.00827"><ele></ele><time>2016-9-26T1:22:48Z</time></trkpt>
<trkpt lat="46.27786" lon="7.0083"><ele></ele><time>2016-9-26T1:22:51Z</time></trkpt>
<trkpt lat="46.27785" lon="7.00832"><ele></ele><time>2016-9-26T1:22:54Z</time></trkpt>
<trkpt lat="46.27781" lon="7.00834"><ele></ele><time>2016-9-26T1:22:57Z</time></trkpt>
<trkpt lat="46.27777" lon="7.00836"><ele></ele><time>2016-9-26T1:23:0Z</time></trkpt>
<trkpt lat="46.27774" lon="7.00838"><ele></ele><time>2016-9-26T1:23:3Z</time></trkpt>
<trkpt lat="46.2777" lon="7.0084"><ele></ele><time>2016-9-26T1:23:6Z</time></trkpt>
<trkpt lat="46.27766" lon="7.00842"><ele></ele><time>2016-9-26T1:23:9Z</time></trkpt>
<trkpt lat="46.27762" lon="7.00844"><ele></ele><time>2016-9-26T1:23:12Z</time></trkpt>
<trkpt lat="46.27758" lon="7.00846"><ele></ele><time>2016-9-26T1:23:15Z</time></trkpt>
<trkpt lat="46.27755" lon="7.00848"><ele></ele><time>2016-9-26T1:23:18Z</time></trkpt>
<trkpt lat="46.27751" lon="7.0085"><ele></ele><time>2016-9-26T1:23:21Z</time></trkpt>
<trkpt lat="46.27747" lon="7.00852"><ele></ele><time>2016-9-26T1:23:24Z</time></trkpt>
<trkpt lat="46.27743" lon="7.00854"><ele></ele><time>2016-9-26T1:23:27Z</time></trkpt>
<trkpt lat="46.27741" lon="7.00855"><ele></ele><time>2016-9-26T1:23:30Z</time></trkpt>
<trkpt lat="46.2774" lon="7.00858"><ele></ele><time>2016-9-26T1:23:33Z</time></trkpt>
<trkpt lat="46.27736" lon="7.00862"><ele></ele><time>2016-9-26T1:23:36Z</time></trkpt>
<trkpt lat="46.27733" lon="7.00866"><ele></ele><time>2016-9-26T1:23:39Z</time></trkpt>
<trkpt lat="46.2773" lon="7.0087"><ele></ele><time>2016-9-26T1:23:42Z</time></trkpt>
<trkpt lat="46.27727" lon="7.00874"><ele></ele><time>2016-9-26T1:23:45Z</time></trkpt>
<trkpt lat="46.27723" lon="7.00878"><ele></ele><time>2016-9-26T1:23:48Z</time></trkpt>
<trkpt lat="46.2772" lon="7.00882"><ele></ele><time>2016-9-26T1:23:51Z</time></trkpt>
<trkpt lat="46.27717" lon="7.00886"><ele></ele><time>2016-9-26T1:23:54Z</time></trkpt>
<trkpt lat="46.27713" lon="7.0089"><ele></ele><time>2016-9-26T1:23:57Z</time></trkpt>
<trkpt lat="46.2771" lon="7.00894"><ele></ele><time>2016-9-26T1:24:0Z</time></trkpt>
<trkpt lat="46.27707" lon="7.00899"><ele></ele><time>2016-9-26T1:24:3Z</time></trkpt>
<trkpt lat="46.27704" lon="7.00904"><ele></ele><time>2016-9-26T1:24:6Z</time></trkpt>
<trkpt lat="46.27701" lon="7.00909"><ele></ele><time>2016-9-26T1:24:9Z</time></trkpt>
<trkpt lat="46.27698" lon="7.00915"><ele></ele><time>2016-9-26T1:24:12Z</time></trkpt>
<trkpt lat="46.27695" lon="7.0092"><ele></ele><time>2016-9-26T1:24:15Z</time></trkpt>
<trkpt lat="46.27692" lon="7.00925"><ele></ele><time>2016-9-26T1:24:18Z</time></trkpt>
<trkpt lat="46.27689" lon="7.00931"><ele></ele><time>2016-9-26T1:24:21Z</time></trkpt>
<trkpt lat="46.27686" lon="7.00936"><ele></ele><time>2016-9-26T1:24:24Z</time></trkpt>
<trkpt lat="46.27683" lon="7.00942"><ele></ele><time>2016-9-26T1:24:27Z</time></trkpt>
<trkpt lat="46.2768" lon="7.00947"><ele></ele><time>2016-9-26T1:24:30Z</time></trkpt>
<trkpt lat="46.27678" lon="7.00949"><ele></ele><time>2016-9-26T1:24:33Z</time></trkpt>
<trkpt lat="46.27677" lon="7.00951"><ele></ele><time>2016-9-26T1:24:36Z</time></trkpt>
<trkpt lat="46.27673" lon="7.00954"><ele></ele><time>2016-9-26T1:24:39Z</time></trkpt>
<trkpt lat="46.2767" lon="7.00957"><ele></ele><time>2016-9-26T1:24:42Z</time></trkpt>
<trkpt lat="46.27667" lon="7.00959"><ele></ele><time>2016-9-26T1:24:45Z</time></trkpt>
<trkpt lat="46.27664" lon="7.00962"><ele></ele><time>2016-9-26T1:24:48Z</time></trkpt>
<trkpt lat="46.2766" lon="7.00965"><ele></ele><time>2016-9-26T1:24:51Z</time></trkpt>
<trkpt lat="46.27657" lon="7.00968"><ele></ele><time>2016-9-26T1:24:54Z</time></trkpt>
<trkpt lat="46.27654" lon="7.00971"><ele></ele><time>2016-9-26T1:24:57Z</time></trkpt>
<trkpt lat="46.27651" lon="7.00974"><ele></ele><time>2016-9-26T1:25:0Z</time></trkpt>
<trkpt lat="46.27648" lon="7.00977"><ele></ele><time>2016-9-26T1:25:3Z</time></trkpt>
<trkpt lat="46.27644" lon="7.0098"><ele></ele><time>2016-9-26T1:25:6Z</time></trkpt>
<trkpt lat="46.27641" lon="7.00983"><ele></ele><time>2016-9-26T1:25:9Z</time></trkpt>
<trkpt lat="46.2764" lon="7.00984"><ele></ele><time>2016-9-26T1:25:12Z</time></trkpt>
<trkpt lat="46.27639" lon="7.00987"><ele></ele><time>2016-9-26T1:25:15Z</time></trkpt>
<trkpt lat="46.27637" lon="7.00991"><ele></ele><time>2016-9-26T1:25:18Z</time></trkpt>
<trkpt lat="46.27636" lon="7.00996"><ele></ele><time>2016-9-26T1:25:21Z</time></trkpt>
<trkpt lat="46.27634" lon="7.01"><ele></ele><time>2016-9-26T1:25:24Z</time></trkpt>
<trkpt lat="46.27633" lon="7.01005"><ele></ele><time>2016-9-26T1:25:27Z</time></trkpt>
<trkpt lat="46.27631" lon="7.01009"><ele></ele><time>2016-9-26T1:25:30Z</time></trkpt>
<trkpt lat="46.2763" lon="7.01014"><ele></ele><time>2016-9-26T1:25:33Z</time></trkpt>
<trkpt lat="46.27628" lon="7.01018"><ele></ele><time>2016-9-26T1:25:36Z</time></trkpt>
<trkpt lat="46.27627" lon="7.01023"><ele></ele><time>2016-9-26T1:25:39Z</time></trkpt>
<trkpt lat="46.27625" lon="7.01027"><ele></ele><time>2016-9-26T1:25:42Z</time></trkpt>
<trkpt lat="46.27623" lon="7.01032"><ele></ele><time>2016-9-26T1:25:45Z</time></trkpt>
<trkpt lat="46.27622" lon="7.01036"><ele></ele><time>2016-9-26T1:25:48Z</time></trkpt>
<trkpt lat="46.2762" lon="7.0104"><ele></ele><time>2016-9-26T1:25:51Z</time></trkpt>
<trkpt lat="46.27619" lon="7.01043"><ele></ele><time>2016-9-26T1:25:54Z</time></trkpt>
<trkpt lat="46.27618" lon="7.01044"><ele></ele><time>2016-9-26T1:25:57Z</time></trkpt>
<trkpt lat="46.27616" lon="7.01047"><ele></ele><time>2016-9-26T1:26:0Z</time></trkpt>
<trkpt lat="46.27614" lon="7.0105"><ele></ele><time>2016-9-26T1:26:3Z</time></trkpt>
<trkpt lat="46.27612" lon="7.01053"><ele></ele><time>2016-9-26T1:26:6Z</time></trkpt>
<trkpt lat="46.27609" lon="7.01056"><ele></ele><time>2016-9-26T1:26:9Z</time></trkpt>
<trkpt lat="46.27607" lon="7.0106"><ele></ele><time>2016-9-26T1:26:12Z</time></trkpt>
<trkpt lat="46.27605" lon="7.01063"><ele></ele><time>2016-9-26T1:26:15Z</time></trkpt>
<trkpt lat="46.27603" lon="7.01066"><ele></ele><time>2016-9-26T1:26:18Z</time></trkpt>
<trkpt lat="46.27601" lon="7.01069"><ele></ele><time>2016-9-26T1:26:21Z</time></trkpt>
<trkpt lat="46.27598" lon="7.01072"><ele></ele><time>2016-9-26T1:26:24Z</time></trkpt>
<trkpt lat="46.27596" lon="7.01075"><ele></ele><time>2016-9-26T1:26:27Z</time></trkpt>
<trkpt lat="46.27594" lon="7.01078"><ele></ele><time>2016-9-26T1:26:30Z</time></trkpt>
<trkpt lat="46.27592" lon="7.01081"><ele></ele><time>2016-9-26T1:26:33Z</time></trkpt>
<trkpt lat="46.27589" lon="7.01084"><ele></ele><time>2016-9-26T1:26:36Z</time></trkpt>
<trkpt lat="46.27587" lon="7.01087"><ele></ele><time>2016-9-26T1:26:39Z</time></trkpt>
<trkpt lat="46.27586" lon="7.01089"><ele></ele><time>2016-9-26T1:26:42Z</time></trkpt>
<trkpt lat="46.27585" lon="7.01091"><ele></ele><time>2016-9-26T1:26:45Z</time></trkpt>
<trkpt lat="46.27583" lon="7.01094"><ele></ele><time>2016-9-26T1:26:48Z</time></trkpt>
<trkpt lat="46.27581" lon="7.01097"><ele></ele><time>2016-9-26T1:26:51Z</time></trkpt>
<trkpt lat="46.27578" lon="7.01101"><ele></ele><time>2016-9-26T1:26:54Z</time></trkpt>
<trkpt lat="46.27576" lon="7.01104"><ele></ele><time>2016-9-26T1:26:57Z</time></trkpt>
<trkpt lat="46.27574" lon="7.01107"><ele></ele><time>2016-9-26T1:27:0Z</time></trkpt>
<trkpt lat="46.27572" lon="7.01111"><ele></ele><time>2016-9-26T1:27:3Z</time></trkpt>
<trkpt lat="46.27569" lon="7.01114"><ele></ele><time>2016-9-26T1:27:6Z</time></trkpt>
<trkpt lat="46.27567" lon="7.01117"><ele></ele><time>2016-9-26T1:27:9Z</time></trkpt>
<trkpt lat="46.27565" lon="7.0112"><ele></ele><time>2016-9-26T1:27:12Z</time></trkpt>
<trkpt lat="46.27563" lon="7.01124"><ele></ele><time>2016-9-26T1:27:15Z</time></trkpt>
<trkpt lat="46.2756" lon="7.01127"><ele></ele><time>2016-9-26T1:27:18Z</time></trkpt>
<trkpt lat="46.27558" lon="7.0113"><ele></ele><time>2016-9-26T1:27:21Z</time></trkpt>
<trkpt lat="46.27556" lon="7.01134"><ele></ele><time>2016-9-26T1:27:24Z</time></trkpt>
<trkpt lat="46.27554" lon="7.01137"><ele></ele><time>2016-9-26T1:27:27Z</time></trkpt>
<trkpt lat="46.27552" lon="7.01141"><ele></ele><time>2016-9-26T1:27:30Z</time></trkpt>
<trkpt lat="46.2755" lon="7.01144"><ele></ele><time>2016-9-26T1:27:33Z</time></trkpt>
<trkpt lat="46.27549" lon="7.01148"><ele></ele><time>2016-9-26T1:27:36Z</time></trkpt>
<trkpt lat="46.27547" lon="7.01152"><ele></ele><time>2016-9-26T1:27:39Z</time></trkpt>
<trkpt lat="46.27546" lon="7.01154"><ele></ele><time>2016-9-26T1:27:42Z</time></trkpt>
<trkpt lat="46.27545" lon="7.01155"><ele></ele><time>2016-9-26T1:27:45Z</time></trkpt>
<trkpt lat="46.27544" lon="7.01159"><ele></ele><time>2016-9-26T1:27:48Z</time></trkpt>
<trkpt lat="46.27542" lon="7.01163"><ele></ele><time>2016-9-26T1:27:51Z</time></trkpt>
<trkpt lat="46.27541" lon="7.01166"><ele></ele><time>2016-9-26T1:27:54Z</time></trkpt>
<trkpt lat="46.27539" lon="7.0117"><ele></ele><time>2016-9-26T1:27:57Z</time></trkpt>
<trkpt lat="46.27537" lon="7.01174"><ele></ele><time>2016-9-26T1:28:0Z</time></trkpt>
<trkpt lat="46.27536" lon="7.01177"><ele></ele><time>2016-9-26T1:28:3Z</time></trkpt>
<trkpt lat="46.27534" lon="7.01181"><ele></ele><time>2016-9-26T1:28:6Z</time></trkpt>
<trkpt lat="46.27532" lon="7.01185"><ele></ele><time>2016-9-26T1:28:9Z</time></trkpt>
<trkpt lat="46.27531" lon="7.01188"><ele></ele><time>2016-9-26T1:28:12Z</time></trkpt>
<trkpt lat="46.27529" lon="7.01192"><ele></ele><time>2016-9-26T1:28:15Z</time></trkpt>
<trkpt lat="46.27528" lon="7.01194"><ele></ele><time>2016-9-26T1:28:18Z</time></trkpt>
<trkpt lat="46.27527" lon="7.01196"><ele></ele><time>2016-9-26T1:28:21Z</time></trkpt>
<trkpt lat="46.27525" lon="7.012"><ele></ele><time>2016-9-26T1:28:24Z</time></trkpt>
<trkpt lat="46.27522" lon="7.01204"><ele></ele><time>2016-9-26T1:28:27Z</time></trkpt>
<trkpt lat="46.27521" lon="7.01206"><ele></ele><time>2016-9-26T1:28:30Z</time></trkpt>
<trkpt lat="46.2752" lon="7.01208"><ele></ele><time>2016-9-26T1:28:33Z</time></trkpt>
<trkpt lat="46.27517" lon="7.01212"><ele></ele><time>2016-9-26T1:28:36Z</time></trkpt>
<trkpt lat="46.27515" lon="7.01216"><ele></ele><time>2016-9-26T1:28:39Z</time></trkpt>
<trkpt lat="46.27513" lon="7.0122"><ele></ele><time>2016-9-26T1:28:42Z</time></trkpt>
<trkpt lat="46.2751" lon="7.01224"><ele></ele><time>2016-9-26T1:28:45Z</time></trkpt>
<trkpt lat="46.27508" lon="7.01228"><ele></ele><time>2016-9-26T1:28:48Z</time></trkpt>
<trkpt lat="46.27506" lon="7.01232"><ele></ele><time>2016-9-26T1:28:51Z</time></trkpt>
<trkpt lat="46.27503" lon="7.01236"><ele></ele><time>2016-9-26T1:28:54Z</time></trkpt>
<trkpt lat="46.27501" lon="7.0124"><ele></ele><time>2016-9-26T1:28:57Z</time></trkpt>
<trkpt lat="46.27499" lon="7.01244"><ele></ele><time>2016-9-26T1:29:0Z</time></trkpt>
<trkpt lat="46.27496" lon="7.01247"><ele></ele><time>2016-9-26T1:29:3Z</time></trkpt>
<trkpt lat="46.27494" lon="7.01251"><ele></ele><time>2016-9-26T1:29:6Z</time></trkpt>
<trkpt lat="46.27491" lon="7.01254"><ele></ele><time>2016-9-26T1:29:9Z</time></trkpt>
<trkpt lat="46.27489" lon="7.01257"><ele></ele><time>2016-9-26T1:29:12Z</time></trkpt>
<trkpt lat="46.27487" lon="7.01259"><ele></ele><time>2016-9-26T1:29:15Z</time></trkpt>
<trkpt lat="46.27486" lon="7.01261"><ele></ele><time>2016-9-26T1:29:18Z</time></trkpt>
<trkpt lat="46.27483" lon="7.01264"><ele></ele><time>2016-9-26T1:29:21Z</time></trkpt>
<trkpt lat="46.27481" lon="7.01267"><ele></ele><time>2016-9-26T1:29:24Z</time></trkpt>
<trkpt lat="46.27478" lon="7.0127"><ele></ele><time>2016-9-26T1:29:27Z</time></trkpt>
<trkpt lat="46.27476" lon="7.01274"><ele></ele><time>2016-9-26T1:29:30Z</time></trkpt>
<trkpt lat="46.27473" lon="7.01277"><ele></ele><time>2016-9-26T1:29:33Z</time></trkpt>
<trkpt lat="46.27471" lon="7.0128"><ele></ele><time>2016-9-26T1:29:36Z</time></trkpt>
<trkpt lat="46.27468" lon="7.01284"><ele></ele><time>2016-9-26T1:29:39Z</time></trkpt>
<trkpt lat="46.27467" lon="7.01285"><ele></ele><time>2016-9-26T1:29:42Z</time></trkpt>
<trkpt lat="46.27466" lon="7.01287"><ele></ele><time>2016-9-26T1:29:45Z</time></trkpt>
<trkpt lat="46.27464" lon="7.01289"><ele></ele><time>2016-9-26T1:29:48Z</time></trkpt>
<trkpt lat="46.27463" lon="7.0129"><ele></ele><time>2016-9-26T1:29:51Z</time></trkpt>
<trkpt lat="46.2746" lon="7.01293"><ele></ele><time>2016-9-26T1:29:54Z</time></trkpt>
<trkpt lat="46.27457" lon="7.01296"><ele></ele><time>2016-9-26T1:29:57Z</time></trkpt>
<trkpt lat="46.27454" lon="7.01299"><ele></ele><time>2016-9-26T1:30:0Z</time></trkpt>
<trkpt lat="46.27451" lon="7.01302"><ele></ele><time>2016-9-26T1:30:3Z</time></trkpt>
<trkpt lat="46.2745" lon="7.01304"><ele></ele><time>2016-9-26T1:30:6Z</time></trkpt>
<trkpt lat="46.27451" lon="7.01306"><ele></ele><time>2016-9-26T1:30:9Z</time></trkpt>
<trkpt lat="46.27452" lon="7.01311"><ele></ele><time>2016-9-26T1:30:12Z</time></trkpt>
<trkpt lat="46.27454" lon="7.01316"><ele></ele><time>2016-9-26T1:30:15Z</time></trkpt>
<trkpt lat="46.27455" lon="7.01318"><ele></ele><time>2016-9-26T1:30:18Z</time></trkpt>
<trkpt lat="46.27456" lon="7.0132"><ele></ele><time>2016-9-26T1:30:21Z</time></trkpt>
<trkpt lat="46.27459" lon="7.01318"><ele></ele><time>2016-9-26T1:30:24Z</time></trkpt>
<trkpt lat="46.27462" lon="7.01317"><ele></ele><time>2016-9-26T1:30:27Z</time></trkpt>
<trkpt lat="46.27465" lon="7.01315"><ele></ele><time>2016-9-26T1:30:30Z</time></trkpt>
<trkpt lat="46.27468" lon="7.01313"><ele></ele><time>2016-9-26T1:30:33Z</time></trkpt>
<trkpt lat="46.27471" lon="7.01311"><ele></ele><time>2016-9-26T1:30:36Z</time></trkpt>
<trkpt lat="46.27474" lon="7.01309"><ele></ele><time>2016-9-26T1:30:39Z</time></trkpt>
<trkpt lat="46.27478" lon="7.01308"><ele></ele><time>2016-9-26T1:30:42Z</time></trkpt>
<trkpt lat="46.27481" lon="7.01306"><ele></ele><time>2016-9-26T1:30:45Z</time></trkpt>
<trkpt lat="46.27482" lon="7.01305"><ele></ele><time>2016-9-26T1:30:48Z</time></trkpt>
<trkpt lat="46.27484" lon="7.01304"><ele></ele><time>2016-9-26T1:30:51Z</time></trkpt>
<trkpt lat="46.27487" lon="7.01302"><ele></ele><time>2016-9-26T1:30:54Z</time></trkpt>
<trkpt lat="46.2749" lon="7.01301"><ele></ele><time>2016-9-26T1:30:57Z</time></trkpt>
<trkpt lat="46.27493" lon="7.01299"><ele></ele><time>2016-9-26T1:31:0Z</time></trkpt>
<trkpt lat="46.27497" lon="7.01297"><ele></ele><time>2016-9-26T1:31:3Z</time></trkpt>
<trkpt lat="46.27498" lon="7.01296"><ele></ele><time>2016-9-26T1:31:6Z</time></trkpt>
<trkpt lat="46.275" lon="7.01296"><ele></ele><time>2016-9-26T1:31:9Z</time></trkpt>
<trkpt lat="46.27503" lon="7.01295"><ele></ele><time>2016-9-26T1:31:12Z</time></trkpt>
<trkpt lat="46.27506" lon="7.01294"><ele></ele><time>2016-9-26T1:31:15Z</time></trkpt>
<trkpt lat="46.27507" lon="7.01293"><ele></ele><time>2016-9-26T1:31:18Z</time></trkpt>
<trkpt lat="46.27509" lon="7.01293"><ele></ele><time>2016-9-26T1:31:21Z</time></trkpt>
<trkpt lat="46.27512" lon="7.01292"><ele></ele><time>2016-9-26T1:31:24Z</time></trkpt>
<trkpt lat="46.27515" lon="7.01291"><ele></ele><time>2016-9-26T1:31:27Z</time></trkpt>
<trkpt lat="46.27518" lon="7.0129"><ele></ele><time>2016-9-26T1:31:30Z</time></trkpt>
<trkpt lat="46.27521" lon="7.01289"><ele></ele><time>2016-9-26T1:31:33Z</time></trkpt>
<trkpt lat="46.27525" lon="7.01288"><ele></ele><time>2016-9-26T1:31:36Z</time></trkpt>
<trkpt lat="46.27528" lon="7.01287"><ele></ele><time>2016-9-26T1:31:39Z</time></trkpt>
<trkpt lat="46.27531" lon="7.01285"><ele></ele><time>2016-9-26T1:31:42Z</time></trkpt>
<trkpt lat="46.27534" lon="7.01284"><ele></ele><time>2016-9-26T1:31:45Z</time></trkpt>
<trkpt lat="46.27536" lon="7.01284"><ele></ele><time>2016-9-26T1:31:48Z</time></trkpt>
<trkpt lat="46.27537" lon="7.01283"><ele></ele><time>2016-9-26T1:31:51Z</time></trkpt>
<trkpt lat="46.2754" lon="7.01282"><ele></ele><time>2016-9-26T1:31:54Z</time></trkpt>
<trkpt lat="46.27543" lon="7.01281"><ele></ele><time>2016-9-26T1:31:57Z</time></trkpt>
<trkpt lat="46.27546" lon="7.0128"><ele></ele><time>2016-9-26T1:32:0Z</time></trkpt>
<trkpt lat="46.2755" lon="7.01279"><ele></ele><time>2016-9-26T1:32:3Z</time></trkpt>
<trkpt lat="46.27553" lon="7.01278"><ele></ele><time>2016-9-26T1:32:6Z</time></trkpt>
<trkpt lat="46.27556" lon="7.01277"><ele></ele><time>2016-9-26T1:32:9Z</time></trkpt>
<trkpt lat="46.27559" lon="7.01276"><ele></ele><time>2016-9-26T1:32:12Z</time></trkpt>
<trkpt lat="46.27562" lon="7.01275"><ele></ele><time>2016-9-26T1:32:15Z</time></trkpt>
<trkpt lat="46.27565" lon="7.01274"><ele></ele><time>2016-9-26T1:32:18Z</time></trkpt>
<trkpt lat="46.27568" lon="7.01272"><ele></ele><time>2016-9-26T1:32:21Z</time></trkpt>
<trkpt lat="46.27571" lon="7.01271"><ele></ele><time>2016-9-26T1:32:24Z</time></trkpt>
<trkpt lat="46.27574" lon="7.0127"><ele></ele><time>2016-9-26T1:32:27Z</time></trkpt>
<trkpt lat="46.27578" lon="7.01269"><ele></ele><time>2016-9-26T1:32:30Z</time></trkpt>
<trkpt lat="46.27581" lon="7.01268"><ele></ele><time>2016-9-26T1:32:33Z</time></trkpt>
<trkpt lat="46.27584" lon="7.01267"><ele></ele><time>2016-9-26T1:32:36Z</time></trkpt>
<trkpt lat="46.27587" lon="7.01266"><ele></ele><time>2016-9-26T1:32:39Z</time></trkpt>
<trkpt lat="46.27591" lon="7.01265"><ele></ele><time>2016-9-26T1:32:42Z</time></trkpt>
<trkpt lat="46.27595" lon="7.01265"><ele></ele><time>2016-9-26T1:32:45Z</time></trkpt>
<trkpt lat="46.27598" lon="7.01264"><ele></ele><time>2016-9-26T1:32:48Z</time></trkpt>
<trkpt lat="46.27602" lon="7.01264"><ele></ele><time>2016-9-26T1:32:51Z</time></trkpt>
<trkpt lat="46.27606" lon="7.01263"><ele></ele><time>2016-9-26T1:32:54Z</time></trkpt>
<trkpt lat="46.2761" lon="7.01263"><ele></ele><time>2016-9-26T1:32:57Z</time></trkpt>
<trkpt lat="46.27614" lon="7.01262"><ele></ele><time>2016-9-26T1:33:0Z</time></trkpt>
<trkpt lat="46.27617" lon="7.01262"><ele></ele><time>2016-9-26T1:33:3Z</time></trkpt>
<trkpt lat="46.27621" lon="7.01261"><ele></ele><time>2016-9-26T1:33:6Z</time></trkpt>
<trkpt lat="46.27625" lon="7.01261"><ele></ele><time>2016-9-26T1:33:9Z</time></trkpt>
<trkpt lat="46.27629" lon="7.0126"><ele></ele><time>2016-9-26T1:33:12Z</time></trkpt>
<trkpt lat="46.27633" lon="7.0126"><ele></ele><time>2016-9-26T1:33:15Z</time></trkpt>
<trkpt lat="46.27636" lon="7.0126"><ele></ele><time>2016-9-26T1:33:18Z</time></trkpt>
<trkpt lat="46.27639" lon="7.01261"><ele></ele><time>2016-9-26T1:33:21Z</time></trkpt>
<trkpt lat="46.27642" lon="7.01261"><ele></ele><time>2016-9-26T1:33:24Z</time></trkpt>
<trkpt lat="46.27646" lon="7.01262"><ele></ele><time>2016-9-26T1:33:27Z</time></trkpt>
<trkpt lat="46.27649" lon="7.01262"><ele></ele><time>2016-9-26T1:33:30Z</time></trkpt>
<trkpt lat="46.27652" lon="7.01263"><ele></ele><time>2016-9-26T1:33:33Z</time></trkpt>
<trkpt lat="46.27655" lon="7.01263"><ele></ele><time>2016-9-26T1:33:36Z</time></trkpt>
<trkpt lat="46.27657" lon="7.01264"><ele></ele><time>2016-9-26T1:33:39Z</time></trkpt>
<trkpt lat="46.27664" lon="7.01261"><ele></ele><time>2016-9-26T1:33:42Z</time></trkpt>
<trkpt lat="46.27664" lon="7.01261"><ele></ele><time>2016-9-26T1:33:45Z</time></trkpt>
<trkpt lat="46.27671" lon="7.01255"><ele></ele><time>2016-9-26T1:33:48Z</time></trkpt>
<trkpt lat="46.27676" lon="7.01249"><ele></ele><time>2016-9-26T1:33:51Z</time></trkpt>
<trkpt lat="46.27678" lon="7.01245"><ele></ele><time>2016-9-26T1:33:54Z</time></trkpt>
<trkpt lat="46.27683" lon="7.0124"><ele></ele><time>2016-9-26T1:33:57Z</time></trkpt>
<trkpt lat="46.27693" lon="7.01231"><ele></ele><time>2016-9-26T1:34:0Z</time></trkpt>
<trkpt lat="46.27703" lon="7.01222"><ele></ele><time>2016-9-26T1:34:3Z</time></trkpt>
<trkpt lat="46.27712" lon="7.01213"><ele></ele><time>2016-9-26T1:34:6Z</time></trkpt>
<trkpt lat="46.27717" lon="7.01208"><ele></ele><time>2016-9-26T1:34:9Z</time></trkpt>
<trkpt lat="46.27722" lon="7.01201"><ele></ele><time>2016-9-26T1:34:12Z</time></trkpt>
<trkpt lat="46.27732" lon="7.01187"><ele></ele><time>2016-9-26T1:34:15Z</time></trkpt>
<trkpt lat="46.27742" lon="7.01173"><ele></ele><time>2016-9-26T1:34:18Z</time></trkpt>
<trkpt lat="46.27752" lon="7.01161"><ele></ele><time>2016-9-26T1:34:21Z</time></trkpt>
<trkpt lat="46.27763" lon="7.01152"><ele></ele><time>2016-9-26T1:34:24Z</time></trkpt>
<trkpt lat="46.27775" lon="7.01144"><ele></ele><time>2016-9-26T1:34:27Z</time></trkpt>
<trkpt lat="46.27787" lon="7.01135"><ele></ele><time>2016-9-26T1:34:30Z</time></trkpt>
<trkpt lat="46.27793" lon="7.01131"><ele></ele><time>2016-9-26T1:34:33Z</time></trkpt>
<trkpt lat="46.27799" lon="7.01127"><ele></ele><time>2016-9-26T1:34:36Z</time></trkpt>
<trkpt lat="46.27811" lon="7.01119"><ele></ele><time>2016-9-26T1:34:39Z</time></trkpt>
<trkpt lat="46.27818" lon="7.01114"><ele></ele><time>2016-9-26T1:34:42Z</time></trkpt>
<trkpt lat="46.27823" lon="7.01106"><ele></ele><time>2016-9-26T1:34:45Z</time></trkpt>
<trkpt lat="46.27835" lon="7.01092"><ele></ele><time>2016-9-26T1:34:48Z</time></trkpt>
<trkpt lat="46.27847" lon="7.01077"><ele></ele><time>2016-9-26T1:34:51Z</time></trkpt>
<trkpt lat="46.27853" lon="7.0107"><ele></ele><time>2016-9-26T1:34:54Z</time></trkpt>
<trkpt lat="46.27861" lon="7.01062"><ele></ele><time>2016-9-26T1:34:57Z</time></trkpt>
<trkpt lat="46.27877" lon="7.01047"><ele></ele><time>2016-9-26T1:35:0Z</time></trkpt>
<trkpt lat="46.27897" lon="7.01038"><ele></ele><time>2016-9-26T1:35:3Z</time></trkpt>
<trkpt lat="46.27916" lon="7.01028"><ele></ele><time>2016-9-26T1:35:6Z</time></trkpt>
<trkpt lat="46.27925" lon="7.01023"><ele></ele><time>2016-9-26T1:35:9Z</time></trkpt>
<trkpt lat="46.27936" lon="7.01021"><ele></ele><time>2016-9-26T1:35:12Z</time></trkpt>
<trkpt lat="46.27956" lon="7.01016"><ele></ele><time>2016-9-26T1:35:15Z</time></trkpt>
<trkpt lat="46.27976" lon="7.01011"><ele></ele><time>2016-9-26T1:35:18Z</time></trkpt>
<trkpt lat="46.27995" lon="7.01"><ele></ele><time>2016-9-26T1:35:21Z</time></trkpt>
<trkpt lat="46.28013" lon="7.00989"><ele></ele><time>2016-9-26T1:35:24Z</time></trkpt>
<trkpt lat="46.28027" lon="7.00972"><ele></ele><time>2016-9-26T1:35:27Z</time></trkpt>
<trkpt lat="46.28034" lon="7.00964"><ele></ele><time>2016-9-26T1:35:30Z</time></trkpt>
<trkpt lat="46.28041" lon="7.00956"><ele></ele><time>2016-9-26T1:35:33Z</time></trkpt>
<trkpt lat="46.28055" lon="7.0094"><ele></ele><time>2016-9-26T1:35:36Z</time></trkpt>
<trkpt lat="46.28067" lon="7.00928"><ele></ele><time>2016-9-26T1:35:39Z</time></trkpt>
<trkpt lat="46.2808" lon="7.00916"><ele></ele><time>2016-9-26T1:35:42Z</time></trkpt>
<trkpt lat="46.28087" lon="7.00912"><ele></ele><time>2016-9-26T1:35:45Z</time></trkpt>
<trkpt lat="46.28093" lon="7.00905"><ele></ele><time>2016-9-26T1:35:48Z</time></trkpt>
<trkpt lat="46.28105" lon="7.0089"><ele></ele><time>2016-9-26T1:35:51Z</time></trkpt>
<trkpt lat="46.28117" lon="7.00876"><ele></ele><time>2016-9-26T1:35:54Z</time></trkpt>
<trkpt lat="46.28123" lon="7.00868"><ele></ele><time>2016-9-26T1:35:57Z</time></trkpt>
<trkpt lat="46.28128" lon="7.00856"><ele></ele><time>2016-9-26T1:36:0Z</time></trkpt>
<trkpt lat="46.28137" lon="7.00834"><ele></ele><time>2016-9-26T1:36:3Z</time></trkpt>
<trkpt lat="46.28146" lon="7.00812"><ele></ele><time>2016-9-26T1:36:6Z</time></trkpt>
<trkpt lat="46.28158" lon="7.00793"><ele></ele><time>2016-9-26T1:36:9Z</time></trkpt>
<trkpt lat="46.2817" lon="7.00775"><ele></ele><time>2016-9-26T1:36:12Z</time></trkpt>
<trkpt lat="46.28182" lon="7.00757"><ele></ele><time>2016-9-26T1:36:15Z</time></trkpt>
<trkpt lat="46.28188" lon="7.00747"><ele></ele><time>2016-9-26T1:36:18Z</time></trkpt>
<trkpt lat="46.28194" lon="7.00737"><ele></ele><time>2016-9-26T1:36:21Z</time></trkpt>
<trkpt lat="46.28206" lon="7.00718"><ele></ele><time>2016-9-26T1:36:24Z</time></trkpt>
<trkpt lat="46.28218" lon="7.00698"><ele></ele><time>2016-9-26T1:36:27Z</time></trkpt>
<trkpt lat="46.2823" lon="7.00678"><ele></ele><time>2016-9-26T1:36:30Z</time></trkpt>
<trkpt lat="46.28243" lon="7.00658"><ele></ele><time>2016-9-26T1:36:33Z</time></trkpt>
<trkpt lat="46.28249" lon="7.00648"><ele></ele><time>2016-9-26T1:36:36Z</time></trkpt>
<trkpt lat="46.28255" lon="7.00636"><ele></ele><time>2016-9-26T1:36:39Z</time></trkpt>
<trkpt lat="46.28261" lon="7.00625"><ele></ele><time>2016-9-26T1:36:42Z</time></trkpt>
<trkpt lat="46.28267" lon="7.00614"><ele></ele><time>2016-9-26T1:36:45Z</time></trkpt>
<trkpt lat="46.28278" lon="7.00591"><ele></ele><time>2016-9-26T1:36:48Z</time></trkpt>
<trkpt lat="46.28291" lon="7.00571"><ele></ele><time>2016-9-26T1:36:51Z</time></trkpt>
<trkpt lat="46.28303" lon="7.00551"><ele></ele><time>2016-9-26T1:36:54Z</time></trkpt>
<trkpt lat="46.28309" lon="7.00542"><ele></ele><time>2016-9-26T1:36:57Z</time></trkpt>
<trkpt lat="46.28316" lon="7.00534"><ele></ele><time>2016-9-26T1:37:0Z</time></trkpt>
<trkpt lat="46.2833" lon="7.00518"><ele></ele><time>2016-9-26T1:37:3Z</time></trkpt>
<trkpt lat="46.28344" lon="7.00502"><ele></ele><time>2016-9-26T1:37:6Z</time></trkpt>
<trkpt lat="46.28351" lon="7.00495"><ele></ele><time>2016-9-26T1:37:9Z</time></trkpt>
<trkpt lat="46.28358" lon="7.00489"><ele></ele><time>2016-9-26T1:37:12Z</time></trkpt>
<trkpt lat="46.28372" lon="7.00476"><ele></ele><time>2016-9-26T1:37:15Z</time></trkpt>
<trkpt lat="46.2838" lon="7.0047"><ele></ele><time>2016-9-26T1:37:18Z</time></trkpt>
<trkpt lat="46.28387" lon="7.00467"><ele></ele><time>2016-9-26T1:37:21Z</time></trkpt>
<trkpt lat="46.28402" lon="7.00461"><ele></ele><time>2016-9-26T1:37:24Z</time></trkpt>
<trkpt lat="46.28409" lon="7.00457"><ele></ele><time>2016-9-26T1:37:27Z</time></trkpt>
<trkpt lat="46.28414" lon="7.00449"><ele></ele><time>2016-9-26T1:37:30Z</time></trkpt>
<trkpt lat="46.28426" lon="7.0044"><ele></ele><time>2016-9-26T1:37:33Z</time></trkpt>
<trkpt lat="46.28439" lon="7.00431"><ele></ele><time>2016-9-26T1:37:36Z</time></trkpt>
<trkpt lat="46.28452" lon="7.00422"><ele></ele><time>2016-9-26T1:37:39Z</time></trkpt>
<trkpt lat="46.28458" lon="7.00417"><ele></ele><time>2016-9-26T1:37:42Z</time></trkpt>
<trkpt lat="46.28463" lon="7.00411"><ele></ele><time>2016-9-26T1:37:45Z</time></trkpt>
<trkpt lat="46.28468" lon="7.00406"><ele></ele><time>2016-9-26T1:37:48Z</time></trkpt>
<trkpt lat="46.28474" lon="7.00404"><ele></ele><time>2016-9-26T1:37:51Z</time></trkpt>
<trkpt lat="46.2848" lon="7.00401"><ele></ele><time>2016-9-26T1:37:54Z</time></trkpt>
<trkpt lat="46.28485" lon="7.00396"><ele></ele><time>2016-9-26T1:37:57Z</time></trkpt>
<trkpt lat="46.28498" lon="7.00396"><ele></ele><time>2016-9-26T1:38:0Z</time></trkpt>
<trkpt lat="46.28504" lon="7.00394"><ele></ele><time>2016-9-26T1:38:3Z</time></trkpt>
<trkpt lat="46.28511" lon="7.00397"><ele></ele><time>2016-9-26T1:38:6Z</time></trkpt>
<trkpt lat="46.28519" lon="7.004"><ele></ele><time>2016-9-26T1:38:9Z</time></trkpt>
<trkpt lat="46.28526" lon="7.00404"><ele></ele><time>2016-9-26T1:38:12Z</time></trkpt>
<trkpt lat="46.2854" lon="7.0041"><ele></ele><time>2016-9-26T1:38:15Z</time></trkpt>
<trkpt lat="46.28547" lon="7.00413"><ele></ele><time>2016-9-26T1:38:18Z</time></trkpt>
<trkpt lat="46.28555" lon="7.00416"><ele></ele><time>2016-9-26T1:38:21Z</time></trkpt>
<trkpt lat="46.28569" lon="7.00422"><ele></ele><time>2016-9-26T1:38:24Z</time></trkpt>
<trkpt lat="46.28584" lon="7.00428"><ele></ele><time>2016-9-26T1:38:27Z</time></trkpt>
<trkpt lat="46.28599" lon="7.00434"><ele></ele><time>2016-9-26T1:38:30Z</time></trkpt>
<trkpt lat="46.28606" lon="7.00438"><ele></ele><time>2016-9-26T1:38:33Z</time></trkpt>
<trkpt lat="46.28613" lon="7.00446"><ele></ele><time>2016-9-26T1:38:36Z</time></trkpt>
<trkpt lat="46.2863" lon="7.00447"><ele></ele><time>2016-9-26T1:38:39Z</time></trkpt>
<trkpt lat="46.28637" lon="7.00446"><ele></ele><time>2016-9-26T1:38:42Z</time></trkpt>
<trkpt lat="46.28645" lon="7.00444"><ele></ele><time>2016-9-26T1:38:45Z</time></trkpt>
<trkpt lat="46.28663" lon="7.00447"><ele></ele><time>2016-9-26T1:38:48Z</time></trkpt>
<trkpt lat="46.28672" lon="7.00447"><ele></ele><time>2016-9-26T1:38:51Z</time></trkpt>
<trkpt lat="46.28678" lon="7.00444"><ele></ele><time>2016-9-26T1:38:54Z</time></trkpt>
<trkpt lat="46.2869" lon="7.00437"><ele></ele><time>2016-9-26T1:38:57Z</time></trkpt>
<trkpt lat="46.28695" lon="7.00435"><ele></ele><time>2016-9-26T1:39:0Z</time></trkpt>
<trkpt lat="46.28701" lon="7.00436"><ele></ele><time>2016-9-26T1:39:3Z</time></trkpt>
<trkpt lat="46.28712" lon="7.00439"><ele></ele><time>2016-9-26T1:39:6Z</time></trkpt>
<trkpt lat="46.28717" lon="7.00443"><ele></ele><time>2016-9-26T1:39:9Z</time></trkpt>
<trkpt lat="46.28722" lon="7.00442"><ele></ele><time>2016-9-26T1:39:12Z</time></trkpt>
<trkpt lat="46.28732" lon="7.00441"><ele></ele><time>2016-9-26T1:39:15Z</time></trkpt>
<trkpt lat="46.28743" lon="7.0044"><ele></ele><time>2016-9-26T1:39:18Z</time></trkpt>
<trkpt lat="46.28753" lon="7.00438"><ele></ele><time>2016-9-26T1:39:21Z</time></trkpt>
<trkpt lat="46.28758" lon="7.00438"><ele></ele><time>2016-9-26T1:39:24Z</time></trkpt>
<trkpt lat="46.28764" lon="7.00439"><ele></ele><time>2016-9-26T1:39:27Z</time></trkpt>
<trkpt lat="46.28776" lon="7.0044"><ele></ele><time>2016-9-26T1:39:30Z</time></trkpt>
<trkpt lat="46.28787" lon="7.00441"><ele></ele><time>2016-9-26T1:39:33Z</time></trkpt>
<trkpt lat="46.28799" lon="7.00442"><ele></ele><time>2016-9-26T1:39:36Z</time></trkpt>
<trkpt lat="46.28804" lon="7.00444"><ele></ele><time>2016-9-26T1:39:39Z</time></trkpt>
<trkpt lat="46.28808" lon="7.0045"><ele></ele><time>2016-9-26T1:39:42Z</time></trkpt>
<trkpt lat="46.28816" lon="7.0046"><ele></ele><time>2016-9-26T1:39:45Z</time></trkpt>
<trkpt lat="46.28824" lon="7.00469"><ele></ele><time>2016-9-26T1:39:48Z</time></trkpt>
<trkpt lat="46.28827" lon="7.00482"><ele></ele><time>2016-9-26T1:39:51Z</time></trkpt>
<trkpt lat="46.28831" lon="7.00495"><ele></ele><time>2016-9-26T1:39:54Z</time></trkpt>
<trkpt lat="46.28837" lon="7.00508"><ele></ele><time>2016-9-26T1:39:57Z</time></trkpt>
<trkpt lat="46.2884" lon="7.00514"><ele></ele><time>2016-9-26T1:40:0Z</time></trkpt>
<trkpt lat="46.28842" lon="7.00522"><ele></ele><time>2016-9-26T1:40:3Z</time></trkpt>
<trkpt lat="46.28845" lon="7.00537"><ele></ele><time>2016-9-26T1:40:6Z</time></trkpt>
<trkpt lat="46.28847" lon="7.00547"><ele></ele><time>2016-9-26T1:40:9Z</time></trkpt>
<trkpt lat="46.28854" lon="7.00551"><ele></ele><time>2016-9-26T1:40:12Z</time></trkpt>
<trkpt lat="46.28859" lon="7.00564"><ele></ele><time>2016-9-26T1:40:15Z</time></trkpt>
<trkpt lat="46.28865" lon="7.00575"><ele></ele><time>2016-9-26T1:40:18Z</time></trkpt>
<trkpt lat="46.28873" lon="7.00572"><ele></ele><time>2016-9-26T1:40:21Z</time></trkpt>
<trkpt lat="46.28872" lon="7.00561"><ele></ele><time>2016-9-26T1:40:24Z</time></trkpt>
<trkpt lat="46.28871" lon="7.00555"><ele></ele><time>2016-9-26T1:40:27Z</time></trkpt>
<trkpt lat="46.28872" lon="7.00546"><ele></ele><time>2016-9-26T1:40:30Z</time></trkpt>
<trkpt lat="46.28874" lon="7.00527"><ele></ele><time>2016-9-26T1:40:33Z</time></trkpt>
<trkpt lat="46.28875" lon="7.00509"><ele></ele><time>2016-9-26T1:40:36Z</time></trkpt>
<trkpt lat="46.28876" lon="7.00493"><ele></ele><time>2016-9-26T1:40:39Z</time></trkpt>
<trkpt lat="46.28884" lon="7.00474"><ele></ele><time>2016-9-26T1:40:42Z</time></trkpt>
<trkpt lat="46.28886" lon="7.00462"><ele></ele><time>2016-9-26T1:40:45Z</time></trkpt>
<trkpt lat="46.28887" lon="7.00456"><ele></ele><time>2016-9-26T1:40:48Z</time></trkpt>
<trkpt lat="46.28886" lon="7.00449"><ele></ele><time>2016-9-26T1:40:51Z</time></trkpt>
<trkpt lat="46.28885" lon="7.00435"><ele></ele><time>2016-9-26T1:40:54Z</time></trkpt>
<trkpt lat="46.28884" lon="7.0042"><ele></ele><time>2016-9-26T1:40:57Z</time></trkpt>
<trkpt lat="46.28889" lon="7.00406"><ele></ele><time>2016-9-26T1:41:0Z</time></trkpt>
<trkpt lat="46.289" lon="7.00395"><ele></ele><time>2016-9-26T1:41:3Z</time></trkpt>
<trkpt lat="46.28911" lon="7.00385"><ele></ele><time>2016-9-26T1:41:6Z</time></trkpt>
<trkpt lat="46.28922" lon="7.00374"><ele></ele><time>2016-9-26T1:41:9Z</time></trkpt>
<trkpt lat="46.28928" lon="7.00369"><ele></ele><time>2016-9-26T1:41:12Z</time></trkpt>
<trkpt lat="46.28934" lon="7.00365"><ele></ele><time>2016-9-26T1:41:15Z</time></trkpt>
<trkpt lat="46.28945" lon="7.00356"><ele></ele><time>2016-9-26T1:41:18Z</time></trkpt>
<trkpt lat="46.28957" lon="7.00347"><ele></ele><time>2016-9-26T1:41:21Z</time></trkpt>
<trkpt lat="46.28969" lon="7.00338"><ele></ele><time>2016-9-26T1:41:24Z</time></trkpt>
<trkpt lat="46.28981" lon="7.00328"><ele></ele><time>2016-9-26T1:41:27Z</time></trkpt>
<trkpt lat="46.28993" lon="7.00318"><ele></ele><time>2016-9-26T1:41:30Z</time></trkpt>
<trkpt lat="46.29006" lon="7.00309"><ele></ele><time>2016-9-26T1:41:33Z</time></trkpt>
<trkpt lat="46.29013" lon="7.00306"><ele></ele><time>2016-9-26T1:41:36Z</time></trkpt>
<trkpt lat="46.29019" lon="7.00301"><ele></ele><time>2016-9-26T1:41:39Z</time></trkpt>
<trkpt lat="46.29026" lon="7.00299"><ele></ele><time>2016-9-26T1:41:42Z</time></trkpt>
<trkpt lat="46.29033" lon="7.00295"><ele></ele><time>2016-9-26T1:41:45Z</time></trkpt>
<trkpt lat="46.29047" lon="7.00286"><ele></ele><time>2016-9-26T1:41:48Z</time></trkpt>
<trkpt lat="46.29057" lon="7.00276"><ele></ele><time>2016-9-26T1:41:51Z</time></trkpt>
<trkpt lat="46.29067" lon="7.00266"><ele></ele><time>2016-9-26T1:41:54Z</time></trkpt>
<trkpt lat="46.29075" lon="7.00252"><ele></ele><time>2016-9-26T1:41:57Z</time></trkpt>
<trkpt lat="46.29084" lon="7.00239"><ele></ele><time>2016-9-26T1:42:0Z</time></trkpt>
<trkpt lat="46.29102" lon="7.00237"><ele></ele><time>2016-9-26T1:42:3Z</time></trkpt>
<trkpt lat="46.29113" lon="7.00232"><ele></ele><time>2016-9-26T1:42:6Z</time></trkpt>
<trkpt lat="46.29124" lon="7.00226"><ele></ele><time>2016-9-26T1:42:9Z</time></trkpt>
<trkpt lat="46.29135" lon="7.0022"><ele></ele><time>2016-9-26T1:42:12Z</time></trkpt>
<trkpt lat="46.29145" lon="7.00211"><ele></ele><time>2016-9-26T1:42:15Z</time></trkpt>
<trkpt lat="46.29158" lon="7.00206"><ele></ele><time>2016-9-26T1:42:18Z</time></trkpt>
<trkpt lat="46.29166" lon="7.00195"><ele></ele><time>2016-9-26T1:42:21Z</time></trkpt>
<trkpt lat="46.29174" lon="7.00184"><ele></ele><time>2016-9-26T1:42:24Z</time></trkpt>
<trkpt lat="46.29187" lon="7.00174"><ele></ele><time>2016-9-26T1:42:27Z</time></trkpt>
<trkpt lat="46.29199" lon="7.00164"><ele></ele><time>2016-9-26T1:42:30Z</time></trkpt>
<trkpt lat="46.29211" lon="7.00154"><ele></ele><time>2016-9-26T1:42:33Z</time></trkpt>
<trkpt lat="46.29218" lon="7.0015"><ele></ele><time>2016-9-26T1:42:36Z</time></trkpt>
<trkpt lat="46.29225" lon="7.00147"><ele></ele><time>2016-9-26T1:42:39Z</time></trkpt>
<trkpt lat="46.2924" lon="7.00143"><ele></ele><time>2016-9-26T1:42:42Z</time></trkpt>
<trkpt lat="46.29247" lon="7.00141"><ele></ele><time>2016-9-26T1:42:45Z</time></trkpt>
<trkpt lat="46.29255" lon="7.00142"><ele></ele><time>2016-9-26T1:42:48Z</time></trkpt>
<trkpt lat="46.29263" lon="7.00143"><ele></ele><time>2016-9-26T1:42:51Z</time></trkpt>
<trkpt lat="46.29271" lon="7.00145"><ele></ele><time>2016-9-26T1:42:54Z</time></trkpt>
<trkpt lat="46.29287" lon="7.00147"><ele></ele><time>2016-9-26T1:42:57Z</time></trkpt>
<trkpt lat="46.29295" lon="7.00148"><ele></ele><time>2016-9-26T1:43:0Z</time></trkpt>
<trkpt lat="46.29301" lon="7.0015"><ele></ele><time>2016-9-26T1:43:3Z</time></trkpt>
<trkpt lat="46.29313" lon="7.00154"><ele></ele><time>2016-9-26T1:43:6Z</time></trkpt>
<trkpt lat="46.29325" lon="7.00157"><ele></ele><time>2016-9-26T1:43:9Z</time></trkpt>
<trkpt lat="46.29337" lon="7.00161"><ele></ele><time>2016-9-26T1:43:12Z</time></trkpt>
<trkpt lat="46.29342" lon="7.00161"><ele></ele><time>2016-9-26T1:43:15Z</time></trkpt>
<trkpt lat="46.29346" lon="7.0016"><ele></ele><time>2016-9-26T1:43:18Z</time></trkpt>
<trkpt lat="46.29354" lon="7.00157"><ele></ele><time>2016-9-26T1:43:21Z</time></trkpt>
<trkpt lat="46.29361" lon="7.00154"><ele></ele><time>2016-9-26T1:43:24Z</time></trkpt>
<trkpt lat="46.29366" lon="7.0015"><ele></ele><time>2016-9-26T1:43:27Z</time></trkpt>
<trkpt lat="46.29371" lon="7.00142"><ele></ele><time>2016-9-26T1:43:30Z</time></trkpt>
<trkpt lat="46.29382" lon="7.00125"><ele></ele><time>2016-9-26T1:43:33Z</time></trkpt>
<trkpt lat="46.29393" lon="7.00109"><ele></ele><time>2016-9-26T1:43:36Z</time></trkpt>
<trkpt lat="46.29398" lon="7.001"><ele></ele><time>2016-9-26T1:43:39Z</time></trkpt>
<trkpt lat="46.29405" lon="7.0009"><ele></ele><time>2016-9-26T1:43:42Z</time></trkpt>
<trkpt lat="46.29417" lon="7.00071"><ele></ele><time>2016-9-26T1:43:45Z</time></trkpt>
<trkpt lat="46.29429" lon="7.00054"><ele></ele><time>2016-9-26T1:43:48Z</time></trkpt>
<trkpt lat="46.29434" lon="7.00054"><ele></ele><time>2016-9-26T1:43:51Z</time></trkpt>
<trkpt lat="46.29437" lon="7.00057"><ele></ele><time>2016-9-26T1:43:54Z</time></trkpt>
<trkpt lat="46.29444" lon="7.00063"><ele></ele><time>2016-9-26T1:43:57Z</time></trkpt>
<trkpt lat="46.29451" lon="7.00069"><ele></ele><time>2016-9-26T1:44:0Z</time></trkpt>
<trkpt lat="46.29458" lon="7.00075"><ele></ele><time>2016-9-26T1:44:3Z</time></trkpt>
<trkpt lat="46.29464" lon="7.0008"><ele></ele><time>2016-9-26T1:44:6Z</time></trkpt>
<trkpt lat="46.2947" lon="7.0008"><ele></ele><time>2016-9-26T1:44:9Z</time></trkpt>
<trkpt lat="46.29475" lon="7.00079"><ele></ele><time>2016-9-26T1:44:12Z</time></trkpt>
<trkpt lat="46.29481" lon="7.00079"><ele></ele><time>2016-9-26T1:44:15Z</time></trkpt>
<trkpt lat="46.29486" lon="7.00079"><ele></ele><time>2016-9-26T1:44:18Z</time></trkpt>
<trkpt lat="46.29491" lon="7.00078"><ele></ele><time>2016-9-26T1:44:21Z</time></trkpt>
<trkpt lat="46.29497" lon="7.00078"><ele></ele><time>2016-9-26T1:44:24Z</time></trkpt>
<trkpt lat="46.29499" lon="7.00078"><ele></ele><time>2016-9-26T1:44:27Z</time></trkpt>
<trkpt lat="46.29502" lon="7.00078"><ele></ele><time>2016-9-26T1:44:30Z</time></trkpt>
<trkpt lat="46.29507" lon="7.00078"><ele></ele><time>2016-9-26T1:44:33Z</time></trkpt>
<trkpt lat="46.2951" lon="7.00077"><ele></ele><time>2016-9-26T1:44:36Z</time></trkpt>
<trkpt lat="46.29513" lon="7.00075"><ele></ele><time>2016-9-26T1:44:39Z</time></trkpt>
<trkpt lat="46.29515" lon="7.00074"><ele></ele><time>2016-9-26T1:44:42Z</time></trkpt>
<trkpt lat="46.29518" lon="7.00072"><ele></ele><time>2016-9-26T1:44:45Z</time></trkpt>
<trkpt lat="46.29523" lon="7.00068"><ele></ele><time>2016-9-26T1:44:48Z</time></trkpt>
<trkpt lat="46.29528" lon="7.00065"><ele></ele><time>2016-9-26T1:44:51Z</time></trkpt>
<trkpt lat="46.29533" lon="7.00061"><ele></ele><time>2016-9-26T1:44:54Z</time></trkpt>
<trkpt lat="46.29538" lon="7.00058"><ele></ele><time>2016-9-26T1:44:57Z</time></trkpt>
<trkpt lat="46.29543" lon="7.00055"><ele></ele><time>2016-9-26T1:45:0Z</time></trkpt>
<trkpt lat="46.29548" lon="7.00051"><ele></ele><time>2016-9-26T1:45:3Z</time></trkpt>
<trkpt lat="46.29553" lon="7.00048"><ele></ele><time>2016-9-26T1:45:6Z</time></trkpt>
<trkpt lat="46.29557" lon="7.00046"><ele></ele><time>2016-9-26T1:45:9Z</time></trkpt>
<trkpt lat="46.29562" lon="7.00045"><ele></ele><time>2016-9-26T1:45:12Z</time></trkpt>
<trkpt lat="46.29566" lon="7.00043"><ele></ele><time>2016-9-26T1:45:15Z</time></trkpt>
<trkpt lat="46.29568" lon="7.00043"><ele></ele><time>2016-9-26T1:45:18Z</time></trkpt>
<trkpt lat="46.29571" lon="7.00042"><ele></ele><time>2016-9-26T1:45:21Z</time></trkpt>
<trkpt lat="46.29575" lon="7.0004"><ele></ele><time>2016-9-26T1:45:24Z</time></trkpt>
<trkpt lat="46.29579" lon="7.00039"><ele></ele><time>2016-9-26T1:45:27Z</time></trkpt>
<trkpt lat="46.29584" lon="7.00038"><ele></ele><time>2016-9-26T1:45:30Z</time></trkpt>
<trkpt lat="46.29607" lon="7.00038"><ele></ele><time>2016-9-26T1:45:33Z</time></trkpt>
<trkpt lat="46.29607" lon="7.00038"><ele></ele><time>2016-9-26T1:45:36Z</time></trkpt>
<trkpt lat="46.29625" lon="7.00041"><ele></ele><time>2016-9-26T1:45:39Z</time></trkpt>
<trkpt lat="46.29627" lon="7.00041"><ele></ele><time>2016-9-26T1:45:42Z</time></trkpt>
<trkpt lat="46.29628" lon="7.00042"><ele></ele><time>2016-9-26T1:45:45Z</time></trkpt>
<trkpt lat="46.29629" lon="7.00042"><ele></ele><time>2016-9-26T1:45:48Z</time></trkpt>
<trkpt lat="46.2963" lon="7.00042"><ele></ele><time>2016-9-26T1:45:51Z</time></trkpt>
<trkpt lat="46.29632" lon="7.00043"><ele></ele><time>2016-9-26T1:45:54Z</time></trkpt>
<trkpt lat="46.29634" lon="7.00048"><ele></ele><time>2016-9-26T1:45:57Z</time></trkpt>
<trkpt lat="46.29638" lon="7.0005"><ele></ele><time>2016-9-26T1:46:0Z</time></trkpt>
<trkpt lat="46.29644" lon="7.00044"><ele></ele><time>2016-9-26T1:46:3Z</time></trkpt>
<trkpt lat="46.2965" lon="7.00037"><ele></ele><time>2016-9-26T1:46:6Z</time></trkpt>
<trkpt lat="46.29656" lon="7.0003"><ele></ele><time>2016-9-26T1:46:9Z</time></trkpt>
<trkpt lat="46.29663" lon="7.00024"><ele></ele><time>2016-9-26T1:46:12Z</time></trkpt>
<trkpt lat="46.29669" lon="7.00017"><ele></ele><time>2016-9-26T1:46:15Z</time></trkpt>
<trkpt lat="46.29676" lon="7.0001"><ele></ele><time>2016-9-26T1:46:18Z</time></trkpt>
<trkpt lat="46.2969" lon="7.00005"><ele></ele><time>2016-9-26T1:46:21Z</time></trkpt>
<trkpt lat="46.29696" lon="6.99993"><ele></ele><time>2016-9-26T1:46:24Z</time></trkpt>
<trkpt lat="46.29703" lon="6.99984"><ele></ele><time>2016-9-26T1:46:27Z</time></trkpt>
<trkpt lat="46.2971" lon="6.99975"><ele></ele><time>2016-9-26T1:46:30Z</time></trkpt>
<trkpt lat="46.29716" lon="6.99966"><ele></ele><time>2016-9-26T1:46:33Z</time></trkpt>
<trkpt lat="46.2972" lon="6.99963"><ele></ele><time>2016-9-26T1:46:36Z</time></trkpt>
<trkpt lat="46.29724" lon="6.99965"><ele></ele><time>2016-9-26T1:46:39Z</time></trkpt>
<trkpt lat="46.29727" lon="6.99966"><ele></ele><time>2016-9-26T1:46:42Z</time></trkpt>
<trkpt lat="46.29731" lon="6.99968"><ele></ele><time>2016-9-26T1:46:45Z</time></trkpt>
<trkpt lat="46.29738" lon="6.9997"><ele></ele><time>2016-9-26T1:46:48Z</time></trkpt>
<trkpt lat="46.29746" lon="6.99973"><ele></ele><time>2016-9-26T1:46:51Z</time></trkpt>
<trkpt lat="46.29749" lon="6.99974"><ele></ele><time>2016-9-26T1:46:54Z</time></trkpt>
<trkpt lat="46.29766" lon="6.99963"><ele></ele><time>2016-9-26T1:46:57Z</time></trkpt>
<trkpt lat="46.29766" lon="6.99963"><ele></ele><time>2016-9-26T1:47:0Z</time></trkpt>
<trkpt lat="46.29783" lon="6.99953"><ele></ele><time>2016-9-26T1:47:3Z</time></trkpt>
<trkpt lat="46.29784" lon="6.99953"><ele></ele><time>2016-9-26T1:47:6Z</time></trkpt>
<trkpt lat="46.29788" lon="6.99955"><ele></ele><time>2016-9-26T1:47:9Z</time></trkpt>
<trkpt lat="46.29796" lon="6.99959"><ele></ele><time>2016-9-26T1:47:12Z</time></trkpt>
<trkpt lat="46.29803" lon="6.99964"><ele></ele><time>2016-9-26T1:47:15Z</time></trkpt>
<trkpt lat="46.29811" lon="6.99968"><ele></ele><time>2016-9-26T1:47:18Z</time></trkpt>
<trkpt lat="46.29819" lon="6.99972"><ele></ele><time>2016-9-26T1:47:21Z</time></trkpt>
<trkpt lat="46.29826" lon="6.99976"><ele></ele><time>2016-9-26T1:47:24Z</time></trkpt>
<trkpt lat="46.29829" lon="6.99979"><ele></ele><time>2016-9-26T1:47:27Z</time></trkpt>
<trkpt lat="46.29833" lon="6.99982"><ele></ele><time>2016-9-26T1:47:30Z</time></trkpt>
<trkpt lat="46.29836" lon="6.99986"><ele></ele><time>2016-9-26T1:47:33Z</time></trkpt>
<trkpt lat="46.29839" lon="6.99989"><ele></ele><time>2016-9-26T1:47:36Z</time></trkpt>
<trkpt lat="46.29842" lon="6.99992"><ele></ele><time>2016-9-26T1:47:39Z</time></trkpt>
<trkpt lat="46.29846" lon="6.99995"><ele></ele><time>2016-9-26T1:47:42Z</time></trkpt>
<trkpt lat="46.29849" lon="6.99999"><ele></ele><time>2016-9-26T1:47:45Z</time></trkpt>
<trkpt lat="46.29852" lon="7.00002"><ele></ele><time>2016-9-26T1:47:48Z</time></trkpt>
<trkpt lat="46.29855" lon="7.00005"><ele></ele><time>2016-9-26T1:47:51Z</time></trkpt>
<trkpt lat="46.29859" lon="7.00009"><ele></ele><time>2016-9-26T1:47:54Z</time></trkpt>
<trkpt lat="46.29862" lon="7.00012"><ele></ele><time>2016-9-26T1:47:57Z</time></trkpt>
<trkpt lat="46.29863" lon="7.00013"><ele></ele><time>2016-9-26T1:48:0Z</time></trkpt>
<trkpt lat="46.29864" lon="7.00015"><ele></ele><time>2016-9-26T1:48:3Z</time></trkpt>
<trkpt lat="46.29866" lon="7.00018"><ele></ele><time>2016-9-26T1:48:6Z</time></trkpt>
<trkpt lat="46.29869" lon="7.00021"><ele></ele><time>2016-9-26T1:48:9Z</time></trkpt>
<trkpt lat="46.29871" lon="7.00024"><ele></ele><time>2016-9-26T1:48:12Z</time></trkpt>
<trkpt lat="46.29873" lon="7.00027"><ele></ele><time>2016-9-26T1:48:15Z</time></trkpt>
<trkpt lat="46.29875" lon="7.0003"><ele></ele><time>2016-9-26T1:48:18Z</time></trkpt>
<trkpt lat="46.29877" lon="7.00033"><ele></ele><time>2016-9-26T1:48:21Z</time></trkpt>
<trkpt lat="46.29879" lon="7.00036"><ele></ele><time>2016-9-26T1:48:24Z</time></trkpt>
<trkpt lat="46.29881" lon="7.0004"><ele></ele><time>2016-9-26T1:48:27Z</time></trkpt>
<trkpt lat="46.29884" lon="7.00043"><ele></ele><time>2016-9-26T1:48:30Z</time></trkpt>
<trkpt lat="46.29886" lon="7.00046"><ele></ele><time>2016-9-26T1:48:33Z</time></trkpt>
<trkpt lat="46.29888" lon="7.00049"><ele></ele><time>2016-9-26T1:48:36Z</time></trkpt>
<trkpt lat="46.2989" lon="7.00052"><ele></ele><time>2016-9-26T1:48:39Z</time></trkpt>
<trkpt lat="46.29892" lon="7.00055"><ele></ele><time>2016-9-26T1:48:42Z</time></trkpt>
<trkpt lat="46.29893" lon="7.00056"><ele></ele><time>2016-9-26T1:48:45Z</time></trkpt>
<trkpt lat="46.29894" lon="7.00058"><ele></ele><time>2016-9-26T1:48:48Z</time></trkpt>
<trkpt lat="46.29896" lon="7.00061"><ele></ele><time>2016-9-26T1:48:51Z</time></trkpt>
<trkpt lat="46.29898" lon="7.00064"><ele></ele><time>2016-9-26T1:48:54Z</time></trkpt>
<trkpt lat="46.299" lon="7.00067"><ele></ele><time>2016-9-26T1:48:57Z</time></trkpt>
<trkpt lat="46.29902" lon="7.0007"><ele></ele><time>2016-9-26T1:49:0Z</time></trkpt>
<trkpt lat="46.29904" lon="7.00073"><ele></ele><time>2016-9-26T1:49:3Z</time></trkpt>
<trkpt lat="46.29906" lon="7.00076"><ele></ele><time>2016-9-26T1:49:6Z</time></trkpt>
<trkpt lat="46.29908" lon="7.0008"><ele></ele><time>2016-9-26T1:49:9Z</time></trkpt>
<trkpt lat="46.2991" lon="7.00083"><ele></ele><time>2016-9-26T1:49:12Z</time></trkpt>
<trkpt lat="46.29911" lon="7.00084"><ele></ele><time>2016-9-26T1:49:15Z</time></trkpt>
<trkpt lat="46.29912" lon="7.00086"><ele></ele><time>2016-9-26T1:49:18Z</time></trkpt>
<trkpt lat="46.29914" lon="7.00089"><ele></ele><time>2016-9-26T1:49:21Z</time></trkpt>
<trkpt lat="46.29916" lon="7.00092"><ele></ele><time>2016-9-26T1:49:24Z</time></trkpt>
<trkpt lat="46.29918" lon="7.00095"><ele></ele><time>2016-9-26T1:49:27Z</time></trkpt>
<trkpt lat="46.2992" lon="7.00098"><ele></ele><time>2016-9-26T1:49:30Z</time></trkpt>
<trkpt lat="46.29922" lon="7.00101"><ele></ele><time>2016-9-26T1:49:33Z</time></trkpt>
<trkpt lat="46.29924" lon="7.00104"><ele></ele><time>2016-9-26T1:49:36Z</time></trkpt>
<trkpt lat="46.29926" lon="7.00107"><ele></ele><time>2016-9-26T1:49:39Z</time></trkpt>
<trkpt lat="46.29927" lon="7.00109"><ele></ele><time>2016-9-26T1:49:42Z</time></trkpt>
<trkpt lat="46.29928" lon="7.00109"><ele></ele><time>2016-9-26T1:49:45Z</time></trkpt>
<trkpt lat="46.29931" lon="7.00111"><ele></ele><time>2016-9-26T1:49:48Z</time></trkpt>
<trkpt lat="46.29934" lon="7.00112"><ele></ele><time>2016-9-26T1:49:51Z</time></trkpt>
<trkpt lat="46.29936" lon="7.00113"><ele></ele><time>2016-9-26T1:49:54Z</time></trkpt>
<trkpt lat="46.29939" lon="7.00115"><ele></ele><time>2016-9-26T1:49:57Z</time></trkpt>
<trkpt lat="46.29941" lon="7.00116"><ele></ele><time>2016-9-26T1:50:0Z</time></trkpt>
<trkpt lat="46.29944" lon="7.00118"><ele></ele><time>2016-9-26T1:50:3Z</time></trkpt>
<trkpt lat="46.29946" lon="7.00119"><ele></ele><time>2016-9-26T1:50:6Z</time></trkpt>
<trkpt lat="46.29949" lon="7.0012"><ele></ele><time>2016-9-26T1:50:9Z</time></trkpt>
<trkpt lat="46.2995" lon="7.00121"><ele></ele><time>2016-9-26T1:50:12Z</time></trkpt>
<trkpt lat="46.29951" lon="7.00122"><ele></ele><time>2016-9-26T1:50:15Z</time></trkpt>
<trkpt lat="46.29954" lon="7.00123"><ele></ele><time>2016-9-26T1:50:18Z</time></trkpt>
<trkpt lat="46.29957" lon="7.00124"><ele></ele><time>2016-9-26T1:50:21Z</time></trkpt>
<trkpt lat="46.29959" lon="7.00126"><ele></ele><time>2016-9-26T1:50:24Z</time></trkpt>
<trkpt lat="46.29962" lon="7.00127"><ele></ele><time>2016-9-26T1:50:27Z</time></trkpt>
<trkpt lat="46.29964" lon="7.00128"><ele></ele><time>2016-9-26T1:50:30Z</time></trkpt>
<trkpt lat="46.29967" lon="7.0013"><ele></ele><time>2016-9-26T1:50:33Z</time></trkpt>
<trkpt lat="46.29969" lon="7.00131"><ele></ele><time>2016-9-26T1:50:36Z</time></trkpt>
<trkpt lat="46.29971" lon="7.00132"><ele></ele><time>2016-9-26T1:50:39Z</time></trkpt>
<trkpt lat="46.29972" lon="7.00133"><ele></ele><time>2016-9-26T1:50:42Z</time></trkpt>
<trkpt lat="46.29975" lon="7.00134"><ele></ele><time>2016-9-26T1:50:45Z</time></trkpt>
<trkpt lat="46.29977" lon="7.00136"><ele></ele><time>2016-9-26T1:50:48Z</time></trkpt>
<trkpt lat="46.29979" lon="7.00137"><ele></ele><time>2016-9-26T1:50:51Z</time></trkpt>
<trkpt lat="46.2998" lon="7.00137"><ele></ele><time>2016-9-26T1:50:54Z</time></trkpt>
<trkpt lat="46.29982" lon="7.00139"><ele></ele><time>2016-9-26T1:50:57Z</time></trkpt>
<trkpt lat="46.29985" lon="7.0014"><ele></ele><time>2016-9-26T1:51:0Z</time></trkpt>
<trkpt lat="46.29988" lon="7.00142"><ele></ele><time>2016-9-26T1:51:3Z</time></trkpt>
<trkpt lat="46.2999" lon="7.00144"><ele></ele><time>2016-9-26T1:51:6Z</time></trkpt>
<trkpt lat="46.29993" lon="7.00145"><ele></ele><time>2016-9-26T1:51:9Z</time></trkpt>
<trkpt lat="46.29996" lon="7.00147"><ele></ele><time>2016-9-26T1:51:12Z</time></trkpt>
<trkpt lat="46.29998" lon="7.00148"><ele></ele><time>2016-9-26T1:51:15Z</time></trkpt>
<trkpt lat="46.30001" lon="7.0015"><ele></ele><time>2016-9-26T1:51:18Z</time></trkpt>
<trkpt lat="46.30002" lon="7.00151"><ele></ele><time>2016-9-26T1:51:21Z</time></trkpt>
<trkpt lat="46.30004" lon="7.00151"><ele></ele><time>2016-9-26T1:51:24Z</time></trkpt>
<trkpt lat="46.30006" lon="7.00153"><ele></ele><time>2016-9-26T1:51:27Z</time></trkpt>
<trkpt lat="46.30009" lon="7.00155"><ele></ele><time>2016-9-26T1:51:30Z</time></trkpt>
<trkpt lat="46.30012" lon="7.00156"><ele></ele><time>2016-9-26T1:51:33Z</time></trkpt>
<trkpt lat="46.30013" lon="7.00157"><ele></ele><time>2016-9-26T1:51:36Z</time></trkpt>
<trkpt lat="46.30014" lon="7.00157"><ele></ele><time>2016-9-26T1:51:39Z</time></trkpt>
<trkpt lat="46.30017" lon="7.00158"><ele></ele><time>2016-9-26T1:51:42Z</time></trkpt>
<trkpt lat="46.3002" lon="7.00159"><ele></ele><time>2016-9-26T1:51:45Z</time></trkpt>
<trkpt lat="46.30023" lon="7.00159"><ele></ele><time>2016-9-26T1:51:48Z</time></trkpt>
<trkpt lat="46.30026" lon="7.0016"><ele></ele><time>2016-9-26T1:51:51Z</time></trkpt>
<trkpt lat="46.30029" lon="7.00161"><ele></ele><time>2016-9-26T1:51:54Z</time></trkpt>
<trkpt lat="46.30032" lon="7.00162"><ele></ele><time>2016-9-26T1:51:57Z</time></trkpt>
<trkpt lat="46.30035" lon="7.00163"><ele></ele><time>2016-9-26T1:52:0Z</time></trkpt>
<trkpt lat="46.30038" lon="7.00163"><ele></ele><time>2016-9-26T1:52:3Z</time></trkpt>
<trkpt lat="46.30041" lon="7.00164"><ele></ele><time>2016-9-26T1:52:6Z</time></trkpt>
<trkpt lat="46.30044" lon="7.00165"><ele></ele><time>2016-9-26T1:52:9Z</time></trkpt>
<trkpt lat="46.30047" lon="7.00166"><ele></ele><time>2016-9-26T1:52:12Z</time></trkpt>
<trkpt lat="46.3005" lon="7.00166"><ele></ele><time>2016-9-26T1:52:15Z</time></trkpt>
<trkpt lat="46.30051" lon="7.00167"><ele></ele><time>2016-9-26T1:52:18Z</time></trkpt>
<trkpt lat="46.30053" lon="7.00167"><ele></ele><time>2016-9-26T1:52:21Z</time></trkpt>
<trkpt lat="46.30056" lon="7.00168"><ele></ele><time>2016-9-26T1:52:24Z</time></trkpt>
<trkpt lat="46.30057" lon="7.00168"><ele></ele><time>2016-9-26T1:52:27Z</time></trkpt>
<trkpt lat="46.30059" lon="7.00169"><ele></ele><time>2016-9-26T1:52:30Z</time></trkpt>
<trkpt lat="46.30061" lon="7.0017"><ele></ele><time>2016-9-26T1:52:33Z</time></trkpt>
<trkpt lat="46.30063" lon="7.00171"><ele></ele><time>2016-9-26T1:52:36Z</time></trkpt>
<trkpt lat="46.30066" lon="7.00172"><ele></ele><time>2016-9-26T1:52:39Z</time></trkpt>
<trkpt lat="46.30068" lon="7.00173"><ele></ele><time>2016-9-26T1:52:42Z</time></trkpt>
<trkpt lat="46.3007" lon="7.00174"><ele></ele><time>2016-9-26T1:52:45Z</time></trkpt>
<trkpt lat="46.30073" lon="7.00175"><ele></ele><time>2016-9-26T1:52:48Z</time></trkpt>
<trkpt lat="46.30075" lon="7.00176"><ele></ele><time>2016-9-26T1:52:51Z</time></trkpt>
<trkpt lat="46.30078" lon="7.00177"><ele></ele><time>2016-9-26T1:52:54Z</time></trkpt>
<trkpt lat="46.3008" lon="7.00178"><ele></ele><time>2016-9-26T1:52:57Z</time></trkpt>
<trkpt lat="46.30082" lon="7.00179"><ele></ele><time>2016-9-26T1:53:0Z</time></trkpt>
<trkpt lat="46.30085" lon="7.0018"><ele></ele><time>2016-9-26T1:53:3Z</time></trkpt>
<trkpt lat="46.30087" lon="7.00181"><ele></ele><time>2016-9-26T1:53:6Z</time></trkpt>
<trkpt lat="46.3009" lon="7.00182"><ele></ele><time>2016-9-26T1:53:9Z</time></trkpt>
<trkpt lat="46.30092" lon="7.00183"><ele></ele><time>2016-9-26T1:53:12Z</time></trkpt>
<trkpt lat="46.30094" lon="7.00184"><ele></ele><time>2016-9-26T1:53:15Z</time></trkpt>
<trkpt lat="46.30097" lon="7.00184"><ele></ele><time>2016-9-26T1:53:18Z</time></trkpt>
<trkpt lat="46.30099" lon="7.00185"><ele></ele><time>2016-9-26T1:53:21Z</time></trkpt>
<trkpt lat="46.30102" lon="7.00186"><ele></ele><time>2016-9-26T1:53:24Z</time></trkpt>
<trkpt lat="46.30104" lon="7.00188"><ele></ele><time>2016-9-26T1:53:27Z</time></trkpt>
<trkpt lat="46.30107" lon="7.00189"><ele></ele><time>2016-9-26T1:53:30Z</time></trkpt>
<trkpt lat="46.3011" lon="7.0019"><ele></ele><time>2016-9-26T1:53:33Z</time></trkpt>
<trkpt lat="46.30113" lon="7.00191"><ele></ele><time>2016-9-26T1:53:36Z</time></trkpt>
<trkpt lat="46.30116" lon="7.00193"><ele></ele><time>2016-9-26T1:53:39Z</time></trkpt>
<trkpt lat="46.30119" lon="7.00194"><ele></ele><time>2016-9-26T1:53:42Z</time></trkpt>
<trkpt lat="46.30122" lon="7.00195"><ele></ele><time>2016-9-26T1:53:45Z</time></trkpt>
<trkpt lat="46.30125" lon="7.00196"><ele></ele><time>2016-9-26T1:53:48Z</time></trkpt>
<trkpt lat="46.30128" lon="7.00198"><ele></ele><time>2016-9-26T1:53:51Z</time></trkpt>
<trkpt lat="46.30131" lon="7.00199"><ele></ele><time>2016-9-26T1:53:54Z</time></trkpt>
<trkpt lat="46.30134" lon="7.002"><ele></ele><time>2016-9-26T1:53:57Z</time></trkpt>
<trkpt lat="46.30137" lon="7.00202"><ele></ele><time>2016-9-26T1:54:0Z</time></trkpt>
<trkpt lat="46.3014" lon="7.00203"><ele></ele><time>2016-9-26T1:54:3Z</time></trkpt>
<trkpt lat="46.30143" lon="7.00204"><ele></ele><time>2016-9-26T1:54:6Z</time></trkpt>
<trkpt lat="46.30145" lon="7.00205"><ele></ele><time>2016-9-26T1:54:9Z</time></trkpt>
<trkpt lat="46.30149" lon="7.00206"><ele></ele><time>2016-9-26T1:54:12Z</time></trkpt>
<trkpt lat="46.30152" lon="7.00208"><ele></ele><time>2016-9-26T1:54:15Z</time></trkpt>
<trkpt lat="46.30155" lon="7.00209"><ele></ele><time>2016-9-26T1:54:18Z</time></trkpt>
<trkpt lat="46.30156" lon="7.00209"><ele></ele><time>2016-9-26T1:54:21Z</time></trkpt>
<trkpt lat="46.30158" lon="7.0021"><ele></ele><time>2016-9-26T1:54:24Z</time></trkpt>
<trkpt lat="46.30161" lon="7.00211"><ele></ele><time>2016-9-26T1:54:27Z</time></trkpt>
<trkpt lat="46.30164" lon="7.00212"><ele></ele><time>2016-9-26T1:54:30Z</time></trkpt>
<trkpt lat="46.30167" lon="7.00213"><ele></ele><time>2016-9-26T1:54:33Z</time></trkpt>
<trkpt lat="46.3017" lon="7.00215"><ele></ele><time>2016-9-26T1:54:36Z</time></trkpt>
<trkpt lat="46.30173" lon="7.00216"><ele></ele><time>2016-9-26T1:54:39Z</time></trkpt>
<trkpt lat="46.30176" lon="7.00217"><ele></ele><time>2016-9-26T1:54:42Z</time></trkpt>
<trkpt lat="46.30179" lon="7.00218"><ele></ele><time>2016-9-26T1:54:45Z</time></trkpt>
<trkpt lat="46.30182" lon="7.00219"><ele></ele><time>2016-9-26T1:54:48Z</time></trkpt>
<trkpt lat="46.30185" lon="7.00221"><ele></ele><time>2016-9-26T1:54:51Z</time></trkpt>
<trkpt lat="46.30188" lon="7.00222"><ele></ele><time>2016-9-26T1:54:54Z</time></trkpt>
<trkpt lat="46.3019" lon="7.00222"><ele></ele><time>2016-9-26T1:54:57Z</time></trkpt>
<trkpt lat="46.30191" lon="7.00223"><ele></ele><time>2016-9-26T1:55:0Z</time></trkpt>
<trkpt lat="46.30194" lon="7.00225"><ele></ele><time>2016-9-26T1:55:3Z</time></trkpt>
<trkpt lat="46.30196" lon="7.00227"><ele></ele><time>2016-9-26T1:55:6Z</time></trkpt>
<trkpt lat="46.30199" lon="7.00228"><ele></ele><time>2016-9-26T1:55:9Z</time></trkpt>
<trkpt lat="46.30202" lon="7.0023"><ele></ele><time>2016-9-26T1:55:12Z</time></trkpt>
<trkpt lat="46.30204" lon="7.00232"><ele></ele><time>2016-9-26T1:55:15Z</time></trkpt>
<trkpt lat="46.30207" lon="7.00234"><ele></ele><time>2016-9-26T1:55:18Z</time></trkpt>
<trkpt lat="46.3021" lon="7.00236"><ele></ele><time>2016-9-26T1:55:21Z</time></trkpt>
<trkpt lat="46.30212" lon="7.00237"><ele></ele><time>2016-9-26T1:55:24Z</time></trkpt>
<trkpt lat="46.30215" lon="7.00239"><ele></ele><time>2016-9-26T1:55:27Z</time></trkpt>
<trkpt lat="46.30218" lon="7.00241"><ele></ele><time>2016-9-26T1:55:30Z</time></trkpt>
<trkpt lat="46.3022" lon="7.00243"><ele></ele><time>2016-9-26T1:55:33Z</time></trkpt>
<trkpt lat="46.30223" lon="7.00244"><ele></ele><time>2016-9-26T1:55:36Z</time></trkpt>
<trkpt lat="46.30226" lon="7.00246"><ele></ele><time>2016-9-26T1:55:39Z</time></trkpt>
<trkpt lat="46.30228" lon="7.00248"><ele></ele><time>2016-9-26T1:55:42Z</time></trkpt>
<trkpt lat="46.30231" lon="7.00249"><ele></ele><time>2016-9-26T1:55:45Z</time></trkpt>
<trkpt lat="46.30233" lon="7.00251"><ele></ele><time>2016-9-26T1:55:48Z</time></trkpt>
<trkpt lat="46.30236" lon="7.00252"><ele></ele><time>2016-9-26T1:55:51Z</time></trkpt>
<trkpt lat="46.30237" lon="7.00252"><ele></ele><time>2016-9-26T1:55:54Z</time></trkpt>
<trkpt lat="46.30238" lon="7.00253"><ele></ele><time>2016-9-26T1:55:57Z</time></trkpt>
<trkpt lat="46.30241" lon="7.00254"><ele></ele><time>2016-9-26T1:56:0Z</time></trkpt>
<trkpt lat="46.30243" lon="7.00255"><ele></ele><time>2016-9-26T1:56:3Z</time></trkpt>
<trkpt lat="46.30246" lon="7.00256"><ele></ele><time>2016-9-26T1:56:6Z</time></trkpt>
<trkpt lat="46.30248" lon="7.00257"><ele></ele><time>2016-9-26T1:56:9Z</time></trkpt>
<trkpt lat="46.30251" lon="7.00259"><ele></ele><time>2016-9-26T1:56:12Z</time></trkpt>
<trkpt lat="46.30253" lon="7.0026"><ele></ele><time>2016-9-26T1:56:15Z</time></trkpt>
<trkpt lat="46.30256" lon="7.00261"><ele></ele><time>2016-9-26T1:56:18Z</time></trkpt>
<trkpt lat="46.30258" lon="7.00262"><ele></ele><time>2016-9-26T1:56:21Z</time></trkpt>
<trkpt lat="46.30261" lon="7.00263"><ele></ele><time>2016-9-26T1:56:24Z</time></trkpt>
<trkpt lat="46.30263" lon="7.00264"><ele></ele><time>2016-9-26T1:56:27Z</time></trkpt>
<trkpt lat="46.30266" lon="7.00265"><ele></ele><time>2016-9-26T1:56:30Z</time></trkpt>
<trkpt lat="46.30268" lon="7.00266"><ele></ele><time>2016-9-26T1:56:33Z</time></trkpt>
<trkpt lat="46.3027" lon="7.00268"><ele></ele><time>2016-9-26T1:56:36Z</time></trkpt>
<trkpt lat="46.30273" lon="7.00269"><ele></ele><time>2016-9-26T1:56:39Z</time></trkpt>
<trkpt lat="46.30274" lon="7.0027"><ele></ele><time>2016-9-26T1:56:42Z</time></trkpt>
<trkpt lat="46.30275" lon="7.00271"><ele></ele><time>2016-9-26T1:56:45Z</time></trkpt>
<trkpt lat="46.30277" lon="7.00275"><ele></ele><time>2016-9-26T1:56:48Z</time></trkpt>
<trkpt lat="46.30277" lon="7.00277"><ele></ele><time>2016-9-26T1:56:51Z</time></trkpt>
<trkpt lat="46.30278" lon="7.00278"><ele></ele><time>2016-9-26T1:56:54Z</time></trkpt>
<trkpt lat="46.3028" lon="7.00282"><ele></ele><time>2016-9-26T1:56:57Z</time></trkpt>
<trkpt lat="46.30282" lon="7.00285"><ele></ele><time>2016-9-26T1:57:0Z</time></trkpt>
<trkpt lat="46.30283" lon="7.00289"><ele></ele><time>2016-9-26T1:57:3Z</time></trkpt>
<trkpt lat="46.30285" lon="7.00292"><ele></ele><time>2016-9-26T1:57:6Z</time></trkpt>
<trkpt lat="46.30287" lon="7.00296"><ele></ele><time>2016-9-26T1:57:9Z</time></trkpt>
<trkpt lat="46.30289" lon="7.00299"><ele></ele><time>2016-9-26T1:57:12Z</time></trkpt>
<trkpt lat="46.3029" lon="7.00303"><ele></ele><time>2016-9-26T1:57:15Z</time></trkpt>
<trkpt lat="46.30292" lon="7.00306"><ele></ele><time>2016-9-26T1:57:18Z</time></trkpt>
<trkpt lat="46.30293" lon="7.00309"><ele></ele><time>2016-9-26T1:57:21Z</time></trkpt>
<trkpt lat="46.30293" lon="7.00311"><ele></ele><time>2016-9-26T1:57:24Z</time></trkpt>
<trkpt lat="46.30294" lon="7.00315"><ele></ele><time>2016-9-26T1:57:27Z</time></trkpt>
<trkpt lat="46.30296" lon="7.0032"><ele></ele><time>2016-9-26T1:57:30Z</time></trkpt>
<trkpt lat="46.30297" lon="7.00324"><ele></ele><time>2016-9-26T1:57:33Z</time></trkpt>
<trkpt lat="46.30298" lon="7.00329"><ele></ele><time>2016-9-26T1:57:36Z</time></trkpt>
<trkpt lat="46.30299" lon="7.0033"><ele></ele><time>2016-9-26T1:57:39Z</time></trkpt>
<trkpt lat="46.30301" lon="7.00331"><ele></ele><time>2016-9-26T1:57:42Z</time></trkpt>
<trkpt lat="46.30305" lon="7.00332"><ele></ele><time>2016-9-26T1:57:45Z</time></trkpt>
<trkpt lat="46.30308" lon="7.00333"><ele></ele><time>2016-9-26T1:57:48Z</time></trkpt>
<trkpt lat="46.30312" lon="7.00334"><ele></ele><time>2016-9-26T1:57:51Z</time></trkpt>
<trkpt lat="46.30315" lon="7.00335"><ele></ele><time>2016-9-26T1:57:54Z</time></trkpt>
<trkpt lat="46.30319" lon="7.00336"><ele></ele><time>2016-9-26T1:57:57Z</time></trkpt>
<trkpt lat="46.3032" lon="7.00336"><ele></ele><time>2016-9-26T1:58:0Z</time></trkpt>
<trkpt lat="46.3032" lon="7.00334"><ele></ele><time>2016-9-26T1:58:3Z</time></trkpt>
<trkpt lat="46.30321" lon="7.0033"><ele></ele><time>2016-9-26T1:58:6Z</time></trkpt>
<trkpt lat="46.30321" lon="7.00325"><ele></ele><time>2016-9-26T1:58:9Z</time></trkpt>
<trkpt lat="46.30322" lon="7.00321"><ele></ele><time>2016-9-26T1:58:12Z</time></trkpt>
<trkpt lat="46.30323" lon="7.00317"><ele></ele><time>2016-9-26T1:58:15Z</time></trkpt>
<trkpt lat="46.30323" lon="7.00313"><ele></ele><time>2016-9-26T1:58:18Z</time></trkpt>
<trkpt lat="46.30322" lon="7.00311"><ele></ele><time>2016-9-26T1:58:21Z</time></trkpt>
<trkpt lat="46.30321" lon="7.00309"><ele></ele><time>2016-9-26T1:58:24Z</time></trkpt>
<trkpt lat="46.30318" lon="7.00306"><ele></ele><time>2016-9-26T1:58:27Z</time></trkpt>
<trkpt lat="46.30316" lon="7.00303"><ele></ele><time>2016-9-26T1:58:30Z</time></trkpt>
<trkpt lat="46.30315" lon="7.00301"><ele></ele><time>2016-9-26T1:58:33Z</time></trkpt>
<trkpt lat="46.30314" lon="7.00299"><ele></ele><time>2016-9-26T1:58:36Z</time></trkpt>
<trkpt lat="46.30311" lon="7.00296"><ele></ele><time>2016-9-26T1:58:39Z</time></trkpt>
<trkpt lat="46.30309" lon="7.00293"><ele></ele><time>2016-9-26T1:58:42Z</time></trkpt>
<trkpt lat="46.30308" lon="7.00291"><ele></ele><time>2016-9-26T1:58:45Z</time></trkpt>
<trkpt lat="46.30307" lon="7.0029"><ele></ele><time>2016-9-26T1:58:48Z</time></trkpt>
<trkpt lat="46.30305" lon="7.00286"><ele></ele><time>2016-9-26T1:58:51Z</time></trkpt>
<trkpt lat="46.30302" lon="7.00283"><ele></ele><time>2016-9-26T1:58:54Z</time></trkpt>
<trkpt lat="46.303" lon="7.0028"><ele></ele><time>2016-9-26T1:58:57Z</time></trkpt>
<trkpt lat="46.30298" lon="7.00277"><ele></ele><time>2016-9-26T1:59:0Z</time></trkpt>
<trkpt lat="46.30295" lon="7.00273"><ele></ele><time>2016-9-26T1:59:3Z</time></trkpt>
<trkpt lat="46.30293" lon="7.0027"><ele></ele><time>2016-9-26T1:59:6Z</time></trkpt>
<trkpt lat="46.30291" lon="7.00267"><ele></ele><time>2016-9-26T1:59:9Z</time></trkpt>
<trkpt lat="46.3029" lon="7.00265"><ele></ele><time>2016-9-26T1:59:12Z</time></trkpt>
<trkpt lat="46.30289" lon="7.00263"><ele></ele><time>2016-9-26T1:59:15Z</time></trkpt>
<trkpt lat="46.30287" lon="7.00259"><ele></ele><time>2016-9-26T1:59:18Z</time></trkpt>
<trkpt lat="46.30286" lon="7.00255"><ele></ele><time>2016-9-26T1:59:21Z</time></trkpt>
<trkpt lat="46.30284" lon="7.00251"><ele></ele><time>2016-9-26T1:59:24Z</time></trkpt>
<trkpt lat="46.30283" lon="7.00247"><ele></ele><time>2016-9-26T1:59:27Z</time></trkpt>
<trkpt lat="46.30281" lon="7.00243"><ele></ele><time>2016-9-26T1:59:30Z</time></trkpt>
<trkpt lat="46.3028" lon="7.00239"><ele></ele><time>2016-9-26T1:59:33Z</time></trkpt>
<trkpt lat="46.30278" lon="7.00235"><ele></ele><time>2016-9-26T1:59:36Z</time></trkpt>
<trkpt lat="46.30276" lon="7.00231"><ele></ele><time>2016-9-26T1:59:39Z</time></trkpt>
<trkpt lat="46.30275" lon="7.00227"><ele></ele><time>2016-9-26T1:59:42Z</time></trkpt>
<trkpt lat="46.30273" lon="7.00223"><ele></ele><time>2016-9-26T1:59:45Z</time></trkpt>
<trkpt lat="46.30272" lon="7.00219"><ele></ele><time>2016-9-26T1:59:48Z</time></trkpt>
<trkpt lat="46.3027" lon="7.00215"><ele></ele><time>2016-9-26T1:59:51Z</time></trkpt>
<trkpt lat="46.30268" lon="7.00211"><ele></ele><time>2016-9-26T1:59:54Z</time></trkpt>
<trkpt lat="46.30267" lon="7.00207"><ele></ele><time>2016-9-26T1:59:57Z</time></trkpt>
<trkpt lat="46.30263" lon="7.00205"><ele></ele><time>2016-9-26T2:0:0Z</time></trkpt>
<trkpt lat="46.3026" lon="7.00203"><ele></ele><time>2016-9-26T2:0:3Z</time></trkpt>
<trkpt lat="46.30257" lon="7.00201"><ele></ele><time>2016-9-26T2:0:6Z</time></trkpt>
<trkpt lat="46.30254" lon="7.00199"><ele></ele><time>2016-9-26T2:0:9Z</time></trkpt>
<trkpt lat="46.3025" lon="7.00196"><ele></ele><time>2016-9-26T2:0:12Z</time></trkpt>
<trkpt lat="46.30249" lon="7.00195"><ele></ele><time>2016-9-26T2:0:15Z</time></trkpt>
<trkpt lat="46.30247" lon="7.00194"><ele></ele><time>2016-9-26T2:0:18Z</time></trkpt>
<trkpt lat="46.30244" lon="7.00192"><ele></ele><time>2016-9-26T2:0:21Z</time></trkpt>
<trkpt lat="46.30241" lon="7.0019"><ele></ele><time>2016-9-26T2:0:24Z</time></trkpt>
<trkpt lat="46.30238" lon="7.00188"><ele></ele><time>2016-9-26T2:0:27Z</time></trkpt>
<trkpt lat="46.30234" lon="7.00185"><ele></ele><time>2016-9-26T2:0:30Z</time></trkpt>
<trkpt lat="46.30231" lon="7.00183"><ele></ele><time>2016-9-26T2:0:33Z</time></trkpt>
<trkpt lat="46.30228" lon="7.00181"><ele></ele><time>2016-9-26T2:0:36Z</time></trkpt>
<trkpt lat="46.30225" lon="7.00179"><ele></ele><time>2016-9-26T2:0:39Z</time></trkpt>
<trkpt lat="46.30222" lon="7.00176"><ele></ele><time>2016-9-26T2:0:42Z</time></trkpt>
<trkpt lat="46.3022" lon="7.00174"><ele></ele><time>2016-9-26T2:0:45Z</time></trkpt>
<trkpt lat="46.30218" lon="7.00171"><ele></ele><time>2016-9-26T2:0:48Z</time></trkpt>
<trkpt lat="46.30215" lon="7.00168"><ele></ele><time>2016-9-26T2:0:51Z</time></trkpt>
<trkpt lat="46.30213" lon="7.00166"><ele></ele><time>2016-9-26T2:0:54Z</time></trkpt>
<trkpt lat="46.30211" lon="7.00163"><ele></ele><time>2016-9-26T2:0:57Z</time></trkpt>
<trkpt lat="46.30208" lon="7.00161"><ele></ele><time>2016-9-26T2:1:0Z</time></trkpt>
<trkpt lat="46.30206" lon="7.00158"><ele></ele><time>2016-9-26T2:1:3Z</time></trkpt>
<trkpt lat="46.30204" lon="7.00156"><ele></ele><time>2016-9-26T2:1:6Z</time></trkpt>
<trkpt lat="46.30201" lon="7.00153"><ele></ele><time>2016-9-26T2:1:9Z</time></trkpt>
<trkpt lat="46.30199" lon="7.0015"><ele></ele><time>2016-9-26T2:1:12Z</time></trkpt>
<trkpt lat="46.30196" lon="7.00148"><ele></ele><time>2016-9-26T2:1:15Z</time></trkpt>
<trkpt lat="46.30194" lon="7.00145"><ele></ele><time>2016-9-26T2:1:18Z</time></trkpt>
<trkpt lat="46.30192" lon="7.00143"><ele></ele><time>2016-9-26T2:1:21Z</time></trkpt>
<trkpt lat="46.30189" lon="7.0014"><ele></ele><time>2016-9-26T2:1:24Z</time></trkpt>
<trkpt lat="46.30188" lon="7.00139"><ele></ele><time>2016-9-26T2:1:27Z</time></trkpt>
<trkpt lat="46.30188" lon="7.00137"><ele></ele><time>2016-9-26T2:1:30Z</time></trkpt>
<trkpt lat="46.30188" lon="7.00133"><ele></ele><time>2016-9-26T2:1:33Z</time></trkpt>
<trkpt lat="46.30187" lon="7.00129"><ele></ele><time>2016-9-26T2:1:36Z</time></trkpt>
<trkpt lat="46.30187" lon="7.00125"><ele></ele><time>2016-9-26T2:1:39Z</time></trkpt>
<trkpt lat="46.30187" lon="7.00122"><ele></ele><time>2016-9-26T2:1:42Z</time></trkpt>
<trkpt lat="46.30186" lon="7.00118"><ele></ele><time>2016-9-26T2:1:45Z</time></trkpt>
<trkpt lat="46.30186" lon="7.00114"><ele></ele><time>2016-9-26T2:1:48Z</time></trkpt>
<trkpt lat="46.30185" lon="7.0011"><ele></ele><time>2016-9-26T2:1:51Z</time></trkpt>
<trkpt lat="46.30185" lon="7.00106"><ele></ele><time>2016-9-26T2:1:54Z</time></trkpt>
<trkpt lat="46.30184" lon="7.00103"><ele></ele><time>2016-9-26T2:1:57Z</time></trkpt>
<trkpt lat="46.30184" lon="7.00099"><ele></ele><time>2016-9-26T2:2:0Z</time></trkpt>
<trkpt lat="46.30183" lon="7.00095"><ele></ele><time>2016-9-26T2:2:3Z</time></trkpt>
<trkpt lat="46.30183" lon="7.00093"><ele></ele><time>2016-9-26T2:2:6Z</time></trkpt>
<trkpt lat="46.30183" lon="7.00091"><ele></ele><time>2016-9-26T2:2:9Z</time></trkpt>
<trkpt lat="46.30183" lon="7.00087"><ele></ele><time>2016-9-26T2:2:12Z</time></trkpt>
<trkpt lat="46.30182" lon="7.00083"><ele></ele><time>2016-9-26T2:2:15Z</time></trkpt>
<trkpt lat="46.30182" lon="7.0008"><ele></ele><time>2016-9-26T2:2:18Z</time></trkpt>
<trkpt lat="46.30181" lon="7.00076"><ele></ele><time>2016-9-26T2:2:21Z</time></trkpt>
<trkpt lat="46.30182" lon="7.00074"><ele></ele><time>2016-9-26T2:2:24Z</time></trkpt>
<trkpt lat="46.30183" lon="7.00073"><ele></ele><time>2016-9-26T2:2:27Z</time></trkpt>
<trkpt lat="46.30185" lon="7.00072"><ele></ele><time>2016-9-26T2:2:30Z</time></trkpt>
<trkpt lat="46.30187" lon="7.0007"><ele></ele><time>2016-9-26T2:2:33Z</time></trkpt>
<trkpt lat="46.3019" lon="7.00069"><ele></ele><time>2016-9-26T2:2:36Z</time></trkpt>
<trkpt lat="46.30192" lon="7.00067"><ele></ele><time>2016-9-26T2:2:39Z</time></trkpt>
<trkpt lat="46.30195" lon="7.00066"><ele></ele><time>2016-9-26T2:2:42Z</time></trkpt>
<trkpt lat="46.30197" lon="7.00064"><ele></ele><time>2016-9-26T2:2:45Z</time></trkpt>
<trkpt lat="46.30199" lon="7.00063"><ele></ele><time>2016-9-26T2:2:48Z</time></trkpt>
<trkpt lat="46.30202" lon="7.00062"><ele></ele><time>2016-9-26T2:2:51Z</time></trkpt>
<trkpt lat="46.30204" lon="7.0006"><ele></ele><time>2016-9-26T2:2:54Z</time></trkpt>
<trkpt lat="46.30206" lon="7.00059"><ele></ele><time>2016-9-26T2:2:57Z</time></trkpt>
<trkpt lat="46.30209" lon="7.00057"><ele></ele><time>2016-9-26T2:3:0Z</time></trkpt>
<trkpt lat="46.3021" lon="7.00056"><ele></ele><time>2016-9-26T2:3:3Z</time></trkpt>
<trkpt lat="46.30211" lon="7.00056"><ele></ele><time>2016-9-26T2:3:6Z</time></trkpt>
<trkpt lat="46.30214" lon="7.00054"><ele></ele><time>2016-9-26T2:3:9Z</time></trkpt>
<trkpt lat="46.30216" lon="7.00053"><ele></ele><time>2016-9-26T2:3:12Z</time></trkpt>
<trkpt lat="46.30218" lon="7.00051"><ele></ele><time>2016-9-26T2:3:15Z</time></trkpt>
<trkpt lat="46.30221" lon="7.0005"><ele></ele><time>2016-9-26T2:3:18Z</time></trkpt>
<trkpt lat="46.30223" lon="7.00048"><ele></ele><time>2016-9-26T2:3:21Z</time></trkpt>
<trkpt lat="46.30226" lon="7.00046"><ele></ele><time>2016-9-26T2:3:24Z</time></trkpt>
<trkpt lat="46.30228" lon="7.00044"><ele></ele><time>2016-9-26T2:3:27Z</time></trkpt>
<trkpt lat="46.30231" lon="7.00042"><ele></ele><time>2016-9-26T2:3:30Z</time></trkpt>
<trkpt lat="46.30234" lon="7.00039"><ele></ele><time>2016-9-26T2:3:33Z</time></trkpt>
<trkpt lat="46.30236" lon="7.00037"><ele></ele><time>2016-9-26T2:3:36Z</time></trkpt>
<trkpt lat="46.30238" lon="7.00036"><ele></ele><time>2016-9-26T2:3:39Z</time></trkpt>
<trkpt lat="46.30239" lon="7.00035"><ele></ele><time>2016-9-26T2:3:42Z</time></trkpt>
<trkpt lat="46.30242" lon="7.00033"><ele></ele><time>2016-9-26T2:3:45Z</time></trkpt>
<trkpt lat="46.30244" lon="7.00031"><ele></ele><time>2016-9-26T2:3:48Z</time></trkpt>
<trkpt lat="46.30247" lon="7.00029"><ele></ele><time>2016-9-26T2:3:51Z</time></trkpt>
<trkpt lat="46.3025" lon="7.00027"><ele></ele><time>2016-9-26T2:3:54Z</time></trkpt>
<trkpt lat="46.30252" lon="7.00024"><ele></ele><time>2016-9-26T2:3:57Z</time></trkpt>
<trkpt lat="46.30255" lon="7.00022"><ele></ele><time>2016-9-26T2:4:0Z</time></trkpt>
<trkpt lat="46.30258" lon="7.0002"><ele></ele><time>2016-9-26T2:4:3Z</time></trkpt>
<trkpt lat="46.3026" lon="7.00018"><ele></ele><time>2016-9-26T2:4:6Z</time></trkpt>
<trkpt lat="46.30263" lon="7.00016"><ele></ele><time>2016-9-26T2:4:9Z</time></trkpt>
<trkpt lat="46.30266" lon="7.00017"><ele></ele><time>2016-9-26T2:4:12Z</time></trkpt>
<trkpt lat="46.30267" lon="7.00018"><ele></ele><time>2016-9-26T2:4:15Z</time></trkpt>
<trkpt lat="46.30268" lon="7.00018"><ele></ele><time>2016-9-26T2:4:18Z</time></trkpt>
<trkpt lat="46.30271" lon="7.00019"><ele></ele><time>2016-9-26T2:4:21Z</time></trkpt>
<trkpt lat="46.30274" lon="7.00021"><ele></ele><time>2016-9-26T2:4:24Z</time></trkpt>
<trkpt lat="46.30277" lon="7.00022"><ele></ele><time>2016-9-26T2:4:27Z</time></trkpt>
<trkpt lat="46.30279" lon="7.00023"><ele></ele><time>2016-9-26T2:4:30Z</time></trkpt>
<trkpt lat="46.30282" lon="7.00024"><ele></ele><time>2016-9-26T2:4:33Z</time></trkpt>
<trkpt lat="46.30285" lon="7.00025"><ele></ele><time>2016-9-26T2:4:36Z</time></trkpt>
<trkpt lat="46.30287" lon="7.00026"><ele></ele><time>2016-9-26T2:4:39Z</time></trkpt>
<trkpt lat="46.3029" lon="7.00027"><ele></ele><time>2016-9-26T2:4:42Z</time></trkpt>
<trkpt lat="46.30293" lon="7.00028"><ele></ele><time>2016-9-26T2:4:45Z</time></trkpt>
<trkpt lat="46.30294" lon="7.00029"><ele></ele><time>2016-9-26T2:4:48Z</time></trkpt>
<trkpt lat="46.30296" lon="7.00029"><ele></ele><time>2016-9-26T2:4:51Z</time></trkpt>
<trkpt lat="46.30298" lon="7.0003"><ele></ele><time>2016-9-26T2:4:54Z</time></trkpt>
<trkpt lat="46.30301" lon="7.00031"><ele></ele><time>2016-9-26T2:4:57Z</time></trkpt>
<trkpt lat="46.30304" lon="7.00032"><ele></ele><time>2016-9-26T2:5:0Z</time></trkpt>
<trkpt lat="46.30307" lon="7.00033"><ele></ele><time>2016-9-26T2:5:3Z</time></trkpt>
<trkpt lat="46.3031" lon="7.00033"><ele></ele><time>2016-9-26T2:5:6Z</time></trkpt>
<trkpt lat="46.30313" lon="7.00032"><ele></ele><time>2016-9-26T2:5:9Z</time></trkpt>
<trkpt lat="46.30316" lon="7.00032"><ele></ele><time>2016-9-26T2:5:12Z</time></trkpt>
<trkpt lat="46.30319" lon="7.00032"><ele></ele><time>2016-9-26T2:5:15Z</time></trkpt>
<trkpt lat="46.30322" lon="7.00031"><ele></ele><time>2016-9-26T2:5:18Z</time></trkpt>
<trkpt lat="46.30325" lon="7.00031"><ele></ele><time>2016-9-26T2:5:21Z</time></trkpt>
<trkpt lat="46.30328" lon="7.0003"><ele></ele><time>2016-9-26T2:5:24Z</time></trkpt>
<trkpt lat="46.3033" lon="7.0003"><ele></ele><time>2016-9-26T2:5:27Z</time></trkpt>
<trkpt lat="46.30331" lon="7.0003"><ele></ele><time>2016-9-26T2:5:30Z</time></trkpt>
<trkpt lat="46.30335" lon="7.0003"><ele></ele><time>2016-9-26T2:5:33Z</time></trkpt>
<trkpt lat="46.30338" lon="7.00029"><ele></ele><time>2016-9-26T2:5:36Z</time></trkpt>
<trkpt lat="46.30341" lon="7.00029"><ele></ele><time>2016-9-26T2:5:39Z</time></trkpt>
<trkpt lat="46.30344" lon="7.00028"><ele></ele><time>2016-9-26T2:5:42Z</time></trkpt>
<trkpt lat="46.30347" lon="7.00028"><ele></ele><time>2016-9-26T2:5:45Z</time></trkpt>
<trkpt lat="46.3035" lon="7.00028"><ele></ele><time>2016-9-26T2:5:48Z</time></trkpt>
<trkpt lat="46.30352" lon="7.00027"><ele></ele><time>2016-9-26T2:5:51Z</time></trkpt>
<trkpt lat="46.30353" lon="7.00026"><ele></ele><time>2016-9-26T2:5:54Z</time></trkpt>
<trkpt lat="46.30357" lon="7.00024"><ele></ele><time>2016-9-26T2:5:57Z</time></trkpt>
<trkpt lat="46.3036" lon="7.00021"><ele></ele><time>2016-9-26T2:6:0Z</time></trkpt>
<trkpt lat="46.30363" lon="7.00019"><ele></ele><time>2016-9-26T2:6:3Z</time></trkpt>
<trkpt lat="46.30366" lon="7.00016"><ele></ele><time>2016-9-26T2:6:6Z</time></trkpt>
<trkpt lat="46.3037" lon="7.00014"><ele></ele><time>2016-9-26T2:6:9Z</time></trkpt>
<trkpt lat="46.30373" lon="7.00011"><ele></ele><time>2016-9-26T2:6:12Z</time></trkpt>
<trkpt lat="46.30376" lon="7.00009"><ele></ele><time>2016-9-26T2:6:15Z</time></trkpt>
<trkpt lat="46.30379" lon="7.00006"><ele></ele><time>2016-9-26T2:6:18Z</time></trkpt>
<trkpt lat="46.30383" lon="7.00004"><ele></ele><time>2016-9-26T2:6:21Z</time></trkpt>
<trkpt lat="46.30386" lon="7.00002"><ele></ele><time>2016-9-26T2:6:24Z</time></trkpt>
<trkpt lat="46.30389" lon="6.99999"><ele></ele><time>2016-9-26T2:6:27Z</time></trkpt>
<trkpt lat="46.30392" lon="6.99996"><ele></ele><time>2016-9-26T2:6:30Z</time></trkpt>
<trkpt lat="46.30392" lon="6.99991"><ele></ele><time>2016-9-26T2:6:33Z</time></trkpt>
<trkpt lat="46.30391" lon="6.99986"><ele></ele><time>2016-9-26T2:6:36Z</time></trkpt>
<trkpt lat="46.30391" lon="6.99981"><ele></ele><time>2016-9-26T2:6:39Z</time></trkpt>
<trkpt lat="46.30391" lon="6.99976"><ele></ele><time>2016-9-26T2:6:42Z</time></trkpt>
<trkpt lat="46.30391" lon="6.99971"><ele></ele><time>2016-9-26T2:6:45Z</time></trkpt>
<trkpt lat="46.3039" lon="6.99966"><ele></ele><time>2016-9-26T2:6:48Z</time></trkpt>
<trkpt lat="46.3039" lon="6.99961"><ele></ele><time>2016-9-26T2:6:51Z</time></trkpt>
<trkpt lat="46.3039" lon="6.99956"><ele></ele><time>2016-9-26T2:6:54Z</time></trkpt>
<trkpt lat="46.30389" lon="6.99951"><ele></ele><time>2016-9-26T2:6:57Z</time></trkpt>
<trkpt lat="46.30389" lon="6.99946"><ele></ele><time>2016-9-26T2:7:0Z</time></trkpt>
<trkpt lat="46.30389" lon="6.99941"><ele></ele><time>2016-9-26T2:7:3Z</time></trkpt>
<trkpt lat="46.30389" lon="6.99936"><ele></ele><time>2016-9-26T2:7:6Z</time></trkpt>
<trkpt lat="46.30388" lon="6.99931"><ele></ele><time>2016-9-26T2:7:9Z</time></trkpt>
<trkpt lat="46.30387" lon="6.99927"><ele></ele><time>2016-9-26T2:7:12Z</time></trkpt>
<trkpt lat="46.30386" lon="6.99923"><ele></ele><time>2016-9-26T2:7:15Z</time></trkpt>
<trkpt lat="46.30384" lon="6.99918"><ele></ele><time>2016-9-26T2:7:18Z</time></trkpt>
<trkpt lat="46.30383" lon="6.99914"><ele></ele><time>2016-9-26T2:7:21Z</time></trkpt>
<trkpt lat="46.30382" lon="6.9991"><ele></ele><time>2016-9-26T2:7:24Z</time></trkpt>
<trkpt lat="46.30381" lon="6.99906"><ele></ele><time>2016-9-26T2:7:27Z</time></trkpt>
<trkpt lat="46.30379" lon="6.99902"><ele></ele><time>2016-9-26T2:7:30Z</time></trkpt>
<trkpt lat="46.30378" lon="6.99898"><ele></ele><time>2016-9-26T2:7:33Z</time></trkpt>
<trkpt lat="46.30377" lon="6.99896"><ele></ele><time>2016-9-26T2:7:36Z</time></trkpt>
<trkpt lat="46.30377" lon="6.99894"><ele></ele><time>2016-9-26T2:7:39Z</time></trkpt>
<trkpt lat="46.30376" lon="6.9989"><ele></ele><time>2016-9-26T2:7:42Z</time></trkpt>
<trkpt lat="46.30374" lon="6.99886"><ele></ele><time>2016-9-26T2:7:45Z</time></trkpt>
<trkpt lat="46.30373" lon="6.99881"><ele></ele><time>2016-9-26T2:7:48Z</time></trkpt>
<trkpt lat="46.30372" lon="6.99877"><ele></ele><time>2016-9-26T2:7:51Z</time></trkpt>
<trkpt lat="46.30371" lon="6.99873"><ele></ele><time>2016-9-26T2:7:54Z</time></trkpt>
<trkpt lat="46.3037" lon="6.99871"><ele></ele><time>2016-9-26T2:7:57Z</time></trkpt>
<trkpt lat="46.30369" lon="6.99869"><ele></ele><time>2016-9-26T2:8:0Z</time></trkpt>
<trkpt lat="46.30368" lon="6.99864"><ele></ele><time>2016-9-26T2:8:3Z</time></trkpt>
<trkpt lat="46.30368" lon="6.99862"><ele></ele><time>2016-9-26T2:8:6Z</time></trkpt>
<trkpt lat="46.30367" lon="6.9986"><ele></ele><time>2016-9-26T2:8:9Z</time></trkpt>
<trkpt lat="46.30366" lon="6.99856"><ele></ele><time>2016-9-26T2:8:12Z</time></trkpt>
<trkpt lat="46.30365" lon="6.99851"><ele></ele><time>2016-9-26T2:8:15Z</time></trkpt>
<trkpt lat="46.30364" lon="6.99847"><ele></ele><time>2016-9-26T2:8:18Z</time></trkpt>
<trkpt lat="46.30363" lon="6.99842"><ele></ele><time>2016-9-26T2:8:21Z</time></trkpt>
<trkpt lat="46.30362" lon="6.99838"><ele></ele><time>2016-9-26T2:8:24Z</time></trkpt>
<trkpt lat="46.30361" lon="6.99834"><ele></ele><time>2016-9-26T2:8:27Z</time></trkpt>
<trkpt lat="46.3036" lon="6.99829"><ele></ele><time>2016-9-26T2:8:30Z</time></trkpt>
<trkpt lat="46.30358" lon="6.99825"><ele></ele><time>2016-9-26T2:8:33Z</time></trkpt>
<trkpt lat="46.30357" lon="6.9982"><ele></ele><time>2016-9-26T2:8:36Z</time></trkpt>
<trkpt lat="46.30356" lon="6.99816"><ele></ele><time>2016-9-26T2:8:39Z</time></trkpt>
<trkpt lat="46.30355" lon="6.99812"><ele></ele><time>2016-9-26T2:8:42Z</time></trkpt>
<trkpt lat="46.30355" lon="6.99809"><ele></ele><time>2016-9-26T2:8:45Z</time></trkpt>
<trkpt lat="46.30354" lon="6.99807"><ele></ele><time>2016-9-26T2:8:48Z</time></trkpt>
<trkpt lat="46.30354" lon="6.99803"><ele></ele><time>2016-9-26T2:8:51Z</time></trkpt>
<trkpt lat="46.30353" lon="6.99799"><ele></ele><time>2016-9-26T2:8:54Z</time></trkpt>
<trkpt lat="46.30352" lon="6.99795"><ele></ele><time>2016-9-26T2:8:57Z</time></trkpt>
<trkpt lat="46.30351" lon="6.9979"><ele></ele><time>2016-9-26T2:9:0Z</time></trkpt>
<trkpt lat="46.3035" lon="6.99786"><ele></ele><time>2016-9-26T2:9:3Z</time></trkpt>
<trkpt lat="46.3035" lon="6.99782"><ele></ele><time>2016-9-26T2:9:6Z</time></trkpt>
<trkpt lat="46.30349" lon="6.99778"><ele></ele><time>2016-9-26T2:9:9Z</time></trkpt>
<trkpt lat="46.30348" lon="6.99774"><ele></ele><time>2016-9-26T2:9:12Z</time></trkpt>
<trkpt lat="46.30347" lon="6.99769"><ele></ele><time>2016-9-26T2:9:15Z</time></trkpt>
<trkpt lat="46.30347" lon="6.99767"><ele></ele><time>2016-9-26T2:9:18Z</time></trkpt>
<trkpt lat="46.30347" lon="6.99765"><ele></ele><time>2016-9-26T2:9:21Z</time></trkpt>
<trkpt lat="46.30346" lon="6.99761"><ele></ele><time>2016-9-26T2:9:24Z</time></trkpt>
<trkpt lat="46.30345" lon="6.99757"><ele></ele><time>2016-9-26T2:9:27Z</time></trkpt>
<trkpt lat="46.30344" lon="6.99752"><ele></ele><time>2016-9-26T2:9:30Z</time></trkpt>
<trkpt lat="46.30344" lon="6.99748"><ele></ele><time>2016-9-26T2:9:33Z</time></trkpt>
<trkpt lat="46.30343" lon="6.99746"><ele></ele><time>2016-9-26T2:9:36Z</time></trkpt>
<trkpt lat="46.30343" lon="6.99744"><ele></ele><time>2016-9-26T2:9:39Z</time></trkpt>
<trkpt lat="46.30342" lon="6.9974"><ele></ele><time>2016-9-26T2:9:42Z</time></trkpt>
<trkpt lat="46.30341" lon="6.99736"><ele></ele><time>2016-9-26T2:9:45Z</time></trkpt>
<trkpt lat="46.3034" lon="6.99732"><ele></ele><time>2016-9-26T2:9:48Z</time></trkpt>
<trkpt lat="46.3034" lon="6.99727"><ele></ele><time>2016-9-26T2:9:51Z</time></trkpt>
<trkpt lat="46.30339" lon="6.99723"><ele></ele><time>2016-9-26T2:9:54Z</time></trkpt>
<trkpt lat="46.30338" lon="6.99719"><ele></ele><time>2016-9-26T2:9:57Z</time></trkpt>
<trkpt lat="46.30337" lon="6.99715"><ele></ele><time>2016-9-26T2:10:0Z</time></trkpt>
<trkpt lat="46.30336" lon="6.99711"><ele></ele><time>2016-9-26T2:10:3Z</time></trkpt>
<trkpt lat="46.30336" lon="6.99707"><ele></ele><time>2016-9-26T2:10:6Z</time></trkpt>
<trkpt lat="46.30335" lon="6.99702"><ele></ele><time>2016-9-26T2:10:9Z</time></trkpt>
<trkpt lat="46.30334" lon="6.99698"><ele></ele><time>2016-9-26T2:10:12Z</time></trkpt>
<trkpt lat="46.30333" lon="6.99694"><ele></ele><time>2016-9-26T2:10:15Z</time></trkpt>
<trkpt lat="46.30332" lon="6.9969"><ele></ele><time>2016-9-26T2:10:18Z</time></trkpt>
<trkpt lat="46.30332" lon="6.99688"><ele></ele><time>2016-9-26T2:10:21Z</time></trkpt>
<trkpt lat="46.30332" lon="6.99686"><ele></ele><time>2016-9-26T2:10:24Z</time></trkpt>
<trkpt lat="46.30331" lon="6.99682"><ele></ele><time>2016-9-26T2:10:27Z</time></trkpt>
<trkpt lat="46.3033" lon="6.99678"><ele></ele><time>2016-9-26T2:10:30Z</time></trkpt>
<trkpt lat="46.30329" lon="6.99674"><ele></ele><time>2016-9-26T2:10:33Z</time></trkpt>
<trkpt lat="46.30328" lon="6.99669"><ele></ele><time>2016-9-26T2:10:36Z</time></trkpt>
<trkpt lat="46.30327" lon="6.99665"><ele></ele><time>2016-9-26T2:10:39Z</time></trkpt>
<trkpt lat="46.30326" lon="6.99661"><ele></ele><time>2016-9-26T2:10:42Z</time></trkpt>
<trkpt lat="46.30324" lon="6.99657"><ele></ele><time>2016-9-26T2:10:45Z</time></trkpt>
<trkpt lat="46.30323" lon="6.99653"><ele></ele><time>2016-9-26T2:10:48Z</time></trkpt>
<trkpt lat="46.30322" lon="6.99649"><ele></ele><time>2016-9-26T2:10:51Z</time></trkpt>
<trkpt lat="46.30321" lon="6.99645"><ele></ele><time>2016-9-26T2:10:54Z</time></trkpt>
<trkpt lat="46.3032" lon="6.99641"><ele></ele><time>2016-9-26T2:10:57Z</time></trkpt>
<trkpt lat="46.30319" lon="6.99637"><ele></ele><time>2016-9-26T2:11:0Z</time></trkpt>
<trkpt lat="46.30318" lon="6.99633"><ele></ele><time>2016-9-26T2:11:3Z</time></trkpt>
<trkpt lat="46.30317" lon="6.99629"><ele></ele><time>2016-9-26T2:11:6Z</time></trkpt>
<trkpt lat="46.30316" lon="6.99625"><ele></ele><time>2016-9-26T2:11:9Z</time></trkpt>
<trkpt lat="46.30315" lon="6.99621"><ele></ele><time>2016-9-26T2:11:12Z</time></trkpt>
<trkpt lat="46.30315" lon="6.99615"><ele></ele><time>2016-9-26T2:11:15Z</time></trkpt>
<trkpt lat="46.30314" lon="6.9961"><ele></ele><time>2016-9-26T2:11:18Z</time></trkpt>
<trkpt lat="46.30314" lon="6.99605"><ele></ele><time>2016-9-26T2:11:21Z</time></trkpt>
<trkpt lat="46.30314" lon="6.996"><ele></ele><time>2016-9-26T2:11:24Z</time></trkpt>
<trkpt lat="46.30313" lon="6.99595"><ele></ele><time>2016-9-26T2:11:27Z</time></trkpt>
<trkpt lat="46.30313" lon="6.9959"><ele></ele><time>2016-9-26T2:11:30Z</time></trkpt>
<trkpt lat="46.30313" lon="6.99584"><ele></ele><time>2016-9-26T2:11:33Z</time></trkpt>
<trkpt lat="46.30313" lon="6.99579"><ele></ele><time>2016-9-26T2:11:36Z</time></trkpt>
<trkpt lat="46.30312" lon="6.99574"><ele></ele><time>2016-9-26T2:11:39Z</time></trkpt>
<trkpt lat="46.30312" lon="6.99569"><ele></ele><time>2016-9-26T2:11:42Z</time></trkpt>
<trkpt lat="46.30312" lon="6.99564"><ele></ele><time>2016-9-26T2:11:45Z</time></trkpt>
<trkpt lat="46.30311" lon="6.99559"><ele></ele><time>2016-9-26T2:11:48Z</time></trkpt>
<trkpt lat="46.30311" lon="6.99556"><ele></ele><time>2016-9-26T2:11:51Z</time></trkpt>
<trkpt lat="46.30311" lon="6.99554"><ele></ele><time>2016-9-26T2:11:54Z</time></trkpt>
<trkpt lat="46.30311" lon="6.99549"><ele></ele><time>2016-9-26T2:11:57Z</time></trkpt>
<trkpt lat="46.30311" lon="6.99545"><ele></ele><time>2016-9-26T2:12:0Z</time></trkpt>
<trkpt lat="46.30312" lon="6.99541"><ele></ele><time>2016-9-26T2:12:3Z</time></trkpt>
<trkpt lat="46.30312" lon="6.99536"><ele></ele><time>2016-9-26T2:12:6Z</time></trkpt>
<trkpt lat="46.30312" lon="6.99532"><ele></ele><time>2016-9-26T2:12:9Z</time></trkpt>
<trkpt lat="46.30312" lon="6.99527"><ele></ele><time>2016-9-26T2:12:12Z</time></trkpt>
<trkpt lat="46.30312" lon="6.99523"><ele></ele><time>2016-9-26T2:12:15Z</time></trkpt>
<trkpt lat="46.30312" lon="6.99519"><ele></ele><time>2016-9-26T2:12:18Z</time></trkpt>
<trkpt lat="46.30312" lon="6.99514"><ele></ele><time>2016-9-26T2:12:21Z</time></trkpt>
<trkpt lat="46.30313" lon="6.9951"><ele></ele><time>2016-9-26T2:12:24Z</time></trkpt>
<trkpt lat="46.30313" lon="6.99505"><ele></ele><time>2016-9-26T2:12:27Z</time></trkpt>
<trkpt lat="46.30313" lon="6.99501"><ele></ele><time>2016-9-26T2:12:30Z</time></trkpt>
<trkpt lat="46.30313" lon="6.99496"><ele></ele><time>2016-9-26T2:12:33Z</time></trkpt>
<trkpt lat="46.30313" lon="6.99492"><ele></ele><time>2016-9-26T2:12:36Z</time></trkpt>
<trkpt lat="46.30313" lon="6.9949"><ele></ele><time>2016-9-26T2:12:39Z</time></trkpt>
<trkpt lat="46.30313" lon="6.99488"><ele></ele><time>2016-9-26T2:12:42Z</time></trkpt>
<trkpt lat="46.30314" lon="6.99484"><ele></ele><time>2016-9-26T2:12:45Z</time></trkpt>
<trkpt lat="46.30314" lon="6.9948"><ele></ele><time>2016-9-26T2:12:48Z</time></trkpt>
<trkpt lat="46.30315" lon="6.99476"><ele></ele><time>2016-9-26T2:12:51Z</time></trkpt>
<trkpt lat="46.30315" lon="6.99471"><ele></ele><time>2016-9-26T2:12:54Z</time></trkpt>
<trkpt lat="46.30316" lon="6.99467"><ele></ele><time>2016-9-26T2:12:57Z</time></trkpt>
<trkpt lat="46.30316" lon="6.99463"><ele></ele><time>2016-9-26T2:13:0Z</time></trkpt>
<trkpt lat="46.30317" lon="6.99459"><ele></ele><time>2016-9-26T2:13:3Z</time></trkpt>
<trkpt lat="46.30317" lon="6.99455"><ele></ele><time>2016-9-26T2:13:6Z</time></trkpt>
<trkpt lat="46.30318" lon="6.99451"><ele></ele><time>2016-9-26T2:13:9Z</time></trkpt>
<trkpt lat="46.30318" lon="6.99447"><ele></ele><time>2016-9-26T2:13:12Z</time></trkpt>
<trkpt lat="46.30319" lon="6.99443"><ele></ele><time>2016-9-26T2:13:15Z</time></trkpt>
<trkpt lat="46.30319" lon="6.99439"><ele></ele><time>2016-9-26T2:13:18Z</time></trkpt>
<trkpt lat="46.30319" lon="6.99435"><ele></ele><time>2016-9-26T2:13:21Z</time></trkpt>
<trkpt lat="46.3032" lon="6.99431"><ele></ele><time>2016-9-26T2:13:24Z</time></trkpt>
<trkpt lat="46.3032" lon="6.99426"><ele></ele><time>2016-9-26T2:13:27Z</time></trkpt>
<trkpt lat="46.3032" lon="6.99424"><ele></ele><time>2016-9-26T2:13:30Z</time></trkpt>
<trkpt lat="46.3032" lon="6.99422"><ele></ele><time>2016-9-26T2:13:33Z</time></trkpt>
<trkpt lat="46.30318" lon="6.99416"><ele></ele><time>2016-9-26T2:13:36Z</time></trkpt>
<trkpt lat="46.30317" lon="6.99411"><ele></ele><time>2016-9-26T2:13:39Z</time></trkpt>
<trkpt lat="46.30315" lon="6.99405"><ele></ele><time>2016-9-26T2:13:42Z</time></trkpt>
<trkpt lat="46.30314" lon="6.994"><ele></ele><time>2016-9-26T2:13:45Z</time></trkpt>
<trkpt lat="46.30312" lon="6.99395"><ele></ele><time>2016-9-26T2:13:48Z</time></trkpt>
<trkpt lat="46.30311" lon="6.99389"><ele></ele><time>2016-9-26T2:13:51Z</time></trkpt>
<trkpt lat="46.30309" lon="6.99384"><ele></ele><time>2016-9-26T2:13:54Z</time></trkpt>
<trkpt lat="46.30308" lon="6.99379"><ele></ele><time>2016-9-26T2:13:57Z</time></trkpt>
<trkpt lat="46.30311" lon="6.99377"><ele></ele><time>2016-9-26T2:14:0Z</time></trkpt>
<trkpt lat="46.30313" lon="6.99376"><ele></ele><time>2016-9-26T2:14:3Z</time></trkpt>
<trkpt lat="46.30314" lon="6.99375"><ele></ele><time>2016-9-26T2:14:6Z</time></trkpt>
<trkpt lat="46.30318" lon="6.99373"><ele></ele><time>2016-9-26T2:14:9Z</time></trkpt>
<trkpt lat="46.30321" lon="6.99371"><ele></ele><time>2016-9-26T2:14:12Z</time></trkpt>
<trkpt lat="46.30322" lon="6.99371"><ele></ele><time>2016-9-26T2:14:15Z</time></trkpt>
<trkpt lat="46.30322" lon="6.99374"><ele></ele><time>2016-9-26T2:14:18Z</time></trkpt>
<trkpt lat="46.30323" lon="6.99379"><ele></ele><time>2016-9-26T2:14:21Z</time></trkpt>
<trkpt lat="46.30323" lon="6.99383"><ele></ele><time>2016-9-26T2:14:24Z</time></trkpt>
<trkpt lat="46.30324" lon="6.99388"><ele></ele><time>2016-9-26T2:14:27Z</time></trkpt>
<trkpt lat="46.30324" lon="6.99393"><ele></ele><time>2016-9-26T2:14:30Z</time></trkpt>
<trkpt lat="46.30325" lon="6.99398"><ele></ele><time>2016-9-26T2:14:33Z</time></trkpt>
<trkpt lat="46.30325" lon="6.99402"><ele></ele><time>2016-9-26T2:14:36Z</time></trkpt>
<trkpt lat="46.30326" lon="6.99407"><ele></ele><time>2016-9-26T2:14:39Z</time></trkpt>
<trkpt lat="46.30327" lon="6.99412"><ele></ele><time>2016-9-26T2:14:42Z</time></trkpt>
<trkpt lat="46.30327" lon="6.99417"><ele></ele><time>2016-9-26T2:14:45Z</time></trkpt>
<trkpt lat="46.30328" lon="6.99422"><ele></ele><time>2016-9-26T2:14:48Z</time></trkpt>
<trkpt lat="46.30328" lon="6.99426"><ele></ele><time>2016-9-26T2:14:51Z</time></trkpt>
<trkpt lat="46.30329" lon="6.99431"><ele></ele><time>2016-9-26T2:14:54Z</time></trkpt>
<trkpt lat="46.30329" lon="6.99436"><ele></ele><time>2016-9-26T2:14:57Z</time></trkpt>
<trkpt lat="46.30331" lon="6.9944"><ele></ele><time>2016-9-26T2:15:0Z</time></trkpt>
<trkpt lat="46.30332" lon="6.99444"><ele></ele><time>2016-9-26T2:15:3Z</time></trkpt>
<trkpt lat="46.30333" lon="6.99448"><ele></ele><time>2016-9-26T2:15:6Z</time></trkpt>
<trkpt lat="46.30334" lon="6.99452"><ele></ele><time>2016-9-26T2:15:9Z</time></trkpt>
<trkpt lat="46.30335" lon="6.99456"><ele></ele><time>2016-9-26T2:15:12Z</time></trkpt>
<trkpt lat="46.30335" lon="6.99458"><ele></ele><time>2016-9-26T2:15:15Z</time></trkpt>
<trkpt lat="46.30336" lon="6.99461"><ele></ele><time>2016-9-26T2:15:18Z</time></trkpt>
<trkpt lat="46.30337" lon="6.99465"><ele></ele><time>2016-9-26T2:15:21Z</time></trkpt>
<trkpt lat="46.30338" lon="6.99469"><ele></ele><time>2016-9-26T2:15:24Z</time></trkpt>
<trkpt lat="46.30339" lon="6.99473"><ele></ele><time>2016-9-26T2:15:27Z</time></trkpt>
<trkpt lat="46.3034" lon="6.99477"><ele></ele><time>2016-9-26T2:15:30Z</time></trkpt>
<trkpt lat="46.30341" lon="6.99481"><ele></ele><time>2016-9-26T2:15:33Z</time></trkpt>
<trkpt lat="46.30342" lon="6.99483"><ele></ele><time>2016-9-26T2:15:36Z</time></trkpt>
<trkpt lat="46.30342" lon="6.99485"><ele></ele><time>2016-9-26T2:15:39Z</time></trkpt>
<trkpt lat="46.30343" lon="6.99489"><ele></ele><time>2016-9-26T2:15:42Z</time></trkpt>
<trkpt lat="46.30345" lon="6.99493"><ele></ele><time>2016-9-26T2:15:45Z</time></trkpt>
<trkpt lat="46.30346" lon="6.99498"><ele></ele><time>2016-9-26T2:15:48Z</time></trkpt>
<trkpt lat="46.30347" lon="6.99503"><ele></ele><time>2016-9-26T2:15:51Z</time></trkpt>
<trkpt lat="46.30348" lon="6.99507"><ele></ele><time>2016-9-26T2:15:54Z</time></trkpt>
<trkpt lat="46.30349" lon="6.99512"><ele></ele><time>2016-9-26T2:15:57Z</time></trkpt>
<trkpt lat="46.30349" lon="6.99517"><ele></ele><time>2016-9-26T2:16:0Z</time></trkpt>
<trkpt lat="46.3035" lon="6.99522"><ele></ele><time>2016-9-26T2:16:3Z</time></trkpt>
<trkpt lat="46.30351" lon="6.99527"><ele></ele><time>2016-9-26T2:16:6Z</time></trkpt>
<trkpt lat="46.30352" lon="6.99532"><ele></ele><time>2016-9-26T2:16:9Z</time></trkpt>
<trkpt lat="46.30353" lon="6.99534"><ele></ele><time>2016-9-26T2:16:12Z</time></trkpt>
<trkpt lat="46.30353" lon="6.99537"><ele></ele><time>2016-9-26T2:16:15Z</time></trkpt>
<trkpt lat="46.30354" lon="6.99542"><ele></ele><time>2016-9-26T2:16:18Z</time></trkpt>
<trkpt lat="46.30355" lon="6.99547"><ele></ele><time>2016-9-26T2:16:21Z</time></trkpt>
<trkpt lat="46.30356" lon="6.99551"><ele></ele><time>2016-9-26T2:16:24Z</time></trkpt>
<trkpt lat="46.30357" lon="6.99556"><ele></ele><time>2016-9-26T2:16:27Z</time></trkpt>
<trkpt lat="46.30358" lon="6.99561"><ele></ele><time>2016-9-26T2:16:30Z</time></trkpt>
<trkpt lat="46.30359" lon="6.99564"><ele></ele><time>2016-9-26T2:16:33Z</time></trkpt>
<trkpt lat="46.3036" lon="6.99566"><ele></ele><time>2016-9-26T2:16:36Z</time></trkpt>
<trkpt lat="46.30361" lon="6.9957"><ele></ele><time>2016-9-26T2:16:39Z</time></trkpt>
<trkpt lat="46.30363" lon="6.99574"><ele></ele><time>2016-9-26T2:16:42Z</time></trkpt>
<trkpt lat="46.30365" lon="6.99579"><ele></ele><time>2016-9-26T2:16:45Z</time></trkpt>
<trkpt lat="46.30366" lon="6.99583"><ele></ele><time>2016-9-26T2:16:48Z</time></trkpt>
<trkpt lat="46.30368" lon="6.99587"><ele></ele><time>2016-9-26T2:16:51Z</time></trkpt>
<trkpt lat="46.30369" lon="6.99592"><ele></ele><time>2016-9-26T2:16:54Z</time></trkpt>
<trkpt lat="46.30371" lon="6.99596"><ele></ele><time>2016-9-26T2:16:57Z</time></trkpt>
<trkpt lat="46.30373" lon="6.996"><ele></ele><time>2016-9-26T2:17:0Z</time></trkpt>
<trkpt lat="46.30374" lon="6.99605"><ele></ele><time>2016-9-26T2:17:3Z</time></trkpt>
<trkpt lat="46.30376" lon="6.99609"><ele></ele><time>2016-9-26T2:17:6Z</time></trkpt>
<trkpt lat="46.30378" lon="6.99613"><ele></ele><time>2016-9-26T2:17:9Z</time></trkpt>
<trkpt lat="46.30379" lon="6.99618"><ele></ele><time>2016-9-26T2:17:12Z</time></trkpt>
<trkpt lat="46.30381" lon="6.99622"><ele></ele><time>2016-9-26T2:17:15Z</time></trkpt>
<trkpt lat="46.30382" lon="6.99625"><ele></ele><time>2016-9-26T2:17:18Z</time></trkpt>
<trkpt lat="46.30384" lon="6.99629"><ele></ele><time>2016-9-26T2:17:21Z</time></trkpt>
<trkpt lat="46.30385" lon="6.99632"><ele></ele><time>2016-9-26T2:17:24Z</time></trkpt>
<trkpt lat="46.30387" lon="6.99636"><ele></ele><time>2016-9-26T2:17:27Z</time></trkpt>
<trkpt lat="46.30388" lon="6.99639"><ele></ele><time>2016-9-26T2:17:30Z</time></trkpt>
<trkpt lat="46.30389" lon="6.99643"><ele></ele><time>2016-9-26T2:17:33Z</time></trkpt>
<trkpt lat="46.30391" lon="6.99646"><ele></ele><time>2016-9-26T2:17:36Z</time></trkpt>
<trkpt lat="46.30392" lon="6.9965"><ele></ele><time>2016-9-26T2:17:39Z</time></trkpt>
<trkpt lat="46.30393" lon="6.99653"><ele></ele><time>2016-9-26T2:17:42Z</time></trkpt>
<trkpt lat="46.30395" lon="6.99657"><ele></ele><time>2016-9-26T2:17:45Z</time></trkpt>
<trkpt lat="46.30396" lon="6.9966"><ele></ele><time>2016-9-26T2:17:48Z</time></trkpt>
<trkpt lat="46.30397" lon="6.99664"><ele></ele><time>2016-9-26T2:17:51Z</time></trkpt>
<trkpt lat="46.30399" lon="6.99667"><ele></ele><time>2016-9-26T2:17:54Z</time></trkpt>
<trkpt lat="46.304" lon="6.9967"><ele></ele><time>2016-9-26T2:17:57Z</time></trkpt>
<trkpt lat="46.30401" lon="6.99674"><ele></ele><time>2016-9-26T2:18:0Z</time></trkpt>
<trkpt lat="46.30403" lon="6.99677"><ele></ele><time>2016-9-26T2:18:3Z</time></trkpt>
<trkpt lat="46.30403" lon="6.99679"><ele></ele><time>2016-9-26T2:18:6Z</time></trkpt>
<trkpt lat="46.30404" lon="6.9968"><ele></ele><time>2016-9-26T2:18:9Z</time></trkpt>
<trkpt lat="46.30406" lon="6.99683"><ele></ele><time>2016-9-26T2:18:12Z</time></trkpt>
<trkpt lat="46.30408" lon="6.99686"><ele></ele><time>2016-9-26T2:18:15Z</time></trkpt>
<trkpt lat="46.30409" lon="6.99689"><ele></ele><time>2016-9-26T2:18:18Z</time></trkpt>
<trkpt lat="46.30411" lon="6.99692"><ele></ele><time>2016-9-26T2:18:21Z</time></trkpt>
<trkpt lat="46.30413" lon="6.99695"><ele></ele><time>2016-9-26T2:18:24Z</time></trkpt>
<trkpt lat="46.30414" lon="6.99697"><ele></ele><time>2016-9-26T2:18:27Z</time></trkpt>
<trkpt lat="46.30416" lon="6.997"><ele></ele><time>2016-9-26T2:18:30Z</time></trkpt>
<trkpt lat="46.30418" lon="6.99703"><ele></ele><time>2016-9-26T2:18:33Z</time></trkpt>
<trkpt lat="46.3042" lon="6.99706"><ele></ele><time>2016-9-26T2:18:36Z</time></trkpt>
<trkpt lat="46.30421" lon="6.99709"><ele></ele><time>2016-9-26T2:18:39Z</time></trkpt>
<trkpt lat="46.30423" lon="6.99712"><ele></ele><time>2016-9-26T2:18:42Z</time></trkpt>
<trkpt lat="46.30425" lon="6.99715"><ele></ele><time>2016-9-26T2:18:45Z</time></trkpt>
<trkpt lat="46.30426" lon="6.99717"><ele></ele><time>2016-9-26T2:18:48Z</time></trkpt>
<trkpt lat="46.30427" lon="6.99719"><ele></ele><time>2016-9-26T2:18:51Z</time></trkpt>
<trkpt lat="46.30428" lon="6.9972"><ele></ele><time>2016-9-26T2:18:54Z</time></trkpt>
<trkpt lat="46.3043" lon="6.99723"><ele></ele><time>2016-9-26T2:18:57Z</time></trkpt>
<trkpt lat="46.30431" lon="6.99726"><ele></ele><time>2016-9-26T2:19:0Z</time></trkpt>
<trkpt lat="46.30433" lon="6.99729"><ele></ele><time>2016-9-26T2:19:3Z</time></trkpt>
<trkpt lat="46.30435" lon="6.99732"><ele></ele><time>2016-9-26T2:19:6Z</time></trkpt>
<trkpt lat="46.30437" lon="6.99736"><ele></ele><time>2016-9-26T2:19:9Z</time></trkpt>
<trkpt lat="46.30439" lon="6.99739"><ele></ele><time>2016-9-26T2:19:12Z</time></trkpt>
<trkpt lat="46.30441" lon="6.99742"><ele></ele><time>2016-9-26T2:19:15Z</time></trkpt>
<trkpt lat="46.30443" lon="6.99746"><ele></ele><time>2016-9-26T2:19:18Z</time></trkpt>
<trkpt lat="46.30445" lon="6.99749"><ele></ele><time>2016-9-26T2:19:21Z</time></trkpt>
<trkpt lat="46.30447" lon="6.99753"><ele></ele><time>2016-9-26T2:19:24Z</time></trkpt>
<trkpt lat="46.30449" lon="6.99756"><ele></ele><time>2016-9-26T2:19:27Z</time></trkpt>
<trkpt lat="46.30451" lon="6.9976"><ele></ele><time>2016-9-26T2:19:30Z</time></trkpt>
<trkpt lat="46.30453" lon="6.99763"><ele></ele><time>2016-9-26T2:19:33Z</time></trkpt>
<trkpt lat="46.30455" lon="6.99766"><ele></ele><time>2016-9-26T2:19:36Z</time></trkpt>
<trkpt lat="46.30457" lon="6.9977"><ele></ele><time>2016-9-26T2:19:39Z</time></trkpt>
<trkpt lat="46.30459" lon="6.99773"><ele></ele><time>2016-9-26T2:19:42Z</time></trkpt>
<trkpt lat="46.30461" lon="6.99777"><ele></ele><time>2016-9-26T2:19:45Z</time></trkpt>
<trkpt lat="46.30463" lon="6.9978"><ele></ele><time>2016-9-26T2:19:48Z</time></trkpt>
<trkpt lat="46.30465" lon="6.99783"><ele></ele><time>2016-9-26T2:19:51Z</time></trkpt>
<trkpt lat="46.30468" lon="6.99786"><ele></ele><time>2016-9-26T2:19:54Z</time></trkpt>
<trkpt lat="46.3047" lon="6.99789"><ele></ele><time>2016-9-26T2:19:57Z</time></trkpt>
<trkpt lat="46.30472" lon="6.99792"><ele></ele><time>2016-9-26T2:20:0Z</time></trkpt>
<trkpt lat="46.30473" lon="6.99794"><ele></ele><time>2016-9-26T2:20:3Z</time></trkpt>
<trkpt lat="46.30475" lon="6.99795"><ele></ele><time>2016-9-26T2:20:6Z</time></trkpt>
<trkpt lat="46.30477" lon="6.99798"><ele></ele><time>2016-9-26T2:20:9Z</time></trkpt>
<trkpt lat="46.30479" lon="6.99801"><ele></ele><time>2016-9-26T2:20:12Z</time></trkpt>
<trkpt lat="46.30482" lon="6.99804"><ele></ele><time>2016-9-26T2:20:15Z</time></trkpt>
<trkpt lat="46.30484" lon="6.99807"><ele></ele><time>2016-9-26T2:20:18Z</time></trkpt>
<trkpt lat="46.30487" lon="6.9981"><ele></ele><time>2016-9-26T2:20:21Z</time></trkpt>
<trkpt lat="46.30489" lon="6.99813"><ele></ele><time>2016-9-26T2:20:24Z</time></trkpt>
<trkpt lat="46.30491" lon="6.99816"><ele></ele><time>2016-9-26T2:20:27Z</time></trkpt>
<trkpt lat="46.30494" lon="6.99819"><ele></ele><time>2016-9-26T2:20:30Z</time></trkpt>
<trkpt lat="46.30496" lon="6.99822"><ele></ele><time>2016-9-26T2:20:33Z</time></trkpt>
<trkpt lat="46.30497" lon="6.99824"><ele></ele><time>2016-9-26T2:20:36Z</time></trkpt>
<trkpt lat="46.30498" lon="6.99825"><ele></ele><time>2016-9-26T2:20:39Z</time></trkpt>
<trkpt lat="46.305" lon="6.99829"><ele></ele><time>2016-9-26T2:20:42Z</time></trkpt>
<trkpt lat="46.30502" lon="6.99832"><ele></ele><time>2016-9-26T2:20:45Z</time></trkpt>
<trkpt lat="46.30504" lon="6.99835"><ele></ele><time>2016-9-26T2:20:48Z</time></trkpt>
<trkpt lat="46.30506" lon="6.99838"><ele></ele><time>2016-9-26T2:20:51Z</time></trkpt>
<trkpt lat="46.30508" lon="6.99842"><ele></ele><time>2016-9-26T2:20:54Z</time></trkpt>
<trkpt lat="46.3051" lon="6.99845"><ele></ele><time>2016-9-26T2:20:57Z</time></trkpt>
<trkpt lat="46.30512" lon="6.99848"><ele></ele><time>2016-9-26T2:21:0Z</time></trkpt>
<trkpt lat="46.30514" lon="6.99851"><ele></ele><time>2016-9-26T2:21:3Z</time></trkpt>
<trkpt lat="46.30516" lon="6.99855"><ele></ele><time>2016-9-26T2:21:6Z</time></trkpt>
<trkpt lat="46.30519" lon="6.99858"><ele></ele><time>2016-9-26T2:21:9Z</time></trkpt>
<trkpt lat="46.30521" lon="6.99861"><ele></ele><time>2016-9-26T2:21:12Z</time></trkpt>
<trkpt lat="46.30523" lon="6.99865"><ele></ele><time>2016-9-26T2:21:15Z</time></trkpt>
<trkpt lat="46.30525" lon="6.99868"><ele></ele><time>2016-9-26T2:21:18Z</time></trkpt>
<trkpt lat="46.30527" lon="6.99871"><ele></ele><time>2016-9-26T2:21:21Z</time></trkpt>
<trkpt lat="46.30528" lon="6.99873"><ele></ele><time>2016-9-26T2:21:24Z</time></trkpt>
<trkpt lat="46.30528" lon="6.99875"><ele></ele><time>2016-9-26T2:21:27Z</time></trkpt>
<trkpt lat="46.3053" lon="6.99878"><ele></ele><time>2016-9-26T2:21:30Z</time></trkpt>
<trkpt lat="46.30532" lon="6.99882"><ele></ele><time>2016-9-26T2:21:33Z</time></trkpt>
<trkpt lat="46.30533" lon="6.99886"><ele></ele><time>2016-9-26T2:21:36Z</time></trkpt>
<trkpt lat="46.30535" lon="6.9989"><ele></ele><time>2016-9-26T2:21:39Z</time></trkpt>
<trkpt lat="46.30537" lon="6.99894"><ele></ele><time>2016-9-26T2:21:42Z</time></trkpt>
<trkpt lat="46.30538" lon="6.99898"><ele></ele><time>2016-9-26T2:21:45Z</time></trkpt>
<trkpt lat="46.3054" lon="6.99901"><ele></ele><time>2016-9-26T2:21:48Z</time></trkpt>
<trkpt lat="46.30542" lon="6.99905"><ele></ele><time>2016-9-26T2:21:51Z</time></trkpt>
<trkpt lat="46.30543" lon="6.99909"><ele></ele><time>2016-9-26T2:21:54Z</time></trkpt>
<trkpt lat="46.30545" lon="6.99913"><ele></ele><time>2016-9-26T2:21:57Z</time></trkpt>
<trkpt lat="46.30546" lon="6.99917"><ele></ele><time>2016-9-26T2:22:0Z</time></trkpt>
<trkpt lat="46.30548" lon="6.99921"><ele></ele><time>2016-9-26T2:22:3Z</time></trkpt>
<trkpt lat="46.3055" lon="6.99924"><ele></ele><time>2016-9-26T2:22:6Z</time></trkpt>
<trkpt lat="46.30551" lon="6.99928"><ele></ele><time>2016-9-26T2:22:9Z</time></trkpt>
<trkpt lat="46.30553" lon="6.99932"><ele></ele><time>2016-9-26T2:22:12Z</time></trkpt>
<trkpt lat="46.30554" lon="6.99936"><ele></ele><time>2016-9-26T2:22:15Z</time></trkpt>
<trkpt lat="46.30556" lon="6.99939"><ele></ele><time>2016-9-26T2:22:18Z</time></trkpt>
<trkpt lat="46.30557" lon="6.99943"><ele></ele><time>2016-9-26T2:22:21Z</time></trkpt>
<trkpt lat="46.30558" lon="6.99947"><ele></ele><time>2016-9-26T2:22:24Z</time></trkpt>
<trkpt lat="46.3056" lon="6.9995"><ele></ele><time>2016-9-26T2:22:27Z</time></trkpt>
<trkpt lat="46.30561" lon="6.99954"><ele></ele><time>2016-9-26T2:22:30Z</time></trkpt>
<trkpt lat="46.30562" lon="6.99958"><ele></ele><time>2016-9-26T2:22:33Z</time></trkpt>
<trkpt lat="46.30564" lon="6.99961"><ele></ele><time>2016-9-26T2:22:36Z</time></trkpt>
<trkpt lat="46.30565" lon="6.99965"><ele></ele><time>2016-9-26T2:22:39Z</time></trkpt>
<trkpt lat="46.30566" lon="6.99967"><ele></ele><time>2016-9-26T2:22:42Z</time></trkpt>
<trkpt lat="46.30566" lon="6.99969"><ele></ele><time>2016-9-26T2:22:45Z</time></trkpt>
<trkpt lat="46.30568" lon="6.99972"><ele></ele><time>2016-9-26T2:22:48Z</time></trkpt>
<trkpt lat="46.30569" lon="6.99976"><ele></ele><time>2016-9-26T2:22:51Z</time></trkpt>
<trkpt lat="46.30571" lon="6.99979"><ele></ele><time>2016-9-26T2:22:54Z</time></trkpt>
<trkpt lat="46.30572" lon="6.99983"><ele></ele><time>2016-9-26T2:22:57Z</time></trkpt>
<trkpt lat="46.30573" lon="6.99987"><ele></ele><time>2016-9-26T2:23:0Z</time></trkpt>
<trkpt lat="46.30575" lon="6.9999"><ele></ele><time>2016-9-26T2:23:3Z</time></trkpt>
<trkpt lat="46.30577" lon="6.99993"><ele></ele><time>2016-9-26T2:23:6Z</time></trkpt>
<trkpt lat="46.30579" lon="6.99996"><ele></ele><time>2016-9-26T2:23:9Z</time></trkpt>
<trkpt lat="46.3058" lon="6.99999"><ele></ele><time>2016-9-26T2:23:12Z</time></trkpt>
<trkpt lat="46.30582" lon="7.00002"><ele></ele><time>2016-9-26T2:23:15Z</time></trkpt>
<trkpt lat="46.30584" lon="7.00006"><ele></ele><time>2016-9-26T2:23:18Z</time></trkpt>
<trkpt lat="46.30585" lon="7.00009"><ele></ele><time>2016-9-26T2:23:21Z</time></trkpt>
<trkpt lat="46.30587" lon="7.00012"><ele></ele><time>2016-9-26T2:23:24Z</time></trkpt>
<trkpt lat="46.30589" lon="7.00015"><ele></ele><time>2016-9-26T2:23:27Z</time></trkpt>
<trkpt lat="46.30591" lon="7.00018"><ele></ele><time>2016-9-26T2:23:30Z</time></trkpt>
<trkpt lat="46.30592" lon="7.00021"><ele></ele><time>2016-9-26T2:23:33Z</time></trkpt>
<trkpt lat="46.30594" lon="7.00024"><ele></ele><time>2016-9-26T2:23:36Z</time></trkpt>
<trkpt lat="46.30596" lon="7.00028"><ele></ele><time>2016-9-26T2:23:39Z</time></trkpt>
<trkpt lat="46.30597" lon="7.00031"><ele></ele><time>2016-9-26T2:23:42Z</time></trkpt>
<trkpt lat="46.30598" lon="7.00032"><ele></ele><time>2016-9-26T2:23:45Z</time></trkpt>
<trkpt lat="46.30599" lon="7.00034"><ele></ele><time>2016-9-26T2:23:48Z</time></trkpt>
<trkpt lat="46.30601" lon="7.00037"><ele></ele><time>2016-9-26T2:23:51Z</time></trkpt>
<trkpt lat="46.30602" lon="7.00039"><ele></ele><time>2016-9-26T2:23:54Z</time></trkpt>
<trkpt lat="46.30603" lon="7.0004"><ele></ele><time>2016-9-26T2:23:57Z</time></trkpt>
<trkpt lat="46.30604" lon="7.00044"><ele></ele><time>2016-9-26T2:24:0Z</time></trkpt>
<trkpt lat="46.30606" lon="7.00048"><ele></ele><time>2016-9-26T2:24:3Z</time></trkpt>
<trkpt lat="46.30608" lon="7.00051"><ele></ele><time>2016-9-26T2:24:6Z</time></trkpt>
<trkpt lat="46.3061" lon="7.00055"><ele></ele><time>2016-9-26T2:24:9Z</time></trkpt>
<trkpt lat="46.30612" lon="7.00059"><ele></ele><time>2016-9-26T2:24:12Z</time></trkpt>
<trkpt lat="46.30614" lon="7.00062"><ele></ele><time>2016-9-26T2:24:15Z</time></trkpt>
<trkpt lat="46.30615" lon="7.00066"><ele></ele><time>2016-9-26T2:24:18Z</time></trkpt>
<trkpt lat="46.30617" lon="7.00069"><ele></ele><time>2016-9-26T2:24:21Z</time></trkpt>
<trkpt lat="46.30618" lon="7.00071"><ele></ele><time>2016-9-26T2:24:24Z</time></trkpt>
<trkpt lat="46.30619" lon="7.00073"><ele></ele><time>2016-9-26T2:24:27Z</time></trkpt>
<trkpt lat="46.30621" lon="7.00077"><ele></ele><time>2016-9-26T2:24:30Z</time></trkpt>
<trkpt lat="46.30623" lon="7.0008"><ele></ele><time>2016-9-26T2:24:33Z</time></trkpt>
<trkpt lat="46.30624" lon="7.00084"><ele></ele><time>2016-9-26T2:24:36Z</time></trkpt>
<trkpt lat="46.30626" lon="7.00088"><ele></ele><time>2016-9-26T2:24:39Z</time></trkpt>
<trkpt lat="46.30628" lon="7.00091"><ele></ele><time>2016-9-26T2:24:42Z</time></trkpt>
<trkpt lat="46.30629" lon="7.00095"><ele></ele><time>2016-9-26T2:24:45Z</time></trkpt>
<trkpt lat="46.30631" lon="7.00098"><ele></ele><time>2016-9-26T2:24:48Z</time></trkpt>
<trkpt lat="46.30632" lon="7.00102"><ele></ele><time>2016-9-26T2:24:51Z</time></trkpt>
<trkpt lat="46.30633" lon="7.00104"><ele></ele><time>2016-9-26T2:24:54Z</time></trkpt>
<trkpt lat="46.30634" lon="7.00105"><ele></ele><time>2016-9-26T2:24:57Z</time></trkpt>
<trkpt lat="46.30635" lon="7.00109"><ele></ele><time>2016-9-26T2:25:0Z</time></trkpt>
<trkpt lat="46.30637" lon="7.00112"><ele></ele><time>2016-9-26T2:25:3Z</time></trkpt>
<trkpt lat="46.30638" lon="7.00116"><ele></ele><time>2016-9-26T2:25:6Z</time></trkpt>
<trkpt lat="46.3064" lon="7.0012"><ele></ele><time>2016-9-26T2:25:9Z</time></trkpt>
<trkpt lat="46.30641" lon="7.00123"><ele></ele><time>2016-9-26T2:25:12Z</time></trkpt>
<trkpt lat="46.30642" lon="7.00127"><ele></ele><time>2016-9-26T2:25:15Z</time></trkpt>
<trkpt lat="46.30644" lon="7.0013"><ele></ele><time>2016-9-26T2:25:18Z</time></trkpt>
<trkpt lat="46.30645" lon="7.00134"><ele></ele><time>2016-9-26T2:25:21Z</time></trkpt>
<trkpt lat="46.30647" lon="7.00137"><ele></ele><time>2016-9-26T2:25:24Z</time></trkpt>
<trkpt lat="46.30648" lon="7.00141"><ele></ele><time>2016-9-26T2:25:27Z</time></trkpt>
<trkpt lat="46.30649" lon="7.00143"><ele></ele><time>2016-9-26T2:25:30Z</time></trkpt>
<trkpt lat="46.3065" lon="7.00144"><ele></ele><time>2016-9-26T2:25:33Z</time></trkpt>
<trkpt lat="46.30651" lon="7.00148"><ele></ele><time>2016-9-26T2:25:36Z</time></trkpt>
<trkpt lat="46.30652" lon="7.0015"><ele></ele><time>2016-9-26T2:25:39Z</time></trkpt>
<trkpt lat="46.30653" lon="7.00151"><ele></ele><time>2016-9-26T2:25:42Z</time></trkpt>
<trkpt lat="46.30654" lon="7.00155"><ele></ele><time>2016-9-26T2:25:45Z</time></trkpt>
<trkpt lat="46.30656" lon="7.00159"><ele></ele><time>2016-9-26T2:25:48Z</time></trkpt>
<trkpt lat="46.30658" lon="7.00162"><ele></ele><time>2016-9-26T2:25:51Z</time></trkpt>
<trkpt lat="46.3066" lon="7.00166"><ele></ele><time>2016-9-26T2:25:54Z</time></trkpt>
<trkpt lat="46.30662" lon="7.0017"><ele></ele><time>2016-9-26T2:25:57Z</time></trkpt>
<trkpt lat="46.30664" lon="7.00173"><ele></ele><time>2016-9-26T2:26:0Z</time></trkpt>
<trkpt lat="46.30665" lon="7.00177"><ele></ele><time>2016-9-26T2:26:3Z</time></trkpt>
<trkpt lat="46.30667" lon="7.00181"><ele></ele><time>2016-9-26T2:26:6Z</time></trkpt>
<trkpt lat="46.30668" lon="7.00182"><ele></ele><time>2016-9-26T2:26:9Z</time></trkpt>
<trkpt lat="46.30669" lon="7.00184"><ele></ele><time>2016-9-26T2:26:12Z</time></trkpt>
<trkpt lat="46.30671" lon="7.00188"><ele></ele><time>2016-9-26T2:26:15Z</time></trkpt>
<trkpt lat="46.30673" lon="7.00191"><ele></ele><time>2016-9-26T2:26:18Z</time></trkpt>
<trkpt lat="46.30675" lon="7.00192"><ele></ele><time>2016-9-26T2:26:21Z</time></trkpt>
<trkpt lat="46.30676" lon="7.00193"><ele></ele><time>2016-9-26T2:26:24Z</time></trkpt>
<trkpt lat="46.30677" lon="7.00194"><ele></ele><time>2016-9-26T2:26:27Z</time></trkpt>
<trkpt lat="46.30678" lon="7.00196"><ele></ele><time>2016-9-26T2:26:30Z</time></trkpt>
<trkpt lat="46.30679" lon="7.002"><ele></ele><time>2016-9-26T2:26:33Z</time></trkpt>
<trkpt lat="46.3068" lon="7.00203"><ele></ele><time>2016-9-26T2:26:36Z</time></trkpt>
<trkpt lat="46.30681" lon="7.00207"><ele></ele><time>2016-9-26T2:26:39Z</time></trkpt>
<trkpt lat="46.30682" lon="7.00211"><ele></ele><time>2016-9-26T2:26:42Z</time></trkpt>
<trkpt lat="46.30683" lon="7.00215"><ele></ele><time>2016-9-26T2:26:45Z</time></trkpt>
<trkpt lat="46.30685" lon="7.00219"><ele></ele><time>2016-9-26T2:26:48Z</time></trkpt>
<trkpt lat="46.30686" lon="7.00223"><ele></ele><time>2016-9-26T2:26:51Z</time></trkpt>
<trkpt lat="46.30686" lon="7.00225"><ele></ele><time>2016-9-26T2:26:54Z</time></trkpt>
<trkpt lat="46.30687" lon="7.00226"><ele></ele><time>2016-9-26T2:26:57Z</time></trkpt>
<trkpt lat="46.30688" lon="7.0023"><ele></ele><time>2016-9-26T2:27:0Z</time></trkpt>
<trkpt lat="46.30689" lon="7.00234"><ele></ele><time>2016-9-26T2:27:3Z</time></trkpt>
<trkpt lat="46.3069" lon="7.00238"><ele></ele><time>2016-9-26T2:27:6Z</time></trkpt>
<trkpt lat="46.30691" lon="7.00242"><ele></ele><time>2016-9-26T2:27:9Z</time></trkpt>
<trkpt lat="46.30692" lon="7.00246"><ele></ele><time>2016-9-26T2:27:12Z</time></trkpt>
<trkpt lat="46.30693" lon="7.00249"><ele></ele><time>2016-9-26T2:27:15Z</time></trkpt>
<trkpt lat="46.30695" lon="7.00253"><ele></ele><time>2016-9-26T2:27:18Z</time></trkpt>
<trkpt lat="46.30695" lon="7.00255"><ele></ele><time>2016-9-26T2:27:21Z</time></trkpt>
<trkpt lat="46.30696" lon="7.00257"><ele></ele><time>2016-9-26T2:27:24Z</time></trkpt>
<trkpt lat="46.30697" lon="7.0026"><ele></ele><time>2016-9-26T2:27:27Z</time></trkpt>
<trkpt lat="46.30698" lon="7.00264"><ele></ele><time>2016-9-26T2:27:30Z</time></trkpt>
<trkpt lat="46.30699" lon="7.00267"><ele></ele><time>2016-9-26T2:27:33Z</time></trkpt>
<trkpt lat="46.307" lon="7.00269"><ele></ele><time>2016-9-26T2:27:36Z</time></trkpt>
<trkpt lat="46.307" lon="7.00271"><ele></ele><time>2016-9-26T2:27:39Z</time></trkpt>
<trkpt lat="46.30702" lon="7.00274"><ele></ele><time>2016-9-26T2:27:42Z</time></trkpt>
<trkpt lat="46.30703" lon="7.00278"><ele></ele><time>2016-9-26T2:27:45Z</time></trkpt>
<trkpt lat="46.30704" lon="7.00281"><ele></ele><time>2016-9-26T2:27:48Z</time></trkpt>
<trkpt lat="46.30705" lon="7.00285"><ele></ele><time>2016-9-26T2:27:51Z</time></trkpt>
<trkpt lat="46.30706" lon="7.00288"><ele></ele><time>2016-9-26T2:27:54Z</time></trkpt>
<trkpt lat="46.30708" lon="7.00292"><ele></ele><time>2016-9-26T2:27:57Z</time></trkpt>
<trkpt lat="46.30709" lon="7.00295"><ele></ele><time>2016-9-26T2:28:0Z</time></trkpt>
<trkpt lat="46.3071" lon="7.00299"><ele></ele><time>2016-9-26T2:28:3Z</time></trkpt>
<trkpt lat="46.30711" lon="7.00302"><ele></ele><time>2016-9-26T2:28:6Z</time></trkpt>
<trkpt lat="46.30712" lon="7.00306"><ele></ele><time>2016-9-26T2:28:9Z</time></trkpt>
<trkpt lat="46.30713" lon="7.00308"><ele></ele><time>2016-9-26T2:28:12Z</time></trkpt>
<trkpt lat="46.30714" lon="7.00309"><ele></ele><time>2016-9-26T2:28:15Z</time></trkpt>
<trkpt lat="46.30715" lon="7.00313"><ele></ele><time>2016-9-26T2:28:18Z</time></trkpt>
<trkpt lat="46.30715" lon="7.00315"><ele></ele><time>2016-9-26T2:28:21Z</time></trkpt>
<trkpt lat="46.30716" lon="7.00317"><ele></ele><time>2016-9-26T2:28:24Z</time></trkpt>
<trkpt lat="46.30716" lon="7.00321"><ele></ele><time>2016-9-26T2:28:27Z</time></trkpt>
<trkpt lat="46.30716" lon="7.00325"><ele></ele><time>2016-9-26T2:28:30Z</time></trkpt>
<trkpt lat="46.30717" lon="7.00329"><ele></ele><time>2016-9-26T2:28:33Z</time></trkpt>
<trkpt lat="46.30717" lon="7.00333"><ele></ele><time>2016-9-26T2:28:36Z</time></trkpt>
<trkpt lat="46.30718" lon="7.00337"><ele></ele><time>2016-9-26T2:28:39Z</time></trkpt>
<trkpt lat="46.30718" lon="7.00341"><ele></ele><time>2016-9-26T2:28:42Z</time></trkpt>
<trkpt lat="46.30719" lon="7.00345"><ele></ele><time>2016-9-26T2:28:45Z</time></trkpt>
<trkpt lat="46.30719" lon="7.0035"><ele></ele><time>2016-9-26T2:28:48Z</time></trkpt>
<trkpt lat="46.30719" lon="7.00352"><ele></ele><time>2016-9-26T2:28:51Z</time></trkpt>
<trkpt lat="46.30719" lon="7.00354"><ele></ele><time>2016-9-26T2:28:54Z</time></trkpt>
<trkpt lat="46.3072" lon="7.00358"><ele></ele><time>2016-9-26T2:28:57Z</time></trkpt>
<trkpt lat="46.3072" lon="7.00362"><ele></ele><time>2016-9-26T2:29:0Z</time></trkpt>
<trkpt lat="46.30721" lon="7.00366"><ele></ele><time>2016-9-26T2:29:3Z</time></trkpt>
<trkpt lat="46.30721" lon="7.0037"><ele></ele><time>2016-9-26T2:29:6Z</time></trkpt>
<trkpt lat="46.30722" lon="7.00374"><ele></ele><time>2016-9-26T2:29:9Z</time></trkpt>
<trkpt lat="46.30722" lon="7.00378"><ele></ele><time>2016-9-26T2:29:12Z</time></trkpt>
<trkpt lat="46.30722" lon="7.0038"><ele></ele><time>2016-9-26T2:29:15Z</time></trkpt>
<trkpt lat="46.30722" lon="7.00383"><ele></ele><time>2016-9-26T2:29:18Z</time></trkpt>
<trkpt lat="46.30723" lon="7.00387"><ele></ele><time>2016-9-26T2:29:21Z</time></trkpt>
<trkpt lat="46.30723" lon="7.00391"><ele></ele><time>2016-9-26T2:29:24Z</time></trkpt>
<trkpt lat="46.30723" lon="7.00395"><ele></ele><time>2016-9-26T2:29:27Z</time></trkpt>
<trkpt lat="46.30723" lon="7.00397"><ele></ele><time>2016-9-26T2:29:30Z</time></trkpt>
<trkpt lat="46.30723" lon="7.00399"><ele></ele><time>2016-9-26T2:29:33Z</time></trkpt>
<trkpt lat="46.30724" lon="7.00404"><ele></ele><time>2016-9-26T2:29:36Z</time></trkpt>
<trkpt lat="46.30724" lon="7.00408"><ele></ele><time>2016-9-26T2:29:39Z</time></trkpt>
<trkpt lat="46.30724" lon="7.00412"><ele></ele><time>2016-9-26T2:29:42Z</time></trkpt>
<trkpt lat="46.30724" lon="7.00416"><ele></ele><time>2016-9-26T2:29:45Z</time></trkpt>
<trkpt lat="46.30724" lon="7.00421"><ele></ele><time>2016-9-26T2:29:48Z</time></trkpt>
<trkpt lat="46.30725" lon="7.00425"><ele></ele><time>2016-9-26T2:29:51Z</time></trkpt>
<trkpt lat="46.30725" lon="7.00429"><ele></ele><time>2016-9-26T2:29:54Z</time></trkpt>
<trkpt lat="46.30725" lon="7.00433"><ele></ele><time>2016-9-26T2:29:57Z</time></trkpt>
<trkpt lat="46.30725" lon="7.00437"><ele></ele><time>2016-9-26T2:30:0Z</time></trkpt>
<trkpt lat="46.30726" lon="7.00442"><ele></ele><time>2016-9-26T2:30:3Z</time></trkpt>
<trkpt lat="46.30726" lon="7.00444"><ele></ele><time>2016-9-26T2:30:6Z</time></trkpt>
<trkpt lat="46.30726" lon="7.00446"><ele></ele><time>2016-9-26T2:30:9Z</time></trkpt>
<trkpt lat="46.30727" lon="7.0045"><ele></ele><time>2016-9-26T2:30:12Z</time></trkpt>
<trkpt lat="46.30728" lon="7.00453"><ele></ele><time>2016-9-26T2:30:15Z</time></trkpt>
<trkpt lat="46.30729" lon="7.00457"><ele></ele><time>2016-9-26T2:30:18Z</time></trkpt>
<trkpt lat="46.3073" lon="7.00461"><ele></ele><time>2016-9-26T2:30:21Z</time></trkpt>
<trkpt lat="46.30731" lon="7.00465"><ele></ele><time>2016-9-26T2:30:24Z</time></trkpt>
<trkpt lat="46.30732" lon="7.00468"><ele></ele><time>2016-9-26T2:30:27Z</time></trkpt>
<trkpt lat="46.30733" lon="7.00472"><ele></ele><time>2016-9-26T2:30:30Z</time></trkpt>
<trkpt lat="46.30734" lon="7.00476"><ele></ele><time>2016-9-26T2:30:33Z</time></trkpt>
<trkpt lat="46.30735" lon="7.0048"><ele></ele><time>2016-9-26T2:30:36Z</time></trkpt>
<trkpt lat="46.30736" lon="7.00483"><ele></ele><time>2016-9-26T2:30:39Z</time></trkpt>
<trkpt lat="46.30737" lon="7.00487"><ele></ele><time>2016-9-26T2:30:42Z</time></trkpt>
<trkpt lat="46.30738" lon="7.00491"><ele></ele><time>2016-9-26T2:30:45Z</time></trkpt>
<trkpt lat="46.30739" lon="7.00495"><ele></ele><time>2016-9-26T2:30:48Z</time></trkpt>
<trkpt lat="46.3074" lon="7.00498"><ele></ele><time>2016-9-26T2:30:51Z</time></trkpt>
<trkpt lat="46.30741" lon="7.00502"><ele></ele><time>2016-9-26T2:30:54Z</time></trkpt>
<trkpt lat="46.30742" lon="7.00506"><ele></ele><time>2016-9-26T2:30:57Z</time></trkpt>
<trkpt lat="46.30743" lon="7.00508"><ele></ele><time>2016-9-26T2:31:0Z</time></trkpt>
<trkpt lat="46.30744" lon="7.00509"><ele></ele><time>2016-9-26T2:31:3Z</time></trkpt>
<trkpt lat="46.30747" lon="7.00512"><ele></ele><time>2016-9-26T2:31:6Z</time></trkpt>
<trkpt lat="46.30748" lon="7.00514"><ele></ele><time>2016-9-26T2:31:9Z</time></trkpt>
<trkpt lat="46.30749" lon="7.00515"><ele></ele><time>2016-9-26T2:31:12Z</time></trkpt>
<trkpt lat="46.30751" lon="7.00518"><ele></ele><time>2016-9-26T2:31:15Z</time></trkpt>
<trkpt lat="46.30754" lon="7.00521"><ele></ele><time>2016-9-26T2:31:18Z</time></trkpt>
<trkpt lat="46.30756" lon="7.00524"><ele></ele><time>2016-9-26T2:31:21Z</time></trkpt>
<trkpt lat="46.30758" lon="7.00527"><ele></ele><time>2016-9-26T2:31:24Z</time></trkpt>
<trkpt lat="46.30761" lon="7.0053"><ele></ele><time>2016-9-26T2:31:27Z</time></trkpt>
<trkpt lat="46.30763" lon="7.00533"><ele></ele><time>2016-9-26T2:31:30Z</time></trkpt>
<trkpt lat="46.30765" lon="7.00536"><ele></ele><time>2016-9-26T2:31:33Z</time></trkpt>
<trkpt lat="46.30768" lon="7.00539"><ele></ele><time>2016-9-26T2:31:36Z</time></trkpt>
<trkpt lat="46.3077" lon="7.00542"><ele></ele><time>2016-9-26T2:31:39Z</time></trkpt>
<trkpt lat="46.30772" lon="7.00545"><ele></ele><time>2016-9-26T2:31:42Z</time></trkpt>
<trkpt lat="46.30774" lon="7.00548"><ele></ele><time>2016-9-26T2:31:45Z</time></trkpt>
<trkpt lat="46.30775" lon="7.00553"><ele></ele><time>2016-9-26T2:31:48Z</time></trkpt>
<trkpt lat="46.30775" lon="7.00558"><ele></ele><time>2016-9-26T2:31:51Z</time></trkpt>
<trkpt lat="46.30776" lon="7.00562"><ele></ele><time>2016-9-26T2:31:54Z</time></trkpt>
<trkpt lat="46.30777" lon="7.00565"><ele></ele><time>2016-9-26T2:31:57Z</time></trkpt>
<trkpt lat="46.30778" lon="7.00569"><ele></ele><time>2016-9-26T2:32:0Z</time></trkpt>
<trkpt lat="46.30779" lon="7.00572"><ele></ele><time>2016-9-26T2:32:3Z</time></trkpt>
<trkpt lat="46.30781" lon="7.00576"><ele></ele><time>2016-9-26T2:32:6Z</time></trkpt>
<trkpt lat="46.30782" lon="7.0058"><ele></ele><time>2016-9-26T2:32:9Z</time></trkpt>
<trkpt lat="46.30783" lon="7.00583"><ele></ele><time>2016-9-26T2:32:12Z</time></trkpt>
<trkpt lat="46.30784" lon="7.00587"><ele></ele><time>2016-9-26T2:32:15Z</time></trkpt>
<trkpt lat="46.30784" lon="7.00588"><ele></ele><time>2016-9-26T2:32:18Z</time></trkpt>
<trkpt lat="46.30785" lon="7.0059"><ele></ele><time>2016-9-26T2:32:21Z</time></trkpt>
<trkpt lat="46.30786" lon="7.00594"><ele></ele><time>2016-9-26T2:32:24Z</time></trkpt>
<trkpt lat="46.30787" lon="7.00597"><ele></ele><time>2016-9-26T2:32:27Z</time></trkpt>
<trkpt lat="46.30788" lon="7.00601"><ele></ele><time>2016-9-26T2:32:30Z</time></trkpt>
<trkpt lat="46.30789" lon="7.00604"><ele></ele><time>2016-9-26T2:32:33Z</time></trkpt>
<trkpt lat="46.30791" lon="7.00608"><ele></ele><time>2016-9-26T2:32:36Z</time></trkpt>
<trkpt lat="46.30792" lon="7.00611"><ele></ele><time>2016-9-26T2:32:39Z</time></trkpt>
<trkpt lat="46.30793" lon="7.00615"><ele></ele><time>2016-9-26T2:32:42Z</time></trkpt>
<trkpt lat="46.30794" lon="7.00619"><ele></ele><time>2016-9-26T2:32:45Z</time></trkpt>
<trkpt lat="46.30795" lon="7.00622"><ele></ele><time>2016-9-26T2:32:48Z</time></trkpt>
<trkpt lat="46.30797" lon="7.00626"><ele></ele><time>2016-9-26T2:32:51Z</time></trkpt>
<trkpt lat="46.30797" lon="7.00628"><ele></ele><time>2016-9-26T2:32:54Z</time></trkpt>
<trkpt lat="46.30798" lon="7.0063"><ele></ele><time>2016-9-26T2:32:57Z</time></trkpt>
<trkpt lat="46.30799" lon="7.00634"><ele></ele><time>2016-9-26T2:33:0Z</time></trkpt>
<trkpt lat="46.308" lon="7.00638"><ele></ele><time>2016-9-26T2:33:3Z</time></trkpt>
<trkpt lat="46.30802" lon="7.00642"><ele></ele><time>2016-9-26T2:33:6Z</time></trkpt>
<trkpt lat="46.30803" lon="7.00646"><ele></ele><time>2016-9-26T2:33:9Z</time></trkpt>
<trkpt lat="46.30804" lon="7.0065"><ele></ele><time>2016-9-26T2:33:12Z</time></trkpt>
<trkpt lat="46.30805" lon="7.00654"><ele></ele><time>2016-9-26T2:33:15Z</time></trkpt>
<trkpt lat="46.30807" lon="7.00658"><ele></ele><time>2016-9-26T2:33:18Z</time></trkpt>
<trkpt lat="46.30808" lon="7.00662"><ele></ele><time>2016-9-26T2:33:21Z</time></trkpt>
<trkpt lat="46.30809" lon="7.00666"><ele></ele><time>2016-9-26T2:33:24Z</time></trkpt>
<trkpt lat="46.30811" lon="7.0067"><ele></ele><time>2016-9-26T2:33:27Z</time></trkpt>
<trkpt lat="46.30812" lon="7.00674"><ele></ele><time>2016-9-26T2:33:30Z</time></trkpt>
<trkpt lat="46.30813" lon="7.00678"><ele></ele><time>2016-9-26T2:33:33Z</time></trkpt>
<trkpt lat="46.30814" lon="7.0068"><ele></ele><time>2016-9-26T2:33:36Z</time></trkpt>
<trkpt lat="46.30814" lon="7.00681"><ele></ele><time>2016-9-26T2:33:39Z</time></trkpt>
<trkpt lat="46.30815" lon="7.00685"><ele></ele><time>2016-9-26T2:33:42Z</time></trkpt>
<trkpt lat="46.30816" lon="7.00689"><ele></ele><time>2016-9-26T2:33:45Z</time></trkpt>
<trkpt lat="46.30817" lon="7.00693"><ele></ele><time>2016-9-26T2:33:48Z</time></trkpt>
<trkpt lat="46.30818" lon="7.00697"><ele></ele><time>2016-9-26T2:33:51Z</time></trkpt>
<trkpt lat="46.30819" lon="7.00701"><ele></ele><time>2016-9-26T2:33:54Z</time></trkpt>
<trkpt lat="46.3082" lon="7.00705"><ele></ele><time>2016-9-26T2:33:57Z</time></trkpt>
<trkpt lat="46.30821" lon="7.00709"><ele></ele><time>2016-9-26T2:34:0Z</time></trkpt>
<trkpt lat="46.30822" lon="7.00713"><ele></ele><time>2016-9-26T2:34:3Z</time></trkpt>
<trkpt lat="46.30823" lon="7.00717"><ele></ele><time>2016-9-26T2:34:6Z</time></trkpt>
<trkpt lat="46.30824" lon="7.00721"><ele></ele><time>2016-9-26T2:34:9Z</time></trkpt>
<trkpt lat="46.30825" lon="7.00725"><ele></ele><time>2016-9-26T2:34:12Z</time></trkpt>
<trkpt lat="46.30826" lon="7.00729"><ele></ele><time>2016-9-26T2:34:15Z</time></trkpt>
<trkpt lat="46.30827" lon="7.00732"><ele></ele><time>2016-9-26T2:34:18Z</time></trkpt>
<trkpt lat="46.30828" lon="7.00736"><ele></ele><time>2016-9-26T2:34:21Z</time></trkpt>
<trkpt lat="46.30829" lon="7.0074"><ele></ele><time>2016-9-26T2:34:24Z</time></trkpt>
<trkpt lat="46.30831" lon="7.00744"><ele></ele><time>2016-9-26T2:34:27Z</time></trkpt>
<trkpt lat="46.30832" lon="7.00747"><ele></ele><time>2016-9-26T2:34:30Z</time></trkpt>
<trkpt lat="46.30834" lon="7.00751"><ele></ele><time>2016-9-26T2:34:33Z</time></trkpt>
<trkpt lat="46.30836" lon="7.00755"><ele></ele><time>2016-9-26T2:34:36Z</time></trkpt>
<trkpt lat="46.30837" lon="7.00758"><ele></ele><time>2016-9-26T2:34:39Z</time></trkpt>
<trkpt lat="46.30839" lon="7.00762"><ele></ele><time>2016-9-26T2:34:42Z</time></trkpt>
<trkpt lat="46.3084" lon="7.00765"><ele></ele><time>2016-9-26T2:34:45Z</time></trkpt>
<trkpt lat="46.30842" lon="7.00769"><ele></ele><time>2016-9-26T2:34:48Z</time></trkpt>
<trkpt lat="46.30843" lon="7.00773"><ele></ele><time>2016-9-26T2:34:51Z</time></trkpt>
<trkpt lat="46.30845" lon="7.00776"><ele></ele><time>2016-9-26T2:34:54Z</time></trkpt>
<trkpt lat="46.30846" lon="7.0078"><ele></ele><time>2016-9-26T2:34:57Z</time></trkpt>
<trkpt lat="46.30848" lon="7.00784"><ele></ele><time>2016-9-26T2:35:0Z</time></trkpt>
<trkpt lat="46.30849" lon="7.00787"><ele></ele><time>2016-9-26T2:35:3Z</time></trkpt>
<trkpt lat="46.30851" lon="7.00791"><ele></ele><time>2016-9-26T2:35:6Z</time></trkpt>
<trkpt lat="46.30853" lon="7.00794"><ele></ele><time>2016-9-26T2:35:9Z</time></trkpt>
<trkpt lat="46.30853" lon="7.00796"><ele></ele><time>2016-9-26T2:35:12Z</time></trkpt>
<trkpt lat="46.30854" lon="7.00798"><ele></ele><time>2016-9-26T2:35:15Z</time></trkpt>
<trkpt lat="46.30856" lon="7.00801"><ele></ele><time>2016-9-26T2:35:18Z</time></trkpt>
<trkpt lat="46.30858" lon="7.00804"><ele></ele><time>2016-9-26T2:35:21Z</time></trkpt>
<trkpt lat="46.30859" lon="7.00808"><ele></ele><time>2016-9-26T2:35:24Z</time></trkpt>
<trkpt lat="46.30861" lon="7.00811"><ele></ele><time>2016-9-26T2:35:27Z</time></trkpt>
<trkpt lat="46.30863" lon="7.00814"><ele></ele><time>2016-9-26T2:35:30Z</time></trkpt>
<trkpt lat="46.30864" lon="7.00818"><ele></ele><time>2016-9-26T2:35:33Z</time></trkpt>
<trkpt lat="46.30866" lon="7.00821"><ele></ele><time>2016-9-26T2:35:36Z</time></trkpt>
<trkpt lat="46.30868" lon="7.00824"><ele></ele><time>2016-9-26T2:35:39Z</time></trkpt>
<trkpt lat="46.3087" lon="7.00827"><ele></ele><time>2016-9-26T2:35:42Z</time></trkpt>
<trkpt lat="46.30871" lon="7.00831"><ele></ele><time>2016-9-26T2:35:45Z</time></trkpt>
<trkpt lat="46.30873" lon="7.00834"><ele></ele><time>2016-9-26T2:35:48Z</time></trkpt>
<trkpt lat="46.30875" lon="7.00837"><ele></ele><time>2016-9-26T2:35:51Z</time></trkpt>
<trkpt lat="46.30876" lon="7.00841"><ele></ele><time>2016-9-26T2:35:54Z</time></trkpt>
<trkpt lat="46.30878" lon="7.00844"><ele></ele><time>2016-9-26T2:35:57Z</time></trkpt>
<trkpt lat="46.3088" lon="7.00847"><ele></ele><time>2016-9-26T2:36:0Z</time></trkpt>
<trkpt lat="46.30881" lon="7.00849"><ele></ele><time>2016-9-26T2:36:3Z</time></trkpt>
<trkpt lat="46.30882" lon="7.00851"><ele></ele><time>2016-9-26T2:36:6Z</time></trkpt>
<trkpt lat="46.30885" lon="7.00854"><ele></ele><time>2016-9-26T2:36:9Z</time></trkpt>
<trkpt lat="46.30886" lon="7.00856"><ele></ele><time>2016-9-26T2:36:12Z</time></trkpt>
<trkpt lat="46.30887" lon="7.00857"><ele></ele><time>2016-9-26T2:36:15Z</time></trkpt>
<trkpt lat="46.3089" lon="7.00861"><ele></ele><time>2016-9-26T2:36:18Z</time></trkpt>
<trkpt lat="46.30893" lon="7.00864"><ele></ele><time>2016-9-26T2:36:21Z</time></trkpt>
<trkpt lat="46.30894" lon="7.00866"><ele></ele><time>2016-9-26T2:36:24Z</time></trkpt>
<trkpt lat="46.30895" lon="7.00868"><ele></ele><time>2016-9-26T2:36:27Z</time></trkpt>
<trkpt lat="46.30898" lon="7.00871"><ele></ele><time>2016-9-26T2:36:30Z</time></trkpt>
<trkpt lat="46.30899" lon="7.00872"><ele></ele><time>2016-9-26T2:36:33Z</time></trkpt>
<trkpt lat="46.309" lon="7.0087"><ele></ele><time>2016-9-26T2:36:36Z</time></trkpt>
<trkpt lat="46.30903" lon="7.00866"><ele></ele><time>2016-9-26T2:36:39Z</time></trkpt>
<trkpt lat="46.30905" lon="7.00862"><ele></ele><time>2016-9-26T2:36:42Z</time></trkpt>
<trkpt lat="46.30906" lon="7.0086"><ele></ele><time>2016-9-26T2:36:45Z</time></trkpt>
<trkpt lat="46.30907" lon="7.00858"><ele></ele><time>2016-9-26T2:36:48Z</time></trkpt>
<trkpt lat="46.30909" lon="7.00855"><ele></ele><time>2016-9-26T2:36:51Z</time></trkpt>
<trkpt lat="46.30911" lon="7.00851"><ele></ele><time>2016-9-26T2:36:54Z</time></trkpt>
<trkpt lat="46.30913" lon="7.00847"><ele></ele><time>2016-9-26T2:36:57Z</time></trkpt>
<trkpt lat="46.30915" lon="7.00843"><ele></ele><time>2016-9-26T2:37:0Z</time></trkpt>
<trkpt lat="46.30914" lon="7.00839"><ele></ele><time>2016-9-26T2:37:3Z</time></trkpt>
<trkpt lat="46.30913" lon="7.00836"><ele></ele><time>2016-9-26T2:37:6Z</time></trkpt>
<trkpt lat="46.30912" lon="7.00832"><ele></ele><time>2016-9-26T2:37:9Z</time></trkpt>
<trkpt lat="46.30911" lon="7.00828"><ele></ele><time>2016-9-26T2:37:12Z</time></trkpt>
<trkpt lat="46.3091" lon="7.00824"><ele></ele><time>2016-9-26T2:37:15Z</time></trkpt>
<trkpt lat="46.30909" lon="7.0082"><ele></ele><time>2016-9-26T2:37:18Z</time></trkpt>
<trkpt lat="46.30908" lon="7.00817"><ele></ele><time>2016-9-26T2:37:21Z</time></trkpt>
<trkpt lat="46.30907" lon="7.00813"><ele></ele><time>2016-9-26T2:37:24Z</time></trkpt>
<trkpt lat="46.30906" lon="7.00809"><ele></ele><time>2016-9-26T2:37:27Z</time></trkpt>
<trkpt lat="46.30905" lon="7.00805"><ele></ele><time>2016-9-26T2:37:30Z</time></trkpt>
<trkpt lat="46.30904" lon="7.00801"><ele></ele><time>2016-9-26T2:37:33Z</time></trkpt>
<trkpt lat="46.30903" lon="7.00797"><ele></ele><time>2016-9-26T2:37:36Z</time></trkpt>
<trkpt lat="46.30902" lon="7.00794"><ele></ele><time>2016-9-26T2:37:39Z</time></trkpt>
<trkpt lat="46.30901" lon="7.0079"><ele></ele><time>2016-9-26T2:37:42Z</time></trkpt>
<trkpt lat="46.309" lon="7.00786"><ele></ele><time>2016-9-26T2:37:45Z</time></trkpt>
<trkpt lat="46.30899" lon="7.00782"><ele></ele><time>2016-9-26T2:37:48Z</time></trkpt>
<trkpt lat="46.30899" lon="7.00778"><ele></ele><time>2016-9-26T2:37:51Z</time></trkpt>
<trkpt lat="46.30898" lon="7.00774"><ele></ele><time>2016-9-26T2:37:54Z</time></trkpt>
<trkpt lat="46.30897" lon="7.00769"><ele></ele><time>2016-9-26T2:37:57Z</time></trkpt>
<trkpt lat="46.30896" lon="7.00765"><ele></ele><time>2016-9-26T2:38:0Z</time></trkpt>
<trkpt lat="46.30895" lon="7.00761"><ele></ele><time>2016-9-26T2:38:3Z</time></trkpt>
<trkpt lat="46.30895" lon="7.00759"><ele></ele><time>2016-9-26T2:38:6Z</time></trkpt>
<trkpt lat="46.30895" lon="7.00756"><ele></ele><time>2016-9-26T2:38:9Z</time></trkpt>
<trkpt lat="46.30894" lon="7.00752"><ele></ele><time>2016-9-26T2:38:12Z</time></trkpt>
<trkpt lat="46.30893" lon="7.00748"><ele></ele><time>2016-9-26T2:38:15Z</time></trkpt>
<trkpt lat="46.30892" lon="7.00744"><ele></ele><time>2016-9-26T2:38:18Z</time></trkpt>
<trkpt lat="46.30892" lon="7.00739"><ele></ele><time>2016-9-26T2:38:21Z</time></trkpt>
<trkpt lat="46.30891" lon="7.00735"><ele></ele><time>2016-9-26T2:38:24Z</time></trkpt>
<trkpt lat="46.3089" lon="7.00731"><ele></ele><time>2016-9-26T2:38:27Z</time></trkpt>
<trkpt lat="46.30889" lon="7.00726"><ele></ele><time>2016-9-26T2:38:30Z</time></trkpt>
<trkpt lat="46.30889" lon="7.00722"><ele></ele><time>2016-9-26T2:38:33Z</time></trkpt>
<trkpt lat="46.30888" lon="7.00718"><ele></ele><time>2016-9-26T2:38:36Z</time></trkpt>
<trkpt lat="46.30889" lon="7.00714"><ele></ele><time>2016-9-26T2:38:39Z</time></trkpt>
<trkpt lat="46.30889" lon="7.0071"><ele></ele><time>2016-9-26T2:38:42Z</time></trkpt>
<trkpt lat="46.3089" lon="7.00706"><ele></ele><time>2016-9-26T2:38:45Z</time></trkpt>
<trkpt lat="46.3089" lon="7.00703"><ele></ele><time>2016-9-26T2:38:48Z</time></trkpt>
<trkpt lat="46.30891" lon="7.00699"><ele></ele><time>2016-9-26T2:38:51Z</time></trkpt>
<trkpt lat="46.30891" lon="7.00695"><ele></ele><time>2016-9-26T2:38:54Z</time></trkpt>
<trkpt lat="46.30892" lon="7.00691"><ele></ele><time>2016-9-26T2:38:57Z</time></trkpt>
<trkpt lat="46.30892" lon="7.00687"><ele></ele><time>2016-9-26T2:39:0Z</time></trkpt>
<trkpt lat="46.30893" lon="7.00684"><ele></ele><time>2016-9-26T2:39:3Z</time></trkpt>
<trkpt lat="46.30893" lon="7.0068"><ele></ele><time>2016-9-26T2:39:6Z</time></trkpt>
<trkpt lat="46.30894" lon="7.00676"><ele></ele><time>2016-9-26T2:39:9Z</time></trkpt>
<trkpt lat="46.30894" lon="7.00672"><ele></ele><time>2016-9-26T2:39:12Z</time></trkpt>
<trkpt lat="46.30895" lon="7.00668"><ele></ele><time>2016-9-26T2:39:15Z</time></trkpt>
<trkpt lat="46.30895" lon="7.00664"><ele></ele><time>2016-9-26T2:39:18Z</time></trkpt>
<trkpt lat="46.30896" lon="7.00661"><ele></ele><time>2016-9-26T2:39:21Z</time></trkpt>
<trkpt lat="46.30896" lon="7.00657"><ele></ele><time>2016-9-26T2:39:24Z</time></trkpt>
<trkpt lat="46.30897" lon="7.00656"><ele></ele><time>2016-9-26T2:39:27Z</time></trkpt>
<trkpt lat="46.30898" lon="7.00657"><ele></ele><time>2016-9-26T2:39:30Z</time></trkpt>
<trkpt lat="46.309" lon="7.00659"><ele></ele><time>2016-9-26T2:39:33Z</time></trkpt>
<trkpt lat="46.30902" lon="7.00662"><ele></ele><time>2016-9-26T2:39:36Z</time></trkpt>
<trkpt lat="46.30904" lon="7.00664"><ele></ele><time>2016-9-26T2:39:39Z</time></trkpt>
<trkpt lat="46.30906" lon="7.00667"><ele></ele><time>2016-9-26T2:39:42Z</time></trkpt>
<trkpt lat="46.30908" lon="7.00669"><ele></ele><time>2016-9-26T2:39:45Z</time></trkpt>
<trkpt lat="46.3091" lon="7.00672"><ele></ele><time>2016-9-26T2:39:48Z</time></trkpt>
<trkpt lat="46.30912" lon="7.00674"><ele></ele><time>2016-9-26T2:39:51Z</time></trkpt>
<trkpt lat="46.30914" lon="7.00677"><ele></ele><time>2016-9-26T2:39:54Z</time></trkpt>
<trkpt lat="46.30916" lon="7.00679"><ele></ele><time>2016-9-26T2:39:57Z</time></trkpt>
<trkpt lat="46.30918" lon="7.00682"><ele></ele><time>2016-9-26T2:40:0Z</time></trkpt>
<trkpt lat="46.3092" lon="7.00684"><ele></ele><time>2016-9-26T2:40:3Z</time></trkpt>
<trkpt lat="46.30922" lon="7.00687"><ele></ele><time>2016-9-26T2:40:6Z</time></trkpt>
<trkpt lat="46.30924" lon="7.00689"><ele></ele><time>2016-9-26T2:40:9Z</time></trkpt>
<trkpt lat="46.30926" lon="7.00692"><ele></ele><time>2016-9-26T2:40:12Z</time></trkpt>
<trkpt lat="46.30928" lon="7.00694"><ele></ele><time>2016-9-26T2:40:15Z</time></trkpt>
<trkpt lat="46.3093" lon="7.00697"><ele></ele><time>2016-9-26T2:40:18Z</time></trkpt>
<trkpt lat="46.30932" lon="7.00698"><ele></ele><time>2016-9-26T2:40:21Z</time></trkpt>
<trkpt lat="46.30933" lon="7.00698"><ele></ele><time>2016-9-26T2:40:24Z</time></trkpt>
<trkpt lat="46.30936" lon="7.00699"><ele></ele><time>2016-9-26T2:40:27Z</time></trkpt>
<trkpt lat="46.30939" lon="7.007"><ele></ele><time>2016-9-26T2:40:30Z</time></trkpt>
<trkpt lat="46.30941" lon="7.00701"><ele></ele><time>2016-9-26T2:40:33Z</time></trkpt>
<trkpt lat="46.30944" lon="7.00702"><ele></ele><time>2016-9-26T2:40:36Z</time></trkpt>
<trkpt lat="46.30947" lon="7.00703"><ele></ele><time>2016-9-26T2:40:39Z</time></trkpt>
<trkpt lat="46.3095" lon="7.00704"><ele></ele><time>2016-9-26T2:40:42Z</time></trkpt>
<trkpt lat="46.30953" lon="7.00705"><ele></ele><time>2016-9-26T2:40:45Z</time></trkpt>
<trkpt lat="46.30954" lon="7.00706"><ele></ele><time>2016-9-26T2:40:48Z</time></trkpt>
<trkpt lat="46.30956" lon="7.00706"><ele></ele><time>2016-9-26T2:40:51Z</time></trkpt>
<trkpt lat="46.30958" lon="7.00708"><ele></ele><time>2016-9-26T2:40:54Z</time></trkpt>
<trkpt lat="46.30961" lon="7.00709"><ele></ele><time>2016-9-26T2:40:57Z</time></trkpt>
<trkpt lat="46.30964" lon="7.0071"><ele></ele><time>2016-9-26T2:41:0Z</time></trkpt>
<trkpt lat="46.30967" lon="7.00711"><ele></ele><time>2016-9-26T2:41:3Z</time></trkpt>
<trkpt lat="46.3097" lon="7.00712"><ele></ele><time>2016-9-26T2:41:6Z</time></trkpt>
<trkpt lat="46.30973" lon="7.00713"><ele></ele><time>2016-9-26T2:41:9Z</time></trkpt>
<trkpt lat="46.30975" lon="7.00713"><ele></ele><time>2016-9-26T2:41:12Z</time></trkpt>
<trkpt lat="46.30978" lon="7.00712"><ele></ele><time>2016-9-26T2:41:15Z</time></trkpt>
<trkpt lat="46.30981" lon="7.0071"><ele></ele><time>2016-9-26T2:41:18Z</time></trkpt>
<trkpt lat="46.30983" lon="7.00708"><ele></ele><time>2016-9-26T2:41:21Z</time></trkpt>
<trkpt lat="46.30984" lon="7.00707"><ele></ele><time>2016-9-26T2:41:24Z</time></trkpt>
<trkpt lat="46.30986" lon="7.00707"><ele></ele><time>2016-9-26T2:41:27Z</time></trkpt>
<trkpt lat="46.30988" lon="7.00705"><ele></ele><time>2016-9-26T2:41:30Z</time></trkpt>
<trkpt lat="46.30991" lon="7.00703"><ele></ele><time>2016-9-26T2:41:33Z</time></trkpt>
<trkpt lat="46.30993" lon="7.00702"><ele></ele><time>2016-9-26T2:41:36Z</time></trkpt>
<trkpt lat="46.30996" lon="7.007"><ele></ele><time>2016-9-26T2:41:39Z</time></trkpt>
<trkpt lat="46.30997" lon="7.00699"><ele></ele><time>2016-9-26T2:41:42Z</time></trkpt>
<trkpt lat="46.30999" lon="7.00698"><ele></ele><time>2016-9-26T2:41:45Z</time></trkpt>
<trkpt lat="46.31001" lon="7.00696"><ele></ele><time>2016-9-26T2:41:48Z</time></trkpt>
<trkpt lat="46.31004" lon="7.00695"><ele></ele><time>2016-9-26T2:41:51Z</time></trkpt>
<trkpt lat="46.31006" lon="7.00693"><ele></ele><time>2016-9-26T2:41:54Z</time></trkpt>
<trkpt lat="46.31026" lon="7.00694"><ele></ele><time>2016-9-26T2:41:57Z</time></trkpt>
<trkpt lat="46.31026" lon="7.00694"><ele></ele><time>2016-9-26T2:42:0Z</time></trkpt>
<trkpt lat="46.31043" lon="7.00697"><ele></ele><time>2016-9-26T2:42:3Z</time></trkpt>
<trkpt lat="46.31046" lon="7.00699"><ele></ele><time>2016-9-26T2:42:6Z</time></trkpt>
<trkpt lat="46.31047" lon="7.00699"><ele></ele><time>2016-9-26T2:42:9Z</time></trkpt>
<trkpt lat="46.31049" lon="7.007"><ele></ele><time>2016-9-26T2:42:12Z</time></trkpt>
<trkpt lat="46.31051" lon="7.00701"><ele></ele><time>2016-9-26T2:42:15Z</time></trkpt>
<trkpt lat="46.31053" lon="7.00702"><ele></ele><time>2016-9-26T2:42:18Z</time></trkpt>
<trkpt lat="46.31055" lon="7.00703"><ele></ele><time>2016-9-26T2:42:21Z</time></trkpt>
<trkpt lat="46.31057" lon="7.00704"><ele></ele><time>2016-9-26T2:42:24Z</time></trkpt>
<trkpt lat="46.31059" lon="7.00705"><ele></ele><time>2016-9-26T2:42:27Z</time></trkpt>
<trkpt lat="46.31061" lon="7.00706"><ele></ele><time>2016-9-26T2:42:30Z</time></trkpt>
<trkpt lat="46.31063" lon="7.00707"><ele></ele><time>2016-9-26T2:42:33Z</time></trkpt>
<trkpt lat="46.31065" lon="7.00708"><ele></ele><time>2016-9-26T2:42:36Z</time></trkpt>
<trkpt lat="46.31066" lon="7.00709"><ele></ele><time>2016-9-26T2:42:39Z</time></trkpt>
<trkpt lat="46.31069" lon="7.00712"><ele></ele><time>2016-9-26T2:42:42Z</time></trkpt>
<trkpt lat="46.3107" lon="7.00714"><ele></ele><time>2016-9-26T2:42:45Z</time></trkpt>
<trkpt lat="46.31071" lon="7.00715"><ele></ele><time>2016-9-26T2:42:48Z</time></trkpt>
<trkpt lat="46.31074" lon="7.00718"><ele></ele><time>2016-9-26T2:42:51Z</time></trkpt>
<trkpt lat="46.31077" lon="7.00721"><ele></ele><time>2016-9-26T2:42:54Z</time></trkpt>
<trkpt lat="46.3108" lon="7.00724"><ele></ele><time>2016-9-26T2:42:57Z</time></trkpt>
<trkpt lat="46.31082" lon="7.00727"><ele></ele><time>2016-9-26T2:43:0Z</time></trkpt>
<trkpt lat="46.31085" lon="7.0073"><ele></ele><time>2016-9-26T2:43:3Z</time></trkpt>
<trkpt lat="46.31088" lon="7.00733"><ele></ele><time>2016-9-26T2:43:6Z</time></trkpt>
<trkpt lat="46.31091" lon="7.00736"><ele></ele><time>2016-9-26T2:43:9Z</time></trkpt>
<trkpt lat="46.31092" lon="7.00738"><ele></ele><time>2016-9-26T2:43:12Z</time></trkpt>
<trkpt lat="46.31093" lon="7.00739"><ele></ele><time>2016-9-26T2:43:15Z</time></trkpt>
<trkpt lat="46.31096" lon="7.00742"><ele></ele><time>2016-9-26T2:43:18Z</time></trkpt>
<trkpt lat="46.31099" lon="7.00745"><ele></ele><time>2016-9-26T2:43:21Z</time></trkpt>
<trkpt lat="46.31102" lon="7.00748"><ele></ele><time>2016-9-26T2:43:24Z</time></trkpt>
<trkpt lat="46.31104" lon="7.00751"><ele></ele><time>2016-9-26T2:43:27Z</time></trkpt>
<trkpt lat="46.31107" lon="7.00754"><ele></ele><time>2016-9-26T2:43:30Z</time></trkpt>
<trkpt lat="46.31109" lon="7.00757"><ele></ele><time>2016-9-26T2:43:33Z</time></trkpt>
<trkpt lat="46.31112" lon="7.0076"><ele></ele><time>2016-9-26T2:43:36Z</time></trkpt>
<trkpt lat="46.31115" lon="7.00763"><ele></ele><time>2016-9-26T2:43:39Z</time></trkpt>
<trkpt lat="46.31117" lon="7.00766"><ele></ele><time>2016-9-26T2:43:42Z</time></trkpt>
<trkpt lat="46.3112" lon="7.00769"><ele></ele><time>2016-9-26T2:43:45Z</time></trkpt>
<trkpt lat="46.31122" lon="7.00772"><ele></ele><time>2016-9-26T2:43:48Z</time></trkpt>
<trkpt lat="46.31125" lon="7.00775"><ele></ele><time>2016-9-26T2:43:51Z</time></trkpt>
<trkpt lat="46.31127" lon="7.00778"><ele></ele><time>2016-9-26T2:43:54Z</time></trkpt>
<trkpt lat="46.3113" lon="7.00781"><ele></ele><time>2016-9-26T2:43:57Z</time></trkpt>
<trkpt lat="46.31133" lon="7.00784"><ele></ele><time>2016-9-26T2:44:0Z</time></trkpt>
<trkpt lat="46.31135" lon="7.00787"><ele></ele><time>2016-9-26T2:44:3Z</time></trkpt>
<trkpt lat="46.31136" lon="7.00789"><ele></ele><time>2016-9-26T2:44:6Z</time></trkpt>
<trkpt lat="46.31137" lon="7.00791"><ele></ele><time>2016-9-26T2:44:9Z</time></trkpt>
<trkpt lat="46.31138" lon="7.00796"><ele></ele><time>2016-9-26T2:44:12Z</time></trkpt>
<trkpt lat="46.31139" lon="7.00801"><ele></ele><time>2016-9-26T2:44:15Z</time></trkpt>
<trkpt lat="46.3114" lon="7.00803"><ele></ele><time>2016-9-26T2:44:18Z</time></trkpt>
<trkpt lat="46.31141" lon="7.00806"><ele></ele><time>2016-9-26T2:44:21Z</time></trkpt>
<trkpt lat="46.31142" lon="7.0081"><ele></ele><time>2016-9-26T2:44:24Z</time></trkpt>
<trkpt lat="46.31143" lon="7.00815"><ele></ele><time>2016-9-26T2:44:27Z</time></trkpt>
<trkpt lat="46.31144" lon="7.0082"><ele></ele><time>2016-9-26T2:44:30Z</time></trkpt>
<trkpt lat="46.31146" lon="7.00825"><ele></ele><time>2016-9-26T2:44:33Z</time></trkpt>
<trkpt lat="46.31147" lon="7.00829"><ele></ele><time>2016-9-26T2:44:36Z</time></trkpt>
<trkpt lat="46.31148" lon="7.00834"><ele></ele><time>2016-9-26T2:44:39Z</time></trkpt>
<trkpt lat="46.3115" lon="7.00839"><ele></ele><time>2016-9-26T2:44:42Z</time></trkpt>
<trkpt lat="46.31151" lon="7.00843"><ele></ele><time>2016-9-26T2:44:45Z</time></trkpt>
<trkpt lat="46.31152" lon="7.00848"><ele></ele><time>2016-9-26T2:44:48Z</time></trkpt>
<trkpt lat="46.31152" lon="7.00851"><ele></ele><time>2016-9-26T2:44:51Z</time></trkpt>
<trkpt lat="46.31152" lon="7.00854"><ele></ele><time>2016-9-26T2:44:54Z</time></trkpt>
<trkpt lat="46.31152" lon="7.00861"><ele></ele><time>2016-9-26T2:44:57Z</time></trkpt>
<trkpt lat="46.31151" lon="7.00868"><ele></ele><time>2016-9-26T2:45:0Z</time></trkpt>
<trkpt lat="46.31151" lon="7.00874"><ele></ele><time>2016-9-26T2:45:3Z</time></trkpt>
<trkpt lat="46.3115" lon="7.00881"><ele></ele><time>2016-9-26T2:45:6Z</time></trkpt>
<trkpt lat="46.3115" lon="7.00888"><ele></ele><time>2016-9-26T2:45:9Z</time></trkpt>
<trkpt lat="46.31149" lon="7.00895"><ele></ele><time>2016-9-26T2:45:12Z</time></trkpt>
<trkpt lat="46.31149" lon="7.00901"><ele></ele><time>2016-9-26T2:45:15Z</time></trkpt>
<trkpt lat="46.31148" lon="7.00908"><ele></ele><time>2016-9-26T2:45:18Z</time></trkpt>
<trkpt lat="46.31148" lon="7.00915"><ele></ele><time>2016-9-26T2:45:21Z</time></trkpt>
<trkpt lat="46.31147" lon="7.00918"><ele></ele><time>2016-9-26T2:45:24Z</time></trkpt>
<trkpt lat="46.31147" lon="7.00922"><ele></ele><time>2016-9-26T2:45:27Z</time></trkpt>
<trkpt lat="46.31145" lon="7.00928"><ele></ele><time>2016-9-26T2:45:30Z</time></trkpt>
<trkpt lat="46.31144" lon="7.00935"><ele></ele><time>2016-9-26T2:45:33Z</time></trkpt>
<trkpt lat="46.31142" lon="7.00942"><ele></ele><time>2016-9-26T2:45:36Z</time></trkpt>
<trkpt lat="46.3114" lon="7.00948"><ele></ele><time>2016-9-26T2:45:39Z</time></trkpt>
<trkpt lat="46.31139" lon="7.00955"><ele></ele><time>2016-9-26T2:45:42Z</time></trkpt>
<trkpt lat="46.31137" lon="7.00962"><ele></ele><time>2016-9-26T2:45:45Z</time></trkpt>
<trkpt lat="46.31137" lon="7.00965"><ele></ele><time>2016-9-26T2:45:48Z</time></trkpt>
<trkpt lat="46.31136" lon="7.00968"><ele></ele><time>2016-9-26T2:45:51Z</time></trkpt>
<trkpt lat="46.31134" lon="7.00975"><ele></ele><time>2016-9-26T2:45:54Z</time></trkpt>
<trkpt lat="46.31133" lon="7.00982"><ele></ele><time>2016-9-26T2:45:57Z</time></trkpt>
<trkpt lat="46.31131" lon="7.00988"><ele></ele><time>2016-9-26T2:46:0Z</time></trkpt>
<trkpt lat="46.3113" lon="7.00994"><ele></ele><time>2016-9-26T2:46:3Z</time></trkpt>
<trkpt lat="46.31128" lon="7.01"><ele></ele><time>2016-9-26T2:46:6Z</time></trkpt>
<trkpt lat="46.31126" lon="7.01007"><ele></ele><time>2016-9-26T2:46:9Z</time></trkpt>
<trkpt lat="46.31125" lon="7.01013"><ele></ele><time>2016-9-26T2:46:12Z</time></trkpt>
<trkpt lat="46.31124" lon="7.01016"><ele></ele><time>2016-9-26T2:46:15Z</time></trkpt>
<trkpt lat="46.31123" lon="7.01022"><ele></ele><time>2016-9-26T2:46:18Z</time></trkpt>
<trkpt lat="46.31121" lon="7.01028"><ele></ele><time>2016-9-26T2:46:21Z</time></trkpt>
<trkpt lat="46.31119" lon="7.01035"><ele></ele><time>2016-9-26T2:46:24Z</time></trkpt>
<trkpt lat="46.31118" lon="7.01041"><ele></ele><time>2016-9-26T2:46:27Z</time></trkpt>
<trkpt lat="46.31117" lon="7.01044"><ele></ele><time>2016-9-26T2:46:30Z</time></trkpt>
<trkpt lat="46.31116" lon="7.01048"><ele></ele><time>2016-9-26T2:46:33Z</time></trkpt>
<trkpt lat="46.31114" lon="7.01054"><ele></ele><time>2016-9-26T2:46:36Z</time></trkpt>
<trkpt lat="46.31112" lon="7.01061"><ele></ele><time>2016-9-26T2:46:39Z</time></trkpt>
<trkpt lat="46.31111" lon="7.01068"><ele></ele><time>2016-9-26T2:46:42Z</time></trkpt>
<trkpt lat="46.31109" lon="7.01075"><ele></ele><time>2016-9-26T2:46:45Z</time></trkpt>
<trkpt lat="46.31107" lon="7.01082"><ele></ele><time>2016-9-26T2:46:48Z</time></trkpt>
<trkpt lat="46.31105" lon="7.01089"><ele></ele><time>2016-9-26T2:46:51Z</time></trkpt>
<trkpt lat="46.31103" lon="7.01096"><ele></ele><time>2016-9-26T2:46:54Z</time></trkpt>
<trkpt lat="46.31101" lon="7.01103"><ele></ele><time>2016-9-26T2:46:57Z</time></trkpt>
<trkpt lat="46.311" lon="7.01106"><ele></ele><time>2016-9-26T2:47:0Z</time></trkpt>
<trkpt lat="46.31099" lon="7.01112"><ele></ele><time>2016-9-26T2:47:3Z</time></trkpt>
<trkpt lat="46.31098" lon="7.01115"><ele></ele><time>2016-9-26T2:47:6Z</time></trkpt>
<trkpt lat="46.31096" lon="7.0112"><ele></ele><time>2016-9-26T2:47:9Z</time></trkpt>
<trkpt lat="46.31095" lon="7.01126"><ele></ele><time>2016-9-26T2:47:12Z</time></trkpt>
<trkpt lat="46.31093" lon="7.01132"><ele></ele><time>2016-9-26T2:47:15Z</time></trkpt>
<trkpt lat="46.31091" lon="7.01138"><ele></ele><time>2016-9-26T2:47:18Z</time></trkpt>
<trkpt lat="46.3109" lon="7.01144"><ele></ele><time>2016-9-26T2:47:21Z</time></trkpt>
<trkpt lat="46.31088" lon="7.01149"><ele></ele><time>2016-9-26T2:47:24Z</time></trkpt>
<trkpt lat="46.31086" lon="7.01155"><ele></ele><time>2016-9-26T2:47:27Z</time></trkpt>
<trkpt lat="46.31085" lon="7.01161"><ele></ele><time>2016-9-26T2:47:30Z</time></trkpt>
<trkpt lat="46.31083" lon="7.01166"><ele></ele><time>2016-9-26T2:47:33Z</time></trkpt>
<trkpt lat="46.31082" lon="7.01171"><ele></ele><time>2016-9-26T2:47:36Z</time></trkpt>
<trkpt lat="46.31081" lon="7.01175"><ele></ele><time>2016-9-26T2:47:39Z</time></trkpt>
<trkpt lat="46.3108" lon="7.01182"><ele></ele><time>2016-9-26T2:47:42Z</time></trkpt>
<trkpt lat="46.31079" lon="7.01184"><ele></ele><time>2016-9-26T2:47:45Z</time></trkpt>
<trkpt lat="46.31078" lon="7.01188"><ele></ele><time>2016-9-26T2:47:48Z</time></trkpt>
<trkpt lat="46.31077" lon="7.01193"><ele></ele><time>2016-9-26T2:47:51Z</time></trkpt>
<trkpt lat="46.31076" lon="7.01197"><ele></ele><time>2016-9-26T2:47:54Z</time></trkpt>
<trkpt lat="46.31075" lon="7.01201"><ele></ele><time>2016-9-26T2:47:57Z</time></trkpt>
<trkpt lat="46.31074" lon="7.01208"><ele></ele><time>2016-9-26T2:48:0Z</time></trkpt>
<trkpt lat="46.31073" lon="7.01212"><ele></ele><time>2016-9-26T2:48:3Z</time></trkpt>
<trkpt lat="46.31072" lon="7.01216"><ele></ele><time>2016-9-26T2:48:6Z</time></trkpt>
<trkpt lat="46.31071" lon="7.01221"><ele></ele><time>2016-9-26T2:48:9Z</time></trkpt>
<trkpt lat="46.3107" lon="7.01225"><ele></ele><time>2016-9-26T2:48:12Z</time></trkpt>
<trkpt lat="46.31069" lon="7.0123"><ele></ele><time>2016-9-26T2:48:15Z</time></trkpt>
<trkpt lat="46.31069" lon="7.01234"><ele></ele><time>2016-9-26T2:48:18Z</time></trkpt>
<trkpt lat="46.31068" lon="7.01239"><ele></ele><time>2016-9-26T2:48:21Z</time></trkpt>
<trkpt lat="46.31068" lon="7.01244"><ele></ele><time>2016-9-26T2:48:24Z</time></trkpt>
<trkpt lat="46.31067" lon="7.01248"><ele></ele><time>2016-9-26T2:48:27Z</time></trkpt>
<trkpt lat="46.31066" lon="7.01253"><ele></ele><time>2016-9-26T2:48:30Z</time></trkpt>
<trkpt lat="46.31066" lon="7.01258"><ele></ele><time>2016-9-26T2:48:33Z</time></trkpt>
<trkpt lat="46.31065" lon="7.01263"><ele></ele><time>2016-9-26T2:48:36Z</time></trkpt>
<trkpt lat="46.31065" lon="7.01267"><ele></ele><time>2016-9-26T2:48:39Z</time></trkpt>
<trkpt lat="46.31064" lon="7.01272"><ele></ele><time>2016-9-26T2:48:42Z</time></trkpt>
<trkpt lat="46.31064" lon="7.01277"><ele></ele><time>2016-9-26T2:48:45Z</time></trkpt>
<trkpt lat="46.31063" lon="7.01281"><ele></ele><time>2016-9-26T2:48:48Z</time></trkpt>
<trkpt lat="46.31063" lon="7.01284"><ele></ele><time>2016-9-26T2:48:51Z</time></trkpt>
<trkpt lat="46.31062" lon="7.01286"><ele></ele><time>2016-9-26T2:48:54Z</time></trkpt>
<trkpt lat="46.31062" lon="7.01291"><ele></ele><time>2016-9-26T2:48:57Z</time></trkpt>
<trkpt lat="46.31061" lon="7.01296"><ele></ele><time>2016-9-26T2:49:0Z</time></trkpt>
<trkpt lat="46.31062" lon="7.013"><ele></ele><time>2016-9-26T2:49:3Z</time></trkpt>
<trkpt lat="46.31062" lon="7.01305"><ele></ele><time>2016-9-26T2:49:6Z</time></trkpt>
<trkpt lat="46.31062" lon="7.0131"><ele></ele><time>2016-9-26T2:49:9Z</time></trkpt>
<trkpt lat="46.31063" lon="7.01312"><ele></ele><time>2016-9-26T2:49:12Z</time></trkpt>
<trkpt lat="46.31063" lon="7.01314"><ele></ele><time>2016-9-26T2:49:15Z</time></trkpt>
<trkpt lat="46.31063" lon="7.01319"><ele></ele><time>2016-9-26T2:49:18Z</time></trkpt>
<trkpt lat="46.31064" lon="7.01324"><ele></ele><time>2016-9-26T2:49:21Z</time></trkpt>
<trkpt lat="46.31064" lon="7.01329"><ele></ele><time>2016-9-26T2:49:24Z</time></trkpt>
<trkpt lat="46.31064" lon="7.01333"><ele></ele><time>2016-9-26T2:49:27Z</time></trkpt>
<trkpt lat="46.31065" lon="7.01338"><ele></ele><time>2016-9-26T2:49:30Z</time></trkpt>
<trkpt lat="46.31065" lon="7.01343"><ele></ele><time>2016-9-26T2:49:33Z</time></trkpt>
<trkpt lat="46.31065" lon="7.01348"><ele></ele><time>2016-9-26T2:49:36Z</time></trkpt>
<trkpt lat="46.31066" lon="7.01352"><ele></ele><time>2016-9-26T2:49:39Z</time></trkpt>
<trkpt lat="46.31066" lon="7.01357"><ele></ele><time>2016-9-26T2:49:42Z</time></trkpt>
<trkpt lat="46.31067" lon="7.01362"><ele></ele><time>2016-9-26T2:49:45Z</time></trkpt>
<trkpt lat="46.31069" lon="7.01364"><ele></ele><time>2016-9-26T2:49:48Z</time></trkpt>
<trkpt lat="46.31071" lon="7.01367"><ele></ele><time>2016-9-26T2:49:51Z</time></trkpt>
<trkpt lat="46.31073" lon="7.0137"><ele></ele><time>2016-9-26T2:49:54Z</time></trkpt>
<trkpt lat="46.31075" lon="7.01372"><ele></ele><time>2016-9-26T2:49:57Z</time></trkpt>
<trkpt lat="46.31076" lon="7.01373"><ele></ele><time>2016-9-26T2:50:0Z</time></trkpt>
<trkpt lat="46.31078" lon="7.01376"><ele></ele><time>2016-9-26T2:50:3Z</time></trkpt>
<trkpt lat="46.3108" lon="7.01379"><ele></ele><time>2016-9-26T2:50:6Z</time></trkpt>
<trkpt lat="46.31081" lon="7.0138"><ele></ele><time>2016-9-26T2:50:9Z</time></trkpt>
<trkpt lat="46.31082" lon="7.01382"><ele></ele><time>2016-9-26T2:50:12Z</time></trkpt>
<trkpt lat="46.31085" lon="7.01384"><ele></ele><time>2016-9-26T2:50:15Z</time></trkpt>
<trkpt lat="46.31087" lon="7.01387"><ele></ele><time>2016-9-26T2:50:18Z</time></trkpt>
<trkpt lat="46.31089" lon="7.0139"><ele></ele><time>2016-9-26T2:50:21Z</time></trkpt>
<trkpt lat="46.31091" lon="7.01393"><ele></ele><time>2016-9-26T2:50:24Z</time></trkpt>
<trkpt lat="46.31093" lon="7.01396"><ele></ele><time>2016-9-26T2:50:27Z</time></trkpt>
<trkpt lat="46.31096" lon="7.01399"><ele></ele><time>2016-9-26T2:50:30Z</time></trkpt>
<trkpt lat="46.31097" lon="7.014"><ele></ele><time>2016-9-26T2:50:33Z</time></trkpt>
<trkpt lat="46.31099" lon="7.01403"><ele></ele><time>2016-9-26T2:50:36Z</time></trkpt>
<trkpt lat="46.31101" lon="7.01406"><ele></ele><time>2016-9-26T2:50:39Z</time></trkpt>
<trkpt lat="46.31104" lon="7.01408"><ele></ele><time>2016-9-26T2:50:42Z</time></trkpt>
<trkpt lat="46.31106" lon="7.0141"><ele></ele><time>2016-9-26T2:50:45Z</time></trkpt>
<trkpt lat="46.31109" lon="7.01412"><ele></ele><time>2016-9-26T2:50:48Z</time></trkpt>
<trkpt lat="46.31111" lon="7.01414"><ele></ele><time>2016-9-26T2:50:51Z</time></trkpt>
<trkpt lat="46.31114" lon="7.01416"><ele></ele><time>2016-9-26T2:50:54Z</time></trkpt>
<trkpt lat="46.31116" lon="7.01418"><ele></ele><time>2016-9-26T2:50:57Z</time></trkpt>
<trkpt lat="46.31119" lon="7.0142"><ele></ele><time>2016-9-26T2:51:0Z</time></trkpt>
<trkpt lat="46.31121" lon="7.01422"><ele></ele><time>2016-9-26T2:51:3Z</time></trkpt>
<trkpt lat="46.31119" lon="7.01426"><ele></ele><time>2016-9-26T2:51:6Z</time></trkpt>
<trkpt lat="46.31118" lon="7.0143"><ele></ele><time>2016-9-26T2:51:9Z</time></trkpt>
<trkpt lat="46.31116" lon="7.01434"><ele></ele><time>2016-9-26T2:51:12Z</time></trkpt>
<trkpt lat="46.31114" lon="7.01437"><ele></ele><time>2016-9-26T2:51:15Z</time></trkpt>
<trkpt lat="46.31112" lon="7.01436"><ele></ele><time>2016-9-26T2:51:18Z</time></trkpt>
<trkpt lat="46.31109" lon="7.01436"><ele></ele><time>2016-9-26T2:51:21Z</time></trkpt>
<trkpt lat="46.31105" lon="7.01435"><ele></ele><time>2016-9-26T2:51:24Z</time></trkpt>
<trkpt lat="46.31101" lon="7.01435"><ele></ele><time>2016-9-26T2:51:27Z</time></trkpt>
<trkpt lat="46.31096" lon="7.01434"><ele></ele><time>2016-9-26T2:51:30Z</time></trkpt>
<trkpt lat="46.31092" lon="7.01433"><ele></ele><time>2016-9-26T2:51:33Z</time></trkpt>
<trkpt lat="46.31087" lon="7.01433"><ele></ele><time>2016-9-26T2:51:36Z</time></trkpt>
<trkpt lat="46.31083" lon="7.01432"><ele></ele><time>2016-9-26T2:51:39Z</time></trkpt>
<trkpt lat="46.31078" lon="7.01431"><ele></ele><time>2016-9-26T2:51:42Z</time></trkpt>
<trkpt lat="46.31076" lon="7.01431"><ele></ele><time>2016-9-26T2:51:45Z</time></trkpt>
<trkpt lat="46.31074" lon="7.01431"><ele></ele><time>2016-9-26T2:51:48Z</time></trkpt>
<trkpt lat="46.31069" lon="7.0143"><ele></ele><time>2016-9-26T2:51:51Z</time></trkpt>
<trkpt lat="46.31067" lon="7.0143"><ele></ele><time>2016-9-26T2:51:54Z</time></trkpt>
<trkpt lat="46.31065" lon="7.01433"><ele></ele><time>2016-9-26T2:51:57Z</time></trkpt>
<trkpt lat="46.3106" lon="7.01438"><ele></ele><time>2016-9-26T2:52:0Z</time></trkpt>
<trkpt lat="46.31056" lon="7.01443"><ele></ele><time>2016-9-26T2:52:3Z</time></trkpt>
<trkpt lat="46.31052" lon="7.01448"><ele></ele><time>2016-9-26T2:52:6Z</time></trkpt>
<trkpt lat="46.3105" lon="7.01457"><ele></ele><time>2016-9-26T2:52:9Z</time></trkpt>
<trkpt lat="46.31047" lon="7.01466"><ele></ele><time>2016-9-26T2:52:12Z</time></trkpt>
<trkpt lat="46.31045" lon="7.01475"><ele></ele><time>2016-9-26T2:52:15Z</time></trkpt>
<trkpt lat="46.31041" lon="7.01488"><ele></ele><time>2016-9-26T2:52:18Z</time></trkpt>
<trkpt lat="46.3104" lon="7.01492"><ele></ele><time>2016-9-26T2:52:21Z</time></trkpt>
<trkpt lat="46.31038" lon="7.01501"><ele></ele><time>2016-9-26T2:52:24Z</time></trkpt>
<trkpt lat="46.31036" lon="7.0151"><ele></ele><time>2016-9-26T2:52:27Z</time></trkpt>
<trkpt lat="46.31035" lon="7.01519"><ele></ele><time>2016-9-26T2:52:30Z</time></trkpt>
<trkpt lat="46.31034" lon="7.01529"><ele></ele><time>2016-9-26T2:52:33Z</time></trkpt>
<trkpt lat="46.31034" lon="7.01539"><ele></ele><time>2016-9-26T2:52:36Z</time></trkpt>
<trkpt lat="46.31033" lon="7.01549"><ele></ele><time>2016-9-26T2:52:39Z</time></trkpt>
<trkpt lat="46.31032" lon="7.01559"><ele></ele><time>2016-9-26T2:52:42Z</time></trkpt>
<trkpt lat="46.31032" lon="7.01568"><ele></ele><time>2016-9-26T2:52:45Z</time></trkpt>
<trkpt lat="46.31031" lon="7.01578"><ele></ele><time>2016-9-26T2:52:48Z</time></trkpt>
<trkpt lat="46.31028" lon="7.01588"><ele></ele><time>2016-9-26T2:52:51Z</time></trkpt>
<trkpt lat="46.31026" lon="7.01597"><ele></ele><time>2016-9-26T2:52:54Z</time></trkpt>
<trkpt lat="46.31023" lon="7.01607"><ele></ele><time>2016-9-26T2:52:57Z</time></trkpt>
<trkpt lat="46.31021" lon="7.01617"><ele></ele><time>2016-9-26T2:53:0Z</time></trkpt>
<trkpt lat="46.31018" lon="7.01626"><ele></ele><time>2016-9-26T2:53:3Z</time></trkpt>
<trkpt lat="46.31016" lon="7.01636"><ele></ele><time>2016-9-26T2:53:6Z</time></trkpt>
<trkpt lat="46.31015" lon="7.01641"><ele></ele><time>2016-9-26T2:53:9Z</time></trkpt>
<trkpt lat="46.31015" lon="7.01647"><ele></ele><time>2016-9-26T2:53:12Z</time></trkpt>
<trkpt lat="46.31014" lon="7.01664"><ele></ele><time>2016-9-26T2:53:15Z</time></trkpt>
<trkpt lat="46.31013" lon="7.0167"><ele></ele><time>2016-9-26T2:53:18Z</time></trkpt>
<trkpt lat="46.31013" lon="7.01682"><ele></ele><time>2016-9-26T2:53:21Z</time></trkpt>
<trkpt lat="46.31012" lon="7.01693"><ele></ele><time>2016-9-26T2:53:24Z</time></trkpt>
<trkpt lat="46.31012" lon="7.01705"><ele></ele><time>2016-9-26T2:53:27Z</time></trkpt>
<trkpt lat="46.31011" lon="7.01711"><ele></ele><time>2016-9-26T2:53:30Z</time></trkpt>
<trkpt lat="46.31009" lon="7.01715"><ele></ele><time>2016-9-26T2:53:33Z</time></trkpt>
<trkpt lat="46.31006" lon="7.01724"><ele></ele><time>2016-9-26T2:53:36Z</time></trkpt>
<trkpt lat="46.31002" lon="7.01733"><ele></ele><time>2016-9-26T2:53:39Z</time></trkpt>
<trkpt lat="46.30999" lon="7.01742"><ele></ele><time>2016-9-26T2:53:42Z</time></trkpt>
<trkpt lat="46.30995" lon="7.01751"><ele></ele><time>2016-9-26T2:53:45Z</time></trkpt>
<trkpt lat="46.30992" lon="7.0176"><ele></ele><time>2016-9-26T2:53:48Z</time></trkpt>
<trkpt lat="46.30988" lon="7.01769"><ele></ele><time>2016-9-26T2:53:51Z</time></trkpt>
<trkpt lat="46.30984" lon="7.01777"><ele></ele><time>2016-9-26T2:53:54Z</time></trkpt>
<trkpt lat="46.30979" lon="7.01786"><ele></ele><time>2016-9-26T2:53:57Z</time></trkpt>
<trkpt lat="46.30975" lon="7.01794"><ele></ele><time>2016-9-26T2:54:0Z</time></trkpt>
<trkpt lat="46.3097" lon="7.01803"><ele></ele><time>2016-9-26T2:54:3Z</time></trkpt>
<trkpt lat="46.30966" lon="7.01811"><ele></ele><time>2016-9-26T2:54:6Z</time></trkpt>
<trkpt lat="46.30962" lon="7.0182"><ele></ele><time>2016-9-26T2:54:9Z</time></trkpt>
<trkpt lat="46.3096" lon="7.01823"><ele></ele><time>2016-9-26T2:54:12Z</time></trkpt>
<trkpt lat="46.30958" lon="7.01825"><ele></ele><time>2016-9-26T2:54:15Z</time></trkpt>
<trkpt lat="46.30955" lon="7.01829"><ele></ele><time>2016-9-26T2:54:18Z</time></trkpt>
<trkpt lat="46.30952" lon="7.01833"><ele></ele><time>2016-9-26T2:54:21Z</time></trkpt>
<trkpt lat="46.30951" lon="7.01834"><ele></ele><time>2016-9-26T2:54:24Z</time></trkpt>
<trkpt lat="46.30949" lon="7.01836"><ele></ele><time>2016-9-26T2:54:27Z</time></trkpt>
<trkpt lat="46.30946" lon="7.0184"><ele></ele><time>2016-9-26T2:54:30Z</time></trkpt>
<trkpt lat="46.30943" lon="7.01844"><ele></ele><time>2016-9-26T2:54:33Z</time></trkpt>
<trkpt lat="46.30941" lon="7.01846"><ele></ele><time>2016-9-26T2:54:36Z</time></trkpt>
<trkpt lat="46.3094" lon="7.01847"><ele></ele><time>2016-9-26T2:54:39Z</time></trkpt>
<trkpt lat="46.30937" lon="7.01851"><ele></ele><time>2016-9-26T2:54:42Z</time></trkpt>
<trkpt lat="46.30934" lon="7.01855"><ele></ele><time>2016-9-26T2:54:45Z</time></trkpt>
<trkpt lat="46.30931" lon="7.01859"><ele></ele><time>2016-9-26T2:54:48Z</time></trkpt>
<trkpt lat="46.30928" lon="7.01862"><ele></ele><time>2016-9-26T2:54:51Z</time></trkpt>
<trkpt lat="46.30925" lon="7.01866"><ele></ele><time>2016-9-26T2:54:54Z</time></trkpt>
<trkpt lat="46.30922" lon="7.01866"><ele></ele><time>2016-9-26T2:54:57Z</time></trkpt>
<trkpt lat="46.30919" lon="7.01867"><ele></ele><time>2016-9-26T2:55:0Z</time></trkpt>
<trkpt lat="46.30916" lon="7.01867"><ele></ele><time>2016-9-26T2:55:3Z</time></trkpt>
<trkpt lat="46.30913" lon="7.01868"><ele></ele><time>2016-9-26T2:55:6Z</time></trkpt>
<trkpt lat="46.3091" lon="7.01869"><ele></ele><time>2016-9-26T2:55:9Z</time></trkpt>
<trkpt lat="46.30907" lon="7.01869"><ele></ele><time>2016-9-26T2:55:12Z</time></trkpt>
<trkpt lat="46.30904" lon="7.0187"><ele></ele><time>2016-9-26T2:55:15Z</time></trkpt>
<trkpt lat="46.30901" lon="7.0187"><ele></ele><time>2016-9-26T2:55:18Z</time></trkpt>
<trkpt lat="46.30898" lon="7.01871"><ele></ele><time>2016-9-26T2:55:21Z</time></trkpt>
<trkpt lat="46.30895" lon="7.01872"><ele></ele><time>2016-9-26T2:55:24Z</time></trkpt>
<trkpt lat="46.30893" lon="7.01871"><ele></ele><time>2016-9-26T2:55:27Z</time></trkpt>
<trkpt lat="46.30892" lon="7.01868"><ele></ele><time>2016-9-26T2:55:30Z</time></trkpt>
<trkpt lat="46.30888" lon="7.01861"><ele></ele><time>2016-9-26T2:55:33Z</time></trkpt>
<trkpt lat="46.30885" lon="7.01855"><ele></ele><time>2016-9-26T2:55:36Z</time></trkpt>
<trkpt lat="46.30882" lon="7.01848"><ele></ele><time>2016-9-26T2:55:39Z</time></trkpt>
<trkpt lat="46.3088" lon="7.01845"><ele></ele><time>2016-9-26T2:55:42Z</time></trkpt>
<trkpt lat="46.30878" lon="7.01841"><ele></ele><time>2016-9-26T2:55:45Z</time></trkpt>
<trkpt lat="46.30875" lon="7.01835"><ele></ele><time>2016-9-26T2:55:48Z</time></trkpt>
<trkpt lat="46.30872" lon="7.01828"><ele></ele><time>2016-9-26T2:55:51Z</time></trkpt>
<trkpt lat="46.30868" lon="7.01822"><ele></ele><time>2016-9-26T2:55:54Z</time></trkpt>
<trkpt lat="46.30867" lon="7.01818"><ele></ele><time>2016-9-26T2:55:57Z</time></trkpt>
<trkpt lat="46.30865" lon="7.01815"><ele></ele><time>2016-9-26T2:56:0Z</time></trkpt>
<trkpt lat="46.30863" lon="7.01812"><ele></ele><time>2016-9-26T2:56:3Z</time></trkpt>
<trkpt lat="46.30859" lon="7.01806"><ele></ele><time>2016-9-26T2:56:6Z</time></trkpt>
<trkpt lat="46.30857" lon="7.01802"><ele></ele><time>2016-9-26T2:56:9Z</time></trkpt>
<trkpt lat="46.30854" lon="7.01796"><ele></ele><time>2016-9-26T2:56:12Z</time></trkpt>
<trkpt lat="46.3085" lon="7.0179"><ele></ele><time>2016-9-26T2:56:15Z</time></trkpt>
<trkpt lat="46.30846" lon="7.01783"><ele></ele><time>2016-9-26T2:56:18Z</time></trkpt>
<trkpt lat="46.30842" lon="7.01777"><ele></ele><time>2016-9-26T2:56:21Z</time></trkpt>
<trkpt lat="46.30839" lon="7.0177"><ele></ele><time>2016-9-26T2:56:24Z</time></trkpt>
<trkpt lat="46.30837" lon="7.01767"><ele></ele><time>2016-9-26T2:56:27Z</time></trkpt>
<trkpt lat="46.30836" lon="7.01763"><ele></ele><time>2016-9-26T2:56:30Z</time></trkpt>
<trkpt lat="46.30833" lon="7.01755"><ele></ele><time>2016-9-26T2:56:33Z</time></trkpt>
<trkpt lat="46.3083" lon="7.01747"><ele></ele><time>2016-9-26T2:56:36Z</time></trkpt>
<trkpt lat="46.30827" lon="7.01739"><ele></ele><time>2016-9-26T2:56:39Z</time></trkpt>
<trkpt lat="46.30825" lon="7.01731"><ele></ele><time>2016-9-26T2:56:42Z</time></trkpt>
<trkpt lat="46.30822" lon="7.01724"><ele></ele><time>2016-9-26T2:56:45Z</time></trkpt>
<trkpt lat="46.30819" lon="7.01716"><ele></ele><time>2016-9-26T2:56:48Z</time></trkpt>
<trkpt lat="46.30817" lon="7.01708"><ele></ele><time>2016-9-26T2:56:51Z</time></trkpt>
<trkpt lat="46.30817" lon="7.01699"><ele></ele><time>2016-9-26T2:56:54Z</time></trkpt>
<trkpt lat="46.30816" lon="7.0169"><ele></ele><time>2016-9-26T2:56:57Z</time></trkpt>
<trkpt lat="46.30816" lon="7.01686"><ele></ele><time>2016-9-26T2:57:0Z</time></trkpt>
<trkpt lat="46.30816" lon="7.01682"><ele></ele><time>2016-9-26T2:57:3Z</time></trkpt>
<trkpt lat="46.30816" lon="7.01673"><ele></ele><time>2016-9-26T2:57:6Z</time></trkpt>
<trkpt lat="46.30816" lon="7.01664"><ele></ele><time>2016-9-26T2:57:9Z</time></trkpt>
<trkpt lat="46.30816" lon="7.01656"><ele></ele><time>2016-9-26T2:57:12Z</time></trkpt>
<trkpt lat="46.30815" lon="7.01647"><ele></ele><time>2016-9-26T2:57:15Z</time></trkpt>
<trkpt lat="46.30815" lon="7.01643"><ele></ele><time>2016-9-26T2:57:18Z</time></trkpt>
<trkpt lat="46.30815" lon="7.01638"><ele></ele><time>2016-9-26T2:57:21Z</time></trkpt>
<trkpt lat="46.30814" lon="7.0163"><ele></ele><time>2016-9-26T2:57:24Z</time></trkpt>
<trkpt lat="46.30813" lon="7.01621"><ele></ele><time>2016-9-26T2:57:27Z</time></trkpt>
<trkpt lat="46.30812" lon="7.01616"><ele></ele><time>2016-9-26T2:57:30Z</time></trkpt>
<trkpt lat="46.30812" lon="7.01612"><ele></ele><time>2016-9-26T2:57:33Z</time></trkpt>
<trkpt lat="46.3081" lon="7.01603"><ele></ele><time>2016-9-26T2:57:36Z</time></trkpt>
<trkpt lat="46.30809" lon="7.01594"><ele></ele><time>2016-9-26T2:57:39Z</time></trkpt>
<trkpt lat="46.30808" lon="7.01586"><ele></ele><time>2016-9-26T2:57:42Z</time></trkpt>
<trkpt lat="46.30807" lon="7.01577"><ele></ele><time>2016-9-26T2:57:45Z</time></trkpt>
<trkpt lat="46.30806" lon="7.01573"><ele></ele><time>2016-9-26T2:57:48Z</time></trkpt>
<trkpt lat="46.30804" lon="7.01568"><ele></ele><time>2016-9-26T2:57:51Z</time></trkpt>
<trkpt lat="46.30799" lon="7.01555"><ele></ele><time>2016-9-26T2:57:54Z</time></trkpt>
<trkpt lat="46.30795" lon="7.01547"><ele></ele><time>2016-9-26T2:57:57Z</time></trkpt>
<trkpt lat="46.30791" lon="7.01538"><ele></ele><time>2016-9-26T2:58:0Z</time></trkpt>
<trkpt lat="46.30788" lon="7.01529"><ele></ele><time>2016-9-26T2:58:3Z</time></trkpt>
<trkpt lat="46.30784" lon="7.01521"><ele></ele><time>2016-9-26T2:58:6Z</time></trkpt>
<trkpt lat="46.30782" lon="7.01517"><ele></ele><time>2016-9-26T2:58:9Z</time></trkpt>
<trkpt lat="46.3078" lon="7.01517"><ele></ele><time>2016-9-26T2:58:12Z</time></trkpt>
<trkpt lat="46.30774" lon="7.01516"><ele></ele><time>2016-9-26T2:58:15Z</time></trkpt>
<trkpt lat="46.30768" lon="7.01515"><ele></ele><time>2016-9-26T2:58:18Z</time></trkpt>
<trkpt lat="46.30763" lon="7.01515"><ele></ele><time>2016-9-26T2:58:21Z</time></trkpt>
<trkpt lat="46.30757" lon="7.01514"><ele></ele><time>2016-9-26T2:58:24Z</time></trkpt>
<trkpt lat="46.30751" lon="7.01513"><ele></ele><time>2016-9-26T2:58:27Z</time></trkpt>
<trkpt lat="46.30746" lon="7.01512"><ele></ele><time>2016-9-26T2:58:30Z</time></trkpt>
<trkpt lat="46.3074" lon="7.01512"><ele></ele><time>2016-9-26T2:58:33Z</time></trkpt>
<trkpt lat="46.30737" lon="7.01512"><ele></ele><time>2016-9-26T2:58:36Z</time></trkpt>
<trkpt lat="46.30735" lon="7.01513"><ele></ele><time>2016-9-26T2:58:39Z</time></trkpt>
<trkpt lat="46.30729" lon="7.01516"><ele></ele><time>2016-9-26T2:58:42Z</time></trkpt>
<trkpt lat="46.30723" lon="7.01519"><ele></ele><time>2016-9-26T2:58:45Z</time></trkpt>
<trkpt lat="46.30718" lon="7.01522"><ele></ele><time>2016-9-26T2:58:48Z</time></trkpt>
<trkpt lat="46.30712" lon="7.01525"><ele></ele><time>2016-9-26T2:58:51Z</time></trkpt>
<trkpt lat="46.30707" lon="7.01528"><ele></ele><time>2016-9-26T2:58:54Z</time></trkpt>
<trkpt lat="46.30701" lon="7.01531"><ele></ele><time>2016-9-26T2:58:57Z</time></trkpt>
<trkpt lat="46.30695" lon="7.01534"><ele></ele><time>2016-9-26T2:59:0Z</time></trkpt>
<trkpt lat="46.30693" lon="7.01536"><ele></ele><time>2016-9-26T2:59:3Z</time></trkpt>
<trkpt lat="46.3069" lon="7.01536"><ele></ele><time>2016-9-26T2:59:6Z</time></trkpt>
<trkpt lat="46.30684" lon="7.01538"><ele></ele><time>2016-9-26T2:59:9Z</time></trkpt>
<trkpt lat="46.30678" lon="7.0154"><ele></ele><time>2016-9-26T2:59:12Z</time></trkpt>
<trkpt lat="46.30672" lon="7.01541"><ele></ele><time>2016-9-26T2:59:15Z</time></trkpt>
<trkpt lat="46.30666" lon="7.01543"><ele></ele><time>2016-9-26T2:59:18Z</time></trkpt>
<trkpt lat="46.3066" lon="7.01545"><ele></ele><time>2016-9-26T2:59:21Z</time></trkpt>
<trkpt lat="46.30654" lon="7.01546"><ele></ele><time>2016-9-26T2:59:24Z</time></trkpt>
<trkpt lat="46.30648" lon="7.01548"><ele></ele><time>2016-9-26T2:59:27Z</time></trkpt>
<trkpt lat="46.30645" lon="7.01549"><ele></ele><time>2016-9-26T2:59:30Z</time></trkpt>
<trkpt lat="46.30642" lon="7.0155"><ele></ele><time>2016-9-26T2:59:33Z</time></trkpt>
<trkpt lat="46.30636" lon="7.01551"><ele></ele><time>2016-9-26T2:59:36Z</time></trkpt>
<trkpt lat="46.3063" lon="7.01553"><ele></ele><time>2016-9-26T2:59:39Z</time></trkpt>
<trkpt lat="46.30627" lon="7.01554"><ele></ele><time>2016-9-26T2:59:42Z</time></trkpt>
<trkpt lat="46.30624" lon="7.01554"><ele></ele><time>2016-9-26T2:59:45Z</time></trkpt>
<trkpt lat="46.30618" lon="7.01556"><ele></ele><time>2016-9-26T2:59:48Z</time></trkpt>
<trkpt lat="46.30612" lon="7.01558"><ele></ele><time>2016-9-26T2:59:51Z</time></trkpt>
<trkpt lat="46.30606" lon="7.01559"><ele></ele><time>2016-9-26T2:59:54Z</time></trkpt>
<trkpt lat="46.306" lon="7.01561"><ele></ele><time>2016-9-26T2:59:57Z</time></trkpt>
<trkpt lat="46.30595" lon="7.01562"><ele></ele><time>2016-9-26T3:0:0Z</time></trkpt>
<trkpt lat="46.30589" lon="7.01563"><ele></ele><time>2016-9-26T3:0:3Z</time></trkpt>
<trkpt lat="46.30584" lon="7.01564"><ele></ele><time>2016-9-26T3:0:6Z</time></trkpt>
<trkpt lat="46.30578" lon="7.01565"><ele></ele><time>2016-9-26T3:0:9Z</time></trkpt>
<trkpt lat="46.30573" lon="7.01566"><ele></ele><time>2016-9-26T3:0:12Z</time></trkpt>
<trkpt lat="46.30567" lon="7.01568"><ele></ele><time>2016-9-26T3:0:15Z</time></trkpt>
<trkpt lat="46.30562" lon="7.01569"><ele></ele><time>2016-9-26T3:0:18Z</time></trkpt>
<trkpt lat="46.30556" lon="7.0157"><ele></ele><time>2016-9-26T3:0:21Z</time></trkpt>
<trkpt lat="46.30553" lon="7.0157"><ele></ele><time>2016-9-26T3:0:24Z</time></trkpt>
<trkpt lat="46.3055" lon="7.0157"><ele></ele><time>2016-9-26T3:0:27Z</time></trkpt>
<trkpt lat="46.30544" lon="7.0157"><ele></ele><time>2016-9-26T3:0:30Z</time></trkpt>
<trkpt lat="46.30538" lon="7.0157"><ele></ele><time>2016-9-26T3:0:33Z</time></trkpt>
<trkpt lat="46.30532" lon="7.0157"><ele></ele><time>2016-9-26T3:0:36Z</time></trkpt>
<trkpt lat="46.30526" lon="7.01569"><ele></ele><time>2016-9-26T3:0:39Z</time></trkpt>
<trkpt lat="46.3052" lon="7.01569"><ele></ele><time>2016-9-26T3:0:42Z</time></trkpt>
<trkpt lat="46.30513" lon="7.01569"><ele></ele><time>2016-9-26T3:0:45Z</time></trkpt>
<trkpt lat="46.30508" lon="7.01568"><ele></ele><time>2016-9-26T3:0:48Z</time></trkpt>
<trkpt lat="46.30503" lon="7.01564"><ele></ele><time>2016-9-26T3:0:51Z</time></trkpt>
<trkpt lat="46.30499" lon="7.01561"><ele></ele><time>2016-9-26T3:0:54Z</time></trkpt>
<trkpt lat="46.30494" lon="7.01557"><ele></ele><time>2016-9-26T3:0:57Z</time></trkpt>
<trkpt lat="46.3049" lon="7.01553"><ele></ele><time>2016-9-26T3:1:0Z</time></trkpt>
<trkpt lat="46.30485" lon="7.01549"><ele></ele><time>2016-9-26T3:1:3Z</time></trkpt>
<trkpt lat="46.30481" lon="7.01545"><ele></ele><time>2016-9-26T3:1:6Z</time></trkpt>
<trkpt lat="46.30477" lon="7.01541"><ele></ele><time>2016-9-26T3:1:9Z</time></trkpt>
<trkpt lat="46.30472" lon="7.01537"><ele></ele><time>2016-9-26T3:1:12Z</time></trkpt>
<trkpt lat="46.30468" lon="7.01533"><ele></ele><time>2016-9-26T3:1:15Z</time></trkpt>
<trkpt lat="46.30463" lon="7.0153"><ele></ele><time>2016-9-26T3:1:18Z</time></trkpt>
<trkpt lat="46.30459" lon="7.01527"><ele></ele><time>2016-9-26T3:1:21Z</time></trkpt>
<trkpt lat="46.30456" lon="7.01526"><ele></ele><time>2016-9-26T3:1:24Z</time></trkpt>
<trkpt lat="46.30454" lon="7.01524"><ele></ele><time>2016-9-26T3:1:27Z</time></trkpt>
<trkpt lat="46.30449" lon="7.01521"><ele></ele><time>2016-9-26T3:1:30Z</time></trkpt>
<trkpt lat="46.30445" lon="7.01518"><ele></ele><time>2016-9-26T3:1:33Z</time></trkpt>
<trkpt lat="46.3044" lon="7.01515"><ele></ele><time>2016-9-26T3:1:36Z</time></trkpt>
<trkpt lat="46.30436" lon="7.01512"><ele></ele><time>2016-9-26T3:1:39Z</time></trkpt>
<trkpt lat="46.30431" lon="7.01509"><ele></ele><time>2016-9-26T3:1:42Z</time></trkpt>
<trkpt lat="46.30427" lon="7.01506"><ele></ele><time>2016-9-26T3:1:45Z</time></trkpt>
<trkpt lat="46.30423" lon="7.01503"><ele></ele><time>2016-9-26T3:1:48Z</time></trkpt>
<trkpt lat="46.3042" lon="7.01499"><ele></ele><time>2016-9-26T3:1:51Z</time></trkpt>
<trkpt lat="46.30417" lon="7.01496"><ele></ele><time>2016-9-26T3:1:54Z</time></trkpt>
<trkpt lat="46.30413" lon="7.01492"><ele></ele><time>2016-9-26T3:1:57Z</time></trkpt>
<trkpt lat="46.3041" lon="7.01489"><ele></ele><time>2016-9-26T3:2:0Z</time></trkpt>
<trkpt lat="46.30406" lon="7.01486"><ele></ele><time>2016-9-26T3:2:3Z</time></trkpt>
<trkpt lat="46.30403" lon="7.01482"><ele></ele><time>2016-9-26T3:2:6Z</time></trkpt>
<trkpt lat="46.30399" lon="7.01479"><ele></ele><time>2016-9-26T3:2:9Z</time></trkpt>
<trkpt lat="46.30396" lon="7.01475"><ele></ele><time>2016-9-26T3:2:12Z</time></trkpt>
<trkpt lat="46.30393" lon="7.01472"><ele></ele><time>2016-9-26T3:2:15Z</time></trkpt>
<trkpt lat="46.30389" lon="7.01468"><ele></ele><time>2016-9-26T3:2:18Z</time></trkpt>
<trkpt lat="46.30386" lon="7.01463"><ele></ele><time>2016-9-26T3:2:21Z</time></trkpt>
<trkpt lat="46.30383" lon="7.01458"><ele></ele><time>2016-9-26T3:2:24Z</time></trkpt>
<trkpt lat="46.3038" lon="7.01453"><ele></ele><time>2016-9-26T3:2:27Z</time></trkpt>
<trkpt lat="46.30377" lon="7.01448"><ele></ele><time>2016-9-26T3:2:30Z</time></trkpt>
<trkpt lat="46.30374" lon="7.01443"><ele></ele><time>2016-9-26T3:2:33Z</time></trkpt>
<trkpt lat="46.30372" lon="7.0144"><ele></ele><time>2016-9-26T3:2:36Z</time></trkpt>
<trkpt lat="46.30369" lon="7.01435"><ele></ele><time>2016-9-26T3:2:39Z</time></trkpt>
<trkpt lat="46.30368" lon="7.01433"><ele></ele><time>2016-9-26T3:2:42Z</time></trkpt>
<trkpt lat="46.30365" lon="7.01427"><ele></ele><time>2016-9-26T3:2:45Z</time></trkpt>
<trkpt lat="46.30362" lon="7.01422"><ele></ele><time>2016-9-26T3:2:48Z</time></trkpt>
<trkpt lat="46.30358" lon="7.01418"><ele></ele><time>2016-9-26T3:2:51Z</time></trkpt>
<trkpt lat="46.30354" lon="7.01417"><ele></ele><time>2016-9-26T3:2:54Z</time></trkpt>
<trkpt lat="46.3035" lon="7.01416"><ele></ele><time>2016-9-26T3:2:57Z</time></trkpt>
<trkpt lat="46.30346" lon="7.01415"><ele></ele><time>2016-9-26T3:3:0Z</time></trkpt>
<trkpt lat="46.30341" lon="7.01414"><ele></ele><time>2016-9-26T3:3:3Z</time></trkpt>
<trkpt lat="46.30337" lon="7.01413"><ele></ele><time>2016-9-26T3:3:6Z</time></trkpt>
<trkpt lat="46.30333" lon="7.01412"><ele></ele><time>2016-9-26T3:3:9Z</time></trkpt>
<trkpt lat="46.30329" lon="7.01411"><ele></ele><time>2016-9-26T3:3:12Z</time></trkpt>
<trkpt lat="46.30324" lon="7.01411"><ele></ele><time>2016-9-26T3:3:15Z</time></trkpt>
<trkpt lat="46.3032" lon="7.0141"><ele></ele><time>2016-9-26T3:3:18Z</time></trkpt>
<trkpt lat="46.30316" lon="7.01409"><ele></ele><time>2016-9-26T3:3:21Z</time></trkpt>
<trkpt lat="46.30314" lon="7.01408"><ele></ele><time>2016-9-26T3:3:24Z</time></trkpt>
<trkpt lat="46.30312" lon="7.01406"><ele></ele><time>2016-9-26T3:3:27Z</time></trkpt>
<trkpt lat="46.30308" lon="7.01402"><ele></ele><time>2016-9-26T3:3:30Z</time></trkpt>
<trkpt lat="46.30305" lon="7.01399"><ele></ele><time>2016-9-26T3:3:33Z</time></trkpt>
<trkpt lat="46.30303" lon="7.01397"><ele></ele><time>2016-9-26T3:3:36Z</time></trkpt>
<trkpt lat="46.30301" lon="7.01395"><ele></ele><time>2016-9-26T3:3:39Z</time></trkpt>
<trkpt lat="46.30297" lon="7.01391"><ele></ele><time>2016-9-26T3:3:42Z</time></trkpt>
<trkpt lat="46.30294" lon="7.01388"><ele></ele><time>2016-9-26T3:3:45Z</time></trkpt>
<trkpt lat="46.3029" lon="7.01384"><ele></ele><time>2016-9-26T3:3:48Z</time></trkpt>
<trkpt lat="46.30287" lon="7.0138"><ele></ele><time>2016-9-26T3:3:51Z</time></trkpt>
<trkpt lat="46.30283" lon="7.01377"><ele></ele><time>2016-9-26T3:3:54Z</time></trkpt>
<trkpt lat="46.30279" lon="7.01373"><ele></ele><time>2016-9-26T3:3:57Z</time></trkpt>
<trkpt lat="46.30276" lon="7.01369"><ele></ele><time>2016-9-26T3:4:0Z</time></trkpt>
<trkpt lat="46.30272" lon="7.01365"><ele></ele><time>2016-9-26T3:4:3Z</time></trkpt>
<trkpt lat="46.30267" lon="7.01361"><ele></ele><time>2016-9-26T3:4:6Z</time></trkpt>
<trkpt lat="46.30263" lon="7.01357"><ele></ele><time>2016-9-26T3:4:9Z</time></trkpt>
<trkpt lat="46.30259" lon="7.01353"><ele></ele><time>2016-9-26T3:4:12Z</time></trkpt>
<trkpt lat="46.30255" lon="7.01349"><ele></ele><time>2016-9-26T3:4:15Z</time></trkpt>
<trkpt lat="46.30251" lon="7.01344"><ele></ele><time>2016-9-26T3:4:18Z</time></trkpt>
<trkpt lat="46.30247" lon="7.0134"><ele></ele><time>2016-9-26T3:4:21Z</time></trkpt>
<trkpt lat="46.30243" lon="7.01336"><ele></ele><time>2016-9-26T3:4:24Z</time></trkpt>
<trkpt lat="46.30239" lon="7.01332"><ele></ele><time>2016-9-26T3:4:27Z</time></trkpt>
<trkpt lat="46.30234" lon="7.01327"><ele></ele><time>2016-9-26T3:4:30Z</time></trkpt>
<trkpt lat="46.3023" lon="7.01323"><ele></ele><time>2016-9-26T3:4:33Z</time></trkpt>
<trkpt lat="46.30225" lon="7.01318"><ele></ele><time>2016-9-26T3:4:36Z</time></trkpt>
<trkpt lat="46.30221" lon="7.01314"><ele></ele><time>2016-9-26T3:4:39Z</time></trkpt>
<trkpt lat="46.30216" lon="7.01309"><ele></ele><time>2016-9-26T3:4:42Z</time></trkpt>
<trkpt lat="46.30212" lon="7.01305"><ele></ele><time>2016-9-26T3:4:45Z</time></trkpt>
<trkpt lat="46.30207" lon="7.013"><ele></ele><time>2016-9-26T3:4:48Z</time></trkpt>
<trkpt lat="46.30202" lon="7.01295"><ele></ele><time>2016-9-26T3:4:51Z</time></trkpt>
<trkpt lat="46.302" lon="7.01293"><ele></ele><time>2016-9-26T3:4:54Z</time></trkpt>
<trkpt lat="46.30198" lon="7.01291"><ele></ele><time>2016-9-26T3:4:57Z</time></trkpt>
<trkpt lat="46.30194" lon="7.01287"><ele></ele><time>2016-9-26T3:5:0Z</time></trkpt>
<trkpt lat="46.30189" lon="7.01283"><ele></ele><time>2016-9-26T3:5:3Z</time></trkpt>
<trkpt lat="46.30187" lon="7.01281"><ele></ele><time>2016-9-26T3:5:6Z</time></trkpt>
<trkpt lat="46.30185" lon="7.01279"><ele></ele><time>2016-9-26T3:5:9Z</time></trkpt>
<trkpt lat="46.3018" lon="7.01275"><ele></ele><time>2016-9-26T3:5:12Z</time></trkpt>
<trkpt lat="46.30176" lon="7.01271"><ele></ele><time>2016-9-26T3:5:15Z</time></trkpt>
<trkpt lat="46.30172" lon="7.01267"><ele></ele><time>2016-9-26T3:5:18Z</time></trkpt>
<trkpt lat="46.30167" lon="7.01263"><ele></ele><time>2016-9-26T3:5:21Z</time></trkpt>
<trkpt lat="46.30163" lon="7.01259"><ele></ele><time>2016-9-26T3:5:24Z</time></trkpt>
<trkpt lat="46.3016" lon="7.01258"><ele></ele><time>2016-9-26T3:5:27Z</time></trkpt>
<trkpt lat="46.30157" lon="7.01259"><ele></ele><time>2016-9-26T3:5:30Z</time></trkpt>
<trkpt lat="46.30151" lon="7.0126"><ele></ele><time>2016-9-26T3:5:33Z</time></trkpt>
<trkpt lat="46.30144" lon="7.01262"><ele></ele><time>2016-9-26T3:5:36Z</time></trkpt>
<trkpt lat="46.30138" lon="7.01263"><ele></ele><time>2016-9-26T3:5:39Z</time></trkpt>
<trkpt lat="46.30132" lon="7.01264"><ele></ele><time>2016-9-26T3:5:42Z</time></trkpt>
<trkpt lat="46.30125" lon="7.01259"><ele></ele><time>2016-9-26T3:5:45Z</time></trkpt>
<trkpt lat="46.30118" lon="7.01253"><ele></ele><time>2016-9-26T3:5:48Z</time></trkpt>
<trkpt lat="46.30112" lon="7.01247"><ele></ele><time>2016-9-26T3:5:51Z</time></trkpt>
<trkpt lat="46.30106" lon="7.01241"><ele></ele><time>2016-9-26T3:5:54Z</time></trkpt>
<trkpt lat="46.30103" lon="7.0123"><ele></ele><time>2016-9-26T3:5:57Z</time></trkpt>
<trkpt lat="46.301" lon="7.01218"><ele></ele><time>2016-9-26T3:6:0Z</time></trkpt>
<trkpt lat="46.30098" lon="7.01207"><ele></ele><time>2016-9-26T3:6:3Z</time></trkpt>
<trkpt lat="46.30096" lon="7.01201"><ele></ele><time>2016-9-26T3:6:6Z</time></trkpt>
<trkpt lat="46.30092" lon="7.01198"><ele></ele><time>2016-9-26T3:6:9Z</time></trkpt>
<trkpt lat="46.30085" lon="7.01191"><ele></ele><time>2016-9-26T3:6:12Z</time></trkpt>
<trkpt lat="46.30079" lon="7.01183"><ele></ele><time>2016-9-26T3:6:15Z</time></trkpt>
<trkpt lat="46.30072" lon="7.01176"><ele></ele><time>2016-9-26T3:6:18Z</time></trkpt>
<trkpt lat="46.30068" lon="7.01172"><ele></ele><time>2016-9-26T3:6:21Z</time></trkpt>
<trkpt lat="46.30065" lon="7.01169"><ele></ele><time>2016-9-26T3:6:24Z</time></trkpt>
<trkpt lat="46.30057" lon="7.01162"><ele></ele><time>2016-9-26T3:6:27Z</time></trkpt>
<trkpt lat="46.30047" lon="7.0116"><ele></ele><time>2016-9-26T3:6:30Z</time></trkpt>
<trkpt lat="46.30037" lon="7.01158"><ele></ele><time>2016-9-26T3:6:33Z</time></trkpt>
<trkpt lat="46.30026" lon="7.01156"><ele></ele><time>2016-9-26T3:6:36Z</time></trkpt>
<trkpt lat="46.30016" lon="7.01154"><ele></ele><time>2016-9-26T3:6:39Z</time></trkpt>
<trkpt lat="46.3001" lon="7.01153"><ele></ele><time>2016-9-26T3:6:42Z</time></trkpt>
<trkpt lat="46.30003" lon="7.0115"><ele></ele><time>2016-9-26T3:6:45Z</time></trkpt>
<trkpt lat="46.2999" lon="7.01143"><ele></ele><time>2016-9-26T3:6:48Z</time></trkpt>
<trkpt lat="46.29976" lon="7.01137"><ele></ele><time>2016-9-26T3:6:51Z</time></trkpt>
<trkpt lat="46.29962" lon="7.0113"><ele></ele><time>2016-9-26T3:6:54Z</time></trkpt>
<trkpt lat="46.29949" lon="7.01124"><ele></ele><time>2016-9-26T3:6:57Z</time></trkpt>
<trkpt lat="46.29942" lon="7.01122"><ele></ele><time>2016-9-26T3:7:0Z</time></trkpt>
<trkpt lat="46.29935" lon="7.01118"><ele></ele><time>2016-9-26T3:7:3Z</time></trkpt>
<trkpt lat="46.2992" lon="7.01105"><ele></ele><time>2016-9-26T3:7:6Z</time></trkpt>
<trkpt lat="46.29905" lon="7.01092"><ele></ele><time>2016-9-26T3:7:9Z</time></trkpt>
<trkpt lat="46.29897" lon="7.01086"><ele></ele><time>2016-9-26T3:7:12Z</time></trkpt>
<trkpt lat="46.29889" lon="7.0108"><ele></ele><time>2016-9-26T3:7:15Z</time></trkpt>
<trkpt lat="46.29873" lon="7.01066"><ele></ele><time>2016-9-26T3:7:18Z</time></trkpt>
<trkpt lat="46.29857" lon="7.01052"><ele></ele><time>2016-9-26T3:7:21Z</time></trkpt>
<trkpt lat="46.29849" lon="7.01045"><ele></ele><time>2016-9-26T3:7:24Z</time></trkpt>
<trkpt lat="46.29842" lon="7.01038"><ele></ele><time>2016-9-26T3:7:27Z</time></trkpt>
<trkpt lat="46.29827" lon="7.01026"><ele></ele><time>2016-9-26T3:7:30Z</time></trkpt>
<trkpt lat="46.29809" lon="7.01021"><ele></ele><time>2016-9-26T3:7:33Z</time></trkpt>
<trkpt lat="46.29794" lon="7.01023"><ele></ele><time>2016-9-26T3:7:36Z</time></trkpt>
<trkpt lat="46.2978" lon="7.01026"><ele></ele><time>2016-9-26T3:7:39Z</time></trkpt>
<trkpt lat="46.29765" lon="7.01029"><ele></ele><time>2016-9-26T3:7:42Z</time></trkpt>
<trkpt lat="46.29752" lon="7.01036"><ele></ele><time>2016-9-26T3:7:45Z</time></trkpt>
<trkpt lat="46.29739" lon="7.01044"><ele></ele><time>2016-9-26T3:7:48Z</time></trkpt>
<trkpt lat="46.29728" lon="7.01056"><ele></ele><time>2016-9-26T3:7:51Z</time></trkpt>
<trkpt lat="46.29716" lon="7.01068"><ele></ele><time>2016-9-26T3:7:54Z</time></trkpt>
<trkpt lat="46.2971" lon="7.01074"><ele></ele><time>2016-9-26T3:7:57Z</time></trkpt>
<trkpt lat="46.29705" lon="7.01082"><ele></ele><time>2016-9-26T3:8:0Z</time></trkpt>
<trkpt lat="46.29694" lon="7.01098"><ele></ele><time>2016-9-26T3:8:3Z</time></trkpt>
<trkpt lat="46.29682" lon="7.01115"><ele></ele><time>2016-9-26T3:8:6Z</time></trkpt>
<trkpt lat="46.29677" lon="7.01122"><ele></ele><time>2016-9-26T3:8:9Z</time></trkpt>
<trkpt lat="46.29672" lon="7.0113"><ele></ele><time>2016-9-26T3:8:12Z</time></trkpt>
<trkpt lat="46.29662" lon="7.01145"><ele></ele><time>2016-9-26T3:8:15Z</time></trkpt>
<trkpt lat="46.29651" lon="7.01159"><ele></ele><time>2016-9-26T3:8:18Z</time></trkpt>
<trkpt lat="46.29642" lon="7.01173"><ele></ele><time>2016-9-26T3:8:21Z</time></trkpt>
<trkpt lat="46.29638" lon="7.01179"><ele></ele><time>2016-9-26T3:8:24Z</time></trkpt>
<trkpt lat="46.29634" lon="7.01185"><ele></ele><time>2016-9-26T3:8:27Z</time></trkpt>
<trkpt lat="46.29631" lon="7.0119"><ele></ele><time>2016-9-26T3:8:30Z</time></trkpt>
<trkpt lat="46.2963" lon="7.0119"><ele></ele><time>2016-9-26T3:8:33Z</time></trkpt>
<trkpt lat="46.2963" lon="7.0119"><ele></ele><time>2016-9-26T3:8:36Z</time></trkpt>
<trkpt lat="46.2963" lon="7.0119"><ele></ele><time>2016-9-26T3:8:39Z</time></trkpt>
<trkpt lat="46.29629" lon="7.01189"><ele></ele><time>2016-9-26T3:8:42Z</time></trkpt>
<trkpt lat="46.29629" lon="7.01189"><ele></ele><time>2016-9-26T3:8:45Z</time></trkpt>
<trkpt lat="46.29628" lon="7.01189"><ele></ele><time>2016-9-26T3:8:48Z</time></trkpt>
<trkpt lat="46.29628" lon="7.01189"><ele></ele><time>2016-9-26T3:8:51Z</time></trkpt>
<trkpt lat="46.29627" lon="7.01188"><ele></ele><time>2016-9-26T3:8:54Z</time></trkpt>
<trkpt lat="46.29627" lon="7.01188"><ele></ele><time>2016-9-26T3:8:57Z</time></trkpt>
<trkpt lat="46.29626" lon="7.01188"><ele></ele><time>2016-9-26T3:9:0Z</time></trkpt>
<trkpt lat="46.29626" lon="7.01188"><ele></ele><time>2016-9-26T3:9:3Z</time></trkpt>
<trkpt lat="46.29626" lon="7.01196"><ele></ele><time>2016-9-26T3:9:6Z</time></trkpt>
<trkpt lat="46.29626" lon="7.01203"><ele></ele><time>2016-9-26T3:9:9Z</time></trkpt>
<trkpt lat="46.29626" lon="7.01211"><ele></ele><time>2016-9-26T3:9:12Z</time></trkpt>
<trkpt lat="46.29626" lon="7.01218"><ele></ele><time>2016-9-26T3:9:15Z</time></trkpt>
<trkpt lat="46.29627" lon="7.01225"><ele></ele><time>2016-9-26T3:9:18Z</time></trkpt>
<trkpt lat="46.29627" lon="7.01233"><ele></ele><time>2016-9-26T3:9:21Z</time></trkpt>
<trkpt lat="46.29627" lon="7.0124"><ele></ele><time>2016-9-26T3:9:24Z</time></trkpt>
<trkpt lat="46.29627" lon="7.01248"><ele></ele><time>2016-9-26T3:9:27Z</time></trkpt>
<trkpt lat="46.29627" lon="7.01256"><ele></ele><time>2016-9-26T3:9:30Z</time></trkpt>
<trkpt lat="46.29626" lon="7.01269"><ele></ele><time>2016-9-26T3:9:33Z</time></trkpt>
<trkpt lat="46.29626" lon="7.01283"><ele></ele><time>2016-9-26T3:9:36Z</time></trkpt>
<trkpt lat="46.29626" lon="7.01296"><ele></ele><time>2016-9-26T3:9:39Z</time></trkpt>
<trkpt lat="46.29625" lon="7.01309"><ele></ele><time>2016-9-26T3:9:42Z</time></trkpt>
<trkpt lat="46.29624" lon="7.01316"><ele></ele><time>2016-9-26T3:9:45Z</time></trkpt>
<trkpt lat="46.29622" lon="7.01321"><ele></ele><time>2016-9-26T3:9:48Z</time></trkpt>
<trkpt lat="46.29616" lon="7.01331"><ele></ele><time>2016-9-26T3:9:51Z</time></trkpt>
<trkpt lat="46.2961" lon="7.0134"><ele></ele><time>2016-9-26T3:9:54Z</time></trkpt>
<trkpt lat="46.29608" lon="7.01346"><ele></ele><time>2016-9-26T3:9:57Z</time></trkpt>
<trkpt lat="46.29606" lon="7.01352"><ele></ele><time>2016-9-26T3:10:0Z</time></trkpt>
<trkpt lat="46.29603" lon="7.01364"><ele></ele><time>2016-9-26T3:10:3Z</time></trkpt>
<trkpt lat="46.29599" lon="7.01377"><ele></ele><time>2016-9-26T3:10:6Z</time></trkpt>
<trkpt lat="46.29596" lon="7.01389"><ele></ele><time>2016-9-26T3:10:9Z</time></trkpt>
<trkpt lat="46.29592" lon="7.01402"><ele></ele><time>2016-9-26T3:10:12Z</time></trkpt>
<trkpt lat="46.2959" lon="7.01408"><ele></ele><time>2016-9-26T3:10:15Z</time></trkpt>
<trkpt lat="46.29588" lon="7.01414"><ele></ele><time>2016-9-26T3:10:18Z</time></trkpt>
<trkpt lat="46.29585" lon="7.01426"><ele></ele><time>2016-9-26T3:10:21Z</time></trkpt>
<trkpt lat="46.29581" lon="7.01439"><ele></ele><time>2016-9-26T3:10:24Z</time></trkpt>
<trkpt lat="46.29577" lon="7.01451"><ele></ele><time>2016-9-26T3:10:27Z</time></trkpt>
<trkpt lat="46.29573" lon="7.01463"><ele></ele><time>2016-9-26T3:10:30Z</time></trkpt>
<trkpt lat="46.29572" lon="7.01469"><ele></ele><time>2016-9-26T3:10:33Z</time></trkpt>
<trkpt lat="46.2957" lon="7.01475"><ele></ele><time>2016-9-26T3:10:36Z</time></trkpt>
<trkpt lat="46.29567" lon="7.01487"><ele></ele><time>2016-9-26T3:10:39Z</time></trkpt>
<trkpt lat="46.29564" lon="7.015"><ele></ele><time>2016-9-26T3:10:42Z</time></trkpt>
<trkpt lat="46.29562" lon="7.01512"><ele></ele><time>2016-9-26T3:10:45Z</time></trkpt>
<trkpt lat="46.2956" lon="7.01518"><ele></ele><time>2016-9-26T3:10:48Z</time></trkpt>
<trkpt lat="46.29553" lon="7.01535"><ele></ele><time>2016-9-26T3:10:51Z</time></trkpt>
<trkpt lat="46.2955" lon="7.0154"><ele></ele><time>2016-9-26T3:10:54Z</time></trkpt>
<trkpt lat="46.29547" lon="7.01544"><ele></ele><time>2016-9-26T3:10:57Z</time></trkpt>
<trkpt lat="46.2954" lon="7.01552"><ele></ele><time>2016-9-26T3:11:0Z</time></trkpt>
<trkpt lat="46.29533" lon="7.0156"><ele></ele><time>2016-9-26T3:11:3Z</time></trkpt>
<trkpt lat="46.29526" lon="7.01568"><ele></ele><time>2016-9-26T3:11:6Z</time></trkpt>
<trkpt lat="46.29519" lon="7.01576"><ele></ele><time>2016-9-26T3:11:9Z</time></trkpt>
<trkpt lat="46.29514" lon="7.01587"><ele></ele><time>2016-9-26T3:11:12Z</time></trkpt>
<trkpt lat="46.29508" lon="7.01596"><ele></ele><time>2016-9-26T3:11:15Z</time></trkpt>
<trkpt lat="46.29503" lon="7.01605"><ele></ele><time>2016-9-26T3:11:18Z</time></trkpt>
<trkpt lat="46.29497" lon="7.01614"><ele></ele><time>2016-9-26T3:11:21Z</time></trkpt>
<trkpt lat="46.29491" lon="7.01622"><ele></ele><time>2016-9-26T3:11:24Z</time></trkpt>
<trkpt lat="46.29485" lon="7.01631"><ele></ele><time>2016-9-26T3:11:27Z</time></trkpt>
<trkpt lat="46.29482" lon="7.01636"><ele></ele><time>2016-9-26T3:11:30Z</time></trkpt>
<trkpt lat="46.2948" lon="7.01641"><ele></ele><time>2016-9-26T3:11:33Z</time></trkpt>
<trkpt lat="46.29475" lon="7.01651"><ele></ele><time>2016-9-26T3:11:36Z</time></trkpt>
<trkpt lat="46.29471" lon="7.0166"><ele></ele><time>2016-9-26T3:11:39Z</time></trkpt>
<trkpt lat="46.29466" lon="7.01663"><ele></ele><time>2016-9-26T3:11:42Z</time></trkpt>
<trkpt lat="46.29464" lon="7.01666"><ele></ele><time>2016-9-26T3:11:45Z</time></trkpt>
<trkpt lat="46.29463" lon="7.01669"><ele></ele><time>2016-9-26T3:11:48Z</time></trkpt>
<trkpt lat="46.29461" lon="7.01676"><ele></ele><time>2016-9-26T3:11:51Z</time></trkpt>
<trkpt lat="46.2946" lon="7.0168"><ele></ele><time>2016-9-26T3:11:54Z</time></trkpt>
<trkpt lat="46.29462" lon="7.01685"><ele></ele><time>2016-9-26T3:11:57Z</time></trkpt>
<trkpt lat="46.2946" lon="7.01696"><ele></ele><time>2016-9-26T3:12:0Z</time></trkpt>
<trkpt lat="46.29458" lon="7.01707"><ele></ele><time>2016-9-26T3:12:3Z</time></trkpt>
<trkpt lat="46.29457" lon="7.01717"><ele></ele><time>2016-9-26T3:12:6Z</time></trkpt>
<trkpt lat="46.29455" lon="7.01728"><ele></ele><time>2016-9-26T3:12:9Z</time></trkpt>
<trkpt lat="46.29454" lon="7.01734"><ele></ele><time>2016-9-26T3:12:12Z</time></trkpt>
<trkpt lat="46.29453" lon="7.01739"><ele></ele><time>2016-9-26T3:12:15Z</time></trkpt>
<trkpt lat="46.29452" lon="7.0175"><ele></ele><time>2016-9-26T3:12:18Z</time></trkpt>
<trkpt lat="46.29453" lon="7.01758"><ele></ele><time>2016-9-26T3:12:21Z</time></trkpt>
<trkpt lat="46.29455" lon="7.01767"><ele></ele><time>2016-9-26T3:12:24Z</time></trkpt>
<trkpt lat="46.29456" lon="7.01775"><ele></ele><time>2016-9-26T3:12:27Z</time></trkpt>
<trkpt lat="46.29458" lon="7.01784"><ele></ele><time>2016-9-26T3:12:30Z</time></trkpt>
<trkpt lat="46.29459" lon="7.01792"><ele></ele><time>2016-9-26T3:12:33Z</time></trkpt>
<trkpt lat="46.2946" lon="7.01797"><ele></ele><time>2016-9-26T3:12:36Z</time></trkpt>
<trkpt lat="46.29461" lon="7.01805"><ele></ele><time>2016-9-26T3:12:39Z</time></trkpt>
<trkpt lat="46.29463" lon="7.01814"><ele></ele><time>2016-9-26T3:12:42Z</time></trkpt>
<trkpt lat="46.29463" lon="7.01819"><ele></ele><time>2016-9-26T3:12:45Z</time></trkpt>
<trkpt lat="46.29464" lon="7.01826"><ele></ele><time>2016-9-26T3:12:48Z</time></trkpt>
<trkpt lat="46.29465" lon="7.01839"><ele></ele><time>2016-9-26T3:12:51Z</time></trkpt>
<trkpt lat="46.29466" lon="7.01852"><ele></ele><time>2016-9-26T3:12:54Z</time></trkpt>
<trkpt lat="46.29468" lon="7.01866"><ele></ele><time>2016-9-26T3:12:57Z</time></trkpt>
<trkpt lat="46.29469" lon="7.01879"><ele></ele><time>2016-9-26T3:13:0Z</time></trkpt>
<trkpt lat="46.29469" lon="7.01886"><ele></ele><time>2016-9-26T3:13:3Z</time></trkpt>
<trkpt lat="46.29469" lon="7.01892"><ele></ele><time>2016-9-26T3:13:6Z</time></trkpt>
<trkpt lat="46.29467" lon="7.01905"><ele></ele><time>2016-9-26T3:13:9Z</time></trkpt>
<trkpt lat="46.29465" lon="7.01918"><ele></ele><time>2016-9-26T3:13:12Z</time></trkpt>
<trkpt lat="46.29457" lon="7.01926"><ele></ele><time>2016-9-26T3:13:15Z</time></trkpt>
<trkpt lat="46.2945" lon="7.01934"><ele></ele><time>2016-9-26T3:13:18Z</time></trkpt>
<trkpt lat="46.29442" lon="7.01941"><ele></ele><time>2016-9-26T3:13:21Z</time></trkpt>
<trkpt lat="46.29433" lon="7.01945"><ele></ele><time>2016-9-26T3:13:24Z</time></trkpt>
<trkpt lat="46.29424" lon="7.01948"><ele></ele><time>2016-9-26T3:13:27Z</time></trkpt>
<trkpt lat="46.29415" lon="7.01951"><ele></ele><time>2016-9-26T3:13:30Z</time></trkpt>
<trkpt lat="46.29407" lon="7.01954"><ele></ele><time>2016-9-26T3:13:33Z</time></trkpt>
<trkpt lat="46.29398" lon="7.01957"><ele></ele><time>2016-9-26T3:13:36Z</time></trkpt>
<trkpt lat="46.2939" lon="7.01961"><ele></ele><time>2016-9-26T3:13:39Z</time></trkpt>
<trkpt lat="46.29382" lon="7.01965"><ele></ele><time>2016-9-26T3:13:42Z</time></trkpt>
<trkpt lat="46.29374" lon="7.01969"><ele></ele><time>2016-9-26T3:13:45Z</time></trkpt>
<trkpt lat="46.29366" lon="7.01972"><ele></ele><time>2016-9-26T3:13:48Z</time></trkpt>
<trkpt lat="46.29356" lon="7.01972"><ele></ele><time>2016-9-26T3:13:51Z</time></trkpt>
<trkpt lat="46.29346" lon="7.01972"><ele></ele><time>2016-9-26T3:13:54Z</time></trkpt>
<trkpt lat="46.29336" lon="7.01972"><ele></ele><time>2016-9-26T3:13:57Z</time></trkpt>
<trkpt lat="46.29326" lon="7.01972"><ele></ele><time>2016-9-26T3:14:0Z</time></trkpt>
<trkpt lat="46.29316" lon="7.01972"><ele></ele><time>2016-9-26T3:14:3Z</time></trkpt>
<trkpt lat="46.29306" lon="7.0197"><ele></ele><time>2016-9-26T3:14:6Z</time></trkpt>
<trkpt lat="46.29292" lon="7.01967"><ele></ele><time>2016-9-26T3:14:9Z</time></trkpt>
<trkpt lat="46.29287" lon="7.01966"><ele></ele><time>2016-9-26T3:14:12Z</time></trkpt>
<trkpt lat="46.29277" lon="7.01964"><ele></ele><time>2016-9-26T3:14:15Z</time></trkpt>
<trkpt lat="46.29268" lon="7.01962"><ele></ele><time>2016-9-26T3:14:18Z</time></trkpt>
<trkpt lat="46.2926" lon="7.0196"><ele></ele><time>2016-9-26T3:14:21Z</time></trkpt>
<trkpt lat="46.29249" lon="7.01957"><ele></ele><time>2016-9-26T3:14:24Z</time></trkpt>
<trkpt lat="46.29241" lon="7.01955"><ele></ele><time>2016-9-26T3:14:27Z</time></trkpt>
<trkpt lat="46.29233" lon="7.01953"><ele></ele><time>2016-9-26T3:14:30Z</time></trkpt>
<trkpt lat="46.29226" lon="7.01951"><ele></ele><time>2016-9-26T3:14:33Z</time></trkpt>
<trkpt lat="46.29222" lon="7.01951"><ele></ele><time>2016-9-26T3:14:36Z</time></trkpt>
<trkpt lat="46.29217" lon="7.01952"><ele></ele><time>2016-9-26T3:14:39Z</time></trkpt>
<trkpt lat="46.29209" lon="7.01954"><ele></ele><time>2016-9-26T3:14:42Z</time></trkpt>
<trkpt lat="46.292" lon="7.01957"><ele></ele><time>2016-9-26T3:14:45Z</time></trkpt>
<trkpt lat="46.29191" lon="7.01959"><ele></ele><time>2016-9-26T3:14:48Z</time></trkpt>
<trkpt lat="46.29182" lon="7.01962"><ele></ele><time>2016-9-26T3:14:51Z</time></trkpt>
<trkpt lat="46.29178" lon="7.01963"><ele></ele><time>2016-9-26T3:14:54Z</time></trkpt>
<trkpt lat="46.29173" lon="7.01964"><ele></ele><time>2016-9-26T3:14:57Z</time></trkpt>
<trkpt lat="46.29164" lon="7.01966"><ele></ele><time>2016-9-26T3:15:0Z</time></trkpt>
<trkpt lat="46.29156" lon="7.01967"><ele></ele><time>2016-9-26T3:15:3Z</time></trkpt>
<trkpt lat="46.29147" lon="7.01969"><ele></ele><time>2016-9-26T3:15:6Z</time></trkpt>
<trkpt lat="46.29138" lon="7.01971"><ele></ele><time>2016-9-26T3:15:9Z</time></trkpt>
<trkpt lat="46.29129" lon="7.01972"><ele></ele><time>2016-9-26T3:15:12Z</time></trkpt>
<trkpt lat="46.29121" lon="7.01976"><ele></ele><time>2016-9-26T3:15:15Z</time></trkpt>
<trkpt lat="46.29116" lon="7.01984"><ele></ele><time>2016-9-26T3:15:18Z</time></trkpt>
<trkpt lat="46.29111" lon="7.01992"><ele></ele><time>2016-9-26T3:15:21Z</time></trkpt>
<trkpt lat="46.29106" lon="7.02"><ele></ele><time>2016-9-26T3:15:24Z</time></trkpt>
<trkpt lat="46.291" lon="7.02008"><ele></ele><time>2016-9-26T3:15:27Z</time></trkpt>
<trkpt lat="46.29095" lon="7.02016"><ele></ele><time>2016-9-26T3:15:30Z</time></trkpt>
<trkpt lat="46.2909" lon="7.02024"><ele></ele><time>2016-9-26T3:15:33Z</time></trkpt>
<trkpt lat="46.29085" lon="7.02032"><ele></ele><time>2016-9-26T3:15:36Z</time></trkpt>
<trkpt lat="46.29081" lon="7.02041"><ele></ele><time>2016-9-26T3:15:39Z</time></trkpt>
<trkpt lat="46.29076" lon="7.02049"><ele></ele><time>2016-9-26T3:15:42Z</time></trkpt>
<trkpt lat="46.29072" lon="7.02058"><ele></ele><time>2016-9-26T3:15:45Z</time></trkpt>
<trkpt lat="46.29067" lon="7.02067"><ele></ele><time>2016-9-26T3:15:48Z</time></trkpt>
<trkpt lat="46.29063" lon="7.02075"><ele></ele><time>2016-9-26T3:15:51Z</time></trkpt>
<trkpt lat="46.29059" lon="7.02083"><ele></ele><time>2016-9-26T3:15:54Z</time></trkpt>
<trkpt lat="46.29057" lon="7.02086"><ele></ele><time>2016-9-26T3:15:57Z</time></trkpt>
<trkpt lat="46.29055" lon="7.0209"><ele></ele><time>2016-9-26T3:16:0Z</time></trkpt>
<trkpt lat="46.29051" lon="7.02097"><ele></ele><time>2016-9-26T3:16:3Z</time></trkpt>
<trkpt lat="46.29047" lon="7.02105"><ele></ele><time>2016-9-26T3:16:6Z</time></trkpt>
<trkpt lat="46.29043" lon="7.02112"><ele></ele><time>2016-9-26T3:16:9Z</time></trkpt>
<trkpt lat="46.29039" lon="7.0212"><ele></ele><time>2016-9-26T3:16:12Z</time></trkpt>
<trkpt lat="46.29036" lon="7.02127"><ele></ele><time>2016-9-26T3:16:15Z</time></trkpt>
<trkpt lat="46.29034" lon="7.02137"><ele></ele><time>2016-9-26T3:16:18Z</time></trkpt>
<trkpt lat="46.29033" lon="7.02147"><ele></ele><time>2016-9-26T3:16:21Z</time></trkpt>
<trkpt lat="46.29032" lon="7.02157"><ele></ele><time>2016-9-26T3:16:24Z</time></trkpt>
<trkpt lat="46.29031" lon="7.02167"><ele></ele><time>2016-9-26T3:16:27Z</time></trkpt>
<trkpt lat="46.2903" lon="7.02178"><ele></ele><time>2016-9-26T3:16:30Z</time></trkpt>
<trkpt lat="46.29029" lon="7.02188"><ele></ele><time>2016-9-26T3:16:33Z</time></trkpt>
<trkpt lat="46.29029" lon="7.02193"><ele></ele><time>2016-9-26T3:16:36Z</time></trkpt>
<trkpt lat="46.29028" lon="7.02197"><ele></ele><time>2016-9-26T3:16:39Z</time></trkpt>
<trkpt lat="46.29028" lon="7.02207"><ele></ele><time>2016-9-26T3:16:42Z</time></trkpt>
<trkpt lat="46.29027" lon="7.02217"><ele></ele><time>2016-9-26T3:16:45Z</time></trkpt>
<trkpt lat="46.29027" lon="7.02226"><ele></ele><time>2016-9-26T3:16:48Z</time></trkpt>
<trkpt lat="46.29027" lon="7.02236"><ele></ele><time>2016-9-26T3:16:51Z</time></trkpt>
<trkpt lat="46.29026" lon="7.02245"><ele></ele><time>2016-9-26T3:16:54Z</time></trkpt>
<trkpt lat="46.29026" lon="7.02255"><ele></ele><time>2016-9-26T3:16:57Z</time></trkpt>
<trkpt lat="46.29026" lon="7.0226"><ele></ele><time>2016-9-26T3:17:0Z</time></trkpt>
<trkpt lat="46.29026" lon="7.02265"><ele></ele><time>2016-9-26T3:17:3Z</time></trkpt>
<trkpt lat="46.29027" lon="7.02276"><ele></ele><time>2016-9-26T3:17:6Z</time></trkpt>
<trkpt lat="46.29028" lon="7.02287"><ele></ele><time>2016-9-26T3:17:9Z</time></trkpt>
<trkpt lat="46.29029" lon="7.02298"><ele></ele><time>2016-9-26T3:17:12Z</time></trkpt>
<trkpt lat="46.29029" lon="7.02309"><ele></ele><time>2016-9-26T3:17:15Z</time></trkpt>
<trkpt lat="46.2903" lon="7.0232"><ele></ele><time>2016-9-26T3:17:18Z</time></trkpt>
<trkpt lat="46.29031" lon="7.0233"><ele></ele><time>2016-9-26T3:17:21Z</time></trkpt>
<trkpt lat="46.29035" lon="7.0234"><ele></ele><time>2016-9-26T3:17:24Z</time></trkpt>
<trkpt lat="46.29039" lon="7.0235"><ele></ele><time>2016-9-26T3:17:27Z</time></trkpt>
<trkpt lat="46.29043" lon="7.0236"><ele></ele><time>2016-9-26T3:17:30Z</time></trkpt>
<trkpt lat="46.29047" lon="7.0237"><ele></ele><time>2016-9-26T3:17:33Z</time></trkpt>
<trkpt lat="46.29049" lon="7.02375"><ele></ele><time>2016-9-26T3:17:36Z</time></trkpt>
<trkpt lat="46.29051" lon="7.0238"><ele></ele><time>2016-9-26T3:17:39Z</time></trkpt>
<trkpt lat="46.29055" lon="7.02389"><ele></ele><time>2016-9-26T3:17:42Z</time></trkpt>
<trkpt lat="46.29059" lon="7.02396"><ele></ele><time>2016-9-26T3:17:45Z</time></trkpt>
<trkpt lat="46.29062" lon="7.02403"><ele></ele><time>2016-9-26T3:17:48Z</time></trkpt>
<trkpt lat="46.29065" lon="7.0241"><ele></ele><time>2016-9-26T3:17:51Z</time></trkpt>
<trkpt lat="46.29069" lon="7.02416"><ele></ele><time>2016-9-26T3:17:54Z</time></trkpt>
<trkpt lat="46.29072" lon="7.02423"><ele></ele><time>2016-9-26T3:17:57Z</time></trkpt>
<trkpt lat="46.29076" lon="7.0243"><ele></ele><time>2016-9-26T3:18:0Z</time></trkpt>
<trkpt lat="46.29079" lon="7.02437"><ele></ele><time>2016-9-26T3:18:3Z</time></trkpt>
<trkpt lat="46.29082" lon="7.02443"><ele></ele><time>2016-9-26T3:18:6Z</time></trkpt>
<trkpt lat="46.29085" lon="7.02449"><ele></ele><time>2016-9-26T3:18:9Z</time></trkpt>
<trkpt lat="46.29088" lon="7.02455"><ele></ele><time>2016-9-26T3:18:12Z</time></trkpt>
<trkpt lat="46.2909" lon="7.0246"><ele></ele><time>2016-9-26T3:18:15Z</time></trkpt>
<trkpt lat="46.29093" lon="7.02466"><ele></ele><time>2016-9-26T3:18:18Z</time></trkpt>
<trkpt lat="46.29096" lon="7.02472"><ele></ele><time>2016-9-26T3:18:21Z</time></trkpt>
<trkpt lat="46.29099" lon="7.02478"><ele></ele><time>2016-9-26T3:18:24Z</time></trkpt>
<trkpt lat="46.29101" lon="7.02483"><ele></ele><time>2016-9-26T3:18:27Z</time></trkpt>
<trkpt lat="46.29103" lon="7.02486"><ele></ele><time>2016-9-26T3:18:30Z</time></trkpt>
<trkpt lat="46.29104" lon="7.02489"><ele></ele><time>2016-9-26T3:18:33Z</time></trkpt>
<trkpt lat="46.29107" lon="7.02495"><ele></ele><time>2016-9-26T3:18:36Z</time></trkpt>
<trkpt lat="46.29108" lon="7.02497"><ele></ele><time>2016-9-26T3:18:39Z</time></trkpt>
<trkpt lat="46.2911" lon="7.02499"><ele></ele><time>2016-9-26T3:18:42Z</time></trkpt>
<trkpt lat="46.29113" lon="7.02504"><ele></ele><time>2016-9-26T3:18:45Z</time></trkpt>
<trkpt lat="46.29116" lon="7.02508"><ele></ele><time>2016-9-26T3:18:48Z</time></trkpt>
<trkpt lat="46.29119" lon="7.02512"><ele></ele><time>2016-9-26T3:18:51Z</time></trkpt>
<trkpt lat="46.29122" lon="7.02517"><ele></ele><time>2016-9-26T3:18:54Z</time></trkpt>
<trkpt lat="46.29125" lon="7.02521"><ele></ele><time>2016-9-26T3:18:57Z</time></trkpt>
<trkpt lat="46.29128" lon="7.02525"><ele></ele><time>2016-9-26T3:19:0Z</time></trkpt>
<trkpt lat="46.29131" lon="7.02529"><ele></ele><time>2016-9-26T3:19:3Z</time></trkpt>
<trkpt lat="46.29135" lon="7.02534"><ele></ele><time>2016-9-26T3:19:6Z</time></trkpt>
<trkpt lat="46.29138" lon="7.02538"><ele></ele><time>2016-9-26T3:19:9Z</time></trkpt>
<trkpt lat="46.29141" lon="7.02542"><ele></ele><time>2016-9-26T3:19:12Z</time></trkpt>
<trkpt lat="46.29142" lon="7.02546"><ele></ele><time>2016-9-26T3:19:15Z</time></trkpt>
<trkpt lat="46.29144" lon="7.0255"><ele></ele><time>2016-9-26T3:19:18Z</time></trkpt>
<trkpt lat="46.29145" lon="7.02553"><ele></ele><time>2016-9-26T3:19:21Z</time></trkpt>
<trkpt lat="46.29147" lon="7.02557"><ele></ele><time>2016-9-26T3:19:24Z</time></trkpt>
<trkpt lat="46.29148" lon="7.02561"><ele></ele><time>2016-9-26T3:19:27Z</time></trkpt>
<trkpt lat="46.2915" lon="7.02565"><ele></ele><time>2016-9-26T3:19:30Z</time></trkpt>
<trkpt lat="46.29152" lon="7.02568"><ele></ele><time>2016-9-26T3:19:33Z</time></trkpt>
<trkpt lat="46.29152" lon="7.0257"><ele></ele><time>2016-9-26T3:19:36Z</time></trkpt>
<trkpt lat="46.29153" lon="7.02572"><ele></ele><time>2016-9-26T3:19:39Z</time></trkpt>
<trkpt lat="46.29155" lon="7.02576"><ele></ele><time>2016-9-26T3:19:42Z</time></trkpt>
<trkpt lat="46.29156" lon="7.02579"><ele></ele><time>2016-9-26T3:19:45Z</time></trkpt>
<trkpt lat="46.29158" lon="7.02583"><ele></ele><time>2016-9-26T3:19:48Z</time></trkpt>
<trkpt lat="46.29159" lon="7.02587"><ele></ele><time>2016-9-26T3:19:51Z</time></trkpt>
<trkpt lat="46.29161" lon="7.02591"><ele></ele><time>2016-9-26T3:19:54Z</time></trkpt>
<trkpt lat="46.29163" lon="7.02594"><ele></ele><time>2016-9-26T3:19:57Z</time></trkpt>
<trkpt lat="46.29164" lon="7.02598"><ele></ele><time>2016-9-26T3:20:0Z</time></trkpt>
<trkpt lat="46.29164" lon="7.02601"><ele></ele><time>2016-9-26T3:20:3Z</time></trkpt>
<trkpt lat="46.29164" lon="7.02603"><ele></ele><time>2016-9-26T3:20:6Z</time></trkpt>
<trkpt lat="46.29165" lon="7.02608"><ele></ele><time>2016-9-26T3:20:9Z</time></trkpt>
<trkpt lat="46.29165" lon="7.02613"><ele></ele><time>2016-9-26T3:20:12Z</time></trkpt>
<trkpt lat="46.29166" lon="7.02618"><ele></ele><time>2016-9-26T3:20:15Z</time></trkpt>
<trkpt lat="46.29166" lon="7.02623"><ele></ele><time>2016-9-26T3:20:18Z</time></trkpt>
<trkpt lat="46.29167" lon="7.02628"><ele></ele><time>2016-9-26T3:20:21Z</time></trkpt>
<trkpt lat="46.29167" lon="7.02633"><ele></ele><time>2016-9-26T3:20:24Z</time></trkpt>
<trkpt lat="46.29168" lon="7.02638"><ele></ele><time>2016-9-26T3:20:27Z</time></trkpt>
<trkpt lat="46.29168" lon="7.02642"><ele></ele><time>2016-9-26T3:20:30Z</time></trkpt>
<trkpt lat="46.29169" lon="7.02647"><ele></ele><time>2016-9-26T3:20:33Z</time></trkpt>
<trkpt lat="46.29169" lon="7.02652"><ele></ele><time>2016-9-26T3:20:36Z</time></trkpt>
<trkpt lat="46.2917" lon="7.02657"><ele></ele><time>2016-9-26T3:20:39Z</time></trkpt>
<trkpt lat="46.2917" lon="7.02662"><ele></ele><time>2016-9-26T3:20:42Z</time></trkpt>
<trkpt lat="46.2917" lon="7.02665"><ele></ele><time>2016-9-26T3:20:45Z</time></trkpt>
<trkpt lat="46.2917" lon="7.02667"><ele></ele><time>2016-9-26T3:20:48Z</time></trkpt>
<trkpt lat="46.29171" lon="7.02673"><ele></ele><time>2016-9-26T3:20:51Z</time></trkpt>
<trkpt lat="46.29171" lon="7.02678"><ele></ele><time>2016-9-26T3:20:54Z</time></trkpt>
<trkpt lat="46.29171" lon="7.02684"><ele></ele><time>2016-9-26T3:20:57Z</time></trkpt>
<trkpt lat="46.29171" lon="7.02689"><ele></ele><time>2016-9-26T3:21:0Z</time></trkpt>
<trkpt lat="46.29171" lon="7.02694"><ele></ele><time>2016-9-26T3:21:3Z</time></trkpt>
<trkpt lat="46.29171" lon="7.027"><ele></ele><time>2016-9-26T3:21:6Z</time></trkpt>
<trkpt lat="46.29172" lon="7.02705"><ele></ele><time>2016-9-26T3:21:9Z</time></trkpt>
<trkpt lat="46.29172" lon="7.02711"><ele></ele><time>2016-9-26T3:21:12Z</time></trkpt>
<trkpt lat="46.29172" lon="7.02716"><ele></ele><time>2016-9-26T3:21:15Z</time></trkpt>
<trkpt lat="46.29172" lon="7.02721"><ele></ele><time>2016-9-26T3:21:18Z</time></trkpt>
<trkpt lat="46.29172" lon="7.02727"><ele></ele><time>2016-9-26T3:21:21Z</time></trkpt>
<trkpt lat="46.29172" lon="7.02729"><ele></ele><time>2016-9-26T3:21:24Z</time></trkpt>
<trkpt lat="46.29173" lon="7.02732"><ele></ele><time>2016-9-26T3:21:27Z</time></trkpt>
<trkpt lat="46.29175" lon="7.02736"><ele></ele><time>2016-9-26T3:21:30Z</time></trkpt>
<trkpt lat="46.29177" lon="7.02741"><ele></ele><time>2016-9-26T3:21:33Z</time></trkpt>
<trkpt lat="46.29178" lon="7.02746"><ele></ele><time>2016-9-26T3:21:36Z</time></trkpt>
<trkpt lat="46.2918" lon="7.0275"><ele></ele><time>2016-9-26T3:21:39Z</time></trkpt>
<trkpt lat="46.29181" lon="7.02753"><ele></ele><time>2016-9-26T3:21:42Z</time></trkpt>
<trkpt lat="46.29182" lon="7.02755"><ele></ele><time>2016-9-26T3:21:45Z</time></trkpt>
<trkpt lat="46.29183" lon="7.0276"><ele></ele><time>2016-9-26T3:21:48Z</time></trkpt>
<trkpt lat="46.29185" lon="7.02764"><ele></ele><time>2016-9-26T3:21:51Z</time></trkpt>
<trkpt lat="46.29187" lon="7.02769"><ele></ele><time>2016-9-26T3:21:54Z</time></trkpt>
<trkpt lat="46.29188" lon="7.02774"><ele></ele><time>2016-9-26T3:21:57Z</time></trkpt>
<trkpt lat="46.2919" lon="7.02778"><ele></ele><time>2016-9-26T3:22:0Z</time></trkpt>
<trkpt lat="46.29192" lon="7.02783"><ele></ele><time>2016-9-26T3:22:3Z</time></trkpt>
<trkpt lat="46.29193" lon="7.02787"><ele></ele><time>2016-9-26T3:22:6Z</time></trkpt>
<trkpt lat="46.29195" lon="7.02791"><ele></ele><time>2016-9-26T3:22:9Z</time></trkpt>
<trkpt lat="46.29197" lon="7.02795"><ele></ele><time>2016-9-26T3:22:12Z</time></trkpt>
<trkpt lat="46.29199" lon="7.028"><ele></ele><time>2016-9-26T3:22:15Z</time></trkpt>
<trkpt lat="46.292" lon="7.02802"><ele></ele><time>2016-9-26T3:22:18Z</time></trkpt>
<trkpt lat="46.29201" lon="7.02804"><ele></ele><time>2016-9-26T3:22:21Z</time></trkpt>
<trkpt lat="46.29203" lon="7.02808"><ele></ele><time>2016-9-26T3:22:24Z</time></trkpt>
<trkpt lat="46.29205" lon="7.02812"><ele></ele><time>2016-9-26T3:22:27Z</time></trkpt>
<trkpt lat="46.29207" lon="7.02816"><ele></ele><time>2016-9-26T3:22:30Z</time></trkpt>
<trkpt lat="46.29209" lon="7.0282"><ele></ele><time>2016-9-26T3:22:33Z</time></trkpt>
<trkpt lat="46.29211" lon="7.02824"><ele></ele><time>2016-9-26T3:22:36Z</time></trkpt>
<trkpt lat="46.29213" lon="7.02828"><ele></ele><time>2016-9-26T3:22:39Z</time></trkpt>
<trkpt lat="46.29215" lon="7.02832"><ele></ele><time>2016-9-26T3:22:42Z</time></trkpt>
<trkpt lat="46.29217" lon="7.02836"><ele></ele><time>2016-9-26T3:22:45Z</time></trkpt>
<trkpt lat="46.29219" lon="7.0284"><ele></ele><time>2016-9-26T3:22:48Z</time></trkpt>
<trkpt lat="46.29221" lon="7.02842"><ele></ele><time>2016-9-26T3:22:51Z</time></trkpt>
<trkpt lat="46.29222" lon="7.02844"><ele></ele><time>2016-9-26T3:22:54Z</time></trkpt>
<trkpt lat="46.29224" lon="7.02848"><ele></ele><time>2016-9-26T3:22:57Z</time></trkpt>
<trkpt lat="46.29226" lon="7.02852"><ele></ele><time>2016-9-26T3:23:0Z</time></trkpt>
<trkpt lat="46.29228" lon="7.02856"><ele></ele><time>2016-9-26T3:23:3Z</time></trkpt>
<trkpt lat="46.2923" lon="7.0286"><ele></ele><time>2016-9-26T3:23:6Z</time></trkpt>
<trkpt lat="46.29233" lon="7.02864"><ele></ele><time>2016-9-26T3:23:9Z</time></trkpt>
<trkpt lat="46.29235" lon="7.02868"><ele></ele><time>2016-9-26T3:23:12Z</time></trkpt>
<trkpt lat="46.29237" lon="7.02871"><ele></ele><time>2016-9-26T3:23:15Z</time></trkpt>
<trkpt lat="46.29239" lon="7.02875"><ele></ele><time>2016-9-26T3:23:18Z</time></trkpt>
<trkpt lat="46.29242" lon="7.02879"><ele></ele><time>2016-9-26T3:23:21Z</time></trkpt>
<trkpt lat="46.29244" lon="7.02883"><ele></ele><time>2016-9-26T3:23:24Z</time></trkpt>
<trkpt lat="46.29246" lon="7.02887"><ele></ele><time>2016-9-26T3:23:27Z</time></trkpt>
<trkpt lat="46.29247" lon="7.02889"><ele></ele><time>2016-9-26T3:23:30Z</time></trkpt>
<trkpt lat="46.29248" lon="7.02891"><ele></ele><time>2016-9-26T3:23:33Z</time></trkpt>
<trkpt lat="46.29249" lon="7.02893"><ele></ele><time>2016-9-26T3:23:36Z</time></trkpt>
<trkpt lat="46.2925" lon="7.02895"><ele></ele><time>2016-9-26T3:23:39Z</time></trkpt>
<trkpt lat="46.29252" lon="7.02899"><ele></ele><time>2016-9-26T3:23:42Z</time></trkpt>
<trkpt lat="46.29254" lon="7.02902"><ele></ele><time>2016-9-26T3:23:45Z</time></trkpt>
<trkpt lat="46.29256" lon="7.02906"><ele></ele><time>2016-9-26T3:23:48Z</time></trkpt>
<trkpt lat="46.29257" lon="7.0291"><ele></ele><time>2016-9-26T3:23:51Z</time></trkpt>
<trkpt lat="46.29259" lon="7.02914"><ele></ele><time>2016-9-26T3:23:54Z</time></trkpt>
<trkpt lat="46.29261" lon="7.02918"><ele></ele><time>2016-9-26T3:23:57Z</time></trkpt>
<trkpt lat="46.29263" lon="7.02922"><ele></ele><time>2016-9-26T3:24:0Z</time></trkpt>
<trkpt lat="46.29265" lon="7.02925"><ele></ele><time>2016-9-26T3:24:3Z</time></trkpt>
<trkpt lat="46.29267" lon="7.02929"><ele></ele><time>2016-9-26T3:24:6Z</time></trkpt>
<trkpt lat="46.29268" lon="7.02933"><ele></ele><time>2016-9-26T3:24:9Z</time></trkpt>
<trkpt lat="46.2927" lon="7.02937"><ele></ele><time>2016-9-26T3:24:12Z</time></trkpt>
<trkpt lat="46.29272" lon="7.02941"><ele></ele><time>2016-9-26T3:24:15Z</time></trkpt>
<trkpt lat="46.29274" lon="7.02945"><ele></ele><time>2016-9-26T3:24:18Z</time></trkpt>
<trkpt lat="46.29275" lon="7.02946"><ele></ele><time>2016-9-26T3:24:21Z</time></trkpt>
<trkpt lat="46.29276" lon="7.02948"><ele></ele><time>2016-9-26T3:24:24Z</time></trkpt>
<trkpt lat="46.29277" lon="7.02952"><ele></ele><time>2016-9-26T3:24:27Z</time></trkpt>
<trkpt lat="46.29278" lon="7.02955"><ele></ele><time>2016-9-26T3:24:30Z</time></trkpt>
<trkpt lat="46.2928" lon="7.02958"><ele></ele><time>2016-9-26T3:24:33Z</time></trkpt>
<trkpt lat="46.29281" lon="7.02962"><ele></ele><time>2016-9-26T3:24:36Z</time></trkpt>
<trkpt lat="46.29283" lon="7.02965"><ele></ele><time>2016-9-26T3:24:39Z</time></trkpt>
<trkpt lat="46.29284" lon="7.02969"><ele></ele><time>2016-9-26T3:24:42Z</time></trkpt>
<trkpt lat="46.29285" lon="7.0297"><ele></ele><time>2016-9-26T3:24:45Z</time></trkpt>
<trkpt lat="46.29286" lon="7.02972"><ele></ele><time>2016-9-26T3:24:48Z</time></trkpt>
<trkpt lat="46.29287" lon="7.02975"><ele></ele><time>2016-9-26T3:24:51Z</time></trkpt>
<trkpt lat="46.29289" lon="7.02979"><ele></ele><time>2016-9-26T3:24:54Z</time></trkpt>
<trkpt lat="46.2929" lon="7.02982"><ele></ele><time>2016-9-26T3:24:57Z</time></trkpt>
<trkpt lat="46.29292" lon="7.02986"><ele></ele><time>2016-9-26T3:25:0Z</time></trkpt>
<trkpt lat="46.29293" lon="7.02989"><ele></ele><time>2016-9-26T3:25:3Z</time></trkpt>
<trkpt lat="46.29294" lon="7.02992"><ele></ele><time>2016-9-26T3:25:6Z</time></trkpt>
<trkpt lat="46.29296" lon="7.02996"><ele></ele><time>2016-9-26T3:25:9Z</time></trkpt>
<trkpt lat="46.29297" lon="7.02999"><ele></ele><time>2016-9-26T3:25:12Z</time></trkpt>
<trkpt lat="46.29299" lon="7.03003"><ele></ele><time>2016-9-26T3:25:15Z</time></trkpt>
<trkpt lat="46.293" lon="7.03006"><ele></ele><time>2016-9-26T3:25:18Z</time></trkpt>
<trkpt lat="46.29301" lon="7.03009"><ele></ele><time>2016-9-26T3:25:21Z</time></trkpt>
<trkpt lat="46.29302" lon="7.03012"><ele></ele><time>2016-9-26T3:25:24Z</time></trkpt>
<trkpt lat="46.29304" lon="7.03015"><ele></ele><time>2016-9-26T3:25:27Z</time></trkpt>
<trkpt lat="46.29305" lon="7.03018"><ele></ele><time>2016-9-26T3:25:30Z</time></trkpt>
<trkpt lat="46.29306" lon="7.03021"><ele></ele><time>2016-9-26T3:25:33Z</time></trkpt>
<trkpt lat="46.29307" lon="7.03022"><ele></ele><time>2016-9-26T3:25:36Z</time></trkpt>
<trkpt lat="46.29307" lon="7.03024"><ele></ele><time>2016-9-26T3:25:39Z</time></trkpt>
<trkpt lat="46.29308" lon="7.03027"><ele></ele><time>2016-9-26T3:25:42Z</time></trkpt>
<trkpt lat="46.29309" lon="7.0303"><ele></ele><time>2016-9-26T3:25:45Z</time></trkpt>
<trkpt lat="46.29311" lon="7.03033"><ele></ele><time>2016-9-26T3:25:48Z</time></trkpt>
<trkpt lat="46.29312" lon="7.03036"><ele></ele><time>2016-9-26T3:25:51Z</time></trkpt>
<trkpt lat="46.29313" lon="7.03039"><ele></ele><time>2016-9-26T3:25:54Z</time></trkpt>
<trkpt lat="46.29314" lon="7.03042"><ele></ele><time>2016-9-26T3:25:57Z</time></trkpt>
<trkpt lat="46.29315" lon="7.03045"><ele></ele><time>2016-9-26T3:26:0Z</time></trkpt>
<trkpt lat="46.29317" lon="7.03048"><ele></ele><time>2016-9-26T3:26:3Z</time></trkpt>
<trkpt lat="46.29318" lon="7.03051"><ele></ele><time>2016-9-26T3:26:6Z</time></trkpt>
<trkpt lat="46.29319" lon="7.03054"><ele></ele><time>2016-9-26T3:26:9Z</time></trkpt>
<trkpt lat="46.2932" lon="7.03057"><ele></ele><time>2016-9-26T3:26:12Z</time></trkpt>
<trkpt lat="46.29321" lon="7.0306"><ele></ele><time>2016-9-26T3:26:15Z</time></trkpt>
<trkpt lat="46.29322" lon="7.03061"><ele></ele><time>2016-9-26T3:26:18Z</time></trkpt>
<trkpt lat="46.29322" lon="7.03062"><ele></ele><time>2016-9-26T3:26:21Z</time></trkpt>
<trkpt lat="46.29324" lon="7.03064"><ele></ele><time>2016-9-26T3:26:24Z</time></trkpt>
<trkpt lat="46.29325" lon="7.03066"><ele></ele><time>2016-9-26T3:26:27Z</time></trkpt>
<trkpt lat="46.29326" lon="7.03068"><ele></ele><time>2016-9-26T3:26:30Z</time></trkpt>
<trkpt lat="46.29327" lon="7.0307"><ele></ele><time>2016-9-26T3:26:33Z</time></trkpt>
<trkpt lat="46.29328" lon="7.03072"><ele></ele><time>2016-9-26T3:26:36Z</time></trkpt>
<trkpt lat="46.29329" lon="7.03074"><ele></ele><time>2016-9-26T3:26:39Z</time></trkpt>
<trkpt lat="46.2933" lon="7.03076"><ele></ele><time>2016-9-26T3:26:42Z</time></trkpt>
<trkpt lat="46.29331" lon="7.03078"><ele></ele><time>2016-9-26T3:26:45Z</time></trkpt>
<trkpt lat="46.29332" lon="7.0308"><ele></ele><time>2016-9-26T3:26:48Z</time></trkpt>
<trkpt lat="46.29333" lon="7.03082"><ele></ele><time>2016-9-26T3:26:51Z</time></trkpt>
<trkpt lat="46.29335" lon="7.03084"><ele></ele><time>2016-9-26T3:26:54Z</time></trkpt>
<trkpt lat="46.29336" lon="7.03086"><ele></ele><time>2016-9-26T3:26:57Z</time></trkpt>
<trkpt lat="46.29337" lon="7.03088"><ele></ele><time>2016-9-26T3:27:0Z</time></trkpt>
<trkpt lat="46.29338" lon="7.0309"><ele></ele><time>2016-9-26T3:27:3Z</time></trkpt>
<trkpt lat="46.29339" lon="7.03092"><ele></ele><time>2016-9-26T3:27:6Z</time></trkpt>
<trkpt lat="46.2934" lon="7.03094"><ele></ele><time>2016-9-26T3:27:9Z</time></trkpt>
<trkpt lat="46.29341" lon="7.03096"><ele></ele><time>2016-9-26T3:27:12Z</time></trkpt>
<trkpt lat="46.29342" lon="7.03098"><ele></ele><time>2016-9-26T3:27:15Z</time></trkpt>
<trkpt lat="46.29343" lon="7.031"><ele></ele><time>2016-9-26T3:27:18Z</time></trkpt>
<trkpt lat="46.29344" lon="7.03102"><ele></ele><time>2016-9-26T3:27:21Z</time></trkpt>
<trkpt lat="46.29345" lon="7.03104"><ele></ele><time>2016-9-26T3:27:24Z</time></trkpt>
<trkpt lat="46.29347" lon="7.03106"><ele></ele><time>2016-9-26T3:27:27Z</time></trkpt>
<trkpt lat="46.29348" lon="7.03108"><ele></ele><time>2016-9-26T3:27:30Z</time></trkpt>
<trkpt lat="46.29349" lon="7.0311"><ele></ele><time>2016-9-26T3:27:33Z</time></trkpt>
<trkpt lat="46.2935" lon="7.03113"><ele></ele><time>2016-9-26T3:27:36Z</time></trkpt>
<trkpt lat="46.29352" lon="7.03116"><ele></ele><time>2016-9-26T3:27:39Z</time></trkpt>
<trkpt lat="46.29354" lon="7.0312"><ele></ele><time>2016-9-26T3:27:42Z</time></trkpt>
<trkpt lat="46.29355" lon="7.03124"><ele></ele><time>2016-9-26T3:27:45Z</time></trkpt>
<trkpt lat="46.29357" lon="7.03127"><ele></ele><time>2016-9-26T3:27:48Z</time></trkpt>
<trkpt lat="46.29359" lon="7.03131"><ele></ele><time>2016-9-26T3:27:51Z</time></trkpt>
<trkpt lat="46.29361" lon="7.03135"><ele></ele><time>2016-9-26T3:27:54Z</time></trkpt>
<trkpt lat="46.29363" lon="7.03139"><ele></ele><time>2016-9-26T3:27:57Z</time></trkpt>
<trkpt lat="46.29364" lon="7.03142"><ele></ele><time>2016-9-26T3:28:0Z</time></trkpt>
<trkpt lat="46.29365" lon="7.03144"><ele></ele><time>2016-9-26T3:28:3Z</time></trkpt>
<trkpt lat="46.29366" lon="7.03146"><ele></ele><time>2016-9-26T3:28:6Z</time></trkpt>
<trkpt lat="46.29368" lon="7.0315"><ele></ele><time>2016-9-26T3:28:9Z</time></trkpt>
<trkpt lat="46.2937" lon="7.03153"><ele></ele><time>2016-9-26T3:28:12Z</time></trkpt>
<trkpt lat="46.29371" lon="7.03155"><ele></ele><time>2016-9-26T3:28:15Z</time></trkpt>
<trkpt lat="46.29372" lon="7.03157"><ele></ele><time>2016-9-26T3:28:18Z</time></trkpt>
<trkpt lat="46.29373" lon="7.03161"><ele></ele><time>2016-9-26T3:28:21Z</time></trkpt>
<trkpt lat="46.29375" lon="7.03164"><ele></ele><time>2016-9-26T3:28:24Z</time></trkpt>
<trkpt lat="46.29376" lon="7.03166"><ele></ele><time>2016-9-26T3:28:27Z</time></trkpt>
<trkpt lat="46.29377" lon="7.03169"><ele></ele><time>2016-9-26T3:28:30Z</time></trkpt>
<trkpt lat="46.29379" lon="7.03173"><ele></ele><time>2016-9-26T3:28:33Z</time></trkpt>
<trkpt lat="46.29381" lon="7.03178"><ele></ele><time>2016-9-26T3:28:36Z</time></trkpt>
<trkpt lat="46.29383" lon="7.03182"><ele></ele><time>2016-9-26T3:28:39Z</time></trkpt>
<trkpt lat="46.29385" lon="7.03186"><ele></ele><time>2016-9-26T3:28:42Z</time></trkpt>
<trkpt lat="46.29388" lon="7.03191"><ele></ele><time>2016-9-26T3:28:45Z</time></trkpt>
<trkpt lat="46.2939" lon="7.03195"><ele></ele><time>2016-9-26T3:28:48Z</time></trkpt>
<trkpt lat="46.29392" lon="7.032"><ele></ele><time>2016-9-26T3:28:51Z</time></trkpt>
<trkpt lat="46.29394" lon="7.03204"><ele></ele><time>2016-9-26T3:28:54Z</time></trkpt>
<trkpt lat="46.29396" lon="7.03209"><ele></ele><time>2016-9-26T3:28:57Z</time></trkpt>
<trkpt lat="46.29398" lon="7.03213"><ele></ele><time>2016-9-26T3:29:0Z</time></trkpt>
<trkpt lat="46.294" lon="7.03218"><ele></ele><time>2016-9-26T3:29:3Z</time></trkpt>
<trkpt lat="46.29402" lon="7.03222"><ele></ele><time>2016-9-26T3:29:6Z</time></trkpt>
<trkpt lat="46.29403" lon="7.03227"><ele></ele><time>2016-9-26T3:29:9Z</time></trkpt>
<trkpt lat="46.29405" lon="7.03232"><ele></ele><time>2016-9-26T3:29:12Z</time></trkpt>
<trkpt lat="46.29406" lon="7.03237"><ele></ele><time>2016-9-26T3:29:15Z</time></trkpt>
<trkpt lat="46.29408" lon="7.03242"><ele></ele><time>2016-9-26T3:29:18Z</time></trkpt>
<trkpt lat="46.29409" lon="7.03247"><ele></ele><time>2016-9-26T3:29:21Z</time></trkpt>
<trkpt lat="46.29411" lon="7.03251"><ele></ele><time>2016-9-26T3:29:24Z</time></trkpt>
<trkpt lat="46.29412" lon="7.03254"><ele></ele><time>2016-9-26T3:29:27Z</time></trkpt>
<trkpt lat="46.29412" lon="7.03256"><ele></ele><time>2016-9-26T3:29:30Z</time></trkpt>
<trkpt lat="46.29414" lon="7.03261"><ele></ele><time>2016-9-26T3:29:33Z</time></trkpt>
<trkpt lat="46.29415" lon="7.03266"><ele></ele><time>2016-9-26T3:29:36Z</time></trkpt>
<trkpt lat="46.29417" lon="7.03271"><ele></ele><time>2016-9-26T3:29:39Z</time></trkpt>
<trkpt lat="46.29418" lon="7.03276"><ele></ele><time>2016-9-26T3:29:42Z</time></trkpt>
<trkpt lat="46.2942" lon="7.03281"><ele></ele><time>2016-9-26T3:29:45Z</time></trkpt>
<trkpt lat="46.29421" lon="7.03283"><ele></ele><time>2016-9-26T3:29:48Z</time></trkpt>
<trkpt lat="46.29422" lon="7.03285"><ele></ele><time>2016-9-26T3:29:51Z</time></trkpt>
<trkpt lat="46.29424" lon="7.03288"><ele></ele><time>2016-9-26T3:29:54Z</time></trkpt>
<trkpt lat="46.29426" lon="7.03292"><ele></ele><time>2016-9-26T3:29:57Z</time></trkpt>
<trkpt lat="46.29428" lon="7.03295"><ele></ele><time>2016-9-26T3:30:0Z</time></trkpt>
<trkpt lat="46.29431" lon="7.03299"><ele></ele><time>2016-9-26T3:30:3Z</time></trkpt>
<trkpt lat="46.29433" lon="7.03302"><ele></ele><time>2016-9-26T3:30:6Z</time></trkpt>
<trkpt lat="46.29435" lon="7.03305"><ele></ele><time>2016-9-26T3:30:9Z</time></trkpt>
<trkpt lat="46.29437" lon="7.03309"><ele></ele><time>2016-9-26T3:30:12Z</time></trkpt>
<trkpt lat="46.29439" lon="7.03312"><ele></ele><time>2016-9-26T3:30:15Z</time></trkpt>
<trkpt lat="46.29442" lon="7.03316"><ele></ele><time>2016-9-26T3:30:18Z</time></trkpt>
<trkpt lat="46.29444" lon="7.03319"><ele></ele><time>2016-9-26T3:30:21Z</time></trkpt>
<trkpt lat="46.29446" lon="7.03322"><ele></ele><time>2016-9-26T3:30:24Z</time></trkpt>
<trkpt lat="46.29448" lon="7.03326"><ele></ele><time>2016-9-26T3:30:27Z</time></trkpt>
<trkpt lat="46.2945" lon="7.03329"><ele></ele><time>2016-9-26T3:30:30Z</time></trkpt>
<trkpt lat="46.29452" lon="7.03331"><ele></ele><time>2016-9-26T3:30:33Z</time></trkpt>
<trkpt lat="46.29452" lon="7.03333"><ele></ele><time>2016-9-26T3:30:36Z</time></trkpt>
<trkpt lat="46.29454" lon="7.03337"><ele></ele><time>2016-9-26T3:30:39Z</time></trkpt>
<trkpt lat="46.29456" lon="7.03342"><ele></ele><time>2016-9-26T3:30:42Z</time></trkpt>
<trkpt lat="46.29457" lon="7.03344"><ele></ele><time>2016-9-26T3:30:45Z</time></trkpt>
<trkpt lat="46.2946" lon="7.0335"><ele></ele><time>2016-9-26T3:30:48Z</time></trkpt>
<trkpt lat="46.29462" lon="7.03354"><ele></ele><time>2016-9-26T3:30:51Z</time></trkpt>
<trkpt lat="46.29463" lon="7.03359"><ele></ele><time>2016-9-26T3:30:54Z</time></trkpt>
<trkpt lat="46.29465" lon="7.03363"><ele></ele><time>2016-9-26T3:30:57Z</time></trkpt>
<trkpt lat="46.29466" lon="7.03365"><ele></ele><time>2016-9-26T3:31:0Z</time></trkpt>
<trkpt lat="46.29467" lon="7.03367"><ele></ele><time>2016-9-26T3:31:3Z</time></trkpt>
<trkpt lat="46.29469" lon="7.03371"><ele></ele><time>2016-9-26T3:31:6Z</time></trkpt>
<trkpt lat="46.29471" lon="7.03376"><ele></ele><time>2016-9-26T3:31:9Z</time></trkpt>
<trkpt lat="46.29473" lon="7.0338"><ele></ele><time>2016-9-26T3:31:12Z</time></trkpt>
<trkpt lat="46.29474" lon="7.03384"><ele></ele><time>2016-9-26T3:31:15Z</time></trkpt>
<trkpt lat="46.29476" lon="7.03388"><ele></ele><time>2016-9-26T3:31:18Z</time></trkpt>
<trkpt lat="46.29478" lon="7.03392"><ele></ele><time>2016-9-26T3:31:21Z</time></trkpt>
<trkpt lat="46.29479" lon="7.03396"><ele></ele><time>2016-9-26T3:31:24Z</time></trkpt>
<trkpt lat="46.29481" lon="7.034"><ele></ele><time>2016-9-26T3:31:27Z</time></trkpt>
<trkpt lat="46.29483" lon="7.03405"><ele></ele><time>2016-9-26T3:31:30Z</time></trkpt>
<trkpt lat="46.29484" lon="7.03409"><ele></ele><time>2016-9-26T3:31:33Z</time></trkpt>
<trkpt lat="46.29485" lon="7.03411"><ele></ele><time>2016-9-26T3:31:36Z</time></trkpt>
<trkpt lat="46.29486" lon="7.03413"><ele></ele><time>2016-9-26T3:31:39Z</time></trkpt>
<trkpt lat="46.29487" lon="7.03417"><ele></ele><time>2016-9-26T3:31:42Z</time></trkpt>
<trkpt lat="46.29489" lon="7.03421"><ele></ele><time>2016-9-26T3:31:45Z</time></trkpt>
<trkpt lat="46.2949" lon="7.03425"><ele></ele><time>2016-9-26T3:31:48Z</time></trkpt>
<trkpt lat="46.29492" lon="7.03429"><ele></ele><time>2016-9-26T3:31:51Z</time></trkpt>
<trkpt lat="46.29494" lon="7.03433"><ele></ele><time>2016-9-26T3:31:54Z</time></trkpt>
<trkpt lat="46.29495" lon="7.03437"><ele></ele><time>2016-9-26T3:31:57Z</time></trkpt>
<trkpt lat="46.29497" lon="7.03441"><ele></ele><time>2016-9-26T3:32:0Z</time></trkpt>
<trkpt lat="46.29498" lon="7.03445"><ele></ele><time>2016-9-26T3:32:3Z</time></trkpt>
<trkpt lat="46.295" lon="7.0345"><ele></ele><time>2016-9-26T3:32:6Z</time></trkpt>
<trkpt lat="46.29501" lon="7.03455"><ele></ele><time>2016-9-26T3:32:9Z</time></trkpt>
<trkpt lat="46.29501" lon="7.03457"><ele></ele><time>2016-9-26T3:32:12Z</time></trkpt>
<trkpt lat="46.29502" lon="7.0346"><ele></ele><time>2016-9-26T3:32:15Z</time></trkpt>
<trkpt lat="46.29503" lon="7.03464"><ele></ele><time>2016-9-26T3:32:18Z</time></trkpt>
<trkpt lat="46.29504" lon="7.03469"><ele></ele><time>2016-9-26T3:32:21Z</time></trkpt>
<trkpt lat="46.29505" lon="7.03471"><ele></ele><time>2016-9-26T3:32:24Z</time></trkpt>
<trkpt lat="46.29507" lon="7.03478"><ele></ele><time>2016-9-26T3:32:27Z</time></trkpt>
<trkpt lat="46.29508" lon="7.03483"><ele></ele><time>2016-9-26T3:32:30Z</time></trkpt>
<trkpt lat="46.29509" lon="7.03488"><ele></ele><time>2016-9-26T3:32:33Z</time></trkpt>
<trkpt lat="46.29511" lon="7.03493"><ele></ele><time>2016-9-26T3:32:36Z</time></trkpt>
<trkpt lat="46.29512" lon="7.03497"><ele></ele><time>2016-9-26T3:32:39Z</time></trkpt>
<trkpt lat="46.29513" lon="7.03502"><ele></ele><time>2016-9-26T3:32:42Z</time></trkpt>
<trkpt lat="46.29514" lon="7.03507"><ele></ele><time>2016-9-26T3:32:45Z</time></trkpt>
<trkpt lat="46.29516" lon="7.03511"><ele></ele><time>2016-9-26T3:32:48Z</time></trkpt>
<trkpt lat="46.29517" lon="7.03515"><ele></ele><time>2016-9-26T3:32:51Z</time></trkpt>
<trkpt lat="46.29519" lon="7.03519"><ele></ele><time>2016-9-26T3:32:54Z</time></trkpt>
<trkpt lat="46.2952" lon="7.03523"><ele></ele><time>2016-9-26T3:32:57Z</time></trkpt>
<trkpt lat="46.29522" lon="7.03527"><ele></ele><time>2016-9-26T3:33:0Z</time></trkpt>
<trkpt lat="46.29523" lon="7.03531"><ele></ele><time>2016-9-26T3:33:3Z</time></trkpt>
<trkpt lat="46.29525" lon="7.03535"><ele></ele><time>2016-9-26T3:33:6Z</time></trkpt>
<trkpt lat="46.29526" lon="7.03539"><ele></ele><time>2016-9-26T3:33:9Z</time></trkpt>
<trkpt lat="46.29528" lon="7.03543"><ele></ele><time>2016-9-26T3:33:12Z</time></trkpt>
<trkpt lat="46.29529" lon="7.03547"><ele></ele><time>2016-9-26T3:33:15Z</time></trkpt>
<trkpt lat="46.29531" lon="7.03551"><ele></ele><time>2016-9-26T3:33:18Z</time></trkpt>
<trkpt lat="46.29532" lon="7.03553"><ele></ele><time>2016-9-26T3:33:21Z</time></trkpt>
<trkpt lat="46.29532" lon="7.03555"><ele></ele><time>2016-9-26T3:33:24Z</time></trkpt>
<trkpt lat="46.29534" lon="7.03559"><ele></ele><time>2016-9-26T3:33:27Z</time></trkpt>
<trkpt lat="46.29535" lon="7.03563"><ele></ele><time>2016-9-26T3:33:30Z</time></trkpt>
<trkpt lat="46.29536" lon="7.03565"><ele></ele><time>2016-9-26T3:33:33Z</time></trkpt>
<trkpt lat="46.29537" lon="7.03567"><ele></ele><time>2016-9-26T3:33:36Z</time></trkpt>
<trkpt lat="46.29539" lon="7.03571"><ele></ele><time>2016-9-26T3:33:39Z</time></trkpt>
<trkpt lat="46.2954" lon="7.03575"><ele></ele><time>2016-9-26T3:33:42Z</time></trkpt>
<trkpt lat="46.29542" lon="7.03579"><ele></ele><time>2016-9-26T3:33:45Z</time></trkpt>
<trkpt lat="46.29544" lon="7.03584"><ele></ele><time>2016-9-26T3:33:48Z</time></trkpt>
<trkpt lat="46.29546" lon="7.03588"><ele></ele><time>2016-9-26T3:33:51Z</time></trkpt>
<trkpt lat="46.29547" lon="7.03592"><ele></ele><time>2016-9-26T3:33:54Z</time></trkpt>
<trkpt lat="46.29549" lon="7.03596"><ele></ele><time>2016-9-26T3:33:57Z</time></trkpt>
<trkpt lat="46.2955" lon="7.03598"><ele></ele><time>2016-9-26T3:34:0Z</time></trkpt>
<trkpt lat="46.29551" lon="7.036"><ele></ele><time>2016-9-26T3:34:3Z</time></trkpt>
<trkpt lat="46.29552" lon="7.03604"><ele></ele><time>2016-9-26T3:34:6Z</time></trkpt>
<trkpt lat="46.29554" lon="7.03608"><ele></ele><time>2016-9-26T3:34:9Z</time></trkpt>
<trkpt lat="46.29556" lon="7.03612"><ele></ele><time>2016-9-26T3:34:12Z</time></trkpt>
<trkpt lat="46.29558" lon="7.03616"><ele></ele><time>2016-9-26T3:34:15Z</time></trkpt>
<trkpt lat="46.29559" lon="7.0362"><ele></ele><time>2016-9-26T3:34:18Z</time></trkpt>
<trkpt lat="46.2956" lon="7.03622"><ele></ele><time>2016-9-26T3:34:21Z</time></trkpt>
<trkpt lat="46.29561" lon="7.03624"><ele></ele><time>2016-9-26T3:34:24Z</time></trkpt>
<trkpt lat="46.29562" lon="7.03628"><ele></ele><time>2016-9-26T3:34:27Z</time></trkpt>
<trkpt lat="46.29564" lon="7.03632"><ele></ele><time>2016-9-26T3:34:30Z</time></trkpt>
<trkpt lat="46.29565" lon="7.03636"><ele></ele><time>2016-9-26T3:34:33Z</time></trkpt>
<trkpt lat="46.29567" lon="7.0364"><ele></ele><time>2016-9-26T3:34:36Z</time></trkpt>
<trkpt lat="46.29568" lon="7.03642"><ele></ele><time>2016-9-26T3:34:39Z</time></trkpt>
<trkpt lat="46.29568" lon="7.03644"><ele></ele><time>2016-9-26T3:34:42Z</time></trkpt>
<trkpt lat="46.2957" lon="7.03648"><ele></ele><time>2016-9-26T3:34:45Z</time></trkpt>
<trkpt lat="46.29571" lon="7.03652"><ele></ele><time>2016-9-26T3:34:48Z</time></trkpt>
<trkpt lat="46.29573" lon="7.03656"><ele></ele><time>2016-9-26T3:34:51Z</time></trkpt>
<trkpt lat="46.29574" lon="7.0366"><ele></ele><time>2016-9-26T3:34:54Z</time></trkpt>
<trkpt lat="46.29576" lon="7.03664"><ele></ele><time>2016-9-26T3:34:57Z</time></trkpt>
<trkpt lat="46.29577" lon="7.03668"><ele></ele><time>2016-9-26T3:35:0Z</time></trkpt>
<trkpt lat="46.29579" lon="7.03672"><ele></ele><time>2016-9-26T3:35:3Z</time></trkpt>
<trkpt lat="46.2958" lon="7.03676"><ele></ele><time>2016-9-26T3:35:6Z</time></trkpt>
<trkpt lat="46.29582" lon="7.0368"><ele></ele><time>2016-9-26T3:35:9Z</time></trkpt>
<trkpt lat="46.29583" lon="7.03684"><ele></ele><time>2016-9-26T3:35:12Z</time></trkpt>
<trkpt lat="46.29584" lon="7.03686"><ele></ele><time>2016-9-26T3:35:15Z</time></trkpt>
<trkpt lat="46.29585" lon="7.03688"><ele></ele><time>2016-9-26T3:35:18Z</time></trkpt>
<trkpt lat="46.29586" lon="7.03692"><ele></ele><time>2016-9-26T3:35:21Z</time></trkpt>
<trkpt lat="46.29588" lon="7.03696"><ele></ele><time>2016-9-26T3:35:24Z</time></trkpt>
<trkpt lat="46.29589" lon="7.037"><ele></ele><time>2016-9-26T3:35:27Z</time></trkpt>
<trkpt lat="46.29591" lon="7.03704"><ele></ele><time>2016-9-26T3:35:30Z</time></trkpt>
<trkpt lat="46.29592" lon="7.03708"><ele></ele><time>2016-9-26T3:35:33Z</time></trkpt>
<trkpt lat="46.29593" lon="7.0371"><ele></ele><time>2016-9-26T3:35:36Z</time></trkpt>
<trkpt lat="46.29594" lon="7.03712"><ele></ele><time>2016-9-26T3:35:39Z</time></trkpt>
<trkpt lat="46.29596" lon="7.03714"><ele></ele><time>2016-9-26T3:35:42Z</time></trkpt>
<trkpt lat="46.29597" lon="7.03715"><ele></ele><time>2016-9-26T3:35:45Z</time></trkpt>
<trkpt lat="46.29601" lon="7.03719"><ele></ele><time>2016-9-26T3:35:48Z</time></trkpt>
<trkpt lat="46.29603" lon="7.03722"><ele></ele><time>2016-9-26T3:35:51Z</time></trkpt>
<trkpt lat="46.29604" lon="7.03723"><ele></ele><time>2016-9-26T3:35:54Z</time></trkpt>
<trkpt lat="46.29605" lon="7.03724"><ele></ele><time>2016-9-26T3:35:57Z</time></trkpt>
<trkpt lat="46.29607" lon="7.03727"><ele></ele><time>2016-9-26T3:36:0Z</time></trkpt>
<trkpt lat="46.29609" lon="7.0373"><ele></ele><time>2016-9-26T3:36:3Z</time></trkpt>
<trkpt lat="46.29611" lon="7.03731"><ele></ele><time>2016-9-26T3:36:6Z</time></trkpt>
<trkpt lat="46.29612" lon="7.03732"><ele></ele><time>2016-9-26T3:36:9Z</time></trkpt>
<trkpt lat="46.29614" lon="7.03735"><ele></ele><time>2016-9-26T3:36:12Z</time></trkpt>
<trkpt lat="46.29616" lon="7.03737"><ele></ele><time>2016-9-26T3:36:15Z</time></trkpt>
<trkpt lat="46.29617" lon="7.03739"><ele></ele><time>2016-9-26T3:36:18Z</time></trkpt>
<trkpt lat="46.29618" lon="7.0374"><ele></ele><time>2016-9-26T3:36:21Z</time></trkpt>
<trkpt lat="46.29621" lon="7.03743"><ele></ele><time>2016-9-26T3:36:24Z</time></trkpt>
<trkpt lat="46.29623" lon="7.03745"><ele></ele><time>2016-9-26T3:36:27Z</time></trkpt>
<trkpt lat="46.29625" lon="7.03748"><ele></ele><time>2016-9-26T3:36:30Z</time></trkpt>
<trkpt lat="46.29627" lon="7.0375"><ele></ele><time>2016-9-26T3:36:33Z</time></trkpt>
<trkpt lat="46.29628" lon="7.03752"><ele></ele><time>2016-9-26T3:36:36Z</time></trkpt>
<trkpt lat="46.29629" lon="7.03753"><ele></ele><time>2016-9-26T3:36:39Z</time></trkpt>
<trkpt lat="46.29631" lon="7.03755"><ele></ele><time>2016-9-26T3:36:42Z</time></trkpt>
<trkpt lat="46.29632" lon="7.03757"><ele></ele><time>2016-9-26T3:36:45Z</time></trkpt>
<trkpt lat="46.29634" lon="7.0376"><ele></ele><time>2016-9-26T3:36:48Z</time></trkpt>
<trkpt lat="46.29635" lon="7.03762"><ele></ele><time>2016-9-26T3:36:51Z</time></trkpt>
<trkpt lat="46.29637" lon="7.03764"><ele></ele><time>2016-9-26T3:36:54Z</time></trkpt>
<trkpt lat="46.29639" lon="7.03767"><ele></ele><time>2016-9-26T3:36:57Z</time></trkpt>
<trkpt lat="46.2964" lon="7.03769"><ele></ele><time>2016-9-26T3:37:0Z</time></trkpt>
<trkpt lat="46.29642" lon="7.03771"><ele></ele><time>2016-9-26T3:37:3Z</time></trkpt>
<trkpt lat="46.29644" lon="7.03774"><ele></ele><time>2016-9-26T3:37:6Z</time></trkpt>
<trkpt lat="46.29645" lon="7.03776"><ele></ele><time>2016-9-26T3:37:9Z</time></trkpt>
<trkpt lat="46.29647" lon="7.03778"><ele></ele><time>2016-9-26T3:37:12Z</time></trkpt>
<trkpt lat="46.29648" lon="7.0378"><ele></ele><time>2016-9-26T3:37:15Z</time></trkpt>
<trkpt lat="46.29648" lon="7.03781"><ele></ele><time>2016-9-26T3:37:18Z</time></trkpt>
<trkpt lat="46.2965" lon="7.03783"><ele></ele><time>2016-9-26T3:37:21Z</time></trkpt>
<trkpt lat="46.29652" lon="7.03785"><ele></ele><time>2016-9-26T3:37:24Z</time></trkpt>
<trkpt lat="46.29653" lon="7.03788"><ele></ele><time>2016-9-26T3:37:27Z</time></trkpt>
<trkpt lat="46.29655" lon="7.0379"><ele></ele><time>2016-9-26T3:37:30Z</time></trkpt>
<trkpt lat="46.29657" lon="7.03792"><ele></ele><time>2016-9-26T3:37:33Z</time></trkpt>
<trkpt lat="46.29658" lon="7.03795"><ele></ele><time>2016-9-26T3:37:36Z</time></trkpt>
<trkpt lat="46.2966" lon="7.03797"><ele></ele><time>2016-9-26T3:37:39Z</time></trkpt>
<trkpt lat="46.29661" lon="7.03798"><ele></ele><time>2016-9-26T3:37:42Z</time></trkpt>
<trkpt lat="46.29662" lon="7.03798"><ele></ele><time>2016-9-26T3:37:45Z</time></trkpt>
<trkpt lat="46.29664" lon="7.03798"><ele></ele><time>2016-9-26T3:37:48Z</time></trkpt>
<trkpt lat="46.29666" lon="7.03798"><ele></ele><time>2016-9-26T3:37:51Z</time></trkpt>
<trkpt lat="46.29668" lon="7.03798"><ele></ele><time>2016-9-26T3:37:54Z</time></trkpt>
<trkpt lat="46.2967" lon="7.03798"><ele></ele><time>2016-9-26T3:37:57Z</time></trkpt>
<trkpt lat="46.29672" lon="7.03798"><ele></ele><time>2016-9-26T3:38:0Z</time></trkpt>
<trkpt lat="46.29673" lon="7.03798"><ele></ele><time>2016-9-26T3:38:3Z</time></trkpt>
<trkpt lat="46.29676" lon="7.03798"><ele></ele><time>2016-9-26T3:38:6Z</time></trkpt>
<trkpt lat="46.29678" lon="7.03798"><ele></ele><time>2016-9-26T3:38:9Z</time></trkpt>
<trkpt lat="46.2968" lon="7.03797"><ele></ele><time>2016-9-26T3:38:12Z</time></trkpt>
<trkpt lat="46.29682" lon="7.03797"><ele></ele><time>2016-9-26T3:38:15Z</time></trkpt>
<trkpt lat="46.29683" lon="7.03797"><ele></ele><time>2016-9-26T3:38:18Z</time></trkpt>
<trkpt lat="46.29685" lon="7.03797"><ele></ele><time>2016-9-26T3:38:21Z</time></trkpt>
<trkpt lat="46.29686" lon="7.03797"><ele></ele><time>2016-9-26T3:38:24Z</time></trkpt>
<trkpt lat="46.29688" lon="7.03797"><ele></ele><time>2016-9-26T3:38:27Z</time></trkpt>
<trkpt lat="46.2969" lon="7.03797"><ele></ele><time>2016-9-26T3:38:30Z</time></trkpt>
<trkpt lat="46.29692" lon="7.03797"><ele></ele><time>2016-9-26T3:38:33Z</time></trkpt>
<trkpt lat="46.29694" lon="7.03797"><ele></ele><time>2016-9-26T3:38:36Z</time></trkpt>
<trkpt lat="46.29696" lon="7.03797"><ele></ele><time>2016-9-26T3:38:39Z</time></trkpt>
<trkpt lat="46.29698" lon="7.03797"><ele></ele><time>2016-9-26T3:38:42Z</time></trkpt>
<trkpt lat="46.297" lon="7.03797"><ele></ele><time>2016-9-26T3:38:45Z</time></trkpt>
<trkpt lat="46.29702" lon="7.03797"><ele></ele><time>2016-9-26T3:38:48Z</time></trkpt>
<trkpt lat="46.29704" lon="7.03797"><ele></ele><time>2016-9-26T3:38:51Z</time></trkpt>
<trkpt lat="46.29706" lon="7.03797"><ele></ele><time>2016-9-26T3:38:54Z</time></trkpt>
<trkpt lat="46.29707" lon="7.03797"><ele></ele><time>2016-9-26T3:38:57Z</time></trkpt>
<trkpt lat="46.29707" lon="7.03797"><ele></ele><time>2016-9-26T3:39:0Z</time></trkpt>
<trkpt lat="46.29708" lon="7.03797"><ele></ele><time>2016-9-26T3:39:3Z</time></trkpt>
<trkpt lat="46.29709" lon="7.03797"><ele></ele><time>2016-9-26T3:39:6Z</time></trkpt>
<trkpt lat="46.29709" lon="7.03796"><ele></ele><time>2016-9-26T3:39:9Z</time></trkpt>
<trkpt lat="46.29726" lon="7.03803"><ele></ele><time>2016-9-26T3:39:12Z</time></trkpt>
<trkpt lat="46.29726" lon="7.03803"><ele></ele><time>2016-9-26T3:39:15Z</time></trkpt>
<trkpt lat="46.29742" lon="7.03811"><ele></ele><time>2016-9-26T3:39:18Z</time></trkpt>
<trkpt lat="46.29744" lon="7.03814"><ele></ele><time>2016-9-26T3:39:21Z</time></trkpt>
<trkpt lat="46.29746" lon="7.03818"><ele></ele><time>2016-9-26T3:39:24Z</time></trkpt>
<trkpt lat="46.29748" lon="7.03822"><ele></ele><time>2016-9-26T3:39:27Z</time></trkpt>
<trkpt lat="46.29749" lon="7.03826"><ele></ele><time>2016-9-26T3:39:30Z</time></trkpt>
<trkpt lat="46.29751" lon="7.0383"><ele></ele><time>2016-9-26T3:39:33Z</time></trkpt>
<trkpt lat="46.29753" lon="7.03834"><ele></ele><time>2016-9-26T3:39:36Z</time></trkpt>
<trkpt lat="46.29755" lon="7.03838"><ele></ele><time>2016-9-26T3:39:39Z</time></trkpt>
<trkpt lat="46.29757" lon="7.03842"><ele></ele><time>2016-9-26T3:39:42Z</time></trkpt>
<trkpt lat="46.29759" lon="7.03846"><ele></ele><time>2016-9-26T3:39:45Z</time></trkpt>
<trkpt lat="46.29761" lon="7.0385"><ele></ele><time>2016-9-26T3:39:48Z</time></trkpt>
<trkpt lat="46.29761" lon="7.03855"><ele></ele><time>2016-9-26T3:39:51Z</time></trkpt>
<trkpt lat="46.29762" lon="7.0386"><ele></ele><time>2016-9-26T3:39:54Z</time></trkpt>
<trkpt lat="46.29763" lon="7.03865"><ele></ele><time>2016-9-26T3:39:57Z</time></trkpt>
<trkpt lat="46.29763" lon="7.03869"><ele></ele><time>2016-9-26T3:40:0Z</time></trkpt>
<trkpt lat="46.29764" lon="7.03874"><ele></ele><time>2016-9-26T3:40:3Z</time></trkpt>
<trkpt lat="46.29764" lon="7.03879"><ele></ele><time>2016-9-26T3:40:6Z</time></trkpt>
<trkpt lat="46.29765" lon="7.03884"><ele></ele><time>2016-9-26T3:40:9Z</time></trkpt>
<trkpt lat="46.29766" lon="7.03888"><ele></ele><time>2016-9-26T3:40:12Z</time></trkpt>
<trkpt lat="46.29766" lon="7.03891"><ele></ele><time>2016-9-26T3:40:15Z</time></trkpt>
<trkpt lat="46.29766" lon="7.03893"><ele></ele><time>2016-9-26T3:40:18Z</time></trkpt>
<trkpt lat="46.29767" lon="7.03898"><ele></ele><time>2016-9-26T3:40:21Z</time></trkpt>
<trkpt lat="46.29767" lon="7.039"><ele></ele><time>2016-9-26T3:40:24Z</time></trkpt>
<trkpt lat="46.29769" lon="7.03901"><ele></ele><time>2016-9-26T3:40:27Z</time></trkpt>
<trkpt lat="46.2977" lon="7.03903"><ele></ele><time>2016-9-26T3:40:30Z</time></trkpt>
<trkpt lat="46.29771" lon="7.03904"><ele></ele><time>2016-9-26T3:40:33Z</time></trkpt>
<trkpt lat="46.29774" lon="7.03907"><ele></ele><time>2016-9-26T3:40:36Z</time></trkpt>
<trkpt lat="46.29776" lon="7.0391"><ele></ele><time>2016-9-26T3:40:39Z</time></trkpt>
<trkpt lat="46.29779" lon="7.03913"><ele></ele><time>2016-9-26T3:40:42Z</time></trkpt>
<trkpt lat="46.29782" lon="7.03916"><ele></ele><time>2016-9-26T3:40:45Z</time></trkpt>
<trkpt lat="46.29784" lon="7.03919"><ele></ele><time>2016-9-26T3:40:48Z</time></trkpt>
<trkpt lat="46.29787" lon="7.03922"><ele></ele><time>2016-9-26T3:40:51Z</time></trkpt>
<trkpt lat="46.29789" lon="7.03925"><ele></ele><time>2016-9-26T3:40:54Z</time></trkpt>
<trkpt lat="46.29791" lon="7.03926"><ele></ele><time>2016-9-26T3:40:57Z</time></trkpt>
<trkpt lat="46.29792" lon="7.03928"><ele></ele><time>2016-9-26T3:41:0Z</time></trkpt>
<trkpt lat="46.29794" lon="7.03931"><ele></ele><time>2016-9-26T3:41:3Z</time></trkpt>
<trkpt lat="46.29797" lon="7.03934"><ele></ele><time>2016-9-26T3:41:6Z</time></trkpt>
<trkpt lat="46.298" lon="7.03937"><ele></ele><time>2016-9-26T3:41:9Z</time></trkpt>
<trkpt lat="46.29802" lon="7.0394"><ele></ele><time>2016-9-26T3:41:12Z</time></trkpt>
<trkpt lat="46.29804" lon="7.03941"><ele></ele><time>2016-9-26T3:41:15Z</time></trkpt>
<trkpt lat="46.29805" lon="7.03943"><ele></ele><time>2016-9-26T3:41:18Z</time></trkpt>
<trkpt lat="46.29807" lon="7.03946"><ele></ele><time>2016-9-26T3:41:21Z</time></trkpt>
<trkpt lat="46.2981" lon="7.0395"><ele></ele><time>2016-9-26T3:41:24Z</time></trkpt>
<trkpt lat="46.29811" lon="7.03951"><ele></ele><time>2016-9-26T3:41:27Z</time></trkpt>
<trkpt lat="46.29813" lon="7.03953"><ele></ele><time>2016-9-26T3:41:30Z</time></trkpt>
<trkpt lat="46.29815" lon="7.03956"><ele></ele><time>2016-9-26T3:41:33Z</time></trkpt>
<trkpt lat="46.29818" lon="7.0396"><ele></ele><time>2016-9-26T3:41:36Z</time></trkpt>
<trkpt lat="46.29821" lon="7.03963"><ele></ele><time>2016-9-26T3:41:39Z</time></trkpt>
<trkpt lat="46.29823" lon="7.03966"><ele></ele><time>2016-9-26T3:41:42Z</time></trkpt>
<trkpt lat="46.29826" lon="7.0397"><ele></ele><time>2016-9-26T3:41:45Z</time></trkpt>
<trkpt lat="46.29828" lon="7.03973"><ele></ele><time>2016-9-26T3:41:48Z</time></trkpt>
<trkpt lat="46.29831" lon="7.03976"><ele></ele><time>2016-9-26T3:41:51Z</time></trkpt>
<trkpt lat="46.29834" lon="7.0398"><ele></ele><time>2016-9-26T3:41:54Z</time></trkpt>
<trkpt lat="46.29835" lon="7.03981"><ele></ele><time>2016-9-26T3:41:57Z</time></trkpt>
<trkpt lat="46.29836" lon="7.03983"><ele></ele><time>2016-9-26T3:42:0Z</time></trkpt>
<trkpt lat="46.29837" lon="7.03985"><ele></ele><time>2016-9-26T3:42:3Z</time></trkpt>
<trkpt lat="46.29838" lon="7.03987"><ele></ele><time>2016-9-26T3:42:6Z</time></trkpt>
<trkpt lat="46.29839" lon="7.03992"><ele></ele><time>2016-9-26T3:42:9Z</time></trkpt>
<trkpt lat="46.2984" lon="7.03997"><ele></ele><time>2016-9-26T3:42:12Z</time></trkpt>
<trkpt lat="46.29841" lon="7.04001"><ele></ele><time>2016-9-26T3:42:15Z</time></trkpt>
<trkpt lat="46.29842" lon="7.04006"><ele></ele><time>2016-9-26T3:42:18Z</time></trkpt>
<trkpt lat="46.29843" lon="7.04011"><ele></ele><time>2016-9-26T3:42:21Z</time></trkpt>
<trkpt lat="46.29844" lon="7.04016"><ele></ele><time>2016-9-26T3:42:24Z</time></trkpt>
<trkpt lat="46.29845" lon="7.0402"><ele></ele><time>2016-9-26T3:42:27Z</time></trkpt>
<trkpt lat="46.29847" lon="7.04025"><ele></ele><time>2016-9-26T3:42:30Z</time></trkpt>
<trkpt lat="46.29848" lon="7.0403"><ele></ele><time>2016-9-26T3:42:33Z</time></trkpt>
<trkpt lat="46.29849" lon="7.04035"><ele></ele><time>2016-9-26T3:42:36Z</time></trkpt>
<trkpt lat="46.2985" lon="7.04039"><ele></ele><time>2016-9-26T3:42:39Z</time></trkpt>
<trkpt lat="46.29851" lon="7.04044"><ele></ele><time>2016-9-26T3:42:42Z</time></trkpt>
<trkpt lat="46.29852" lon="7.04045"><ele></ele><time>2016-9-26T3:42:45Z</time></trkpt>
<trkpt lat="46.29853" lon="7.04044"><ele></ele><time>2016-9-26T3:42:48Z</time></trkpt>
<trkpt lat="46.29857" lon="7.04042"><ele></ele><time>2016-9-26T3:42:51Z</time></trkpt>
<trkpt lat="46.2986" lon="7.0404"><ele></ele><time>2016-9-26T3:42:54Z</time></trkpt>
<trkpt lat="46.29863" lon="7.04038"><ele></ele><time>2016-9-26T3:42:57Z</time></trkpt>
<trkpt lat="46.29867" lon="7.04036"><ele></ele><time>2016-9-26T3:43:0Z</time></trkpt>
<trkpt lat="46.2987" lon="7.04034"><ele></ele><time>2016-9-26T3:43:3Z</time></trkpt>
<trkpt lat="46.29871" lon="7.04033"><ele></ele><time>2016-9-26T3:43:6Z</time></trkpt>
<trkpt lat="46.29871" lon="7.0403"><ele></ele><time>2016-9-26T3:43:9Z</time></trkpt>
<trkpt lat="46.29871" lon="7.04025"><ele></ele><time>2016-9-26T3:43:12Z</time></trkpt>
<trkpt lat="46.2987" lon="7.04019"><ele></ele><time>2016-9-26T3:43:15Z</time></trkpt>
<trkpt lat="46.2987" lon="7.04014"><ele></ele><time>2016-9-26T3:43:18Z</time></trkpt>
<trkpt lat="46.2987" lon="7.04012"><ele></ele><time>2016-9-26T3:43:21Z</time></trkpt>
<trkpt lat="46.29869" lon="7.04009"><ele></ele><time>2016-9-26T3:43:24Z</time></trkpt>
<trkpt lat="46.29869" lon="7.04004"><ele></ele><time>2016-9-26T3:43:27Z</time></trkpt>
<trkpt lat="46.29868" lon="7.03998"><ele></ele><time>2016-9-26T3:43:30Z</time></trkpt>
<trkpt lat="46.29868" lon="7.03993"><ele></ele><time>2016-9-26T3:43:33Z</time></trkpt>
<trkpt lat="46.29868" lon="7.03988"><ele></ele><time>2016-9-26T3:43:36Z</time></trkpt>
<trkpt lat="46.29867" lon="7.03983"><ele></ele><time>2016-9-26T3:43:39Z</time></trkpt>
<trkpt lat="46.29867" lon="7.03977"><ele></ele><time>2016-9-26T3:43:42Z</time></trkpt>
<trkpt lat="46.29867" lon="7.03975"><ele></ele><time>2016-9-26T3:43:45Z</time></trkpt>
<trkpt lat="46.29866" lon="7.03967"><ele></ele><time>2016-9-26T3:43:48Z</time></trkpt>
<trkpt lat="46.29866" lon="7.03962"><ele></ele><time>2016-9-26T3:43:51Z</time></trkpt>
<trkpt lat="46.29865" lon="7.03956"><ele></ele><time>2016-9-26T3:43:54Z</time></trkpt>
<trkpt lat="46.29865" lon="7.03951"><ele></ele><time>2016-9-26T3:43:57Z</time></trkpt>
<trkpt lat="46.29865" lon="7.03946"><ele></ele><time>2016-9-26T3:44:0Z</time></trkpt>
<trkpt lat="46.29864" lon="7.0394"><ele></ele><time>2016-9-26T3:44:3Z</time></trkpt>
<trkpt lat="46.29864" lon="7.03935"><ele></ele><time>2016-9-26T3:44:6Z</time></trkpt>
<trkpt lat="46.29864" lon="7.0393"><ele></ele><time>2016-9-26T3:44:9Z</time></trkpt>
<trkpt lat="46.29864" lon="7.03924"><ele></ele><time>2016-9-26T3:44:12Z</time></trkpt>
<trkpt lat="46.29863" lon="7.03919"><ele></ele><time>2016-9-26T3:44:15Z</time></trkpt>
<trkpt lat="46.29863" lon="7.03914"><ele></ele><time>2016-9-26T3:44:18Z</time></trkpt>
<trkpt lat="46.29863" lon="7.03908"><ele></ele><time>2016-9-26T3:44:21Z</time></trkpt>
<trkpt lat="46.29862" lon="7.03903"><ele></ele><time>2016-9-26T3:44:24Z</time></trkpt>
<trkpt lat="46.29862" lon="7.03901"><ele></ele><time>2016-9-26T3:44:27Z</time></trkpt>
<trkpt lat="46.29861" lon="7.03898"><ele></ele><time>2016-9-26T3:44:30Z</time></trkpt>
<trkpt lat="46.2986" lon="7.03893"><ele></ele><time>2016-9-26T3:44:33Z</time></trkpt>
<trkpt lat="46.2986" lon="7.0389"><ele></ele><time>2016-9-26T3:44:36Z</time></trkpt>
<trkpt lat="46.29859" lon="7.03888"><ele></ele><time>2016-9-26T3:44:39Z</time></trkpt>
<trkpt lat="46.29858" lon="7.03882"><ele></ele><time>2016-9-26T3:44:42Z</time></trkpt>
<trkpt lat="46.29856" lon="7.03877"><ele></ele><time>2016-9-26T3:44:45Z</time></trkpt>
<trkpt lat="46.29855" lon="7.03872"><ele></ele><time>2016-9-26T3:44:48Z</time></trkpt>
<trkpt lat="46.29854" lon="7.03867"><ele></ele><time>2016-9-26T3:44:51Z</time></trkpt>
<trkpt lat="46.29852" lon="7.03861"><ele></ele><time>2016-9-26T3:44:54Z</time></trkpt>
<trkpt lat="46.29851" lon="7.03856"><ele></ele><time>2016-9-26T3:44:57Z</time></trkpt>
<trkpt lat="46.2985" lon="7.03851"><ele></ele><time>2016-9-26T3:45:0Z</time></trkpt>
<trkpt lat="46.29848" lon="7.03846"><ele></ele><time>2016-9-26T3:45:3Z</time></trkpt>
<trkpt lat="46.29847" lon="7.03841"><ele></ele><time>2016-9-26T3:45:6Z</time></trkpt>
<trkpt lat="46.29846" lon="7.03838"><ele></ele><time>2016-9-26T3:45:9Z</time></trkpt>
<trkpt lat="46.29846" lon="7.03836"><ele></ele><time>2016-9-26T3:45:12Z</time></trkpt>
<trkpt lat="46.29844" lon="7.03832"><ele></ele><time>2016-9-26T3:45:15Z</time></trkpt>
<trkpt lat="46.29843" lon="7.03828"><ele></ele><time>2016-9-26T3:45:18Z</time></trkpt>
<trkpt lat="46.29842" lon="7.03823"><ele></ele><time>2016-9-26T3:45:21Z</time></trkpt>
<trkpt lat="46.2984" lon="7.03819"><ele></ele><time>2016-9-26T3:45:24Z</time></trkpt>
<trkpt lat="46.29839" lon="7.03815"><ele></ele><time>2016-9-26T3:45:27Z</time></trkpt>
<trkpt lat="46.29838" lon="7.03811"><ele></ele><time>2016-9-26T3:45:30Z</time></trkpt>
<trkpt lat="46.29842" lon="7.03811"><ele></ele><time>2016-9-26T3:45:33Z</time></trkpt>
<trkpt lat="46.29845" lon="7.03811"><ele></ele><time>2016-9-26T3:45:36Z</time></trkpt>
<trkpt lat="46.29849" lon="7.0381"><ele></ele><time>2016-9-26T3:45:39Z</time></trkpt>
<trkpt lat="46.29852" lon="7.0381"><ele></ele><time>2016-9-26T3:45:42Z</time></trkpt>
<trkpt lat="46.29856" lon="7.0381"><ele></ele><time>2016-9-26T3:45:45Z</time></trkpt>
<trkpt lat="46.29857" lon="7.0381"><ele></ele><time>2016-9-26T3:45:48Z</time></trkpt>
<trkpt lat="46.29859" lon="7.03812"><ele></ele><time>2016-9-26T3:45:51Z</time></trkpt>
<trkpt lat="46.29861" lon="7.03816"><ele></ele><time>2016-9-26T3:45:54Z</time></trkpt>
<trkpt lat="46.29863" lon="7.03821"><ele></ele><time>2016-9-26T3:45:57Z</time></trkpt>
<trkpt lat="46.29865" lon="7.03825"><ele></ele><time>2016-9-26T3:46:0Z</time></trkpt>
<trkpt lat="46.29867" lon="7.03829"><ele></ele><time>2016-9-26T3:46:3Z</time></trkpt>
<trkpt lat="46.2987" lon="7.03833"><ele></ele><time>2016-9-26T3:46:6Z</time></trkpt>
<trkpt lat="46.29872" lon="7.03837"><ele></ele><time>2016-9-26T3:46:9Z</time></trkpt>
<trkpt lat="46.29874" lon="7.03842"><ele></ele><time>2016-9-26T3:46:12Z</time></trkpt>
<trkpt lat="46.29876" lon="7.03846"><ele></ele><time>2016-9-26T3:46:15Z</time></trkpt>
<trkpt lat="46.29879" lon="7.0385"><ele></ele><time>2016-9-26T3:46:18Z</time></trkpt>
<trkpt lat="46.29881" lon="7.03854"><ele></ele><time>2016-9-26T3:46:21Z</time></trkpt>
<trkpt lat="46.29883" lon="7.03859"><ele></ele><time>2016-9-26T3:46:24Z</time></trkpt>
<trkpt lat="46.29885" lon="7.03863"><ele></ele><time>2016-9-26T3:46:27Z</time></trkpt>
<trkpt lat="46.29887" lon="7.03866"><ele></ele><time>2016-9-26T3:46:30Z</time></trkpt>
<trkpt lat="46.29889" lon="7.0387"><ele></ele><time>2016-9-26T3:46:33Z</time></trkpt>
<trkpt lat="46.29891" lon="7.03874"><ele></ele><time>2016-9-26T3:46:36Z</time></trkpt>
<trkpt lat="46.29893" lon="7.03878"><ele></ele><time>2016-9-26T3:46:39Z</time></trkpt>
<trkpt lat="46.29896" lon="7.03881"><ele></ele><time>2016-9-26T3:46:42Z</time></trkpt>
<trkpt lat="46.29898" lon="7.03885"><ele></ele><time>2016-9-26T3:46:45Z</time></trkpt>
<trkpt lat="46.299" lon="7.03889"><ele></ele><time>2016-9-26T3:46:48Z</time></trkpt>
<trkpt lat="46.29902" lon="7.03892"><ele></ele><time>2016-9-26T3:46:51Z</time></trkpt>
<trkpt lat="46.29904" lon="7.03896"><ele></ele><time>2016-9-26T3:46:54Z</time></trkpt>
<trkpt lat="46.29906" lon="7.039"><ele></ele><time>2016-9-26T3:46:57Z</time></trkpt>
<trkpt lat="46.29908" lon="7.03904"><ele></ele><time>2016-9-26T3:47:0Z</time></trkpt>
<trkpt lat="46.2991" lon="7.03907"><ele></ele><time>2016-9-26T3:47:3Z</time></trkpt>
<trkpt lat="46.29912" lon="7.03911"><ele></ele><time>2016-9-26T3:47:6Z</time></trkpt>
<trkpt lat="46.29914" lon="7.03915"><ele></ele><time>2016-9-26T3:47:9Z</time></trkpt>
<trkpt lat="46.29917" lon="7.03918"><ele></ele><time>2016-9-26T3:47:12Z</time></trkpt>
<trkpt lat="46.29919" lon="7.03922"><ele></ele><time>2016-9-26T3:47:15Z</time></trkpt>
<trkpt lat="46.29922" lon="7.03926"><ele></ele><time>2016-9-26T3:47:18Z</time></trkpt>
<trkpt lat="46.29923" lon="7.03928"><ele></ele><time>2016-9-26T3:47:21Z</time></trkpt>
<trkpt lat="46.29924" lon="7.03929"><ele></ele><time>2016-9-26T3:47:24Z</time></trkpt>
<trkpt lat="46.29927" lon="7.03933"><ele></ele><time>2016-9-26T3:47:27Z</time></trkpt>
<trkpt lat="46.29929" lon="7.03937"><ele></ele><time>2016-9-26T3:47:30Z</time></trkpt>
<trkpt lat="46.29931" lon="7.0394"><ele></ele><time>2016-9-26T3:47:33Z</time></trkpt>
<trkpt lat="46.29934" lon="7.03944"><ele></ele><time>2016-9-26T3:47:36Z</time></trkpt>
<trkpt lat="46.29936" lon="7.03948"><ele></ele><time>2016-9-26T3:47:39Z</time></trkpt>
<trkpt lat="46.29939" lon="7.03951"><ele></ele><time>2016-9-26T3:47:42Z</time></trkpt>
<trkpt lat="46.29941" lon="7.03955"><ele></ele><time>2016-9-26T3:47:45Z</time></trkpt>
<trkpt lat="46.29943" lon="7.03959"><ele></ele><time>2016-9-26T3:47:48Z</time></trkpt>
<trkpt lat="46.29946" lon="7.03962"><ele></ele><time>2016-9-26T3:47:51Z</time></trkpt>
<trkpt lat="46.29948" lon="7.03966"><ele></ele><time>2016-9-26T3:47:54Z</time></trkpt>
<trkpt lat="46.29949" lon="7.03967"><ele></ele><time>2016-9-26T3:47:57Z</time></trkpt>
<trkpt lat="46.2995" lon="7.03969"><ele></ele><time>2016-9-26T3:48:0Z</time></trkpt>
<trkpt lat="46.29952" lon="7.03972"><ele></ele><time>2016-9-26T3:48:3Z</time></trkpt>
<trkpt lat="46.29953" lon="7.03976"><ele></ele><time>2016-9-26T3:48:6Z</time></trkpt>
<trkpt lat="46.29955" lon="7.03979"><ele></ele><time>2016-9-26T3:48:9Z</time></trkpt>
<trkpt lat="46.29957" lon="7.03983"><ele></ele><time>2016-9-26T3:48:12Z</time></trkpt>
<trkpt lat="46.29959" lon="7.03986"><ele></ele><time>2016-9-26T3:48:15Z</time></trkpt>
<trkpt lat="46.29961" lon="7.03989"><ele></ele><time>2016-9-26T3:48:18Z</time></trkpt>
<trkpt lat="46.29963" lon="7.03993"><ele></ele><time>2016-9-26T3:48:21Z</time></trkpt>
<trkpt lat="46.29965" lon="7.03996"><ele></ele><time>2016-9-26T3:48:24Z</time></trkpt>
<trkpt lat="46.29967" lon="7.03999"><ele></ele><time>2016-9-26T3:48:27Z</time></trkpt>
<trkpt lat="46.29969" lon="7.04003"><ele></ele><time>2016-9-26T3:48:30Z</time></trkpt>
<trkpt lat="46.2997" lon="7.04004"><ele></ele><time>2016-9-26T3:48:33Z</time></trkpt>
<trkpt lat="46.29971" lon="7.04006"><ele></ele><time>2016-9-26T3:48:36Z</time></trkpt>
<trkpt lat="46.29973" lon="7.04009"><ele></ele><time>2016-9-26T3:48:39Z</time></trkpt>
<trkpt lat="46.29974" lon="7.04013"><ele></ele><time>2016-9-26T3:48:42Z</time></trkpt>
<trkpt lat="46.29976" lon="7.04016"><ele></ele><time>2016-9-26T3:48:45Z</time></trkpt>
<trkpt lat="46.29978" lon="7.0402"><ele></ele><time>2016-9-26T3:48:48Z</time></trkpt>
<trkpt lat="46.29979" lon="7.04024"><ele></ele><time>2016-9-26T3:48:51Z</time></trkpt>
<trkpt lat="46.29981" lon="7.04027"><ele></ele><time>2016-9-26T3:48:54Z</time></trkpt>
<trkpt lat="46.29982" lon="7.04031"><ele></ele><time>2016-9-26T3:48:57Z</time></trkpt>
<trkpt lat="46.29984" lon="7.04035"><ele></ele><time>2016-9-26T3:49:0Z</time></trkpt>
<trkpt lat="46.29985" lon="7.04038"><ele></ele><time>2016-9-26T3:49:3Z</time></trkpt>
<trkpt lat="46.29987" lon="7.04042"><ele></ele><time>2016-9-26T3:49:6Z</time></trkpt>
<trkpt lat="46.29988" lon="7.04046"><ele></ele><time>2016-9-26T3:49:9Z</time></trkpt>
<trkpt lat="46.2999" lon="7.04049"><ele></ele><time>2016-9-26T3:49:12Z</time></trkpt>
<trkpt lat="46.29991" lon="7.04053"><ele></ele><time>2016-9-26T3:49:15Z</time></trkpt>
<trkpt lat="46.29993" lon="7.04057"><ele></ele><time>2016-9-26T3:49:18Z</time></trkpt>
<trkpt lat="46.29994" lon="7.0406"><ele></ele><time>2016-9-26T3:49:21Z</time></trkpt>
<trkpt lat="46.29996" lon="7.04064"><ele></ele><time>2016-9-26T3:49:24Z</time></trkpt>
<trkpt lat="46.29998" lon="7.04068"><ele></ele><time>2016-9-26T3:49:27Z</time></trkpt>
<trkpt lat="46.29998" lon="7.04069"><ele></ele><time>2016-9-26T3:49:30Z</time></trkpt>
<trkpt lat="46.29999" lon="7.04072"><ele></ele><time>2016-9-26T3:49:33Z</time></trkpt>
<trkpt lat="46.3" lon="7.04076"><ele></ele><time>2016-9-26T3:49:36Z</time></trkpt>
<trkpt lat="46.30001" lon="7.04081"><ele></ele><time>2016-9-26T3:49:39Z</time></trkpt>
<trkpt lat="46.30002" lon="7.04085"><ele></ele><time>2016-9-26T3:49:42Z</time></trkpt>
<trkpt lat="46.30004" lon="7.0409"><ele></ele><time>2016-9-26T3:49:45Z</time></trkpt>
<trkpt lat="46.30004" lon="7.04092"><ele></ele><time>2016-9-26T3:49:48Z</time></trkpt>
<trkpt lat="46.30005" lon="7.04094"><ele></ele><time>2016-9-26T3:49:51Z</time></trkpt>
<trkpt lat="46.30006" lon="7.04098"><ele></ele><time>2016-9-26T3:49:54Z</time></trkpt>
<trkpt lat="46.30007" lon="7.04103"><ele></ele><time>2016-9-26T3:49:57Z</time></trkpt>
<trkpt lat="46.30009" lon="7.04107"><ele></ele><time>2016-9-26T3:50:0Z</time></trkpt>
<trkpt lat="46.3001" lon="7.04112"><ele></ele><time>2016-9-26T3:50:3Z</time></trkpt>
<trkpt lat="46.30011" lon="7.04116"><ele></ele><time>2016-9-26T3:50:6Z</time></trkpt>
<trkpt lat="46.30012" lon="7.04121"><ele></ele><time>2016-9-26T3:50:9Z</time></trkpt>
<trkpt lat="46.30013" lon="7.04125"><ele></ele><time>2016-9-26T3:50:12Z</time></trkpt>
<trkpt lat="46.30015" lon="7.0413"><ele></ele><time>2016-9-26T3:50:15Z</time></trkpt>
<trkpt lat="46.30015" lon="7.04132"><ele></ele><time>2016-9-26T3:50:18Z</time></trkpt>
<trkpt lat="46.30016" lon="7.04134"><ele></ele><time>2016-9-26T3:50:21Z</time></trkpt>
<trkpt lat="46.30018" lon="7.04138"><ele></ele><time>2016-9-26T3:50:24Z</time></trkpt>
<trkpt lat="46.30019" lon="7.0414"><ele></ele><time>2016-9-26T3:50:27Z</time></trkpt>
<trkpt lat="46.3002" lon="7.04142"><ele></ele><time>2016-9-26T3:50:30Z</time></trkpt>
<trkpt lat="46.30022" lon="7.04146"><ele></ele><time>2016-9-26T3:50:33Z</time></trkpt>
<trkpt lat="46.30024" lon="7.0415"><ele></ele><time>2016-9-26T3:50:36Z</time></trkpt>
<trkpt lat="46.30025" lon="7.04154"><ele></ele><time>2016-9-26T3:50:39Z</time></trkpt>
<trkpt lat="46.30027" lon="7.04158"><ele></ele><time>2016-9-26T3:50:42Z</time></trkpt>
<trkpt lat="46.30029" lon="7.04162"><ele></ele><time>2016-9-26T3:50:45Z</time></trkpt>
<trkpt lat="46.30031" lon="7.04166"><ele></ele><time>2016-9-26T3:50:48Z</time></trkpt>
<trkpt lat="46.30033" lon="7.0417"><ele></ele><time>2016-9-26T3:50:51Z</time></trkpt>
<trkpt lat="46.30035" lon="7.04174"><ele></ele><time>2016-9-26T3:50:54Z</time></trkpt>
<trkpt lat="46.30037" lon="7.04178"><ele></ele><time>2016-9-26T3:50:57Z</time></trkpt>
<trkpt lat="46.30038" lon="7.04182"><ele></ele><time>2016-9-26T3:51:0Z</time></trkpt>
<trkpt lat="46.3004" lon="7.04186"><ele></ele><time>2016-9-26T3:51:3Z</time></trkpt>
<trkpt lat="46.30042" lon="7.0419"><ele></ele><time>2016-9-26T3:51:6Z</time></trkpt>
<trkpt lat="46.30044" lon="7.04194"><ele></ele><time>2016-9-26T3:51:9Z</time></trkpt>
<trkpt lat="46.30046" lon="7.04198"><ele></ele><time>2016-9-26T3:51:12Z</time></trkpt>
<trkpt lat="46.30048" lon="7.04202"><ele></ele><time>2016-9-26T3:51:15Z</time></trkpt>
<trkpt lat="46.3005" lon="7.04206"><ele></ele><time>2016-9-26T3:51:18Z</time></trkpt>
<trkpt lat="46.30051" lon="7.0421"><ele></ele><time>2016-9-26T3:51:21Z</time></trkpt>
<trkpt lat="46.30053" lon="7.04214"><ele></ele><time>2016-9-26T3:51:24Z</time></trkpt>
<trkpt lat="46.30055" lon="7.04218"><ele></ele><time>2016-9-26T3:51:27Z</time></trkpt>
<trkpt lat="46.30056" lon="7.0422"><ele></ele><time>2016-9-26T3:51:30Z</time></trkpt>
<trkpt lat="46.30057" lon="7.04222"><ele></ele><time>2016-9-26T3:51:33Z</time></trkpt>
<trkpt lat="46.30059" lon="7.04226"><ele></ele><time>2016-9-26T3:51:36Z</time></trkpt>
<trkpt lat="46.30061" lon="7.0423"><ele></ele><time>2016-9-26T3:51:39Z</time></trkpt>
<trkpt lat="46.30063" lon="7.04233"><ele></ele><time>2016-9-26T3:51:42Z</time></trkpt>
<trkpt lat="46.30064" lon="7.04237"><ele></ele><time>2016-9-26T3:51:45Z</time></trkpt>
<trkpt lat="46.30066" lon="7.04242"><ele></ele><time>2016-9-26T3:51:48Z</time></trkpt>
<trkpt lat="46.30068" lon="7.04247"><ele></ele><time>2016-9-26T3:51:51Z</time></trkpt>
<trkpt lat="46.3007" lon="7.04252"><ele></ele><time>2016-9-26T3:51:54Z</time></trkpt>
<trkpt lat="46.30072" lon="7.04257"><ele></ele><time>2016-9-26T3:51:57Z</time></trkpt>
<trkpt lat="46.30074" lon="7.04262"><ele></ele><time>2016-9-26T3:52:0Z</time></trkpt>
<trkpt lat="46.30076" lon="7.04267"><ele></ele><time>2016-9-26T3:52:3Z</time></trkpt>
<trkpt lat="46.30078" lon="7.04272"><ele></ele><time>2016-9-26T3:52:6Z</time></trkpt>
<trkpt lat="46.3008" lon="7.04278"><ele></ele><time>2016-9-26T3:52:9Z</time></trkpt>
<trkpt lat="46.30082" lon="7.04283"><ele></ele><time>2016-9-26T3:52:12Z</time></trkpt>
<trkpt lat="46.30084" lon="7.04288"><ele></ele><time>2016-9-26T3:52:15Z</time></trkpt>
<trkpt lat="46.30086" lon="7.04293"><ele></ele><time>2016-9-26T3:52:18Z</time></trkpt>
<trkpt lat="46.30088" lon="7.04298"><ele></ele><time>2016-9-26T3:52:21Z</time></trkpt>
<trkpt lat="46.30091" lon="7.04304"><ele></ele><time>2016-9-26T3:52:24Z</time></trkpt>
<trkpt lat="46.30093" lon="7.04309"><ele></ele><time>2016-9-26T3:52:27Z</time></trkpt>
<trkpt lat="46.30095" lon="7.04315"><ele></ele><time>2016-9-26T3:52:30Z</time></trkpt>
<trkpt lat="46.30098" lon="7.0432"><ele></ele><time>2016-9-26T3:52:33Z</time></trkpt>
<trkpt lat="46.301" lon="7.04326"><ele></ele><time>2016-9-26T3:52:36Z</time></trkpt>
<trkpt lat="46.30102" lon="7.04331"><ele></ele><time>2016-9-26T3:52:39Z</time></trkpt>
<trkpt lat="46.30105" lon="7.04337"><ele></ele><time>2016-9-26T3:52:42Z</time></trkpt>
<trkpt lat="46.30107" lon="7.04343"><ele></ele><time>2016-9-26T3:52:45Z</time></trkpt>
<trkpt lat="46.30109" lon="7.04348"><ele></ele><time>2016-9-26T3:52:48Z</time></trkpt>
<trkpt lat="46.30111" lon="7.04354"><ele></ele><time>2016-9-26T3:52:51Z</time></trkpt>
<trkpt lat="46.30113" lon="7.04356"><ele></ele><time>2016-9-26T3:52:54Z</time></trkpt>
<trkpt lat="46.30114" lon="7.04359"><ele></ele><time>2016-9-26T3:52:57Z</time></trkpt>
<trkpt lat="46.30116" lon="7.04365"><ele></ele><time>2016-9-26T3:53:0Z</time></trkpt>
<trkpt lat="46.30118" lon="7.04371"><ele></ele><time>2016-9-26T3:53:3Z</time></trkpt>
<trkpt lat="46.3012" lon="7.04377"><ele></ele><time>2016-9-26T3:53:6Z</time></trkpt>
<trkpt lat="46.30122" lon="7.04382"><ele></ele><time>2016-9-26T3:53:9Z</time></trkpt>
<trkpt lat="46.30124" lon="7.04388"><ele></ele><time>2016-9-26T3:53:12Z</time></trkpt>
<trkpt lat="46.30127" lon="7.04394"><ele></ele><time>2016-9-26T3:53:15Z</time></trkpt>
<trkpt lat="46.30129" lon="7.044"><ele></ele><time>2016-9-26T3:53:18Z</time></trkpt>
<trkpt lat="46.30131" lon="7.04405"><ele></ele><time>2016-9-26T3:53:21Z</time></trkpt>
<trkpt lat="46.30133" lon="7.04411"><ele></ele><time>2016-9-26T3:53:24Z</time></trkpt>
<trkpt lat="46.30134" lon="7.04414"><ele></ele><time>2016-9-26T3:53:27Z</time></trkpt>
<trkpt lat="46.30135" lon="7.04417"><ele></ele><time>2016-9-26T3:53:30Z</time></trkpt>
<trkpt lat="46.30137" lon="7.04423"><ele></ele><time>2016-9-26T3:53:33Z</time></trkpt>
<trkpt lat="46.30139" lon="7.04429"><ele></ele><time>2016-9-26T3:53:36Z</time></trkpt>
<trkpt lat="46.30141" lon="7.04435"><ele></ele><time>2016-9-26T3:53:39Z</time></trkpt>
<trkpt lat="46.30143" lon="7.04441"><ele></ele><time>2016-9-26T3:53:42Z</time></trkpt>
<trkpt lat="46.30145" lon="7.04446"><ele></ele><time>2016-9-26T3:53:45Z</time></trkpt>
<trkpt lat="46.30146" lon="7.04452"><ele></ele><time>2016-9-26T3:53:48Z</time></trkpt>
<trkpt lat="46.30148" lon="7.04458"><ele></ele><time>2016-9-26T3:53:51Z</time></trkpt>
<trkpt lat="46.3015" lon="7.04464"><ele></ele><time>2016-9-26T3:53:54Z</time></trkpt>
<trkpt lat="46.30152" lon="7.0447"><ele></ele><time>2016-9-26T3:53:57Z</time></trkpt>
<trkpt lat="46.30153" lon="7.04473"><ele></ele><time>2016-9-26T3:54:0Z</time></trkpt>
<trkpt lat="46.30154" lon="7.04476"><ele></ele><time>2016-9-26T3:54:3Z</time></trkpt>
<trkpt lat="46.30157" lon="7.04481"><ele></ele><time>2016-9-26T3:54:6Z</time></trkpt>
<trkpt lat="46.30159" lon="7.04486"><ele></ele><time>2016-9-26T3:54:9Z</time></trkpt>
<trkpt lat="46.30161" lon="7.04491"><ele></ele><time>2016-9-26T3:54:12Z</time></trkpt>
<trkpt lat="46.30164" lon="7.04496"><ele></ele><time>2016-9-26T3:54:15Z</time></trkpt>
<trkpt lat="46.30166" lon="7.04501"><ele></ele><time>2016-9-26T3:54:18Z</time></trkpt>
<trkpt lat="46.30168" lon="7.04507"><ele></ele><time>2016-9-26T3:54:21Z</time></trkpt>
<trkpt lat="46.30171" lon="7.04512"><ele></ele><time>2016-9-26T3:54:24Z</time></trkpt>
<trkpt lat="46.30173" lon="7.04517"><ele></ele><time>2016-9-26T3:54:27Z</time></trkpt>
<trkpt lat="46.30175" lon="7.04522"><ele></ele><time>2016-9-26T3:54:30Z</time></trkpt>
<trkpt lat="46.30178" lon="7.04527"><ele></ele><time>2016-9-26T3:54:33Z</time></trkpt>
<trkpt lat="46.3018" lon="7.04533"><ele></ele><time>2016-9-26T3:54:36Z</time></trkpt>
<trkpt lat="46.30182" lon="7.04538"><ele></ele><time>2016-9-26T3:54:39Z</time></trkpt>
<trkpt lat="46.30183" lon="7.04541"><ele></ele><time>2016-9-26T3:54:42Z</time></trkpt>
<trkpt lat="46.30184" lon="7.04544"><ele></ele><time>2016-9-26T3:54:45Z</time></trkpt>
<trkpt lat="46.30186" lon="7.04549"><ele></ele><time>2016-9-26T3:54:48Z</time></trkpt>
<trkpt lat="46.30188" lon="7.04555"><ele></ele><time>2016-9-26T3:54:51Z</time></trkpt>
<trkpt lat="46.3019" lon="7.0456"><ele></ele><time>2016-9-26T3:54:54Z</time></trkpt>
<trkpt lat="46.30192" lon="7.04566"><ele></ele><time>2016-9-26T3:54:57Z</time></trkpt>
<trkpt lat="46.30194" lon="7.04571"><ele></ele><time>2016-9-26T3:55:0Z</time></trkpt>
<trkpt lat="46.30196" lon="7.04577"><ele></ele><time>2016-9-26T3:55:3Z</time></trkpt>
<trkpt lat="46.30198" lon="7.04582"><ele></ele><time>2016-9-26T3:55:6Z</time></trkpt>
<trkpt lat="46.302" lon="7.04588"><ele></ele><time>2016-9-26T3:55:9Z</time></trkpt>
<trkpt lat="46.302" lon="7.04594"><ele></ele><time>2016-9-26T3:55:12Z</time></trkpt>
<trkpt lat="46.302" lon="7.04601"><ele></ele><time>2016-9-26T3:55:15Z</time></trkpt>
<trkpt lat="46.302" lon="7.04604"><ele></ele><time>2016-9-26T3:55:18Z</time></trkpt>
<trkpt lat="46.302" lon="7.04607"><ele></ele><time>2016-9-26T3:55:21Z</time></trkpt>
<trkpt lat="46.302" lon="7.04614"><ele></ele><time>2016-9-26T3:55:24Z</time></trkpt>
<trkpt lat="46.302" lon="7.0462"><ele></ele><time>2016-9-26T3:55:27Z</time></trkpt>
<trkpt lat="46.302" lon="7.04627"><ele></ele><time>2016-9-26T3:55:30Z</time></trkpt>
<trkpt lat="46.30201" lon="7.04633"><ele></ele><time>2016-9-26T3:55:33Z</time></trkpt>
<trkpt lat="46.30201" lon="7.0464"><ele></ele><time>2016-9-26T3:55:36Z</time></trkpt>
<trkpt lat="46.30201" lon="7.04646"><ele></ele><time>2016-9-26T3:55:39Z</time></trkpt>
<trkpt lat="46.30201" lon="7.04653"><ele></ele><time>2016-9-26T3:55:42Z</time></trkpt>
<trkpt lat="46.302" lon="7.0466"><ele></ele><time>2016-9-26T3:55:45Z</time></trkpt>
<trkpt lat="46.302" lon="7.04667"><ele></ele><time>2016-9-26T3:55:48Z</time></trkpt>
<trkpt lat="46.30199" lon="7.04674"><ele></ele><time>2016-9-26T3:55:51Z</time></trkpt>
<trkpt lat="46.30199" lon="7.0468"><ele></ele><time>2016-9-26T3:55:54Z</time></trkpt>
<trkpt lat="46.30198" lon="7.04687"><ele></ele><time>2016-9-26T3:55:57Z</time></trkpt>
<trkpt lat="46.30198" lon="7.04694"><ele></ele><time>2016-9-26T3:56:0Z</time></trkpt>
<trkpt lat="46.30197" lon="7.04701"><ele></ele><time>2016-9-26T3:56:3Z</time></trkpt>
<trkpt lat="46.30196" lon="7.04708"><ele></ele><time>2016-9-26T3:56:6Z</time></trkpt>
<trkpt lat="46.30196" lon="7.04715"><ele></ele><time>2016-9-26T3:56:9Z</time></trkpt>
<trkpt lat="46.30195" lon="7.04718"><ele></ele><time>2016-9-26T3:56:12Z</time></trkpt>
<trkpt lat="46.30195" lon="7.04722"><ele></ele><time>2016-9-26T3:56:15Z</time></trkpt>
<trkpt lat="46.30194" lon="7.04729"><ele></ele><time>2016-9-26T3:56:18Z</time></trkpt>
<trkpt lat="46.30194" lon="7.04736"><ele></ele><time>2016-9-26T3:56:21Z</time></trkpt>
<trkpt lat="46.30193" lon="7.04743"><ele></ele><time>2016-9-26T3:56:24Z</time></trkpt>
<trkpt lat="46.30192" lon="7.0475"><ele></ele><time>2016-9-26T3:56:27Z</time></trkpt>
<trkpt lat="46.30192" lon="7.04757"><ele></ele><time>2016-9-26T3:56:30Z</time></trkpt>
<trkpt lat="46.30191" lon="7.04764"><ele></ele><time>2016-9-26T3:56:33Z</time></trkpt>
<trkpt lat="46.3019" lon="7.04771"><ele></ele><time>2016-9-26T3:56:36Z</time></trkpt>
<trkpt lat="46.3019" lon="7.04774"><ele></ele><time>2016-9-26T3:56:39Z</time></trkpt>
<trkpt lat="46.3019" lon="7.04777"><ele></ele><time>2016-9-26T3:56:42Z</time></trkpt>
<trkpt lat="46.30189" lon="7.04785"><ele></ele><time>2016-9-26T3:56:45Z</time></trkpt>
<trkpt lat="46.30188" lon="7.04792"><ele></ele><time>2016-9-26T3:56:48Z</time></trkpt>
<trkpt lat="46.30187" lon="7.048"><ele></ele><time>2016-9-26T3:56:51Z</time></trkpt>
<trkpt lat="46.30187" lon="7.04808"><ele></ele><time>2016-9-26T3:56:54Z</time></trkpt>
<trkpt lat="46.30186" lon="7.04816"><ele></ele><time>2016-9-26T3:56:57Z</time></trkpt>
<trkpt lat="46.30185" lon="7.04823"><ele></ele><time>2016-9-26T3:57:0Z</time></trkpt>
<trkpt lat="46.30184" lon="7.04831"><ele></ele><time>2016-9-26T3:57:3Z</time></trkpt>
<trkpt lat="46.30183" lon="7.04839"><ele></ele><time>2016-9-26T3:57:6Z</time></trkpt>
<trkpt lat="46.30182" lon="7.04847"><ele></ele><time>2016-9-26T3:57:9Z</time></trkpt>
<trkpt lat="46.30182" lon="7.0485"><ele></ele><time>2016-9-26T3:57:12Z</time></trkpt>
<trkpt lat="46.30181" lon="7.04854"><ele></ele><time>2016-9-26T3:57:15Z</time></trkpt>
<trkpt lat="46.3018" lon="7.04862"><ele></ele><time>2016-9-26T3:57:18Z</time></trkpt>
<trkpt lat="46.30179" lon="7.04869"><ele></ele><time>2016-9-26T3:57:21Z</time></trkpt>
<trkpt lat="46.30178" lon="7.04877"><ele></ele><time>2016-9-26T3:57:24Z</time></trkpt>
<trkpt lat="46.30176" lon="7.04884"><ele></ele><time>2016-9-26T3:57:27Z</time></trkpt>
<trkpt lat="46.30175" lon="7.04892"><ele></ele><time>2016-9-26T3:57:30Z</time></trkpt>
<trkpt lat="46.30174" lon="7.049"><ele></ele><time>2016-9-26T3:57:33Z</time></trkpt>
<trkpt lat="46.30173" lon="7.04907"><ele></ele><time>2016-9-26T3:57:36Z</time></trkpt>
<trkpt lat="46.30171" lon="7.04915"><ele></ele><time>2016-9-26T3:57:39Z</time></trkpt>
<trkpt lat="46.30169" lon="7.04922"><ele></ele><time>2016-9-26T3:57:42Z</time></trkpt>
<trkpt lat="46.30167" lon="7.04929"><ele></ele><time>2016-9-26T3:57:45Z</time></trkpt>
<trkpt lat="46.30165" lon="7.04936"><ele></ele><time>2016-9-26T3:57:48Z</time></trkpt>
<trkpt lat="46.30163" lon="7.04944"><ele></ele><time>2016-9-26T3:57:51Z</time></trkpt>
<trkpt lat="46.30161" lon="7.04951"><ele></ele><time>2016-9-26T3:57:54Z</time></trkpt>
<trkpt lat="46.30159" lon="7.04958"><ele></ele><time>2016-9-26T3:57:57Z</time></trkpt>
<trkpt lat="46.30157" lon="7.04965"><ele></ele><time>2016-9-26T3:58:0Z</time></trkpt>
<trkpt lat="46.30155" lon="7.04972"><ele></ele><time>2016-9-26T3:58:3Z</time></trkpt>
<trkpt lat="46.30154" lon="7.04976"><ele></ele><time>2016-9-26T3:58:6Z</time></trkpt>
<trkpt lat="46.30153" lon="7.0498"><ele></ele><time>2016-9-26T3:58:9Z</time></trkpt>
<trkpt lat="46.30152" lon="7.04983"><ele></ele><time>2016-9-26T3:58:12Z</time></trkpt>
<trkpt lat="46.30151" lon="7.04987"><ele></ele><time>2016-9-26T3:58:15Z</time></trkpt>
<trkpt lat="46.30148" lon="7.04994"><ele></ele><time>2016-9-26T3:58:18Z</time></trkpt>
<trkpt lat="46.30146" lon="7.05001"><ele></ele><time>2016-9-26T3:58:21Z</time></trkpt>
<trkpt lat="46.30144" lon="7.05008"><ele></ele><time>2016-9-26T3:58:24Z</time></trkpt>
<trkpt lat="46.30141" lon="7.05015"><ele></ele><time>2016-9-26T3:58:27Z</time></trkpt>
<trkpt lat="46.30139" lon="7.05022"><ele></ele><time>2016-9-26T3:58:30Z</time></trkpt>
<trkpt lat="46.30137" lon="7.05029"><ele></ele><time>2016-9-26T3:58:33Z</time></trkpt>
<trkpt lat="46.30134" lon="7.05036"><ele></ele><time>2016-9-26T3:58:36Z</time></trkpt>
<trkpt lat="46.3013" lon="7.05043"><ele></ele><time>2016-9-26T3:58:39Z</time></trkpt>
<trkpt lat="46.30126" lon="7.0505"><ele></ele><time>2016-9-26T3:58:42Z</time></trkpt>
<trkpt lat="46.30122" lon="7.05057"><ele></ele><time>2016-9-26T3:58:45Z</time></trkpt>
<trkpt lat="46.30118" lon="7.05063"><ele></ele><time>2016-9-26T3:58:48Z</time></trkpt>
<trkpt lat="46.30114" lon="7.0507"><ele></ele><time>2016-9-26T3:58:51Z</time></trkpt>
<trkpt lat="46.30112" lon="7.05074"><ele></ele><time>2016-9-26T3:58:54Z</time></trkpt>
<trkpt lat="46.3011" lon="7.05077"><ele></ele><time>2016-9-26T3:58:57Z</time></trkpt>
<trkpt lat="46.30106" lon="7.05084"><ele></ele><time>2016-9-26T3:59:0Z</time></trkpt>
<trkpt lat="46.30104" lon="7.05087"><ele></ele><time>2016-9-26T3:59:3Z</time></trkpt>
<trkpt lat="46.30102" lon="7.0509"><ele></ele><time>2016-9-26T3:59:6Z</time></trkpt>
<trkpt lat="46.30097" lon="7.05097"><ele></ele><time>2016-9-26T3:59:9Z</time></trkpt>
<trkpt lat="46.30093" lon="7.05104"><ele></ele><time>2016-9-26T3:59:12Z</time></trkpt>
<trkpt lat="46.30088" lon="7.0511"><ele></ele><time>2016-9-26T3:59:15Z</time></trkpt>
<trkpt lat="46.30084" lon="7.05117"><ele></ele><time>2016-9-26T3:59:18Z</time></trkpt>
<trkpt lat="46.30079" lon="7.05124"><ele></ele><time>2016-9-26T3:59:21Z</time></trkpt>
<trkpt lat="46.30075" lon="7.0513"><ele></ele><time>2016-9-26T3:59:24Z</time></trkpt>
<trkpt lat="46.30073" lon="7.05134"><ele></ele><time>2016-9-26T3:59:27Z</time></trkpt>
<trkpt lat="46.3007" lon="7.05137"><ele></ele><time>2016-9-26T3:59:30Z</time></trkpt>
<trkpt lat="46.30065" lon="7.05145"><ele></ele><time>2016-9-26T3:59:33Z</time></trkpt>
<trkpt lat="46.3006" lon="7.05152"><ele></ele><time>2016-9-26T3:59:36Z</time></trkpt>
<trkpt lat="46.30056" lon="7.0516"><ele></ele><time>2016-9-26T3:59:39Z</time></trkpt>
<trkpt lat="46.30051" lon="7.05167"><ele></ele><time>2016-9-26T3:59:42Z</time></trkpt>
<trkpt lat="46.30046" lon="7.05175"><ele></ele><time>2016-9-26T3:59:45Z</time></trkpt>
<trkpt lat="46.30041" lon="7.05182"><ele></ele><time>2016-9-26T3:59:48Z</time></trkpt>
<trkpt lat="46.30035" lon="7.05188"><ele></ele><time>2016-9-26T3:59:51Z</time></trkpt>
<trkpt lat="46.3003" lon="7.05193"><ele></ele><time>2016-9-26T3:59:54Z</time></trkpt>
<trkpt lat="46.30024" lon="7.05199"><ele></ele><time>2016-9-26T3:59:57Z</time></trkpt>
<trkpt lat="46.30019" lon="7.05205"><ele></ele><time>2016-9-26T4:0:0Z</time></trkpt>
<trkpt lat="46.30013" lon="7.05211"><ele></ele><time>2016-9-26T4:0:3Z</time></trkpt>
<trkpt lat="46.30007" lon="7.05216"><ele></ele><time>2016-9-26T4:0:6Z</time></trkpt>
<trkpt lat="46.30002" lon="7.05222"><ele></ele><time>2016-9-26T4:0:9Z</time></trkpt>
<trkpt lat="46.29996" lon="7.05227"><ele></ele><time>2016-9-26T4:0:12Z</time></trkpt>
<trkpt lat="46.29993" lon="7.0523"><ele></ele><time>2016-9-26T4:0:15Z</time></trkpt>
<trkpt lat="46.29985" lon="7.05238"><ele></ele><time>2016-9-26T4:0:18Z</time></trkpt>
<trkpt lat="46.29979" lon="7.05244"><ele></ele><time>2016-9-26T4:0:21Z</time></trkpt>
<trkpt lat="46.29973" lon="7.05249"><ele></ele><time>2016-9-26T4:0:24Z</time></trkpt>
<trkpt lat="46.29967" lon="7.05255"><ele></ele><time>2016-9-26T4:0:27Z</time></trkpt>
<trkpt lat="46.29962" lon="7.0526"><ele></ele><time>2016-9-26T4:0:30Z</time></trkpt>
<trkpt lat="46.29956" lon="7.05265"><ele></ele><time>2016-9-26T4:0:33Z</time></trkpt>
<trkpt lat="46.29954" lon="7.05267"><ele></ele><time>2016-9-26T4:0:36Z</time></trkpt>
<trkpt lat="46.29951" lon="7.0527"><ele></ele><time>2016-9-26T4:0:39Z</time></trkpt>
<trkpt lat="46.29945" lon="7.05275"><ele></ele><time>2016-9-26T4:0:42Z</time></trkpt>
<trkpt lat="46.2994" lon="7.05279"><ele></ele><time>2016-9-26T4:0:45Z</time></trkpt>
<trkpt lat="46.29935" lon="7.05284"><ele></ele><time>2016-9-26T4:0:48Z</time></trkpt>
<trkpt lat="46.29929" lon="7.05289"><ele></ele><time>2016-9-26T4:0:51Z</time></trkpt>
<trkpt lat="46.29924" lon="7.05294"><ele></ele><time>2016-9-26T4:0:54Z</time></trkpt>
<trkpt lat="46.29922" lon="7.05297"><ele></ele><time>2016-9-26T4:0:57Z</time></trkpt>
<trkpt lat="46.29921" lon="7.05301"><ele></ele><time>2016-9-26T4:1:0Z</time></trkpt>
<trkpt lat="46.29919" lon="7.05309"><ele></ele><time>2016-9-26T4:1:3Z</time></trkpt>
<trkpt lat="46.29918" lon="7.05313"><ele></ele><time>2016-9-26T4:1:6Z</time></trkpt>
<trkpt lat="46.29917" lon="7.05317"><ele></ele><time>2016-9-26T4:1:9Z</time></trkpt>
<trkpt lat="46.29915" lon="7.05325"><ele></ele><time>2016-9-26T4:1:12Z</time></trkpt>
<trkpt lat="46.29913" lon="7.05333"><ele></ele><time>2016-9-26T4:1:15Z</time></trkpt>
<trkpt lat="46.29911" lon="7.05341"><ele></ele><time>2016-9-26T4:1:18Z</time></trkpt>
<trkpt lat="46.29909" lon="7.05349"><ele></ele><time>2016-9-26T4:1:21Z</time></trkpt>
<trkpt lat="46.29907" lon="7.05357"><ele></ele><time>2016-9-26T4:1:24Z</time></trkpt>
<trkpt lat="46.29906" lon="7.05361"><ele></ele><time>2016-9-26T4:1:27Z</time></trkpt>
<trkpt lat="46.29905" lon="7.05365"><ele></ele><time>2016-9-26T4:1:30Z</time></trkpt>
<trkpt lat="46.29902" lon="7.05373"><ele></ele><time>2016-9-26T4:1:33Z</time></trkpt>
<trkpt lat="46.299" lon="7.05382"><ele></ele><time>2016-9-26T4:1:36Z</time></trkpt>
<trkpt lat="46.29898" lon="7.0539"><ele></ele><time>2016-9-26T4:1:39Z</time></trkpt>
<trkpt lat="46.29896" lon="7.05398"><ele></ele><time>2016-9-26T4:1:42Z</time></trkpt>
<trkpt lat="46.29894" lon="7.05406"><ele></ele><time>2016-9-26T4:1:45Z</time></trkpt>
<trkpt lat="46.29892" lon="7.05414"><ele></ele><time>2016-9-26T4:1:48Z</time></trkpt>
<trkpt lat="46.2989" lon="7.05422"><ele></ele><time>2016-9-26T4:1:51Z</time></trkpt>
<trkpt lat="46.29889" lon="7.05426"><ele></ele><time>2016-9-26T4:1:54Z</time></trkpt>
<trkpt lat="46.29887" lon="7.05428"><ele></ele><time>2016-9-26T4:1:57Z</time></trkpt>
<trkpt lat="46.29883" lon="7.05433"><ele></ele><time>2016-9-26T4:2:0Z</time></trkpt>
<trkpt lat="46.29879" lon="7.05438"><ele></ele><time>2016-9-26T4:2:3Z</time></trkpt>
<trkpt lat="46.29876" lon="7.05442"><ele></ele><time>2016-9-26T4:2:6Z</time></trkpt>
<trkpt lat="46.29872" lon="7.05447"><ele></ele><time>2016-9-26T4:2:9Z</time></trkpt>
<trkpt lat="46.29868" lon="7.05452"><ele></ele><time>2016-9-26T4:2:12Z</time></trkpt>
<trkpt lat="46.29866" lon="7.05454"><ele></ele><time>2016-9-26T4:2:15Z</time></trkpt>
<trkpt lat="46.29863" lon="7.05454"><ele></ele><time>2016-9-26T4:2:18Z</time></trkpt>
<trkpt lat="46.29858" lon="7.05454"><ele></ele><time>2016-9-26T4:2:21Z</time></trkpt>
<trkpt lat="46.29852" lon="7.05454"><ele></ele><time>2016-9-26T4:2:24Z</time></trkpt>
<trkpt lat="46.29847" lon="7.05455"><ele></ele><time>2016-9-26T4:2:27Z</time></trkpt>
<trkpt lat="46.29841" lon="7.05455"><ele></ele><time>2016-9-26T4:2:30Z</time></trkpt>
<trkpt lat="46.29836" lon="7.05455"><ele></ele><time>2016-9-26T4:2:33Z</time></trkpt>
<trkpt lat="46.29831" lon="7.05456"><ele></ele><time>2016-9-26T4:2:36Z</time></trkpt>
<trkpt lat="46.29825" lon="7.05456"><ele></ele><time>2016-9-26T4:2:39Z</time></trkpt>
<trkpt lat="46.2982" lon="7.05456"><ele></ele><time>2016-9-26T4:2:42Z</time></trkpt>
<trkpt lat="46.29814" lon="7.05455"><ele></ele><time>2016-9-26T4:2:45Z</time></trkpt>
<trkpt lat="46.29808" lon="7.05454"><ele></ele><time>2016-9-26T4:2:48Z</time></trkpt>
<trkpt lat="46.29802" lon="7.05453"><ele></ele><time>2016-9-26T4:2:51Z</time></trkpt>
<trkpt lat="46.29796" lon="7.05452"><ele></ele><time>2016-9-26T4:2:54Z</time></trkpt>
<trkpt lat="46.2979" lon="7.05451"><ele></ele><time>2016-9-26T4:2:57Z</time></trkpt>
<trkpt lat="46.29784" lon="7.0545"><ele></ele><time>2016-9-26T4:3:0Z</time></trkpt>
<trkpt lat="46.29778" lon="7.05449"><ele></ele><time>2016-9-26T4:3:3Z</time></trkpt>
<trkpt lat="46.29775" lon="7.05449"><ele></ele><time>2016-9-26T4:3:6Z</time></trkpt>
<trkpt lat="46.29771" lon="7.05449"><ele></ele><time>2016-9-26T4:3:9Z</time></trkpt>
<trkpt lat="46.29764" lon="7.0545"><ele></ele><time>2016-9-26T4:3:12Z</time></trkpt>
<trkpt lat="46.29757" lon="7.0545"><ele></ele><time>2016-9-26T4:3:15Z</time></trkpt>
<trkpt lat="46.2975" lon="7.05451"><ele></ele><time>2016-9-26T4:3:18Z</time></trkpt>
<trkpt lat="46.29743" lon="7.05451"><ele></ele><time>2016-9-26T4:3:21Z</time></trkpt>
<trkpt lat="46.29736" lon="7.05452"><ele></ele><time>2016-9-26T4:3:24Z</time></trkpt>
<trkpt lat="46.29729" lon="7.05453"><ele></ele><time>2016-9-26T4:3:27Z</time></trkpt>
<trkpt lat="46.29725" lon="7.0546"><ele></ele><time>2016-9-26T4:3:30Z</time></trkpt>
<trkpt lat="46.2972" lon="7.05466"><ele></ele><time>2016-9-26T4:3:33Z</time></trkpt>
<trkpt lat="46.29715" lon="7.05473"><ele></ele><time>2016-9-26T4:3:36Z</time></trkpt>
<trkpt lat="46.2971" lon="7.05479"><ele></ele><time>2016-9-26T4:3:39Z</time></trkpt>
<trkpt lat="46.29705" lon="7.05485"><ele></ele><time>2016-9-26T4:3:42Z</time></trkpt>
<trkpt lat="46.29702" lon="7.05489"><ele></ele><time>2016-9-26T4:3:45Z</time></trkpt>
<trkpt lat="46.297" lon="7.05492"><ele></ele><time>2016-9-26T4:3:48Z</time></trkpt>
<trkpt lat="46.29695" lon="7.05498"><ele></ele><time>2016-9-26T4:3:51Z</time></trkpt>
<trkpt lat="46.29691" lon="7.05504"><ele></ele><time>2016-9-26T4:3:54Z</time></trkpt>
<trkpt lat="46.29689" lon="7.05507"><ele></ele><time>2016-9-26T4:3:57Z</time></trkpt>
<trkpt lat="46.29682" lon="7.05517"><ele></ele><time>2016-9-26T4:4:0Z</time></trkpt>
<trkpt lat="46.29678" lon="7.05523"><ele></ele><time>2016-9-26T4:4:3Z</time></trkpt>
<trkpt lat="46.29674" lon="7.05529"><ele></ele><time>2016-9-26T4:4:6Z</time></trkpt>
<trkpt lat="46.29669" lon="7.05535"><ele></ele><time>2016-9-26T4:4:9Z</time></trkpt>
<trkpt lat="46.29665" lon="7.05541"><ele></ele><time>2016-9-26T4:4:12Z</time></trkpt>
<trkpt lat="46.29663" lon="7.05544"><ele></ele><time>2016-9-26T4:4:15Z</time></trkpt>
<trkpt lat="46.29661" lon="7.05546"><ele></ele><time>2016-9-26T4:4:18Z</time></trkpt>
<trkpt lat="46.29657" lon="7.0555"><ele></ele><time>2016-9-26T4:4:21Z</time></trkpt>
<trkpt lat="46.29653" lon="7.05554"><ele></ele><time>2016-9-26T4:4:24Z</time></trkpt>
<trkpt lat="46.29649" lon="7.05559"><ele></ele><time>2016-9-26T4:4:27Z</time></trkpt>
<trkpt lat="46.29645" lon="7.05563"><ele></ele><time>2016-9-26T4:4:30Z</time></trkpt>
<trkpt lat="46.29641" lon="7.05567"><ele></ele><time>2016-9-26T4:4:33Z</time></trkpt>
<trkpt lat="46.29637" lon="7.05572"><ele></ele><time>2016-9-26T4:4:36Z</time></trkpt>
<trkpt lat="46.29633" lon="7.05576"><ele></ele><time>2016-9-26T4:4:39Z</time></trkpt>
<trkpt lat="46.29629" lon="7.0558"><ele></ele><time>2016-9-26T4:4:42Z</time></trkpt>
<trkpt lat="46.29625" lon="7.05584"><ele></ele><time>2016-9-26T4:4:45Z</time></trkpt>
<trkpt lat="46.2962" lon="7.05585"><ele></ele><time>2016-9-26T4:4:48Z</time></trkpt>
<trkpt lat="46.29615" lon="7.05585"><ele></ele><time>2016-9-26T4:4:51Z</time></trkpt>
<trkpt lat="46.29611" lon="7.05586"><ele></ele><time>2016-9-26T4:4:54Z</time></trkpt>
<trkpt lat="46.29606" lon="7.05586"><ele></ele><time>2016-9-26T4:4:57Z</time></trkpt>
<trkpt lat="46.29601" lon="7.05587"><ele></ele><time>2016-9-26T4:5:0Z</time></trkpt>
<trkpt lat="46.29597" lon="7.05587"><ele></ele><time>2016-9-26T4:5:3Z</time></trkpt>
<trkpt lat="46.29592" lon="7.05588"><ele></ele><time>2016-9-26T4:5:6Z</time></trkpt>
<trkpt lat="46.29587" lon="7.05589"><ele></ele><time>2016-9-26T4:5:9Z</time></trkpt>
<trkpt lat="46.29582" lon="7.05589"><ele></ele><time>2016-9-26T4:5:12Z</time></trkpt>
<trkpt lat="46.29578" lon="7.0559"><ele></ele><time>2016-9-26T4:5:15Z</time></trkpt>
<trkpt lat="46.29573" lon="7.05591"><ele></ele><time>2016-9-26T4:5:18Z</time></trkpt>
<trkpt lat="46.29569" lon="7.05591"><ele></ele><time>2016-9-26T4:5:21Z</time></trkpt>
<trkpt lat="46.29567" lon="7.05592"><ele></ele><time>2016-9-26T4:5:24Z</time></trkpt>
<trkpt lat="46.2956" lon="7.05593"><ele></ele><time>2016-9-26T4:5:27Z</time></trkpt>
<trkpt lat="46.29558" lon="7.05594"><ele></ele><time>2016-9-26T4:5:30Z</time></trkpt>
<trkpt lat="46.29561" lon="7.05603"><ele></ele><time>2016-9-26T4:5:33Z</time></trkpt>
<trkpt lat="46.29563" lon="7.0561"><ele></ele><time>2016-9-26T4:5:36Z</time></trkpt>
<trkpt lat="46.29568" lon="7.056"><ele></ele><time>2016-9-26T4:5:39Z</time></trkpt>
<trkpt lat="46.29568" lon="7.056"><ele></ele><time>2016-9-26T4:5:42Z</time></trkpt>
<trkpt lat="46.29572" lon="7.05584"><ele></ele><time>2016-9-26T4:5:45Z</time></trkpt>
<trkpt lat="46.29571" lon="7.05583"><ele></ele><time>2016-9-26T4:5:48Z</time></trkpt>
<trkpt lat="46.2957" lon="7.05582"><ele></ele><time>2016-9-26T4:5:51Z</time></trkpt>
<trkpt lat="46.29567" lon="7.0558"><ele></ele><time>2016-9-26T4:5:54Z</time></trkpt>
<trkpt lat="46.29559" lon="7.05577"><ele></ele><time>2016-9-26T4:5:57Z</time></trkpt>
<trkpt lat="46.29551" lon="7.05578"><ele></ele><time>2016-9-26T4:6:0Z</time></trkpt>
<trkpt lat="46.29543" lon="7.05579"><ele></ele><time>2016-9-26T4:6:3Z</time></trkpt>
<trkpt lat="46.29535" lon="7.0558"><ele></ele><time>2016-9-26T4:6:6Z</time></trkpt>
<trkpt lat="46.29526" lon="7.05581"><ele></ele><time>2016-9-26T4:6:9Z</time></trkpt>
<trkpt lat="46.29518" lon="7.05582"><ele></ele><time>2016-9-26T4:6:12Z</time></trkpt>
<trkpt lat="46.29514" lon="7.05583"><ele></ele><time>2016-9-26T4:6:15Z</time></trkpt>
<trkpt lat="46.29509" lon="7.05582"><ele></ele><time>2016-9-26T4:6:18Z</time></trkpt>
<trkpt lat="46.295" lon="7.05582"><ele></ele><time>2016-9-26T4:6:21Z</time></trkpt>
<trkpt lat="46.29491" lon="7.05581"><ele></ele><time>2016-9-26T4:6:24Z</time></trkpt>
<trkpt lat="46.29482" lon="7.05581"><ele></ele><time>2016-9-26T4:6:27Z</time></trkpt>
<trkpt lat="46.29472" lon="7.05581"><ele></ele><time>2016-9-26T4:6:30Z</time></trkpt>
<trkpt lat="46.29467" lon="7.0558"><ele></ele><time>2016-9-26T4:6:33Z</time></trkpt>
<trkpt lat="46.29462" lon="7.0558"><ele></ele><time>2016-9-26T4:6:36Z</time></trkpt>
<trkpt lat="46.2945" lon="7.0558"><ele></ele><time>2016-9-26T4:6:39Z</time></trkpt>
<trkpt lat="46.29439" lon="7.0558"><ele></ele><time>2016-9-26T4:6:42Z</time></trkpt>
<trkpt lat="46.29428" lon="7.0558"><ele></ele><time>2016-9-26T4:6:45Z</time></trkpt>
<trkpt lat="46.29422" lon="7.0558"><ele></ele><time>2016-9-26T4:6:48Z</time></trkpt>
<trkpt lat="46.29415" lon="7.05578"><ele></ele><time>2016-9-26T4:6:51Z</time></trkpt>
<trkpt lat="46.29403" lon="7.05576"><ele></ele><time>2016-9-26T4:6:54Z</time></trkpt>
<trkpt lat="46.2939" lon="7.05573"><ele></ele><time>2016-9-26T4:6:57Z</time></trkpt>
<trkpt lat="46.29378" lon="7.0557"><ele></ele><time>2016-9-26T4:7:0Z</time></trkpt>
<trkpt lat="46.29372" lon="7.05568"><ele></ele><time>2016-9-26T4:7:3Z</time></trkpt>
<trkpt lat="46.29366" lon="7.05565"><ele></ele><time>2016-9-26T4:7:6Z</time></trkpt>
<trkpt lat="46.29354" lon="7.05557"><ele></ele><time>2016-9-26T4:7:9Z</time></trkpt>
<trkpt lat="46.29343" lon="7.05549"><ele></ele><time>2016-9-26T4:7:12Z</time></trkpt>
<trkpt lat="46.29337" lon="7.05546"><ele></ele><time>2016-9-26T4:7:15Z</time></trkpt>
<trkpt lat="46.29331" lon="7.05545"><ele></ele><time>2016-9-26T4:7:18Z</time></trkpt>
<trkpt lat="46.29319" lon="7.05544"><ele></ele><time>2016-9-26T4:7:21Z</time></trkpt>
<trkpt lat="46.29306" lon="7.0555"><ele></ele><time>2016-9-26T4:7:24Z</time></trkpt>
<trkpt lat="46.293" lon="7.05553"><ele></ele><time>2016-9-26T4:7:27Z</time></trkpt>
<trkpt lat="46.2928" lon="7.05562"><ele></ele><time>2016-9-26T4:7:30Z</time></trkpt>
<trkpt lat="46.29274" lon="7.05565"><ele></ele><time>2016-9-26T4:7:33Z</time></trkpt>
<trkpt lat="46.29269" lon="7.05568"><ele></ele><time>2016-9-26T4:7:36Z</time></trkpt>
<trkpt lat="46.29263" lon="7.05571"><ele></ele><time>2016-9-26T4:7:39Z</time></trkpt>
<trkpt lat="46.29247" lon="7.05581"><ele></ele><time>2016-9-26T4:7:42Z</time></trkpt>
<trkpt lat="46.29236" lon="7.05587"><ele></ele><time>2016-9-26T4:7:45Z</time></trkpt>
<trkpt lat="46.2923" lon="7.0559"><ele></ele><time>2016-9-26T4:7:48Z</time></trkpt>
<trkpt lat="46.29225" lon="7.05592"><ele></ele><time>2016-9-26T4:7:51Z</time></trkpt>
<trkpt lat="46.29214" lon="7.05597"><ele></ele><time>2016-9-26T4:7:54Z</time></trkpt>
<trkpt lat="46.29208" lon="7.05598"><ele></ele><time>2016-9-26T4:7:57Z</time></trkpt>
<trkpt lat="46.29204" lon="7.05598"><ele></ele><time>2016-9-26T4:8:0Z</time></trkpt>
<trkpt lat="46.29194" lon="7.05598"><ele></ele><time>2016-9-26T4:8:3Z</time></trkpt>
<trkpt lat="46.29185" lon="7.05598"><ele></ele><time>2016-9-26T4:8:6Z</time></trkpt>
<trkpt lat="46.29175" lon="7.05597"><ele></ele><time>2016-9-26T4:8:9Z</time></trkpt>
<trkpt lat="46.29162" lon="7.05593"><ele></ele><time>2016-9-26T4:8:12Z</time></trkpt>
<trkpt lat="46.2915" lon="7.05589"><ele></ele><time>2016-9-26T4:8:15Z</time></trkpt>
<trkpt lat="46.29138" lon="7.05586"><ele></ele><time>2016-9-26T4:8:18Z</time></trkpt>
<trkpt lat="46.29134" lon="7.0559"><ele></ele><time>2016-9-26T4:8:21Z</time></trkpt>
<trkpt lat="46.29131" lon="7.05598"><ele></ele><time>2016-9-26T4:8:24Z</time></trkpt>
<trkpt lat="46.29129" lon="7.05608"><ele></ele><time>2016-9-26T4:8:27Z</time></trkpt>
<trkpt lat="46.29129" lon="7.05622"><ele></ele><time>2016-9-26T4:8:30Z</time></trkpt>
<trkpt lat="46.29127" lon="7.05649"><ele></ele><time>2016-9-26T4:8:33Z</time></trkpt>
<trkpt lat="46.29127" lon="7.05663"><ele></ele><time>2016-9-26T4:8:36Z</time></trkpt>
<trkpt lat="46.29126" lon="7.05677"><ele></ele><time>2016-9-26T4:8:39Z</time></trkpt>
<trkpt lat="46.29121" lon="7.05708"><ele></ele><time>2016-9-26T4:8:42Z</time></trkpt>
<trkpt lat="46.29119" lon="7.05722"><ele></ele><time>2016-9-26T4:8:45Z</time></trkpt>
<trkpt lat="46.29116" lon="7.05735"><ele></ele><time>2016-9-26T4:8:48Z</time></trkpt>
<trkpt lat="46.29111" lon="7.0576"><ele></ele><time>2016-9-26T4:8:51Z</time></trkpt>
<trkpt lat="46.29105" lon="7.05784"><ele></ele><time>2016-9-26T4:8:54Z</time></trkpt>
<trkpt lat="46.291" lon="7.058"><ele></ele><time>2016-9-26T4:8:57Z</time></trkpt>
<trkpt lat="46.29094" lon="7.05817"><ele></ele><time>2016-9-26T4:9:0Z</time></trkpt>
<trkpt lat="46.29089" lon="7.05834"><ele></ele><time>2016-9-26T4:9:3Z</time></trkpt>
<trkpt lat="46.29086" lon="7.05842"><ele></ele><time>2016-9-26T4:9:6Z</time></trkpt>
<trkpt lat="46.29083" lon="7.0585"><ele></ele><time>2016-9-26T4:9:9Z</time></trkpt>
<trkpt lat="46.29075" lon="7.05862"><ele></ele><time>2016-9-26T4:9:12Z</time></trkpt>
<trkpt lat="46.29067" lon="7.05874"><ele></ele><time>2016-9-26T4:9:15Z</time></trkpt>
<trkpt lat="46.29059" lon="7.05886"><ele></ele><time>2016-9-26T4:9:18Z</time></trkpt>
<trkpt lat="46.29051" lon="7.05899"><ele></ele><time>2016-9-26T4:9:21Z</time></trkpt>
<trkpt lat="46.29044" lon="7.05915"><ele></ele><time>2016-9-26T4:9:24Z</time></trkpt>
<trkpt lat="46.29038" lon="7.05932"><ele></ele><time>2016-9-26T4:9:27Z</time></trkpt>
<trkpt lat="46.29031" lon="7.05949"><ele></ele><time>2016-9-26T4:9:30Z</time></trkpt>
<trkpt lat="46.29028" lon="7.05957"><ele></ele><time>2016-9-26T4:9:33Z</time></trkpt>
<trkpt lat="46.29026" lon="7.05967"><ele></ele><time>2016-9-26T4:9:36Z</time></trkpt>
<trkpt lat="46.29021" lon="7.05987"><ele></ele><time>2016-9-26T4:9:39Z</time></trkpt>
<trkpt lat="46.2902" lon="7.05998"><ele></ele><time>2016-9-26T4:9:42Z</time></trkpt>
<trkpt lat="46.2902" lon="7.0601"><ele></ele><time>2016-9-26T4:9:45Z</time></trkpt>
<trkpt lat="46.29022" lon="7.06035"><ele></ele><time>2016-9-26T4:9:48Z</time></trkpt>
<trkpt lat="46.29022" lon="7.06046"><ele></ele><time>2016-9-26T4:9:51Z</time></trkpt>
<trkpt lat="46.2902" lon="7.06056"><ele></ele><time>2016-9-26T4:9:54Z</time></trkpt>
<trkpt lat="46.29017" lon="7.06075"><ele></ele><time>2016-9-26T4:9:57Z</time></trkpt>
<trkpt lat="46.29016" lon="7.06083"><ele></ele><time>2016-9-26T4:10:0Z</time></trkpt>
<trkpt lat="46.29015" lon="7.06087"><ele></ele><time>2016-9-26T4:10:3Z</time></trkpt>
<trkpt lat="46.29013" lon="7.06094"><ele></ele><time>2016-9-26T4:10:6Z</time></trkpt>
<trkpt lat="46.29011" lon="7.06102"><ele></ele><time>2016-9-26T4:10:9Z</time></trkpt>
<trkpt lat="46.29009" lon="7.0611"><ele></ele><time>2016-9-26T4:10:12Z</time></trkpt>
<trkpt lat="46.29007" lon="7.06118"><ele></ele><time>2016-9-26T4:10:15Z</time></trkpt>
<trkpt lat="46.29006" lon="7.0612"><ele></ele><time>2016-9-26T4:10:18Z</time></trkpt>
<trkpt lat="46.29005" lon="7.0612"><ele></ele><time>2016-9-26T4:10:21Z</time></trkpt>
<trkpt lat="46.29004" lon="7.0612"><ele></ele><time>2016-9-26T4:10:24Z</time></trkpt>
<trkpt lat="46.29003" lon="7.06119"><ele></ele><time>2016-9-26T4:10:27Z</time></trkpt>
<trkpt lat="46.29003" lon="7.06119"><ele></ele><time>2016-9-26T4:10:30Z</time></trkpt>
<trkpt lat="46.29002" lon="7.06118"><ele></ele><time>2016-9-26T4:10:33Z</time></trkpt>
<trkpt lat="46.29003" lon="7.06116"><ele></ele><time>2016-9-26T4:10:36Z</time></trkpt>
<trkpt lat="46.29005" lon="7.06111"><ele></ele><time>2016-9-26T4:10:39Z</time></trkpt>
<trkpt lat="46.29006" lon="7.06109"><ele></ele><time>2016-9-26T4:10:42Z</time></trkpt>
<trkpt lat="46.29007" lon="7.06107"><ele></ele><time>2016-9-26T4:10:45Z</time></trkpt>
<trkpt lat="46.29008" lon="7.06102"><ele></ele><time>2016-9-26T4:10:48Z</time></trkpt>
<trkpt lat="46.29009" lon="7.061"><ele></ele><time>2016-9-26T4:10:51Z</time></trkpt>
<trkpt lat="46.29012" lon="7.06094"><ele></ele><time>2016-9-26T4:10:54Z</time></trkpt>
<trkpt lat="46.29014" lon="7.06089"><ele></ele><time>2016-9-26T4:10:57Z</time></trkpt>
<trkpt lat="46.29016" lon="7.06085"><ele></ele><time>2016-9-26T4:11:0Z</time></trkpt>
<trkpt lat="46.29018" lon="7.06081"><ele></ele><time>2016-9-26T4:11:3Z</time></trkpt>
<trkpt lat="46.29021" lon="7.06084"><ele></ele><time>2016-9-26T4:11:6Z</time></trkpt>
<trkpt lat="46.29024" lon="7.06087"><ele></ele><time>2016-9-26T4:11:9Z</time></trkpt>
<trkpt lat="46.29026" lon="7.0609"><ele></ele><time>2016-9-26T4:11:12Z</time></trkpt>
<trkpt lat="46.29029" lon="7.06093"><ele></ele><time>2016-9-26T4:11:15Z</time></trkpt>
<trkpt lat="46.29031" lon="7.06095"><ele></ele><time>2016-9-26T4:11:18Z</time></trkpt>
<trkpt lat="46.29032" lon="7.06096"><ele></ele><time>2016-9-26T4:11:21Z</time></trkpt>
<trkpt lat="46.29035" lon="7.06099"><ele></ele><time>2016-9-26T4:11:24Z</time></trkpt>
<trkpt lat="46.29038" lon="7.06103"><ele></ele><time>2016-9-26T4:11:27Z</time></trkpt>
<trkpt lat="46.2904" lon="7.06104"><ele></ele><time>2016-9-26T4:11:30Z</time></trkpt>
<trkpt lat="46.29041" lon="7.06106"><ele></ele><time>2016-9-26T4:11:33Z</time></trkpt>
<trkpt lat="46.29044" lon="7.06109"><ele></ele><time>2016-9-26T4:11:36Z</time></trkpt>
<trkpt lat="46.29047" lon="7.06112"><ele></ele><time>2016-9-26T4:11:39Z</time></trkpt>
<trkpt lat="46.2905" lon="7.06115"><ele></ele><time>2016-9-26T4:11:42Z</time></trkpt>
<trkpt lat="46.29053" lon="7.06118"><ele></ele><time>2016-9-26T4:11:45Z</time></trkpt>
<trkpt lat="46.29056" lon="7.06121"><ele></ele><time>2016-9-26T4:11:48Z</time></trkpt>
<trkpt lat="46.29059" lon="7.06127"><ele></ele><time>2016-9-26T4:11:51Z</time></trkpt>
<trkpt lat="46.29063" lon="7.06133"><ele></ele><time>2016-9-26T4:11:54Z</time></trkpt>
<trkpt lat="46.29066" lon="7.06139"><ele></ele><time>2016-9-26T4:11:57Z</time></trkpt>
<trkpt lat="46.2907" lon="7.06145"><ele></ele><time>2016-9-26T4:12:0Z</time></trkpt>
<trkpt lat="46.29073" lon="7.06151"><ele></ele><time>2016-9-26T4:12:3Z</time></trkpt>
<trkpt lat="46.29077" lon="7.06158"><ele></ele><time>2016-9-26T4:12:6Z</time></trkpt>
<trkpt lat="46.29083" lon="7.06175"><ele></ele><time>2016-9-26T4:12:9Z</time></trkpt>
<trkpt lat="46.29086" lon="7.06183"><ele></ele><time>2016-9-26T4:12:12Z</time></trkpt>
<trkpt lat="46.29089" lon="7.06188"><ele></ele><time>2016-9-26T4:12:15Z</time></trkpt>
<trkpt lat="46.2909" lon="7.06206"><ele></ele><time>2016-9-26T4:12:18Z</time></trkpt>
<trkpt lat="46.2909" lon="7.06215"><ele></ele><time>2016-9-26T4:12:21Z</time></trkpt>
<trkpt lat="46.29087" lon="7.06225"><ele></ele><time>2016-9-26T4:12:24Z</time></trkpt>
<trkpt lat="46.29082" lon="7.06246"><ele></ele><time>2016-9-26T4:12:27Z</time></trkpt>
<trkpt lat="46.29076" lon="7.06267"><ele></ele><time>2016-9-26T4:12:30Z</time></trkpt>
<trkpt lat="46.29074" lon="7.06278"><ele></ele><time>2016-9-26T4:12:33Z</time></trkpt>
<trkpt lat="46.29072" lon="7.06291"><ele></ele><time>2016-9-26T4:12:36Z</time></trkpt>
<trkpt lat="46.29069" lon="7.06317"><ele></ele><time>2016-9-26T4:12:39Z</time></trkpt>
<trkpt lat="46.29068" lon="7.06329"><ele></ele><time>2016-9-26T4:12:42Z</time></trkpt>
<trkpt lat="46.2907" lon="7.06339"><ele></ele><time>2016-9-26T4:12:45Z</time></trkpt>
<trkpt lat="46.29072" lon="7.06349"><ele></ele><time>2016-9-26T4:12:48Z</time></trkpt>
<trkpt lat="46.29074" lon="7.06359"><ele></ele><time>2016-9-26T4:12:51Z</time></trkpt>
<trkpt lat="46.29073" lon="7.06413"><ele></ele><time>2016-9-26T4:12:54Z</time></trkpt>
<trkpt lat="46.29073" lon="7.06413"><ele></ele><time>2016-9-26T4:12:57Z</time></trkpt>
<trkpt lat="46.29069" lon="7.06448"><ele></ele><time>2016-9-26T4:13:0Z</time></trkpt>
<trkpt lat="46.29069" lon="7.06449"><ele></ele><time>2016-9-26T4:13:3Z</time></trkpt>
<trkpt lat="46.29069" lon="7.06451"><ele></ele><time>2016-9-26T4:13:6Z</time></trkpt>
<trkpt lat="46.29068" lon="7.06453"><ele></ele><time>2016-9-26T4:13:9Z</time></trkpt>
<trkpt lat="46.29068" lon="7.06454"><ele></ele><time>2016-9-26T4:13:12Z</time></trkpt>
<trkpt lat="46.29067" lon="7.06457"><ele></ele><time>2016-9-26T4:13:15Z</time></trkpt>
<trkpt lat="46.29059" lon="7.06462"><ele></ele><time>2016-9-26T4:13:18Z</time></trkpt>
<trkpt lat="46.2905" lon="7.06468"><ele></ele><time>2016-9-26T4:13:21Z</time></trkpt>
<trkpt lat="46.29042" lon="7.06473"><ele></ele><time>2016-9-26T4:13:24Z</time></trkpt>
<trkpt lat="46.29034" lon="7.06479"><ele></ele><time>2016-9-26T4:13:27Z</time></trkpt>
<trkpt lat="46.29026" lon="7.06484"><ele></ele><time>2016-9-26T4:13:30Z</time></trkpt>
<trkpt lat="46.29022" lon="7.06487"><ele></ele><time>2016-9-26T4:13:33Z</time></trkpt>
<trkpt lat="46.29016" lon="7.0649"><ele></ele><time>2016-9-26T4:13:36Z</time></trkpt>
<trkpt lat="46.29004" lon="7.06494"><ele></ele><time>2016-9-26T4:13:39Z</time></trkpt>
<trkpt lat="46.28992" lon="7.065"><ele></ele><time>2016-9-26T4:13:42Z</time></trkpt>
<trkpt lat="46.2898" lon="7.06504"><ele></ele><time>2016-9-26T4:13:45Z</time></trkpt>
<trkpt lat="46.28974" lon="7.06507"><ele></ele><time>2016-9-26T4:13:48Z</time></trkpt>
<trkpt lat="46.28967" lon="7.06509"><ele></ele><time>2016-9-26T4:13:51Z</time></trkpt>
<trkpt lat="46.28954" lon="7.06514"><ele></ele><time>2016-9-26T4:13:54Z</time></trkpt>
<trkpt lat="46.28941" lon="7.06518"><ele></ele><time>2016-9-26T4:13:57Z</time></trkpt>
<trkpt lat="46.28928" lon="7.06523"><ele></ele><time>2016-9-26T4:14:0Z</time></trkpt>
<trkpt lat="46.28915" lon="7.06528"><ele></ele><time>2016-9-26T4:14:3Z</time></trkpt>
<trkpt lat="46.28901" lon="7.06533"><ele></ele><time>2016-9-26T4:14:6Z</time></trkpt>
<trkpt lat="46.28887" lon="7.06537"><ele></ele><time>2016-9-26T4:14:9Z</time></trkpt>
<trkpt lat="46.2888" lon="7.0654"><ele></ele><time>2016-9-26T4:14:12Z</time></trkpt>
<trkpt lat="46.28874" lon="7.06543"><ele></ele><time>2016-9-26T4:14:15Z</time></trkpt>
<trkpt lat="46.2886" lon="7.06549"><ele></ele><time>2016-9-26T4:14:18Z</time></trkpt>
<trkpt lat="46.28847" lon="7.06555"><ele></ele><time>2016-9-26T4:14:21Z</time></trkpt>
<trkpt lat="46.28834" lon="7.0656"><ele></ele><time>2016-9-26T4:14:24Z</time></trkpt>
<trkpt lat="46.28821" lon="7.06564"><ele></ele><time>2016-9-26T4:14:27Z</time></trkpt>
<trkpt lat="46.28814" lon="7.06566"><ele></ele><time>2016-9-26T4:14:30Z</time></trkpt>
<trkpt lat="46.28807" lon="7.06566"><ele></ele><time>2016-9-26T4:14:33Z</time></trkpt>
<trkpt lat="46.28801" lon="7.06569"><ele></ele><time>2016-9-26T4:14:36Z</time></trkpt>
<trkpt lat="46.28796" lon="7.06576"><ele></ele><time>2016-9-26T4:14:39Z</time></trkpt>
<trkpt lat="46.28786" lon="7.0659"><ele></ele><time>2016-9-26T4:14:42Z</time></trkpt>
<trkpt lat="46.28776" lon="7.06604"><ele></ele><time>2016-9-26T4:14:45Z</time></trkpt>
<trkpt lat="46.28772" lon="7.06611"><ele></ele><time>2016-9-26T4:14:48Z</time></trkpt>
<trkpt lat="46.28763" lon="7.06639"><ele></ele><time>2016-9-26T4:14:51Z</time></trkpt>
<trkpt lat="46.28758" lon="7.06657"><ele></ele><time>2016-9-26T4:14:54Z</time></trkpt>
<trkpt lat="46.28762" lon="7.06678"><ele></ele><time>2016-9-26T4:14:57Z</time></trkpt>
<trkpt lat="46.28765" lon="7.06699"><ele></ele><time>2016-9-26T4:15:0Z</time></trkpt>
<trkpt lat="46.28773" lon="7.06719"><ele></ele><time>2016-9-26T4:15:3Z</time></trkpt>
<trkpt lat="46.28777" lon="7.06728"><ele></ele><time>2016-9-26T4:15:6Z</time></trkpt>
<trkpt lat="46.28784" lon="7.06737"><ele></ele><time>2016-9-26T4:15:9Z</time></trkpt>
<trkpt lat="46.28797" lon="7.06755"><ele></ele><time>2016-9-26T4:15:12Z</time></trkpt>
<trkpt lat="46.2881" lon="7.06773"><ele></ele><time>2016-9-26T4:15:15Z</time></trkpt>
<trkpt lat="46.28824" lon="7.0679"><ele></ele><time>2016-9-26T4:15:18Z</time></trkpt>
<trkpt lat="46.2883" lon="7.068"><ele></ele><time>2016-9-26T4:15:21Z</time></trkpt>
<trkpt lat="46.28833" lon="7.06815"><ele></ele><time>2016-9-26T4:15:24Z</time></trkpt>
<trkpt lat="46.2883" lon="7.06846"><ele></ele><time>2016-9-26T4:15:27Z</time></trkpt>
<trkpt lat="46.28819" lon="7.06871"><ele></ele><time>2016-9-26T4:15:30Z</time></trkpt>
<trkpt lat="46.28805" lon="7.06894"><ele></ele><time>2016-9-26T4:15:33Z</time></trkpt>
<trkpt lat="46.28799" lon="7.06906"><ele></ele><time>2016-9-26T4:15:36Z</time></trkpt>
<trkpt lat="46.28794" lon="7.06921"><ele></ele><time>2016-9-26T4:15:39Z</time></trkpt>
<trkpt lat="46.2879" lon="7.06936"><ele></ele><time>2016-9-26T4:15:42Z</time></trkpt>
<trkpt lat="46.28791" lon="7.06953"><ele></ele><time>2016-9-26T4:15:45Z</time></trkpt>
<trkpt lat="46.28792" lon="7.06969"><ele></ele><time>2016-9-26T4:15:48Z</time></trkpt>
<trkpt lat="46.28797" lon="7.06984"><ele></ele><time>2016-9-26T4:15:51Z</time></trkpt>
<trkpt lat="46.28812" lon="7.07009"><ele></ele><time>2016-9-26T4:15:54Z</time></trkpt>
<trkpt lat="46.28826" lon="7.07035"><ele></ele><time>2016-9-26T4:15:57Z</time></trkpt>
<trkpt lat="46.28832" lon="7.07047"><ele></ele><time>2016-9-26T4:16:0Z</time></trkpt>
<trkpt lat="46.28838" lon="7.07059"><ele></ele><time>2016-9-26T4:16:3Z</time></trkpt>
<trkpt lat="46.2885" lon="7.07084"><ele></ele><time>2016-9-26T4:16:6Z</time></trkpt>
<trkpt lat="46.28857" lon="7.07113"><ele></ele><time>2016-9-26T4:16:9Z</time></trkpt>
<trkpt lat="46.2886" lon="7.07128"><ele></ele><time>2016-9-26T4:16:12Z</time></trkpt>
<trkpt lat="46.28858" lon="7.07143"><ele></ele><time>2016-9-26T4:16:15Z</time></trkpt>
<trkpt lat="46.28856" lon="7.07157"><ele></ele><time>2016-9-26T4:16:18Z</time></trkpt>
<trkpt lat="46.28851" lon="7.07169"><ele></ele><time>2016-9-26T4:16:21Z</time></trkpt>
<trkpt lat="46.28839" lon="7.07192"><ele></ele><time>2016-9-26T4:16:24Z</time></trkpt>
<trkpt lat="46.28824" lon="7.07207"><ele></ele><time>2016-9-26T4:16:27Z</time></trkpt>
<trkpt lat="46.28806" lon="7.07216"><ele></ele><time>2016-9-26T4:16:30Z</time></trkpt>
<trkpt lat="46.28788" lon="7.07225"><ele></ele><time>2016-9-26T4:16:33Z</time></trkpt>
<trkpt lat="46.2878" lon="7.0723"><ele></ele><time>2016-9-26T4:16:36Z</time></trkpt>
<trkpt lat="46.28773" lon="7.07235"><ele></ele><time>2016-9-26T4:16:39Z</time></trkpt>
<trkpt lat="46.28758" lon="7.07246"><ele></ele><time>2016-9-26T4:16:42Z</time></trkpt>
<trkpt lat="46.28751" lon="7.07251"><ele></ele><time>2016-9-26T4:16:45Z</time></trkpt>
<trkpt lat="46.28744" lon="7.07256"><ele></ele><time>2016-9-26T4:16:48Z</time></trkpt>
<trkpt lat="46.28737" lon="7.07261"><ele></ele><time>2016-9-26T4:16:51Z</time></trkpt>
<trkpt lat="46.2873" lon="7.07265"><ele></ele><time>2016-9-26T4:16:54Z</time></trkpt>
<trkpt lat="46.28715" lon="7.07272"><ele></ele><time>2016-9-26T4:16:57Z</time></trkpt>
<trkpt lat="46.287" lon="7.07269"><ele></ele><time>2016-9-26T4:17:0Z</time></trkpt>
<trkpt lat="46.28684" lon="7.07267"><ele></ele><time>2016-9-26T4:17:3Z</time></trkpt>
<trkpt lat="46.28669" lon="7.07265"><ele></ele><time>2016-9-26T4:17:6Z</time></trkpt>
<trkpt lat="46.28655" lon="7.07264"><ele></ele><time>2016-9-26T4:17:9Z</time></trkpt>
<trkpt lat="46.28641" lon="7.07265"><ele></ele><time>2016-9-26T4:17:12Z</time></trkpt>
<trkpt lat="46.28628" lon="7.07275"><ele></ele><time>2016-9-26T4:17:15Z</time></trkpt>
<trkpt lat="46.28622" lon="7.07279"><ele></ele><time>2016-9-26T4:17:18Z</time></trkpt>
<trkpt lat="46.28614" lon="7.07282"><ele></ele><time>2016-9-26T4:17:21Z</time></trkpt>
<trkpt lat="46.28606" lon="7.07283"><ele></ele><time>2016-9-26T4:17:24Z</time></trkpt>
<trkpt lat="46.28598" lon="7.0728"><ele></ele><time>2016-9-26T4:17:27Z</time></trkpt>
<trkpt lat="46.28588" lon="7.07265"><ele></ele><time>2016-9-26T4:17:30Z</time></trkpt>
<trkpt lat="46.28583" lon="7.07247"><ele></ele><time>2016-9-26T4:17:33Z</time></trkpt>
<trkpt lat="46.28578" lon="7.07228"><ele></ele><time>2016-9-26T4:17:36Z</time></trkpt>
<trkpt lat="46.28575" lon="7.0722"><ele></ele><time>2016-9-26T4:17:39Z</time></trkpt>
<trkpt lat="46.28569" lon="7.07215"><ele></ele><time>2016-9-26T4:17:42Z</time></trkpt>
<trkpt lat="46.28557" lon="7.07206"><ele></ele><time>2016-9-26T4:17:45Z</time></trkpt>
<trkpt lat="46.28543" lon="7.07203"><ele></ele><time>2016-9-26T4:17:48Z</time></trkpt>
<trkpt lat="46.28529" lon="7.07199"><ele></ele><time>2016-9-26T4:17:51Z</time></trkpt>
<trkpt lat="46.2852" lon="7.07186"><ele></ele><time>2016-9-26T4:17:54Z</time></trkpt>
<trkpt lat="46.28515" lon="7.07168"><ele></ele><time>2016-9-26T4:17:57Z</time></trkpt>
<trkpt lat="46.2851" lon="7.0715"><ele></ele><time>2016-9-26T4:18:0Z</time></trkpt>
<trkpt lat="46.28507" lon="7.07142"><ele></ele><time>2016-9-26T4:18:3Z</time></trkpt>
<trkpt lat="46.28503" lon="7.07138"><ele></ele><time>2016-9-26T4:18:6Z</time></trkpt>
<trkpt lat="46.28494" lon="7.0713"><ele></ele><time>2016-9-26T4:18:9Z</time></trkpt>
<trkpt lat="46.28489" lon="7.07126"><ele></ele><time>2016-9-26T4:18:12Z</time></trkpt>
<trkpt lat="46.28482" lon="7.07125"><ele></ele><time>2016-9-26T4:18:15Z</time></trkpt>
<trkpt lat="46.28468" lon="7.07122"><ele></ele><time>2016-9-26T4:18:18Z</time></trkpt>
<trkpt lat="46.28455" lon="7.07119"><ele></ele><time>2016-9-26T4:18:21Z</time></trkpt>
<trkpt lat="46.28448" lon="7.07117"><ele></ele><time>2016-9-26T4:18:24Z</time></trkpt>
<trkpt lat="46.28442" lon="7.07114"><ele></ele><time>2016-9-26T4:18:27Z</time></trkpt>
<trkpt lat="46.28429" lon="7.07107"><ele></ele><time>2016-9-26T4:18:30Z</time></trkpt>
<trkpt lat="46.28416" lon="7.071"><ele></ele><time>2016-9-26T4:18:33Z</time></trkpt>
<trkpt lat="46.28403" lon="7.07092"><ele></ele><time>2016-9-26T4:18:36Z</time></trkpt>
<trkpt lat="46.28392" lon="7.07083"><ele></ele><time>2016-9-26T4:18:39Z</time></trkpt>
<trkpt lat="46.28381" lon="7.07073"><ele></ele><time>2016-9-26T4:18:42Z</time></trkpt>
<trkpt lat="46.2837" lon="7.07064"><ele></ele><time>2016-9-26T4:18:45Z</time></trkpt>
<trkpt lat="46.28362" lon="7.07049"><ele></ele><time>2016-9-26T4:18:48Z</time></trkpt>
<trkpt lat="46.28355" lon="7.07035"><ele></ele><time>2016-9-26T4:18:51Z</time></trkpt>
<trkpt lat="46.28343" lon="7.07026"><ele></ele><time>2016-9-26T4:18:54Z</time></trkpt>
<trkpt lat="46.2833" lon="7.07023"><ele></ele><time>2016-9-26T4:18:57Z</time></trkpt>
<trkpt lat="46.28324" lon="7.07022"><ele></ele><time>2016-9-26T4:19:0Z</time></trkpt>
<trkpt lat="46.28305" lon="7.07031"><ele></ele><time>2016-9-26T4:19:3Z</time></trkpt>
<trkpt lat="46.28293" lon="7.07037"><ele></ele><time>2016-9-26T4:19:6Z</time></trkpt>
<trkpt lat="46.2828" lon="7.07043"><ele></ele><time>2016-9-26T4:19:9Z</time></trkpt>
<trkpt lat="46.28266" lon="7.07047"><ele></ele><time>2016-9-26T4:19:12Z</time></trkpt>
<trkpt lat="46.28252" lon="7.0705"><ele></ele><time>2016-9-26T4:19:15Z</time></trkpt>
<trkpt lat="46.28238" lon="7.07053"><ele></ele><time>2016-9-26T4:19:18Z</time></trkpt>
<trkpt lat="46.28221" lon="7.07052"><ele></ele><time>2016-9-26T4:19:21Z</time></trkpt>
<trkpt lat="46.28204" lon="7.0705"><ele></ele><time>2016-9-26T4:19:24Z</time></trkpt>
<trkpt lat="46.28186" lon="7.07048"><ele></ele><time>2016-9-26T4:19:27Z</time></trkpt>
<trkpt lat="46.28166" lon="7.07042"><ele></ele><time>2016-9-26T4:19:30Z</time></trkpt>
<trkpt lat="46.28157" lon="7.07039"><ele></ele><time>2016-9-26T4:19:33Z</time></trkpt>
<trkpt lat="46.28147" lon="7.07036"><ele></ele><time>2016-9-26T4:19:36Z</time></trkpt>
<trkpt lat="46.28137" lon="7.07032"><ele></ele><time>2016-9-26T4:19:39Z</time></trkpt>
<trkpt lat="46.28128" lon="7.07025"><ele></ele><time>2016-9-26T4:19:42Z</time></trkpt>
<trkpt lat="46.28109" lon="7.07009"><ele></ele><time>2016-9-26T4:19:45Z</time></trkpt>
<trkpt lat="46.28092" lon="7.06988"><ele></ele><time>2016-9-26T4:19:48Z</time></trkpt>
<trkpt lat="46.28074" lon="7.06966"><ele></ele><time>2016-9-26T4:19:51Z</time></trkpt>
<trkpt lat="46.28057" lon="7.06945"><ele></ele><time>2016-9-26T4:19:54Z</time></trkpt>
<trkpt lat="46.28041" lon="7.06923"><ele></ele><time>2016-9-26T4:19:57Z</time></trkpt>
<trkpt lat="46.28032" lon="7.06914"><ele></ele><time>2016-9-26T4:20:0Z</time></trkpt>
<trkpt lat="46.28021" lon="7.06908"><ele></ele><time>2016-9-26T4:20:3Z</time></trkpt>
<trkpt lat="46.28" lon="7.06896"><ele></ele><time>2016-9-26T4:20:6Z</time></trkpt>
<trkpt lat="46.2799" lon="7.06891"><ele></ele><time>2016-9-26T4:20:9Z</time></trkpt>
<trkpt lat="46.27978" lon="7.0689"><ele></ele><time>2016-9-26T4:20:12Z</time></trkpt>
<trkpt lat="46.27955" lon="7.06888"><ele></ele><time>2016-9-26T4:20:15Z</time></trkpt>
<trkpt lat="46.27943" lon="7.06886"><ele></ele><time>2016-9-26T4:20:18Z</time></trkpt>
<trkpt lat="46.27931" lon="7.06883"><ele></ele><time>2016-9-26T4:20:21Z</time></trkpt>
<trkpt lat="46.27919" lon="7.0688"><ele></ele><time>2016-9-26T4:20:24Z</time></trkpt>
<trkpt lat="46.27907" lon="7.06876"><ele></ele><time>2016-9-26T4:20:27Z</time></trkpt>
<trkpt lat="46.27886" lon="7.0686"><ele></ele><time>2016-9-26T4:20:30Z</time></trkpt>
<trkpt lat="46.27878" lon="7.06847"><ele></ele><time>2016-9-26T4:20:33Z</time></trkpt>
<trkpt lat="46.2787" lon="7.06835"><ele></ele><time>2016-9-26T4:20:36Z</time></trkpt>
<trkpt lat="46.27853" lon="7.0681"><ele></ele><time>2016-9-26T4:20:39Z</time></trkpt>
<trkpt lat="46.27833" lon="7.06791"><ele></ele><time>2016-9-26T4:20:42Z</time></trkpt>
<trkpt lat="46.27821" lon="7.06785"><ele></ele><time>2016-9-26T4:20:45Z</time></trkpt>
<trkpt lat="46.27808" lon="7.06779"><ele></ele><time>2016-9-26T4:20:48Z</time></trkpt>
<trkpt lat="46.27783" lon="7.06768"><ele></ele><time>2016-9-26T4:20:51Z</time></trkpt>
<trkpt lat="46.27759" lon="7.06761"><ele></ele><time>2016-9-26T4:20:54Z</time></trkpt>
<trkpt lat="46.27735" lon="7.06755"><ele></ele><time>2016-9-26T4:20:57Z</time></trkpt>
<trkpt lat="46.2771" lon="7.06755"><ele></ele><time>2016-9-26T4:21:0Z</time></trkpt>
<trkpt lat="46.27697" lon="7.06756"><ele></ele><time>2016-9-26T4:21:3Z</time></trkpt>
<trkpt lat="46.27684" lon="7.06755"><ele></ele><time>2016-9-26T4:21:6Z</time></trkpt>
<trkpt lat="46.2766" lon="7.0675"><ele></ele><time>2016-9-26T4:21:9Z</time></trkpt>
<trkpt lat="46.27638" lon="7.06733"><ele></ele><time>2016-9-26T4:21:12Z</time></trkpt>
<trkpt lat="46.27628" lon="7.0672"><ele></ele><time>2016-9-26T4:21:15Z</time></trkpt>
<trkpt lat="46.27619" lon="7.06707"><ele></ele><time>2016-9-26T4:21:18Z</time></trkpt>
<trkpt lat="46.27606" lon="7.06676"><ele></ele><time>2016-9-26T4:21:21Z</time></trkpt>
<trkpt lat="46.27593" lon="7.06642"><ele></ele><time>2016-9-26T4:21:24Z</time></trkpt>
<trkpt lat="46.27576" lon="7.06615"><ele></ele><time>2016-9-26T4:21:27Z</time></trkpt>
<trkpt lat="46.27558" lon="7.06589"><ele></ele><time>2016-9-26T4:21:30Z</time></trkpt>
<trkpt lat="46.27548" lon="7.06577"><ele></ele><time>2016-9-26T4:21:33Z</time></trkpt>
<trkpt lat="46.27539" lon="7.06565"><ele></ele><time>2016-9-26T4:21:36Z</time></trkpt>
<trkpt lat="46.2752" lon="7.06541"><ele></ele><time>2016-9-26T4:21:39Z</time></trkpt>
<trkpt lat="46.27504" lon="7.06512"><ele></ele><time>2016-9-26T4:21:42Z</time></trkpt>
<trkpt lat="46.27489" lon="7.06483"><ele></ele><time>2016-9-26T4:21:45Z</time></trkpt>
<trkpt lat="46.2748" lon="7.06451"><ele></ele><time>2016-9-26T4:21:48Z</time></trkpt>
<trkpt lat="46.27472" lon="7.06419"><ele></ele><time>2016-9-26T4:21:51Z</time></trkpt>
<trkpt lat="46.27466" lon="7.06383"><ele></ele><time>2016-9-26T4:21:54Z</time></trkpt>
<trkpt lat="46.27461" lon="7.06348"><ele></ele><time>2016-9-26T4:21:57Z</time></trkpt>
<trkpt lat="46.27459" lon="7.06331"><ele></ele><time>2016-9-26T4:22:0Z</time></trkpt>
<trkpt lat="46.27457" lon="7.06313"><ele></ele><time>2016-9-26T4:22:3Z</time></trkpt>
<trkpt lat="46.27452" lon="7.06278"><ele></ele><time>2016-9-26T4:22:6Z</time></trkpt>
<trkpt lat="46.27447" lon="7.06244"><ele></ele><time>2016-9-26T4:22:9Z</time></trkpt>
<trkpt lat="46.27444" lon="7.06227"><ele></ele><time>2016-9-26T4:22:12Z</time></trkpt>
<trkpt lat="46.27441" lon="7.0621"><ele></ele><time>2016-9-26T4:22:15Z</time></trkpt>
<trkpt lat="46.27437" lon="7.06194"><ele></ele><time>2016-9-26T4:22:18Z</time></trkpt>
<trkpt lat="46.27424" lon="7.06147"><ele></ele><time>2016-9-26T4:22:21Z</time></trkpt>
<trkpt lat="46.27416" lon="7.06125"><ele></ele><time>2016-9-26T4:22:24Z</time></trkpt>
<trkpt lat="46.27408" lon="7.06102"><ele></ele><time>2016-9-26T4:22:27Z</time></trkpt>
<trkpt lat="46.274" lon="7.06081"><ele></ele><time>2016-9-26T4:22:30Z</time></trkpt>
<trkpt lat="46.27394" lon="7.0607"><ele></ele><time>2016-9-26T4:22:33Z</time></trkpt>
<trkpt lat="46.27385" lon="7.06071"><ele></ele><time>2016-9-26T4:22:36Z</time></trkpt>
<trkpt lat="46.27381" lon="7.06078"><ele></ele><time>2016-9-26T4:22:39Z</time></trkpt>
<trkpt lat="46.27379" lon="7.06087"><ele></ele><time>2016-9-26T4:22:42Z</time></trkpt>
<trkpt lat="46.27379" lon="7.06096"><ele></ele><time>2016-9-26T4:22:45Z</time></trkpt>
<trkpt lat="46.27381" lon="7.06109"><ele></ele><time>2016-9-26T4:22:48Z</time></trkpt>
<trkpt lat="46.27386" lon="7.06135"><ele></ele><time>2016-9-26T4:22:51Z</time></trkpt>
<trkpt lat="46.27388" lon="7.06147"><ele></ele><time>2016-9-26T4:22:54Z</time></trkpt>
<trkpt lat="46.2739" lon="7.06161"><ele></ele><time>2016-9-26T4:22:57Z</time></trkpt>
<trkpt lat="46.27394" lon="7.06189"><ele></ele><time>2016-9-26T4:23:0Z</time></trkpt>
<trkpt lat="46.27399" lon="7.06218"><ele></ele><time>2016-9-26T4:23:3Z</time></trkpt>
<trkpt lat="46.27401" lon="7.06232"><ele></ele><time>2016-9-26T4:23:6Z</time></trkpt>
<trkpt lat="46.27402" lon="7.06248"><ele></ele><time>2016-9-26T4:23:9Z</time></trkpt>
<trkpt lat="46.27405" lon="7.06263"><ele></ele><time>2016-9-26T4:23:12Z</time></trkpt>
<trkpt lat="46.27407" lon="7.06277"><ele></ele><time>2016-9-26T4:23:15Z</time></trkpt>
<trkpt lat="46.27406" lon="7.06303"><ele></ele><time>2016-9-26T4:23:18Z</time></trkpt>
<trkpt lat="46.27405" lon="7.06329"><ele></ele><time>2016-9-26T4:23:21Z</time></trkpt>
<trkpt lat="46.27403" lon="7.06341"><ele></ele><time>2016-9-26T4:23:24Z</time></trkpt>
<trkpt lat="46.27401" lon="7.06347"><ele></ele><time>2016-9-26T4:23:27Z</time></trkpt>
<trkpt lat="46.27395" lon="7.06346"><ele></ele><time>2016-9-26T4:23:30Z</time></trkpt>
<trkpt lat="46.27388" lon="7.06334"><ele></ele><time>2016-9-26T4:23:33Z</time></trkpt>
<trkpt lat="46.27382" lon="7.06314"><ele></ele><time>2016-9-26T4:23:36Z</time></trkpt>
<trkpt lat="46.27376" lon="7.06295"><ele></ele><time>2016-9-26T4:23:39Z</time></trkpt>
<trkpt lat="46.27365" lon="7.0628"><ele></ele><time>2016-9-26T4:23:42Z</time></trkpt>
<trkpt lat="46.27354" lon="7.06266"><ele></ele><time>2016-9-26T4:23:45Z</time></trkpt>
<trkpt lat="46.27342" lon="7.06263"><ele></ele><time>2016-9-26T4:23:48Z</time></trkpt>
<trkpt lat="46.27328" lon="7.06268"><ele></ele><time>2016-9-26T4:23:51Z</time></trkpt>
<trkpt lat="46.27314" lon="7.06273"><ele></ele><time>2016-9-26T4:23:54Z</time></trkpt>
<trkpt lat="46.27307" lon="7.06273"><ele></ele><time>2016-9-26T4:23:57Z</time></trkpt>
<trkpt lat="46.27302" lon="7.06268"><ele></ele><time>2016-9-26T4:24:0Z</time></trkpt>
<trkpt lat="46.27298" lon="7.06262"><ele></ele><time>2016-9-26T4:24:3Z</time></trkpt>
<trkpt lat="46.27294" lon="7.0625"><ele></ele><time>2016-9-26T4:24:6Z</time></trkpt>
<trkpt lat="46.27287" lon="7.06228"><ele></ele><time>2016-9-26T4:24:9Z</time></trkpt>
<trkpt lat="46.27284" lon="7.06216"><ele></ele><time>2016-9-26T4:24:12Z</time></trkpt>
<trkpt lat="46.27276" lon="7.06193"><ele></ele><time>2016-9-26T4:24:15Z</time></trkpt>
<trkpt lat="46.27271" lon="7.06181"><ele></ele><time>2016-9-26T4:24:18Z</time></trkpt>
<trkpt lat="46.27265" lon="7.0617"><ele></ele><time>2016-9-26T4:24:21Z</time></trkpt>
<trkpt lat="46.2726" lon="7.06158"><ele></ele><time>2016-9-26T4:24:24Z</time></trkpt>
<trkpt lat="46.27249" lon="7.06134"><ele></ele><time>2016-9-26T4:24:27Z</time></trkpt>
<trkpt lat="46.27242" lon="7.06108"><ele></ele><time>2016-9-26T4:24:30Z</time></trkpt>
<trkpt lat="46.27238" lon="7.06095"><ele></ele><time>2016-9-26T4:24:33Z</time></trkpt>
<trkpt lat="46.27235" lon="7.06082"><ele></ele><time>2016-9-26T4:24:36Z</time></trkpt>
<trkpt lat="46.27231" lon="7.0607"><ele></ele><time>2016-9-26T4:24:39Z</time></trkpt>
<trkpt lat="46.27229" lon="7.06059"><ele></ele><time>2016-9-26T4:24:42Z</time></trkpt>
<trkpt lat="46.27224" lon="7.06038"><ele></ele><time>2016-9-26T4:24:45Z</time></trkpt>
<trkpt lat="46.2722" lon="7.06027"><ele></ele><time>2016-9-26T4:24:48Z</time></trkpt>
<trkpt lat="46.27214" lon="7.06015"><ele></ele><time>2016-9-26T4:24:51Z</time></trkpt>
<trkpt lat="46.272" lon="7.05991"><ele></ele><time>2016-9-26T4:24:54Z</time></trkpt>
<trkpt lat="46.27186" lon="7.05968"><ele></ele><time>2016-9-26T4:24:57Z</time></trkpt>
<trkpt lat="46.27181" lon="7.05956"><ele></ele><time>2016-9-26T4:25:0Z</time></trkpt>
<trkpt lat="46.27178" lon="7.05944"><ele></ele><time>2016-9-26T4:25:3Z</time></trkpt>
<trkpt lat="46.27176" lon="7.05932"><ele></ele><time>2016-9-26T4:25:6Z</time></trkpt>
<trkpt lat="46.27172" lon="7.05908"><ele></ele><time>2016-9-26T4:25:9Z</time></trkpt>
<trkpt lat="46.2717" lon="7.05896"><ele></ele><time>2016-9-26T4:25:12Z</time></trkpt>
<trkpt lat="46.27168" lon="7.05885"><ele></ele><time>2016-9-26T4:25:15Z</time></trkpt>
<trkpt lat="46.27164" lon="7.05874"><ele></ele><time>2016-9-26T4:25:18Z</time></trkpt>
<trkpt lat="46.27159" lon="7.05864"><ele></ele><time>2016-9-26T4:25:21Z</time></trkpt>
<trkpt lat="46.27152" lon="7.05854"><ele></ele><time>2016-9-26T4:25:24Z</time></trkpt>
<trkpt lat="46.27138" lon="7.05834"><ele></ele><time>2016-9-26T4:25:27Z</time></trkpt>
<trkpt lat="46.27125" lon="7.05814"><ele></ele><time>2016-9-26T4:25:30Z</time></trkpt>
<trkpt lat="46.2712" lon="7.05805"><ele></ele><time>2016-9-26T4:25:33Z</time></trkpt>
<trkpt lat="46.27115" lon="7.05795"><ele></ele><time>2016-9-26T4:25:36Z</time></trkpt>
<trkpt lat="46.27106" lon="7.05768"><ele></ele><time>2016-9-26T4:25:39Z</time></trkpt>
<trkpt lat="46.27102" lon="7.05755"><ele></ele><time>2016-9-26T4:25:42Z</time></trkpt>
<trkpt lat="46.27098" lon="7.05745"><ele></ele><time>2016-9-26T4:25:45Z</time></trkpt>
<trkpt lat="46.27094" lon="7.05735"><ele></ele><time>2016-9-26T4:25:48Z</time></trkpt>
<trkpt lat="46.27091" lon="7.05723"><ele></ele><time>2016-9-26T4:25:51Z</time></trkpt>
<trkpt lat="46.2709" lon="7.0569"><ele></ele><time>2016-9-26T4:25:54Z</time></trkpt>
<trkpt lat="46.2709" lon="7.05674"><ele></ele><time>2016-9-26T4:25:57Z</time></trkpt>
<trkpt lat="46.27088" lon="7.0566"><ele></ele><time>2016-9-26T4:26:0Z</time></trkpt>
<trkpt lat="46.27085" lon="7.05645"><ele></ele><time>2016-9-26T4:26:3Z</time></trkpt>
<trkpt lat="46.27079" lon="7.05602"><ele></ele><time>2016-9-26T4:26:6Z</time></trkpt>
<trkpt lat="46.27076" lon="7.05586"><ele></ele><time>2016-9-26T4:26:9Z</time></trkpt>
<trkpt lat="46.27076" lon="7.05572"><ele></ele><time>2016-9-26T4:26:12Z</time></trkpt>
<trkpt lat="46.27075" lon="7.05558"><ele></ele><time>2016-9-26T4:26:15Z</time></trkpt>
<trkpt lat="46.27072" lon="7.05542"><ele></ele><time>2016-9-26T4:26:18Z</time></trkpt>
<trkpt lat="46.27066" lon="7.05512"><ele></ele><time>2016-9-26T4:26:21Z</time></trkpt>
<trkpt lat="46.2706" lon="7.05482"><ele></ele><time>2016-9-26T4:26:24Z</time></trkpt>
<trkpt lat="46.27058" lon="7.0547"><ele></ele><time>2016-9-26T4:26:27Z</time></trkpt>
<trkpt lat="46.27053" lon="7.0545"><ele></ele><time>2016-9-26T4:26:30Z</time></trkpt>
<trkpt lat="46.27047" lon="7.05445"><ele></ele><time>2016-9-26T4:26:33Z</time></trkpt>
<trkpt lat="46.27035" lon="7.05436"><ele></ele><time>2016-9-26T4:26:36Z</time></trkpt>
<trkpt lat="46.27028" lon="7.0543"><ele></ele><time>2016-9-26T4:26:39Z</time></trkpt>
<trkpt lat="46.27022" lon="7.0542"><ele></ele><time>2016-9-26T4:26:42Z</time></trkpt>
<trkpt lat="46.27018" lon="7.05406"><ele></ele><time>2016-9-26T4:26:45Z</time></trkpt>
<trkpt lat="46.27016" lon="7.0539"><ele></ele><time>2016-9-26T4:26:48Z</time></trkpt>
<trkpt lat="46.27016" lon="7.05375"><ele></ele><time>2016-9-26T4:26:51Z</time></trkpt>
<trkpt lat="46.27018" lon="7.05359"><ele></ele><time>2016-9-26T4:26:54Z</time></trkpt>
<trkpt lat="46.27023" lon="7.05329"><ele></ele><time>2016-9-26T4:26:57Z</time></trkpt>
<trkpt lat="46.27027" lon="7.05314"><ele></ele><time>2016-9-26T4:27:0Z</time></trkpt>
<trkpt lat="46.27032" lon="7.05299"><ele></ele><time>2016-9-26T4:27:3Z</time></trkpt>
<trkpt lat="46.27041" lon="7.05269"><ele></ele><time>2016-9-26T4:27:6Z</time></trkpt>
<trkpt lat="46.27051" lon="7.05238"><ele></ele><time>2016-9-26T4:27:9Z</time></trkpt>
<trkpt lat="46.27056" lon="7.05222"><ele></ele><time>2016-9-26T4:27:12Z</time></trkpt>
<trkpt lat="46.27061" lon="7.05206"><ele></ele><time>2016-9-26T4:27:15Z</time></trkpt>
<trkpt lat="46.27071" lon="7.05174"><ele></ele><time>2016-9-26T4:27:18Z</time></trkpt>
<trkpt lat="46.27081" lon="7.05141"><ele></ele><time>2016-9-26T4:27:21Z</time></trkpt>
<trkpt lat="46.27085" lon="7.05124"><ele></ele><time>2016-9-26T4:27:24Z</time></trkpt>
<trkpt lat="46.27089" lon="7.05106"><ele></ele><time>2016-9-26T4:27:27Z</time></trkpt>
<trkpt lat="46.27097" lon="7.05071"><ele></ele><time>2016-9-26T4:27:30Z</time></trkpt>
<trkpt lat="46.27103" lon="7.05035"><ele></ele><time>2016-9-26T4:27:33Z</time></trkpt>
<trkpt lat="46.27108" lon="7.04998"><ele></ele><time>2016-9-26T4:27:36Z</time></trkpt>
<trkpt lat="46.27113" lon="7.04961"><ele></ele><time>2016-9-26T4:27:39Z</time></trkpt>
<trkpt lat="46.27118" lon="7.04923"><ele></ele><time>2016-9-26T4:27:42Z</time></trkpt>
<trkpt lat="46.27123" lon="7.04885"><ele></ele><time>2016-9-26T4:27:45Z</time></trkpt>
<trkpt lat="46.27126" lon="7.04848"><ele></ele><time>2016-9-26T4:27:48Z</time></trkpt>
<trkpt lat="46.27125" lon="7.04834"><ele></ele><time>2016-9-26T4:27:51Z</time></trkpt>
<trkpt lat="46.27121" lon="7.04824"><ele></ele><time>2016-9-26T4:27:54Z</time></trkpt>
<trkpt lat="46.27115" lon="7.04804"><ele></ele><time>2016-9-26T4:27:57Z</time></trkpt>
<trkpt lat="46.27109" lon="7.04784"><ele></ele><time>2016-9-26T4:28:0Z</time></trkpt>
<trkpt lat="46.27106" lon="7.04774"><ele></ele><time>2016-9-26T4:28:3Z</time></trkpt>
<trkpt lat="46.27106" lon="7.04767"><ele></ele><time>2016-9-26T4:28:6Z</time></trkpt>
<trkpt lat="46.27105" lon="7.0476"><ele></ele><time>2016-9-26T4:28:9Z</time></trkpt>
<trkpt lat="46.27102" lon="7.04757"><ele></ele><time>2016-9-26T4:28:12Z</time></trkpt>
<trkpt lat="46.27099" lon="7.04755"><ele></ele><time>2016-9-26T4:28:15Z</time></trkpt>
<trkpt lat="46.27094" lon="7.04757"><ele></ele><time>2016-9-26T4:28:18Z</time></trkpt>
<trkpt lat="46.27084" lon="7.04761"><ele></ele><time>2016-9-26T4:28:21Z</time></trkpt>
<trkpt lat="46.27073" lon="7.04766"><ele></ele><time>2016-9-26T4:28:24Z</time></trkpt>
<trkpt lat="46.27069" lon="7.0477"><ele></ele><time>2016-9-26T4:28:27Z</time></trkpt>
<trkpt lat="46.27064" lon="7.04775"><ele></ele><time>2016-9-26T4:28:30Z</time></trkpt>
<trkpt lat="46.27059" lon="7.04779"><ele></ele><time>2016-9-26T4:28:33Z</time></trkpt>
<trkpt lat="46.27045" lon="7.04791"><ele></ele><time>2016-9-26T4:28:36Z</time></trkpt>
<trkpt lat="46.27036" lon="7.04799"><ele></ele><time>2016-9-26T4:28:39Z</time></trkpt>
<trkpt lat="46.27022" lon="7.04794"><ele></ele><time>2016-9-26T4:28:42Z</time></trkpt>
<trkpt lat="46.27018" lon="7.04788"><ele></ele><time>2016-9-26T4:28:45Z</time></trkpt>
<trkpt lat="46.27014" lon="7.04777"><ele></ele><time>2016-9-26T4:28:48Z</time></trkpt>
<trkpt lat="46.27011" lon="7.04765"><ele></ele><time>2016-9-26T4:28:51Z</time></trkpt>
<trkpt lat="46.2701" lon="7.04751"><ele></ele><time>2016-9-26T4:28:54Z</time></trkpt>
<trkpt lat="46.27008" lon="7.04724"><ele></ele><time>2016-9-26T4:28:57Z</time></trkpt>
<trkpt lat="46.27008" lon="7.047"><ele></ele><time>2016-9-26T4:29:0Z</time></trkpt>
<trkpt lat="46.27007" lon="7.04689"><ele></ele><time>2016-9-26T4:29:3Z</time></trkpt>
<trkpt lat="46.27004" lon="7.04682"><ele></ele><time>2016-9-26T4:29:6Z</time></trkpt>
<trkpt lat="46.26998" lon="7.04668"><ele></ele><time>2016-9-26T4:29:9Z</time></trkpt>
<trkpt lat="46.26994" lon="7.04661"><ele></ele><time>2016-9-26T4:29:12Z</time></trkpt>
<trkpt lat="46.26989" lon="7.04655"><ele></ele><time>2016-9-26T4:29:15Z</time></trkpt>
<trkpt lat="46.26983" lon="7.04651"><ele></ele><time>2016-9-26T4:29:18Z</time></trkpt>
<trkpt lat="46.26977" lon="7.04649"><ele></ele><time>2016-9-26T4:29:21Z</time></trkpt>
<trkpt lat="46.26965" lon="7.04646"><ele></ele><time>2016-9-26T4:29:24Z</time></trkpt>
<trkpt lat="46.26961" lon="7.04646"><ele></ele><time>2016-9-26T4:29:27Z</time></trkpt>
<trkpt lat="46.2696" lon="7.04647"><ele></ele><time>2016-9-26T4:29:30Z</time></trkpt>
<trkpt lat="46.26959" lon="7.0465"><ele></ele><time>2016-9-26T4:29:33Z</time></trkpt>
<trkpt lat="46.26958" lon="7.04652"><ele></ele><time>2016-9-26T4:29:36Z</time></trkpt>
<trkpt lat="46.26958" lon="7.04654"><ele></ele><time>2016-9-26T4:29:39Z</time></trkpt>
<trkpt lat="46.26957" lon="7.04655"><ele></ele><time>2016-9-26T4:29:42Z</time></trkpt>
<trkpt lat="46.26956" lon="7.04658"><ele></ele><time>2016-9-26T4:29:45Z</time></trkpt>
<trkpt lat="46.26955" lon="7.0466"><ele></ele><time>2016-9-26T4:29:48Z</time></trkpt>
<trkpt lat="46.26954" lon="7.04663"><ele></ele><time>2016-9-26T4:29:51Z</time></trkpt>
<trkpt lat="46.26953" lon="7.04666"><ele></ele><time>2016-9-26T4:29:54Z</time></trkpt>
<trkpt lat="46.26952" lon="7.04668"><ele></ele><time>2016-9-26T4:29:57Z</time></trkpt>
<trkpt lat="46.26951" lon="7.04671"><ele></ele><time>2016-9-26T4:30:0Z</time></trkpt>
<trkpt lat="46.2695" lon="7.04674"><ele></ele><time>2016-9-26T4:30:3Z</time></trkpt>
<trkpt lat="46.26949" lon="7.04677"><ele></ele><time>2016-9-26T4:30:6Z</time></trkpt>
<trkpt lat="46.26948" lon="7.04679"><ele></ele><time>2016-9-26T4:30:9Z</time></trkpt>
<trkpt lat="46.26948" lon="7.04681"><ele></ele><time>2016-9-26T4:30:12Z</time></trkpt>
<trkpt lat="46.26947" lon="7.04683"><ele></ele><time>2016-9-26T4:30:15Z</time></trkpt>
<trkpt lat="46.26946" lon="7.04685"><ele></ele><time>2016-9-26T4:30:18Z</time></trkpt>
<trkpt lat="46.26945" lon="7.04687"><ele></ele><time>2016-9-26T4:30:21Z</time></trkpt>
<trkpt lat="46.26944" lon="7.04692"><ele></ele><time>2016-9-26T4:30:24Z</time></trkpt>
<trkpt lat="46.26942" lon="7.04704"><ele></ele><time>2016-9-26T4:30:27Z</time></trkpt>
<trkpt lat="46.2694" lon="7.04716"><ele></ele><time>2016-9-26T4:30:30Z</time></trkpt>
<trkpt lat="46.26934" lon="7.04751"><ele></ele><time>2016-9-26T4:30:33Z</time></trkpt>
<trkpt lat="46.26932" lon="7.04764"><ele></ele><time>2016-9-26T4:30:36Z</time></trkpt>
<trkpt lat="46.26929" lon="7.04777"><ele></ele><time>2016-9-26T4:30:39Z</time></trkpt>
<trkpt lat="46.26926" lon="7.04791"><ele></ele><time>2016-9-26T4:30:42Z</time></trkpt>
<trkpt lat="46.26923" lon="7.04803"><ele></ele><time>2016-9-26T4:30:45Z</time></trkpt>
<trkpt lat="46.26915" lon="7.04828"><ele></ele><time>2016-9-26T4:30:48Z</time></trkpt>
<trkpt lat="46.26915" lon="7.04846"><ele></ele><time>2016-9-26T4:30:51Z</time></trkpt>
<trkpt lat="46.26911" lon="7.04859"><ele></ele><time>2016-9-26T4:30:54Z</time></trkpt>
<trkpt lat="46.26904" lon="7.04886"><ele></ele><time>2016-9-26T4:30:57Z</time></trkpt>
<trkpt lat="46.26899" lon="7.04898"><ele></ele><time>2016-9-26T4:31:0Z</time></trkpt>
<trkpt lat="46.26893" lon="7.04906"><ele></ele><time>2016-9-26T4:31:3Z</time></trkpt>
<trkpt lat="46.26886" lon="7.04914"><ele></ele><time>2016-9-26T4:31:6Z</time></trkpt>
<trkpt lat="46.26879" lon="7.04921"><ele></ele><time>2016-9-26T4:31:9Z</time></trkpt>
<trkpt lat="46.26873" lon="7.04928"><ele></ele><time>2016-9-26T4:31:12Z</time></trkpt>
<trkpt lat="46.26866" lon="7.04932"><ele></ele><time>2016-9-26T4:31:15Z</time></trkpt>
<trkpt lat="46.26854" lon="7.0494"><ele></ele><time>2016-9-26T4:31:18Z</time></trkpt>
<trkpt lat="46.26851" lon="7.0494"><ele></ele><time>2016-9-26T4:31:21Z</time></trkpt>
<trkpt lat="46.26848" lon="7.0494"><ele></ele><time>2016-9-26T4:31:24Z</time></trkpt>
<trkpt lat="46.26848" lon="7.04938"><ele></ele><time>2016-9-26T4:31:27Z</time></trkpt>
<trkpt lat="46.26845" lon="7.04939"><ele></ele><time>2016-9-26T4:31:30Z</time></trkpt>
<trkpt lat="46.26841" lon="7.0494"><ele></ele><time>2016-9-26T4:31:33Z</time></trkpt>
<trkpt lat="46.26837" lon="7.04941"><ele></ele><time>2016-9-26T4:31:36Z</time></trkpt>
<trkpt lat="46.26833" lon="7.04942"><ele></ele><time>2016-9-26T4:31:39Z</time></trkpt>
<trkpt lat="46.26829" lon="7.04943"><ele></ele><time>2016-9-26T4:31:42Z</time></trkpt>
<trkpt lat="46.26824" lon="7.04944"><ele></ele><time>2016-9-26T4:31:45Z</time></trkpt>
<trkpt lat="46.2682" lon="7.04945"><ele></ele><time>2016-9-26T4:31:48Z</time></trkpt>
<trkpt lat="46.26816" lon="7.04946"><ele></ele><time>2016-9-26T4:31:51Z</time></trkpt>
<trkpt lat="46.26812" lon="7.04948"><ele></ele><time>2016-9-26T4:31:54Z</time></trkpt>
<trkpt lat="46.2681" lon="7.04948"><ele></ele><time>2016-9-26T4:31:57Z</time></trkpt>
<trkpt lat="46.26807" lon="7.04949"><ele></ele><time>2016-9-26T4:32:0Z</time></trkpt>
<trkpt lat="46.26803" lon="7.0495"><ele></ele><time>2016-9-26T4:32:3Z</time></trkpt>
<trkpt lat="46.268" lon="7.04954"><ele></ele><time>2016-9-26T4:32:6Z</time></trkpt>
<trkpt lat="46.26796" lon="7.04957"><ele></ele><time>2016-9-26T4:32:9Z</time></trkpt>
<trkpt lat="46.26793" lon="7.04961"><ele></ele><time>2016-9-26T4:32:12Z</time></trkpt>
<trkpt lat="46.26791" lon="7.04963"><ele></ele><time>2016-9-26T4:32:15Z</time></trkpt>
<trkpt lat="46.2679" lon="7.04965"><ele></ele><time>2016-9-26T4:32:18Z</time></trkpt>
<trkpt lat="46.26786" lon="7.04969"><ele></ele><time>2016-9-26T4:32:21Z</time></trkpt>
<trkpt lat="46.26784" lon="7.0498"><ele></ele><time>2016-9-26T4:32:24Z</time></trkpt>
<trkpt lat="46.26782" lon="7.04985"><ele></ele><time>2016-9-26T4:32:27Z</time></trkpt>
<trkpt lat="46.26778" lon="7.05001"><ele></ele><time>2016-9-26T4:32:30Z</time></trkpt>
<trkpt lat="46.26775" lon="7.05011"><ele></ele><time>2016-9-26T4:32:33Z</time></trkpt>
<trkpt lat="46.26774" lon="7.05016"><ele></ele><time>2016-9-26T4:32:36Z</time></trkpt>
<trkpt lat="46.26772" lon="7.05022"><ele></ele><time>2016-9-26T4:32:39Z</time></trkpt>
<trkpt lat="46.26761" lon="7.0504"><ele></ele><time>2016-9-26T4:32:42Z</time></trkpt>
<trkpt lat="46.2675" lon="7.05057"><ele></ele><time>2016-9-26T4:32:45Z</time></trkpt>
<trkpt lat="46.26744" lon="7.05067"><ele></ele><time>2016-9-26T4:32:48Z</time></trkpt>
<trkpt lat="46.26734" lon="7.0508"><ele></ele><time>2016-9-26T4:32:51Z</time></trkpt>
<trkpt lat="46.26726" lon="7.05094"><ele></ele><time>2016-9-26T4:32:54Z</time></trkpt>
<trkpt lat="46.26716" lon="7.05105"><ele></ele><time>2016-9-26T4:32:57Z</time></trkpt>
<trkpt lat="46.26699" lon="7.05126"><ele></ele><time>2016-9-26T4:33:0Z</time></trkpt>
<trkpt lat="46.26691" lon="7.05149"><ele></ele><time>2016-9-26T4:33:3Z</time></trkpt>
<trkpt lat="46.26685" lon="7.05185"><ele></ele><time>2016-9-26T4:33:6Z</time></trkpt>
<trkpt lat="46.26681" lon="7.05202"><ele></ele><time>2016-9-26T4:33:9Z</time></trkpt>
<trkpt lat="46.26678" lon="7.0522"><ele></ele><time>2016-9-26T4:33:12Z</time></trkpt>
<trkpt lat="46.26671" lon="7.05258"><ele></ele><time>2016-9-26T4:33:15Z</time></trkpt>
<trkpt lat="46.26664" lon="7.05295"><ele></ele><time>2016-9-26T4:33:18Z</time></trkpt>
<trkpt lat="46.26663" lon="7.05312"><ele></ele><time>2016-9-26T4:33:21Z</time></trkpt>
<trkpt lat="46.26664" lon="7.05327"><ele></ele><time>2016-9-26T4:33:24Z</time></trkpt>
<trkpt lat="46.26661" lon="7.05349"><ele></ele><time>2016-9-26T4:33:27Z</time></trkpt>
<trkpt lat="46.2666" lon="7.0536"><ele></ele><time>2016-9-26T4:33:30Z</time></trkpt>
<trkpt lat="46.26662" lon="7.05372"><ele></ele><time>2016-9-26T4:33:33Z</time></trkpt>
<trkpt lat="46.26664" lon="7.05383"><ele></ele><time>2016-9-26T4:33:36Z</time></trkpt>
<trkpt lat="46.26668" lon="7.05405"><ele></ele><time>2016-9-26T4:33:39Z</time></trkpt>
<trkpt lat="46.26673" lon="7.05416"><ele></ele><time>2016-9-26T4:33:42Z</time></trkpt>
<trkpt lat="46.26683" lon="7.05439"><ele></ele><time>2016-9-26T4:33:45Z</time></trkpt>
<trkpt lat="46.26688" lon="7.05449"><ele></ele><time>2016-9-26T4:33:48Z</time></trkpt>
<trkpt lat="46.26693" lon="7.05459"><ele></ele><time>2016-9-26T4:33:51Z</time></trkpt>
<trkpt lat="46.26704" lon="7.0548"><ele></ele><time>2016-9-26T4:33:54Z</time></trkpt>
<trkpt lat="46.26709" lon="7.0549"><ele></ele><time>2016-9-26T4:33:57Z</time></trkpt>
<trkpt lat="46.26714" lon="7.055"><ele></ele><time>2016-9-26T4:34:0Z</time></trkpt>
<trkpt lat="46.26719" lon="7.05509"><ele></ele><time>2016-9-26T4:34:3Z</time></trkpt>
<trkpt lat="46.26722" lon="7.05516"><ele></ele><time>2016-9-26T4:34:6Z</time></trkpt>
<trkpt lat="46.26728" lon="7.0553"><ele></ele><time>2016-9-26T4:34:9Z</time></trkpt>
<trkpt lat="46.26731" lon="7.05548"><ele></ele><time>2016-9-26T4:34:12Z</time></trkpt>
<trkpt lat="46.26733" lon="7.05567"><ele></ele><time>2016-9-26T4:34:15Z</time></trkpt>
<trkpt lat="46.26736" lon="7.05586"><ele></ele><time>2016-9-26T4:34:18Z</time></trkpt>
<trkpt lat="46.26737" lon="7.05596"><ele></ele><time>2016-9-26T4:34:21Z</time></trkpt>
<trkpt lat="46.26738" lon="7.05609"><ele></ele><time>2016-9-26T4:34:24Z</time></trkpt>
<trkpt lat="46.26741" lon="7.05634"><ele></ele><time>2016-9-26T4:34:27Z</time></trkpt>
<trkpt lat="46.26743" lon="7.05646"><ele></ele><time>2016-9-26T4:34:30Z</time></trkpt>
<trkpt lat="46.26745" lon="7.05658"><ele></ele><time>2016-9-26T4:34:33Z</time></trkpt>
<trkpt lat="46.26753" lon="7.05672"><ele></ele><time>2016-9-26T4:34:36Z</time></trkpt>
<trkpt lat="46.26756" lon="7.05679"><ele></ele><time>2016-9-26T4:34:39Z</time></trkpt>
<trkpt lat="46.26757" lon="7.05687"><ele></ele><time>2016-9-26T4:34:42Z</time></trkpt>
<trkpt lat="46.26757" lon="7.05695"><ele></ele><time>2016-9-26T4:34:45Z</time></trkpt>
<trkpt lat="46.26753" lon="7.05702"><ele></ele><time>2016-9-26T4:34:48Z</time></trkpt>
<trkpt lat="46.26751" lon="7.05712"><ele></ele><time>2016-9-26T4:34:51Z</time></trkpt>
<trkpt lat="46.26742" lon="7.0572"><ele></ele><time>2016-9-26T4:34:54Z</time></trkpt>
<trkpt lat="46.26728" lon="7.0572"><ele></ele><time>2016-9-26T4:34:57Z</time></trkpt>
<trkpt lat="46.26718" lon="7.05726"><ele></ele><time>2016-9-26T4:35:0Z</time></trkpt>
<trkpt lat="46.26703" lon="7.05744"><ele></ele><time>2016-9-26T4:35:3Z</time></trkpt>
<trkpt lat="46.26697" lon="7.05753"><ele></ele><time>2016-9-26T4:35:6Z</time></trkpt>
<trkpt lat="46.26693" lon="7.05763"><ele></ele><time>2016-9-26T4:35:9Z</time></trkpt>
<trkpt lat="46.26688" lon="7.05774"><ele></ele><time>2016-9-26T4:35:12Z</time></trkpt>
<trkpt lat="46.26685" lon="7.05784"><ele></ele><time>2016-9-26T4:35:15Z</time></trkpt>
<trkpt lat="46.26681" lon="7.0581"><ele></ele><time>2016-9-26T4:35:18Z</time></trkpt>
<trkpt lat="46.26676" lon="7.05836"><ele></ele><time>2016-9-26T4:35:21Z</time></trkpt>
<trkpt lat="46.26674" lon="7.05848"><ele></ele><time>2016-9-26T4:35:24Z</time></trkpt>
<trkpt lat="46.26672" lon="7.05862"><ele></ele><time>2016-9-26T4:35:27Z</time></trkpt>
<trkpt lat="46.26672" lon="7.05889"><ele></ele><time>2016-9-26T4:35:30Z</time></trkpt>
<trkpt lat="46.26674" lon="7.05904"><ele></ele><time>2016-9-26T4:35:33Z</time></trkpt>
<trkpt lat="46.26676" lon="7.05919"><ele></ele><time>2016-9-26T4:35:36Z</time></trkpt>
<trkpt lat="46.26678" lon="7.05934"><ele></ele><time>2016-9-26T4:35:39Z</time></trkpt>
<trkpt lat="46.26678" lon="7.05948"><ele></ele><time>2016-9-26T4:35:42Z</time></trkpt>
<trkpt lat="46.26676" lon="7.05962"><ele></ele><time>2016-9-26T4:35:45Z</time></trkpt>
<trkpt lat="46.26672" lon="7.05975"><ele></ele><time>2016-9-26T4:35:48Z</time></trkpt>
<trkpt lat="46.26667" lon="7.05988"><ele></ele><time>2016-9-26T4:35:51Z</time></trkpt>
<trkpt lat="46.26663" lon="7.05999"><ele></ele><time>2016-9-26T4:35:54Z</time></trkpt>
<trkpt lat="46.26655" lon="7.06016"><ele></ele><time>2016-9-26T4:35:57Z</time></trkpt>
<trkpt lat="46.26651" lon="7.06022"><ele></ele><time>2016-9-26T4:36:0Z</time></trkpt>
<trkpt lat="46.26649" lon="7.06021"><ele></ele><time>2016-9-26T4:36:3Z</time></trkpt>
<trkpt lat="46.26647" lon="7.06019"><ele></ele><time>2016-9-26T4:36:6Z</time></trkpt>
<trkpt lat="46.26649" lon="7.06015"><ele></ele><time>2016-9-26T4:36:9Z</time></trkpt>
<trkpt lat="46.26653" lon="7.06006"><ele></ele><time>2016-9-26T4:36:12Z</time></trkpt>
<trkpt lat="46.26654" lon="7.06"><ele></ele><time>2016-9-26T4:36:15Z</time></trkpt>
<trkpt lat="46.26654" lon="7.05991"><ele></ele><time>2016-9-26T4:36:18Z</time></trkpt>
<trkpt lat="46.26653" lon="7.05973"><ele></ele><time>2016-9-26T4:36:21Z</time></trkpt>
<trkpt lat="46.26653" lon="7.05955"><ele></ele><time>2016-9-26T4:36:24Z</time></trkpt>
<trkpt lat="46.26652" lon="7.05937"><ele></ele><time>2016-9-26T4:36:27Z</time></trkpt>
<trkpt lat="46.26652" lon="7.05928"><ele></ele><time>2016-9-26T4:36:30Z</time></trkpt>
<trkpt lat="46.2665" lon="7.05918"><ele></ele><time>2016-9-26T4:36:33Z</time></trkpt>
<trkpt lat="46.26648" lon="7.05897"><ele></ele><time>2016-9-26T4:36:36Z</time></trkpt>
<trkpt lat="46.26646" lon="7.05887"><ele></ele><time>2016-9-26T4:36:39Z</time></trkpt>
<trkpt lat="46.26641" lon="7.05877"><ele></ele><time>2016-9-26T4:36:42Z</time></trkpt>
<trkpt lat="46.26632" lon="7.05857"><ele></ele><time>2016-9-26T4:36:45Z</time></trkpt>
<trkpt lat="46.26623" lon="7.05836"><ele></ele><time>2016-9-26T4:36:48Z</time></trkpt>
<trkpt lat="46.26622" lon="7.05823"><ele></ele><time>2016-9-26T4:36:51Z</time></trkpt>
<trkpt lat="46.26621" lon="7.05797"><ele></ele><time>2016-9-26T4:36:54Z</time></trkpt>
<trkpt lat="46.26623" lon="7.05782"><ele></ele><time>2016-9-26T4:36:57Z</time></trkpt>
<trkpt lat="46.26627" lon="7.05751"><ele></ele><time>2016-9-26T4:37:0Z</time></trkpt>
<trkpt lat="46.26625" lon="7.05717"><ele></ele><time>2016-9-26T4:37:3Z</time></trkpt>
<trkpt lat="46.26624" lon="7.057"><ele></ele><time>2016-9-26T4:37:6Z</time></trkpt>
<trkpt lat="46.26621" lon="7.05683"><ele></ele><time>2016-9-26T4:37:9Z</time></trkpt>
<trkpt lat="46.26617" lon="7.05667"><ele></ele><time>2016-9-26T4:37:12Z</time></trkpt>
<trkpt lat="46.26613" lon="7.0565"><ele></ele><time>2016-9-26T4:37:15Z</time></trkpt>
<trkpt lat="46.26601" lon="7.05618"><ele></ele><time>2016-9-26T4:37:18Z</time></trkpt>
<trkpt lat="46.26594" lon="7.05602"><ele></ele><time>2016-9-26T4:37:21Z</time></trkpt>
<trkpt lat="46.26587" lon="7.05588"><ele></ele><time>2016-9-26T4:37:24Z</time></trkpt>
<trkpt lat="46.2658" lon="7.05573"><ele></ele><time>2016-9-26T4:37:27Z</time></trkpt>
<trkpt lat="46.26573" lon="7.05559"><ele></ele><time>2016-9-26T4:37:30Z</time></trkpt>
<trkpt lat="46.26565" lon="7.05545"><ele></ele><time>2016-9-26T4:37:33Z</time></trkpt>
<trkpt lat="46.2654" lon="7.05513"><ele></ele><time>2016-9-26T4:37:36Z</time></trkpt>
<trkpt lat="46.26528" lon="7.05492"><ele></ele><time>2016-9-26T4:37:39Z</time></trkpt>
<trkpt lat="46.2652" lon="7.05482"><ele></ele><time>2016-9-26T4:37:42Z</time></trkpt>
<trkpt lat="46.26515" lon="7.05467"><ele></ele><time>2016-9-26T4:37:45Z</time></trkpt>
<trkpt lat="46.2651" lon="7.05453"><ele></ele><time>2016-9-26T4:37:48Z</time></trkpt>
<trkpt lat="46.26505" lon="7.05438"><ele></ele><time>2016-9-26T4:37:51Z</time></trkpt>
<trkpt lat="46.26502" lon="7.0543"><ele></ele><time>2016-9-26T4:37:54Z</time></trkpt>
<trkpt lat="46.26496" lon="7.05421"><ele></ele><time>2016-9-26T4:37:57Z</time></trkpt>
<trkpt lat="46.2649" lon="7.05411"><ele></ele><time>2016-9-26T4:38:0Z</time></trkpt>
<trkpt lat="46.26485" lon="7.05399"><ele></ele><time>2016-9-26T4:38:3Z</time></trkpt>
<trkpt lat="46.26482" lon="7.05385"><ele></ele><time>2016-9-26T4:38:6Z</time></trkpt>
<trkpt lat="46.26482" lon="7.05367"><ele></ele><time>2016-9-26T4:38:9Z</time></trkpt>
<trkpt lat="46.26481" lon="7.05329"><ele></ele><time>2016-9-26T4:38:12Z</time></trkpt>
<trkpt lat="46.2648" lon="7.05311"><ele></ele><time>2016-9-26T4:38:15Z</time></trkpt>
<trkpt lat="46.26477" lon="7.05295"><ele></ele><time>2016-9-26T4:38:18Z</time></trkpt>
<trkpt lat="46.2647" lon="7.05263"><ele></ele><time>2016-9-26T4:38:21Z</time></trkpt>
<trkpt lat="46.26464" lon="7.05245"><ele></ele><time>2016-9-26T4:38:24Z</time></trkpt>
<trkpt lat="46.26458" lon="7.05226"><ele></ele><time>2016-9-26T4:38:27Z</time></trkpt>
<trkpt lat="46.26445" lon="7.05191"><ele></ele><time>2016-9-26T4:38:30Z</time></trkpt>
<trkpt lat="46.26432" lon="7.0517"><ele></ele><time>2016-9-26T4:38:33Z</time></trkpt>
<trkpt lat="46.26426" lon="7.0516"><ele></ele><time>2016-9-26T4:38:36Z</time></trkpt>
<trkpt lat="46.26418" lon="7.05151"><ele></ele><time>2016-9-26T4:38:39Z</time></trkpt>
<trkpt lat="46.264" lon="7.05141"><ele></ele><time>2016-9-26T4:38:42Z</time></trkpt>
<trkpt lat="46.2638" lon="7.0513"><ele></ele><time>2016-9-26T4:38:45Z</time></trkpt>
<trkpt lat="46.26361" lon="7.05105"><ele></ele><time>2016-9-26T4:38:48Z</time></trkpt>
<trkpt lat="46.26361" lon="7.05073"><ele></ele><time>2016-9-26T4:38:51Z</time></trkpt>
<trkpt lat="46.26361" lon="7.05057"><ele></ele><time>2016-9-26T4:38:54Z</time></trkpt>
<trkpt lat="46.2636" lon="7.05041"><ele></ele><time>2016-9-26T4:38:57Z</time></trkpt>
<trkpt lat="46.26354" lon="7.05008"><ele></ele><time>2016-9-26T4:39:0Z</time></trkpt>
<trkpt lat="46.26351" lon="7.04987"><ele></ele><time>2016-9-26T4:39:3Z</time></trkpt>
<trkpt lat="46.26351" lon="7.04974"><ele></ele><time>2016-9-26T4:39:6Z</time></trkpt>
<trkpt lat="46.26351" lon="7.04961"><ele></ele><time>2016-9-26T4:39:9Z</time></trkpt>
<trkpt lat="46.26352" lon="7.04948"><ele></ele><time>2016-9-26T4:39:12Z</time></trkpt>
<trkpt lat="46.26355" lon="7.04936"><ele></ele><time>2016-9-26T4:39:15Z</time></trkpt>
<trkpt lat="46.26372" lon="7.04925"><ele></ele><time>2016-9-26T4:39:18Z</time></trkpt>
<trkpt lat="46.26381" lon="7.04921"><ele></ele><time>2016-9-26T4:39:21Z</time></trkpt>
<trkpt lat="46.26388" lon="7.04913"><ele></ele><time>2016-9-26T4:39:24Z</time></trkpt>
<trkpt lat="46.26395" lon="7.04906"><ele></ele><time>2016-9-26T4:39:27Z</time></trkpt>
<trkpt lat="46.26404" lon="7.04904"><ele></ele><time>2016-9-26T4:39:30Z</time></trkpt>
<trkpt lat="46.26413" lon="7.04907"><ele></ele><time>2016-9-26T4:39:33Z</time></trkpt>
<trkpt lat="46.2644" lon="7.04912"><ele></ele><time>2016-9-26T4:39:36Z</time></trkpt>
<trkpt lat="46.26449" lon="7.04904"><ele></ele><time>2016-9-26T4:39:39Z</time></trkpt>
<trkpt lat="46.26453" lon="7.04898"><ele></ele><time>2016-9-26T4:39:42Z</time></trkpt>
<trkpt lat="46.26455" lon="7.04889"><ele></ele><time>2016-9-26T4:39:45Z</time></trkpt>
<trkpt lat="46.26456" lon="7.04862"><ele></ele><time>2016-9-26T4:39:48Z</time></trkpt>
<trkpt lat="46.26455" lon="7.04835"><ele></ele><time>2016-9-26T4:39:51Z</time></trkpt>
<trkpt lat="46.26453" lon="7.0482"><ele></ele><time>2016-9-26T4:39:54Z</time></trkpt>
<trkpt lat="46.26445" lon="7.04774"><ele></ele><time>2016-9-26T4:39:57Z</time></trkpt>
<trkpt lat="46.26442" lon="7.04758"><ele></ele><time>2016-9-26T4:40:0Z</time></trkpt>
<trkpt lat="46.26439" lon="7.04739"><ele></ele><time>2016-9-26T4:40:3Z</time></trkpt>
<trkpt lat="46.26434" lon="7.04701"><ele></ele><time>2016-9-26T4:40:6Z</time></trkpt>
<trkpt lat="46.2643" lon="7.04683"><ele></ele><time>2016-9-26T4:40:9Z</time></trkpt>
<trkpt lat="46.26426" lon="7.04667"><ele></ele><time>2016-9-26T4:40:12Z</time></trkpt>
<trkpt lat="46.26418" lon="7.04633"><ele></ele><time>2016-9-26T4:40:15Z</time></trkpt>
<trkpt lat="46.26415" lon="7.04618"><ele></ele><time>2016-9-26T4:40:18Z</time></trkpt>
<trkpt lat="46.26415" lon="7.04607"><ele></ele><time>2016-9-26T4:40:21Z</time></trkpt>
<trkpt lat="46.26411" lon="7.04578"><ele></ele><time>2016-9-26T4:40:24Z</time></trkpt>
<trkpt lat="46.26413" lon="7.04545"><ele></ele><time>2016-9-26T4:40:27Z</time></trkpt>
<trkpt lat="46.26415" lon="7.0453"><ele></ele><time>2016-9-26T4:40:30Z</time></trkpt>
<trkpt lat="46.26414" lon="7.04517"><ele></ele><time>2016-9-26T4:40:33Z</time></trkpt>
<trkpt lat="46.26415" lon="7.04504"><ele></ele><time>2016-9-26T4:40:36Z</time></trkpt>
<trkpt lat="46.26422" lon="7.04482"><ele></ele><time>2016-9-26T4:40:39Z</time></trkpt>
<trkpt lat="46.26426" lon="7.04471"><ele></ele><time>2016-9-26T4:40:42Z</time></trkpt>
<trkpt lat="46.26434" lon="7.04448"><ele></ele><time>2016-9-26T4:40:45Z</time></trkpt>
<trkpt lat="46.26436" lon="7.04436"><ele></ele><time>2016-9-26T4:40:48Z</time></trkpt>
<trkpt lat="46.26436" lon="7.04424"><ele></ele><time>2016-9-26T4:40:51Z</time></trkpt>
<trkpt lat="46.26436" lon="7.04411"><ele></ele><time>2016-9-26T4:40:54Z</time></trkpt>
<trkpt lat="46.26437" lon="7.04399"><ele></ele><time>2016-9-26T4:40:57Z</time></trkpt>
<trkpt lat="46.26437" lon="7.04386"><ele></ele><time>2016-9-26T4:41:0Z</time></trkpt>
<trkpt lat="46.26436" lon="7.04374"><ele></ele><time>2016-9-26T4:41:3Z</time></trkpt>
<trkpt lat="46.26435" lon="7.04366"><ele></ele><time>2016-9-26T4:41:6Z</time></trkpt>
<trkpt lat="46.26434" lon="7.04357"><ele></ele><time>2016-9-26T4:41:9Z</time></trkpt>
<trkpt lat="46.26434" lon="7.04341"><ele></ele><time>2016-9-26T4:41:12Z</time></trkpt>
<trkpt lat="46.26438" lon="7.04337"><ele></ele><time>2016-9-26T4:41:15Z</time></trkpt>
<trkpt lat="46.26438" lon="7.0433"><ele></ele><time>2016-9-26T4:41:18Z</time></trkpt>
<trkpt lat="46.2644" lon="7.04328"><ele></ele><time>2016-9-26T4:41:21Z</time></trkpt>
<trkpt lat="46.26445" lon="7.04332"><ele></ele><time>2016-9-26T4:41:24Z</time></trkpt>
<trkpt lat="46.26453" lon="7.04328"><ele></ele><time>2016-9-26T4:41:27Z</time></trkpt>
<trkpt lat="46.26461" lon="7.04325"><ele></ele><time>2016-9-26T4:41:30Z</time></trkpt>
<trkpt lat="46.26468" lon="7.04321"><ele></ele><time>2016-9-26T4:41:33Z</time></trkpt>
<trkpt lat="46.26476" lon="7.04317"><ele></ele><time>2016-9-26T4:41:36Z</time></trkpt>
<trkpt lat="46.26485" lon="7.04303"><ele></ele><time>2016-9-26T4:41:39Z</time></trkpt>
<trkpt lat="46.2649" lon="7.04296"><ele></ele><time>2016-9-26T4:41:42Z</time></trkpt>
<trkpt lat="46.26504" lon="7.04276"><ele></ele><time>2016-9-26T4:41:45Z</time></trkpt>
<trkpt lat="46.26508" lon="7.04268"><ele></ele><time>2016-9-26T4:41:48Z</time></trkpt>
<trkpt lat="46.26513" lon="7.04258"><ele></ele><time>2016-9-26T4:41:51Z</time></trkpt>
<trkpt lat="46.26516" lon="7.04247"><ele></ele><time>2016-9-26T4:41:54Z</time></trkpt>
<trkpt lat="46.26517" lon="7.04234"><ele></ele><time>2016-9-26T4:41:57Z</time></trkpt>
<trkpt lat="46.26518" lon="7.04209"><ele></ele><time>2016-9-26T4:42:0Z</time></trkpt>
<trkpt lat="46.26513" lon="7.04188"><ele></ele><time>2016-9-26T4:42:3Z</time></trkpt>
<trkpt lat="46.26503" lon="7.04169"><ele></ele><time>2016-9-26T4:42:6Z</time></trkpt>
<trkpt lat="46.26499" lon="7.04158"><ele></ele><time>2016-9-26T4:42:9Z</time></trkpt>
<trkpt lat="46.26499" lon="7.04145"><ele></ele><time>2016-9-26T4:42:12Z</time></trkpt>
<trkpt lat="46.26499" lon="7.04132"><ele></ele><time>2016-9-26T4:42:15Z</time></trkpt>
<trkpt lat="46.26501" lon="7.04116"><ele></ele><time>2016-9-26T4:42:18Z</time></trkpt>
<trkpt lat="46.26504" lon="7.04085"><ele></ele><time>2016-9-26T4:42:21Z</time></trkpt>
<trkpt lat="46.26506" lon="7.04069"><ele></ele><time>2016-9-26T4:42:24Z</time></trkpt>
<trkpt lat="46.26508" lon="7.04053"><ele></ele><time>2016-9-26T4:42:27Z</time></trkpt>
<trkpt lat="46.26512" lon="7.0402"><ele></ele><time>2016-9-26T4:42:30Z</time></trkpt>
<trkpt lat="46.26515" lon="7.03988"><ele></ele><time>2016-9-26T4:42:33Z</time></trkpt>
<trkpt lat="46.26517" lon="7.03976"><ele></ele><time>2016-9-26T4:42:36Z</time></trkpt>
<trkpt lat="46.26519" lon="7.03964"><ele></ele><time>2016-9-26T4:42:39Z</time></trkpt>
<trkpt lat="46.26525" lon="7.03942"><ele></ele><time>2016-9-26T4:42:42Z</time></trkpt>
<trkpt lat="46.26539" lon="7.03931"><ele></ele><time>2016-9-26T4:42:45Z</time></trkpt>
<trkpt lat="46.26546" lon="7.03924"><ele></ele><time>2016-9-26T4:42:48Z</time></trkpt>
<trkpt lat="46.26553" lon="7.03912"><ele></ele><time>2016-9-26T4:42:51Z</time></trkpt>
<trkpt lat="46.26564" lon="7.03883"><ele></ele><time>2016-9-26T4:42:54Z</time></trkpt>
<trkpt lat="46.26576" lon="7.03855"><ele></ele><time>2016-9-26T4:42:57Z</time></trkpt>
<trkpt lat="46.26582" lon="7.03842"><ele></ele><time>2016-9-26T4:43:0Z</time></trkpt>
<trkpt lat="46.26595" lon="7.03815"><ele></ele><time>2016-9-26T4:43:3Z</time></trkpt>
<trkpt lat="46.266" lon="7.03782"><ele></ele><time>2016-9-26T4:43:6Z</time></trkpt>
<trkpt lat="46.26603" lon="7.03766"><ele></ele><time>2016-9-26T4:43:9Z</time></trkpt>
<trkpt lat="46.26605" lon="7.03749"><ele></ele><time>2016-9-26T4:43:12Z</time></trkpt>
<trkpt lat="46.26604" lon="7.03731"><ele></ele><time>2016-9-26T4:43:15Z</time></trkpt>
<trkpt lat="46.266" lon="7.03712"><ele></ele><time>2016-9-26T4:43:18Z</time></trkpt>
<trkpt lat="46.26596" lon="7.03673"><ele></ele><time>2016-9-26T4:43:21Z</time></trkpt>
<trkpt lat="46.26591" lon="7.03654"><ele></ele><time>2016-9-26T4:43:24Z</time></trkpt>
<trkpt lat="46.26588" lon="7.03637"><ele></ele><time>2016-9-26T4:43:27Z</time></trkpt>
<trkpt lat="46.26583" lon="7.0362"><ele></ele><time>2016-9-26T4:43:30Z</time></trkpt>
<trkpt lat="46.26578" lon="7.03603"><ele></ele><time>2016-9-26T4:43:33Z</time></trkpt>
<trkpt lat="46.26569" lon="7.03569"><ele></ele><time>2016-9-26T4:43:36Z</time></trkpt>
<trkpt lat="46.26567" lon="7.03551"><ele></ele><time>2016-9-26T4:43:39Z</time></trkpt>
<trkpt lat="46.26565" lon="7.03532"><ele></ele><time>2016-9-26T4:43:42Z</time></trkpt>
<trkpt lat="46.26563" lon="7.03514"><ele></ele><time>2016-9-26T4:43:45Z</time></trkpt>
<trkpt lat="46.26563" lon="7.03479"><ele></ele><time>2016-9-26T4:43:48Z</time></trkpt>
<trkpt lat="46.26563" lon="7.03462"><ele></ele><time>2016-9-26T4:43:51Z</time></trkpt>
<trkpt lat="46.26562" lon="7.03445"><ele></ele><time>2016-9-26T4:43:54Z</time></trkpt>
<trkpt lat="46.26558" lon="7.03431"><ele></ele><time>2016-9-26T4:43:57Z</time></trkpt>
<trkpt lat="46.26554" lon="7.03418"><ele></ele><time>2016-9-26T4:44:0Z</time></trkpt>
<trkpt lat="46.26548" lon="7.03409"><ele></ele><time>2016-9-26T4:44:3Z</time></trkpt>
<trkpt lat="46.26542" lon="7.034"><ele></ele><time>2016-9-26T4:44:6Z</time></trkpt>
<trkpt lat="46.26536" lon="7.03391"><ele></ele><time>2016-9-26T4:44:9Z</time></trkpt>
<trkpt lat="46.26531" lon="7.0338"><ele></ele><time>2016-9-26T4:44:12Z</time></trkpt>
<trkpt lat="46.26527" lon="7.03367"><ele></ele><time>2016-9-26T4:44:15Z</time></trkpt>
<trkpt lat="46.26519" lon="7.03339"><ele></ele><time>2016-9-26T4:44:18Z</time></trkpt>
<trkpt lat="46.26512" lon="7.0331"><ele></ele><time>2016-9-26T4:44:21Z</time></trkpt>
<trkpt lat="46.26506" lon="7.03278"><ele></ele><time>2016-9-26T4:44:24Z</time></trkpt>
<trkpt lat="46.26495" lon="7.03247"><ele></ele><time>2016-9-26T4:44:27Z</time></trkpt>
<trkpt lat="46.26483" lon="7.03217"><ele></ele><time>2016-9-26T4:44:30Z</time></trkpt>
<trkpt lat="46.26469" lon="7.03186"><ele></ele><time>2016-9-26T4:44:33Z</time></trkpt>
<trkpt lat="46.2646" lon="7.03174"><ele></ele><time>2016-9-26T4:44:36Z</time></trkpt>
<trkpt lat="46.26443" lon="7.0315"><ele></ele><time>2016-9-26T4:44:39Z</time></trkpt>
<trkpt lat="46.26435" lon="7.03139"><ele></ele><time>2016-9-26T4:44:42Z</time></trkpt>
<trkpt lat="46.26427" lon="7.03131"><ele></ele><time>2016-9-26T4:44:45Z</time></trkpt>
<trkpt lat="46.26419" lon="7.03124"><ele></ele><time>2016-9-26T4:44:48Z</time></trkpt>
<trkpt lat="46.26411" lon="7.03117"><ele></ele><time>2016-9-26T4:44:51Z</time></trkpt>
<trkpt lat="46.26401" lon="7.03111"><ele></ele><time>2016-9-26T4:44:54Z</time></trkpt>
<trkpt lat="46.26393" lon="7.03103"><ele></ele><time>2016-9-26T4:44:57Z</time></trkpt>
<trkpt lat="46.2639" lon="7.03094"><ele></ele><time>2016-9-26T4:45:0Z</time></trkpt>
<trkpt lat="46.26378" lon="7.03077"><ele></ele><time>2016-9-26T4:45:3Z</time></trkpt>
<trkpt lat="46.26372" lon="7.03068"><ele></ele><time>2016-9-26T4:45:6Z</time></trkpt>
<trkpt lat="46.26366" lon="7.03055"><ele></ele><time>2016-9-26T4:45:9Z</time></trkpt>
<trkpt lat="46.26355" lon="7.03029"><ele></ele><time>2016-9-26T4:45:12Z</time></trkpt>
<trkpt lat="46.26341" lon="7.0301"><ele></ele><time>2016-9-26T4:45:15Z</time></trkpt>
<trkpt lat="46.26328" lon="7.02992"><ele></ele><time>2016-9-26T4:45:18Z</time></trkpt>
<trkpt lat="46.26312" lon="7.02982"><ele></ele><time>2016-9-26T4:45:21Z</time></trkpt>
<trkpt lat="46.26292" lon="7.02975"><ele></ele><time>2016-9-26T4:45:24Z</time></trkpt>
<trkpt lat="46.26274" lon="7.02967"><ele></ele><time>2016-9-26T4:45:27Z</time></trkpt>
<trkpt lat="46.26247" lon="7.02951"><ele></ele><time>2016-9-26T4:45:30Z</time></trkpt>
<trkpt lat="46.26237" lon="7.02949"><ele></ele><time>2016-9-26T4:45:33Z</time></trkpt>
<trkpt lat="46.26216" lon="7.02946"><ele></ele><time>2016-9-26T4:45:36Z</time></trkpt>
<trkpt lat="46.26197" lon="7.02946"><ele></ele><time>2016-9-26T4:45:39Z</time></trkpt>
<trkpt lat="46.26187" lon="7.02946"><ele></ele><time>2016-9-26T4:45:42Z</time></trkpt>
<trkpt lat="46.26177" lon="7.02946"><ele></ele><time>2016-9-26T4:45:45Z</time></trkpt>
<trkpt lat="46.26168" lon="7.02944"><ele></ele><time>2016-9-26T4:45:48Z</time></trkpt>
<trkpt lat="46.26155" lon="7.02933"><ele></ele><time>2016-9-26T4:45:51Z</time></trkpt>
<trkpt lat="46.26149" lon="7.02928"><ele></ele><time>2016-9-26T4:45:54Z</time></trkpt>
<trkpt lat="46.26145" lon="7.02925"><ele></ele><time>2016-9-26T4:45:57Z</time></trkpt>
<trkpt lat="46.26141" lon="7.02921"><ele></ele><time>2016-9-26T4:46:0Z</time></trkpt>
<trkpt lat="46.26129" lon="7.02913"><ele></ele><time>2016-9-26T4:46:3Z</time></trkpt>
<trkpt lat="46.26122" lon="7.02916"><ele></ele><time>2016-9-26T4:46:6Z</time></trkpt>
<trkpt lat="46.2611" lon="7.02921"><ele></ele><time>2016-9-26T4:46:9Z</time></trkpt>
<trkpt lat="46.26104" lon="7.02925"><ele></ele><time>2016-9-26T4:46:12Z</time></trkpt>
<trkpt lat="46.26098" lon="7.02934"><ele></ele><time>2016-9-26T4:46:15Z</time></trkpt>
<trkpt lat="46.26088" lon="7.02952"><ele></ele><time>2016-9-26T4:46:18Z</time></trkpt>
<trkpt lat="46.26071" lon="7.0298"><ele></ele><time>2016-9-26T4:46:21Z</time></trkpt>
<trkpt lat="46.26066" lon="7.0299"><ele></ele><time>2016-9-26T4:46:24Z</time></trkpt>
<trkpt lat="46.26055" lon="7.0301"><ele></ele><time>2016-9-26T4:46:27Z</time></trkpt>
<trkpt lat="46.26043" lon="7.0303"><ele></ele><time>2016-9-26T4:46:30Z</time></trkpt>
<trkpt lat="46.26025" lon="7.03051"><ele></ele><time>2016-9-26T4:46:33Z</time></trkpt>
<trkpt lat="46.26019" lon="7.03058"><ele></ele><time>2016-9-26T4:46:36Z</time></trkpt>
<trkpt lat="46.26007" lon="7.0307"><ele></ele><time>2016-9-26T4:46:39Z</time></trkpt>
<trkpt lat="46.26001" lon="7.03073"><ele></ele><time>2016-9-26T4:46:42Z</time></trkpt>
<trkpt lat="46.25988" lon="7.03079"><ele></ele><time>2016-9-26T4:46:45Z</time></trkpt>
<trkpt lat="46.25981" lon="7.03081"><ele></ele><time>2016-9-26T4:46:48Z</time></trkpt>
<trkpt lat="46.25968" lon="7.03087"><ele></ele><time>2016-9-26T4:46:51Z</time></trkpt>
<trkpt lat="46.25962" lon="7.03089"><ele></ele><time>2016-9-26T4:46:54Z</time></trkpt>
<trkpt lat="46.25955" lon="7.03091"><ele></ele><time>2016-9-26T4:46:57Z</time></trkpt>
<trkpt lat="46.25942" lon="7.03094"><ele></ele><time>2016-9-26T4:47:0Z</time></trkpt>
<trkpt lat="46.25929" lon="7.03096"><ele></ele><time>2016-9-26T4:47:3Z</time></trkpt>
<trkpt lat="46.25916" lon="7.03099"><ele></ele><time>2016-9-26T4:47:6Z</time></trkpt>
<trkpt lat="46.25909" lon="7.03098"><ele></ele><time>2016-9-26T4:47:9Z</time></trkpt>
<trkpt lat="46.25903" lon="7.03097"><ele></ele><time>2016-9-26T4:47:12Z</time></trkpt>
<trkpt lat="46.25889" lon="7.03095"><ele></ele><time>2016-9-26T4:47:15Z</time></trkpt>
<trkpt lat="46.25876" lon="7.03094"><ele></ele><time>2016-9-26T4:47:18Z</time></trkpt>
<trkpt lat="46.2587" lon="7.03093"><ele></ele><time>2016-9-26T4:47:21Z</time></trkpt>
<trkpt lat="46.25862" lon="7.03091"><ele></ele><time>2016-9-26T4:47:24Z</time></trkpt>
<trkpt lat="46.25847" lon="7.03088"><ele></ele><time>2016-9-26T4:47:27Z</time></trkpt>
<trkpt lat="46.25833" lon="7.03086"><ele></ele><time>2016-9-26T4:47:30Z</time></trkpt>
<trkpt lat="46.25817" lon="7.03084"><ele></ele><time>2016-9-26T4:47:33Z</time></trkpt>
<trkpt lat="46.25788" lon="7.03085"><ele></ele><time>2016-9-26T4:47:36Z</time></trkpt>
<trkpt lat="46.25779" lon="7.03086"><ele></ele><time>2016-9-26T4:47:39Z</time></trkpt>
<trkpt lat="46.25769" lon="7.03086"><ele></ele><time>2016-9-26T4:47:42Z</time></trkpt>
<trkpt lat="46.25757" lon="7.03086"><ele></ele><time>2016-9-26T4:47:45Z</time></trkpt>
<trkpt lat="46.25746" lon="7.03087"><ele></ele><time>2016-9-26T4:47:48Z</time></trkpt>
<trkpt lat="46.25735" lon="7.03087"><ele></ele><time>2016-9-26T4:47:51Z</time></trkpt>
<trkpt lat="46.25724" lon="7.03086"><ele></ele><time>2016-9-26T4:47:54Z</time></trkpt>
<trkpt lat="46.25713" lon="7.03081"><ele></ele><time>2016-9-26T4:47:57Z</time></trkpt>
<trkpt lat="46.25691" lon="7.03069"><ele></ele><time>2016-9-26T4:48:0Z</time></trkpt>
<trkpt lat="46.25682" lon="7.0306"><ele></ele><time>2016-9-26T4:48:3Z</time></trkpt>
<trkpt lat="46.25673" lon="7.03051"><ele></ele><time>2016-9-26T4:48:6Z</time></trkpt>
<trkpt lat="46.25665" lon="7.03041"><ele></ele><time>2016-9-26T4:48:9Z</time></trkpt>
<trkpt lat="46.25658" lon="7.0303"><ele></ele><time>2016-9-26T4:48:12Z</time></trkpt>
<trkpt lat="46.25643" lon="7.03009"><ele></ele><time>2016-9-26T4:48:15Z</time></trkpt>
<trkpt lat="46.25629" lon="7.02987"><ele></ele><time>2016-9-26T4:48:18Z</time></trkpt>
<trkpt lat="46.2561" lon="7.02954"><ele></ele><time>2016-9-26T4:48:21Z</time></trkpt>
<trkpt lat="46.25604" lon="7.02943"><ele></ele><time>2016-9-26T4:48:24Z</time></trkpt>
<trkpt lat="46.25597" lon="7.02932"><ele></ele><time>2016-9-26T4:48:27Z</time></trkpt>
<trkpt lat="46.25589" lon="7.02921"><ele></ele><time>2016-9-26T4:48:30Z</time></trkpt>
<trkpt lat="46.25573" lon="7.02901"><ele></ele><time>2016-9-26T4:48:33Z</time></trkpt>
<trkpt lat="46.25557" lon="7.0288"><ele></ele><time>2016-9-26T4:48:36Z</time></trkpt>
<trkpt lat="46.25548" lon="7.02868"><ele></ele><time>2016-9-26T4:48:39Z</time></trkpt>
<trkpt lat="46.25539" lon="7.02857"><ele></ele><time>2016-9-26T4:48:42Z</time></trkpt>
<trkpt lat="46.25522" lon="7.02835"><ele></ele><time>2016-9-26T4:48:45Z</time></trkpt>
<trkpt lat="46.25505" lon="7.02811"><ele></ele><time>2016-9-26T4:48:48Z</time></trkpt>
<trkpt lat="46.25497" lon="7.02799"><ele></ele><time>2016-9-26T4:48:51Z</time></trkpt>
<trkpt lat="46.25488" lon="7.02787"><ele></ele><time>2016-9-26T4:48:54Z</time></trkpt>
<trkpt lat="46.25459" lon="7.02752"><ele></ele><time>2016-9-26T4:48:57Z</time></trkpt>
<trkpt lat="46.25448" lon="7.02741"><ele></ele><time>2016-9-26T4:49:0Z</time></trkpt>
<trkpt lat="46.25437" lon="7.02732"><ele></ele><time>2016-9-26T4:49:3Z</time></trkpt>
<trkpt lat="46.25414" lon="7.02715"><ele></ele><time>2016-9-26T4:49:6Z</time></trkpt>
<trkpt lat="46.25404" lon="7.02705"><ele></ele><time>2016-9-26T4:49:9Z</time></trkpt>
<trkpt lat="46.25387" lon="7.02677"><ele></ele><time>2016-9-26T4:49:12Z</time></trkpt>
<trkpt lat="46.25379" lon="7.02662"><ele></ele><time>2016-9-26T4:49:15Z</time></trkpt>
<trkpt lat="46.25374" lon="7.02647"><ele></ele><time>2016-9-26T4:49:18Z</time></trkpt>
<trkpt lat="46.25359" lon="7.02601"><ele></ele><time>2016-9-26T4:49:21Z</time></trkpt>
<trkpt lat="46.25356" lon="7.02582"><ele></ele><time>2016-9-26T4:49:24Z</time></trkpt>
<trkpt lat="46.25352" lon="7.02562"><ele></ele><time>2016-9-26T4:49:27Z</time></trkpt>
<trkpt lat="46.25348" lon="7.02543"><ele></ele><time>2016-9-26T4:49:30Z</time></trkpt>
<trkpt lat="46.25342" lon="7.02528"><ele></ele><time>2016-9-26T4:49:33Z</time></trkpt>
<trkpt lat="46.2533" lon="7.02498"><ele></ele><time>2016-9-26T4:49:36Z</time></trkpt>
<trkpt lat="46.25324" lon="7.02484"><ele></ele><time>2016-9-26T4:49:39Z</time></trkpt>
<trkpt lat="46.25306" lon="7.02444"><ele></ele><time>2016-9-26T4:49:42Z</time></trkpt>
<trkpt lat="46.25295" lon="7.02417"><ele></ele><time>2016-9-26T4:49:45Z</time></trkpt>
<trkpt lat="46.2529" lon="7.02404"><ele></ele><time>2016-9-26T4:49:48Z</time></trkpt>
<trkpt lat="46.2528" lon="7.02376"><ele></ele><time>2016-9-26T4:49:51Z</time></trkpt>
<trkpt lat="46.25275" lon="7.02362"><ele></ele><time>2016-9-26T4:49:54Z</time></trkpt>
<trkpt lat="46.25271" lon="7.02347"><ele></ele><time>2016-9-26T4:49:57Z</time></trkpt>
<trkpt lat="46.25247" lon="7.02309"><ele></ele><time>2016-9-26T4:50:0Z</time></trkpt>
<trkpt lat="46.2523" lon="7.02292"><ele></ele><time>2016-9-26T4:50:3Z</time></trkpt>
<trkpt lat="46.25221" lon="7.02284"><ele></ele><time>2016-9-26T4:50:6Z</time></trkpt>
<trkpt lat="46.25212" lon="7.02276"><ele></ele><time>2016-9-26T4:50:9Z</time></trkpt>
<trkpt lat="46.25193" lon="7.02266"><ele></ele><time>2016-9-26T4:50:12Z</time></trkpt>
<trkpt lat="46.25174" lon="7.02256"><ele></ele><time>2016-9-26T4:50:15Z</time></trkpt>
<trkpt lat="46.25164" lon="7.02252"><ele></ele><time>2016-9-26T4:50:18Z</time></trkpt>
<trkpt lat="46.25154" lon="7.0225"><ele></ele><time>2016-9-26T4:50:21Z</time></trkpt>
<trkpt lat="46.25134" lon="7.02247"><ele></ele><time>2016-9-26T4:50:24Z</time></trkpt>
<trkpt lat="46.25114" lon="7.02242"><ele></ele><time>2016-9-26T4:50:27Z</time></trkpt>
<trkpt lat="46.251" lon="7.02229"><ele></ele><time>2016-9-26T4:50:30Z</time></trkpt>
<trkpt lat="46.2509" lon="7.02208"><ele></ele><time>2016-9-26T4:50:33Z</time></trkpt>
<trkpt lat="46.25085" lon="7.02197"><ele></ele><time>2016-9-26T4:50:36Z</time></trkpt>
<trkpt lat="46.2508" lon="7.02187"><ele></ele><time>2016-9-26T4:50:39Z</time></trkpt>
<trkpt lat="46.25072" lon="7.02166"><ele></ele><time>2016-9-26T4:50:42Z</time></trkpt>
<trkpt lat="46.25069" lon="7.02155"><ele></ele><time>2016-9-26T4:50:45Z</time></trkpt>
<trkpt lat="46.25064" lon="7.02134"><ele></ele><time>2016-9-26T4:50:48Z</time></trkpt>
<trkpt lat="46.25057" lon="7.02101"><ele></ele><time>2016-9-26T4:50:51Z</time></trkpt>
<trkpt lat="46.25055" lon="7.0209"><ele></ele><time>2016-9-26T4:50:54Z</time></trkpt>
<trkpt lat="46.25053" lon="7.0208"><ele></ele><time>2016-9-26T4:50:57Z</time></trkpt>
<trkpt lat="46.25049" lon="7.02058"><ele></ele><time>2016-9-26T4:51:0Z</time></trkpt>
<trkpt lat="46.25047" lon="7.02047"><ele></ele><time>2016-9-26T4:51:3Z</time></trkpt>
<trkpt lat="46.25045" lon="7.02036"><ele></ele><time>2016-9-26T4:51:6Z</time></trkpt>
<trkpt lat="46.25042" lon="7.02026"><ele></ele><time>2016-9-26T4:51:9Z</time></trkpt>
<trkpt lat="46.25035" lon="7.02005"><ele></ele><time>2016-9-26T4:51:12Z</time></trkpt>
<trkpt lat="46.25026" lon="7.01975"><ele></ele><time>2016-9-26T4:51:15Z</time></trkpt>
<trkpt lat="46.25023" lon="7.01964"><ele></ele><time>2016-9-26T4:51:18Z</time></trkpt>
<trkpt lat="46.25016" lon="7.01942"><ele></ele><time>2016-9-26T4:51:21Z</time></trkpt>
<trkpt lat="46.2501" lon="7.01921"><ele></ele><time>2016-9-26T4:51:24Z</time></trkpt>
<trkpt lat="46.25007" lon="7.0191"><ele></ele><time>2016-9-26T4:51:27Z</time></trkpt>
<trkpt lat="46.25004" lon="7.019"><ele></ele><time>2016-9-26T4:51:30Z</time></trkpt>
<trkpt lat="46.24998" lon="7.0188"><ele></ele><time>2016-9-26T4:51:33Z</time></trkpt>
<trkpt lat="46.24992" lon="7.01859"><ele></ele><time>2016-9-26T4:51:36Z</time></trkpt>
<trkpt lat="46.24988" lon="7.01849"><ele></ele><time>2016-9-26T4:51:39Z</time></trkpt>
<trkpt lat="46.24983" lon="7.01841"><ele></ele><time>2016-9-26T4:51:42Z</time></trkpt>
<trkpt lat="46.24974" lon="7.01823"><ele></ele><time>2016-9-26T4:51:45Z</time></trkpt>
<trkpt lat="46.24964" lon="7.01806"><ele></ele><time>2016-9-26T4:51:48Z</time></trkpt>
<trkpt lat="46.2496" lon="7.01797"><ele></ele><time>2016-9-26T4:51:51Z</time></trkpt>
<trkpt lat="46.24956" lon="7.01786"><ele></ele><time>2016-9-26T4:51:54Z</time></trkpt>
<trkpt lat="46.24948" lon="7.01766"><ele></ele><time>2016-9-26T4:51:57Z</time></trkpt>
<trkpt lat="46.24944" lon="7.01756"><ele></ele><time>2016-9-26T4:52:0Z</time></trkpt>
<trkpt lat="46.24942" lon="7.01745"><ele></ele><time>2016-9-26T4:52:3Z</time></trkpt>
<trkpt lat="46.24936" lon="7.01723"><ele></ele><time>2016-9-26T4:52:6Z</time></trkpt>
<trkpt lat="46.24931" lon="7.01701"><ele></ele><time>2016-9-26T4:52:9Z</time></trkpt>
<trkpt lat="46.24929" lon="7.0169"><ele></ele><time>2016-9-26T4:52:12Z</time></trkpt>
<trkpt lat="46.24926" lon="7.01681"><ele></ele><time>2016-9-26T4:52:15Z</time></trkpt>
<trkpt lat="46.2492" lon="7.01652"><ele></ele><time>2016-9-26T4:52:18Z</time></trkpt>
<trkpt lat="46.24915" lon="7.01633"><ele></ele><time>2016-9-26T4:52:21Z</time></trkpt>
<trkpt lat="46.24913" lon="7.01623"><ele></ele><time>2016-9-26T4:52:24Z</time></trkpt>
<trkpt lat="46.24909" lon="7.01613"><ele></ele><time>2016-9-26T4:52:27Z</time></trkpt>
<trkpt lat="46.24901" lon="7.01593"><ele></ele><time>2016-9-26T4:52:30Z</time></trkpt>
<trkpt lat="46.24893" lon="7.01572"><ele></ele><time>2016-9-26T4:52:33Z</time></trkpt>
<trkpt lat="46.24889" lon="7.01562"><ele></ele><time>2016-9-26T4:52:36Z</time></trkpt>
<trkpt lat="46.24885" lon="7.01553"><ele></ele><time>2016-9-26T4:52:39Z</time></trkpt>
<trkpt lat="46.24878" lon="7.01534"><ele></ele><time>2016-9-26T4:52:42Z</time></trkpt>
<trkpt lat="46.24874" lon="7.01525"><ele></ele><time>2016-9-26T4:52:45Z</time></trkpt>
<trkpt lat="46.2487" lon="7.01515"><ele></ele><time>2016-9-26T4:52:48Z</time></trkpt>
<trkpt lat="46.24862" lon="7.01497"><ele></ele><time>2016-9-26T4:52:51Z</time></trkpt>
<trkpt lat="46.24852" lon="7.01477"><ele></ele><time>2016-9-26T4:52:54Z</time></trkpt>
<trkpt lat="46.24847" lon="7.01467"><ele></ele><time>2016-9-26T4:52:57Z</time></trkpt>
<trkpt lat="46.24833" lon="7.01438"><ele></ele><time>2016-9-26T4:53:0Z</time></trkpt>
<trkpt lat="46.2483" lon="7.01428"><ele></ele><time>2016-9-26T4:53:3Z</time></trkpt>
<trkpt lat="46.2482" lon="7.014"><ele></ele><time>2016-9-26T4:53:6Z</time></trkpt>
<trkpt lat="46.24817" lon="7.01391"><ele></ele><time>2016-9-26T4:53:9Z</time></trkpt>
<trkpt lat="46.2481" lon="7.01372"><ele></ele><time>2016-9-26T4:53:12Z</time></trkpt>
<trkpt lat="46.24807" lon="7.01362"><ele></ele><time>2016-9-26T4:53:15Z</time></trkpt>
<trkpt lat="46.24801" lon="7.01342"><ele></ele><time>2016-9-26T4:53:18Z</time></trkpt>
<trkpt lat="46.24798" lon="7.01332"><ele></ele><time>2016-9-26T4:53:21Z</time></trkpt>
<trkpt lat="46.24792" lon="7.01312"><ele></ele><time>2016-9-26T4:53:24Z</time></trkpt>
<trkpt lat="46.24786" lon="7.01286"><ele></ele><time>2016-9-26T4:53:27Z</time></trkpt>
<trkpt lat="46.24783" lon="7.01278"><ele></ele><time>2016-9-26T4:53:30Z</time></trkpt>
<trkpt lat="46.24778" lon="7.01271"><ele></ele><time>2016-9-26T4:53:33Z</time></trkpt>
<trkpt lat="46.24773" lon="7.01266"><ele></ele><time>2016-9-26T4:53:36Z</time></trkpt>
<trkpt lat="46.24758" lon="7.01265"><ele></ele><time>2016-9-26T4:53:39Z</time></trkpt>
<trkpt lat="46.24737" lon="7.01262"><ele></ele><time>2016-9-26T4:53:42Z</time></trkpt>
<trkpt lat="46.2473" lon="7.01262"><ele></ele><time>2016-9-26T4:53:45Z</time></trkpt>
<trkpt lat="46.24723" lon="7.0126"><ele></ele><time>2016-9-26T4:53:48Z</time></trkpt>
<trkpt lat="46.24718" lon="7.01258"><ele></ele><time>2016-9-26T4:53:51Z</time></trkpt>
<trkpt lat="46.24707" lon="7.01253"><ele></ele><time>2016-9-26T4:53:54Z</time></trkpt>
<trkpt lat="46.24696" lon="7.01249"><ele></ele><time>2016-9-26T4:53:57Z</time></trkpt>
<trkpt lat="46.24681" lon="7.01241"><ele></ele><time>2016-9-26T4:54:0Z</time></trkpt>
<trkpt lat="46.24677" lon="7.01236"><ele></ele><time>2016-9-26T4:54:3Z</time></trkpt>
<trkpt lat="46.2467" lon="7.01226"><ele></ele><time>2016-9-26T4:54:6Z</time></trkpt>
<trkpt lat="46.24662" lon="7.01216"><ele></ele><time>2016-9-26T4:54:9Z</time></trkpt>
<trkpt lat="46.2466" lon="7.0121"><ele></ele><time>2016-9-26T4:54:12Z</time></trkpt>
<trkpt lat="46.24659" lon="7.01203"><ele></ele><time>2016-9-26T4:54:15Z</time></trkpt>
<trkpt lat="46.24656" lon="7.01198"><ele></ele><time>2016-9-26T4:54:18Z</time></trkpt>
<trkpt lat="46.24651" lon="7.01189"><ele></ele><time>2016-9-26T4:54:21Z</time></trkpt>
<trkpt lat="46.24643" lon="7.01188"><ele></ele><time>2016-9-26T4:54:24Z</time></trkpt>
<trkpt lat="46.24638" lon="7.01195"><ele></ele><time>2016-9-26T4:54:27Z</time></trkpt>
<trkpt lat="46.24636" lon="7.01198"><ele></ele><time>2016-9-26T4:54:30Z</time></trkpt>
<trkpt lat="46.24631" lon="7.01204"><ele></ele><time>2016-9-26T4:54:33Z</time></trkpt>
<trkpt lat="46.24627" lon="7.0121"><ele></ele><time>2016-9-26T4:54:36Z</time></trkpt>
<trkpt lat="46.24622" lon="7.01217"><ele></ele><time>2016-9-26T4:54:39Z</time></trkpt>
<trkpt lat="46.24617" lon="7.01223"><ele></ele><time>2016-9-26T4:54:42Z</time></trkpt>
<trkpt lat="46.24612" lon="7.01229"><ele></ele><time>2016-9-26T4:54:45Z</time></trkpt>
<trkpt lat="46.24611" lon="7.01232"><ele></ele><time>2016-9-26T4:54:48Z</time></trkpt>
<trkpt lat="46.24611" lon="7.01233"><ele></ele><time>2016-9-26T4:54:51Z</time></trkpt>
</trkseg></trk></gpx>